<?xml version="1.0" encoding="UTF-8" standalone="no" ?>
<gpx xmlns="http://www.topografix.com/GPX/1/1" xmlns:xsi="http://www.w3.org/2001/XMLSchema-instance" xsi:schemaLocation="http://www.topografix.com/GPX/1/1 http://www.topografix.com/GPX/1/1/gpx.xsd" version="1.1" creator="VisuGPX - https://www.visugpx.com">
  <metadata>
    <name>autour de St Leger en Yvelines </name>
  </metadata>
  <trk>
    <name><![CDATA[autour de St Leger en Yvelines _1]]></name>
    <trkseg>
      <trkpt lat="48.70834" lon="1.78563">
        <ele>143.6</ele>
        <time>2023-04-27T11:11:50Z</time>
      </trkpt>
      <trkpt lat="48.70835" lon="1.78561">
        <ele>144</ele>
        <time>2023-04-27T11:11:51Z</time>
      </trkpt>
      <trkpt lat="48.70836" lon="1.78556">
        <ele>144.6</ele>
        <time>2023-04-27T11:11:53Z</time>
      </trkpt>
      <trkpt lat="48.70837" lon="1.78552">
        <ele>145.8</ele>
        <time>2023-04-27T11:11:55Z</time>
      </trkpt>
      <trkpt lat="48.70838" lon="1.78549">
        <ele>146.2</ele>
        <time>2023-04-27T11:11:57Z</time>
      </trkpt>
      <trkpt lat="48.70839" lon="1.78546">
        <ele>146.6</ele>
        <time>2023-04-27T11:11:59Z</time>
      </trkpt>
      <trkpt lat="48.7084" lon="1.78543">
        <ele>146.8</ele>
        <time>2023-04-27T11:12:01Z</time>
      </trkpt>
      <trkpt lat="48.70841" lon="1.7854">
        <ele>146.8</ele>
        <time>2023-04-27T11:12:03Z</time>
      </trkpt>
      <trkpt lat="48.70843" lon="1.78537">
        <ele>146.8</ele>
        <time>2023-04-27T11:12:06Z</time>
      </trkpt>
      <trkpt lat="48.70845" lon="1.78534">
        <ele>146.6</ele>
        <time>2023-04-27T11:12:14Z</time>
      </trkpt>
      <trkpt lat="48.70847" lon="1.7853">
        <ele>146.2</ele>
        <time>2023-04-27T11:12:16Z</time>
      </trkpt>
      <trkpt lat="48.70851" lon="1.78525">
        <ele>146</ele>
        <time>2023-04-27T11:12:17Z</time>
      </trkpt>
      <trkpt lat="48.70852" lon="1.78523">
        <ele>145.8</ele>
        <time>2023-04-27T11:12:19Z</time>
      </trkpt>
      <trkpt lat="48.70853" lon="1.78521">
        <ele>145.6</ele>
        <time>2023-04-27T11:12:21Z</time>
      </trkpt>
      <trkpt lat="48.70855" lon="1.78519">
        <ele>145.6</ele>
        <time>2023-04-27T11:12:23Z</time>
      </trkpt>
      <trkpt lat="48.70856" lon="1.78516">
        <ele>146.8</ele>
        <time>2023-04-27T11:12:28Z</time>
      </trkpt>
      <trkpt lat="48.70857" lon="1.78513">
        <ele>147</ele>
        <time>2023-04-27T11:12:30Z</time>
      </trkpt>
      <trkpt lat="48.7086" lon="1.78508">
        <ele>147.6</ele>
        <time>2023-04-27T11:12:32Z</time>
      </trkpt>
      <trkpt lat="48.70861" lon="1.78504">
        <ele>148.2</ele>
        <time>2023-04-27T11:12:34Z</time>
      </trkpt>
      <trkpt lat="48.70862" lon="1.78501">
        <ele>148.2</ele>
        <time>2023-04-27T11:12:36Z</time>
      </trkpt>
      <trkpt lat="48.70864" lon="1.78499">
        <ele>148.2</ele>
        <time>2023-04-27T11:12:38Z</time>
      </trkpt>
      <trkpt lat="48.70865" lon="1.78496">
        <ele>148.4</ele>
        <time>2023-04-27T11:12:40Z</time>
      </trkpt>
      <trkpt lat="48.70866" lon="1.78493">
        <ele>148.6</ele>
        <time>2023-04-27T11:12:42Z</time>
      </trkpt>
      <trkpt lat="48.70868" lon="1.7849">
        <ele>148.6</ele>
        <time>2023-04-27T11:12:44Z</time>
      </trkpt>
      <trkpt lat="48.70869" lon="1.78487">
        <ele>148.8</ele>
        <time>2023-04-27T11:12:46Z</time>
      </trkpt>
      <trkpt lat="48.70871" lon="1.78483">
        <ele>148.8</ele>
        <time>2023-04-27T11:12:48Z</time>
      </trkpt>
      <trkpt lat="48.70873" lon="1.7848">
        <ele>149</ele>
        <time>2023-04-27T11:12:50Z</time>
      </trkpt>
      <trkpt lat="48.70874" lon="1.78477">
        <ele>149.2</ele>
        <time>2023-04-27T11:12:52Z</time>
      </trkpt>
      <trkpt lat="48.70875" lon="1.78473">
        <ele>149.2</ele>
        <time>2023-04-27T11:12:54Z</time>
      </trkpt>
      <trkpt lat="48.70877" lon="1.7847">
        <ele>149.4</ele>
        <time>2023-04-27T11:12:56Z</time>
      </trkpt>
      <trkpt lat="48.70879" lon="1.78467">
        <ele>149.4</ele>
        <time>2023-04-27T11:12:58Z</time>
      </trkpt>
      <trkpt lat="48.7088" lon="1.78464">
        <ele>149.6</ele>
        <time>2023-04-27T11:13:00Z</time>
      </trkpt>
      <trkpt lat="48.70882" lon="1.7846">
        <ele>149.6</ele>
        <time>2023-04-27T11:13:02Z</time>
      </trkpt>
      <trkpt lat="48.70883" lon="1.78457">
        <ele>150.2</ele>
        <time>2023-04-27T11:13:04Z</time>
      </trkpt>
      <trkpt lat="48.70884" lon="1.78454">
        <ele>150.8</ele>
        <time>2023-04-27T11:13:06Z</time>
      </trkpt>
      <trkpt lat="48.70884" lon="1.78451">
        <ele>151.6</ele>
        <time>2023-04-27T11:13:08Z</time>
      </trkpt>
      <trkpt lat="48.70885" lon="1.78449">
        <ele>152.2</ele>
        <time>2023-04-27T11:13:10Z</time>
      </trkpt>
      <trkpt lat="48.70887" lon="1.78446">
        <ele>152.6</ele>
        <time>2023-04-27T11:13:12Z</time>
      </trkpt>
      <trkpt lat="48.70889" lon="1.78443">
        <ele>153</ele>
        <time>2023-04-27T11:13:14Z</time>
      </trkpt>
      <trkpt lat="48.70891" lon="1.7844">
        <ele>153.2</ele>
        <time>2023-04-27T11:13:16Z</time>
      </trkpt>
      <trkpt lat="48.70893" lon="1.78437">
        <ele>153.4</ele>
        <time>2023-04-27T11:13:18Z</time>
      </trkpt>
      <trkpt lat="48.70894" lon="1.78434">
        <ele>153.6</ele>
        <time>2023-04-27T11:13:20Z</time>
      </trkpt>
      <trkpt lat="48.70895" lon="1.7843">
        <ele>154</ele>
        <time>2023-04-27T11:13:22Z</time>
      </trkpt>
      <trkpt lat="48.70896" lon="1.78427">
        <ele>154</ele>
        <time>2023-04-27T11:13:24Z</time>
      </trkpt>
      <trkpt lat="48.70897" lon="1.78423">
        <ele>154.4</ele>
        <time>2023-04-27T11:13:26Z</time>
      </trkpt>
      <trkpt lat="48.70899" lon="1.7842">
        <ele>154.6</ele>
        <time>2023-04-27T11:13:28Z</time>
      </trkpt>
      <trkpt lat="48.709" lon="1.78415">
        <ele>154.8</ele>
        <time>2023-04-27T11:13:30Z</time>
      </trkpt>
      <trkpt lat="48.70903" lon="1.78411">
        <ele>155.2</ele>
        <time>2023-04-27T11:13:32Z</time>
      </trkpt>
      <trkpt lat="48.70905" lon="1.78407">
        <ele>155.4</ele>
        <time>2023-04-27T11:13:34Z</time>
      </trkpt>
      <trkpt lat="48.70907" lon="1.78404">
        <ele>155.8</ele>
        <time>2023-04-27T11:13:36Z</time>
      </trkpt>
      <trkpt lat="48.70909" lon="1.78401">
        <ele>156</ele>
        <time>2023-04-27T11:13:38Z</time>
      </trkpt>
      <trkpt lat="48.70911" lon="1.78398">
        <ele>156.4</ele>
        <time>2023-04-27T11:13:40Z</time>
      </trkpt>
      <trkpt lat="48.70913" lon="1.78394">
        <ele>156.6</ele>
        <time>2023-04-27T11:13:42Z</time>
      </trkpt>
      <trkpt lat="48.70914" lon="1.78391">
        <ele>156.8</ele>
        <time>2023-04-27T11:13:44Z</time>
      </trkpt>
      <trkpt lat="48.70915" lon="1.78388">
        <ele>157.2</ele>
        <time>2023-04-27T11:13:46Z</time>
      </trkpt>
      <trkpt lat="48.70917" lon="1.78386">
        <ele>157.6</ele>
        <time>2023-04-27T11:13:49Z</time>
      </trkpt>
      <trkpt lat="48.70919" lon="1.78383">
        <ele>158.2</ele>
        <time>2023-04-27T11:13:52Z</time>
      </trkpt>
      <trkpt lat="48.70921" lon="1.7838">
        <ele>158.6</ele>
        <time>2023-04-27T11:13:54Z</time>
      </trkpt>
      <trkpt lat="48.70923" lon="1.78376">
        <ele>159</ele>
        <time>2023-04-27T11:13:56Z</time>
      </trkpt>
      <trkpt lat="48.70924" lon="1.78372">
        <ele>159.2</ele>
        <time>2023-04-27T11:13:58Z</time>
      </trkpt>
      <trkpt lat="48.70926" lon="1.78367">
        <ele>159.6</ele>
        <time>2023-04-27T11:14:00Z</time>
      </trkpt>
      <trkpt lat="48.70927" lon="1.78364">
        <ele>160</ele>
        <time>2023-04-27T11:14:02Z</time>
      </trkpt>
      <trkpt lat="48.70931" lon="1.78361">
        <ele>160.6</ele>
        <time>2023-04-27T11:14:05Z</time>
      </trkpt>
      <trkpt lat="48.70932" lon="1.7836">
        <ele>160.8</ele>
        <time>2023-04-27T11:14:07Z</time>
      </trkpt>
      <trkpt lat="48.70935" lon="1.78358">
        <ele>161.2</ele>
        <time>2023-04-27T11:14:10Z</time>
      </trkpt>
      <trkpt lat="48.70937" lon="1.78356">
        <ele>161.4</ele>
        <time>2023-04-27T11:14:12Z</time>
      </trkpt>
      <trkpt lat="48.70939" lon="1.78354">
        <ele>161.6</ele>
        <time>2023-04-27T11:14:14Z</time>
      </trkpt>
      <trkpt lat="48.70942" lon="1.7835">
        <ele>161.8</ele>
        <time>2023-04-27T11:14:16Z</time>
      </trkpt>
      <trkpt lat="48.70944" lon="1.78346">
        <ele>162</ele>
        <time>2023-04-27T11:14:18Z</time>
      </trkpt>
      <trkpt lat="48.70945" lon="1.78344">
        <ele>162</ele>
        <time>2023-04-27T11:14:19Z</time>
      </trkpt>
      <trkpt lat="48.70947" lon="1.7834">
        <ele>162.2</ele>
        <time>2023-04-27T11:14:21Z</time>
      </trkpt>
      <trkpt lat="48.70948" lon="1.78335">
        <ele>162.2</ele>
        <time>2023-04-27T11:14:23Z</time>
      </trkpt>
      <trkpt lat="48.70949" lon="1.7833">
        <ele>162.4</ele>
        <time>2023-04-27T11:14:25Z</time>
      </trkpt>
      <trkpt lat="48.70951" lon="1.78325">
        <ele>162.6</ele>
        <time>2023-04-27T11:14:27Z</time>
      </trkpt>
      <trkpt lat="48.70952" lon="1.7832">
        <ele>162.8</ele>
        <time>2023-04-27T11:14:29Z</time>
      </trkpt>
      <trkpt lat="48.70954" lon="1.78315">
        <ele>163.6</ele>
        <time>2023-04-27T11:14:31Z</time>
      </trkpt>
      <trkpt lat="48.70955" lon="1.78313">
        <ele>164.2</ele>
        <time>2023-04-27T11:14:32Z</time>
      </trkpt>
      <trkpt lat="48.70955" lon="1.7831">
        <ele>164.6</ele>
        <time>2023-04-27T11:14:33Z</time>
      </trkpt>
      <trkpt lat="48.70956" lon="1.78307">
        <ele>165</ele>
        <time>2023-04-27T11:14:34Z</time>
      </trkpt>
      <trkpt lat="48.70957" lon="1.78303">
        <ele>166</ele>
        <time>2023-04-27T11:14:36Z</time>
      </trkpt>
      <trkpt lat="48.70958" lon="1.78298">
        <ele>166.6</ele>
        <time>2023-04-27T11:14:38Z</time>
      </trkpt>
      <trkpt lat="48.70959" lon="1.78295">
        <ele>166.8</ele>
        <time>2023-04-27T11:14:40Z</time>
      </trkpt>
      <trkpt lat="48.70961" lon="1.78291">
        <ele>166.4</ele>
        <time>2023-04-27T11:14:42Z</time>
      </trkpt>
      <trkpt lat="48.70962" lon="1.78287">
        <ele>166</ele>
        <time>2023-04-27T11:14:44Z</time>
      </trkpt>
      <trkpt lat="48.70964" lon="1.78283">
        <ele>165.8</ele>
        <time>2023-04-27T11:14:46Z</time>
      </trkpt>
      <trkpt lat="48.70965" lon="1.78279">
        <ele>165.6</ele>
        <time>2023-04-27T11:14:48Z</time>
      </trkpt>
      <trkpt lat="48.70967" lon="1.78277">
        <ele>165.4</ele>
        <time>2023-04-27T11:14:50Z</time>
      </trkpt>
      <trkpt lat="48.70969" lon="1.78275">
        <ele>165</ele>
        <time>2023-04-27T11:14:52Z</time>
      </trkpt>
      <trkpt lat="48.7097" lon="1.78273">
        <ele>164.8</ele>
        <time>2023-04-27T11:14:54Z</time>
      </trkpt>
      <trkpt lat="48.70971" lon="1.78269">
        <ele>164.6</ele>
        <time>2023-04-27T11:14:56Z</time>
      </trkpt>
      <trkpt lat="48.70973" lon="1.78265">
        <ele>164.4</ele>
        <time>2023-04-27T11:14:58Z</time>
      </trkpt>
      <trkpt lat="48.70974" lon="1.7826">
        <ele>164.2</ele>
        <time>2023-04-27T11:15:00Z</time>
      </trkpt>
      <trkpt lat="48.70977" lon="1.78256">
        <ele>164</ele>
        <time>2023-04-27T11:15:02Z</time>
      </trkpt>
      <trkpt lat="48.70979" lon="1.78252">
        <ele>163.8</ele>
        <time>2023-04-27T11:15:04Z</time>
      </trkpt>
      <trkpt lat="48.7098" lon="1.7825">
        <ele>163.6</ele>
        <time>2023-04-27T11:15:06Z</time>
      </trkpt>
      <trkpt lat="48.70982" lon="1.78248">
        <ele>163.4</ele>
        <time>2023-04-27T11:15:08Z</time>
      </trkpt>
      <trkpt lat="48.70985" lon="1.78246">
        <ele>163.2</ele>
        <time>2023-04-27T11:15:10Z</time>
      </trkpt>
      <trkpt lat="48.70987" lon="1.78245">
        <ele>163</ele>
        <time>2023-04-27T11:15:12Z</time>
      </trkpt>
      <trkpt lat="48.7099" lon="1.78244">
        <ele>162.4</ele>
        <time>2023-04-27T11:15:14Z</time>
      </trkpt>
      <trkpt lat="48.70991" lon="1.78241">
        <ele>161.4</ele>
        <time>2023-04-27T11:15:17Z</time>
      </trkpt>
      <trkpt lat="48.70992" lon="1.78238">
        <ele>161</ele>
        <time>2023-04-27T11:15:19Z</time>
      </trkpt>
      <trkpt lat="48.70994" lon="1.78236">
        <ele>160.8</ele>
        <time>2023-04-27T11:15:21Z</time>
      </trkpt>
      <trkpt lat="48.70996" lon="1.78235">
        <ele>161.2</ele>
        <time>2023-04-27T11:15:23Z</time>
      </trkpt>
      <trkpt lat="48.70999" lon="1.78234">
        <ele>161</ele>
        <time>2023-04-27T11:15:25Z</time>
      </trkpt>
      <trkpt lat="48.71001" lon="1.78234">
        <ele>160.2</ele>
        <time>2023-04-27T11:15:27Z</time>
      </trkpt>
      <trkpt lat="48.71004" lon="1.78234">
        <ele>159.4</ele>
        <time>2023-04-27T11:15:29Z</time>
      </trkpt>
      <trkpt lat="48.71007" lon="1.78233">
        <ele>159.8</ele>
        <time>2023-04-27T11:15:31Z</time>
      </trkpt>
      <trkpt lat="48.7101" lon="1.78232">
        <ele>159.8</ele>
        <time>2023-04-27T11:15:33Z</time>
      </trkpt>
      <trkpt lat="48.71012" lon="1.78232">
        <ele>159.8</ele>
        <time>2023-04-27T11:15:34Z</time>
      </trkpt>
      <trkpt lat="48.71014" lon="1.78231">
        <ele>160</ele>
        <time>2023-04-27T11:15:35Z</time>
      </trkpt>
      <trkpt lat="48.71018" lon="1.78231">
        <ele>160.2</ele>
        <time>2023-04-27T11:15:37Z</time>
      </trkpt>
      <trkpt lat="48.7102" lon="1.7823">
        <ele>160.2</ele>
        <time>2023-04-27T11:15:38Z</time>
      </trkpt>
      <trkpt lat="48.71023" lon="1.78229">
        <ele>159.6</ele>
        <time>2023-04-27T11:15:40Z</time>
      </trkpt>
      <trkpt lat="48.71025" lon="1.78228">
        <ele>159.2</ele>
        <time>2023-04-27T11:15:41Z</time>
      </trkpt>
      <trkpt lat="48.71027" lon="1.78227">
        <ele>159</ele>
        <time>2023-04-27T11:15:42Z</time>
      </trkpt>
      <trkpt lat="48.71029" lon="1.78226">
        <ele>158.4</ele>
        <time>2023-04-27T11:15:43Z</time>
      </trkpt>
      <trkpt lat="48.71031" lon="1.78224">
        <ele>157.8</ele>
        <time>2023-04-27T11:15:44Z</time>
      </trkpt>
      <trkpt lat="48.71034" lon="1.78223">
        <ele>156.6</ele>
        <time>2023-04-27T11:15:46Z</time>
      </trkpt>
      <trkpt lat="48.71036" lon="1.78221">
        <ele>155.4</ele>
        <time>2023-04-27T11:15:48Z</time>
      </trkpt>
      <trkpt lat="48.71038" lon="1.7822">
        <ele>154.2</ele>
        <time>2023-04-27T11:15:50Z</time>
      </trkpt>
      <trkpt lat="48.7104" lon="1.78219">
        <ele>152.6</ele>
        <time>2023-04-27T11:15:52Z</time>
      </trkpt>
      <trkpt lat="48.71043" lon="1.78219">
        <ele>151.4</ele>
        <time>2023-04-27T11:15:54Z</time>
      </trkpt>
      <trkpt lat="48.71046" lon="1.78217">
        <ele>151.6</ele>
        <time>2023-04-27T11:15:56Z</time>
      </trkpt>
      <trkpt lat="48.71049" lon="1.78216">
        <ele>151.8</ele>
        <time>2023-04-27T11:15:58Z</time>
      </trkpt>
      <trkpt lat="48.7105" lon="1.78214">
        <ele>152</ele>
        <time>2023-04-27T11:15:59Z</time>
      </trkpt>
      <trkpt lat="48.71052" lon="1.78212">
        <ele>152.2</ele>
        <time>2023-04-27T11:16:01Z</time>
      </trkpt>
      <trkpt lat="48.71054" lon="1.7821">
        <ele>152.4</ele>
        <time>2023-04-27T11:16:02Z</time>
      </trkpt>
      <trkpt lat="48.71056" lon="1.78208">
        <ele>152.4</ele>
        <time>2023-04-27T11:16:04Z</time>
      </trkpt>
      <trkpt lat="48.71059" lon="1.78207">
        <ele>152.4</ele>
        <time>2023-04-27T11:16:06Z</time>
      </trkpt>
      <trkpt lat="48.7106" lon="1.78205">
        <ele>152</ele>
        <time>2023-04-27T11:16:08Z</time>
      </trkpt>
      <trkpt lat="48.71062" lon="1.78203">
        <ele>151.4</ele>
        <time>2023-04-27T11:16:10Z</time>
      </trkpt>
      <trkpt lat="48.71064" lon="1.78199">
        <ele>150.8</ele>
        <time>2023-04-27T11:16:12Z</time>
      </trkpt>
      <trkpt lat="48.71066" lon="1.78195">
        <ele>150.4</ele>
        <time>2023-04-27T11:16:14Z</time>
      </trkpt>
      <trkpt lat="48.71067" lon="1.78192">
        <ele>150</ele>
        <time>2023-04-27T11:16:16Z</time>
      </trkpt>
      <trkpt lat="48.71068" lon="1.78189">
        <ele>149.8</ele>
        <time>2023-04-27T11:16:19Z</time>
      </trkpt>
      <trkpt lat="48.7107" lon="1.78189">
        <ele>149.8</ele>
        <time>2023-04-27T11:16:21Z</time>
      </trkpt>
      <trkpt lat="48.71072" lon="1.78188">
        <ele>149.8</ele>
        <time>2023-04-27T11:16:23Z</time>
      </trkpt>
      <trkpt lat="48.71074" lon="1.78186">
        <ele>149.8</ele>
        <time>2023-04-27T11:16:25Z</time>
      </trkpt>
      <trkpt lat="48.71076" lon="1.78184">
        <ele>150</ele>
        <time>2023-04-27T11:16:27Z</time>
      </trkpt>
      <trkpt lat="48.71077" lon="1.78182">
        <ele>150.2</ele>
        <time>2023-04-27T11:16:29Z</time>
      </trkpt>
      <trkpt lat="48.71078" lon="1.78178">
        <ele>150.2</ele>
        <time>2023-04-27T11:16:31Z</time>
      </trkpt>
      <trkpt lat="48.7108" lon="1.78174">
        <ele>150.4</ele>
        <time>2023-04-27T11:16:33Z</time>
      </trkpt>
      <trkpt lat="48.71081" lon="1.78171">
        <ele>150.4</ele>
        <time>2023-04-27T11:16:35Z</time>
      </trkpt>
      <trkpt lat="48.71082" lon="1.78167">
        <ele>150.4</ele>
        <time>2023-04-27T11:16:37Z</time>
      </trkpt>
      <trkpt lat="48.71082" lon="1.78164">
        <ele>150.4</ele>
        <time>2023-04-27T11:16:39Z</time>
      </trkpt>
      <trkpt lat="48.71082" lon="1.7816">
        <ele>150.6</ele>
        <time>2023-04-27T11:16:41Z</time>
      </trkpt>
      <trkpt lat="48.71084" lon="1.78156">
        <ele>150.6</ele>
        <time>2023-04-27T11:16:43Z</time>
      </trkpt>
      <trkpt lat="48.71085" lon="1.78152">
        <ele>150.6</ele>
        <time>2023-04-27T11:16:45Z</time>
      </trkpt>
      <trkpt lat="48.71086" lon="1.78148">
        <ele>150.4</ele>
        <time>2023-04-27T11:16:47Z</time>
      </trkpt>
      <trkpt lat="48.71088" lon="1.78144">
        <ele>150.2</ele>
        <time>2023-04-27T11:16:49Z</time>
      </trkpt>
      <trkpt lat="48.71088" lon="1.7814">
        <ele>150.2</ele>
        <time>2023-04-27T11:16:51Z</time>
      </trkpt>
      <trkpt lat="48.71089" lon="1.78137">
        <ele>150</ele>
        <time>2023-04-27T11:16:53Z</time>
      </trkpt>
      <trkpt lat="48.7109" lon="1.78133">
        <ele>150.6</ele>
        <time>2023-04-27T11:16:55Z</time>
      </trkpt>
      <trkpt lat="48.71092" lon="1.78128">
        <ele>151.4</ele>
        <time>2023-04-27T11:16:57Z</time>
      </trkpt>
      <trkpt lat="48.71093" lon="1.78124">
        <ele>152.2</ele>
        <time>2023-04-27T11:16:59Z</time>
      </trkpt>
      <trkpt lat="48.71095" lon="1.78121">
        <ele>153</ele>
        <time>2023-04-27T11:17:01Z</time>
      </trkpt>
      <trkpt lat="48.71096" lon="1.78118">
        <ele>153.8</ele>
        <time>2023-04-27T11:17:03Z</time>
      </trkpt>
      <trkpt lat="48.71098" lon="1.78116">
        <ele>154.4</ele>
        <time>2023-04-27T11:17:05Z</time>
      </trkpt>
      <trkpt lat="48.711" lon="1.78113">
        <ele>154.8</ele>
        <time>2023-04-27T11:17:07Z</time>
      </trkpt>
      <trkpt lat="48.71101" lon="1.7811">
        <ele>155.4</ele>
        <time>2023-04-27T11:17:09Z</time>
      </trkpt>
      <trkpt lat="48.71102" lon="1.78107">
        <ele>156.2</ele>
        <time>2023-04-27T11:17:12Z</time>
      </trkpt>
      <trkpt lat="48.71103" lon="1.78104">
        <ele>155.6</ele>
        <time>2023-04-27T11:17:14Z</time>
      </trkpt>
      <trkpt lat="48.71104" lon="1.78101">
        <ele>155.6</ele>
        <time>2023-04-27T11:17:16Z</time>
      </trkpt>
      <trkpt lat="48.71105" lon="1.78097">
        <ele>155.6</ele>
        <time>2023-04-27T11:17:18Z</time>
      </trkpt>
      <trkpt lat="48.71105" lon="1.78094">
        <ele>156</ele>
        <time>2023-04-27T11:17:20Z</time>
      </trkpt>
      <trkpt lat="48.71106" lon="1.78091">
        <ele>157</ele>
        <time>2023-04-27T11:17:23Z</time>
      </trkpt>
      <trkpt lat="48.71107" lon="1.78088">
        <ele>157.2</ele>
        <time>2023-04-27T11:17:25Z</time>
      </trkpt>
      <trkpt lat="48.71108" lon="1.78082">
        <ele>156.6</ele>
        <time>2023-04-27T11:17:27Z</time>
      </trkpt>
      <trkpt lat="48.71108" lon="1.78079">
        <ele>156.6</ele>
        <time>2023-04-27T11:17:28Z</time>
      </trkpt>
      <trkpt lat="48.71108" lon="1.78077">
        <ele>156.6</ele>
        <time>2023-04-27T11:17:29Z</time>
      </trkpt>
      <trkpt lat="48.71109" lon="1.78071">
        <ele>156.8</ele>
        <time>2023-04-27T11:17:31Z</time>
      </trkpt>
      <trkpt lat="48.71109" lon="1.78067">
        <ele>157</ele>
        <time>2023-04-27T11:17:33Z</time>
      </trkpt>
      <trkpt lat="48.7111" lon="1.78063">
        <ele>157</ele>
        <time>2023-04-27T11:17:35Z</time>
      </trkpt>
      <trkpt lat="48.71111" lon="1.7806">
        <ele>157</ele>
        <time>2023-04-27T11:17:37Z</time>
      </trkpt>
      <trkpt lat="48.71112" lon="1.78056">
        <ele>157.4</ele>
        <time>2023-04-27T11:17:39Z</time>
      </trkpt>
      <trkpt lat="48.71113" lon="1.78051">
        <ele>157.4</ele>
        <time>2023-04-27T11:17:41Z</time>
      </trkpt>
      <trkpt lat="48.71113" lon="1.78047">
        <ele>157</ele>
        <time>2023-04-27T11:17:43Z</time>
      </trkpt>
      <trkpt lat="48.71114" lon="1.78043">
        <ele>156.6</ele>
        <time>2023-04-27T11:17:45Z</time>
      </trkpt>
      <trkpt lat="48.71115" lon="1.78038">
        <ele>156.2</ele>
        <time>2023-04-27T11:17:47Z</time>
      </trkpt>
      <trkpt lat="48.71116" lon="1.78034">
        <ele>155.8</ele>
        <time>2023-04-27T11:17:49Z</time>
      </trkpt>
      <trkpt lat="48.71116" lon="1.7803">
        <ele>156</ele>
        <time>2023-04-27T11:17:51Z</time>
      </trkpt>
      <trkpt lat="48.71118" lon="1.78027">
        <ele>157</ele>
        <time>2023-04-27T11:17:53Z</time>
      </trkpt>
      <trkpt lat="48.71119" lon="1.78023">
        <ele>157.8</ele>
        <time>2023-04-27T11:17:55Z</time>
      </trkpt>
      <trkpt lat="48.71121" lon="1.78019">
        <ele>158.2</ele>
        <time>2023-04-27T11:17:57Z</time>
      </trkpt>
      <trkpt lat="48.71124" lon="1.78015">
        <ele>158.6</ele>
        <time>2023-04-27T11:17:59Z</time>
      </trkpt>
      <trkpt lat="48.71127" lon="1.78013">
        <ele>158.8</ele>
        <time>2023-04-27T11:18:01Z</time>
      </trkpt>
      <trkpt lat="48.7113" lon="1.78013">
        <ele>159</ele>
        <time>2023-04-27T11:18:03Z</time>
      </trkpt>
      <trkpt lat="48.71132" lon="1.78013">
        <ele>159</ele>
        <time>2023-04-27T11:18:04Z</time>
      </trkpt>
      <trkpt lat="48.71134" lon="1.78013">
        <ele>159.2</ele>
        <time>2023-04-27T11:18:05Z</time>
      </trkpt>
      <trkpt lat="48.71136" lon="1.78014">
        <ele>159.2</ele>
        <time>2023-04-27T11:18:06Z</time>
      </trkpt>
      <trkpt lat="48.71138" lon="1.78015">
        <ele>159.2</ele>
        <time>2023-04-27T11:18:07Z</time>
      </trkpt>
      <trkpt lat="48.7114" lon="1.78016">
        <ele>159</ele>
        <time>2023-04-27T11:18:08Z</time>
      </trkpt>
      <trkpt lat="48.71141" lon="1.78017">
        <ele>159</ele>
        <time>2023-04-27T11:18:09Z</time>
      </trkpt>
      <trkpt lat="48.71143" lon="1.78019">
        <ele>159</ele>
        <time>2023-04-27T11:18:10Z</time>
      </trkpt>
      <trkpt lat="48.71145" lon="1.78021">
        <ele>159</ele>
        <time>2023-04-27T11:18:11Z</time>
      </trkpt>
      <trkpt lat="48.71147" lon="1.78022">
        <ele>159</ele>
        <time>2023-04-27T11:18:12Z</time>
      </trkpt>
      <trkpt lat="48.71149" lon="1.78024">
        <ele>158.8</ele>
        <time>2023-04-27T11:18:13Z</time>
      </trkpt>
      <trkpt lat="48.71151" lon="1.78026">
        <ele>158.8</ele>
        <time>2023-04-27T11:18:14Z</time>
      </trkpt>
      <trkpt lat="48.71153" lon="1.78027">
        <ele>160.4</ele>
        <time>2023-04-27T11:18:15Z</time>
      </trkpt>
      <trkpt lat="48.71155" lon="1.78029">
        <ele>160.2</ele>
        <time>2023-04-27T11:18:16Z</time>
      </trkpt>
      <trkpt lat="48.71157" lon="1.7803">
        <ele>160</ele>
        <time>2023-04-27T11:18:17Z</time>
      </trkpt>
      <trkpt lat="48.7116" lon="1.7803">
        <ele>159.2</ele>
        <time>2023-04-27T11:18:18Z</time>
      </trkpt>
      <trkpt lat="48.71163" lon="1.78031">
        <ele>157.6</ele>
        <time>2023-04-27T11:18:20Z</time>
      </trkpt>
      <trkpt lat="48.71163" lon="1.78035">
        <ele>160.8</ele>
        <time>2023-04-27T11:18:27Z</time>
      </trkpt>
      <trkpt lat="48.71163" lon="1.7804">
        <ele>161.4</ele>
        <time>2023-04-27T11:18:29Z</time>
      </trkpt>
      <trkpt lat="48.71165" lon="1.78043">
        <ele>160.6</ele>
        <time>2023-04-27T11:18:31Z</time>
      </trkpt>
      <trkpt lat="48.71167" lon="1.78046">
        <ele>160.2</ele>
        <time>2023-04-27T11:18:33Z</time>
      </trkpt>
      <trkpt lat="48.71168" lon="1.78049">
        <ele>160</ele>
        <time>2023-04-27T11:18:35Z</time>
      </trkpt>
      <trkpt lat="48.71168" lon="1.78053">
        <ele>159.6</ele>
        <time>2023-04-27T11:18:37Z</time>
      </trkpt>
      <trkpt lat="48.71168" lon="1.78056">
        <ele>159</ele>
        <time>2023-04-27T11:18:39Z</time>
      </trkpt>
      <trkpt lat="48.71169" lon="1.7806">
        <ele>160.8</ele>
        <time>2023-04-27T11:18:41Z</time>
      </trkpt>
      <trkpt lat="48.7117" lon="1.78064">
        <ele>160.2</ele>
        <time>2023-04-27T11:18:43Z</time>
      </trkpt>
      <trkpt lat="48.71172" lon="1.78067">
        <ele>159.4</ele>
        <time>2023-04-27T11:18:45Z</time>
      </trkpt>
      <trkpt lat="48.71173" lon="1.78069">
        <ele>158.6</ele>
        <time>2023-04-27T11:18:47Z</time>
      </trkpt>
      <trkpt lat="48.71175" lon="1.7807">
        <ele>157.8</ele>
        <time>2023-04-27T11:18:49Z</time>
      </trkpt>
      <trkpt lat="48.71177" lon="1.7807">
        <ele>156.6</ele>
        <time>2023-04-27T11:18:52Z</time>
      </trkpt>
      <trkpt lat="48.71178" lon="1.78074">
        <ele>154.4</ele>
        <time>2023-04-27T11:18:57Z</time>
      </trkpt>
      <trkpt lat="48.71179" lon="1.78077">
        <ele>153.2</ele>
        <time>2023-04-27T11:18:59Z</time>
      </trkpt>
      <trkpt lat="48.71181" lon="1.78078">
        <ele>152.4</ele>
        <time>2023-04-27T11:19:01Z</time>
      </trkpt>
      <trkpt lat="48.71183" lon="1.7808">
        <ele>151.6</ele>
        <time>2023-04-27T11:19:03Z</time>
      </trkpt>
      <trkpt lat="48.71185" lon="1.7808">
        <ele>151.8</ele>
        <time>2023-04-27T11:19:05Z</time>
      </trkpt>
      <trkpt lat="48.71188" lon="1.78082">
        <ele>151.8</ele>
        <time>2023-04-27T11:19:08Z</time>
      </trkpt>
      <trkpt lat="48.71188" lon="1.78085">
        <ele>151.8</ele>
        <time>2023-04-27T11:19:10Z</time>
      </trkpt>
      <trkpt lat="48.71188" lon="1.78089">
        <ele>151.6</ele>
        <time>2023-04-27T11:19:12Z</time>
      </trkpt>
      <trkpt lat="48.71187" lon="1.78093">
        <ele>151.6</ele>
        <time>2023-04-27T11:19:14Z</time>
      </trkpt>
      <trkpt lat="48.71188" lon="1.78096">
        <ele>151.6</ele>
        <time>2023-04-27T11:19:16Z</time>
      </trkpt>
      <trkpt lat="48.7119" lon="1.78099">
        <ele>150.4</ele>
        <time>2023-04-27T11:19:18Z</time>
      </trkpt>
      <trkpt lat="48.71193" lon="1.78101">
        <ele>148.6</ele>
        <time>2023-04-27T11:19:21Z</time>
      </trkpt>
      <trkpt lat="48.71196" lon="1.78101">
        <ele>147.4</ele>
        <time>2023-04-27T11:19:23Z</time>
      </trkpt>
      <trkpt lat="48.71198" lon="1.78101">
        <ele>146.8</ele>
        <time>2023-04-27T11:19:24Z</time>
      </trkpt>
      <trkpt lat="48.71201" lon="1.78102">
        <ele>145.4</ele>
        <time>2023-04-27T11:19:27Z</time>
      </trkpt>
      <trkpt lat="48.71202" lon="1.78104">
        <ele>144.4</ele>
        <time>2023-04-27T11:19:29Z</time>
      </trkpt>
      <trkpt lat="48.71204" lon="1.78106">
        <ele>143.8</ele>
        <time>2023-04-27T11:19:31Z</time>
      </trkpt>
      <trkpt lat="48.71205" lon="1.78108">
        <ele>143</ele>
        <time>2023-04-27T11:19:33Z</time>
      </trkpt>
      <trkpt lat="48.71208" lon="1.78108">
        <ele>142.4</ele>
        <time>2023-04-27T11:19:35Z</time>
      </trkpt>
      <trkpt lat="48.71211" lon="1.78107">
        <ele>141.8</ele>
        <time>2023-04-27T11:19:37Z</time>
      </trkpt>
      <trkpt lat="48.71214" lon="1.78106">
        <ele>141.2</ele>
        <time>2023-04-27T11:19:39Z</time>
      </trkpt>
      <trkpt lat="48.71217" lon="1.78105">
        <ele>141.2</ele>
        <time>2023-04-27T11:19:41Z</time>
      </trkpt>
      <trkpt lat="48.7122" lon="1.78105">
        <ele>141.6</ele>
        <time>2023-04-27T11:19:43Z</time>
      </trkpt>
      <trkpt lat="48.71223" lon="1.78107">
        <ele>141.8</ele>
        <time>2023-04-27T11:19:45Z</time>
      </trkpt>
      <trkpt lat="48.71225" lon="1.78109">
        <ele>142</ele>
        <time>2023-04-27T11:19:46Z</time>
      </trkpt>
      <trkpt lat="48.71226" lon="1.78111">
        <ele>142.2</ele>
        <time>2023-04-27T11:19:47Z</time>
      </trkpt>
      <trkpt lat="48.71227" lon="1.78113">
        <ele>142.2</ele>
        <time>2023-04-27T11:19:48Z</time>
      </trkpt>
      <trkpt lat="48.71228" lon="1.78116">
        <ele>142.4</ele>
        <time>2023-04-27T11:19:49Z</time>
      </trkpt>
      <trkpt lat="48.71229" lon="1.78119">
        <ele>142.6</ele>
        <time>2023-04-27T11:19:50Z</time>
      </trkpt>
      <trkpt lat="48.71231" lon="1.78122">
        <ele>142.8</ele>
        <time>2023-04-27T11:19:51Z</time>
      </trkpt>
      <trkpt lat="48.71232" lon="1.78126">
        <ele>143</ele>
        <time>2023-04-27T11:19:52Z</time>
      </trkpt>
      <trkpt lat="48.71233" lon="1.78129">
        <ele>144.2</ele>
        <time>2023-04-27T11:19:53Z</time>
      </trkpt>
      <trkpt lat="48.71234" lon="1.78132">
        <ele>144.4</ele>
        <time>2023-04-27T11:19:54Z</time>
      </trkpt>
      <trkpt lat="48.71236" lon="1.78135">
        <ele>145.2</ele>
        <time>2023-04-27T11:19:56Z</time>
      </trkpt>
      <trkpt lat="48.71237" lon="1.78133">
        <ele>146.8</ele>
        <time>2023-04-27T11:20:00Z</time>
      </trkpt>
      <trkpt lat="48.71239" lon="1.78131">
        <ele>148</ele>
        <time>2023-04-27T11:20:03Z</time>
      </trkpt>
      <trkpt lat="48.71241" lon="1.78133">
        <ele>149.4</ele>
        <time>2023-04-27T11:20:06Z</time>
      </trkpt>
      <trkpt lat="48.71243" lon="1.78137">
        <ele>150</ele>
        <time>2023-04-27T11:20:08Z</time>
      </trkpt>
      <trkpt lat="48.71244" lon="1.78139">
        <ele>150.4</ele>
        <time>2023-04-27T11:20:10Z</time>
      </trkpt>
      <trkpt lat="48.71246" lon="1.78142">
        <ele>150.8</ele>
        <time>2023-04-27T11:20:12Z</time>
      </trkpt>
      <trkpt lat="48.71247" lon="1.78146">
        <ele>150.8</ele>
        <time>2023-04-27T11:20:14Z</time>
      </trkpt>
      <trkpt lat="48.71248" lon="1.78151">
        <ele>150.2</ele>
        <time>2023-04-27T11:20:16Z</time>
      </trkpt>
      <trkpt lat="48.71251" lon="1.78155">
        <ele>149.6</ele>
        <time>2023-04-27T11:20:18Z</time>
      </trkpt>
      <trkpt lat="48.71253" lon="1.78157">
        <ele>149.4</ele>
        <time>2023-04-27T11:20:20Z</time>
      </trkpt>
      <trkpt lat="48.71256" lon="1.78158">
        <ele>149.4</ele>
        <time>2023-04-27T11:20:22Z</time>
      </trkpt>
      <trkpt lat="48.71259" lon="1.7816">
        <ele>149.2</ele>
        <time>2023-04-27T11:20:24Z</time>
      </trkpt>
      <trkpt lat="48.71261" lon="1.78161">
        <ele>149.2</ele>
        <time>2023-04-27T11:20:25Z</time>
      </trkpt>
      <trkpt lat="48.71263" lon="1.78163">
        <ele>149.2</ele>
        <time>2023-04-27T11:20:26Z</time>
      </trkpt>
      <trkpt lat="48.71264" lon="1.78165">
        <ele>149.2</ele>
        <time>2023-04-27T11:20:27Z</time>
      </trkpt>
      <trkpt lat="48.71266" lon="1.78168">
        <ele>149</ele>
        <time>2023-04-27T11:20:28Z</time>
      </trkpt>
      <trkpt lat="48.71268" lon="1.7817">
        <ele>149</ele>
        <time>2023-04-27T11:20:29Z</time>
      </trkpt>
      <trkpt lat="48.71269" lon="1.78173">
        <ele>149</ele>
        <time>2023-04-27T11:20:30Z</time>
      </trkpt>
      <trkpt lat="48.7127" lon="1.78175">
        <ele>148.8</ele>
        <time>2023-04-27T11:20:31Z</time>
      </trkpt>
      <trkpt lat="48.71273" lon="1.78179">
        <ele>148.8</ele>
        <time>2023-04-27T11:20:33Z</time>
      </trkpt>
      <trkpt lat="48.71275" lon="1.78182">
        <ele>148.8</ele>
        <time>2023-04-27T11:20:35Z</time>
      </trkpt>
      <trkpt lat="48.71276" lon="1.78184">
        <ele>149</ele>
        <time>2023-04-27T11:20:37Z</time>
      </trkpt>
      <trkpt lat="48.71279" lon="1.78185">
        <ele>149.4</ele>
        <time>2023-04-27T11:20:39Z</time>
      </trkpt>
      <trkpt lat="48.71281" lon="1.78187">
        <ele>149.6</ele>
        <time>2023-04-27T11:20:41Z</time>
      </trkpt>
      <trkpt lat="48.71283" lon="1.78189">
        <ele>150</ele>
        <time>2023-04-27T11:20:43Z</time>
      </trkpt>
      <trkpt lat="48.71286" lon="1.78191">
        <ele>150.2</ele>
        <time>2023-04-27T11:20:45Z</time>
      </trkpt>
      <trkpt lat="48.71289" lon="1.78193">
        <ele>150.4</ele>
        <time>2023-04-27T11:20:47Z</time>
        <extensions>
          <gpxtpx:TrackPointExtension xmlns:gpxtpx="http://www.garmin.com/xmlschemas/TrackPointExtension/v1">
            <gpxtpx:hr>81</gpxtpx:hr>
          </gpxtpx:TrackPointExtension>
        </extensions>
      </trkpt>
      <trkpt lat="48.71291" lon="1.78195">
        <ele>150.8</ele>
        <time>2023-04-27T11:20:49Z</time>
        <extensions>
          <gpxtpx:TrackPointExtension xmlns:gpxtpx="http://www.garmin.com/xmlschemas/TrackPointExtension/v1">
            <gpxtpx:hr>81</gpxtpx:hr>
          </gpxtpx:TrackPointExtension>
        </extensions>
      </trkpt>
      <trkpt lat="48.71294" lon="1.78197">
        <ele>151</ele>
        <time>2023-04-27T11:20:51Z</time>
        <extensions>
          <gpxtpx:TrackPointExtension xmlns:gpxtpx="http://www.garmin.com/xmlschemas/TrackPointExtension/v1">
            <gpxtpx:hr>82</gpxtpx:hr>
          </gpxtpx:TrackPointExtension>
        </extensions>
      </trkpt>
      <trkpt lat="48.71296" lon="1.78198">
        <ele>151.2</ele>
        <time>2023-04-27T11:20:52Z</time>
        <extensions>
          <gpxtpx:TrackPointExtension xmlns:gpxtpx="http://www.garmin.com/xmlschemas/TrackPointExtension/v1">
            <gpxtpx:hr>82</gpxtpx:hr>
          </gpxtpx:TrackPointExtension>
        </extensions>
      </trkpt>
      <trkpt lat="48.71298" lon="1.78199">
        <ele>151.4</ele>
        <time>2023-04-27T11:20:53Z</time>
        <extensions>
          <gpxtpx:TrackPointExtension xmlns:gpxtpx="http://www.garmin.com/xmlschemas/TrackPointExtension/v1">
            <gpxtpx:hr>82</gpxtpx:hr>
          </gpxtpx:TrackPointExtension>
        </extensions>
      </trkpt>
      <trkpt lat="48.713" lon="1.78202">
        <ele>151.6</ele>
        <time>2023-04-27T11:20:55Z</time>
        <extensions>
          <gpxtpx:TrackPointExtension xmlns:gpxtpx="http://www.garmin.com/xmlschemas/TrackPointExtension/v1">
            <gpxtpx:hr>82</gpxtpx:hr>
          </gpxtpx:TrackPointExtension>
        </extensions>
      </trkpt>
      <trkpt lat="48.71303" lon="1.78202">
        <ele>152</ele>
        <time>2023-04-27T11:20:57Z</time>
        <extensions>
          <gpxtpx:TrackPointExtension xmlns:gpxtpx="http://www.garmin.com/xmlschemas/TrackPointExtension/v1">
            <gpxtpx:hr>82</gpxtpx:hr>
          </gpxtpx:TrackPointExtension>
        </extensions>
      </trkpt>
      <trkpt lat="48.71306" lon="1.78202">
        <ele>152.4</ele>
        <time>2023-04-27T11:20:59Z</time>
        <extensions>
          <gpxtpx:TrackPointExtension xmlns:gpxtpx="http://www.garmin.com/xmlschemas/TrackPointExtension/v1">
            <gpxtpx:hr>82</gpxtpx:hr>
          </gpxtpx:TrackPointExtension>
        </extensions>
      </trkpt>
      <trkpt lat="48.71308" lon="1.78203">
        <ele>152.8</ele>
        <time>2023-04-27T11:21:01Z</time>
        <extensions>
          <gpxtpx:TrackPointExtension xmlns:gpxtpx="http://www.garmin.com/xmlschemas/TrackPointExtension/v1">
            <gpxtpx:hr>82</gpxtpx:hr>
          </gpxtpx:TrackPointExtension>
        </extensions>
      </trkpt>
      <trkpt lat="48.71311" lon="1.78203">
        <ele>153.2</ele>
        <time>2023-04-27T11:21:03Z</time>
        <extensions>
          <gpxtpx:TrackPointExtension xmlns:gpxtpx="http://www.garmin.com/xmlschemas/TrackPointExtension/v1">
            <gpxtpx:hr>83</gpxtpx:hr>
          </gpxtpx:TrackPointExtension>
        </extensions>
      </trkpt>
      <trkpt lat="48.71314" lon="1.78205">
        <ele>153.6</ele>
        <time>2023-04-27T11:21:05Z</time>
        <extensions>
          <gpxtpx:TrackPointExtension xmlns:gpxtpx="http://www.garmin.com/xmlschemas/TrackPointExtension/v1">
            <gpxtpx:hr>83</gpxtpx:hr>
          </gpxtpx:TrackPointExtension>
        </extensions>
      </trkpt>
      <trkpt lat="48.71316" lon="1.78206">
        <ele>153.8</ele>
        <time>2023-04-27T11:21:06Z</time>
        <extensions>
          <gpxtpx:TrackPointExtension xmlns:gpxtpx="http://www.garmin.com/xmlschemas/TrackPointExtension/v1">
            <gpxtpx:hr>83</gpxtpx:hr>
          </gpxtpx:TrackPointExtension>
        </extensions>
      </trkpt>
      <trkpt lat="48.7132" lon="1.78208">
        <ele>154.2</ele>
        <time>2023-04-27T11:21:08Z</time>
        <extensions>
          <gpxtpx:TrackPointExtension xmlns:gpxtpx="http://www.garmin.com/xmlschemas/TrackPointExtension/v1">
            <gpxtpx:hr>83</gpxtpx:hr>
          </gpxtpx:TrackPointExtension>
        </extensions>
      </trkpt>
      <trkpt lat="48.71323" lon="1.7821">
        <ele>154.6</ele>
        <time>2023-04-27T11:21:10Z</time>
        <extensions>
          <gpxtpx:TrackPointExtension xmlns:gpxtpx="http://www.garmin.com/xmlschemas/TrackPointExtension/v1">
            <gpxtpx:hr>84</gpxtpx:hr>
          </gpxtpx:TrackPointExtension>
        </extensions>
      </trkpt>
      <trkpt lat="48.71324" lon="1.78212">
        <ele>154.8</ele>
        <time>2023-04-27T11:21:11Z</time>
        <extensions>
          <gpxtpx:TrackPointExtension xmlns:gpxtpx="http://www.garmin.com/xmlschemas/TrackPointExtension/v1">
            <gpxtpx:hr>84</gpxtpx:hr>
          </gpxtpx:TrackPointExtension>
        </extensions>
      </trkpt>
      <trkpt lat="48.71326" lon="1.78214">
        <ele>155.2</ele>
        <time>2023-04-27T11:21:13Z</time>
        <extensions>
          <gpxtpx:TrackPointExtension xmlns:gpxtpx="http://www.garmin.com/xmlschemas/TrackPointExtension/v1">
            <gpxtpx:hr>85</gpxtpx:hr>
          </gpxtpx:TrackPointExtension>
        </extensions>
      </trkpt>
      <trkpt lat="48.71329" lon="1.78215">
        <ele>155.6</ele>
        <time>2023-04-27T11:21:15Z</time>
        <extensions>
          <gpxtpx:TrackPointExtension xmlns:gpxtpx="http://www.garmin.com/xmlschemas/TrackPointExtension/v1">
            <gpxtpx:hr>85</gpxtpx:hr>
          </gpxtpx:TrackPointExtension>
        </extensions>
      </trkpt>
      <trkpt lat="48.71332" lon="1.78216">
        <ele>156</ele>
        <time>2023-04-27T11:21:17Z</time>
        <extensions>
          <gpxtpx:TrackPointExtension xmlns:gpxtpx="http://www.garmin.com/xmlschemas/TrackPointExtension/v1">
            <gpxtpx:hr>86</gpxtpx:hr>
          </gpxtpx:TrackPointExtension>
        </extensions>
      </trkpt>
      <trkpt lat="48.71334" lon="1.78216">
        <ele>156.4</ele>
        <time>2023-04-27T11:21:19Z</time>
        <extensions>
          <gpxtpx:TrackPointExtension xmlns:gpxtpx="http://www.garmin.com/xmlschemas/TrackPointExtension/v1">
            <gpxtpx:hr>87</gpxtpx:hr>
          </gpxtpx:TrackPointExtension>
        </extensions>
      </trkpt>
      <trkpt lat="48.71337" lon="1.78216">
        <ele>156.8</ele>
        <time>2023-04-27T11:21:21Z</time>
        <extensions>
          <gpxtpx:TrackPointExtension xmlns:gpxtpx="http://www.garmin.com/xmlschemas/TrackPointExtension/v1">
            <gpxtpx:hr>90</gpxtpx:hr>
          </gpxtpx:TrackPointExtension>
        </extensions>
      </trkpt>
      <trkpt lat="48.7134" lon="1.78217">
        <ele>157.2</ele>
        <time>2023-04-27T11:21:23Z</time>
        <extensions>
          <gpxtpx:TrackPointExtension xmlns:gpxtpx="http://www.garmin.com/xmlschemas/TrackPointExtension/v1">
            <gpxtpx:hr>93</gpxtpx:hr>
          </gpxtpx:TrackPointExtension>
        </extensions>
      </trkpt>
      <trkpt lat="48.71342" lon="1.78217">
        <ele>157.6</ele>
        <time>2023-04-27T11:21:25Z</time>
        <extensions>
          <gpxtpx:TrackPointExtension xmlns:gpxtpx="http://www.garmin.com/xmlschemas/TrackPointExtension/v1">
            <gpxtpx:hr>94</gpxtpx:hr>
          </gpxtpx:TrackPointExtension>
        </extensions>
      </trkpt>
      <trkpt lat="48.71345" lon="1.78218">
        <ele>158</ele>
        <time>2023-04-27T11:21:27Z</time>
        <extensions>
          <gpxtpx:TrackPointExtension xmlns:gpxtpx="http://www.garmin.com/xmlschemas/TrackPointExtension/v1">
            <gpxtpx:hr>94</gpxtpx:hr>
          </gpxtpx:TrackPointExtension>
        </extensions>
      </trkpt>
      <trkpt lat="48.71348" lon="1.78218">
        <ele>158.4</ele>
        <time>2023-04-27T11:21:29Z</time>
        <extensions>
          <gpxtpx:TrackPointExtension xmlns:gpxtpx="http://www.garmin.com/xmlschemas/TrackPointExtension/v1">
            <gpxtpx:hr>94</gpxtpx:hr>
          </gpxtpx:TrackPointExtension>
        </extensions>
      </trkpt>
      <trkpt lat="48.7135" lon="1.78218">
        <ele>158.8</ele>
        <time>2023-04-27T11:21:31Z</time>
        <extensions>
          <gpxtpx:TrackPointExtension xmlns:gpxtpx="http://www.garmin.com/xmlschemas/TrackPointExtension/v1">
            <gpxtpx:hr>94</gpxtpx:hr>
          </gpxtpx:TrackPointExtension>
        </extensions>
      </trkpt>
      <trkpt lat="48.71352" lon="1.78218">
        <ele>159.2</ele>
        <time>2023-04-27T11:21:33Z</time>
        <extensions>
          <gpxtpx:TrackPointExtension xmlns:gpxtpx="http://www.garmin.com/xmlschemas/TrackPointExtension/v1">
            <gpxtpx:hr>95</gpxtpx:hr>
          </gpxtpx:TrackPointExtension>
        </extensions>
      </trkpt>
      <trkpt lat="48.71355" lon="1.7822">
        <ele>159.6</ele>
        <time>2023-04-27T11:21:35Z</time>
        <extensions>
          <gpxtpx:TrackPointExtension xmlns:gpxtpx="http://www.garmin.com/xmlschemas/TrackPointExtension/v1">
            <gpxtpx:hr>95</gpxtpx:hr>
          </gpxtpx:TrackPointExtension>
        </extensions>
      </trkpt>
      <trkpt lat="48.71358" lon="1.78221">
        <ele>160</ele>
        <time>2023-04-27T11:21:37Z</time>
        <extensions>
          <gpxtpx:TrackPointExtension xmlns:gpxtpx="http://www.garmin.com/xmlschemas/TrackPointExtension/v1">
            <gpxtpx:hr>95</gpxtpx:hr>
          </gpxtpx:TrackPointExtension>
        </extensions>
      </trkpt>
      <trkpt lat="48.71361" lon="1.78223">
        <ele>160.4</ele>
        <time>2023-04-27T11:21:39Z</time>
        <extensions>
          <gpxtpx:TrackPointExtension xmlns:gpxtpx="http://www.garmin.com/xmlschemas/TrackPointExtension/v1">
            <gpxtpx:hr>95</gpxtpx:hr>
          </gpxtpx:TrackPointExtension>
        </extensions>
      </trkpt>
      <trkpt lat="48.71364" lon="1.78224">
        <ele>160.6</ele>
        <time>2023-04-27T11:21:41Z</time>
        <extensions>
          <gpxtpx:TrackPointExtension xmlns:gpxtpx="http://www.garmin.com/xmlschemas/TrackPointExtension/v1">
            <gpxtpx:hr>95</gpxtpx:hr>
          </gpxtpx:TrackPointExtension>
        </extensions>
      </trkpt>
      <trkpt lat="48.71366" lon="1.78225">
        <ele>161</ele>
        <time>2023-04-27T11:21:43Z</time>
        <extensions>
          <gpxtpx:TrackPointExtension xmlns:gpxtpx="http://www.garmin.com/xmlschemas/TrackPointExtension/v1">
            <gpxtpx:hr>95</gpxtpx:hr>
          </gpxtpx:TrackPointExtension>
        </extensions>
      </trkpt>
      <trkpt lat="48.71369" lon="1.78226">
        <ele>161.4</ele>
        <time>2023-04-27T11:21:45Z</time>
        <extensions>
          <gpxtpx:TrackPointExtension xmlns:gpxtpx="http://www.garmin.com/xmlschemas/TrackPointExtension/v1">
            <gpxtpx:hr>95</gpxtpx:hr>
          </gpxtpx:TrackPointExtension>
        </extensions>
      </trkpt>
      <trkpt lat="48.71371" lon="1.78227">
        <ele>161.6</ele>
        <time>2023-04-27T11:21:47Z</time>
        <extensions>
          <gpxtpx:TrackPointExtension xmlns:gpxtpx="http://www.garmin.com/xmlschemas/TrackPointExtension/v1">
            <gpxtpx:hr>95</gpxtpx:hr>
          </gpxtpx:TrackPointExtension>
        </extensions>
      </trkpt>
      <trkpt lat="48.71373" lon="1.78228">
        <ele>162</ele>
        <time>2023-04-27T11:21:49Z</time>
        <extensions>
          <gpxtpx:TrackPointExtension xmlns:gpxtpx="http://www.garmin.com/xmlschemas/TrackPointExtension/v1">
            <gpxtpx:hr>95</gpxtpx:hr>
          </gpxtpx:TrackPointExtension>
        </extensions>
      </trkpt>
      <trkpt lat="48.71376" lon="1.78229">
        <ele>162.4</ele>
        <time>2023-04-27T11:21:51Z</time>
        <extensions>
          <gpxtpx:TrackPointExtension xmlns:gpxtpx="http://www.garmin.com/xmlschemas/TrackPointExtension/v1">
            <gpxtpx:hr>95</gpxtpx:hr>
          </gpxtpx:TrackPointExtension>
        </extensions>
      </trkpt>
      <trkpt lat="48.71378" lon="1.7823">
        <ele>162.6</ele>
        <time>2023-04-27T11:21:53Z</time>
        <extensions>
          <gpxtpx:TrackPointExtension xmlns:gpxtpx="http://www.garmin.com/xmlschemas/TrackPointExtension/v1">
            <gpxtpx:hr>95</gpxtpx:hr>
          </gpxtpx:TrackPointExtension>
        </extensions>
      </trkpt>
      <trkpt lat="48.71381" lon="1.78231">
        <ele>163</ele>
        <time>2023-04-27T11:21:55Z</time>
        <extensions>
          <gpxtpx:TrackPointExtension xmlns:gpxtpx="http://www.garmin.com/xmlschemas/TrackPointExtension/v1">
            <gpxtpx:hr>95</gpxtpx:hr>
          </gpxtpx:TrackPointExtension>
        </extensions>
      </trkpt>
      <trkpt lat="48.71383" lon="1.78233">
        <ele>163.2</ele>
        <time>2023-04-27T11:21:57Z</time>
        <extensions>
          <gpxtpx:TrackPointExtension xmlns:gpxtpx="http://www.garmin.com/xmlschemas/TrackPointExtension/v1">
            <gpxtpx:hr>95</gpxtpx:hr>
          </gpxtpx:TrackPointExtension>
        </extensions>
      </trkpt>
      <trkpt lat="48.71386" lon="1.78234">
        <ele>163.4</ele>
        <time>2023-04-27T11:21:59Z</time>
        <extensions>
          <gpxtpx:TrackPointExtension xmlns:gpxtpx="http://www.garmin.com/xmlschemas/TrackPointExtension/v1">
            <gpxtpx:hr>95</gpxtpx:hr>
          </gpxtpx:TrackPointExtension>
        </extensions>
      </trkpt>
      <trkpt lat="48.71388" lon="1.78236">
        <ele>163.6</ele>
        <time>2023-04-27T11:22:01Z</time>
        <extensions>
          <gpxtpx:TrackPointExtension xmlns:gpxtpx="http://www.garmin.com/xmlschemas/TrackPointExtension/v1">
            <gpxtpx:hr>95</gpxtpx:hr>
          </gpxtpx:TrackPointExtension>
        </extensions>
      </trkpt>
      <trkpt lat="48.71391" lon="1.78239">
        <ele>163.8</ele>
        <time>2023-04-27T11:22:03Z</time>
        <extensions>
          <gpxtpx:TrackPointExtension xmlns:gpxtpx="http://www.garmin.com/xmlschemas/TrackPointExtension/v1">
            <gpxtpx:hr>95</gpxtpx:hr>
          </gpxtpx:TrackPointExtension>
        </extensions>
      </trkpt>
      <trkpt lat="48.71394" lon="1.78241">
        <ele>164.2</ele>
        <time>2023-04-27T11:22:05Z</time>
        <extensions>
          <gpxtpx:TrackPointExtension xmlns:gpxtpx="http://www.garmin.com/xmlschemas/TrackPointExtension/v1">
            <gpxtpx:hr>95</gpxtpx:hr>
          </gpxtpx:TrackPointExtension>
        </extensions>
      </trkpt>
      <trkpt lat="48.71396" lon="1.78242">
        <ele>164.2</ele>
        <time>2023-04-27T11:22:06Z</time>
        <extensions>
          <gpxtpx:TrackPointExtension xmlns:gpxtpx="http://www.garmin.com/xmlschemas/TrackPointExtension/v1">
            <gpxtpx:hr>95</gpxtpx:hr>
          </gpxtpx:TrackPointExtension>
        </extensions>
      </trkpt>
      <trkpt lat="48.71397" lon="1.78244">
        <ele>164.4</ele>
        <time>2023-04-27T11:22:07Z</time>
        <extensions>
          <gpxtpx:TrackPointExtension xmlns:gpxtpx="http://www.garmin.com/xmlschemas/TrackPointExtension/v1">
            <gpxtpx:hr>95</gpxtpx:hr>
          </gpxtpx:TrackPointExtension>
        </extensions>
      </trkpt>
      <trkpt lat="48.714" lon="1.78246">
        <ele>164.6</ele>
        <time>2023-04-27T11:22:09Z</time>
        <extensions>
          <gpxtpx:TrackPointExtension xmlns:gpxtpx="http://www.garmin.com/xmlschemas/TrackPointExtension/v1">
            <gpxtpx:hr>95</gpxtpx:hr>
          </gpxtpx:TrackPointExtension>
        </extensions>
      </trkpt>
      <trkpt lat="48.71402" lon="1.78247">
        <ele>164.8</ele>
        <time>2023-04-27T11:22:11Z</time>
        <extensions>
          <gpxtpx:TrackPointExtension xmlns:gpxtpx="http://www.garmin.com/xmlschemas/TrackPointExtension/v1">
            <gpxtpx:hr>95</gpxtpx:hr>
          </gpxtpx:TrackPointExtension>
        </extensions>
      </trkpt>
      <trkpt lat="48.71405" lon="1.78248">
        <ele>164.8</ele>
        <time>2023-04-27T11:22:13Z</time>
        <extensions>
          <gpxtpx:TrackPointExtension xmlns:gpxtpx="http://www.garmin.com/xmlschemas/TrackPointExtension/v1">
            <gpxtpx:hr>95</gpxtpx:hr>
          </gpxtpx:TrackPointExtension>
        </extensions>
      </trkpt>
      <trkpt lat="48.71408" lon="1.7825">
        <ele>165</ele>
        <time>2023-04-27T11:22:15Z</time>
        <extensions>
          <gpxtpx:TrackPointExtension xmlns:gpxtpx="http://www.garmin.com/xmlschemas/TrackPointExtension/v1">
            <gpxtpx:hr>95</gpxtpx:hr>
          </gpxtpx:TrackPointExtension>
        </extensions>
      </trkpt>
      <trkpt lat="48.7141" lon="1.78251">
        <ele>165</ele>
        <time>2023-04-27T11:22:16Z</time>
        <extensions>
          <gpxtpx:TrackPointExtension xmlns:gpxtpx="http://www.garmin.com/xmlschemas/TrackPointExtension/v1">
            <gpxtpx:hr>95</gpxtpx:hr>
          </gpxtpx:TrackPointExtension>
        </extensions>
      </trkpt>
      <trkpt lat="48.71412" lon="1.78253">
        <ele>165</ele>
        <time>2023-04-27T11:22:17Z</time>
        <extensions>
          <gpxtpx:TrackPointExtension xmlns:gpxtpx="http://www.garmin.com/xmlschemas/TrackPointExtension/v1">
            <gpxtpx:hr>95</gpxtpx:hr>
          </gpxtpx:TrackPointExtension>
        </extensions>
      </trkpt>
      <trkpt lat="48.71414" lon="1.78255">
        <ele>165</ele>
        <time>2023-04-27T11:22:18Z</time>
        <extensions>
          <gpxtpx:TrackPointExtension xmlns:gpxtpx="http://www.garmin.com/xmlschemas/TrackPointExtension/v1">
            <gpxtpx:hr>95</gpxtpx:hr>
          </gpxtpx:TrackPointExtension>
        </extensions>
      </trkpt>
      <trkpt lat="48.71416" lon="1.78257">
        <ele>165</ele>
        <time>2023-04-27T11:22:19Z</time>
        <extensions>
          <gpxtpx:TrackPointExtension xmlns:gpxtpx="http://www.garmin.com/xmlschemas/TrackPointExtension/v1">
            <gpxtpx:hr>95</gpxtpx:hr>
          </gpxtpx:TrackPointExtension>
        </extensions>
      </trkpt>
      <trkpt lat="48.71417" lon="1.7826">
        <ele>165.2</ele>
        <time>2023-04-27T11:22:20Z</time>
        <extensions>
          <gpxtpx:TrackPointExtension xmlns:gpxtpx="http://www.garmin.com/xmlschemas/TrackPointExtension/v1">
            <gpxtpx:hr>95</gpxtpx:hr>
          </gpxtpx:TrackPointExtension>
        </extensions>
      </trkpt>
      <trkpt lat="48.71419" lon="1.78262">
        <ele>165.2</ele>
        <time>2023-04-27T11:22:21Z</time>
        <extensions>
          <gpxtpx:TrackPointExtension xmlns:gpxtpx="http://www.garmin.com/xmlschemas/TrackPointExtension/v1">
            <gpxtpx:hr>95</gpxtpx:hr>
          </gpxtpx:TrackPointExtension>
        </extensions>
      </trkpt>
      <trkpt lat="48.7142" lon="1.78265">
        <ele>165.2</ele>
        <time>2023-04-27T11:22:23Z</time>
        <extensions>
          <gpxtpx:TrackPointExtension xmlns:gpxtpx="http://www.garmin.com/xmlschemas/TrackPointExtension/v1">
            <gpxtpx:hr>95</gpxtpx:hr>
          </gpxtpx:TrackPointExtension>
        </extensions>
      </trkpt>
      <trkpt lat="48.71422" lon="1.78267">
        <ele>165.4</ele>
        <time>2023-04-27T11:22:26Z</time>
        <extensions>
          <gpxtpx:TrackPointExtension xmlns:gpxtpx="http://www.garmin.com/xmlschemas/TrackPointExtension/v1">
            <gpxtpx:hr>95</gpxtpx:hr>
          </gpxtpx:TrackPointExtension>
        </extensions>
      </trkpt>
      <trkpt lat="48.71425" lon="1.78267">
        <ele>165.8</ele>
        <time>2023-04-27T11:22:29Z</time>
        <extensions>
          <gpxtpx:TrackPointExtension xmlns:gpxtpx="http://www.garmin.com/xmlschemas/TrackPointExtension/v1">
            <gpxtpx:hr>95</gpxtpx:hr>
          </gpxtpx:TrackPointExtension>
        </extensions>
      </trkpt>
      <trkpt lat="48.71427" lon="1.78267">
        <ele>166</ele>
        <time>2023-04-27T11:22:31Z</time>
        <extensions>
          <gpxtpx:TrackPointExtension xmlns:gpxtpx="http://www.garmin.com/xmlschemas/TrackPointExtension/v1">
            <gpxtpx:hr>95</gpxtpx:hr>
          </gpxtpx:TrackPointExtension>
        </extensions>
      </trkpt>
      <trkpt lat="48.71429" lon="1.78267">
        <ele>166</ele>
        <time>2023-04-27T11:22:33Z</time>
        <extensions>
          <gpxtpx:TrackPointExtension xmlns:gpxtpx="http://www.garmin.com/xmlschemas/TrackPointExtension/v1">
            <gpxtpx:hr>95</gpxtpx:hr>
          </gpxtpx:TrackPointExtension>
        </extensions>
      </trkpt>
      <trkpt lat="48.71431" lon="1.78266">
        <ele>166</ele>
        <time>2023-04-27T11:22:36Z</time>
        <extensions>
          <gpxtpx:TrackPointExtension xmlns:gpxtpx="http://www.garmin.com/xmlschemas/TrackPointExtension/v1">
            <gpxtpx:hr>95</gpxtpx:hr>
          </gpxtpx:TrackPointExtension>
        </extensions>
      </trkpt>
      <trkpt lat="48.71433" lon="1.78268">
        <ele>166.2</ele>
        <time>2023-04-27T11:22:39Z</time>
        <extensions>
          <gpxtpx:TrackPointExtension xmlns:gpxtpx="http://www.garmin.com/xmlschemas/TrackPointExtension/v1">
            <gpxtpx:hr>95</gpxtpx:hr>
          </gpxtpx:TrackPointExtension>
        </extensions>
      </trkpt>
      <trkpt lat="48.71435" lon="1.78269">
        <ele>166.4</ele>
        <time>2023-04-27T11:22:41Z</time>
        <extensions>
          <gpxtpx:TrackPointExtension xmlns:gpxtpx="http://www.garmin.com/xmlschemas/TrackPointExtension/v1">
            <gpxtpx:hr>95</gpxtpx:hr>
          </gpxtpx:TrackPointExtension>
        </extensions>
      </trkpt>
      <trkpt lat="48.71437" lon="1.7827">
        <ele>166.6</ele>
        <time>2023-04-27T11:22:43Z</time>
        <extensions>
          <gpxtpx:TrackPointExtension xmlns:gpxtpx="http://www.garmin.com/xmlschemas/TrackPointExtension/v1">
            <gpxtpx:hr>95</gpxtpx:hr>
          </gpxtpx:TrackPointExtension>
        </extensions>
      </trkpt>
      <trkpt lat="48.7144" lon="1.78271">
        <ele>166.6</ele>
        <time>2023-04-27T11:22:45Z</time>
        <extensions>
          <gpxtpx:TrackPointExtension xmlns:gpxtpx="http://www.garmin.com/xmlschemas/TrackPointExtension/v1">
            <gpxtpx:hr>95</gpxtpx:hr>
          </gpxtpx:TrackPointExtension>
        </extensions>
      </trkpt>
      <trkpt lat="48.71443" lon="1.78271">
        <ele>166.8</ele>
        <time>2023-04-27T11:22:47Z</time>
        <extensions>
          <gpxtpx:TrackPointExtension xmlns:gpxtpx="http://www.garmin.com/xmlschemas/TrackPointExtension/v1">
            <gpxtpx:hr>95</gpxtpx:hr>
          </gpxtpx:TrackPointExtension>
        </extensions>
      </trkpt>
      <trkpt lat="48.71445" lon="1.78272">
        <ele>167</ele>
        <time>2023-04-27T11:22:49Z</time>
        <extensions>
          <gpxtpx:TrackPointExtension xmlns:gpxtpx="http://www.garmin.com/xmlschemas/TrackPointExtension/v1">
            <gpxtpx:hr>96</gpxtpx:hr>
          </gpxtpx:TrackPointExtension>
        </extensions>
      </trkpt>
      <trkpt lat="48.71447" lon="1.78272">
        <ele>167.2</ele>
        <time>2023-04-27T11:22:51Z</time>
        <extensions>
          <gpxtpx:TrackPointExtension xmlns:gpxtpx="http://www.garmin.com/xmlschemas/TrackPointExtension/v1">
            <gpxtpx:hr>97</gpxtpx:hr>
          </gpxtpx:TrackPointExtension>
        </extensions>
      </trkpt>
      <trkpt lat="48.7145" lon="1.78271">
        <ele>167.4</ele>
        <time>2023-04-27T11:22:53Z</time>
        <extensions>
          <gpxtpx:TrackPointExtension xmlns:gpxtpx="http://www.garmin.com/xmlschemas/TrackPointExtension/v1">
            <gpxtpx:hr>97</gpxtpx:hr>
          </gpxtpx:TrackPointExtension>
        </extensions>
      </trkpt>
      <trkpt lat="48.71453" lon="1.78271">
        <ele>167.4</ele>
        <time>2023-04-27T11:22:55Z</time>
        <extensions>
          <gpxtpx:TrackPointExtension xmlns:gpxtpx="http://www.garmin.com/xmlschemas/TrackPointExtension/v1">
            <gpxtpx:hr>97</gpxtpx:hr>
          </gpxtpx:TrackPointExtension>
        </extensions>
      </trkpt>
      <trkpt lat="48.71455" lon="1.7827">
        <ele>167.4</ele>
        <time>2023-04-27T11:22:57Z</time>
      </trkpt>
      <trkpt lat="48.71458" lon="1.78271">
        <ele>167.4</ele>
        <time>2023-04-27T11:22:59Z</time>
      </trkpt>
      <trkpt lat="48.71461" lon="1.78273">
        <ele>167.4</ele>
        <time>2023-04-27T11:23:01Z</time>
      </trkpt>
      <trkpt lat="48.71465" lon="1.78275">
        <ele>167.4</ele>
        <time>2023-04-27T11:23:03Z</time>
      </trkpt>
      <trkpt lat="48.71467" lon="1.78276">
        <ele>167.4</ele>
        <time>2023-04-27T11:23:04Z</time>
      </trkpt>
      <trkpt lat="48.7147" lon="1.78277">
        <ele>167.4</ele>
        <time>2023-04-27T11:23:06Z</time>
      </trkpt>
      <trkpt lat="48.71473" lon="1.78278">
        <ele>167.4</ele>
        <time>2023-04-27T11:23:08Z</time>
        <extensions>
          <gpxtpx:TrackPointExtension xmlns:gpxtpx="http://www.garmin.com/xmlschemas/TrackPointExtension/v1">
            <gpxtpx:hr>97</gpxtpx:hr>
          </gpxtpx:TrackPointExtension>
        </extensions>
      </trkpt>
      <trkpt lat="48.71476" lon="1.78279">
        <ele>167.6</ele>
        <time>2023-04-27T11:23:10Z</time>
        <extensions>
          <gpxtpx:TrackPointExtension xmlns:gpxtpx="http://www.garmin.com/xmlschemas/TrackPointExtension/v1">
            <gpxtpx:hr>98</gpxtpx:hr>
          </gpxtpx:TrackPointExtension>
        </extensions>
      </trkpt>
      <trkpt lat="48.71478" lon="1.7828">
        <ele>167.6</ele>
        <time>2023-04-27T11:23:12Z</time>
        <extensions>
          <gpxtpx:TrackPointExtension xmlns:gpxtpx="http://www.garmin.com/xmlschemas/TrackPointExtension/v1">
            <gpxtpx:hr>98</gpxtpx:hr>
          </gpxtpx:TrackPointExtension>
        </extensions>
      </trkpt>
      <trkpt lat="48.7148" lon="1.7828">
        <ele>167.8</ele>
        <time>2023-04-27T11:23:14Z</time>
        <extensions>
          <gpxtpx:TrackPointExtension xmlns:gpxtpx="http://www.garmin.com/xmlschemas/TrackPointExtension/v1">
            <gpxtpx:hr>98</gpxtpx:hr>
          </gpxtpx:TrackPointExtension>
        </extensions>
      </trkpt>
      <trkpt lat="48.71483" lon="1.7828">
        <ele>167.8</ele>
        <time>2023-04-27T11:23:16Z</time>
        <extensions>
          <gpxtpx:TrackPointExtension xmlns:gpxtpx="http://www.garmin.com/xmlschemas/TrackPointExtension/v1">
            <gpxtpx:hr>98</gpxtpx:hr>
          </gpxtpx:TrackPointExtension>
        </extensions>
      </trkpt>
      <trkpt lat="48.71485" lon="1.7828">
        <ele>167.8</ele>
        <time>2023-04-27T11:23:18Z</time>
        <extensions>
          <gpxtpx:TrackPointExtension xmlns:gpxtpx="http://www.garmin.com/xmlschemas/TrackPointExtension/v1">
            <gpxtpx:hr>98</gpxtpx:hr>
          </gpxtpx:TrackPointExtension>
        </extensions>
      </trkpt>
      <trkpt lat="48.71488" lon="1.7828">
        <ele>167.8</ele>
        <time>2023-04-27T11:23:20Z</time>
      </trkpt>
      <trkpt lat="48.71491" lon="1.7828">
        <ele>168</ele>
        <time>2023-04-27T11:23:22Z</time>
      </trkpt>
      <trkpt lat="48.71494" lon="1.7828">
        <ele>168</ele>
        <time>2023-04-27T11:23:24Z</time>
      </trkpt>
      <trkpt lat="48.71497" lon="1.7828">
        <ele>168.2</ele>
        <time>2023-04-27T11:23:26Z</time>
      </trkpt>
      <trkpt lat="48.71499" lon="1.78282">
        <ele>168.2</ele>
        <time>2023-04-27T11:23:28Z</time>
      </trkpt>
      <trkpt lat="48.71501" lon="1.78284">
        <ele>168.2</ele>
        <time>2023-04-27T11:23:30Z</time>
      </trkpt>
      <trkpt lat="48.71503" lon="1.78286">
        <ele>168.2</ele>
        <time>2023-04-27T11:23:32Z</time>
      </trkpt>
      <trkpt lat="48.71506" lon="1.78289">
        <ele>168.2</ele>
        <time>2023-04-27T11:23:34Z</time>
      </trkpt>
      <trkpt lat="48.71509" lon="1.7829">
        <ele>168.2</ele>
        <time>2023-04-27T11:23:36Z</time>
      </trkpt>
      <trkpt lat="48.71512" lon="1.78292">
        <ele>168</ele>
        <time>2023-04-27T11:23:38Z</time>
      </trkpt>
      <trkpt lat="48.71515" lon="1.78293">
        <ele>168</ele>
        <time>2023-04-27T11:23:40Z</time>
      </trkpt>
      <trkpt lat="48.71517" lon="1.78294">
        <ele>168</ele>
        <time>2023-04-27T11:23:41Z</time>
      </trkpt>
      <trkpt lat="48.71519" lon="1.78294">
        <ele>167.8</ele>
        <time>2023-04-27T11:23:42Z</time>
      </trkpt>
      <trkpt lat="48.71521" lon="1.78295">
        <ele>167.8</ele>
        <time>2023-04-27T11:23:43Z</time>
      </trkpt>
      <trkpt lat="48.71523" lon="1.78296">
        <ele>167.8</ele>
        <time>2023-04-27T11:23:44Z</time>
      </trkpt>
      <trkpt lat="48.71525" lon="1.78297">
        <ele>167.6</ele>
        <time>2023-04-27T11:23:45Z</time>
      </trkpt>
      <trkpt lat="48.71528" lon="1.78298">
        <ele>167.6</ele>
        <time>2023-04-27T11:23:47Z</time>
      </trkpt>
      <trkpt lat="48.7153" lon="1.78299">
        <ele>167.4</ele>
        <time>2023-04-27T11:23:49Z</time>
      </trkpt>
      <trkpt lat="48.71533" lon="1.783">
        <ele>167.4</ele>
        <time>2023-04-27T11:23:51Z</time>
      </trkpt>
      <trkpt lat="48.71535" lon="1.783">
        <ele>167.2</ele>
        <time>2023-04-27T11:23:53Z</time>
      </trkpt>
      <trkpt lat="48.71538" lon="1.783">
        <ele>167.2</ele>
        <time>2023-04-27T11:23:55Z</time>
      </trkpt>
      <trkpt lat="48.7154" lon="1.783">
        <ele>167.2</ele>
        <time>2023-04-27T11:23:57Z</time>
      </trkpt>
      <trkpt lat="48.71543" lon="1.783">
        <ele>167.2</ele>
        <time>2023-04-27T11:23:59Z</time>
      </trkpt>
      <trkpt lat="48.71545" lon="1.783">
        <ele>167</ele>
        <time>2023-04-27T11:24:01Z</time>
      </trkpt>
      <trkpt lat="48.71547" lon="1.78301">
        <ele>167</ele>
        <time>2023-04-27T11:24:03Z</time>
      </trkpt>
      <trkpt lat="48.71549" lon="1.78303">
        <ele>167</ele>
        <time>2023-04-27T11:24:05Z</time>
      </trkpt>
      <trkpt lat="48.71551" lon="1.78304">
        <ele>167</ele>
        <time>2023-04-27T11:24:07Z</time>
      </trkpt>
      <trkpt lat="48.71553" lon="1.78305">
        <ele>167</ele>
        <time>2023-04-27T11:24:09Z</time>
      </trkpt>
      <trkpt lat="48.71555" lon="1.78307">
        <ele>167</ele>
        <time>2023-04-27T11:24:11Z</time>
      </trkpt>
      <trkpt lat="48.71558" lon="1.78309">
        <ele>167</ele>
        <time>2023-04-27T11:24:13Z</time>
      </trkpt>
      <trkpt lat="48.7156" lon="1.78312">
        <ele>167.2</ele>
        <time>2023-04-27T11:24:15Z</time>
      </trkpt>
      <trkpt lat="48.71563" lon="1.78314">
        <ele>167.2</ele>
        <time>2023-04-27T11:24:17Z</time>
      </trkpt>
      <trkpt lat="48.71565" lon="1.78317">
        <ele>167.4</ele>
        <time>2023-04-27T11:24:19Z</time>
      </trkpt>
      <trkpt lat="48.71568" lon="1.78319">
        <ele>167.6</ele>
        <time>2023-04-27T11:24:21Z</time>
      </trkpt>
      <trkpt lat="48.71571" lon="1.7832">
        <ele>167.6</ele>
        <time>2023-04-27T11:24:23Z</time>
      </trkpt>
      <trkpt lat="48.71574" lon="1.78321">
        <ele>167.8</ele>
        <time>2023-04-27T11:24:25Z</time>
      </trkpt>
      <trkpt lat="48.71577" lon="1.78321">
        <ele>167.8</ele>
        <time>2023-04-27T11:24:27Z</time>
      </trkpt>
      <trkpt lat="48.71579" lon="1.78321">
        <ele>168</ele>
        <time>2023-04-27T11:24:29Z</time>
      </trkpt>
      <trkpt lat="48.71581" lon="1.78322">
        <ele>168.4</ele>
        <time>2023-04-27T11:24:32Z</time>
      </trkpt>
      <trkpt lat="48.71584" lon="1.78324">
        <ele>168.6</ele>
        <time>2023-04-27T11:24:34Z</time>
      </trkpt>
      <trkpt lat="48.71586" lon="1.78326">
        <ele>168.6</ele>
        <time>2023-04-27T11:24:36Z</time>
      </trkpt>
      <trkpt lat="48.71589" lon="1.78327">
        <ele>168.8</ele>
        <time>2023-04-27T11:24:38Z</time>
      </trkpt>
      <trkpt lat="48.71592" lon="1.78329">
        <ele>168.8</ele>
        <time>2023-04-27T11:24:40Z</time>
      </trkpt>
      <trkpt lat="48.71594" lon="1.78331">
        <ele>168.8</ele>
        <time>2023-04-27T11:24:42Z</time>
      </trkpt>
      <trkpt lat="48.71597" lon="1.78333">
        <ele>169</ele>
        <time>2023-04-27T11:24:44Z</time>
      </trkpt>
      <trkpt lat="48.716" lon="1.78335">
        <ele>169</ele>
        <time>2023-04-27T11:24:46Z</time>
      </trkpt>
      <trkpt lat="48.71604" lon="1.78337">
        <ele>169.2</ele>
        <time>2023-04-27T11:24:48Z</time>
      </trkpt>
      <trkpt lat="48.71606" lon="1.78339">
        <ele>169.4</ele>
        <time>2023-04-27T11:24:51Z</time>
      </trkpt>
      <trkpt lat="48.71608" lon="1.78341">
        <ele>169.4</ele>
        <time>2023-04-27T11:24:54Z</time>
      </trkpt>
      <trkpt lat="48.7161" lon="1.78341">
        <ele>169.6</ele>
        <time>2023-04-27T11:24:56Z</time>
      </trkpt>
      <trkpt lat="48.71613" lon="1.78341">
        <ele>169.6</ele>
        <time>2023-04-27T11:24:58Z</time>
      </trkpt>
      <trkpt lat="48.71616" lon="1.78342">
        <ele>169.6</ele>
        <time>2023-04-27T11:25:00Z</time>
      </trkpt>
      <trkpt lat="48.71619" lon="1.78343">
        <ele>169.6</ele>
        <time>2023-04-27T11:25:02Z</time>
      </trkpt>
      <trkpt lat="48.71622" lon="1.78344">
        <ele>169.6</ele>
        <time>2023-04-27T11:25:04Z</time>
      </trkpt>
      <trkpt lat="48.71625" lon="1.78346">
        <ele>169.8</ele>
        <time>2023-04-27T11:25:06Z</time>
      </trkpt>
      <trkpt lat="48.71628" lon="1.7835">
        <ele>169.8</ele>
        <time>2023-04-27T11:25:08Z</time>
      </trkpt>
      <trkpt lat="48.71629" lon="1.78354">
        <ele>169.6</ele>
        <time>2023-04-27T11:25:10Z</time>
      </trkpt>
      <trkpt lat="48.7163" lon="1.78357">
        <ele>169.6</ele>
        <time>2023-04-27T11:25:11Z</time>
      </trkpt>
      <trkpt lat="48.7163" lon="1.78362">
        <ele>169.6</ele>
        <time>2023-04-27T11:25:13Z</time>
      </trkpt>
      <trkpt lat="48.71631" lon="1.78366">
        <ele>169.6</ele>
        <time>2023-04-27T11:25:15Z</time>
      </trkpt>
      <trkpt lat="48.71632" lon="1.78371">
        <ele>169.8</ele>
        <time>2023-04-27T11:25:17Z</time>
      </trkpt>
      <trkpt lat="48.71634" lon="1.78375">
        <ele>169.8</ele>
        <time>2023-04-27T11:25:19Z</time>
      </trkpt>
      <trkpt lat="48.71636" lon="1.7838">
        <ele>169.8</ele>
        <time>2023-04-27T11:25:20Z</time>
      </trkpt>
      <trkpt lat="48.71636" lon="1.78383">
        <ele>169.8</ele>
        <time>2023-04-27T11:25:21Z</time>
      </trkpt>
      <trkpt lat="48.71637" lon="1.78386">
        <ele>170</ele>
        <time>2023-04-27T11:25:22Z</time>
      </trkpt>
      <trkpt lat="48.71638" lon="1.78389">
        <ele>170</ele>
        <time>2023-04-27T11:25:23Z</time>
      </trkpt>
      <trkpt lat="48.71639" lon="1.78392">
        <ele>170.2</ele>
        <time>2023-04-27T11:25:25Z</time>
      </trkpt>
      <trkpt lat="48.7164" lon="1.78395">
        <ele>170.2</ele>
        <time>2023-04-27T11:25:26Z</time>
      </trkpt>
      <trkpt lat="48.71641" lon="1.78398">
        <ele>170.2</ele>
        <time>2023-04-27T11:25:27Z</time>
      </trkpt>
      <trkpt lat="48.71642" lon="1.784">
        <ele>170.2</ele>
        <time>2023-04-27T11:25:28Z</time>
      </trkpt>
      <trkpt lat="48.71644" lon="1.78405">
        <ele>170.2</ele>
        <time>2023-04-27T11:25:30Z</time>
      </trkpt>
      <trkpt lat="48.71644" lon="1.78409">
        <ele>170.2</ele>
        <time>2023-04-27T11:25:32Z</time>
      </trkpt>
      <trkpt lat="48.71646" lon="1.78413">
        <ele>170</ele>
        <time>2023-04-27T11:25:34Z</time>
      </trkpt>
      <trkpt lat="48.71646" lon="1.78417">
        <ele>170</ele>
        <time>2023-04-27T11:25:36Z</time>
      </trkpt>
      <trkpt lat="48.71648" lon="1.7842">
        <ele>170</ele>
        <time>2023-04-27T11:25:38Z</time>
      </trkpt>
      <trkpt lat="48.71649" lon="1.78423">
        <ele>170</ele>
        <time>2023-04-27T11:25:40Z</time>
      </trkpt>
      <trkpt lat="48.71651" lon="1.78426">
        <ele>170</ele>
        <time>2023-04-27T11:25:42Z</time>
      </trkpt>
      <trkpt lat="48.71652" lon="1.78429">
        <ele>170</ele>
        <time>2023-04-27T11:25:44Z</time>
      </trkpt>
      <trkpt lat="48.71653" lon="1.78433">
        <ele>170</ele>
        <time>2023-04-27T11:25:46Z</time>
      </trkpt>
      <trkpt lat="48.71654" lon="1.78437">
        <ele>170</ele>
        <time>2023-04-27T11:25:48Z</time>
      </trkpt>
      <trkpt lat="48.71654" lon="1.7844">
        <ele>170</ele>
        <time>2023-04-27T11:25:50Z</time>
      </trkpt>
      <trkpt lat="48.71654" lon="1.78445">
        <ele>169.8</ele>
        <time>2023-04-27T11:25:52Z</time>
      </trkpt>
      <trkpt lat="48.71655" lon="1.78449">
        <ele>169.8</ele>
        <time>2023-04-27T11:25:54Z</time>
      </trkpt>
      <trkpt lat="48.71655" lon="1.78454">
        <ele>169.6</ele>
        <time>2023-04-27T11:25:56Z</time>
      </trkpt>
      <trkpt lat="48.71656" lon="1.78457">
        <ele>169.6</ele>
        <time>2023-04-27T11:25:58Z</time>
      </trkpt>
      <trkpt lat="48.71656" lon="1.78461">
        <ele>169.6</ele>
        <time>2023-04-27T11:26:01Z</time>
      </trkpt>
      <trkpt lat="48.71658" lon="1.78463">
        <ele>169.8</ele>
        <time>2023-04-27T11:26:03Z</time>
      </trkpt>
      <trkpt lat="48.71659" lon="1.78467">
        <ele>170</ele>
        <time>2023-04-27T11:26:06Z</time>
      </trkpt>
      <trkpt lat="48.7166" lon="1.7847">
        <ele>170.2</ele>
        <time>2023-04-27T11:26:08Z</time>
      </trkpt>
      <trkpt lat="48.71661" lon="1.78475">
        <ele>170.4</ele>
        <time>2023-04-27T11:26:10Z</time>
      </trkpt>
      <trkpt lat="48.71663" lon="1.78479">
        <ele>170.4</ele>
        <time>2023-04-27T11:26:12Z</time>
      </trkpt>
      <trkpt lat="48.71664" lon="1.78481">
        <ele>170.6</ele>
        <time>2023-04-27T11:26:14Z</time>
      </trkpt>
      <trkpt lat="48.71666" lon="1.78483">
        <ele>170.6</ele>
        <time>2023-04-27T11:26:16Z</time>
      </trkpt>
      <trkpt lat="48.71668" lon="1.78486">
        <ele>170.8</ele>
        <time>2023-04-27T11:26:18Z</time>
      </trkpt>
      <trkpt lat="48.7167" lon="1.78488">
        <ele>170.8</ele>
        <time>2023-04-27T11:26:20Z</time>
      </trkpt>
      <trkpt lat="48.71673" lon="1.7849">
        <ele>171</ele>
        <time>2023-04-27T11:26:22Z</time>
      </trkpt>
      <trkpt lat="48.71676" lon="1.78492">
        <ele>171.2</ele>
        <time>2023-04-27T11:26:24Z</time>
      </trkpt>
      <trkpt lat="48.71678" lon="1.78493">
        <ele>171.2</ele>
        <time>2023-04-27T11:26:26Z</time>
      </trkpt>
      <trkpt lat="48.7168" lon="1.78494">
        <ele>171.2</ele>
        <time>2023-04-27T11:26:28Z</time>
      </trkpt>
      <trkpt lat="48.71681" lon="1.78496">
        <ele>171.2</ele>
        <time>2023-04-27T11:26:30Z</time>
      </trkpt>
      <trkpt lat="48.71683" lon="1.78499">
        <ele>171.2</ele>
        <time>2023-04-27T11:26:32Z</time>
      </trkpt>
      <trkpt lat="48.71685" lon="1.78501">
        <ele>171.2</ele>
        <time>2023-04-27T11:26:34Z</time>
      </trkpt>
      <trkpt lat="48.71687" lon="1.78504">
        <ele>171.2</ele>
        <time>2023-04-27T11:26:36Z</time>
      </trkpt>
      <trkpt lat="48.7169" lon="1.78507">
        <ele>171</ele>
        <time>2023-04-27T11:26:38Z</time>
      </trkpt>
      <trkpt lat="48.71692" lon="1.7851">
        <ele>170.8</ele>
        <time>2023-04-27T11:26:40Z</time>
      </trkpt>
      <trkpt lat="48.71694" lon="1.78511">
        <ele>170.8</ele>
        <time>2023-04-27T11:26:41Z</time>
      </trkpt>
      <trkpt lat="48.71695" lon="1.78512">
        <ele>170.6</ele>
        <time>2023-04-27T11:26:42Z</time>
      </trkpt>
      <trkpt lat="48.71697" lon="1.78514">
        <ele>170.6</ele>
        <time>2023-04-27T11:26:43Z</time>
      </trkpt>
      <trkpt lat="48.71699" lon="1.78515">
        <ele>170.6</ele>
        <time>2023-04-27T11:26:44Z</time>
      </trkpt>
      <trkpt lat="48.71701" lon="1.78517">
        <ele>170.6</ele>
        <time>2023-04-27T11:26:45Z</time>
      </trkpt>
      <trkpt lat="48.71703" lon="1.78518">
        <ele>170.6</ele>
        <time>2023-04-27T11:26:46Z</time>
      </trkpt>
      <trkpt lat="48.71705" lon="1.7852">
        <ele>170.6</ele>
        <time>2023-04-27T11:26:47Z</time>
      </trkpt>
      <trkpt lat="48.71706" lon="1.78521">
        <ele>170.4</ele>
        <time>2023-04-27T11:26:48Z</time>
      </trkpt>
      <trkpt lat="48.71708" lon="1.78522">
        <ele>170.4</ele>
        <time>2023-04-27T11:26:49Z</time>
      </trkpt>
      <trkpt lat="48.7171" lon="1.78524">
        <ele>170.4</ele>
        <time>2023-04-27T11:26:50Z</time>
      </trkpt>
      <trkpt lat="48.71713" lon="1.78526">
        <ele>170.2</ele>
        <time>2023-04-27T11:26:52Z</time>
      </trkpt>
      <trkpt lat="48.71715" lon="1.78528">
        <ele>170.2</ele>
        <time>2023-04-27T11:26:54Z</time>
      </trkpt>
      <trkpt lat="48.71716" lon="1.78531">
        <ele>170</ele>
        <time>2023-04-27T11:26:56Z</time>
      </trkpt>
      <trkpt lat="48.71717" lon="1.78533">
        <ele>170</ele>
        <time>2023-04-27T11:26:58Z</time>
      </trkpt>
      <trkpt lat="48.71719" lon="1.78535">
        <ele>170</ele>
        <time>2023-04-27T11:27:00Z</time>
      </trkpt>
      <trkpt lat="48.71721" lon="1.78538">
        <ele>169.8</ele>
        <time>2023-04-27T11:27:02Z</time>
      </trkpt>
      <trkpt lat="48.71724" lon="1.78542">
        <ele>169.6</ele>
        <time>2023-04-27T11:27:04Z</time>
      </trkpt>
      <trkpt lat="48.71725" lon="1.78544">
        <ele>169.6</ele>
        <time>2023-04-27T11:27:05Z</time>
      </trkpt>
      <trkpt lat="48.71727" lon="1.78547">
        <ele>169.4</ele>
        <time>2023-04-27T11:27:06Z</time>
      </trkpt>
      <trkpt lat="48.71729" lon="1.78549">
        <ele>169.4</ele>
        <time>2023-04-27T11:27:07Z</time>
      </trkpt>
      <trkpt lat="48.71731" lon="1.78551">
        <ele>169.2</ele>
        <time>2023-04-27T11:27:08Z</time>
      </trkpt>
      <trkpt lat="48.71732" lon="1.78554">
        <ele>169.2</ele>
        <time>2023-04-27T11:27:09Z</time>
      </trkpt>
      <trkpt lat="48.71734" lon="1.78556">
        <ele>169</ele>
        <time>2023-04-27T11:27:10Z</time>
      </trkpt>
      <trkpt lat="48.71736" lon="1.78558">
        <ele>169</ele>
        <time>2023-04-27T11:27:11Z</time>
      </trkpt>
      <trkpt lat="48.71738" lon="1.7856">
        <ele>169</ele>
        <time>2023-04-27T11:27:12Z</time>
      </trkpt>
      <trkpt lat="48.7174" lon="1.78564">
        <ele>168.8</ele>
        <time>2023-04-27T11:27:14Z</time>
      </trkpt>
      <trkpt lat="48.71743" lon="1.78566">
        <ele>168.8</ele>
        <time>2023-04-27T11:27:16Z</time>
      </trkpt>
      <trkpt lat="48.71747" lon="1.78569">
        <ele>168.6</ele>
        <time>2023-04-27T11:27:18Z</time>
      </trkpt>
      <trkpt lat="48.71748" lon="1.7857">
        <ele>168.6</ele>
        <time>2023-04-27T11:27:19Z</time>
      </trkpt>
      <trkpt lat="48.71752" lon="1.78574">
        <ele>168.6</ele>
        <time>2023-04-27T11:27:21Z</time>
      </trkpt>
      <trkpt lat="48.71753" lon="1.78576">
        <ele>168.6</ele>
        <time>2023-04-27T11:27:22Z</time>
      </trkpt>
      <trkpt lat="48.71755" lon="1.78579">
        <ele>168.6</ele>
        <time>2023-04-27T11:27:23Z</time>
      </trkpt>
      <trkpt lat="48.71756" lon="1.78582">
        <ele>168.4</ele>
        <time>2023-04-27T11:27:24Z</time>
      </trkpt>
      <trkpt lat="48.71756" lon="1.78585">
        <ele>168.4</ele>
        <time>2023-04-27T11:27:25Z</time>
      </trkpt>
      <trkpt lat="48.71756" lon="1.78588">
        <ele>168.4</ele>
        <time>2023-04-27T11:27:26Z</time>
      </trkpt>
      <trkpt lat="48.71755" lon="1.78591">
        <ele>168.4</ele>
        <time>2023-04-27T11:27:27Z</time>
      </trkpt>
      <trkpt lat="48.71753" lon="1.78594">
        <ele>168.4</ele>
        <time>2023-04-27T11:27:28Z</time>
      </trkpt>
      <trkpt lat="48.71751" lon="1.78596">
        <ele>168.2</ele>
        <time>2023-04-27T11:27:29Z</time>
      </trkpt>
      <trkpt lat="48.71749" lon="1.78599">
        <ele>168.2</ele>
        <time>2023-04-27T11:27:30Z</time>
      </trkpt>
      <trkpt lat="48.71748" lon="1.78601">
        <ele>168.2</ele>
        <time>2023-04-27T11:27:31Z</time>
      </trkpt>
      <trkpt lat="48.71747" lon="1.78604">
        <ele>168</ele>
        <time>2023-04-27T11:27:33Z</time>
      </trkpt>
      <trkpt lat="48.71746" lon="1.78607">
        <ele>167.8</ele>
        <time>2023-04-27T11:27:35Z</time>
      </trkpt>
      <trkpt lat="48.71744" lon="1.78611">
        <ele>167.6</ele>
        <time>2023-04-27T11:27:37Z</time>
      </trkpt>
      <trkpt lat="48.71743" lon="1.78614">
        <ele>167.4</ele>
        <time>2023-04-27T11:27:39Z</time>
      </trkpt>
      <trkpt lat="48.71742" lon="1.78617">
        <ele>167.4</ele>
        <time>2023-04-27T11:27:41Z</time>
      </trkpt>
      <trkpt lat="48.71741" lon="1.7862">
        <ele>167.2</ele>
        <time>2023-04-27T11:27:43Z</time>
      </trkpt>
      <trkpt lat="48.7174" lon="1.78624">
        <ele>167</ele>
        <time>2023-04-27T11:27:45Z</time>
      </trkpt>
      <trkpt lat="48.71739" lon="1.78628">
        <ele>166.8</ele>
        <time>2023-04-27T11:27:47Z</time>
      </trkpt>
      <trkpt lat="48.71737" lon="1.78633">
        <ele>166.4</ele>
        <time>2023-04-27T11:27:49Z</time>
      </trkpt>
      <trkpt lat="48.71736" lon="1.78637">
        <ele>166.2</ele>
        <time>2023-04-27T11:27:51Z</time>
      </trkpt>
      <trkpt lat="48.71735" lon="1.78641">
        <ele>166.2</ele>
        <time>2023-04-27T11:27:53Z</time>
      </trkpt>
      <trkpt lat="48.71734" lon="1.78646">
        <ele>166.2</ele>
        <time>2023-04-27T11:27:55Z</time>
      </trkpt>
      <trkpt lat="48.71733" lon="1.7865">
        <ele>166.2</ele>
        <time>2023-04-27T11:27:57Z</time>
      </trkpt>
      <trkpt lat="48.71732" lon="1.78654">
        <ele>166.2</ele>
        <time>2023-04-27T11:27:59Z</time>
      </trkpt>
      <trkpt lat="48.71732" lon="1.78658">
        <ele>166.2</ele>
        <time>2023-04-27T11:28:01Z</time>
      </trkpt>
      <trkpt lat="48.71731" lon="1.78662">
        <ele>166.2</ele>
        <time>2023-04-27T11:28:03Z</time>
      </trkpt>
      <trkpt lat="48.7173" lon="1.78665">
        <ele>166.2</ele>
        <time>2023-04-27T11:28:05Z</time>
      </trkpt>
      <trkpt lat="48.71729" lon="1.78669">
        <ele>166.2</ele>
        <time>2023-04-27T11:28:07Z</time>
      </trkpt>
      <trkpt lat="48.71727" lon="1.78673">
        <ele>166</ele>
        <time>2023-04-27T11:28:09Z</time>
      </trkpt>
      <trkpt lat="48.71725" lon="1.78677">
        <ele>166</ele>
        <time>2023-04-27T11:28:11Z</time>
      </trkpt>
      <trkpt lat="48.71723" lon="1.78682">
        <ele>166</ele>
        <time>2023-04-27T11:28:13Z</time>
      </trkpt>
      <trkpt lat="48.71722" lon="1.78686">
        <ele>166</ele>
        <time>2023-04-27T11:28:15Z</time>
      </trkpt>
      <trkpt lat="48.7172" lon="1.78691">
        <ele>166</ele>
        <time>2023-04-27T11:28:17Z</time>
      </trkpt>
      <trkpt lat="48.71719" lon="1.78695">
        <ele>166</ele>
        <time>2023-04-27T11:28:19Z</time>
      </trkpt>
      <trkpt lat="48.71719" lon="1.78699">
        <ele>166</ele>
        <time>2023-04-27T11:28:21Z</time>
      </trkpt>
      <trkpt lat="48.71719" lon="1.78702">
        <ele>166</ele>
        <time>2023-04-27T11:28:24Z</time>
      </trkpt>
      <trkpt lat="48.71718" lon="1.78705">
        <ele>166</ele>
        <time>2023-04-27T11:28:27Z</time>
      </trkpt>
      <trkpt lat="48.71717" lon="1.78708">
        <ele>166</ele>
        <time>2023-04-27T11:28:29Z</time>
      </trkpt>
      <trkpt lat="48.71716" lon="1.78711">
        <ele>166</ele>
        <time>2023-04-27T11:28:31Z</time>
      </trkpt>
      <trkpt lat="48.71714" lon="1.78715">
        <ele>166</ele>
        <time>2023-04-27T11:28:33Z</time>
      </trkpt>
      <trkpt lat="48.71711" lon="1.78719">
        <ele>166</ele>
        <time>2023-04-27T11:28:35Z</time>
      </trkpt>
      <trkpt lat="48.7171" lon="1.78722">
        <ele>166</ele>
        <time>2023-04-27T11:28:37Z</time>
      </trkpt>
      <trkpt lat="48.71708" lon="1.78726">
        <ele>165.8</ele>
        <time>2023-04-27T11:28:40Z</time>
      </trkpt>
      <trkpt lat="48.71707" lon="1.78728">
        <ele>165.8</ele>
        <time>2023-04-27T11:28:42Z</time>
      </trkpt>
      <trkpt lat="48.71705" lon="1.78731">
        <ele>165.8</ele>
        <time>2023-04-27T11:28:44Z</time>
      </trkpt>
      <trkpt lat="48.71703" lon="1.78734">
        <ele>165.8</ele>
        <time>2023-04-27T11:28:46Z</time>
      </trkpt>
      <trkpt lat="48.71701" lon="1.78737">
        <ele>165.8</ele>
        <time>2023-04-27T11:28:48Z</time>
      </trkpt>
      <trkpt lat="48.717" lon="1.7874">
        <ele>165.8</ele>
        <time>2023-04-27T11:28:50Z</time>
      </trkpt>
      <trkpt lat="48.71699" lon="1.78744">
        <ele>165.8</ele>
        <time>2023-04-27T11:28:52Z</time>
      </trkpt>
      <trkpt lat="48.71698" lon="1.78747">
        <ele>165.8</ele>
        <time>2023-04-27T11:28:54Z</time>
      </trkpt>
      <trkpt lat="48.71698" lon="1.78751">
        <ele>165.8</ele>
        <time>2023-04-27T11:28:57Z</time>
      </trkpt>
      <trkpt lat="48.71697" lon="1.78753">
        <ele>166</ele>
        <time>2023-04-27T11:28:59Z</time>
      </trkpt>
      <trkpt lat="48.71697" lon="1.78757">
        <ele>166</ele>
        <time>2023-04-27T11:29:01Z</time>
      </trkpt>
      <trkpt lat="48.71696" lon="1.78762">
        <ele>166</ele>
        <time>2023-04-27T11:29:03Z</time>
      </trkpt>
      <trkpt lat="48.71696" lon="1.78767">
        <ele>166</ele>
        <time>2023-04-27T11:29:05Z</time>
      </trkpt>
      <trkpt lat="48.71694" lon="1.78771">
        <ele>166</ele>
        <time>2023-04-27T11:29:07Z</time>
      </trkpt>
      <trkpt lat="48.71692" lon="1.78774">
        <ele>166</ele>
        <time>2023-04-27T11:29:09Z</time>
      </trkpt>
      <trkpt lat="48.7169" lon="1.78777">
        <ele>166.2</ele>
        <time>2023-04-27T11:29:11Z</time>
      </trkpt>
      <trkpt lat="48.71688" lon="1.78781">
        <ele>166.2</ele>
        <time>2023-04-27T11:29:13Z</time>
      </trkpt>
      <trkpt lat="48.71686" lon="1.78784">
        <ele>166.4</ele>
        <time>2023-04-27T11:29:15Z</time>
      </trkpt>
      <trkpt lat="48.71685" lon="1.78787">
        <ele>166.6</ele>
        <time>2023-04-27T11:29:17Z</time>
      </trkpt>
      <trkpt lat="48.71685" lon="1.7879">
        <ele>166.8</ele>
        <time>2023-04-27T11:29:19Z</time>
      </trkpt>
      <trkpt lat="48.71685" lon="1.78794">
        <ele>167</ele>
        <time>2023-04-27T11:29:21Z</time>
      </trkpt>
      <trkpt lat="48.71684" lon="1.78798">
        <ele>167.2</ele>
        <time>2023-04-27T11:29:23Z</time>
      </trkpt>
      <trkpt lat="48.71683" lon="1.78803">
        <ele>167.2</ele>
        <time>2023-04-27T11:29:25Z</time>
      </trkpt>
      <trkpt lat="48.71682" lon="1.78807">
        <ele>167.2</ele>
        <time>2023-04-27T11:29:27Z</time>
      </trkpt>
      <trkpt lat="48.71682" lon="1.78811">
        <ele>167.4</ele>
        <time>2023-04-27T11:29:29Z</time>
      </trkpt>
      <trkpt lat="48.71682" lon="1.78815">
        <ele>167.4</ele>
        <time>2023-04-27T11:29:31Z</time>
      </trkpt>
      <trkpt lat="48.71682" lon="1.78819">
        <ele>167.6</ele>
        <time>2023-04-27T11:29:33Z</time>
      </trkpt>
      <trkpt lat="48.7168" lon="1.78823">
        <ele>167.8</ele>
        <time>2023-04-27T11:29:35Z</time>
      </trkpt>
      <trkpt lat="48.71678" lon="1.78827">
        <ele>167.8</ele>
        <time>2023-04-27T11:29:37Z</time>
      </trkpt>
      <trkpt lat="48.71676" lon="1.78829">
        <ele>168</ele>
        <time>2023-04-27T11:29:38Z</time>
      </trkpt>
      <trkpt lat="48.71675" lon="1.78832">
        <ele>168</ele>
        <time>2023-04-27T11:29:39Z</time>
      </trkpt>
      <trkpt lat="48.71674" lon="1.78834">
        <ele>168.2</ele>
        <time>2023-04-27T11:29:40Z</time>
      </trkpt>
      <trkpt lat="48.71672" lon="1.78836">
        <ele>168.2</ele>
        <time>2023-04-27T11:29:41Z</time>
      </trkpt>
      <trkpt lat="48.7167" lon="1.7884">
        <ele>168.4</ele>
        <time>2023-04-27T11:29:43Z</time>
      </trkpt>
      <trkpt lat="48.71669" lon="1.78845">
        <ele>168.6</ele>
        <time>2023-04-27T11:29:45Z</time>
      </trkpt>
      <trkpt lat="48.71668" lon="1.78848">
        <ele>168.6</ele>
        <time>2023-04-27T11:29:46Z</time>
      </trkpt>
      <trkpt lat="48.71667" lon="1.78853">
        <ele>168.8</ele>
        <time>2023-04-27T11:29:48Z</time>
      </trkpt>
      <trkpt lat="48.71666" lon="1.78857">
        <ele>168.8</ele>
        <time>2023-04-27T11:29:50Z</time>
      </trkpt>
      <trkpt lat="48.71665" lon="1.78862">
        <ele>169</ele>
        <time>2023-04-27T11:29:52Z</time>
      </trkpt>
      <trkpt lat="48.71664" lon="1.78866">
        <ele>169</ele>
        <time>2023-04-27T11:29:54Z</time>
      </trkpt>
      <trkpt lat="48.71663" lon="1.7887">
        <ele>169.2</ele>
        <time>2023-04-27T11:29:56Z</time>
      </trkpt>
      <trkpt lat="48.71662" lon="1.78874">
        <ele>169.2</ele>
        <time>2023-04-27T11:29:58Z</time>
      </trkpt>
      <trkpt lat="48.7166" lon="1.78878">
        <ele>169.2</ele>
        <time>2023-04-27T11:30:00Z</time>
      </trkpt>
      <trkpt lat="48.7166" lon="1.78881">
        <ele>169.4</ele>
        <time>2023-04-27T11:30:02Z</time>
      </trkpt>
      <trkpt lat="48.7166" lon="1.78885">
        <ele>169.4</ele>
        <time>2023-04-27T11:30:04Z</time>
      </trkpt>
      <trkpt lat="48.7166" lon="1.78889">
        <ele>169.6</ele>
        <time>2023-04-27T11:30:06Z</time>
      </trkpt>
      <trkpt lat="48.71658" lon="1.78894">
        <ele>169.8</ele>
        <time>2023-04-27T11:30:08Z</time>
      </trkpt>
      <trkpt lat="48.71658" lon="1.78897">
        <ele>169.8</ele>
        <time>2023-04-27T11:30:09Z</time>
      </trkpt>
      <trkpt lat="48.71657" lon="1.789">
        <ele>170</ele>
        <time>2023-04-27T11:30:10Z</time>
      </trkpt>
      <trkpt lat="48.71655" lon="1.78904">
        <ele>170</ele>
        <time>2023-04-27T11:30:12Z</time>
      </trkpt>
      <trkpt lat="48.71654" lon="1.78907">
        <ele>170.2</ele>
        <time>2023-04-27T11:30:13Z</time>
      </trkpt>
      <trkpt lat="48.71652" lon="1.78912">
        <ele>170.4</ele>
        <time>2023-04-27T11:30:15Z</time>
      </trkpt>
      <trkpt lat="48.71652" lon="1.78914">
        <ele>170.6</ele>
        <time>2023-04-27T11:30:16Z</time>
      </trkpt>
      <trkpt lat="48.71651" lon="1.78917">
        <ele>170.6</ele>
        <time>2023-04-27T11:30:17Z</time>
      </trkpt>
      <trkpt lat="48.7165" lon="1.7892">
        <ele>170.8</ele>
        <time>2023-04-27T11:30:18Z</time>
      </trkpt>
      <trkpt lat="48.71649" lon="1.78922">
        <ele>170.8</ele>
        <time>2023-04-27T11:30:19Z</time>
      </trkpt>
      <trkpt lat="48.71647" lon="1.78927">
        <ele>171</ele>
        <time>2023-04-27T11:30:21Z</time>
      </trkpt>
      <trkpt lat="48.71645" lon="1.7893">
        <ele>171.4</ele>
        <time>2023-04-27T11:30:23Z</time>
      </trkpt>
      <trkpt lat="48.71644" lon="1.78934">
        <ele>171.6</ele>
        <time>2023-04-27T11:30:25Z</time>
      </trkpt>
      <trkpt lat="48.71642" lon="1.78938">
        <ele>171.8</ele>
        <time>2023-04-27T11:30:27Z</time>
      </trkpt>
      <trkpt lat="48.71641" lon="1.78943">
        <ele>171.8</ele>
        <time>2023-04-27T11:30:29Z</time>
      </trkpt>
      <trkpt lat="48.7164" lon="1.78945">
        <ele>171.8</ele>
        <time>2023-04-27T11:30:30Z</time>
      </trkpt>
      <trkpt lat="48.7164" lon="1.7895">
        <ele>172</ele>
        <time>2023-04-27T11:30:32Z</time>
      </trkpt>
      <trkpt lat="48.71639" lon="1.78954">
        <ele>172</ele>
        <time>2023-04-27T11:30:34Z</time>
      </trkpt>
      <trkpt lat="48.71638" lon="1.78958">
        <ele>172.2</ele>
        <time>2023-04-27T11:30:36Z</time>
      </trkpt>
      <trkpt lat="48.71636" lon="1.78962">
        <ele>172.2</ele>
        <time>2023-04-27T11:30:38Z</time>
      </trkpt>
      <trkpt lat="48.71636" lon="1.78966">
        <ele>172.2</ele>
        <time>2023-04-27T11:30:40Z</time>
      </trkpt>
      <trkpt lat="48.71634" lon="1.7897">
        <ele>172.2</ele>
        <time>2023-04-27T11:30:42Z</time>
      </trkpt>
      <trkpt lat="48.71633" lon="1.78975">
        <ele>172</ele>
        <time>2023-04-27T11:30:44Z</time>
      </trkpt>
      <trkpt lat="48.71632" lon="1.78977">
        <ele>172</ele>
        <time>2023-04-27T11:30:45Z</time>
      </trkpt>
      <trkpt lat="48.7163" lon="1.78982">
        <ele>172.2</ele>
        <time>2023-04-27T11:30:47Z</time>
      </trkpt>
      <trkpt lat="48.71629" lon="1.78986">
        <ele>172.2</ele>
        <time>2023-04-27T11:30:49Z</time>
      </trkpt>
      <trkpt lat="48.71628" lon="1.7899">
        <ele>172.2</ele>
        <time>2023-04-27T11:30:51Z</time>
      </trkpt>
      <trkpt lat="48.71626" lon="1.78994">
        <ele>172.2</ele>
        <time>2023-04-27T11:30:53Z</time>
      </trkpt>
      <trkpt lat="48.71625" lon="1.78997">
        <ele>172.4</ele>
        <time>2023-04-27T11:30:55Z</time>
      </trkpt>
      <trkpt lat="48.71624" lon="1.79001">
        <ele>172.4</ele>
        <time>2023-04-27T11:30:57Z</time>
      </trkpt>
      <trkpt lat="48.71623" lon="1.79005">
        <ele>172.2</ele>
        <time>2023-04-27T11:30:59Z</time>
      </trkpt>
      <trkpt lat="48.71622" lon="1.79007">
        <ele>172.2</ele>
        <time>2023-04-27T11:31:00Z</time>
      </trkpt>
      <trkpt lat="48.71621" lon="1.7901">
        <ele>172.2</ele>
        <time>2023-04-27T11:31:01Z</time>
      </trkpt>
      <trkpt lat="48.7162" lon="1.79013">
        <ele>172</ele>
        <time>2023-04-27T11:31:02Z</time>
      </trkpt>
      <trkpt lat="48.71619" lon="1.79016">
        <ele>172</ele>
        <time>2023-04-27T11:31:03Z</time>
      </trkpt>
      <trkpt lat="48.71618" lon="1.79018">
        <ele>171.8</ele>
        <time>2023-04-27T11:31:04Z</time>
      </trkpt>
      <trkpt lat="48.71617" lon="1.79021">
        <ele>171.8</ele>
        <time>2023-04-27T11:31:05Z</time>
      </trkpt>
      <trkpt lat="48.71615" lon="1.79026">
        <ele>171.6</ele>
        <time>2023-04-27T11:31:07Z</time>
      </trkpt>
      <trkpt lat="48.71614" lon="1.79028">
        <ele>171.4</ele>
        <time>2023-04-27T11:31:08Z</time>
      </trkpt>
      <trkpt lat="48.71613" lon="1.79032">
        <ele>171.2</ele>
        <time>2023-04-27T11:31:10Z</time>
      </trkpt>
      <trkpt lat="48.71612" lon="1.79036">
        <ele>171</ele>
        <time>2023-04-27T11:31:12Z</time>
      </trkpt>
      <trkpt lat="48.71612" lon="1.7904">
        <ele>170.6</ele>
        <time>2023-04-27T11:31:14Z</time>
      </trkpt>
      <trkpt lat="48.71611" lon="1.79045">
        <ele>170.4</ele>
        <time>2023-04-27T11:31:16Z</time>
      </trkpt>
      <trkpt lat="48.7161" lon="1.79048">
        <ele>170.2</ele>
        <time>2023-04-27T11:31:17Z</time>
      </trkpt>
      <trkpt lat="48.71609" lon="1.79051">
        <ele>170</ele>
        <time>2023-04-27T11:31:18Z</time>
      </trkpt>
      <trkpt lat="48.71608" lon="1.79054">
        <ele>170</ele>
        <time>2023-04-27T11:31:19Z</time>
      </trkpt>
      <trkpt lat="48.71606" lon="1.79057">
        <ele>169.8</ele>
        <time>2023-04-27T11:31:20Z</time>
      </trkpt>
      <trkpt lat="48.71605" lon="1.7906">
        <ele>169.8</ele>
        <time>2023-04-27T11:31:21Z</time>
      </trkpt>
      <trkpt lat="48.71604" lon="1.79064">
        <ele>169.6</ele>
        <time>2023-04-27T11:31:23Z</time>
      </trkpt>
      <trkpt lat="48.71603" lon="1.79067">
        <ele>169.4</ele>
        <time>2023-04-27T11:31:25Z</time>
      </trkpt>
      <trkpt lat="48.71603" lon="1.79071">
        <ele>169</ele>
        <time>2023-04-27T11:31:28Z</time>
      </trkpt>
      <trkpt lat="48.71602" lon="1.79074">
        <ele>168.6</ele>
        <time>2023-04-27T11:31:30Z</time>
      </trkpt>
      <trkpt lat="48.71601" lon="1.79077">
        <ele>168.6</ele>
        <time>2023-04-27T11:31:32Z</time>
      </trkpt>
      <trkpt lat="48.716" lon="1.79081">
        <ele>168.4</ele>
        <time>2023-04-27T11:31:34Z</time>
      </trkpt>
      <trkpt lat="48.71599" lon="1.79084">
        <ele>168.2</ele>
        <time>2023-04-27T11:31:36Z</time>
      </trkpt>
      <trkpt lat="48.71598" lon="1.79087">
        <ele>168</ele>
        <time>2023-04-27T11:31:38Z</time>
      </trkpt>
      <trkpt lat="48.71598" lon="1.79091">
        <ele>167.8</ele>
        <time>2023-04-27T11:31:40Z</time>
      </trkpt>
      <trkpt lat="48.71596" lon="1.79094">
        <ele>167.6</ele>
        <time>2023-04-27T11:31:42Z</time>
      </trkpt>
      <trkpt lat="48.71596" lon="1.79097">
        <ele>167.4</ele>
        <time>2023-04-27T11:31:44Z</time>
      </trkpt>
      <trkpt lat="48.71594" lon="1.791">
        <ele>167.2</ele>
        <time>2023-04-27T11:31:46Z</time>
      </trkpt>
      <trkpt lat="48.71592" lon="1.79103">
        <ele>167.2</ele>
        <time>2023-04-27T11:31:48Z</time>
      </trkpt>
      <trkpt lat="48.7159" lon="1.79106">
        <ele>167</ele>
        <time>2023-04-27T11:31:50Z</time>
      </trkpt>
      <trkpt lat="48.71588" lon="1.79109">
        <ele>167</ele>
        <time>2023-04-27T11:31:52Z</time>
        <extensions>
          <gpxtpx:TrackPointExtension xmlns:gpxtpx="http://www.garmin.com/xmlschemas/TrackPointExtension/v1">
            <gpxtpx:hr>100</gpxtpx:hr>
          </gpxtpx:TrackPointExtension>
        </extensions>
      </trkpt>
      <trkpt lat="48.71587" lon="1.79113">
        <ele>166.8</ele>
        <time>2023-04-27T11:31:54Z</time>
        <extensions>
          <gpxtpx:TrackPointExtension xmlns:gpxtpx="http://www.garmin.com/xmlschemas/TrackPointExtension/v1">
            <gpxtpx:hr>100</gpxtpx:hr>
          </gpxtpx:TrackPointExtension>
        </extensions>
      </trkpt>
      <trkpt lat="48.71586" lon="1.79116">
        <ele>166.8</ele>
        <time>2023-04-27T11:31:56Z</time>
        <extensions>
          <gpxtpx:TrackPointExtension xmlns:gpxtpx="http://www.garmin.com/xmlschemas/TrackPointExtension/v1">
            <gpxtpx:hr>100</gpxtpx:hr>
          </gpxtpx:TrackPointExtension>
        </extensions>
      </trkpt>
      <trkpt lat="48.71585" lon="1.79119">
        <ele>166.8</ele>
        <time>2023-04-27T11:31:58Z</time>
        <extensions>
          <gpxtpx:TrackPointExtension xmlns:gpxtpx="http://www.garmin.com/xmlschemas/TrackPointExtension/v1">
            <gpxtpx:hr>100</gpxtpx:hr>
          </gpxtpx:TrackPointExtension>
        </extensions>
      </trkpt>
      <trkpt lat="48.71584" lon="1.79122">
        <ele>166.8</ele>
        <time>2023-04-27T11:32:00Z</time>
        <extensions>
          <gpxtpx:TrackPointExtension xmlns:gpxtpx="http://www.garmin.com/xmlschemas/TrackPointExtension/v1">
            <gpxtpx:hr>100</gpxtpx:hr>
          </gpxtpx:TrackPointExtension>
        </extensions>
      </trkpt>
      <trkpt lat="48.71584" lon="1.79125">
        <ele>166.8</ele>
        <time>2023-04-27T11:32:02Z</time>
        <extensions>
          <gpxtpx:TrackPointExtension xmlns:gpxtpx="http://www.garmin.com/xmlschemas/TrackPointExtension/v1">
            <gpxtpx:hr>100</gpxtpx:hr>
          </gpxtpx:TrackPointExtension>
        </extensions>
      </trkpt>
      <trkpt lat="48.71583" lon="1.79128">
        <ele>166.8</ele>
        <time>2023-04-27T11:32:04Z</time>
        <extensions>
          <gpxtpx:TrackPointExtension xmlns:gpxtpx="http://www.garmin.com/xmlschemas/TrackPointExtension/v1">
            <gpxtpx:hr>101</gpxtpx:hr>
          </gpxtpx:TrackPointExtension>
        </extensions>
      </trkpt>
      <trkpt lat="48.71582" lon="1.79132">
        <ele>166.8</ele>
        <time>2023-04-27T11:32:06Z</time>
        <extensions>
          <gpxtpx:TrackPointExtension xmlns:gpxtpx="http://www.garmin.com/xmlschemas/TrackPointExtension/v1">
            <gpxtpx:hr>101</gpxtpx:hr>
          </gpxtpx:TrackPointExtension>
        </extensions>
      </trkpt>
      <trkpt lat="48.71582" lon="1.79136">
        <ele>167</ele>
        <time>2023-04-27T11:32:08Z</time>
        <extensions>
          <gpxtpx:TrackPointExtension xmlns:gpxtpx="http://www.garmin.com/xmlschemas/TrackPointExtension/v1">
            <gpxtpx:hr>102</gpxtpx:hr>
          </gpxtpx:TrackPointExtension>
        </extensions>
      </trkpt>
      <trkpt lat="48.71581" lon="1.7914">
        <ele>167</ele>
        <time>2023-04-27T11:32:10Z</time>
        <extensions>
          <gpxtpx:TrackPointExtension xmlns:gpxtpx="http://www.garmin.com/xmlschemas/TrackPointExtension/v1">
            <gpxtpx:hr>102</gpxtpx:hr>
          </gpxtpx:TrackPointExtension>
        </extensions>
      </trkpt>
      <trkpt lat="48.7158" lon="1.79144">
        <ele>166.8</ele>
        <time>2023-04-27T11:32:12Z</time>
        <extensions>
          <gpxtpx:TrackPointExtension xmlns:gpxtpx="http://www.garmin.com/xmlschemas/TrackPointExtension/v1">
            <gpxtpx:hr>102</gpxtpx:hr>
          </gpxtpx:TrackPointExtension>
        </extensions>
      </trkpt>
      <trkpt lat="48.7158" lon="1.79148">
        <ele>166.8</ele>
        <time>2023-04-27T11:32:14Z</time>
        <extensions>
          <gpxtpx:TrackPointExtension xmlns:gpxtpx="http://www.garmin.com/xmlschemas/TrackPointExtension/v1">
            <gpxtpx:hr>102</gpxtpx:hr>
          </gpxtpx:TrackPointExtension>
        </extensions>
      </trkpt>
      <trkpt lat="48.71578" lon="1.79152">
        <ele>166.8</ele>
        <time>2023-04-27T11:32:16Z</time>
        <extensions>
          <gpxtpx:TrackPointExtension xmlns:gpxtpx="http://www.garmin.com/xmlschemas/TrackPointExtension/v1">
            <gpxtpx:hr>102</gpxtpx:hr>
          </gpxtpx:TrackPointExtension>
        </extensions>
      </trkpt>
      <trkpt lat="48.71576" lon="1.79157">
        <ele>166.6</ele>
        <time>2023-04-27T11:32:18Z</time>
        <extensions>
          <gpxtpx:TrackPointExtension xmlns:gpxtpx="http://www.garmin.com/xmlschemas/TrackPointExtension/v1">
            <gpxtpx:hr>102</gpxtpx:hr>
          </gpxtpx:TrackPointExtension>
        </extensions>
      </trkpt>
      <trkpt lat="48.71575" lon="1.79159">
        <ele>166.4</ele>
        <time>2023-04-27T11:32:19Z</time>
        <extensions>
          <gpxtpx:TrackPointExtension xmlns:gpxtpx="http://www.garmin.com/xmlschemas/TrackPointExtension/v1">
            <gpxtpx:hr>102</gpxtpx:hr>
          </gpxtpx:TrackPointExtension>
        </extensions>
      </trkpt>
      <trkpt lat="48.71574" lon="1.79161">
        <ele>166.4</ele>
        <time>2023-04-27T11:32:20Z</time>
        <extensions>
          <gpxtpx:TrackPointExtension xmlns:gpxtpx="http://www.garmin.com/xmlschemas/TrackPointExtension/v1">
            <gpxtpx:hr>102</gpxtpx:hr>
          </gpxtpx:TrackPointExtension>
        </extensions>
      </trkpt>
      <trkpt lat="48.71572" lon="1.79166">
        <ele>166.2</ele>
        <time>2023-04-27T11:32:22Z</time>
        <extensions>
          <gpxtpx:TrackPointExtension xmlns:gpxtpx="http://www.garmin.com/xmlschemas/TrackPointExtension/v1">
            <gpxtpx:hr>102</gpxtpx:hr>
          </gpxtpx:TrackPointExtension>
        </extensions>
      </trkpt>
      <trkpt lat="48.71571" lon="1.7917">
        <ele>165.8</ele>
        <time>2023-04-27T11:32:24Z</time>
        <extensions>
          <gpxtpx:TrackPointExtension xmlns:gpxtpx="http://www.garmin.com/xmlschemas/TrackPointExtension/v1">
            <gpxtpx:hr>102</gpxtpx:hr>
          </gpxtpx:TrackPointExtension>
        </extensions>
      </trkpt>
      <trkpt lat="48.71571" lon="1.79173">
        <ele>165.6</ele>
        <time>2023-04-27T11:32:26Z</time>
        <extensions>
          <gpxtpx:TrackPointExtension xmlns:gpxtpx="http://www.garmin.com/xmlschemas/TrackPointExtension/v1">
            <gpxtpx:hr>102</gpxtpx:hr>
          </gpxtpx:TrackPointExtension>
        </extensions>
      </trkpt>
      <trkpt lat="48.7157" lon="1.79177">
        <ele>165.6</ele>
        <time>2023-04-27T11:32:28Z</time>
        <extensions>
          <gpxtpx:TrackPointExtension xmlns:gpxtpx="http://www.garmin.com/xmlschemas/TrackPointExtension/v1">
            <gpxtpx:hr>102</gpxtpx:hr>
          </gpxtpx:TrackPointExtension>
        </extensions>
      </trkpt>
      <trkpt lat="48.7157" lon="1.7918">
        <ele>165.4</ele>
        <time>2023-04-27T11:32:30Z</time>
        <extensions>
          <gpxtpx:TrackPointExtension xmlns:gpxtpx="http://www.garmin.com/xmlschemas/TrackPointExtension/v1">
            <gpxtpx:hr>102</gpxtpx:hr>
          </gpxtpx:TrackPointExtension>
        </extensions>
      </trkpt>
      <trkpt lat="48.71569" lon="1.79184">
        <ele>165.2</ele>
        <time>2023-04-27T11:32:32Z</time>
        <extensions>
          <gpxtpx:TrackPointExtension xmlns:gpxtpx="http://www.garmin.com/xmlschemas/TrackPointExtension/v1">
            <gpxtpx:hr>102</gpxtpx:hr>
          </gpxtpx:TrackPointExtension>
        </extensions>
      </trkpt>
      <trkpt lat="48.71567" lon="1.79187">
        <ele>165.2</ele>
        <time>2023-04-27T11:32:34Z</time>
        <extensions>
          <gpxtpx:TrackPointExtension xmlns:gpxtpx="http://www.garmin.com/xmlschemas/TrackPointExtension/v1">
            <gpxtpx:hr>102</gpxtpx:hr>
          </gpxtpx:TrackPointExtension>
        </extensions>
      </trkpt>
      <trkpt lat="48.71564" lon="1.79191">
        <ele>165.2</ele>
        <time>2023-04-27T11:32:36Z</time>
        <extensions>
          <gpxtpx:TrackPointExtension xmlns:gpxtpx="http://www.garmin.com/xmlschemas/TrackPointExtension/v1">
            <gpxtpx:hr>102</gpxtpx:hr>
          </gpxtpx:TrackPointExtension>
        </extensions>
      </trkpt>
      <trkpt lat="48.71563" lon="1.79193">
        <ele>165.2</ele>
        <time>2023-04-27T11:32:37Z</time>
        <extensions>
          <gpxtpx:TrackPointExtension xmlns:gpxtpx="http://www.garmin.com/xmlschemas/TrackPointExtension/v1">
            <gpxtpx:hr>102</gpxtpx:hr>
          </gpxtpx:TrackPointExtension>
        </extensions>
      </trkpt>
      <trkpt lat="48.71562" lon="1.79198">
        <ele>165.2</ele>
        <time>2023-04-27T11:32:39Z</time>
        <extensions>
          <gpxtpx:TrackPointExtension xmlns:gpxtpx="http://www.garmin.com/xmlschemas/TrackPointExtension/v1">
            <gpxtpx:hr>102</gpxtpx:hr>
          </gpxtpx:TrackPointExtension>
        </extensions>
      </trkpt>
      <trkpt lat="48.71561" lon="1.79201">
        <ele>165.2</ele>
        <time>2023-04-27T11:32:40Z</time>
        <extensions>
          <gpxtpx:TrackPointExtension xmlns:gpxtpx="http://www.garmin.com/xmlschemas/TrackPointExtension/v1">
            <gpxtpx:hr>102</gpxtpx:hr>
          </gpxtpx:TrackPointExtension>
        </extensions>
      </trkpt>
      <trkpt lat="48.7156" lon="1.79205">
        <ele>165.2</ele>
        <time>2023-04-27T11:32:42Z</time>
        <extensions>
          <gpxtpx:TrackPointExtension xmlns:gpxtpx="http://www.garmin.com/xmlschemas/TrackPointExtension/v1">
            <gpxtpx:hr>102</gpxtpx:hr>
          </gpxtpx:TrackPointExtension>
        </extensions>
      </trkpt>
      <trkpt lat="48.7156" lon="1.79208">
        <ele>165.4</ele>
        <time>2023-04-27T11:32:44Z</time>
        <extensions>
          <gpxtpx:TrackPointExtension xmlns:gpxtpx="http://www.garmin.com/xmlschemas/TrackPointExtension/v1">
            <gpxtpx:hr>102</gpxtpx:hr>
          </gpxtpx:TrackPointExtension>
        </extensions>
      </trkpt>
      <trkpt lat="48.71558" lon="1.79211">
        <ele>165.6</ele>
        <time>2023-04-27T11:32:47Z</time>
        <extensions>
          <gpxtpx:TrackPointExtension xmlns:gpxtpx="http://www.garmin.com/xmlschemas/TrackPointExtension/v1">
            <gpxtpx:hr>102</gpxtpx:hr>
          </gpxtpx:TrackPointExtension>
        </extensions>
      </trkpt>
      <trkpt lat="48.71557" lon="1.79214">
        <ele>165.8</ele>
        <time>2023-04-27T11:32:50Z</time>
        <extensions>
          <gpxtpx:TrackPointExtension xmlns:gpxtpx="http://www.garmin.com/xmlschemas/TrackPointExtension/v1">
            <gpxtpx:hr>102</gpxtpx:hr>
          </gpxtpx:TrackPointExtension>
        </extensions>
      </trkpt>
      <trkpt lat="48.71556" lon="1.79218">
        <ele>165.8</ele>
        <time>2023-04-27T11:32:52Z</time>
        <extensions>
          <gpxtpx:TrackPointExtension xmlns:gpxtpx="http://www.garmin.com/xmlschemas/TrackPointExtension/v1">
            <gpxtpx:hr>102</gpxtpx:hr>
          </gpxtpx:TrackPointExtension>
        </extensions>
      </trkpt>
      <trkpt lat="48.71556" lon="1.79223">
        <ele>166</ele>
        <time>2023-04-27T11:32:54Z</time>
        <extensions>
          <gpxtpx:TrackPointExtension xmlns:gpxtpx="http://www.garmin.com/xmlschemas/TrackPointExtension/v1">
            <gpxtpx:hr>102</gpxtpx:hr>
          </gpxtpx:TrackPointExtension>
        </extensions>
      </trkpt>
      <trkpt lat="48.71555" lon="1.79227">
        <ele>166.2</ele>
        <time>2023-04-27T11:32:56Z</time>
        <extensions>
          <gpxtpx:TrackPointExtension xmlns:gpxtpx="http://www.garmin.com/xmlschemas/TrackPointExtension/v1">
            <gpxtpx:hr>102</gpxtpx:hr>
          </gpxtpx:TrackPointExtension>
        </extensions>
      </trkpt>
      <trkpt lat="48.71553" lon="1.79231">
        <ele>166.4</ele>
        <time>2023-04-27T11:32:58Z</time>
        <extensions>
          <gpxtpx:TrackPointExtension xmlns:gpxtpx="http://www.garmin.com/xmlschemas/TrackPointExtension/v1">
            <gpxtpx:hr>102</gpxtpx:hr>
          </gpxtpx:TrackPointExtension>
        </extensions>
      </trkpt>
      <trkpt lat="48.71552" lon="1.79236">
        <ele>166.4</ele>
        <time>2023-04-27T11:33:00Z</time>
      </trkpt>
      <trkpt lat="48.71551" lon="1.7924">
        <ele>166.4</ele>
        <time>2023-04-27T11:33:02Z</time>
      </trkpt>
      <trkpt lat="48.7155" lon="1.79245">
        <ele>166.4</ele>
        <time>2023-04-27T11:33:04Z</time>
      </trkpt>
      <trkpt lat="48.71548" lon="1.7925">
        <ele>166.6</ele>
        <time>2023-04-27T11:33:06Z</time>
      </trkpt>
      <trkpt lat="48.71547" lon="1.79254">
        <ele>166.6</ele>
        <time>2023-04-27T11:33:08Z</time>
      </trkpt>
      <trkpt lat="48.71546" lon="1.79258">
        <ele>166.8</ele>
        <time>2023-04-27T11:33:10Z</time>
      </trkpt>
      <trkpt lat="48.71545" lon="1.79262">
        <ele>166.8</ele>
        <time>2023-04-27T11:33:12Z</time>
      </trkpt>
      <trkpt lat="48.71544" lon="1.79267">
        <ele>166.8</ele>
        <time>2023-04-27T11:33:14Z</time>
      </trkpt>
      <trkpt lat="48.71543" lon="1.7927">
        <ele>166.8</ele>
        <time>2023-04-27T11:33:15Z</time>
      </trkpt>
      <trkpt lat="48.71542" lon="1.79273">
        <ele>166.8</ele>
        <time>2023-04-27T11:33:16Z</time>
      </trkpt>
      <trkpt lat="48.71541" lon="1.79275">
        <ele>166.8</ele>
        <time>2023-04-27T11:33:17Z</time>
      </trkpt>
      <trkpt lat="48.7154" lon="1.7928">
        <ele>167</ele>
        <time>2023-04-27T11:33:19Z</time>
      </trkpt>
      <trkpt lat="48.71539" lon="1.79285">
        <ele>167</ele>
        <time>2023-04-27T11:33:21Z</time>
      </trkpt>
      <trkpt lat="48.71538" lon="1.79289">
        <ele>167.2</ele>
        <time>2023-04-27T11:33:23Z</time>
      </trkpt>
      <trkpt lat="48.71537" lon="1.79294">
        <ele>167.4</ele>
        <time>2023-04-27T11:33:25Z</time>
      </trkpt>
      <trkpt lat="48.71537" lon="1.79298">
        <ele>167.8</ele>
        <time>2023-04-27T11:33:27Z</time>
      </trkpt>
      <trkpt lat="48.71536" lon="1.79302">
        <ele>168</ele>
        <time>2023-04-27T11:33:29Z</time>
      </trkpt>
      <trkpt lat="48.71536" lon="1.79306">
        <ele>168.4</ele>
        <time>2023-04-27T11:33:31Z</time>
      </trkpt>
      <trkpt lat="48.71536" lon="1.7931">
        <ele>168.8</ele>
        <time>2023-04-27T11:33:34Z</time>
      </trkpt>
      <trkpt lat="48.71538" lon="1.79309">
        <ele>169.6</ele>
        <time>2023-04-27T11:33:41Z</time>
      </trkpt>
      <trkpt lat="48.7154" lon="1.7931">
        <ele>169.6</ele>
        <time>2023-04-27T11:33:44Z</time>
      </trkpt>
      <trkpt lat="48.71542" lon="1.79312">
        <ele>169.6</ele>
        <time>2023-04-27T11:33:47Z</time>
      </trkpt>
      <trkpt lat="48.71544" lon="1.79314">
        <ele>169.6</ele>
        <time>2023-04-27T11:33:49Z</time>
      </trkpt>
      <trkpt lat="48.71546" lon="1.79316">
        <ele>169.4</ele>
        <time>2023-04-27T11:33:51Z</time>
      </trkpt>
      <trkpt lat="48.71548" lon="1.79319">
        <ele>169.4</ele>
        <time>2023-04-27T11:33:53Z</time>
      </trkpt>
      <trkpt lat="48.7155" lon="1.79321">
        <ele>169.4</ele>
        <time>2023-04-27T11:33:56Z</time>
      </trkpt>
      <trkpt lat="48.71551" lon="1.79323">
        <ele>169.4</ele>
        <time>2023-04-27T11:33:58Z</time>
      </trkpt>
      <trkpt lat="48.71553" lon="1.79324">
        <ele>169.4</ele>
        <time>2023-04-27T11:34:00Z</time>
      </trkpt>
      <trkpt lat="48.71555" lon="1.79325">
        <ele>169.4</ele>
        <time>2023-04-27T11:34:02Z</time>
      </trkpt>
      <trkpt lat="48.71558" lon="1.79325">
        <ele>169.4</ele>
        <time>2023-04-27T11:34:04Z</time>
      </trkpt>
      <trkpt lat="48.7156" lon="1.79326">
        <ele>169.4</ele>
        <time>2023-04-27T11:34:06Z</time>
      </trkpt>
      <trkpt lat="48.71563" lon="1.79327">
        <ele>169.4</ele>
        <time>2023-04-27T11:34:08Z</time>
      </trkpt>
      <trkpt lat="48.71565" lon="1.79329">
        <ele>169.2</ele>
        <time>2023-04-27T11:34:10Z</time>
      </trkpt>
      <trkpt lat="48.71567" lon="1.79332">
        <ele>169.2</ele>
        <time>2023-04-27T11:34:12Z</time>
      </trkpt>
      <trkpt lat="48.71569" lon="1.79333">
        <ele>169.2</ele>
        <time>2023-04-27T11:34:14Z</time>
      </trkpt>
      <trkpt lat="48.7157" lon="1.79335">
        <ele>169.2</ele>
        <time>2023-04-27T11:34:16Z</time>
      </trkpt>
      <trkpt lat="48.71572" lon="1.79336">
        <ele>169</ele>
        <time>2023-04-27T11:34:18Z</time>
      </trkpt>
      <trkpt lat="48.71574" lon="1.79339">
        <ele>169</ele>
        <time>2023-04-27T11:34:21Z</time>
      </trkpt>
      <trkpt lat="48.71577" lon="1.79341">
        <ele>168.8</ele>
        <time>2023-04-27T11:34:23Z</time>
      </trkpt>
      <trkpt lat="48.7158" lon="1.79343">
        <ele>168.8</ele>
        <time>2023-04-27T11:34:25Z</time>
      </trkpt>
      <trkpt lat="48.71582" lon="1.79344">
        <ele>168.6</ele>
        <time>2023-04-27T11:34:27Z</time>
      </trkpt>
      <trkpt lat="48.71585" lon="1.79346">
        <ele>168.6</ele>
        <time>2023-04-27T11:34:29Z</time>
      </trkpt>
      <trkpt lat="48.71588" lon="1.79347">
        <ele>168.4</ele>
        <time>2023-04-27T11:34:31Z</time>
      </trkpt>
      <trkpt lat="48.7159" lon="1.79348">
        <ele>168.2</ele>
        <time>2023-04-27T11:34:33Z</time>
      </trkpt>
      <trkpt lat="48.71593" lon="1.79349">
        <ele>168.2</ele>
        <time>2023-04-27T11:34:35Z</time>
      </trkpt>
      <trkpt lat="48.71596" lon="1.79349">
        <ele>168.2</ele>
        <time>2023-04-27T11:34:37Z</time>
      </trkpt>
      <trkpt lat="48.71598" lon="1.7935">
        <ele>168.2</ele>
        <time>2023-04-27T11:34:39Z</time>
      </trkpt>
      <trkpt lat="48.716" lon="1.79351">
        <ele>168.2</ele>
        <time>2023-04-27T11:34:41Z</time>
      </trkpt>
      <trkpt lat="48.71602" lon="1.79354">
        <ele>168.2</ele>
        <time>2023-04-27T11:34:43Z</time>
      </trkpt>
      <trkpt lat="48.71604" lon="1.79356">
        <ele>168.2</ele>
        <time>2023-04-27T11:34:45Z</time>
      </trkpt>
      <trkpt lat="48.71606" lon="1.79358">
        <ele>168.2</ele>
        <time>2023-04-27T11:34:47Z</time>
      </trkpt>
      <trkpt lat="48.71607" lon="1.7936">
        <ele>168.2</ele>
        <time>2023-04-27T11:34:49Z</time>
      </trkpt>
      <trkpt lat="48.71609" lon="1.79363">
        <ele>168.2</ele>
        <time>2023-04-27T11:34:51Z</time>
      </trkpt>
      <trkpt lat="48.71611" lon="1.79365">
        <ele>168.2</ele>
        <time>2023-04-27T11:34:53Z</time>
      </trkpt>
      <trkpt lat="48.71614" lon="1.79367">
        <ele>168</ele>
        <time>2023-04-27T11:34:55Z</time>
      </trkpt>
      <trkpt lat="48.71617" lon="1.79368">
        <ele>168</ele>
        <time>2023-04-27T11:34:57Z</time>
      </trkpt>
      <trkpt lat="48.7162" lon="1.79369">
        <ele>167.8</ele>
        <time>2023-04-27T11:34:59Z</time>
      </trkpt>
      <trkpt lat="48.71623" lon="1.79371">
        <ele>167.6</ele>
        <time>2023-04-27T11:35:01Z</time>
      </trkpt>
      <trkpt lat="48.71626" lon="1.79372">
        <ele>167.6</ele>
        <time>2023-04-27T11:35:03Z</time>
      </trkpt>
      <trkpt lat="48.71628" lon="1.79374">
        <ele>167.6</ele>
        <time>2023-04-27T11:35:05Z</time>
      </trkpt>
      <trkpt lat="48.7163" lon="1.79376">
        <ele>167.6</ele>
        <time>2023-04-27T11:35:07Z</time>
      </trkpt>
      <trkpt lat="48.71632" lon="1.79379">
        <ele>167.6</ele>
        <time>2023-04-27T11:35:09Z</time>
      </trkpt>
      <trkpt lat="48.71633" lon="1.79382">
        <ele>167.4</ele>
        <time>2023-04-27T11:35:11Z</time>
      </trkpt>
      <trkpt lat="48.71634" lon="1.79386">
        <ele>167.4</ele>
        <time>2023-04-27T11:35:13Z</time>
      </trkpt>
      <trkpt lat="48.71636" lon="1.79389">
        <ele>167.4</ele>
        <time>2023-04-27T11:35:15Z</time>
      </trkpt>
      <trkpt lat="48.71639" lon="1.79391">
        <ele>167.4</ele>
        <time>2023-04-27T11:35:17Z</time>
      </trkpt>
      <trkpt lat="48.71641" lon="1.79392">
        <ele>167.4</ele>
        <time>2023-04-27T11:35:18Z</time>
      </trkpt>
      <trkpt lat="48.71643" lon="1.79393">
        <ele>167.4</ele>
        <time>2023-04-27T11:35:19Z</time>
      </trkpt>
      <trkpt lat="48.71645" lon="1.79393">
        <ele>167.4</ele>
        <time>2023-04-27T11:35:20Z</time>
      </trkpt>
      <trkpt lat="48.71648" lon="1.79394">
        <ele>167.2</ele>
        <time>2023-04-27T11:35:22Z</time>
      </trkpt>
      <trkpt lat="48.71652" lon="1.79396">
        <ele>167.2</ele>
        <time>2023-04-27T11:35:24Z</time>
      </trkpt>
      <trkpt lat="48.71653" lon="1.79397">
        <ele>167</ele>
        <time>2023-04-27T11:35:25Z</time>
      </trkpt>
      <trkpt lat="48.71656" lon="1.79401">
        <ele>166.8</ele>
        <time>2023-04-27T11:35:27Z</time>
      </trkpt>
      <trkpt lat="48.71658" lon="1.79403">
        <ele>166.8</ele>
        <time>2023-04-27T11:35:28Z</time>
      </trkpt>
      <trkpt lat="48.7166" lon="1.79404">
        <ele>166.8</ele>
        <time>2023-04-27T11:35:29Z</time>
      </trkpt>
      <trkpt lat="48.71661" lon="1.79405">
        <ele>166.8</ele>
        <time>2023-04-27T11:35:30Z</time>
      </trkpt>
      <trkpt lat="48.71663" lon="1.79407">
        <ele>166.8</ele>
        <time>2023-04-27T11:35:31Z</time>
      </trkpt>
      <trkpt lat="48.71666" lon="1.79409">
        <ele>166.8</ele>
        <time>2023-04-27T11:35:33Z</time>
      </trkpt>
      <trkpt lat="48.71668" lon="1.7941">
        <ele>166.8</ele>
        <time>2023-04-27T11:35:34Z</time>
      </trkpt>
      <trkpt lat="48.71671" lon="1.79412">
        <ele>166.8</ele>
        <time>2023-04-27T11:35:36Z</time>
      </trkpt>
      <trkpt lat="48.71674" lon="1.79414">
        <ele>166.8</ele>
        <time>2023-04-27T11:35:38Z</time>
      </trkpt>
      <trkpt lat="48.71676" lon="1.79415">
        <ele>166.8</ele>
        <time>2023-04-27T11:35:40Z</time>
      </trkpt>
      <trkpt lat="48.71679" lon="1.79416">
        <ele>166.8</ele>
        <time>2023-04-27T11:35:42Z</time>
      </trkpt>
      <trkpt lat="48.71682" lon="1.79417">
        <ele>166.8</ele>
        <time>2023-04-27T11:35:44Z</time>
      </trkpt>
      <trkpt lat="48.71685" lon="1.79419">
        <ele>166.8</ele>
        <time>2023-04-27T11:35:46Z</time>
      </trkpt>
      <trkpt lat="48.71687" lon="1.79421">
        <ele>166.8</ele>
        <time>2023-04-27T11:35:48Z</time>
      </trkpt>
      <trkpt lat="48.71689" lon="1.79424">
        <ele>166.6</ele>
        <time>2023-04-27T11:35:50Z</time>
      </trkpt>
      <trkpt lat="48.7169" lon="1.79426">
        <ele>166.6</ele>
        <time>2023-04-27T11:35:52Z</time>
      </trkpt>
      <trkpt lat="48.71692" lon="1.79428">
        <ele>166.4</ele>
        <time>2023-04-27T11:35:54Z</time>
      </trkpt>
      <trkpt lat="48.71695" lon="1.79429">
        <ele>166.4</ele>
        <time>2023-04-27T11:35:56Z</time>
      </trkpt>
      <trkpt lat="48.71698" lon="1.79429">
        <ele>166.4</ele>
        <time>2023-04-27T11:35:58Z</time>
      </trkpt>
      <trkpt lat="48.717" lon="1.79429">
        <ele>166.6</ele>
        <time>2023-04-27T11:35:59Z</time>
      </trkpt>
      <trkpt lat="48.71702" lon="1.7943">
        <ele>166.6</ele>
        <time>2023-04-27T11:36:01Z</time>
      </trkpt>
      <trkpt lat="48.71705" lon="1.7943">
        <ele>166.8</ele>
        <time>2023-04-27T11:36:03Z</time>
      </trkpt>
      <trkpt lat="48.71706" lon="1.79433">
        <ele>166.6</ele>
        <time>2023-04-27T11:36:05Z</time>
      </trkpt>
      <trkpt lat="48.71709" lon="1.79437">
        <ele>166.6</ele>
        <time>2023-04-27T11:36:07Z</time>
      </trkpt>
      <trkpt lat="48.71711" lon="1.79439">
        <ele>166.6</ele>
        <time>2023-04-27T11:36:08Z</time>
      </trkpt>
      <trkpt lat="48.71714" lon="1.79441">
        <ele>166.6</ele>
        <time>2023-04-27T11:36:09Z</time>
      </trkpt>
      <trkpt lat="48.71717" lon="1.79444">
        <ele>166.4</ele>
        <time>2023-04-27T11:36:10Z</time>
      </trkpt>
      <trkpt lat="48.71721" lon="1.79446">
        <ele>166.4</ele>
        <time>2023-04-27T11:36:11Z</time>
      </trkpt>
      <trkpt lat="48.71724" lon="1.79449">
        <ele>166.4</ele>
        <time>2023-04-27T11:36:12Z</time>
      </trkpt>
      <trkpt lat="48.71728" lon="1.79451">
        <ele>166.4</ele>
        <time>2023-04-27T11:36:13Z</time>
      </trkpt>
      <trkpt lat="48.71732" lon="1.79453">
        <ele>166.4</ele>
        <time>2023-04-27T11:36:14Z</time>
      </trkpt>
      <trkpt lat="48.71735" lon="1.79454">
        <ele>166.4</ele>
        <time>2023-04-27T11:36:15Z</time>
      </trkpt>
      <trkpt lat="48.71737" lon="1.79456">
        <ele>166.2</ele>
        <time>2023-04-27T11:36:16Z</time>
      </trkpt>
      <trkpt lat="48.7174" lon="1.79457">
        <ele>166.2</ele>
        <time>2023-04-27T11:36:17Z</time>
      </trkpt>
      <trkpt lat="48.71741" lon="1.7946">
        <ele>166.2</ele>
        <time>2023-04-27T11:36:19Z</time>
      </trkpt>
      <trkpt lat="48.71743" lon="1.79461">
        <ele>166</ele>
        <time>2023-04-27T11:36:24Z</time>
      </trkpt>
      <trkpt lat="48.71746" lon="1.79461">
        <ele>165.8</ele>
        <time>2023-04-27T11:36:26Z</time>
      </trkpt>
      <trkpt lat="48.71749" lon="1.79461">
        <ele>165.8</ele>
        <time>2023-04-27T11:36:28Z</time>
      </trkpt>
      <trkpt lat="48.71753" lon="1.79461">
        <ele>165.8</ele>
        <time>2023-04-27T11:36:30Z</time>
      </trkpt>
      <trkpt lat="48.71755" lon="1.79462">
        <ele>166</ele>
        <time>2023-04-27T11:36:32Z</time>
      </trkpt>
      <trkpt lat="48.71756" lon="1.79465">
        <ele>166</ele>
        <time>2023-04-27T11:36:38Z</time>
      </trkpt>
      <trkpt lat="48.71757" lon="1.79467">
        <ele>166</ele>
        <time>2023-04-27T11:36:41Z</time>
      </trkpt>
      <trkpt lat="48.71759" lon="1.79467">
        <ele>166.2</ele>
        <time>2023-04-27T11:36:43Z</time>
      </trkpt>
      <trkpt lat="48.71762" lon="1.79468">
        <ele>166.2</ele>
        <time>2023-04-27T11:36:45Z</time>
      </trkpt>
      <trkpt lat="48.71764" lon="1.7947">
        <ele>166.2</ele>
        <time>2023-04-27T11:36:47Z</time>
      </trkpt>
      <trkpt lat="48.71766" lon="1.79472">
        <ele>166.2</ele>
        <time>2023-04-27T11:36:49Z</time>
      </trkpt>
      <trkpt lat="48.71767" lon="1.79474">
        <ele>166.4</ele>
        <time>2023-04-27T11:36:51Z</time>
      </trkpt>
      <trkpt lat="48.7177" lon="1.79475">
        <ele>166.6</ele>
        <time>2023-04-27T11:36:54Z</time>
      </trkpt>
      <trkpt lat="48.71772" lon="1.79476">
        <ele>166.6</ele>
        <time>2023-04-27T11:36:56Z</time>
      </trkpt>
      <trkpt lat="48.71774" lon="1.79477">
        <ele>166.6</ele>
        <time>2023-04-27T11:36:58Z</time>
      </trkpt>
      <trkpt lat="48.71777" lon="1.79478">
        <ele>166.6</ele>
        <time>2023-04-27T11:37:00Z</time>
      </trkpt>
      <trkpt lat="48.71779" lon="1.79478">
        <ele>166.6</ele>
        <time>2023-04-27T11:37:02Z</time>
      </trkpt>
      <trkpt lat="48.71781" lon="1.7948">
        <ele>166.6</ele>
        <time>2023-04-27T11:37:05Z</time>
      </trkpt>
      <trkpt lat="48.71783" lon="1.79481">
        <ele>166.4</ele>
        <time>2023-04-27T11:37:07Z</time>
      </trkpt>
      <trkpt lat="48.71785" lon="1.79484">
        <ele>166.6</ele>
        <time>2023-04-27T11:37:10Z</time>
      </trkpt>
      <trkpt lat="48.71787" lon="1.79487">
        <ele>166.6</ele>
        <time>2023-04-27T11:37:13Z</time>
      </trkpt>
      <trkpt lat="48.71788" lon="1.79489">
        <ele>166.6</ele>
        <time>2023-04-27T11:37:15Z</time>
      </trkpt>
      <trkpt lat="48.71791" lon="1.7949">
        <ele>166.8</ele>
        <time>2023-04-27T11:37:17Z</time>
      </trkpt>
      <trkpt lat="48.71794" lon="1.79491">
        <ele>166.8</ele>
        <time>2023-04-27T11:37:19Z</time>
      </trkpt>
      <trkpt lat="48.71797" lon="1.79492">
        <ele>167</ele>
        <time>2023-04-27T11:37:21Z</time>
      </trkpt>
      <trkpt lat="48.718" lon="1.79494">
        <ele>167.2</ele>
        <time>2023-04-27T11:37:23Z</time>
      </trkpt>
      <trkpt lat="48.71803" lon="1.79495">
        <ele>167.2</ele>
        <time>2023-04-27T11:37:25Z</time>
      </trkpt>
      <trkpt lat="48.71805" lon="1.79496">
        <ele>167.2</ele>
        <time>2023-04-27T11:37:27Z</time>
      </trkpt>
      <trkpt lat="48.71809" lon="1.79498">
        <ele>167.2</ele>
        <time>2023-04-27T11:37:29Z</time>
      </trkpt>
      <trkpt lat="48.71811" lon="1.79499">
        <ele>167.2</ele>
        <time>2023-04-27T11:37:30Z</time>
      </trkpt>
      <trkpt lat="48.71812" lon="1.795">
        <ele>167.2</ele>
        <time>2023-04-27T11:37:31Z</time>
      </trkpt>
      <trkpt lat="48.71814" lon="1.79501">
        <ele>167.4</ele>
        <time>2023-04-27T11:37:32Z</time>
      </trkpt>
      <trkpt lat="48.71816" lon="1.79502">
        <ele>167.4</ele>
        <time>2023-04-27T11:37:33Z</time>
      </trkpt>
      <trkpt lat="48.71818" lon="1.79504">
        <ele>167.4</ele>
        <time>2023-04-27T11:37:34Z</time>
      </trkpt>
      <trkpt lat="48.7182" lon="1.79505">
        <ele>167.4</ele>
        <time>2023-04-27T11:37:35Z</time>
      </trkpt>
      <trkpt lat="48.71822" lon="1.79507">
        <ele>167.4</ele>
        <time>2023-04-27T11:37:36Z</time>
      </trkpt>
      <trkpt lat="48.71823" lon="1.79509">
        <ele>167.4</ele>
        <time>2023-04-27T11:37:37Z</time>
      </trkpt>
      <trkpt lat="48.71825" lon="1.79511">
        <ele>167.4</ele>
        <time>2023-04-27T11:37:38Z</time>
      </trkpt>
      <trkpt lat="48.71827" lon="1.79513">
        <ele>167.4</ele>
        <time>2023-04-27T11:37:39Z</time>
      </trkpt>
      <trkpt lat="48.71829" lon="1.79516">
        <ele>167.2</ele>
        <time>2023-04-27T11:37:41Z</time>
      </trkpt>
      <trkpt lat="48.71831" lon="1.79518">
        <ele>167.2</ele>
        <time>2023-04-27T11:37:43Z</time>
      </trkpt>
      <trkpt lat="48.71833" lon="1.79521">
        <ele>167.2</ele>
        <time>2023-04-27T11:37:45Z</time>
      </trkpt>
      <trkpt lat="48.71835" lon="1.79523">
        <ele>167</ele>
        <time>2023-04-27T11:37:47Z</time>
      </trkpt>
      <trkpt lat="48.71837" lon="1.79525">
        <ele>167.2</ele>
        <time>2023-04-27T11:37:49Z</time>
      </trkpt>
      <trkpt lat="48.71839" lon="1.79528">
        <ele>167.2</ele>
        <time>2023-04-27T11:37:51Z</time>
      </trkpt>
      <trkpt lat="48.71841" lon="1.7953">
        <ele>167.2</ele>
        <time>2023-04-27T11:37:52Z</time>
      </trkpt>
      <trkpt lat="48.71843" lon="1.79532">
        <ele>167.2</ele>
        <time>2023-04-27T11:37:54Z</time>
      </trkpt>
      <trkpt lat="48.71846" lon="1.79533">
        <ele>167.4</ele>
        <time>2023-04-27T11:37:57Z</time>
      </trkpt>
      <trkpt lat="48.71848" lon="1.79533">
        <ele>167.6</ele>
        <time>2023-04-27T11:37:59Z</time>
      </trkpt>
      <trkpt lat="48.71851" lon="1.79534">
        <ele>167.8</ele>
        <time>2023-04-27T11:38:01Z</time>
      </trkpt>
      <trkpt lat="48.71853" lon="1.79535">
        <ele>168</ele>
        <time>2023-04-27T11:38:02Z</time>
      </trkpt>
      <trkpt lat="48.71856" lon="1.79536">
        <ele>168.2</ele>
        <time>2023-04-27T11:38:04Z</time>
      </trkpt>
      <trkpt lat="48.71858" lon="1.79537">
        <ele>168.4</ele>
        <time>2023-04-27T11:38:06Z</time>
      </trkpt>
      <trkpt lat="48.7186" lon="1.79538">
        <ele>168.6</ele>
        <time>2023-04-27T11:38:08Z</time>
      </trkpt>
      <trkpt lat="48.71862" lon="1.79539">
        <ele>169</ele>
        <time>2023-04-27T11:38:10Z</time>
      </trkpt>
      <trkpt lat="48.71864" lon="1.79539">
        <ele>169.2</ele>
        <time>2023-04-27T11:38:12Z</time>
      </trkpt>
      <trkpt lat="48.71866" lon="1.7954">
        <ele>169.6</ele>
        <time>2023-04-27T11:38:14Z</time>
      </trkpt>
      <trkpt lat="48.71868" lon="1.79539">
        <ele>169.8</ele>
        <time>2023-04-27T11:38:16Z</time>
      </trkpt>
      <trkpt lat="48.7187" lon="1.79539">
        <ele>170</ele>
        <time>2023-04-27T11:38:18Z</time>
      </trkpt>
      <trkpt lat="48.71873" lon="1.7954">
        <ele>170.2</ele>
        <time>2023-04-27T11:38:20Z</time>
      </trkpt>
      <trkpt lat="48.71876" lon="1.79542">
        <ele>170.4</ele>
        <time>2023-04-27T11:38:22Z</time>
      </trkpt>
      <trkpt lat="48.71879" lon="1.79544">
        <ele>170.6</ele>
        <time>2023-04-27T11:38:24Z</time>
      </trkpt>
      <trkpt lat="48.71881" lon="1.79546">
        <ele>170.6</ele>
        <time>2023-04-27T11:38:26Z</time>
      </trkpt>
      <trkpt lat="48.71884" lon="1.79547">
        <ele>170.8</ele>
        <time>2023-04-27T11:38:28Z</time>
      </trkpt>
      <trkpt lat="48.71886" lon="1.7955">
        <ele>171</ele>
        <time>2023-04-27T11:38:30Z</time>
      </trkpt>
      <trkpt lat="48.71888" lon="1.79552">
        <ele>171.2</ele>
        <time>2023-04-27T11:38:32Z</time>
      </trkpt>
      <trkpt lat="48.7189" lon="1.79553">
        <ele>171.6</ele>
        <time>2023-04-27T11:38:34Z</time>
      </trkpt>
      <trkpt lat="48.71892" lon="1.79553">
        <ele>171.8</ele>
        <time>2023-04-27T11:38:36Z</time>
      </trkpt>
      <trkpt lat="48.71894" lon="1.79554">
        <ele>172</ele>
        <time>2023-04-27T11:38:38Z</time>
      </trkpt>
      <trkpt lat="48.71897" lon="1.79554">
        <ele>172.2</ele>
        <time>2023-04-27T11:38:40Z</time>
      </trkpt>
      <trkpt lat="48.71899" lon="1.79555">
        <ele>172.6</ele>
        <time>2023-04-27T11:38:42Z</time>
      </trkpt>
      <trkpt lat="48.71902" lon="1.79556">
        <ele>172.8</ele>
        <time>2023-04-27T11:38:44Z</time>
      </trkpt>
      <trkpt lat="48.71904" lon="1.79557">
        <ele>173</ele>
        <time>2023-04-27T11:38:46Z</time>
      </trkpt>
      <trkpt lat="48.71907" lon="1.79558">
        <ele>173.2</ele>
        <time>2023-04-27T11:38:48Z</time>
      </trkpt>
      <trkpt lat="48.71909" lon="1.7956">
        <ele>173.4</ele>
        <time>2023-04-27T11:38:50Z</time>
      </trkpt>
      <trkpt lat="48.71911" lon="1.79562">
        <ele>173.6</ele>
        <time>2023-04-27T11:38:52Z</time>
      </trkpt>
      <trkpt lat="48.71914" lon="1.79565">
        <ele>173.8</ele>
        <time>2023-04-27T11:38:54Z</time>
      </trkpt>
      <trkpt lat="48.71916" lon="1.79567">
        <ele>174</ele>
        <time>2023-04-27T11:38:56Z</time>
      </trkpt>
      <trkpt lat="48.71918" lon="1.79569">
        <ele>174</ele>
        <time>2023-04-27T11:38:57Z</time>
      </trkpt>
      <trkpt lat="48.71919" lon="1.7957">
        <ele>174</ele>
        <time>2023-04-27T11:38:58Z</time>
      </trkpt>
      <trkpt lat="48.71922" lon="1.79573">
        <ele>174.2</ele>
        <time>2023-04-27T11:39:00Z</time>
      </trkpt>
      <trkpt lat="48.71925" lon="1.79575">
        <ele>174.2</ele>
        <time>2023-04-27T11:39:02Z</time>
      </trkpt>
      <trkpt lat="48.71928" lon="1.79576">
        <ele>174.2</ele>
        <time>2023-04-27T11:39:04Z</time>
      </trkpt>
      <trkpt lat="48.71931" lon="1.79577">
        <ele>174.2</ele>
        <time>2023-04-27T11:39:06Z</time>
      </trkpt>
      <trkpt lat="48.71933" lon="1.79579">
        <ele>174.4</ele>
        <time>2023-04-27T11:39:08Z</time>
      </trkpt>
      <trkpt lat="48.71936" lon="1.79581">
        <ele>174.6</ele>
        <time>2023-04-27T11:39:10Z</time>
      </trkpt>
      <trkpt lat="48.71938" lon="1.79583">
        <ele>174.8</ele>
        <time>2023-04-27T11:39:12Z</time>
      </trkpt>
      <trkpt lat="48.7194" lon="1.79584">
        <ele>175.2</ele>
        <time>2023-04-27T11:39:14Z</time>
      </trkpt>
      <trkpt lat="48.71943" lon="1.79586">
        <ele>175.4</ele>
        <time>2023-04-27T11:39:16Z</time>
      </trkpt>
      <trkpt lat="48.71946" lon="1.79588">
        <ele>175.6</ele>
        <time>2023-04-27T11:39:18Z</time>
      </trkpt>
      <trkpt lat="48.71949" lon="1.7959">
        <ele>175.6</ele>
        <time>2023-04-27T11:39:20Z</time>
      </trkpt>
      <trkpt lat="48.71952" lon="1.79592">
        <ele>176</ele>
        <time>2023-04-27T11:39:22Z</time>
      </trkpt>
      <trkpt lat="48.71954" lon="1.79593">
        <ele>176.2</ele>
        <time>2023-04-27T11:39:24Z</time>
      </trkpt>
      <trkpt lat="48.71956" lon="1.79595">
        <ele>176.4</ele>
        <time>2023-04-27T11:39:26Z</time>
      </trkpt>
      <trkpt lat="48.71959" lon="1.79596">
        <ele>176.6</ele>
        <time>2023-04-27T11:39:28Z</time>
      </trkpt>
      <trkpt lat="48.71962" lon="1.79598">
        <ele>177</ele>
        <time>2023-04-27T11:39:30Z</time>
      </trkpt>
      <trkpt lat="48.71964" lon="1.796">
        <ele>177.2</ele>
        <time>2023-04-27T11:39:32Z</time>
      </trkpt>
      <trkpt lat="48.71966" lon="1.79603">
        <ele>177.4</ele>
        <time>2023-04-27T11:39:34Z</time>
      </trkpt>
      <trkpt lat="48.71969" lon="1.79604">
        <ele>177.4</ele>
        <time>2023-04-27T11:39:36Z</time>
      </trkpt>
      <trkpt lat="48.71971" lon="1.79605">
        <ele>177.6</ele>
        <time>2023-04-27T11:39:38Z</time>
      </trkpt>
      <trkpt lat="48.71973" lon="1.79606">
        <ele>177.6</ele>
        <time>2023-04-27T11:39:40Z</time>
      </trkpt>
      <trkpt lat="48.71975" lon="1.79606">
        <ele>177.8</ele>
        <time>2023-04-27T11:39:42Z</time>
      </trkpt>
      <trkpt lat="48.71977" lon="1.79607">
        <ele>178</ele>
        <time>2023-04-27T11:39:44Z</time>
      </trkpt>
      <trkpt lat="48.7198" lon="1.79609">
        <ele>178</ele>
        <time>2023-04-27T11:39:46Z</time>
      </trkpt>
      <trkpt lat="48.71982" lon="1.79611">
        <ele>178</ele>
        <time>2023-04-27T11:39:48Z</time>
      </trkpt>
      <trkpt lat="48.71984" lon="1.79613">
        <ele>178</ele>
        <time>2023-04-27T11:39:49Z</time>
      </trkpt>
      <trkpt lat="48.71985" lon="1.79614">
        <ele>178</ele>
        <time>2023-04-27T11:39:50Z</time>
      </trkpt>
      <trkpt lat="48.71987" lon="1.79615">
        <ele>178</ele>
        <time>2023-04-27T11:39:51Z</time>
      </trkpt>
      <trkpt lat="48.71989" lon="1.79618">
        <ele>178</ele>
        <time>2023-04-27T11:39:53Z</time>
      </trkpt>
      <trkpt lat="48.71992" lon="1.79619">
        <ele>178</ele>
        <time>2023-04-27T11:39:55Z</time>
      </trkpt>
      <trkpt lat="48.71995" lon="1.7962">
        <ele>178</ele>
        <time>2023-04-27T11:39:57Z</time>
      </trkpt>
      <trkpt lat="48.71997" lon="1.79621">
        <ele>178.2</ele>
        <time>2023-04-27T11:39:59Z</time>
      </trkpt>
      <trkpt lat="48.71999" lon="1.79623">
        <ele>178.2</ele>
        <time>2023-04-27T11:40:01Z</time>
      </trkpt>
      <trkpt lat="48.72002" lon="1.79624">
        <ele>178.4</ele>
        <time>2023-04-27T11:40:03Z</time>
      </trkpt>
      <trkpt lat="48.72004" lon="1.79625">
        <ele>178.4</ele>
        <time>2023-04-27T11:40:05Z</time>
      </trkpt>
      <trkpt lat="48.72006" lon="1.79627">
        <ele>178.4</ele>
        <time>2023-04-27T11:40:07Z</time>
      </trkpt>
      <trkpt lat="48.72008" lon="1.79628">
        <ele>178.4</ele>
        <time>2023-04-27T11:40:09Z</time>
      </trkpt>
      <trkpt lat="48.72011" lon="1.7963">
        <ele>178.4</ele>
        <time>2023-04-27T11:40:11Z</time>
      </trkpt>
      <trkpt lat="48.72013" lon="1.79631">
        <ele>178.6</ele>
        <time>2023-04-27T11:40:12Z</time>
      </trkpt>
      <trkpt lat="48.72016" lon="1.79634">
        <ele>178.6</ele>
        <time>2023-04-27T11:40:14Z</time>
      </trkpt>
      <trkpt lat="48.72018" lon="1.79635">
        <ele>178.6</ele>
        <time>2023-04-27T11:40:15Z</time>
      </trkpt>
      <trkpt lat="48.7202" lon="1.79637">
        <ele>178.6</ele>
        <time>2023-04-27T11:40:16Z</time>
      </trkpt>
      <trkpt lat="48.72023" lon="1.79639">
        <ele>178.6</ele>
        <time>2023-04-27T11:40:18Z</time>
      </trkpt>
      <trkpt lat="48.72025" lon="1.7964">
        <ele>178.8</ele>
        <time>2023-04-27T11:40:20Z</time>
      </trkpt>
      <trkpt lat="48.72028" lon="1.7964">
        <ele>179</ele>
        <time>2023-04-27T11:40:22Z</time>
      </trkpt>
      <trkpt lat="48.72031" lon="1.7964">
        <ele>179.2</ele>
        <time>2023-04-27T11:40:24Z</time>
      </trkpt>
      <trkpt lat="48.72034" lon="1.79641">
        <ele>179.4</ele>
        <time>2023-04-27T11:40:26Z</time>
      </trkpt>
      <trkpt lat="48.72036" lon="1.79643">
        <ele>179.4</ele>
        <time>2023-04-27T11:40:28Z</time>
      </trkpt>
      <trkpt lat="48.72039" lon="1.79646">
        <ele>179.4</ele>
        <time>2023-04-27T11:40:30Z</time>
      </trkpt>
      <trkpt lat="48.72041" lon="1.79649">
        <ele>179.6</ele>
        <time>2023-04-27T11:40:32Z</time>
      </trkpt>
      <trkpt lat="48.72043" lon="1.79651">
        <ele>179.6</ele>
        <time>2023-04-27T11:40:33Z</time>
      </trkpt>
      <trkpt lat="48.72045" lon="1.79653">
        <ele>180</ele>
        <time>2023-04-27T11:40:35Z</time>
      </trkpt>
      <trkpt lat="48.72048" lon="1.79655">
        <ele>180.2</ele>
        <time>2023-04-27T11:40:37Z</time>
      </trkpt>
      <trkpt lat="48.72051" lon="1.79656">
        <ele>180.4</ele>
        <time>2023-04-27T11:40:39Z</time>
      </trkpt>
      <trkpt lat="48.72053" lon="1.79659">
        <ele>180.4</ele>
        <time>2023-04-27T11:40:41Z</time>
      </trkpt>
      <trkpt lat="48.72055" lon="1.7966">
        <ele>180.4</ele>
        <time>2023-04-27T11:40:42Z</time>
      </trkpt>
      <trkpt lat="48.72057" lon="1.79662">
        <ele>180.4</ele>
        <time>2023-04-27T11:40:43Z</time>
      </trkpt>
      <trkpt lat="48.72058" lon="1.79663">
        <ele>180.4</ele>
        <time>2023-04-27T11:40:44Z</time>
      </trkpt>
      <trkpt lat="48.72061" lon="1.79667">
        <ele>180.4</ele>
        <time>2023-04-27T11:40:46Z</time>
      </trkpt>
      <trkpt lat="48.72062" lon="1.79668">
        <ele>180.4</ele>
        <time>2023-04-27T11:40:47Z</time>
      </trkpt>
      <trkpt lat="48.72065" lon="1.7967">
        <ele>180.6</ele>
        <time>2023-04-27T11:40:49Z</time>
      </trkpt>
      <trkpt lat="48.72067" lon="1.79671">
        <ele>180.4</ele>
        <time>2023-04-27T11:40:51Z</time>
      </trkpt>
      <trkpt lat="48.72068" lon="1.79674">
        <ele>180.4</ele>
        <time>2023-04-27T11:40:54Z</time>
      </trkpt>
      <trkpt lat="48.72069" lon="1.79678">
        <ele>180.2</ele>
        <time>2023-04-27T11:40:57Z</time>
      </trkpt>
      <trkpt lat="48.72071" lon="1.7968">
        <ele>180.2</ele>
        <time>2023-04-27T11:40:59Z</time>
      </trkpt>
      <trkpt lat="48.72074" lon="1.79682">
        <ele>180.2</ele>
        <time>2023-04-27T11:41:01Z</time>
      </trkpt>
      <trkpt lat="48.72076" lon="1.79684">
        <ele>180.2</ele>
        <time>2023-04-27T11:41:03Z</time>
      </trkpt>
      <trkpt lat="48.72079" lon="1.79685">
        <ele>180</ele>
        <time>2023-04-27T11:41:05Z</time>
      </trkpt>
      <trkpt lat="48.72082" lon="1.79686">
        <ele>180</ele>
        <time>2023-04-27T11:41:07Z</time>
      </trkpt>
      <trkpt lat="48.72084" lon="1.79687">
        <ele>179.8</ele>
        <time>2023-04-27T11:41:08Z</time>
      </trkpt>
      <trkpt lat="48.72087" lon="1.79688">
        <ele>179.8</ele>
        <time>2023-04-27T11:41:10Z</time>
      </trkpt>
      <trkpt lat="48.72089" lon="1.79689">
        <ele>179.6</ele>
        <time>2023-04-27T11:41:12Z</time>
      </trkpt>
      <trkpt lat="48.72092" lon="1.79689">
        <ele>179.4</ele>
        <time>2023-04-27T11:41:14Z</time>
      </trkpt>
      <trkpt lat="48.72095" lon="1.79689">
        <ele>179.2</ele>
        <time>2023-04-27T11:41:16Z</time>
      </trkpt>
      <trkpt lat="48.72099" lon="1.79691">
        <ele>179</ele>
        <time>2023-04-27T11:41:18Z</time>
      </trkpt>
      <trkpt lat="48.72102" lon="1.79693">
        <ele>178.6</ele>
        <time>2023-04-27T11:41:20Z</time>
      </trkpt>
      <trkpt lat="48.72105" lon="1.79695">
        <ele>178.4</ele>
        <time>2023-04-27T11:41:22Z</time>
      </trkpt>
      <trkpt lat="48.72107" lon="1.79696">
        <ele>178.2</ele>
        <time>2023-04-27T11:41:23Z</time>
      </trkpt>
      <trkpt lat="48.72109" lon="1.79697">
        <ele>178.2</ele>
        <time>2023-04-27T11:41:24Z</time>
      </trkpt>
      <trkpt lat="48.72111" lon="1.79699">
        <ele>178.2</ele>
        <time>2023-04-27T11:41:25Z</time>
      </trkpt>
      <trkpt lat="48.72112" lon="1.797">
        <ele>178.2</ele>
        <time>2023-04-27T11:41:26Z</time>
      </trkpt>
      <trkpt lat="48.72115" lon="1.79703">
        <ele>178.2</ele>
        <time>2023-04-27T11:41:28Z</time>
      </trkpt>
      <trkpt lat="48.72117" lon="1.79705">
        <ele>178.2</ele>
        <time>2023-04-27T11:41:30Z</time>
      </trkpt>
      <trkpt lat="48.72119" lon="1.79707">
        <ele>178.4</ele>
        <time>2023-04-27T11:41:32Z</time>
      </trkpt>
      <trkpt lat="48.72122" lon="1.7971">
        <ele>178.6</ele>
        <time>2023-04-27T11:41:34Z</time>
      </trkpt>
      <trkpt lat="48.72124" lon="1.79711">
        <ele>178.8</ele>
        <time>2023-04-27T11:41:36Z</time>
      </trkpt>
      <trkpt lat="48.72127" lon="1.79713">
        <ele>179</ele>
        <time>2023-04-27T11:41:38Z</time>
      </trkpt>
      <trkpt lat="48.7213" lon="1.79713">
        <ele>179.2</ele>
        <time>2023-04-27T11:41:40Z</time>
      </trkpt>
      <trkpt lat="48.72132" lon="1.79714">
        <ele>179.4</ele>
        <time>2023-04-27T11:41:42Z</time>
      </trkpt>
      <trkpt lat="48.72135" lon="1.79715">
        <ele>179.6</ele>
        <time>2023-04-27T11:41:44Z</time>
      </trkpt>
      <trkpt lat="48.72138" lon="1.79718">
        <ele>179.6</ele>
        <time>2023-04-27T11:41:46Z</time>
      </trkpt>
      <trkpt lat="48.7214" lon="1.7972">
        <ele>179.8</ele>
        <time>2023-04-27T11:41:47Z</time>
      </trkpt>
      <trkpt lat="48.72141" lon="1.79722">
        <ele>179.8</ele>
        <time>2023-04-27T11:41:48Z</time>
      </trkpt>
      <trkpt lat="48.72142" lon="1.79724">
        <ele>179.8</ele>
        <time>2023-04-27T11:41:49Z</time>
      </trkpt>
      <trkpt lat="48.72144" lon="1.79727">
        <ele>179.8</ele>
        <time>2023-04-27T11:41:50Z</time>
      </trkpt>
      <trkpt lat="48.72145" lon="1.79729">
        <ele>180</ele>
        <time>2023-04-27T11:41:51Z</time>
      </trkpt>
      <trkpt lat="48.72146" lon="1.79731">
        <ele>180</ele>
        <time>2023-04-27T11:41:52Z</time>
      </trkpt>
      <trkpt lat="48.72148" lon="1.79733">
        <ele>180</ele>
        <time>2023-04-27T11:41:53Z</time>
      </trkpt>
      <trkpt lat="48.7215" lon="1.79735">
        <ele>180.2</ele>
        <time>2023-04-27T11:41:55Z</time>
      </trkpt>
      <trkpt lat="48.72153" lon="1.79736">
        <ele>180.6</ele>
        <time>2023-04-27T11:41:57Z</time>
      </trkpt>
      <trkpt lat="48.72156" lon="1.79736">
        <ele>180.8</ele>
        <time>2023-04-27T11:41:59Z</time>
      </trkpt>
      <trkpt lat="48.72158" lon="1.79737">
        <ele>181</ele>
        <time>2023-04-27T11:42:01Z</time>
      </trkpt>
      <trkpt lat="48.7216" lon="1.79739">
        <ele>181.2</ele>
        <time>2023-04-27T11:42:03Z</time>
      </trkpt>
      <trkpt lat="48.72163" lon="1.79741">
        <ele>181.6</ele>
        <time>2023-04-27T11:42:05Z</time>
      </trkpt>
      <trkpt lat="48.72165" lon="1.79742">
        <ele>181.8</ele>
        <time>2023-04-27T11:42:07Z</time>
      </trkpt>
      <trkpt lat="48.72168" lon="1.79743">
        <ele>182</ele>
        <time>2023-04-27T11:42:09Z</time>
      </trkpt>
      <trkpt lat="48.72171" lon="1.79745">
        <ele>182.2</ele>
        <time>2023-04-27T11:42:11Z</time>
      </trkpt>
      <trkpt lat="48.72173" lon="1.79747">
        <ele>182.2</ele>
        <time>2023-04-27T11:42:13Z</time>
      </trkpt>
      <trkpt lat="48.72176" lon="1.79748">
        <ele>182.2</ele>
        <time>2023-04-27T11:42:15Z</time>
      </trkpt>
      <trkpt lat="48.72178" lon="1.79749">
        <ele>182.2</ele>
        <time>2023-04-27T11:42:17Z</time>
      </trkpt>
      <trkpt lat="48.72181" lon="1.79749">
        <ele>182.2</ele>
        <time>2023-04-27T11:42:19Z</time>
      </trkpt>
      <trkpt lat="48.72184" lon="1.79749">
        <ele>182.2</ele>
        <time>2023-04-27T11:42:21Z</time>
      </trkpt>
      <trkpt lat="48.72187" lon="1.79751">
        <ele>182.2</ele>
        <time>2023-04-27T11:42:23Z</time>
      </trkpt>
      <trkpt lat="48.72188" lon="1.79753">
        <ele>182.2</ele>
        <time>2023-04-27T11:42:25Z</time>
      </trkpt>
      <trkpt lat="48.7219" lon="1.79756">
        <ele>182.2</ele>
        <time>2023-04-27T11:42:27Z</time>
      </trkpt>
      <trkpt lat="48.72194" lon="1.79759">
        <ele>182.2</ele>
        <time>2023-04-27T11:42:30Z</time>
      </trkpt>
      <trkpt lat="48.72196" lon="1.7976">
        <ele>182.4</ele>
        <time>2023-04-27T11:42:32Z</time>
      </trkpt>
      <trkpt lat="48.72199" lon="1.7976">
        <ele>182.4</ele>
        <time>2023-04-27T11:42:34Z</time>
      </trkpt>
      <trkpt lat="48.72202" lon="1.7976">
        <ele>182.4</ele>
        <time>2023-04-27T11:42:36Z</time>
      </trkpt>
      <trkpt lat="48.72205" lon="1.79761">
        <ele>182.4</ele>
        <time>2023-04-27T11:42:38Z</time>
      </trkpt>
      <trkpt lat="48.72209" lon="1.79762">
        <ele>182.4</ele>
        <time>2023-04-27T11:42:40Z</time>
      </trkpt>
      <trkpt lat="48.72212" lon="1.79764">
        <ele>182.4</ele>
        <time>2023-04-27T11:42:42Z</time>
      </trkpt>
      <trkpt lat="48.72214" lon="1.79766">
        <ele>182.4</ele>
        <time>2023-04-27T11:42:44Z</time>
      </trkpt>
      <trkpt lat="48.72217" lon="1.79768">
        <ele>182.4</ele>
        <time>2023-04-27T11:42:46Z</time>
      </trkpt>
      <trkpt lat="48.7222" lon="1.79769">
        <ele>182.4</ele>
        <time>2023-04-27T11:42:48Z</time>
      </trkpt>
      <trkpt lat="48.72222" lon="1.7977">
        <ele>182.4</ele>
        <time>2023-04-27T11:42:49Z</time>
      </trkpt>
      <trkpt lat="48.72224" lon="1.79773">
        <ele>182.4</ele>
        <time>2023-04-27T11:42:51Z</time>
      </trkpt>
      <trkpt lat="48.72226" lon="1.79776">
        <ele>182.4</ele>
        <time>2023-04-27T11:42:53Z</time>
      </trkpt>
      <trkpt lat="48.72228" lon="1.79778">
        <ele>182.4</ele>
        <time>2023-04-27T11:42:55Z</time>
      </trkpt>
      <trkpt lat="48.72231" lon="1.79779">
        <ele>182.4</ele>
        <time>2023-04-27T11:42:57Z</time>
      </trkpt>
      <trkpt lat="48.72234" lon="1.79781">
        <ele>182.2</ele>
        <time>2023-04-27T11:42:59Z</time>
      </trkpt>
      <trkpt lat="48.72236" lon="1.79782">
        <ele>182.2</ele>
        <time>2023-04-27T11:43:01Z</time>
      </trkpt>
      <trkpt lat="48.72239" lon="1.79783">
        <ele>182.2</ele>
        <time>2023-04-27T11:43:03Z</time>
      </trkpt>
      <trkpt lat="48.72241" lon="1.79784">
        <ele>182.2</ele>
        <time>2023-04-27T11:43:05Z</time>
      </trkpt>
      <trkpt lat="48.72243" lon="1.79786">
        <ele>182.2</ele>
        <time>2023-04-27T11:43:07Z</time>
      </trkpt>
      <trkpt lat="48.72244" lon="1.79789">
        <ele>182.2</ele>
        <time>2023-04-27T11:43:10Z</time>
      </trkpt>
      <trkpt lat="48.72246" lon="1.79791">
        <ele>182</ele>
        <time>2023-04-27T11:43:13Z</time>
      </trkpt>
      <trkpt lat="48.7225" lon="1.79793">
        <ele>182</ele>
        <time>2023-04-27T11:43:15Z</time>
      </trkpt>
      <trkpt lat="48.72252" lon="1.79794">
        <ele>181.8</ele>
        <time>2023-04-27T11:43:16Z</time>
      </trkpt>
      <trkpt lat="48.72253" lon="1.79795">
        <ele>181.8</ele>
        <time>2023-04-27T11:43:17Z</time>
      </trkpt>
      <trkpt lat="48.72255" lon="1.79797">
        <ele>181.8</ele>
        <time>2023-04-27T11:43:18Z</time>
      </trkpt>
      <trkpt lat="48.72258" lon="1.79799">
        <ele>181.8</ele>
        <time>2023-04-27T11:43:19Z</time>
      </trkpt>
      <trkpt lat="48.72259" lon="1.79801">
        <ele>181.8</ele>
        <time>2023-04-27T11:43:20Z</time>
      </trkpt>
      <trkpt lat="48.72261" lon="1.79802">
        <ele>181.8</ele>
        <time>2023-04-27T11:43:21Z</time>
      </trkpt>
      <trkpt lat="48.72263" lon="1.79804">
        <ele>181.8</ele>
        <time>2023-04-27T11:43:23Z</time>
      </trkpt>
      <trkpt lat="48.72266" lon="1.79806">
        <ele>181.8</ele>
        <time>2023-04-27T11:43:25Z</time>
      </trkpt>
      <trkpt lat="48.72269" lon="1.79808">
        <ele>181.8</ele>
        <time>2023-04-27T11:43:27Z</time>
      </trkpt>
      <trkpt lat="48.72272" lon="1.79811">
        <ele>182</ele>
        <time>2023-04-27T11:43:29Z</time>
      </trkpt>
      <trkpt lat="48.72273" lon="1.79813">
        <ele>182</ele>
        <time>2023-04-27T11:43:30Z</time>
      </trkpt>
      <trkpt lat="48.72275" lon="1.79815">
        <ele>182.2</ele>
        <time>2023-04-27T11:43:32Z</time>
      </trkpt>
      <trkpt lat="48.72277" lon="1.79817">
        <ele>182.4</ele>
        <time>2023-04-27T11:43:34Z</time>
      </trkpt>
      <trkpt lat="48.72279" lon="1.79818">
        <ele>182.4</ele>
        <time>2023-04-27T11:43:36Z</time>
      </trkpt>
      <trkpt lat="48.72283" lon="1.7982">
        <ele>182.4</ele>
        <time>2023-04-27T11:43:38Z</time>
      </trkpt>
      <trkpt lat="48.72286" lon="1.79822">
        <ele>182.4</ele>
        <time>2023-04-27T11:43:40Z</time>
      </trkpt>
      <trkpt lat="48.72289" lon="1.79824">
        <ele>182.4</ele>
        <time>2023-04-27T11:43:42Z</time>
      </trkpt>
      <trkpt lat="48.72291" lon="1.79824">
        <ele>182.2</ele>
        <time>2023-04-27T11:43:43Z</time>
      </trkpt>
      <trkpt lat="48.72293" lon="1.79825">
        <ele>182.2</ele>
        <time>2023-04-27T11:43:44Z</time>
      </trkpt>
      <trkpt lat="48.72295" lon="1.79825">
        <ele>182.2</ele>
        <time>2023-04-27T11:43:45Z</time>
      </trkpt>
      <trkpt lat="48.72298" lon="1.79825">
        <ele>182</ele>
        <time>2023-04-27T11:43:46Z</time>
      </trkpt>
      <trkpt lat="48.723" lon="1.79825">
        <ele>182</ele>
        <time>2023-04-27T11:43:47Z</time>
      </trkpt>
      <trkpt lat="48.72301" lon="1.79825">
        <ele>182</ele>
        <time>2023-04-27T11:43:48Z</time>
      </trkpt>
      <trkpt lat="48.72303" lon="1.79825">
        <ele>182</ele>
        <time>2023-04-27T11:43:49Z</time>
      </trkpt>
      <trkpt lat="48.72305" lon="1.79825">
        <ele>182</ele>
        <time>2023-04-27T11:43:50Z</time>
      </trkpt>
      <trkpt lat="48.72308" lon="1.79826">
        <ele>182</ele>
        <time>2023-04-27T11:43:52Z</time>
      </trkpt>
      <trkpt lat="48.72311" lon="1.79828">
        <ele>182</ele>
        <time>2023-04-27T11:43:54Z</time>
      </trkpt>
      <trkpt lat="48.72313" lon="1.7983">
        <ele>182</ele>
        <time>2023-04-27T11:43:56Z</time>
      </trkpt>
      <trkpt lat="48.72315" lon="1.79833">
        <ele>182.2</ele>
        <time>2023-04-27T11:43:59Z</time>
      </trkpt>
      <trkpt lat="48.72317" lon="1.79835">
        <ele>182.4</ele>
        <time>2023-04-27T11:44:01Z</time>
      </trkpt>
      <trkpt lat="48.7232" lon="1.79837">
        <ele>182.6</ele>
        <time>2023-04-27T11:44:03Z</time>
      </trkpt>
      <trkpt lat="48.72323" lon="1.7984">
        <ele>182.6</ele>
        <time>2023-04-27T11:44:05Z</time>
      </trkpt>
      <trkpt lat="48.72326" lon="1.79842">
        <ele>182.6</ele>
        <time>2023-04-27T11:44:07Z</time>
      </trkpt>
      <trkpt lat="48.72329" lon="1.79844">
        <ele>182.6</ele>
        <time>2023-04-27T11:44:09Z</time>
      </trkpt>
      <trkpt lat="48.72331" lon="1.79847">
        <ele>182.6</ele>
        <time>2023-04-27T11:44:11Z</time>
      </trkpt>
      <trkpt lat="48.72333" lon="1.79848">
        <ele>182.4</ele>
        <time>2023-04-27T11:44:13Z</time>
      </trkpt>
      <trkpt lat="48.72336" lon="1.7985">
        <ele>182.4</ele>
        <time>2023-04-27T11:44:15Z</time>
      </trkpt>
      <trkpt lat="48.72339" lon="1.79852">
        <ele>182.4</ele>
        <time>2023-04-27T11:44:17Z</time>
      </trkpt>
      <trkpt lat="48.72341" lon="1.79855">
        <ele>182.4</ele>
        <time>2023-04-27T11:44:19Z</time>
      </trkpt>
      <trkpt lat="48.72344" lon="1.79857">
        <ele>182.4</ele>
        <time>2023-04-27T11:44:21Z</time>
      </trkpt>
      <trkpt lat="48.72347" lon="1.7986">
        <ele>182.2</ele>
        <time>2023-04-27T11:44:23Z</time>
      </trkpt>
      <trkpt lat="48.72349" lon="1.79864">
        <ele>182.2</ele>
        <time>2023-04-27T11:44:25Z</time>
      </trkpt>
      <trkpt lat="48.72351" lon="1.79866">
        <ele>182.2</ele>
        <time>2023-04-27T11:44:27Z</time>
      </trkpt>
      <trkpt lat="48.72353" lon="1.79867">
        <ele>182.2</ele>
        <time>2023-04-27T11:44:29Z</time>
      </trkpt>
      <trkpt lat="48.72355" lon="1.79868">
        <ele>182.2</ele>
        <time>2023-04-27T11:44:31Z</time>
      </trkpt>
      <trkpt lat="48.72358" lon="1.79869">
        <ele>182.2</ele>
        <time>2023-04-27T11:44:33Z</time>
      </trkpt>
      <trkpt lat="48.72361" lon="1.79871">
        <ele>182.2</ele>
        <time>2023-04-27T11:44:35Z</time>
      </trkpt>
      <trkpt lat="48.72363" lon="1.79873">
        <ele>182.2</ele>
        <time>2023-04-27T11:44:37Z</time>
      </trkpt>
      <trkpt lat="48.72367" lon="1.79875">
        <ele>182.2</ele>
        <time>2023-04-27T11:44:39Z</time>
      </trkpt>
      <trkpt lat="48.7237" lon="1.79876">
        <ele>182.2</ele>
        <time>2023-04-27T11:44:41Z</time>
      </trkpt>
      <trkpt lat="48.72373" lon="1.79877">
        <ele>182</ele>
        <time>2023-04-27T11:44:43Z</time>
      </trkpt>
      <trkpt lat="48.72375" lon="1.79879">
        <ele>182</ele>
        <time>2023-04-27T11:44:45Z</time>
      </trkpt>
      <trkpt lat="48.72377" lon="1.79881">
        <ele>181.8</ele>
        <time>2023-04-27T11:44:46Z</time>
      </trkpt>
      <trkpt lat="48.72379" lon="1.79882">
        <ele>181.6</ele>
        <time>2023-04-27T11:44:47Z</time>
      </trkpt>
      <trkpt lat="48.7238" lon="1.79884">
        <ele>181.6</ele>
        <time>2023-04-27T11:44:48Z</time>
      </trkpt>
      <trkpt lat="48.72382" lon="1.79886">
        <ele>181.4</ele>
        <time>2023-04-27T11:44:49Z</time>
      </trkpt>
      <trkpt lat="48.72385" lon="1.79889">
        <ele>181.2</ele>
        <time>2023-04-27T11:44:51Z</time>
      </trkpt>
      <trkpt lat="48.72387" lon="1.7989">
        <ele>181</ele>
        <time>2023-04-27T11:44:52Z</time>
      </trkpt>
      <trkpt lat="48.72389" lon="1.79892">
        <ele>181</ele>
        <time>2023-04-27T11:44:53Z</time>
      </trkpt>
      <trkpt lat="48.72392" lon="1.79894">
        <ele>180.8</ele>
        <time>2023-04-27T11:44:55Z</time>
      </trkpt>
      <trkpt lat="48.72395" lon="1.79896">
        <ele>180.6</ele>
        <time>2023-04-27T11:44:57Z</time>
      </trkpt>
      <trkpt lat="48.72398" lon="1.79898">
        <ele>180.6</ele>
        <time>2023-04-27T11:44:59Z</time>
      </trkpt>
      <trkpt lat="48.724" lon="1.799">
        <ele>180.6</ele>
        <time>2023-04-27T11:45:01Z</time>
      </trkpt>
      <trkpt lat="48.72401" lon="1.79902">
        <ele>180.6</ele>
        <time>2023-04-27T11:45:03Z</time>
      </trkpt>
      <trkpt lat="48.72403" lon="1.79904">
        <ele>180.6</ele>
        <time>2023-04-27T11:45:05Z</time>
      </trkpt>
      <trkpt lat="48.72406" lon="1.79906">
        <ele>180.6</ele>
        <time>2023-04-27T11:45:07Z</time>
      </trkpt>
      <trkpt lat="48.72409" lon="1.79907">
        <ele>180.6</ele>
        <time>2023-04-27T11:45:09Z</time>
      </trkpt>
      <trkpt lat="48.72411" lon="1.79908">
        <ele>180.6</ele>
        <time>2023-04-27T11:45:10Z</time>
        <extensions>
          <gpxtpx:TrackPointExtension xmlns:gpxtpx="http://www.garmin.com/xmlschemas/TrackPointExtension/v1">
            <gpxtpx:hr>96</gpxtpx:hr>
          </gpxtpx:TrackPointExtension>
        </extensions>
      </trkpt>
      <trkpt lat="48.72414" lon="1.79909">
        <ele>180.6</ele>
        <time>2023-04-27T11:45:12Z</time>
        <extensions>
          <gpxtpx:TrackPointExtension xmlns:gpxtpx="http://www.garmin.com/xmlschemas/TrackPointExtension/v1">
            <gpxtpx:hr>96</gpxtpx:hr>
          </gpxtpx:TrackPointExtension>
        </extensions>
      </trkpt>
      <trkpt lat="48.72416" lon="1.7991">
        <ele>180.8</ele>
        <time>2023-04-27T11:45:14Z</time>
        <extensions>
          <gpxtpx:TrackPointExtension xmlns:gpxtpx="http://www.garmin.com/xmlschemas/TrackPointExtension/v1">
            <gpxtpx:hr>96</gpxtpx:hr>
          </gpxtpx:TrackPointExtension>
        </extensions>
      </trkpt>
      <trkpt lat="48.72419" lon="1.79911">
        <ele>180.8</ele>
        <time>2023-04-27T11:45:16Z</time>
        <extensions>
          <gpxtpx:TrackPointExtension xmlns:gpxtpx="http://www.garmin.com/xmlschemas/TrackPointExtension/v1">
            <gpxtpx:hr>96</gpxtpx:hr>
          </gpxtpx:TrackPointExtension>
        </extensions>
      </trkpt>
      <trkpt lat="48.7242" lon="1.79913">
        <ele>180.8</ele>
        <time>2023-04-27T11:45:17Z</time>
        <extensions>
          <gpxtpx:TrackPointExtension xmlns:gpxtpx="http://www.garmin.com/xmlschemas/TrackPointExtension/v1">
            <gpxtpx:hr>96</gpxtpx:hr>
          </gpxtpx:TrackPointExtension>
        </extensions>
      </trkpt>
      <trkpt lat="48.72422" lon="1.79915">
        <ele>181</ele>
        <time>2023-04-27T11:45:18Z</time>
        <extensions>
          <gpxtpx:TrackPointExtension xmlns:gpxtpx="http://www.garmin.com/xmlschemas/TrackPointExtension/v1">
            <gpxtpx:hr>96</gpxtpx:hr>
          </gpxtpx:TrackPointExtension>
        </extensions>
      </trkpt>
      <trkpt lat="48.72424" lon="1.79917">
        <ele>181</ele>
        <time>2023-04-27T11:45:19Z</time>
        <extensions>
          <gpxtpx:TrackPointExtension xmlns:gpxtpx="http://www.garmin.com/xmlschemas/TrackPointExtension/v1">
            <gpxtpx:hr>96</gpxtpx:hr>
          </gpxtpx:TrackPointExtension>
        </extensions>
      </trkpt>
      <trkpt lat="48.72425" lon="1.79919">
        <ele>181.2</ele>
        <time>2023-04-27T11:45:20Z</time>
        <extensions>
          <gpxtpx:TrackPointExtension xmlns:gpxtpx="http://www.garmin.com/xmlschemas/TrackPointExtension/v1">
            <gpxtpx:hr>96</gpxtpx:hr>
          </gpxtpx:TrackPointExtension>
        </extensions>
      </trkpt>
      <trkpt lat="48.72428" lon="1.79923">
        <ele>181.2</ele>
        <time>2023-04-27T11:45:22Z</time>
        <extensions>
          <gpxtpx:TrackPointExtension xmlns:gpxtpx="http://www.garmin.com/xmlschemas/TrackPointExtension/v1">
            <gpxtpx:hr>96</gpxtpx:hr>
          </gpxtpx:TrackPointExtension>
        </extensions>
      </trkpt>
      <trkpt lat="48.7243" lon="1.79925">
        <ele>181</ele>
        <time>2023-04-27T11:45:24Z</time>
        <extensions>
          <gpxtpx:TrackPointExtension xmlns:gpxtpx="http://www.garmin.com/xmlschemas/TrackPointExtension/v1">
            <gpxtpx:hr>97</gpxtpx:hr>
          </gpxtpx:TrackPointExtension>
        </extensions>
      </trkpt>
      <trkpt lat="48.72432" lon="1.79927">
        <ele>181</ele>
        <time>2023-04-27T11:45:26Z</time>
        <extensions>
          <gpxtpx:TrackPointExtension xmlns:gpxtpx="http://www.garmin.com/xmlschemas/TrackPointExtension/v1">
            <gpxtpx:hr>97</gpxtpx:hr>
          </gpxtpx:TrackPointExtension>
        </extensions>
      </trkpt>
      <trkpt lat="48.72434" lon="1.79928">
        <ele>180.8</ele>
        <time>2023-04-27T11:45:28Z</time>
        <extensions>
          <gpxtpx:TrackPointExtension xmlns:gpxtpx="http://www.garmin.com/xmlschemas/TrackPointExtension/v1">
            <gpxtpx:hr>97</gpxtpx:hr>
          </gpxtpx:TrackPointExtension>
        </extensions>
      </trkpt>
      <trkpt lat="48.72437" lon="1.79929">
        <ele>180.6</ele>
        <time>2023-04-27T11:45:31Z</time>
        <extensions>
          <gpxtpx:TrackPointExtension xmlns:gpxtpx="http://www.garmin.com/xmlschemas/TrackPointExtension/v1">
            <gpxtpx:hr>97</gpxtpx:hr>
          </gpxtpx:TrackPointExtension>
        </extensions>
      </trkpt>
      <trkpt lat="48.7244" lon="1.7993">
        <ele>180.4</ele>
        <time>2023-04-27T11:45:33Z</time>
        <extensions>
          <gpxtpx:TrackPointExtension xmlns:gpxtpx="http://www.garmin.com/xmlschemas/TrackPointExtension/v1">
            <gpxtpx:hr>97</gpxtpx:hr>
          </gpxtpx:TrackPointExtension>
        </extensions>
      </trkpt>
      <trkpt lat="48.72442" lon="1.79931">
        <ele>180.4</ele>
        <time>2023-04-27T11:45:35Z</time>
        <extensions>
          <gpxtpx:TrackPointExtension xmlns:gpxtpx="http://www.garmin.com/xmlschemas/TrackPointExtension/v1">
            <gpxtpx:hr>97</gpxtpx:hr>
          </gpxtpx:TrackPointExtension>
        </extensions>
      </trkpt>
      <trkpt lat="48.72444" lon="1.79933">
        <ele>180.4</ele>
        <time>2023-04-27T11:45:37Z</time>
        <extensions>
          <gpxtpx:TrackPointExtension xmlns:gpxtpx="http://www.garmin.com/xmlschemas/TrackPointExtension/v1">
            <gpxtpx:hr>97</gpxtpx:hr>
          </gpxtpx:TrackPointExtension>
        </extensions>
      </trkpt>
      <trkpt lat="48.72446" lon="1.79935">
        <ele>180.4</ele>
        <time>2023-04-27T11:45:39Z</time>
        <extensions>
          <gpxtpx:TrackPointExtension xmlns:gpxtpx="http://www.garmin.com/xmlschemas/TrackPointExtension/v1">
            <gpxtpx:hr>98</gpxtpx:hr>
          </gpxtpx:TrackPointExtension>
        </extensions>
      </trkpt>
      <trkpt lat="48.72448" lon="1.79937">
        <ele>180.4</ele>
        <time>2023-04-27T11:45:41Z</time>
        <extensions>
          <gpxtpx:TrackPointExtension xmlns:gpxtpx="http://www.garmin.com/xmlschemas/TrackPointExtension/v1">
            <gpxtpx:hr>98</gpxtpx:hr>
          </gpxtpx:TrackPointExtension>
        </extensions>
      </trkpt>
      <trkpt lat="48.72451" lon="1.79938">
        <ele>180.6</ele>
        <time>2023-04-27T11:45:43Z</time>
      </trkpt>
      <trkpt lat="48.72454" lon="1.79939">
        <ele>180.6</ele>
        <time>2023-04-27T11:45:45Z</time>
      </trkpt>
      <trkpt lat="48.72457" lon="1.7994">
        <ele>180.6</ele>
        <time>2023-04-27T11:45:47Z</time>
      </trkpt>
      <trkpt lat="48.7246" lon="1.7994">
        <ele>180.6</ele>
        <time>2023-04-27T11:45:49Z</time>
      </trkpt>
      <trkpt lat="48.72462" lon="1.79939">
        <ele>180.6</ele>
        <time>2023-04-27T11:45:51Z</time>
      </trkpt>
      <trkpt lat="48.72465" lon="1.79938">
        <ele>180.6</ele>
        <time>2023-04-27T11:45:54Z</time>
      </trkpt>
      <trkpt lat="48.72467" lon="1.79938">
        <ele>180.8</ele>
        <time>2023-04-27T11:45:56Z</time>
      </trkpt>
      <trkpt lat="48.72469" lon="1.79938">
        <ele>181</ele>
        <time>2023-04-27T11:45:58Z</time>
      </trkpt>
      <trkpt lat="48.72472" lon="1.79939">
        <ele>181</ele>
        <time>2023-04-27T11:46:00Z</time>
      </trkpt>
      <trkpt lat="48.72474" lon="1.79941">
        <ele>181.2</ele>
        <time>2023-04-27T11:46:02Z</time>
      </trkpt>
      <trkpt lat="48.72477" lon="1.79943">
        <ele>181.4</ele>
        <time>2023-04-27T11:46:04Z</time>
      </trkpt>
      <trkpt lat="48.72479" lon="1.79946">
        <ele>181.4</ele>
        <time>2023-04-27T11:46:06Z</time>
      </trkpt>
      <trkpt lat="48.72482" lon="1.79949">
        <ele>181.2</ele>
        <time>2023-04-27T11:46:08Z</time>
      </trkpt>
      <trkpt lat="48.72484" lon="1.79953">
        <ele>181.2</ele>
        <time>2023-04-27T11:46:10Z</time>
      </trkpt>
      <trkpt lat="48.72486" lon="1.79954">
        <ele>181.2</ele>
        <time>2023-04-27T11:46:11Z</time>
      </trkpt>
      <trkpt lat="48.72488" lon="1.79956">
        <ele>181.2</ele>
        <time>2023-04-27T11:46:12Z</time>
      </trkpt>
      <trkpt lat="48.7249" lon="1.79958">
        <ele>181.2</ele>
        <time>2023-04-27T11:46:13Z</time>
      </trkpt>
      <trkpt lat="48.72492" lon="1.7996">
        <ele>181.2</ele>
        <time>2023-04-27T11:46:14Z</time>
      </trkpt>
      <trkpt lat="48.72493" lon="1.79962">
        <ele>181.2</ele>
        <time>2023-04-27T11:46:15Z</time>
      </trkpt>
      <trkpt lat="48.72496" lon="1.79964">
        <ele>181.2</ele>
        <time>2023-04-27T11:46:17Z</time>
      </trkpt>
      <trkpt lat="48.72499" lon="1.79967">
        <ele>181.2</ele>
        <time>2023-04-27T11:46:19Z</time>
      </trkpt>
      <trkpt lat="48.72502" lon="1.79968">
        <ele>181.2</ele>
        <time>2023-04-27T11:46:21Z</time>
      </trkpt>
      <trkpt lat="48.72504" lon="1.7997">
        <ele>181.2</ele>
        <time>2023-04-27T11:46:23Z</time>
      </trkpt>
      <trkpt lat="48.72506" lon="1.79971">
        <ele>181.2</ele>
        <time>2023-04-27T11:46:25Z</time>
      </trkpt>
      <trkpt lat="48.72508" lon="1.79973">
        <ele>181.2</ele>
        <time>2023-04-27T11:46:27Z</time>
      </trkpt>
      <trkpt lat="48.7251" lon="1.79975">
        <ele>181.2</ele>
        <time>2023-04-27T11:46:29Z</time>
      </trkpt>
      <trkpt lat="48.72512" lon="1.79977">
        <ele>181.2</ele>
        <time>2023-04-27T11:46:31Z</time>
      </trkpt>
      <trkpt lat="48.72514" lon="1.79978">
        <ele>181.2</ele>
        <time>2023-04-27T11:46:34Z</time>
      </trkpt>
      <trkpt lat="48.72516" lon="1.79979">
        <ele>181</ele>
        <time>2023-04-27T11:46:36Z</time>
      </trkpt>
      <trkpt lat="48.72519" lon="1.7998">
        <ele>180.8</ele>
        <time>2023-04-27T11:46:38Z</time>
      </trkpt>
      <trkpt lat="48.72522" lon="1.79982">
        <ele>180.6</ele>
        <time>2023-04-27T11:46:40Z</time>
      </trkpt>
      <trkpt lat="48.72525" lon="1.79985">
        <ele>180.2</ele>
        <time>2023-04-27T11:46:42Z</time>
      </trkpt>
      <trkpt lat="48.72528" lon="1.79988">
        <ele>180</ele>
        <time>2023-04-27T11:46:44Z</time>
      </trkpt>
      <trkpt lat="48.7253" lon="1.79989">
        <ele>179.8</ele>
        <time>2023-04-27T11:46:45Z</time>
      </trkpt>
      <trkpt lat="48.72532" lon="1.7999">
        <ele>179.6</ele>
        <time>2023-04-27T11:46:46Z</time>
      </trkpt>
      <trkpt lat="48.72535" lon="1.79992">
        <ele>179.4</ele>
        <time>2023-04-27T11:46:48Z</time>
      </trkpt>
      <trkpt lat="48.72537" lon="1.79994">
        <ele>179</ele>
        <time>2023-04-27T11:46:50Z</time>
      </trkpt>
      <trkpt lat="48.7254" lon="1.79995">
        <ele>178.8</ele>
        <time>2023-04-27T11:46:53Z</time>
      </trkpt>
      <trkpt lat="48.72542" lon="1.79996">
        <ele>178.6</ele>
        <time>2023-04-27T11:46:55Z</time>
      </trkpt>
      <trkpt lat="48.72544" lon="1.79997">
        <ele>178.2</ele>
        <time>2023-04-27T11:46:57Z</time>
      </trkpt>
      <trkpt lat="48.72547" lon="1.79998">
        <ele>178</ele>
        <time>2023-04-27T11:46:59Z</time>
      </trkpt>
      <trkpt lat="48.7255" lon="1.8">
        <ele>177.8</ele>
        <time>2023-04-27T11:47:01Z</time>
      </trkpt>
      <trkpt lat="48.72552" lon="1.80002">
        <ele>177.4</ele>
        <time>2023-04-27T11:47:03Z</time>
      </trkpt>
      <trkpt lat="48.72555" lon="1.80004">
        <ele>177.2</ele>
        <time>2023-04-27T11:47:06Z</time>
      </trkpt>
      <trkpt lat="48.72557" lon="1.80004">
        <ele>177</ele>
        <time>2023-04-27T11:47:09Z</time>
      </trkpt>
      <trkpt lat="48.72559" lon="1.80005">
        <ele>176.8</ele>
        <time>2023-04-27T11:47:11Z</time>
      </trkpt>
      <trkpt lat="48.72563" lon="1.80006">
        <ele>176.8</ele>
        <time>2023-04-27T11:47:13Z</time>
      </trkpt>
      <trkpt lat="48.72566" lon="1.80008">
        <ele>176.8</ele>
        <time>2023-04-27T11:47:15Z</time>
      </trkpt>
      <trkpt lat="48.72569" lon="1.80011">
        <ele>176.8</ele>
        <time>2023-04-27T11:47:17Z</time>
      </trkpt>
      <trkpt lat="48.72571" lon="1.80012">
        <ele>176.8</ele>
        <time>2023-04-27T11:47:18Z</time>
      </trkpt>
      <trkpt lat="48.72573" lon="1.80015">
        <ele>177</ele>
        <time>2023-04-27T11:47:20Z</time>
      </trkpt>
      <trkpt lat="48.72575" lon="1.80018">
        <ele>177.2</ele>
        <time>2023-04-27T11:47:22Z</time>
      </trkpt>
      <trkpt lat="48.72577" lon="1.8002">
        <ele>177.2</ele>
        <time>2023-04-27T11:47:24Z</time>
      </trkpt>
      <trkpt lat="48.7258" lon="1.80021">
        <ele>177.4</ele>
        <time>2023-04-27T11:47:26Z</time>
      </trkpt>
      <trkpt lat="48.72584" lon="1.80022">
        <ele>177.6</ele>
        <time>2023-04-27T11:47:28Z</time>
      </trkpt>
      <trkpt lat="48.72586" lon="1.80022">
        <ele>177.6</ele>
        <time>2023-04-27T11:47:29Z</time>
      </trkpt>
      <trkpt lat="48.72588" lon="1.80023">
        <ele>177.6</ele>
        <time>2023-04-27T11:47:30Z</time>
      </trkpt>
      <trkpt lat="48.7259" lon="1.80023">
        <ele>177.6</ele>
        <time>2023-04-27T11:47:31Z</time>
      </trkpt>
      <trkpt lat="48.72592" lon="1.80024">
        <ele>177.6</ele>
        <time>2023-04-27T11:47:32Z</time>
      </trkpt>
      <trkpt lat="48.72596" lon="1.80027">
        <ele>177.6</ele>
        <time>2023-04-27T11:47:34Z</time>
      </trkpt>
      <trkpt lat="48.72599" lon="1.80029">
        <ele>177.8</ele>
        <time>2023-04-27T11:47:36Z</time>
      </trkpt>
      <trkpt lat="48.72603" lon="1.80031">
        <ele>177.8</ele>
        <time>2023-04-27T11:47:38Z</time>
      </trkpt>
      <trkpt lat="48.72606" lon="1.80033">
        <ele>177.8</ele>
        <time>2023-04-27T11:47:40Z</time>
      </trkpt>
      <trkpt lat="48.72608" lon="1.80033">
        <ele>177.8</ele>
        <time>2023-04-27T11:47:41Z</time>
      </trkpt>
      <trkpt lat="48.7261" lon="1.80034">
        <ele>177.6</ele>
        <time>2023-04-27T11:47:42Z</time>
      </trkpt>
      <trkpt lat="48.72613" lon="1.80035">
        <ele>177.6</ele>
        <time>2023-04-27T11:47:44Z</time>
      </trkpt>
      <trkpt lat="48.72615" lon="1.80037">
        <ele>177.2</ele>
        <time>2023-04-27T11:47:46Z</time>
      </trkpt>
      <trkpt lat="48.72617" lon="1.8004">
        <ele>177</ele>
        <time>2023-04-27T11:47:48Z</time>
      </trkpt>
      <trkpt lat="48.72619" lon="1.80043">
        <ele>176.6</ele>
        <time>2023-04-27T11:47:50Z</time>
      </trkpt>
      <trkpt lat="48.72621" lon="1.80045">
        <ele>176.4</ele>
        <time>2023-04-27T11:47:52Z</time>
      </trkpt>
      <trkpt lat="48.72623" lon="1.80047">
        <ele>176.2</ele>
        <time>2023-04-27T11:47:54Z</time>
      </trkpt>
      <trkpt lat="48.72624" lon="1.80049">
        <ele>175.8</ele>
        <time>2023-04-27T11:47:56Z</time>
      </trkpt>
      <trkpt lat="48.72627" lon="1.80051">
        <ele>175.8</ele>
        <time>2023-04-27T11:47:58Z</time>
      </trkpt>
      <trkpt lat="48.72628" lon="1.80052">
        <ele>175.6</ele>
        <time>2023-04-27T11:47:59Z</time>
      </trkpt>
      <trkpt lat="48.7263" lon="1.80053">
        <ele>175.6</ele>
        <time>2023-04-27T11:48:00Z</time>
      </trkpt>
      <trkpt lat="48.72634" lon="1.80055">
        <ele>175.4</ele>
        <time>2023-04-27T11:48:02Z</time>
      </trkpt>
      <trkpt lat="48.72636" lon="1.80057">
        <ele>175.4</ele>
        <time>2023-04-27T11:48:04Z</time>
      </trkpt>
      <trkpt lat="48.72639" lon="1.8006">
        <ele>175.6</ele>
        <time>2023-04-27T11:48:06Z</time>
      </trkpt>
      <trkpt lat="48.72641" lon="1.80062">
        <ele>175.8</ele>
        <time>2023-04-27T11:48:08Z</time>
      </trkpt>
      <trkpt lat="48.72644" lon="1.80064">
        <ele>176</ele>
        <time>2023-04-27T11:48:10Z</time>
      </trkpt>
      <trkpt lat="48.72647" lon="1.80066">
        <ele>176</ele>
        <time>2023-04-27T11:48:12Z</time>
      </trkpt>
      <trkpt lat="48.7265" lon="1.80068">
        <ele>176</ele>
        <time>2023-04-27T11:48:14Z</time>
      </trkpt>
      <trkpt lat="48.72652" lon="1.8007">
        <ele>176</ele>
        <time>2023-04-27T11:48:16Z</time>
      </trkpt>
      <trkpt lat="48.72655" lon="1.80071">
        <ele>176.2</ele>
        <time>2023-04-27T11:48:18Z</time>
      </trkpt>
      <trkpt lat="48.72661" lon="1.80074">
        <ele>176.4</ele>
        <time>2023-04-27T11:48:21Z</time>
      </trkpt>
      <trkpt lat="48.72663" lon="1.80076">
        <ele>176.4</ele>
        <time>2023-04-27T11:48:23Z</time>
      </trkpt>
      <trkpt lat="48.72666" lon="1.80078">
        <ele>176.2</ele>
        <time>2023-04-27T11:48:25Z</time>
      </trkpt>
      <trkpt lat="48.72668" lon="1.8008">
        <ele>176.2</ele>
        <time>2023-04-27T11:48:27Z</time>
      </trkpt>
      <trkpt lat="48.72671" lon="1.80082">
        <ele>176.2</ele>
        <time>2023-04-27T11:48:29Z</time>
      </trkpt>
      <trkpt lat="48.72672" lon="1.80085">
        <ele>176.2</ele>
        <time>2023-04-27T11:48:31Z</time>
      </trkpt>
      <trkpt lat="48.72673" lon="1.80088">
        <ele>176.2</ele>
        <time>2023-04-27T11:48:33Z</time>
      </trkpt>
      <trkpt lat="48.72675" lon="1.80091">
        <ele>176.2</ele>
        <time>2023-04-27T11:48:35Z</time>
      </trkpt>
      <trkpt lat="48.72676" lon="1.80092">
        <ele>176.2</ele>
        <time>2023-04-27T11:48:36Z</time>
      </trkpt>
      <trkpt lat="48.72678" lon="1.80093">
        <ele>176.2</ele>
        <time>2023-04-27T11:48:37Z</time>
      </trkpt>
      <trkpt lat="48.72681" lon="1.80094">
        <ele>176.2</ele>
        <time>2023-04-27T11:48:38Z</time>
      </trkpt>
      <trkpt lat="48.72683" lon="1.80095">
        <ele>176</ele>
        <time>2023-04-27T11:48:39Z</time>
      </trkpt>
      <trkpt lat="48.72685" lon="1.80096">
        <ele>176</ele>
        <time>2023-04-27T11:48:40Z</time>
      </trkpt>
      <trkpt lat="48.72687" lon="1.80097">
        <ele>176</ele>
        <time>2023-04-27T11:48:41Z</time>
      </trkpt>
      <trkpt lat="48.72689" lon="1.80098">
        <ele>175.8</ele>
        <time>2023-04-27T11:48:42Z</time>
      </trkpt>
      <trkpt lat="48.72692" lon="1.801">
        <ele>175.6</ele>
        <time>2023-04-27T11:48:44Z</time>
      </trkpt>
      <trkpt lat="48.72694" lon="1.80101">
        <ele>175.6</ele>
        <time>2023-04-27T11:48:45Z</time>
      </trkpt>
      <trkpt lat="48.72696" lon="1.80103">
        <ele>175.4</ele>
        <time>2023-04-27T11:48:46Z</time>
      </trkpt>
      <trkpt lat="48.72698" lon="1.80104">
        <ele>175.2</ele>
        <time>2023-04-27T11:48:47Z</time>
      </trkpt>
      <trkpt lat="48.727" lon="1.80106">
        <ele>175.2</ele>
        <time>2023-04-27T11:48:48Z</time>
      </trkpt>
      <trkpt lat="48.72702" lon="1.80107">
        <ele>175</ele>
        <time>2023-04-27T11:48:49Z</time>
      </trkpt>
      <trkpt lat="48.72704" lon="1.80109">
        <ele>174.8</ele>
        <time>2023-04-27T11:48:50Z</time>
      </trkpt>
      <trkpt lat="48.72706" lon="1.8011">
        <ele>174.6</ele>
        <time>2023-04-27T11:48:51Z</time>
      </trkpt>
      <trkpt lat="48.72708" lon="1.80112">
        <ele>174.4</ele>
        <time>2023-04-27T11:48:52Z</time>
      </trkpt>
      <trkpt lat="48.7271" lon="1.80115">
        <ele>174</ele>
        <time>2023-04-27T11:48:54Z</time>
      </trkpt>
      <trkpt lat="48.72712" lon="1.80116">
        <ele>173.8</ele>
        <time>2023-04-27T11:48:55Z</time>
      </trkpt>
      <trkpt lat="48.72714" lon="1.80117">
        <ele>173.6</ele>
        <time>2023-04-27T11:48:56Z</time>
      </trkpt>
      <trkpt lat="48.72717" lon="1.8012">
        <ele>173</ele>
        <time>2023-04-27T11:48:58Z</time>
      </trkpt>
      <trkpt lat="48.7272" lon="1.80122">
        <ele>172.6</ele>
        <time>2023-04-27T11:49:00Z</time>
      </trkpt>
      <trkpt lat="48.72723" lon="1.80124">
        <ele>172.2</ele>
        <time>2023-04-27T11:49:02Z</time>
      </trkpt>
      <trkpt lat="48.72725" lon="1.80126">
        <ele>171.8</ele>
        <time>2023-04-27T11:49:04Z</time>
      </trkpt>
      <trkpt lat="48.72728" lon="1.80129">
        <ele>171.4</ele>
        <time>2023-04-27T11:49:06Z</time>
      </trkpt>
      <trkpt lat="48.7273" lon="1.80132">
        <ele>171</ele>
        <time>2023-04-27T11:49:08Z</time>
      </trkpt>
      <trkpt lat="48.72732" lon="1.80136">
        <ele>170.6</ele>
        <time>2023-04-27T11:49:10Z</time>
      </trkpt>
      <trkpt lat="48.72734" lon="1.80139">
        <ele>170.2</ele>
        <time>2023-04-27T11:49:12Z</time>
      </trkpt>
      <trkpt lat="48.72738" lon="1.80142">
        <ele>170</ele>
        <time>2023-04-27T11:49:14Z</time>
      </trkpt>
      <trkpt lat="48.72741" lon="1.80144">
        <ele>169.6</ele>
        <time>2023-04-27T11:49:16Z</time>
      </trkpt>
      <trkpt lat="48.72744" lon="1.80146">
        <ele>169.2</ele>
        <time>2023-04-27T11:49:18Z</time>
      </trkpt>
      <trkpt lat="48.72745" lon="1.80148">
        <ele>169</ele>
        <time>2023-04-27T11:49:19Z</time>
      </trkpt>
      <trkpt lat="48.72748" lon="1.8015">
        <ele>168.8</ele>
        <time>2023-04-27T11:49:21Z</time>
      </trkpt>
      <trkpt lat="48.72749" lon="1.80152">
        <ele>168.6</ele>
        <time>2023-04-27T11:49:23Z</time>
      </trkpt>
      <trkpt lat="48.72752" lon="1.80155">
        <ele>168.4</ele>
        <time>2023-04-27T11:49:25Z</time>
      </trkpt>
      <trkpt lat="48.72754" lon="1.80157">
        <ele>168.2</ele>
        <time>2023-04-27T11:49:27Z</time>
      </trkpt>
      <trkpt lat="48.72756" lon="1.8016">
        <ele>168</ele>
        <time>2023-04-27T11:49:29Z</time>
      </trkpt>
      <trkpt lat="48.72758" lon="1.80161">
        <ele>167.8</ele>
        <time>2023-04-27T11:49:30Z</time>
      </trkpt>
      <trkpt lat="48.7276" lon="1.80164">
        <ele>167.8</ele>
        <time>2023-04-27T11:49:32Z</time>
      </trkpt>
      <trkpt lat="48.72763" lon="1.80167">
        <ele>167.6</ele>
        <time>2023-04-27T11:49:34Z</time>
      </trkpt>
      <trkpt lat="48.72764" lon="1.8017">
        <ele>167.6</ele>
        <time>2023-04-27T11:49:36Z</time>
      </trkpt>
      <trkpt lat="48.72767" lon="1.80172">
        <ele>167.4</ele>
        <time>2023-04-27T11:49:38Z</time>
      </trkpt>
      <trkpt lat="48.72769" lon="1.80174">
        <ele>167.4</ele>
        <time>2023-04-27T11:49:40Z</time>
      </trkpt>
      <trkpt lat="48.72773" lon="1.80177">
        <ele>167.6</ele>
        <time>2023-04-27T11:49:44Z</time>
      </trkpt>
      <trkpt lat="48.72776" lon="1.80177">
        <ele>167</ele>
        <time>2023-04-27T11:50:01Z</time>
      </trkpt>
      <trkpt lat="48.72778" lon="1.80179">
        <ele>167</ele>
        <time>2023-04-27T11:50:03Z</time>
      </trkpt>
      <trkpt lat="48.7278" lon="1.8018">
        <ele>167</ele>
        <time>2023-04-27T11:50:05Z</time>
      </trkpt>
      <trkpt lat="48.72782" lon="1.80182">
        <ele>167</ele>
        <time>2023-04-27T11:50:07Z</time>
      </trkpt>
      <trkpt lat="48.72785" lon="1.80183">
        <ele>167</ele>
        <time>2023-04-27T11:50:09Z</time>
      </trkpt>
      <trkpt lat="48.72788" lon="1.80185">
        <ele>167</ele>
        <time>2023-04-27T11:50:11Z</time>
      </trkpt>
      <trkpt lat="48.7279" lon="1.80187">
        <ele>167</ele>
        <time>2023-04-27T11:50:13Z</time>
      </trkpt>
      <trkpt lat="48.72792" lon="1.80188">
        <ele>167</ele>
        <time>2023-04-27T11:50:14Z</time>
      </trkpt>
      <trkpt lat="48.72794" lon="1.80191">
        <ele>166.8</ele>
        <time>2023-04-27T11:50:16Z</time>
      </trkpt>
      <trkpt lat="48.72796" lon="1.80193">
        <ele>166.6</ele>
        <time>2023-04-27T11:50:18Z</time>
      </trkpt>
      <trkpt lat="48.72799" lon="1.80195">
        <ele>166.4</ele>
        <time>2023-04-27T11:50:20Z</time>
      </trkpt>
      <trkpt lat="48.72801" lon="1.80197">
        <ele>166.4</ele>
        <time>2023-04-27T11:50:22Z</time>
      </trkpt>
      <trkpt lat="48.72804" lon="1.80199">
        <ele>166.4</ele>
        <time>2023-04-27T11:50:24Z</time>
      </trkpt>
      <trkpt lat="48.72805" lon="1.802">
        <ele>166.2</ele>
        <time>2023-04-27T11:50:26Z</time>
      </trkpt>
      <trkpt lat="48.72808" lon="1.80202">
        <ele>166.2</ele>
        <time>2023-04-27T11:50:28Z</time>
      </trkpt>
      <trkpt lat="48.7281" lon="1.80204">
        <ele>166.2</ele>
        <time>2023-04-27T11:50:30Z</time>
      </trkpt>
      <trkpt lat="48.72813" lon="1.80205">
        <ele>166.2</ele>
        <time>2023-04-27T11:50:32Z</time>
      </trkpt>
      <trkpt lat="48.72815" lon="1.80207">
        <ele>166</ele>
        <time>2023-04-27T11:50:34Z</time>
      </trkpt>
      <trkpt lat="48.72817" lon="1.80209">
        <ele>165.8</ele>
        <time>2023-04-27T11:50:36Z</time>
      </trkpt>
      <trkpt lat="48.7282" lon="1.80211">
        <ele>166</ele>
        <time>2023-04-27T11:50:38Z</time>
      </trkpt>
      <trkpt lat="48.72822" lon="1.80212">
        <ele>166</ele>
        <time>2023-04-27T11:50:40Z</time>
      </trkpt>
      <trkpt lat="48.72824" lon="1.80214">
        <ele>166</ele>
        <time>2023-04-27T11:50:42Z</time>
      </trkpt>
      <trkpt lat="48.72827" lon="1.80215">
        <ele>166</ele>
        <time>2023-04-27T11:50:44Z</time>
      </trkpt>
      <trkpt lat="48.7283" lon="1.80217">
        <ele>166</ele>
        <time>2023-04-27T11:50:46Z</time>
      </trkpt>
      <trkpt lat="48.72833" lon="1.80218">
        <ele>166</ele>
        <time>2023-04-27T11:50:48Z</time>
      </trkpt>
      <trkpt lat="48.72835" lon="1.80219">
        <ele>166</ele>
        <time>2023-04-27T11:50:50Z</time>
      </trkpt>
      <trkpt lat="48.72837" lon="1.8022">
        <ele>166</ele>
        <time>2023-04-27T11:50:52Z</time>
      </trkpt>
      <trkpt lat="48.72839" lon="1.80222">
        <ele>166</ele>
        <time>2023-04-27T11:50:54Z</time>
      </trkpt>
      <trkpt lat="48.72842" lon="1.80224">
        <ele>166</ele>
        <time>2023-04-27T11:50:56Z</time>
      </trkpt>
      <trkpt lat="48.72844" lon="1.80226">
        <ele>165.8</ele>
        <time>2023-04-27T11:50:58Z</time>
      </trkpt>
      <trkpt lat="48.72847" lon="1.80228">
        <ele>165.6</ele>
        <time>2023-04-27T11:51:00Z</time>
      </trkpt>
      <trkpt lat="48.7285" lon="1.8023">
        <ele>165.6</ele>
        <time>2023-04-27T11:51:02Z</time>
      </trkpt>
      <trkpt lat="48.72853" lon="1.80231">
        <ele>165.4</ele>
        <time>2023-04-27T11:51:04Z</time>
      </trkpt>
      <trkpt lat="48.72856" lon="1.80233">
        <ele>165.4</ele>
        <time>2023-04-27T11:51:06Z</time>
      </trkpt>
      <trkpt lat="48.72859" lon="1.80235">
        <ele>165.4</ele>
        <time>2023-04-27T11:51:08Z</time>
      </trkpt>
      <trkpt lat="48.72861" lon="1.80237">
        <ele>165.4</ele>
        <time>2023-04-27T11:51:10Z</time>
      </trkpt>
      <trkpt lat="48.72863" lon="1.80239">
        <ele>165.2</ele>
        <time>2023-04-27T11:51:12Z</time>
      </trkpt>
      <trkpt lat="48.72866" lon="1.80241">
        <ele>165.2</ele>
        <time>2023-04-27T11:51:14Z</time>
      </trkpt>
      <trkpt lat="48.72869" lon="1.80243">
        <ele>165.2</ele>
        <time>2023-04-27T11:51:16Z</time>
      </trkpt>
      <trkpt lat="48.72871" lon="1.80245">
        <ele>165.2</ele>
        <time>2023-04-27T11:51:18Z</time>
      </trkpt>
      <trkpt lat="48.72874" lon="1.80247">
        <ele>165.2</ele>
        <time>2023-04-27T11:51:20Z</time>
      </trkpt>
      <trkpt lat="48.72876" lon="1.80249">
        <ele>165.2</ele>
        <time>2023-04-27T11:51:22Z</time>
      </trkpt>
      <trkpt lat="48.72879" lon="1.80251">
        <ele>165.2</ele>
        <time>2023-04-27T11:51:24Z</time>
      </trkpt>
      <trkpt lat="48.72881" lon="1.80253">
        <ele>165.2</ele>
        <time>2023-04-27T11:51:26Z</time>
      </trkpt>
      <trkpt lat="48.72884" lon="1.80255">
        <ele>165.2</ele>
        <time>2023-04-27T11:51:28Z</time>
      </trkpt>
      <trkpt lat="48.72887" lon="1.80257">
        <ele>165.2</ele>
        <time>2023-04-27T11:51:30Z</time>
      </trkpt>
      <trkpt lat="48.72889" lon="1.80258">
        <ele>165.2</ele>
        <time>2023-04-27T11:51:32Z</time>
      </trkpt>
      <trkpt lat="48.72892" lon="1.80259">
        <ele>165.2</ele>
        <time>2023-04-27T11:51:34Z</time>
      </trkpt>
      <trkpt lat="48.72894" lon="1.8026">
        <ele>165.2</ele>
        <time>2023-04-27T11:51:36Z</time>
      </trkpt>
      <trkpt lat="48.72897" lon="1.8026">
        <ele>165.2</ele>
        <time>2023-04-27T11:51:38Z</time>
      </trkpt>
      <trkpt lat="48.72899" lon="1.80262">
        <ele>165.4</ele>
        <time>2023-04-27T11:51:40Z</time>
      </trkpt>
      <trkpt lat="48.72901" lon="1.80263">
        <ele>165.4</ele>
        <time>2023-04-27T11:51:42Z</time>
      </trkpt>
      <trkpt lat="48.72904" lon="1.80265">
        <ele>165.2</ele>
        <time>2023-04-27T11:51:44Z</time>
      </trkpt>
      <trkpt lat="48.72907" lon="1.80267">
        <ele>165.2</ele>
        <time>2023-04-27T11:51:46Z</time>
      </trkpt>
      <trkpt lat="48.72909" lon="1.8027">
        <ele>165.2</ele>
        <time>2023-04-27T11:51:48Z</time>
      </trkpt>
      <trkpt lat="48.72911" lon="1.80272">
        <ele>165.4</ele>
        <time>2023-04-27T11:51:50Z</time>
      </trkpt>
      <trkpt lat="48.72913" lon="1.80274">
        <ele>165.4</ele>
        <time>2023-04-27T11:51:52Z</time>
      </trkpt>
      <trkpt lat="48.72916" lon="1.80276">
        <ele>165.4</ele>
        <time>2023-04-27T11:51:54Z</time>
      </trkpt>
      <trkpt lat="48.72917" lon="1.80277">
        <ele>165.4</ele>
        <time>2023-04-27T11:51:56Z</time>
      </trkpt>
      <trkpt lat="48.7292" lon="1.80279">
        <ele>165.4</ele>
        <time>2023-04-27T11:51:59Z</time>
      </trkpt>
      <trkpt lat="48.72923" lon="1.80279">
        <ele>165.4</ele>
        <time>2023-04-27T11:52:01Z</time>
      </trkpt>
      <trkpt lat="48.72925" lon="1.8028">
        <ele>165.4</ele>
        <time>2023-04-27T11:52:03Z</time>
      </trkpt>
      <trkpt lat="48.72927" lon="1.80281">
        <ele>165.2</ele>
        <time>2023-04-27T11:52:05Z</time>
      </trkpt>
      <trkpt lat="48.72929" lon="1.80282">
        <ele>165.4</ele>
        <time>2023-04-27T11:52:07Z</time>
      </trkpt>
      <trkpt lat="48.72932" lon="1.80283">
        <ele>165.6</ele>
        <time>2023-04-27T11:52:09Z</time>
      </trkpt>
      <trkpt lat="48.72934" lon="1.80285">
        <ele>165.8</ele>
        <time>2023-04-27T11:52:11Z</time>
      </trkpt>
      <trkpt lat="48.72936" lon="1.80286">
        <ele>166</ele>
        <time>2023-04-27T11:52:13Z</time>
      </trkpt>
      <trkpt lat="48.72938" lon="1.80287">
        <ele>166.4</ele>
        <time>2023-04-27T11:52:15Z</time>
      </trkpt>
      <trkpt lat="48.7294" lon="1.80289">
        <ele>166.6</ele>
        <time>2023-04-27T11:52:17Z</time>
      </trkpt>
      <trkpt lat="48.72943" lon="1.8029">
        <ele>167.2</ele>
        <time>2023-04-27T11:52:20Z</time>
      </trkpt>
      <trkpt lat="48.72944" lon="1.80292">
        <ele>167.6</ele>
        <time>2023-04-27T11:52:22Z</time>
      </trkpt>
      <trkpt lat="48.72946" lon="1.80294">
        <ele>167.8</ele>
        <time>2023-04-27T11:52:24Z</time>
      </trkpt>
      <trkpt lat="48.72948" lon="1.80295">
        <ele>168</ele>
        <time>2023-04-27T11:52:26Z</time>
      </trkpt>
      <trkpt lat="48.7295" lon="1.80296">
        <ele>168.2</ele>
        <time>2023-04-27T11:52:28Z</time>
      </trkpt>
      <trkpt lat="48.72952" lon="1.80296">
        <ele>168.6</ele>
        <time>2023-04-27T11:52:30Z</time>
      </trkpt>
      <trkpt lat="48.72954" lon="1.80297">
        <ele>169</ele>
        <time>2023-04-27T11:52:32Z</time>
      </trkpt>
      <trkpt lat="48.72956" lon="1.80298">
        <ele>169.6</ele>
        <time>2023-04-27T11:52:34Z</time>
      </trkpt>
      <trkpt lat="48.72958" lon="1.80299">
        <ele>170</ele>
        <time>2023-04-27T11:52:36Z</time>
      </trkpt>
      <trkpt lat="48.7296" lon="1.80301">
        <ele>170.6</ele>
        <time>2023-04-27T11:52:39Z</time>
      </trkpt>
      <trkpt lat="48.72963" lon="1.80301">
        <ele>171</ele>
        <time>2023-04-27T11:52:41Z</time>
      </trkpt>
      <trkpt lat="48.72965" lon="1.80302">
        <ele>171.4</ele>
        <time>2023-04-27T11:52:43Z</time>
      </trkpt>
      <trkpt lat="48.72967" lon="1.80302">
        <ele>171.6</ele>
        <time>2023-04-27T11:52:45Z</time>
      </trkpt>
      <trkpt lat="48.7297" lon="1.80303">
        <ele>172</ele>
        <time>2023-04-27T11:52:47Z</time>
      </trkpt>
      <trkpt lat="48.72972" lon="1.80304">
        <ele>172.2</ele>
        <time>2023-04-27T11:52:49Z</time>
      </trkpt>
      <trkpt lat="48.72975" lon="1.80306">
        <ele>172.6</ele>
        <time>2023-04-27T11:52:51Z</time>
      </trkpt>
      <trkpt lat="48.72978" lon="1.80308">
        <ele>172.8</ele>
        <time>2023-04-27T11:52:53Z</time>
      </trkpt>
      <trkpt lat="48.7298" lon="1.80311">
        <ele>173</ele>
        <time>2023-04-27T11:52:55Z</time>
      </trkpt>
      <trkpt lat="48.72983" lon="1.80313">
        <ele>173.4</ele>
        <time>2023-04-27T11:52:57Z</time>
      </trkpt>
      <trkpt lat="48.72986" lon="1.80314">
        <ele>173.6</ele>
        <time>2023-04-27T11:52:59Z</time>
      </trkpt>
      <trkpt lat="48.72988" lon="1.80315">
        <ele>173.8</ele>
        <time>2023-04-27T11:53:01Z</time>
      </trkpt>
      <trkpt lat="48.72991" lon="1.80316">
        <ele>174</ele>
        <time>2023-04-27T11:53:03Z</time>
      </trkpt>
      <trkpt lat="48.72993" lon="1.80317">
        <ele>174.4</ele>
        <time>2023-04-27T11:53:05Z</time>
      </trkpt>
      <trkpt lat="48.72995" lon="1.8032">
        <ele>174.8</ele>
        <time>2023-04-27T11:53:07Z</time>
      </trkpt>
      <trkpt lat="48.72996" lon="1.80322">
        <ele>175</ele>
        <time>2023-04-27T11:53:09Z</time>
      </trkpt>
      <trkpt lat="48.72999" lon="1.80325">
        <ele>175.2</ele>
        <time>2023-04-27T11:53:11Z</time>
      </trkpt>
      <trkpt lat="48.73002" lon="1.80327">
        <ele>175.2</ele>
        <time>2023-04-27T11:53:13Z</time>
      </trkpt>
      <trkpt lat="48.73004" lon="1.80329">
        <ele>175.2</ele>
        <time>2023-04-27T11:53:15Z</time>
      </trkpt>
      <trkpt lat="48.73006" lon="1.8033">
        <ele>175.2</ele>
        <time>2023-04-27T11:53:16Z</time>
      </trkpt>
      <trkpt lat="48.73008" lon="1.80333">
        <ele>175.2</ele>
        <time>2023-04-27T11:53:18Z</time>
      </trkpt>
      <trkpt lat="48.73011" lon="1.80336">
        <ele>175.2</ele>
        <time>2023-04-27T11:53:20Z</time>
      </trkpt>
      <trkpt lat="48.73014" lon="1.80338">
        <ele>175.2</ele>
        <time>2023-04-27T11:53:22Z</time>
      </trkpt>
      <trkpt lat="48.73017" lon="1.80339">
        <ele>175.4</ele>
        <time>2023-04-27T11:53:24Z</time>
      </trkpt>
      <trkpt lat="48.7302" lon="1.80341">
        <ele>175.6</ele>
        <time>2023-04-27T11:53:26Z</time>
      </trkpt>
      <trkpt lat="48.73022" lon="1.80344">
        <ele>175.6</ele>
        <time>2023-04-27T11:53:28Z</time>
      </trkpt>
      <trkpt lat="48.73025" lon="1.80347">
        <ele>175.6</ele>
        <time>2023-04-27T11:53:30Z</time>
      </trkpt>
      <trkpt lat="48.73028" lon="1.80349">
        <ele>175.4</ele>
        <time>2023-04-27T11:53:32Z</time>
      </trkpt>
      <trkpt lat="48.73031" lon="1.80352">
        <ele>175.4</ele>
        <time>2023-04-27T11:53:34Z</time>
      </trkpt>
      <trkpt lat="48.73034" lon="1.80353">
        <ele>175.4</ele>
        <time>2023-04-27T11:53:36Z</time>
      </trkpt>
      <trkpt lat="48.73037" lon="1.80355">
        <ele>175.4</ele>
        <time>2023-04-27T11:53:38Z</time>
      </trkpt>
      <trkpt lat="48.73039" lon="1.80357">
        <ele>175.4</ele>
        <time>2023-04-27T11:53:40Z</time>
      </trkpt>
      <trkpt lat="48.73042" lon="1.80359">
        <ele>175.2</ele>
        <time>2023-04-27T11:53:42Z</time>
      </trkpt>
      <trkpt lat="48.73044" lon="1.80361">
        <ele>175.2</ele>
        <time>2023-04-27T11:53:44Z</time>
      </trkpt>
      <trkpt lat="48.73047" lon="1.80363">
        <ele>175.2</ele>
        <time>2023-04-27T11:53:46Z</time>
      </trkpt>
      <trkpt lat="48.73049" lon="1.80363">
        <ele>175.4</ele>
        <time>2023-04-27T11:53:47Z</time>
      </trkpt>
      <trkpt lat="48.73051" lon="1.80364">
        <ele>175.4</ele>
        <time>2023-04-27T11:53:48Z</time>
      </trkpt>
      <trkpt lat="48.73054" lon="1.80366">
        <ele>175.4</ele>
        <time>2023-04-27T11:53:50Z</time>
      </trkpt>
      <trkpt lat="48.73057" lon="1.80367">
        <ele>175.4</ele>
        <time>2023-04-27T11:53:52Z</time>
      </trkpt>
      <trkpt lat="48.7306" lon="1.80369">
        <ele>175.6</ele>
        <time>2023-04-27T11:53:54Z</time>
      </trkpt>
      <trkpt lat="48.73063" lon="1.8037">
        <ele>175.6</ele>
        <time>2023-04-27T11:53:56Z</time>
      </trkpt>
      <trkpt lat="48.73065" lon="1.80371">
        <ele>175.8</ele>
        <time>2023-04-27T11:53:58Z</time>
      </trkpt>
      <trkpt lat="48.73068" lon="1.80373">
        <ele>175.8</ele>
        <time>2023-04-27T11:54:00Z</time>
      </trkpt>
      <trkpt lat="48.73069" lon="1.80375">
        <ele>175.8</ele>
        <time>2023-04-27T11:54:02Z</time>
      </trkpt>
      <trkpt lat="48.73071" lon="1.80377">
        <ele>175.8</ele>
        <time>2023-04-27T11:54:04Z</time>
      </trkpt>
      <trkpt lat="48.73074" lon="1.80378">
        <ele>175.6</ele>
        <time>2023-04-27T11:54:06Z</time>
      </trkpt>
      <trkpt lat="48.73076" lon="1.8038">
        <ele>175.6</ele>
        <time>2023-04-27T11:54:08Z</time>
      </trkpt>
      <trkpt lat="48.73078" lon="1.80381">
        <ele>175.6</ele>
        <time>2023-04-27T11:54:10Z</time>
      </trkpt>
      <trkpt lat="48.7308" lon="1.80383">
        <ele>175.8</ele>
        <time>2023-04-27T11:54:12Z</time>
      </trkpt>
      <trkpt lat="48.73082" lon="1.80385">
        <ele>175.8</ele>
        <time>2023-04-27T11:54:14Z</time>
      </trkpt>
      <trkpt lat="48.73084" lon="1.80386">
        <ele>175.6</ele>
        <time>2023-04-27T11:54:16Z</time>
      </trkpt>
      <trkpt lat="48.73086" lon="1.80387">
        <ele>175.8</ele>
        <time>2023-04-27T11:54:18Z</time>
      </trkpt>
      <trkpt lat="48.73088" lon="1.80389">
        <ele>175.8</ele>
        <time>2023-04-27T11:54:20Z</time>
      </trkpt>
      <trkpt lat="48.73091" lon="1.80391">
        <ele>176</ele>
        <time>2023-04-27T11:54:22Z</time>
      </trkpt>
      <trkpt lat="48.73093" lon="1.80392">
        <ele>176.2</ele>
        <time>2023-04-27T11:54:24Z</time>
      </trkpt>
      <trkpt lat="48.73096" lon="1.80393">
        <ele>176.4</ele>
        <time>2023-04-27T11:54:26Z</time>
      </trkpt>
      <trkpt lat="48.73098" lon="1.80393">
        <ele>176.6</ele>
        <time>2023-04-27T11:54:28Z</time>
      </trkpt>
      <trkpt lat="48.73101" lon="1.80395">
        <ele>176.8</ele>
        <time>2023-04-27T11:54:30Z</time>
      </trkpt>
      <trkpt lat="48.73103" lon="1.80396">
        <ele>177</ele>
        <time>2023-04-27T11:54:32Z</time>
      </trkpt>
      <trkpt lat="48.73105" lon="1.80397">
        <ele>177.2</ele>
        <time>2023-04-27T11:54:34Z</time>
      </trkpt>
      <trkpt lat="48.73107" lon="1.80398">
        <ele>177.6</ele>
        <time>2023-04-27T11:54:36Z</time>
      </trkpt>
      <trkpt lat="48.73109" lon="1.80399">
        <ele>177.8</ele>
        <time>2023-04-27T11:54:38Z</time>
        <extensions>
          <gpxtpx:TrackPointExtension xmlns:gpxtpx="http://www.garmin.com/xmlschemas/TrackPointExtension/v1">
            <gpxtpx:hr>95</gpxtpx:hr>
          </gpxtpx:TrackPointExtension>
        </extensions>
      </trkpt>
      <trkpt lat="48.73111" lon="1.80402">
        <ele>177.8</ele>
        <time>2023-04-27T11:54:40Z</time>
        <extensions>
          <gpxtpx:TrackPointExtension xmlns:gpxtpx="http://www.garmin.com/xmlschemas/TrackPointExtension/v1">
            <gpxtpx:hr>95</gpxtpx:hr>
          </gpxtpx:TrackPointExtension>
        </extensions>
      </trkpt>
      <trkpt lat="48.73113" lon="1.80403">
        <ele>177.8</ele>
        <time>2023-04-27T11:54:41Z</time>
        <extensions>
          <gpxtpx:TrackPointExtension xmlns:gpxtpx="http://www.garmin.com/xmlschemas/TrackPointExtension/v1">
            <gpxtpx:hr>95</gpxtpx:hr>
          </gpxtpx:TrackPointExtension>
        </extensions>
      </trkpt>
      <trkpt lat="48.73115" lon="1.80406">
        <ele>178</ele>
        <time>2023-04-27T11:54:43Z</time>
      </trkpt>
      <trkpt lat="48.73117" lon="1.80408">
        <ele>178.2</ele>
        <time>2023-04-27T11:54:45Z</time>
      </trkpt>
      <trkpt lat="48.73119" lon="1.8041">
        <ele>178.4</ele>
        <time>2023-04-27T11:54:47Z</time>
      </trkpt>
      <trkpt lat="48.73122" lon="1.80411">
        <ele>178.6</ele>
        <time>2023-04-27T11:54:49Z</time>
      </trkpt>
      <trkpt lat="48.73124" lon="1.80413">
        <ele>178.6</ele>
        <time>2023-04-27T11:54:51Z</time>
      </trkpt>
      <trkpt lat="48.73127" lon="1.80415">
        <ele>178.8</ele>
        <time>2023-04-27T11:54:53Z</time>
      </trkpt>
      <trkpt lat="48.73129" lon="1.80416">
        <ele>179</ele>
        <time>2023-04-27T11:54:55Z</time>
      </trkpt>
      <trkpt lat="48.73131" lon="1.80418">
        <ele>179</ele>
        <time>2023-04-27T11:54:57Z</time>
      </trkpt>
      <trkpt lat="48.73133" lon="1.8042">
        <ele>179</ele>
        <time>2023-04-27T11:54:59Z</time>
      </trkpt>
      <trkpt lat="48.73135" lon="1.80422">
        <ele>179</ele>
        <time>2023-04-27T11:55:01Z</time>
      </trkpt>
      <trkpt lat="48.73137" lon="1.80424">
        <ele>178.8</ele>
        <time>2023-04-27T11:55:03Z</time>
      </trkpt>
      <trkpt lat="48.7314" lon="1.80426">
        <ele>178.8</ele>
        <time>2023-04-27T11:55:05Z</time>
      </trkpt>
      <trkpt lat="48.73141" lon="1.80428">
        <ele>178.8</ele>
        <time>2023-04-27T11:55:07Z</time>
      </trkpt>
      <trkpt lat="48.73143" lon="1.80429">
        <ele>179</ele>
        <time>2023-04-27T11:55:09Z</time>
      </trkpt>
      <trkpt lat="48.73145" lon="1.80431">
        <ele>179.2</ele>
        <time>2023-04-27T11:55:11Z</time>
      </trkpt>
      <trkpt lat="48.73148" lon="1.80434">
        <ele>179.4</ele>
        <time>2023-04-27T11:55:13Z</time>
      </trkpt>
      <trkpt lat="48.7315" lon="1.80437">
        <ele>179.6</ele>
        <time>2023-04-27T11:55:15Z</time>
      </trkpt>
      <trkpt lat="48.73152" lon="1.8044">
        <ele>179.8</ele>
        <time>2023-04-27T11:55:17Z</time>
      </trkpt>
      <trkpt lat="48.73155" lon="1.80442">
        <ele>180</ele>
        <time>2023-04-27T11:55:19Z</time>
      </trkpt>
      <trkpt lat="48.73157" lon="1.80445">
        <ele>180</ele>
        <time>2023-04-27T11:55:21Z</time>
      </trkpt>
      <trkpt lat="48.73158" lon="1.80446">
        <ele>180</ele>
        <time>2023-04-27T11:55:22Z</time>
      </trkpt>
      <trkpt lat="48.73161" lon="1.80449">
        <ele>180.2</ele>
        <time>2023-04-27T11:55:24Z</time>
      </trkpt>
      <trkpt lat="48.73163" lon="1.80451">
        <ele>180.4</ele>
        <time>2023-04-27T11:55:25Z</time>
      </trkpt>
      <trkpt lat="48.73165" lon="1.80453">
        <ele>180.4</ele>
        <time>2023-04-27T11:55:27Z</time>
      </trkpt>
      <trkpt lat="48.73168" lon="1.80456">
        <ele>180.6</ele>
        <time>2023-04-27T11:55:29Z</time>
      </trkpt>
      <trkpt lat="48.73171" lon="1.80458">
        <ele>180.6</ele>
        <time>2023-04-27T11:55:31Z</time>
      </trkpt>
      <trkpt lat="48.73173" lon="1.8046">
        <ele>180.6</ele>
        <time>2023-04-27T11:55:33Z</time>
      </trkpt>
      <trkpt lat="48.73175" lon="1.80462">
        <ele>180.6</ele>
        <time>2023-04-27T11:55:35Z</time>
      </trkpt>
      <trkpt lat="48.73178" lon="1.80465">
        <ele>180.6</ele>
        <time>2023-04-27T11:55:37Z</time>
      </trkpt>
      <trkpt lat="48.73181" lon="1.80468">
        <ele>180.4</ele>
        <time>2023-04-27T11:55:39Z</time>
      </trkpt>
      <trkpt lat="48.73183" lon="1.80469">
        <ele>180.4</ele>
        <time>2023-04-27T11:55:40Z</time>
      </trkpt>
      <trkpt lat="48.73185" lon="1.80472">
        <ele>180.6</ele>
        <time>2023-04-27T11:55:42Z</time>
      </trkpt>
      <trkpt lat="48.73187" lon="1.80474">
        <ele>180.6</ele>
        <time>2023-04-27T11:55:43Z</time>
      </trkpt>
      <trkpt lat="48.73189" lon="1.80476">
        <ele>180.8</ele>
        <time>2023-04-27T11:55:45Z</time>
      </trkpt>
      <trkpt lat="48.73192" lon="1.80479">
        <ele>180.8</ele>
        <time>2023-04-27T11:55:47Z</time>
      </trkpt>
      <trkpt lat="48.73195" lon="1.80482">
        <ele>180.8</ele>
        <time>2023-04-27T11:55:49Z</time>
      </trkpt>
      <trkpt lat="48.73196" lon="1.80483">
        <ele>180.8</ele>
        <time>2023-04-27T11:55:50Z</time>
      </trkpt>
      <trkpt lat="48.73199" lon="1.80485">
        <ele>180.6</ele>
        <time>2023-04-27T11:55:52Z</time>
      </trkpt>
      <trkpt lat="48.73201" lon="1.80488">
        <ele>180.6</ele>
        <time>2023-04-27T11:55:54Z</time>
      </trkpt>
      <trkpt lat="48.73204" lon="1.8049">
        <ele>180.4</ele>
        <time>2023-04-27T11:55:56Z</time>
      </trkpt>
      <trkpt lat="48.73206" lon="1.80493">
        <ele>180.2</ele>
        <time>2023-04-27T11:55:58Z</time>
      </trkpt>
      <trkpt lat="48.73209" lon="1.80495">
        <ele>180.2</ele>
        <time>2023-04-27T11:56:00Z</time>
      </trkpt>
      <trkpt lat="48.73212" lon="1.80498">
        <ele>180.2</ele>
        <time>2023-04-27T11:56:02Z</time>
        <extensions>
          <gpxtpx:TrackPointExtension xmlns:gpxtpx="http://www.garmin.com/xmlschemas/TrackPointExtension/v1">
            <gpxtpx:hr>94</gpxtpx:hr>
          </gpxtpx:TrackPointExtension>
        </extensions>
      </trkpt>
      <trkpt lat="48.73214" lon="1.805">
        <ele>180.2</ele>
        <time>2023-04-27T11:56:04Z</time>
        <extensions>
          <gpxtpx:TrackPointExtension xmlns:gpxtpx="http://www.garmin.com/xmlschemas/TrackPointExtension/v1">
            <gpxtpx:hr>93</gpxtpx:hr>
          </gpxtpx:TrackPointExtension>
        </extensions>
      </trkpt>
      <trkpt lat="48.73216" lon="1.80502">
        <ele>180.2</ele>
        <time>2023-04-27T11:56:06Z</time>
        <extensions>
          <gpxtpx:TrackPointExtension xmlns:gpxtpx="http://www.garmin.com/xmlschemas/TrackPointExtension/v1">
            <gpxtpx:hr>93</gpxtpx:hr>
          </gpxtpx:TrackPointExtension>
        </extensions>
      </trkpt>
      <trkpt lat="48.73219" lon="1.80504">
        <ele>180.2</ele>
        <time>2023-04-27T11:56:08Z</time>
        <extensions>
          <gpxtpx:TrackPointExtension xmlns:gpxtpx="http://www.garmin.com/xmlschemas/TrackPointExtension/v1">
            <gpxtpx:hr>93</gpxtpx:hr>
          </gpxtpx:TrackPointExtension>
        </extensions>
      </trkpt>
      <trkpt lat="48.73221" lon="1.80506">
        <ele>180.2</ele>
        <time>2023-04-27T11:56:10Z</time>
        <extensions>
          <gpxtpx:TrackPointExtension xmlns:gpxtpx="http://www.garmin.com/xmlschemas/TrackPointExtension/v1">
            <gpxtpx:hr>93</gpxtpx:hr>
          </gpxtpx:TrackPointExtension>
        </extensions>
      </trkpt>
      <trkpt lat="48.73223" lon="1.80508">
        <ele>180.2</ele>
        <time>2023-04-27T11:56:12Z</time>
        <extensions>
          <gpxtpx:TrackPointExtension xmlns:gpxtpx="http://www.garmin.com/xmlschemas/TrackPointExtension/v1">
            <gpxtpx:hr>93</gpxtpx:hr>
          </gpxtpx:TrackPointExtension>
        </extensions>
      </trkpt>
      <trkpt lat="48.73225" lon="1.80511">
        <ele>180.4</ele>
        <time>2023-04-27T11:56:14Z</time>
        <extensions>
          <gpxtpx:TrackPointExtension xmlns:gpxtpx="http://www.garmin.com/xmlschemas/TrackPointExtension/v1">
            <gpxtpx:hr>93</gpxtpx:hr>
          </gpxtpx:TrackPointExtension>
        </extensions>
      </trkpt>
      <trkpt lat="48.73227" lon="1.80513">
        <ele>180.6</ele>
        <time>2023-04-27T11:56:16Z</time>
        <extensions>
          <gpxtpx:TrackPointExtension xmlns:gpxtpx="http://www.garmin.com/xmlschemas/TrackPointExtension/v1">
            <gpxtpx:hr>93</gpxtpx:hr>
          </gpxtpx:TrackPointExtension>
        </extensions>
      </trkpt>
      <trkpt lat="48.73229" lon="1.80514">
        <ele>180.8</ele>
        <time>2023-04-27T11:56:18Z</time>
        <extensions>
          <gpxtpx:TrackPointExtension xmlns:gpxtpx="http://www.garmin.com/xmlschemas/TrackPointExtension/v1">
            <gpxtpx:hr>93</gpxtpx:hr>
          </gpxtpx:TrackPointExtension>
        </extensions>
      </trkpt>
      <trkpt lat="48.73231" lon="1.80515">
        <ele>181.2</ele>
        <time>2023-04-27T11:56:20Z</time>
        <extensions>
          <gpxtpx:TrackPointExtension xmlns:gpxtpx="http://www.garmin.com/xmlschemas/TrackPointExtension/v1">
            <gpxtpx:hr>94</gpxtpx:hr>
          </gpxtpx:TrackPointExtension>
        </extensions>
      </trkpt>
      <trkpt lat="48.73233" lon="1.80516">
        <ele>181.4</ele>
        <time>2023-04-27T11:56:22Z</time>
      </trkpt>
      <trkpt lat="48.73236" lon="1.80517">
        <ele>181.6</ele>
        <time>2023-04-27T11:56:24Z</time>
      </trkpt>
      <trkpt lat="48.73238" lon="1.80518">
        <ele>181.8</ele>
        <time>2023-04-27T11:56:26Z</time>
      </trkpt>
      <trkpt lat="48.7324" lon="1.80519">
        <ele>182.2</ele>
        <time>2023-04-27T11:56:28Z</time>
      </trkpt>
      <trkpt lat="48.73243" lon="1.80521">
        <ele>182.4</ele>
        <time>2023-04-27T11:56:31Z</time>
      </trkpt>
      <trkpt lat="48.73246" lon="1.80523">
        <ele>182.8</ele>
        <time>2023-04-27T11:56:34Z</time>
      </trkpt>
      <trkpt lat="48.73248" lon="1.80524">
        <ele>182.8</ele>
        <time>2023-04-27T11:56:36Z</time>
      </trkpt>
      <trkpt lat="48.7325" lon="1.80526">
        <ele>182.8</ele>
        <time>2023-04-27T11:56:38Z</time>
      </trkpt>
      <trkpt lat="48.73252" lon="1.80529">
        <ele>183</ele>
        <time>2023-04-27T11:56:40Z</time>
      </trkpt>
      <trkpt lat="48.73255" lon="1.8053">
        <ele>183</ele>
        <time>2023-04-27T11:56:42Z</time>
      </trkpt>
      <trkpt lat="48.73257" lon="1.80532">
        <ele>183.2</ele>
        <time>2023-04-27T11:56:44Z</time>
      </trkpt>
      <trkpt lat="48.73259" lon="1.80533">
        <ele>183.2</ele>
        <time>2023-04-27T11:56:46Z</time>
      </trkpt>
      <trkpt lat="48.73262" lon="1.80535">
        <ele>183.4</ele>
        <time>2023-04-27T11:56:48Z</time>
      </trkpt>
      <trkpt lat="48.73265" lon="1.80538">
        <ele>183.2</ele>
        <time>2023-04-27T11:56:50Z</time>
      </trkpt>
      <trkpt lat="48.73266" lon="1.8054">
        <ele>183.2</ele>
        <time>2023-04-27T11:56:51Z</time>
      </trkpt>
      <trkpt lat="48.73268" lon="1.80542">
        <ele>183.2</ele>
        <time>2023-04-27T11:56:52Z</time>
      </trkpt>
      <trkpt lat="48.7327" lon="1.80544">
        <ele>183.2</ele>
        <time>2023-04-27T11:56:54Z</time>
      </trkpt>
      <trkpt lat="48.73273" lon="1.80546">
        <ele>183</ele>
        <time>2023-04-27T11:56:56Z</time>
      </trkpt>
      <trkpt lat="48.73274" lon="1.80548">
        <ele>183</ele>
        <time>2023-04-27T11:56:58Z</time>
      </trkpt>
      <trkpt lat="48.73276" lon="1.8055">
        <ele>183</ele>
        <time>2023-04-27T11:57:02Z</time>
      </trkpt>
      <trkpt lat="48.73278" lon="1.80552">
        <ele>183</ele>
        <time>2023-04-27T11:57:06Z</time>
      </trkpt>
      <trkpt lat="48.7328" lon="1.80553">
        <ele>183</ele>
        <time>2023-04-27T11:57:08Z</time>
      </trkpt>
      <trkpt lat="48.73283" lon="1.80555">
        <ele>183</ele>
        <time>2023-04-27T11:57:10Z</time>
      </trkpt>
      <trkpt lat="48.73285" lon="1.80558">
        <ele>183</ele>
        <time>2023-04-27T11:57:12Z</time>
      </trkpt>
      <trkpt lat="48.73287" lon="1.80561">
        <ele>183.2</ele>
        <time>2023-04-27T11:57:14Z</time>
      </trkpt>
      <trkpt lat="48.73289" lon="1.80563">
        <ele>183.4</ele>
        <time>2023-04-27T11:57:16Z</time>
      </trkpt>
      <trkpt lat="48.73291" lon="1.80565">
        <ele>183.6</ele>
        <time>2023-04-27T11:57:18Z</time>
      </trkpt>
      <trkpt lat="48.73294" lon="1.80567">
        <ele>183.6</ele>
        <time>2023-04-27T11:57:20Z</time>
      </trkpt>
      <trkpt lat="48.73296" lon="1.8057">
        <ele>183.6</ele>
        <time>2023-04-27T11:57:22Z</time>
      </trkpt>
      <trkpt lat="48.733" lon="1.80572">
        <ele>183.8</ele>
        <time>2023-04-27T11:57:24Z</time>
      </trkpt>
      <trkpt lat="48.73303" lon="1.80574">
        <ele>183.6</ele>
        <time>2023-04-27T11:57:26Z</time>
      </trkpt>
      <trkpt lat="48.73304" lon="1.80575">
        <ele>183.8</ele>
        <time>2023-04-27T11:57:27Z</time>
      </trkpt>
      <trkpt lat="48.73306" lon="1.80577">
        <ele>183.8</ele>
        <time>2023-04-27T11:57:28Z</time>
      </trkpt>
      <trkpt lat="48.73308" lon="1.80582">
        <ele>183.8</ele>
        <time>2023-04-27T11:57:30Z</time>
      </trkpt>
      <trkpt lat="48.7331" lon="1.80584">
        <ele>183.8</ele>
        <time>2023-04-27T11:57:31Z</time>
      </trkpt>
      <trkpt lat="48.73312" lon="1.80587">
        <ele>184</ele>
        <time>2023-04-27T11:57:33Z</time>
      </trkpt>
      <trkpt lat="48.73314" lon="1.80588">
        <ele>184.2</ele>
        <time>2023-04-27T11:57:35Z</time>
      </trkpt>
      <trkpt lat="48.73316" lon="1.80589">
        <ele>184.4</ele>
        <time>2023-04-27T11:57:37Z</time>
        <extensions>
          <gpxtpx:TrackPointExtension xmlns:gpxtpx="http://www.garmin.com/xmlschemas/TrackPointExtension/v1">
            <gpxtpx:hr>96</gpxtpx:hr>
          </gpxtpx:TrackPointExtension>
        </extensions>
      </trkpt>
      <trkpt lat="48.73318" lon="1.80589">
        <ele>184.6</ele>
        <time>2023-04-27T11:57:39Z</time>
        <extensions>
          <gpxtpx:TrackPointExtension xmlns:gpxtpx="http://www.garmin.com/xmlschemas/TrackPointExtension/v1">
            <gpxtpx:hr>96</gpxtpx:hr>
          </gpxtpx:TrackPointExtension>
        </extensions>
      </trkpt>
      <trkpt lat="48.7332" lon="1.8059">
        <ele>184.6</ele>
        <time>2023-04-27T11:57:41Z</time>
        <extensions>
          <gpxtpx:TrackPointExtension xmlns:gpxtpx="http://www.garmin.com/xmlschemas/TrackPointExtension/v1">
            <gpxtpx:hr>96</gpxtpx:hr>
          </gpxtpx:TrackPointExtension>
        </extensions>
      </trkpt>
      <trkpt lat="48.73322" lon="1.80592">
        <ele>184.6</ele>
        <time>2023-04-27T11:57:43Z</time>
        <extensions>
          <gpxtpx:TrackPointExtension xmlns:gpxtpx="http://www.garmin.com/xmlschemas/TrackPointExtension/v1">
            <gpxtpx:hr>96</gpxtpx:hr>
          </gpxtpx:TrackPointExtension>
        </extensions>
      </trkpt>
      <trkpt lat="48.73325" lon="1.80594">
        <ele>184.6</ele>
        <time>2023-04-27T11:57:45Z</time>
        <extensions>
          <gpxtpx:TrackPointExtension xmlns:gpxtpx="http://www.garmin.com/xmlschemas/TrackPointExtension/v1">
            <gpxtpx:hr>96</gpxtpx:hr>
          </gpxtpx:TrackPointExtension>
        </extensions>
      </trkpt>
      <trkpt lat="48.73328" lon="1.80597">
        <ele>184.6</ele>
        <time>2023-04-27T11:57:47Z</time>
        <extensions>
          <gpxtpx:TrackPointExtension xmlns:gpxtpx="http://www.garmin.com/xmlschemas/TrackPointExtension/v1">
            <gpxtpx:hr>96</gpxtpx:hr>
          </gpxtpx:TrackPointExtension>
        </extensions>
      </trkpt>
      <trkpt lat="48.7333" lon="1.80599">
        <ele>184.8</ele>
        <time>2023-04-27T11:57:49Z</time>
        <extensions>
          <gpxtpx:TrackPointExtension xmlns:gpxtpx="http://www.garmin.com/xmlschemas/TrackPointExtension/v1">
            <gpxtpx:hr>96</gpxtpx:hr>
          </gpxtpx:TrackPointExtension>
        </extensions>
      </trkpt>
      <trkpt lat="48.73332" lon="1.80601">
        <ele>185</ele>
        <time>2023-04-27T11:57:51Z</time>
        <extensions>
          <gpxtpx:TrackPointExtension xmlns:gpxtpx="http://www.garmin.com/xmlschemas/TrackPointExtension/v1">
            <gpxtpx:hr>96</gpxtpx:hr>
          </gpxtpx:TrackPointExtension>
        </extensions>
      </trkpt>
      <trkpt lat="48.73334" lon="1.80602">
        <ele>185.2</ele>
        <time>2023-04-27T11:57:53Z</time>
        <extensions>
          <gpxtpx:TrackPointExtension xmlns:gpxtpx="http://www.garmin.com/xmlschemas/TrackPointExtension/v1">
            <gpxtpx:hr>96</gpxtpx:hr>
          </gpxtpx:TrackPointExtension>
        </extensions>
      </trkpt>
      <trkpt lat="48.73337" lon="1.80604">
        <ele>185.8</ele>
        <time>2023-04-27T11:57:56Z</time>
        <extensions>
          <gpxtpx:TrackPointExtension xmlns:gpxtpx="http://www.garmin.com/xmlschemas/TrackPointExtension/v1">
            <gpxtpx:hr>98</gpxtpx:hr>
          </gpxtpx:TrackPointExtension>
        </extensions>
      </trkpt>
      <trkpt lat="48.73339" lon="1.80605">
        <ele>186</ele>
        <time>2023-04-27T11:57:58Z</time>
        <extensions>
          <gpxtpx:TrackPointExtension xmlns:gpxtpx="http://www.garmin.com/xmlschemas/TrackPointExtension/v1">
            <gpxtpx:hr>99</gpxtpx:hr>
          </gpxtpx:TrackPointExtension>
        </extensions>
      </trkpt>
      <trkpt lat="48.73341" lon="1.80607">
        <ele>186</ele>
        <time>2023-04-27T11:58:00Z</time>
        <extensions>
          <gpxtpx:TrackPointExtension xmlns:gpxtpx="http://www.garmin.com/xmlschemas/TrackPointExtension/v1">
            <gpxtpx:hr>100</gpxtpx:hr>
          </gpxtpx:TrackPointExtension>
        </extensions>
      </trkpt>
      <trkpt lat="48.73344" lon="1.80609">
        <ele>186</ele>
        <time>2023-04-27T11:58:02Z</time>
        <extensions>
          <gpxtpx:TrackPointExtension xmlns:gpxtpx="http://www.garmin.com/xmlschemas/TrackPointExtension/v1">
            <gpxtpx:hr>100</gpxtpx:hr>
          </gpxtpx:TrackPointExtension>
        </extensions>
      </trkpt>
      <trkpt lat="48.73345" lon="1.8061">
        <ele>185.8</ele>
        <time>2023-04-27T11:58:03Z</time>
        <extensions>
          <gpxtpx:TrackPointExtension xmlns:gpxtpx="http://www.garmin.com/xmlschemas/TrackPointExtension/v1">
            <gpxtpx:hr>100</gpxtpx:hr>
          </gpxtpx:TrackPointExtension>
        </extensions>
      </trkpt>
      <trkpt lat="48.73348" lon="1.80613">
        <ele>185.8</ele>
        <time>2023-04-27T11:58:05Z</time>
        <extensions>
          <gpxtpx:TrackPointExtension xmlns:gpxtpx="http://www.garmin.com/xmlschemas/TrackPointExtension/v1">
            <gpxtpx:hr>100</gpxtpx:hr>
          </gpxtpx:TrackPointExtension>
        </extensions>
      </trkpt>
      <trkpt lat="48.73349" lon="1.80614">
        <ele>185.8</ele>
        <time>2023-04-27T11:58:06Z</time>
        <extensions>
          <gpxtpx:TrackPointExtension xmlns:gpxtpx="http://www.garmin.com/xmlschemas/TrackPointExtension/v1">
            <gpxtpx:hr>101</gpxtpx:hr>
          </gpxtpx:TrackPointExtension>
        </extensions>
      </trkpt>
      <trkpt lat="48.73352" lon="1.80617">
        <ele>185.8</ele>
        <time>2023-04-27T11:58:08Z</time>
        <extensions>
          <gpxtpx:TrackPointExtension xmlns:gpxtpx="http://www.garmin.com/xmlschemas/TrackPointExtension/v1">
            <gpxtpx:hr>101</gpxtpx:hr>
          </gpxtpx:TrackPointExtension>
        </extensions>
      </trkpt>
      <trkpt lat="48.73354" lon="1.8062">
        <ele>185.8</ele>
        <time>2023-04-27T11:58:10Z</time>
        <extensions>
          <gpxtpx:TrackPointExtension xmlns:gpxtpx="http://www.garmin.com/xmlschemas/TrackPointExtension/v1">
            <gpxtpx:hr>101</gpxtpx:hr>
          </gpxtpx:TrackPointExtension>
        </extensions>
      </trkpt>
      <trkpt lat="48.73355" lon="1.80622">
        <ele>186</ele>
        <time>2023-04-27T11:58:12Z</time>
        <extensions>
          <gpxtpx:TrackPointExtension xmlns:gpxtpx="http://www.garmin.com/xmlschemas/TrackPointExtension/v1">
            <gpxtpx:hr>101</gpxtpx:hr>
          </gpxtpx:TrackPointExtension>
        </extensions>
      </trkpt>
      <trkpt lat="48.73356" lon="1.80624">
        <ele>186</ele>
        <time>2023-04-27T11:58:14Z</time>
        <extensions>
          <gpxtpx:TrackPointExtension xmlns:gpxtpx="http://www.garmin.com/xmlschemas/TrackPointExtension/v1">
            <gpxtpx:hr>102</gpxtpx:hr>
          </gpxtpx:TrackPointExtension>
        </extensions>
      </trkpt>
      <trkpt lat="48.73358" lon="1.80627">
        <ele>186</ele>
        <time>2023-04-27T11:58:16Z</time>
        <extensions>
          <gpxtpx:TrackPointExtension xmlns:gpxtpx="http://www.garmin.com/xmlschemas/TrackPointExtension/v1">
            <gpxtpx:hr>102</gpxtpx:hr>
          </gpxtpx:TrackPointExtension>
        </extensions>
      </trkpt>
      <trkpt lat="48.7336" lon="1.80629">
        <ele>186.2</ele>
        <time>2023-04-27T11:58:18Z</time>
        <extensions>
          <gpxtpx:TrackPointExtension xmlns:gpxtpx="http://www.garmin.com/xmlschemas/TrackPointExtension/v1">
            <gpxtpx:hr>102</gpxtpx:hr>
          </gpxtpx:TrackPointExtension>
        </extensions>
      </trkpt>
      <trkpt lat="48.73362" lon="1.80631">
        <ele>186.4</ele>
        <time>2023-04-27T11:58:20Z</time>
        <extensions>
          <gpxtpx:TrackPointExtension xmlns:gpxtpx="http://www.garmin.com/xmlschemas/TrackPointExtension/v1">
            <gpxtpx:hr>102</gpxtpx:hr>
          </gpxtpx:TrackPointExtension>
        </extensions>
      </trkpt>
      <trkpt lat="48.73364" lon="1.80634">
        <ele>186.4</ele>
        <time>2023-04-27T11:58:22Z</time>
        <extensions>
          <gpxtpx:TrackPointExtension xmlns:gpxtpx="http://www.garmin.com/xmlschemas/TrackPointExtension/v1">
            <gpxtpx:hr>102</gpxtpx:hr>
          </gpxtpx:TrackPointExtension>
        </extensions>
      </trkpt>
      <trkpt lat="48.73367" lon="1.80636">
        <ele>186.6</ele>
        <time>2023-04-27T11:58:24Z</time>
        <extensions>
          <gpxtpx:TrackPointExtension xmlns:gpxtpx="http://www.garmin.com/xmlschemas/TrackPointExtension/v1">
            <gpxtpx:hr>102</gpxtpx:hr>
          </gpxtpx:TrackPointExtension>
        </extensions>
      </trkpt>
      <trkpt lat="48.7337" lon="1.80639">
        <ele>186.8</ele>
        <time>2023-04-27T11:58:26Z</time>
        <extensions>
          <gpxtpx:TrackPointExtension xmlns:gpxtpx="http://www.garmin.com/xmlschemas/TrackPointExtension/v1">
            <gpxtpx:hr>102</gpxtpx:hr>
          </gpxtpx:TrackPointExtension>
        </extensions>
      </trkpt>
      <trkpt lat="48.73371" lon="1.8064">
        <ele>186.8</ele>
        <time>2023-04-27T11:58:27Z</time>
        <extensions>
          <gpxtpx:TrackPointExtension xmlns:gpxtpx="http://www.garmin.com/xmlschemas/TrackPointExtension/v1">
            <gpxtpx:hr>102</gpxtpx:hr>
          </gpxtpx:TrackPointExtension>
        </extensions>
      </trkpt>
      <trkpt lat="48.73373" lon="1.80643">
        <ele>187.2</ele>
        <time>2023-04-27T11:58:29Z</time>
        <extensions>
          <gpxtpx:TrackPointExtension xmlns:gpxtpx="http://www.garmin.com/xmlschemas/TrackPointExtension/v1">
            <gpxtpx:hr>102</gpxtpx:hr>
          </gpxtpx:TrackPointExtension>
        </extensions>
      </trkpt>
      <trkpt lat="48.73376" lon="1.80645">
        <ele>187.4</ele>
        <time>2023-04-27T11:58:31Z</time>
        <extensions>
          <gpxtpx:TrackPointExtension xmlns:gpxtpx="http://www.garmin.com/xmlschemas/TrackPointExtension/v1">
            <gpxtpx:hr>102</gpxtpx:hr>
          </gpxtpx:TrackPointExtension>
        </extensions>
      </trkpt>
      <trkpt lat="48.73378" lon="1.80647">
        <ele>187.6</ele>
        <time>2023-04-27T11:58:33Z</time>
        <extensions>
          <gpxtpx:TrackPointExtension xmlns:gpxtpx="http://www.garmin.com/xmlschemas/TrackPointExtension/v1">
            <gpxtpx:hr>102</gpxtpx:hr>
          </gpxtpx:TrackPointExtension>
        </extensions>
      </trkpt>
      <trkpt lat="48.7338" lon="1.80648">
        <ele>187.8</ele>
        <time>2023-04-27T11:58:35Z</time>
        <extensions>
          <gpxtpx:TrackPointExtension xmlns:gpxtpx="http://www.garmin.com/xmlschemas/TrackPointExtension/v1">
            <gpxtpx:hr>102</gpxtpx:hr>
          </gpxtpx:TrackPointExtension>
        </extensions>
      </trkpt>
      <trkpt lat="48.73383" lon="1.8065">
        <ele>188.2</ele>
        <time>2023-04-27T11:58:37Z</time>
        <extensions>
          <gpxtpx:TrackPointExtension xmlns:gpxtpx="http://www.garmin.com/xmlschemas/TrackPointExtension/v1">
            <gpxtpx:hr>102</gpxtpx:hr>
          </gpxtpx:TrackPointExtension>
        </extensions>
      </trkpt>
      <trkpt lat="48.73385" lon="1.80652">
        <ele>188.6</ele>
        <time>2023-04-27T11:58:39Z</time>
        <extensions>
          <gpxtpx:TrackPointExtension xmlns:gpxtpx="http://www.garmin.com/xmlschemas/TrackPointExtension/v1">
            <gpxtpx:hr>102</gpxtpx:hr>
          </gpxtpx:TrackPointExtension>
        </extensions>
      </trkpt>
      <trkpt lat="48.73387" lon="1.80653">
        <ele>189.2</ele>
        <time>2023-04-27T11:58:41Z</time>
        <extensions>
          <gpxtpx:TrackPointExtension xmlns:gpxtpx="http://www.garmin.com/xmlschemas/TrackPointExtension/v1">
            <gpxtpx:hr>103</gpxtpx:hr>
          </gpxtpx:TrackPointExtension>
        </extensions>
      </trkpt>
      <trkpt lat="48.7339" lon="1.80654">
        <ele>189.4</ele>
        <time>2023-04-27T11:58:43Z</time>
        <extensions>
          <gpxtpx:TrackPointExtension xmlns:gpxtpx="http://www.garmin.com/xmlschemas/TrackPointExtension/v1">
            <gpxtpx:hr>103</gpxtpx:hr>
          </gpxtpx:TrackPointExtension>
        </extensions>
      </trkpt>
      <trkpt lat="48.73392" lon="1.80657">
        <ele>189.6</ele>
        <time>2023-04-27T11:58:45Z</time>
        <extensions>
          <gpxtpx:TrackPointExtension xmlns:gpxtpx="http://www.garmin.com/xmlschemas/TrackPointExtension/v1">
            <gpxtpx:hr>103</gpxtpx:hr>
          </gpxtpx:TrackPointExtension>
        </extensions>
      </trkpt>
      <trkpt lat="48.73394" lon="1.80658">
        <ele>189.8</ele>
        <time>2023-04-27T11:58:46Z</time>
        <extensions>
          <gpxtpx:TrackPointExtension xmlns:gpxtpx="http://www.garmin.com/xmlschemas/TrackPointExtension/v1">
            <gpxtpx:hr>103</gpxtpx:hr>
          </gpxtpx:TrackPointExtension>
        </extensions>
      </trkpt>
      <trkpt lat="48.73396" lon="1.80661">
        <ele>189.8</ele>
        <time>2023-04-27T11:58:48Z</time>
        <extensions>
          <gpxtpx:TrackPointExtension xmlns:gpxtpx="http://www.garmin.com/xmlschemas/TrackPointExtension/v1">
            <gpxtpx:hr>103</gpxtpx:hr>
          </gpxtpx:TrackPointExtension>
        </extensions>
      </trkpt>
      <trkpt lat="48.73399" lon="1.80663">
        <ele>190</ele>
        <time>2023-04-27T11:58:50Z</time>
        <extensions>
          <gpxtpx:TrackPointExtension xmlns:gpxtpx="http://www.garmin.com/xmlschemas/TrackPointExtension/v1">
            <gpxtpx:hr>103</gpxtpx:hr>
          </gpxtpx:TrackPointExtension>
        </extensions>
      </trkpt>
      <trkpt lat="48.73401" lon="1.80666">
        <ele>190.2</ele>
        <time>2023-04-27T11:58:52Z</time>
        <extensions>
          <gpxtpx:TrackPointExtension xmlns:gpxtpx="http://www.garmin.com/xmlschemas/TrackPointExtension/v1">
            <gpxtpx:hr>103</gpxtpx:hr>
          </gpxtpx:TrackPointExtension>
        </extensions>
      </trkpt>
      <trkpt lat="48.73403" lon="1.80668">
        <ele>190.4</ele>
        <time>2023-04-27T11:58:54Z</time>
        <extensions>
          <gpxtpx:TrackPointExtension xmlns:gpxtpx="http://www.garmin.com/xmlschemas/TrackPointExtension/v1">
            <gpxtpx:hr>103</gpxtpx:hr>
          </gpxtpx:TrackPointExtension>
        </extensions>
      </trkpt>
      <trkpt lat="48.73405" lon="1.8067">
        <ele>190.6</ele>
        <time>2023-04-27T11:58:56Z</time>
        <extensions>
          <gpxtpx:TrackPointExtension xmlns:gpxtpx="http://www.garmin.com/xmlschemas/TrackPointExtension/v1">
            <gpxtpx:hr>102</gpxtpx:hr>
          </gpxtpx:TrackPointExtension>
        </extensions>
      </trkpt>
      <trkpt lat="48.73406" lon="1.80673">
        <ele>191</ele>
        <time>2023-04-27T11:59:00Z</time>
        <extensions>
          <gpxtpx:TrackPointExtension xmlns:gpxtpx="http://www.garmin.com/xmlschemas/TrackPointExtension/v1">
            <gpxtpx:hr>102</gpxtpx:hr>
          </gpxtpx:TrackPointExtension>
        </extensions>
      </trkpt>
      <trkpt lat="48.73407" lon="1.80675">
        <ele>191.4</ele>
        <time>2023-04-27T11:59:04Z</time>
      </trkpt>
      <trkpt lat="48.7341" lon="1.80677">
        <ele>191.6</ele>
        <time>2023-04-27T11:59:06Z</time>
      </trkpt>
      <trkpt lat="48.73413" lon="1.80679">
        <ele>191.8</ele>
        <time>2023-04-27T11:59:08Z</time>
      </trkpt>
      <trkpt lat="48.73416" lon="1.80681">
        <ele>192</ele>
        <time>2023-04-27T11:59:10Z</time>
      </trkpt>
      <trkpt lat="48.73418" lon="1.80682">
        <ele>192.2</ele>
        <time>2023-04-27T11:59:12Z</time>
      </trkpt>
      <trkpt lat="48.7342" lon="1.80683">
        <ele>192.2</ele>
        <time>2023-04-27T11:59:14Z</time>
      </trkpt>
      <trkpt lat="48.73422" lon="1.80686">
        <ele>192.2</ele>
        <time>2023-04-27T11:59:16Z</time>
      </trkpt>
      <trkpt lat="48.73425" lon="1.80688">
        <ele>192.2</ele>
        <time>2023-04-27T11:59:18Z</time>
      </trkpt>
      <trkpt lat="48.73427" lon="1.8069">
        <ele>192.2</ele>
        <time>2023-04-27T11:59:20Z</time>
      </trkpt>
      <trkpt lat="48.73429" lon="1.80692">
        <ele>192.2</ele>
        <time>2023-04-27T11:59:22Z</time>
      </trkpt>
      <trkpt lat="48.73431" lon="1.80693">
        <ele>192.4</ele>
        <time>2023-04-27T11:59:24Z</time>
      </trkpt>
      <trkpt lat="48.73433" lon="1.80694">
        <ele>192.4</ele>
        <time>2023-04-27T11:59:26Z</time>
      </trkpt>
      <trkpt lat="48.73436" lon="1.80696">
        <ele>192.4</ele>
        <time>2023-04-27T11:59:28Z</time>
      </trkpt>
      <trkpt lat="48.73438" lon="1.80698">
        <ele>192.2</ele>
        <time>2023-04-27T11:59:30Z</time>
      </trkpt>
      <trkpt lat="48.7344" lon="1.807">
        <ele>192.2</ele>
        <time>2023-04-27T11:59:32Z</time>
      </trkpt>
      <trkpt lat="48.73443" lon="1.80703">
        <ele>192.2</ele>
        <time>2023-04-27T11:59:34Z</time>
      </trkpt>
      <trkpt lat="48.73445" lon="1.80707">
        <ele>192.2</ele>
        <time>2023-04-27T11:59:36Z</time>
      </trkpt>
      <trkpt lat="48.73446" lon="1.80708">
        <ele>192.2</ele>
        <time>2023-04-27T11:59:37Z</time>
      </trkpt>
      <trkpt lat="48.73449" lon="1.80712">
        <ele>192.2</ele>
        <time>2023-04-27T11:59:39Z</time>
      </trkpt>
      <trkpt lat="48.73452" lon="1.80715">
        <ele>192.2</ele>
        <time>2023-04-27T11:59:41Z</time>
      </trkpt>
      <trkpt lat="48.73453" lon="1.80716">
        <ele>192</ele>
        <time>2023-04-27T11:59:42Z</time>
      </trkpt>
      <trkpt lat="48.73455" lon="1.80719">
        <ele>192</ele>
        <time>2023-04-27T11:59:44Z</time>
      </trkpt>
      <trkpt lat="48.73458" lon="1.80722">
        <ele>191.8</ele>
        <time>2023-04-27T11:59:46Z</time>
      </trkpt>
      <trkpt lat="48.73459" lon="1.80723">
        <ele>191.8</ele>
        <time>2023-04-27T11:59:48Z</time>
      </trkpt>
      <trkpt lat="48.73461" lon="1.80724">
        <ele>191.6</ele>
        <time>2023-04-27T11:59:50Z</time>
      </trkpt>
      <trkpt lat="48.73463" lon="1.80726">
        <ele>191.2</ele>
        <time>2023-04-27T11:59:52Z</time>
      </trkpt>
      <trkpt lat="48.73464" lon="1.80728">
        <ele>191</ele>
        <time>2023-04-27T11:59:54Z</time>
      </trkpt>
      <trkpt lat="48.73466" lon="1.80731">
        <ele>190.6</ele>
        <time>2023-04-27T11:59:56Z</time>
      </trkpt>
      <trkpt lat="48.73468" lon="1.80733">
        <ele>190.2</ele>
        <time>2023-04-27T11:59:58Z</time>
      </trkpt>
      <trkpt lat="48.7347" lon="1.80735">
        <ele>190.2</ele>
        <time>2023-04-27T12:00:00Z</time>
      </trkpt>
      <trkpt lat="48.73472" lon="1.80737">
        <ele>189.6</ele>
        <time>2023-04-27T12:00:02Z</time>
      </trkpt>
      <trkpt lat="48.73475" lon="1.8074">
        <ele>189.6</ele>
        <time>2023-04-27T12:00:04Z</time>
      </trkpt>
      <trkpt lat="48.73476" lon="1.80742">
        <ele>189.2</ele>
        <time>2023-04-27T12:00:06Z</time>
      </trkpt>
      <trkpt lat="48.73478" lon="1.80744">
        <ele>189</ele>
        <time>2023-04-27T12:00:08Z</time>
      </trkpt>
      <trkpt lat="48.73481" lon="1.80746">
        <ele>188.6</ele>
        <time>2023-04-27T12:00:10Z</time>
      </trkpt>
      <trkpt lat="48.73482" lon="1.80747">
        <ele>188.4</ele>
        <time>2023-04-27T12:00:11Z</time>
      </trkpt>
      <trkpt lat="48.73484" lon="1.80751">
        <ele>188</ele>
        <time>2023-04-27T12:00:13Z</time>
      </trkpt>
      <trkpt lat="48.73487" lon="1.80754">
        <ele>187.6</ele>
        <time>2023-04-27T12:00:15Z</time>
      </trkpt>
      <trkpt lat="48.73489" lon="1.80756">
        <ele>187</ele>
        <time>2023-04-27T12:00:17Z</time>
      </trkpt>
      <trkpt lat="48.73491" lon="1.80758">
        <ele>186.6</ele>
        <time>2023-04-27T12:00:18Z</time>
      </trkpt>
      <trkpt lat="48.73494" lon="1.8076">
        <ele>186</ele>
        <time>2023-04-27T12:00:20Z</time>
      </trkpt>
      <trkpt lat="48.73497" lon="1.80762">
        <ele>185.2</ele>
        <time>2023-04-27T12:00:22Z</time>
      </trkpt>
      <trkpt lat="48.73499" lon="1.80764">
        <ele>184.8</ele>
        <time>2023-04-27T12:00:23Z</time>
      </trkpt>
      <trkpt lat="48.73501" lon="1.80765">
        <ele>184.4</ele>
        <time>2023-04-27T12:00:24Z</time>
      </trkpt>
      <trkpt lat="48.73502" lon="1.80767">
        <ele>184</ele>
        <time>2023-04-27T12:00:25Z</time>
      </trkpt>
      <trkpt lat="48.73505" lon="1.8077">
        <ele>183.4</ele>
        <time>2023-04-27T12:00:27Z</time>
      </trkpt>
      <trkpt lat="48.73508" lon="1.80774">
        <ele>182.8</ele>
        <time>2023-04-27T12:00:29Z</time>
      </trkpt>
      <trkpt lat="48.73511" lon="1.80777">
        <ele>182.4</ele>
        <time>2023-04-27T12:00:31Z</time>
      </trkpt>
      <trkpt lat="48.73513" lon="1.80778">
        <ele>182.4</ele>
        <time>2023-04-27T12:00:32Z</time>
      </trkpt>
      <trkpt lat="48.73516" lon="1.80779">
        <ele>182.2</ele>
        <time>2023-04-27T12:00:34Z</time>
      </trkpt>
      <trkpt lat="48.73519" lon="1.8078">
        <ele>181.8</ele>
        <time>2023-04-27T12:00:36Z</time>
      </trkpt>
      <trkpt lat="48.73521" lon="1.80782">
        <ele>181.6</ele>
        <time>2023-04-27T12:00:38Z</time>
      </trkpt>
      <trkpt lat="48.73523" lon="1.80784">
        <ele>181.4</ele>
        <time>2023-04-27T12:00:39Z</time>
      </trkpt>
      <trkpt lat="48.73524" lon="1.80786">
        <ele>181.2</ele>
        <time>2023-04-27T12:00:40Z</time>
      </trkpt>
      <trkpt lat="48.73526" lon="1.80787">
        <ele>181</ele>
        <time>2023-04-27T12:00:41Z</time>
      </trkpt>
      <trkpt lat="48.73528" lon="1.80789">
        <ele>181</ele>
        <time>2023-04-27T12:00:42Z</time>
      </trkpt>
      <trkpt lat="48.73531" lon="1.80791">
        <ele>180.6</ele>
        <time>2023-04-27T12:00:44Z</time>
      </trkpt>
      <trkpt lat="48.73533" lon="1.80793">
        <ele>180.2</ele>
        <time>2023-04-27T12:00:46Z</time>
      </trkpt>
      <trkpt lat="48.73535" lon="1.80794">
        <ele>179.8</ele>
        <time>2023-04-27T12:00:48Z</time>
      </trkpt>
      <trkpt lat="48.73537" lon="1.80796">
        <ele>179.6</ele>
        <time>2023-04-27T12:00:50Z</time>
      </trkpt>
      <trkpt lat="48.73539" lon="1.80797">
        <ele>179.2</ele>
        <time>2023-04-27T12:00:52Z</time>
      </trkpt>
      <trkpt lat="48.7354" lon="1.808">
        <ele>179</ele>
        <time>2023-04-27T12:00:54Z</time>
      </trkpt>
      <trkpt lat="48.73541" lon="1.80803">
        <ele>179</ele>
        <time>2023-04-27T12:00:56Z</time>
      </trkpt>
      <trkpt lat="48.73543" lon="1.80805">
        <ele>179</ele>
        <time>2023-04-27T12:00:58Z</time>
      </trkpt>
      <trkpt lat="48.73545" lon="1.80808">
        <ele>179.2</ele>
        <time>2023-04-27T12:01:00Z</time>
      </trkpt>
      <trkpt lat="48.73547" lon="1.8081">
        <ele>179.2</ele>
        <time>2023-04-27T12:01:02Z</time>
      </trkpt>
      <trkpt lat="48.73548" lon="1.80811">
        <ele>179.2</ele>
        <time>2023-04-27T12:01:03Z</time>
      </trkpt>
      <trkpt lat="48.73551" lon="1.80814">
        <ele>179.4</ele>
        <time>2023-04-27T12:01:05Z</time>
      </trkpt>
      <trkpt lat="48.73553" lon="1.80815">
        <ele>179.4</ele>
        <time>2023-04-27T12:01:06Z</time>
      </trkpt>
      <trkpt lat="48.73554" lon="1.80817">
        <ele>179.4</ele>
        <time>2023-04-27T12:01:07Z</time>
      </trkpt>
      <trkpt lat="48.73556" lon="1.8082">
        <ele>179.4</ele>
        <time>2023-04-27T12:01:09Z</time>
      </trkpt>
      <trkpt lat="48.73558" lon="1.80822">
        <ele>179.6</ele>
        <time>2023-04-27T12:01:11Z</time>
      </trkpt>
      <trkpt lat="48.7356" lon="1.80825">
        <ele>179.8</ele>
        <time>2023-04-27T12:01:13Z</time>
      </trkpt>
      <trkpt lat="48.73562" lon="1.80828">
        <ele>179.8</ele>
        <time>2023-04-27T12:01:15Z</time>
      </trkpt>
      <trkpt lat="48.73564" lon="1.8083">
        <ele>180</ele>
        <time>2023-04-27T12:01:16Z</time>
      </trkpt>
      <trkpt lat="48.73566" lon="1.80831">
        <ele>180.2</ele>
        <time>2023-04-27T12:01:17Z</time>
      </trkpt>
      <trkpt lat="48.73568" lon="1.80833">
        <ele>180.6</ele>
        <time>2023-04-27T12:01:19Z</time>
      </trkpt>
      <trkpt lat="48.7357" lon="1.80835">
        <ele>181</ele>
        <time>2023-04-27T12:01:21Z</time>
      </trkpt>
      <trkpt lat="48.73572" lon="1.80836">
        <ele>181.4</ele>
        <time>2023-04-27T12:01:23Z</time>
      </trkpt>
      <trkpt lat="48.73575" lon="1.80837">
        <ele>182</ele>
        <time>2023-04-27T12:01:25Z</time>
      </trkpt>
      <trkpt lat="48.73577" lon="1.80838">
        <ele>182.2</ele>
        <time>2023-04-27T12:01:27Z</time>
      </trkpt>
      <trkpt lat="48.73579" lon="1.80839">
        <ele>182.6</ele>
        <time>2023-04-27T12:01:29Z</time>
      </trkpt>
      <trkpt lat="48.73581" lon="1.80839">
        <ele>182.8</ele>
        <time>2023-04-27T12:01:32Z</time>
      </trkpt>
      <trkpt lat="48.73583" lon="1.80838">
        <ele>183</ele>
        <time>2023-04-27T12:01:34Z</time>
      </trkpt>
      <trkpt lat="48.73585" lon="1.80837">
        <ele>183.2</ele>
        <time>2023-04-27T12:01:37Z</time>
      </trkpt>
      <trkpt lat="48.73588" lon="1.80836">
        <ele>183.6</ele>
        <time>2023-04-27T12:01:40Z</time>
      </trkpt>
      <trkpt lat="48.7359" lon="1.80837">
        <ele>184</ele>
        <time>2023-04-27T12:01:44Z</time>
      </trkpt>
      <trkpt lat="48.73591" lon="1.8084">
        <ele>184</ele>
        <time>2023-04-27T12:01:47Z</time>
      </trkpt>
      <trkpt lat="48.73593" lon="1.80842">
        <ele>184</ele>
        <time>2023-04-27T12:01:51Z</time>
      </trkpt>
      <trkpt lat="48.73592" lon="1.80838">
        <ele>184.4</ele>
        <time>2023-04-27T12:01:55Z</time>
      </trkpt>
      <trkpt lat="48.73592" lon="1.80835">
        <ele>184.6</ele>
        <time>2023-04-27T12:01:57Z</time>
      </trkpt>
      <trkpt lat="48.73591" lon="1.80832">
        <ele>184.6</ele>
        <time>2023-04-27T12:01:59Z</time>
      </trkpt>
      <trkpt lat="48.73592" lon="1.80829">
        <ele>184.8</ele>
        <time>2023-04-27T12:02:01Z</time>
      </trkpt>
      <trkpt lat="48.73593" lon="1.80826">
        <ele>184.8</ele>
        <time>2023-04-27T12:02:04Z</time>
      </trkpt>
      <trkpt lat="48.73593" lon="1.80823">
        <ele>184.8</ele>
        <time>2023-04-27T12:02:06Z</time>
      </trkpt>
      <trkpt lat="48.73593" lon="1.8082">
        <ele>184.8</ele>
        <time>2023-04-27T12:02:08Z</time>
      </trkpt>
      <trkpt lat="48.73594" lon="1.80817">
        <ele>184.8</ele>
        <time>2023-04-27T12:02:10Z</time>
      </trkpt>
      <trkpt lat="48.73595" lon="1.80814">
        <ele>184.6</ele>
        <time>2023-04-27T12:02:12Z</time>
      </trkpt>
      <trkpt lat="48.73596" lon="1.80812">
        <ele>184.6</ele>
        <time>2023-04-27T12:02:14Z</time>
      </trkpt>
      <trkpt lat="48.73597" lon="1.80809">
        <ele>184.4</ele>
        <time>2023-04-27T12:02:16Z</time>
      </trkpt>
      <trkpt lat="48.73599" lon="1.80807">
        <ele>184.4</ele>
        <time>2023-04-27T12:02:18Z</time>
      </trkpt>
      <trkpt lat="48.73601" lon="1.80805">
        <ele>184.4</ele>
        <time>2023-04-27T12:02:20Z</time>
      </trkpt>
      <trkpt lat="48.73602" lon="1.80802">
        <ele>184.4</ele>
        <time>2023-04-27T12:02:22Z</time>
      </trkpt>
      <trkpt lat="48.73604" lon="1.808">
        <ele>184.6</ele>
        <time>2023-04-27T12:02:24Z</time>
      </trkpt>
      <trkpt lat="48.73604" lon="1.80797">
        <ele>184.6</ele>
        <time>2023-04-27T12:02:27Z</time>
      </trkpt>
      <trkpt lat="48.73606" lon="1.80794">
        <ele>184.8</ele>
        <time>2023-04-27T12:02:30Z</time>
      </trkpt>
      <trkpt lat="48.73607" lon="1.80792">
        <ele>184.8</ele>
        <time>2023-04-27T12:02:32Z</time>
      </trkpt>
      <trkpt lat="48.73608" lon="1.80789">
        <ele>185</ele>
        <time>2023-04-27T12:02:34Z</time>
      </trkpt>
      <trkpt lat="48.7361" lon="1.80787">
        <ele>185</ele>
        <time>2023-04-27T12:02:36Z</time>
      </trkpt>
      <trkpt lat="48.73611" lon="1.80784">
        <ele>185.2</ele>
        <time>2023-04-27T12:02:38Z</time>
      </trkpt>
      <trkpt lat="48.73611" lon="1.80781">
        <ele>185.4</ele>
        <time>2023-04-27T12:02:40Z</time>
      </trkpt>
      <trkpt lat="48.73611" lon="1.80786">
        <ele>185.4</ele>
        <time>2023-04-27T12:02:50Z</time>
      </trkpt>
      <trkpt lat="48.7361" lon="1.80789">
        <ele>185.4</ele>
        <time>2023-04-27T12:02:52Z</time>
      </trkpt>
      <trkpt lat="48.73609" lon="1.80793">
        <ele>185.4</ele>
        <time>2023-04-27T12:02:54Z</time>
      </trkpt>
      <trkpt lat="48.73608" lon="1.80796">
        <ele>185.4</ele>
        <time>2023-04-27T12:02:56Z</time>
      </trkpt>
      <trkpt lat="48.73606" lon="1.80799">
        <ele>185.6</ele>
        <time>2023-04-27T12:02:58Z</time>
      </trkpt>
      <trkpt lat="48.73606" lon="1.80803">
        <ele>185.6</ele>
        <time>2023-04-27T12:03:00Z</time>
      </trkpt>
      <trkpt lat="48.73604" lon="1.80807">
        <ele>185.6</ele>
        <time>2023-04-27T12:03:02Z</time>
      </trkpt>
      <trkpt lat="48.73604" lon="1.80811">
        <ele>185.6</ele>
        <time>2023-04-27T12:03:04Z</time>
      </trkpt>
      <trkpt lat="48.73602" lon="1.80815">
        <ele>185.6</ele>
        <time>2023-04-27T12:03:06Z</time>
      </trkpt>
      <trkpt lat="48.73601" lon="1.80818">
        <ele>185.6</ele>
        <time>2023-04-27T12:03:08Z</time>
      </trkpt>
      <trkpt lat="48.736" lon="1.80821">
        <ele>185.6</ele>
        <time>2023-04-27T12:03:10Z</time>
      </trkpt>
      <trkpt lat="48.736" lon="1.80824">
        <ele>185.6</ele>
        <time>2023-04-27T12:03:12Z</time>
      </trkpt>
      <trkpt lat="48.73599" lon="1.80827">
        <ele>185.6</ele>
        <time>2023-04-27T12:03:15Z</time>
      </trkpt>
      <trkpt lat="48.73599" lon="1.8083">
        <ele>185.6</ele>
        <time>2023-04-27T12:03:19Z</time>
      </trkpt>
      <trkpt lat="48.736" lon="1.80834">
        <ele>185.8</ele>
        <time>2023-04-27T12:03:22Z</time>
      </trkpt>
      <trkpt lat="48.73602" lon="1.80836">
        <ele>185.8</ele>
        <time>2023-04-27T12:03:25Z</time>
      </trkpt>
      <trkpt lat="48.73604" lon="1.80837">
        <ele>185.8</ele>
        <time>2023-04-27T12:03:27Z</time>
      </trkpt>
      <trkpt lat="48.73606" lon="1.80836">
        <ele>185.8</ele>
        <time>2023-04-27T12:03:30Z</time>
      </trkpt>
      <trkpt lat="48.73608" lon="1.80836">
        <ele>186</ele>
        <time>2023-04-27T12:03:33Z</time>
      </trkpt>
      <trkpt lat="48.73608" lon="1.80839">
        <ele>186.6</ele>
        <time>2023-04-27T12:03:46Z</time>
      </trkpt>
      <trkpt lat="48.73611" lon="1.8084">
        <ele>186.6</ele>
        <time>2023-04-27T12:03:49Z</time>
      </trkpt>
      <trkpt lat="48.73614" lon="1.8084">
        <ele>186.6</ele>
        <time>2023-04-27T12:03:51Z</time>
      </trkpt>
      <trkpt lat="48.73616" lon="1.8084">
        <ele>186.6</ele>
        <time>2023-04-27T12:03:52Z</time>
      </trkpt>
      <trkpt lat="48.73619" lon="1.8084">
        <ele>186.6</ele>
        <time>2023-04-27T12:03:53Z</time>
      </trkpt>
      <trkpt lat="48.73621" lon="1.80839">
        <ele>186.6</ele>
        <time>2023-04-27T12:03:54Z</time>
      </trkpt>
      <trkpt lat="48.73624" lon="1.80839">
        <ele>186.6</ele>
        <time>2023-04-27T12:03:55Z</time>
      </trkpt>
      <trkpt lat="48.73628" lon="1.80839">
        <ele>186.6</ele>
        <time>2023-04-27T12:03:56Z</time>
      </trkpt>
      <trkpt lat="48.7363" lon="1.80838">
        <ele>186.6</ele>
        <time>2023-04-27T12:03:57Z</time>
      </trkpt>
      <trkpt lat="48.73633" lon="1.80838">
        <ele>186.8</ele>
        <time>2023-04-27T12:03:58Z</time>
      </trkpt>
      <trkpt lat="48.73636" lon="1.80837">
        <ele>186.8</ele>
        <time>2023-04-27T12:03:59Z</time>
      </trkpt>
      <trkpt lat="48.73638" lon="1.80836">
        <ele>187</ele>
        <time>2023-04-27T12:04:00Z</time>
      </trkpt>
      <trkpt lat="48.73641" lon="1.80836">
        <ele>187</ele>
        <time>2023-04-27T12:04:01Z</time>
      </trkpt>
      <trkpt lat="48.73643" lon="1.80835">
        <ele>187.2</ele>
        <time>2023-04-27T12:04:02Z</time>
      </trkpt>
      <trkpt lat="48.73645" lon="1.80834">
        <ele>187.4</ele>
        <time>2023-04-27T12:04:04Z</time>
      </trkpt>
      <trkpt lat="48.73647" lon="1.80832">
        <ele>188</ele>
        <time>2023-04-27T12:04:08Z</time>
      </trkpt>
      <trkpt lat="48.73649" lon="1.80831">
        <ele>188.4</ele>
        <time>2023-04-27T12:04:10Z</time>
      </trkpt>
      <trkpt lat="48.73652" lon="1.80831">
        <ele>188.8</ele>
        <time>2023-04-27T12:04:12Z</time>
      </trkpt>
      <trkpt lat="48.73654" lon="1.80831">
        <ele>189</ele>
        <time>2023-04-27T12:04:13Z</time>
      </trkpt>
      <trkpt lat="48.73657" lon="1.8083">
        <ele>189.2</ele>
        <time>2023-04-27T12:04:14Z</time>
      </trkpt>
      <trkpt lat="48.7366" lon="1.8083">
        <ele>189.2</ele>
        <time>2023-04-27T12:04:15Z</time>
      </trkpt>
      <trkpt lat="48.73662" lon="1.80829">
        <ele>189.4</ele>
        <time>2023-04-27T12:04:16Z</time>
      </trkpt>
      <trkpt lat="48.73664" lon="1.80828">
        <ele>189.6</ele>
        <time>2023-04-27T12:04:17Z</time>
      </trkpt>
      <trkpt lat="48.73666" lon="1.80827">
        <ele>189.8</ele>
        <time>2023-04-27T12:04:18Z</time>
      </trkpt>
      <trkpt lat="48.73668" lon="1.80825">
        <ele>190</ele>
        <time>2023-04-27T12:04:19Z</time>
      </trkpt>
      <trkpt lat="48.73672" lon="1.80824">
        <ele>190.2</ele>
        <time>2023-04-27T12:04:21Z</time>
      </trkpt>
      <trkpt lat="48.73674" lon="1.80823">
        <ele>190.4</ele>
        <time>2023-04-27T12:04:22Z</time>
      </trkpt>
      <trkpt lat="48.73676" lon="1.80822">
        <ele>190.4</ele>
        <time>2023-04-27T12:04:23Z</time>
      </trkpt>
      <trkpt lat="48.73679" lon="1.80821">
        <ele>190.6</ele>
        <time>2023-04-27T12:04:24Z</time>
      </trkpt>
      <trkpt lat="48.73681" lon="1.80821">
        <ele>190.8</ele>
        <time>2023-04-27T12:04:25Z</time>
      </trkpt>
      <trkpt lat="48.73684" lon="1.8082">
        <ele>190.8</ele>
        <time>2023-04-27T12:04:26Z</time>
      </trkpt>
      <trkpt lat="48.73687" lon="1.8082">
        <ele>191</ele>
        <time>2023-04-27T12:04:27Z</time>
      </trkpt>
      <trkpt lat="48.73691" lon="1.80819">
        <ele>191</ele>
        <time>2023-04-27T12:04:28Z</time>
      </trkpt>
      <trkpt lat="48.73693" lon="1.80819">
        <ele>191.2</ele>
        <time>2023-04-27T12:04:29Z</time>
      </trkpt>
      <trkpt lat="48.73697" lon="1.80818">
        <ele>191.2</ele>
        <time>2023-04-27T12:04:30Z</time>
      </trkpt>
      <trkpt lat="48.737" lon="1.80818">
        <ele>191.4</ele>
        <time>2023-04-27T12:04:31Z</time>
      </trkpt>
      <trkpt lat="48.73703" lon="1.80818">
        <ele>191.4</ele>
        <time>2023-04-27T12:04:32Z</time>
      </trkpt>
      <trkpt lat="48.73706" lon="1.80817">
        <ele>191.4</ele>
        <time>2023-04-27T12:04:33Z</time>
      </trkpt>
      <trkpt lat="48.73708" lon="1.80817">
        <ele>191.6</ele>
        <time>2023-04-27T12:04:34Z</time>
      </trkpt>
      <trkpt lat="48.73711" lon="1.80817">
        <ele>191.6</ele>
        <time>2023-04-27T12:04:35Z</time>
      </trkpt>
      <trkpt lat="48.73715" lon="1.80817">
        <ele>191.8</ele>
        <time>2023-04-27T12:04:36Z</time>
      </trkpt>
      <trkpt lat="48.73718" lon="1.80817">
        <ele>191.8</ele>
        <time>2023-04-27T12:04:37Z</time>
      </trkpt>
      <trkpt lat="48.73721" lon="1.80817">
        <ele>192</ele>
        <time>2023-04-27T12:04:38Z</time>
      </trkpt>
      <trkpt lat="48.73724" lon="1.80817">
        <ele>192</ele>
        <time>2023-04-27T12:04:39Z</time>
      </trkpt>
      <trkpt lat="48.73728" lon="1.80817">
        <ele>192.2</ele>
        <time>2023-04-27T12:04:40Z</time>
      </trkpt>
      <trkpt lat="48.73731" lon="1.80816">
        <ele>192.4</ele>
        <time>2023-04-27T12:04:41Z</time>
      </trkpt>
      <trkpt lat="48.73733" lon="1.80815">
        <ele>192.6</ele>
        <time>2023-04-27T12:04:42Z</time>
      </trkpt>
      <trkpt lat="48.73736" lon="1.80814">
        <ele>192.8</ele>
        <time>2023-04-27T12:04:43Z</time>
      </trkpt>
      <trkpt lat="48.73739" lon="1.80813">
        <ele>192.8</ele>
        <time>2023-04-27T12:04:44Z</time>
      </trkpt>
      <trkpt lat="48.73742" lon="1.80812">
        <ele>193</ele>
        <time>2023-04-27T12:04:45Z</time>
      </trkpt>
      <trkpt lat="48.73745" lon="1.80811">
        <ele>193.2</ele>
        <time>2023-04-27T12:04:46Z</time>
      </trkpt>
      <trkpt lat="48.73748" lon="1.80811">
        <ele>193.2</ele>
        <time>2023-04-27T12:04:47Z</time>
      </trkpt>
      <trkpt lat="48.73751" lon="1.80811">
        <ele>193.4</ele>
        <time>2023-04-27T12:04:48Z</time>
      </trkpt>
      <trkpt lat="48.73754" lon="1.8081">
        <ele>193.4</ele>
        <time>2023-04-27T12:04:49Z</time>
      </trkpt>
      <trkpt lat="48.73757" lon="1.8081">
        <ele>193.6</ele>
        <time>2023-04-27T12:04:50Z</time>
      </trkpt>
      <trkpt lat="48.7376" lon="1.8081">
        <ele>193.8</ele>
        <time>2023-04-27T12:04:51Z</time>
      </trkpt>
      <trkpt lat="48.73763" lon="1.8081">
        <ele>193.8</ele>
        <time>2023-04-27T12:04:52Z</time>
      </trkpt>
      <trkpt lat="48.73765" lon="1.80809">
        <ele>194</ele>
        <time>2023-04-27T12:04:53Z</time>
      </trkpt>
      <trkpt lat="48.73769" lon="1.80809">
        <ele>194</ele>
        <time>2023-04-27T12:04:54Z</time>
      </trkpt>
      <trkpt lat="48.73771" lon="1.80808">
        <ele>194.2</ele>
        <time>2023-04-27T12:04:55Z</time>
      </trkpt>
      <trkpt lat="48.73774" lon="1.80808">
        <ele>194.2</ele>
        <time>2023-04-27T12:04:56Z</time>
      </trkpt>
      <trkpt lat="48.73777" lon="1.80807">
        <ele>194.4</ele>
        <time>2023-04-27T12:04:57Z</time>
      </trkpt>
      <trkpt lat="48.7378" lon="1.80806">
        <ele>194.4</ele>
        <time>2023-04-27T12:04:58Z</time>
      </trkpt>
      <trkpt lat="48.73783" lon="1.80806">
        <ele>194.4</ele>
        <time>2023-04-27T12:04:59Z</time>
      </trkpt>
      <trkpt lat="48.73786" lon="1.80805">
        <ele>194.6</ele>
        <time>2023-04-27T12:05:00Z</time>
      </trkpt>
      <trkpt lat="48.73789" lon="1.80804">
        <ele>194.6</ele>
        <time>2023-04-27T12:05:01Z</time>
      </trkpt>
      <trkpt lat="48.73792" lon="1.80804">
        <ele>194.6</ele>
        <time>2023-04-27T12:05:02Z</time>
      </trkpt>
      <trkpt lat="48.73795" lon="1.80803">
        <ele>194.6</ele>
        <time>2023-04-27T12:05:03Z</time>
      </trkpt>
      <trkpt lat="48.73798" lon="1.80803">
        <ele>194.6</ele>
        <time>2023-04-27T12:05:04Z</time>
      </trkpt>
      <trkpt lat="48.73801" lon="1.80802">
        <ele>194.6</ele>
        <time>2023-04-27T12:05:05Z</time>
      </trkpt>
      <trkpt lat="48.73804" lon="1.80802">
        <ele>194.6</ele>
        <time>2023-04-27T12:05:06Z</time>
      </trkpt>
      <trkpt lat="48.73807" lon="1.80801">
        <ele>194.6</ele>
        <time>2023-04-27T12:05:07Z</time>
      </trkpt>
      <trkpt lat="48.73811" lon="1.80801">
        <ele>194.6</ele>
        <time>2023-04-27T12:05:08Z</time>
      </trkpt>
      <trkpt lat="48.73814" lon="1.80801">
        <ele>194.8</ele>
        <time>2023-04-27T12:05:09Z</time>
      </trkpt>
      <trkpt lat="48.73817" lon="1.808">
        <ele>194.8</ele>
        <time>2023-04-27T12:05:10Z</time>
      </trkpt>
      <trkpt lat="48.7382" lon="1.80799">
        <ele>194.8</ele>
        <time>2023-04-27T12:05:11Z</time>
      </trkpt>
      <trkpt lat="48.73824" lon="1.80799">
        <ele>194.8</ele>
        <time>2023-04-27T12:05:12Z</time>
      </trkpt>
      <trkpt lat="48.73827" lon="1.80798">
        <ele>194.8</ele>
        <time>2023-04-27T12:05:13Z</time>
      </trkpt>
      <trkpt lat="48.7383" lon="1.80798">
        <ele>194.8</ele>
        <time>2023-04-27T12:05:14Z</time>
      </trkpt>
      <trkpt lat="48.73832" lon="1.80797">
        <ele>194.8</ele>
        <time>2023-04-27T12:05:15Z</time>
      </trkpt>
      <trkpt lat="48.73835" lon="1.80797">
        <ele>194.8</ele>
        <time>2023-04-27T12:05:16Z</time>
      </trkpt>
      <trkpt lat="48.73837" lon="1.80797">
        <ele>194.8</ele>
        <time>2023-04-27T12:05:17Z</time>
      </trkpt>
      <trkpt lat="48.73839" lon="1.80798">
        <ele>194.8</ele>
        <time>2023-04-27T12:05:18Z</time>
      </trkpt>
      <trkpt lat="48.73841" lon="1.80797">
        <ele>194.8</ele>
        <time>2023-04-27T12:05:19Z</time>
      </trkpt>
      <trkpt lat="48.73844" lon="1.80797">
        <ele>194.8</ele>
        <time>2023-04-27T12:05:20Z</time>
      </trkpt>
      <trkpt lat="48.73846" lon="1.80796">
        <ele>195</ele>
        <time>2023-04-27T12:05:21Z</time>
      </trkpt>
      <trkpt lat="48.73848" lon="1.80796">
        <ele>195</ele>
        <time>2023-04-27T12:05:22Z</time>
      </trkpt>
      <trkpt lat="48.73852" lon="1.80795">
        <ele>195</ele>
        <time>2023-04-27T12:05:23Z</time>
      </trkpt>
      <trkpt lat="48.73854" lon="1.80794">
        <ele>195</ele>
        <time>2023-04-27T12:05:24Z</time>
      </trkpt>
      <trkpt lat="48.73858" lon="1.80794">
        <ele>195</ele>
        <time>2023-04-27T12:05:25Z</time>
      </trkpt>
      <trkpt lat="48.73861" lon="1.80793">
        <ele>195</ele>
        <time>2023-04-27T12:05:26Z</time>
      </trkpt>
      <trkpt lat="48.73865" lon="1.80793">
        <ele>195</ele>
        <time>2023-04-27T12:05:27Z</time>
      </trkpt>
      <trkpt lat="48.73868" lon="1.80793">
        <ele>195</ele>
        <time>2023-04-27T12:05:28Z</time>
      </trkpt>
      <trkpt lat="48.73872" lon="1.80792">
        <ele>195.2</ele>
        <time>2023-04-27T12:05:29Z</time>
      </trkpt>
      <trkpt lat="48.73876" lon="1.80792">
        <ele>195.2</ele>
        <time>2023-04-27T12:05:30Z</time>
      </trkpt>
      <trkpt lat="48.73879" lon="1.80791">
        <ele>195.2</ele>
        <time>2023-04-27T12:05:31Z</time>
      </trkpt>
      <trkpt lat="48.73882" lon="1.80789">
        <ele>195.2</ele>
        <time>2023-04-27T12:05:32Z</time>
      </trkpt>
      <trkpt lat="48.73884" lon="1.80787">
        <ele>195.2</ele>
        <time>2023-04-27T12:05:33Z</time>
      </trkpt>
      <trkpt lat="48.73886" lon="1.80785">
        <ele>195.4</ele>
        <time>2023-04-27T12:05:34Z</time>
      </trkpt>
      <trkpt lat="48.73889" lon="1.80783">
        <ele>195.4</ele>
        <time>2023-04-27T12:05:35Z</time>
      </trkpt>
      <trkpt lat="48.73891" lon="1.80781">
        <ele>195.4</ele>
        <time>2023-04-27T12:05:36Z</time>
      </trkpt>
      <trkpt lat="48.73893" lon="1.80779">
        <ele>195.4</ele>
        <time>2023-04-27T12:05:37Z</time>
      </trkpt>
      <trkpt lat="48.73896" lon="1.80777">
        <ele>195.6</ele>
        <time>2023-04-27T12:05:38Z</time>
      </trkpt>
      <trkpt lat="48.73899" lon="1.80776">
        <ele>195.8</ele>
        <time>2023-04-27T12:05:39Z</time>
      </trkpt>
      <trkpt lat="48.73902" lon="1.80775">
        <ele>195.8</ele>
        <time>2023-04-27T12:05:40Z</time>
      </trkpt>
      <trkpt lat="48.73905" lon="1.80773">
        <ele>196</ele>
        <time>2023-04-27T12:05:41Z</time>
      </trkpt>
      <trkpt lat="48.73908" lon="1.80772">
        <ele>196.2</ele>
        <time>2023-04-27T12:05:42Z</time>
      </trkpt>
      <trkpt lat="48.73912" lon="1.80771">
        <ele>196.2</ele>
        <time>2023-04-27T12:05:43Z</time>
      </trkpt>
      <trkpt lat="48.73916" lon="1.8077">
        <ele>196.2</ele>
        <time>2023-04-27T12:05:44Z</time>
      </trkpt>
      <trkpt lat="48.7392" lon="1.80769">
        <ele>196.4</ele>
        <time>2023-04-27T12:05:45Z</time>
      </trkpt>
      <trkpt lat="48.73924" lon="1.80768">
        <ele>196.4</ele>
        <time>2023-04-27T12:05:46Z</time>
      </trkpt>
      <trkpt lat="48.73927" lon="1.80768">
        <ele>196.4</ele>
        <time>2023-04-27T12:05:47Z</time>
      </trkpt>
      <trkpt lat="48.73931" lon="1.80768">
        <ele>196.4</ele>
        <time>2023-04-27T12:05:48Z</time>
      </trkpt>
      <trkpt lat="48.73934" lon="1.80767">
        <ele>196.4</ele>
        <time>2023-04-27T12:05:49Z</time>
      </trkpt>
      <trkpt lat="48.73937" lon="1.80767">
        <ele>196.4</ele>
        <time>2023-04-27T12:05:50Z</time>
      </trkpt>
      <trkpt lat="48.7394" lon="1.80767">
        <ele>196.4</ele>
        <time>2023-04-27T12:05:51Z</time>
      </trkpt>
      <trkpt lat="48.73943" lon="1.80767">
        <ele>196.6</ele>
        <time>2023-04-27T12:05:52Z</time>
      </trkpt>
      <trkpt lat="48.73945" lon="1.80766">
        <ele>196.6</ele>
        <time>2023-04-27T12:05:53Z</time>
      </trkpt>
      <trkpt lat="48.73948" lon="1.80766">
        <ele>196.8</ele>
        <time>2023-04-27T12:05:54Z</time>
      </trkpt>
      <trkpt lat="48.73951" lon="1.80765">
        <ele>196.8</ele>
        <time>2023-04-27T12:05:55Z</time>
      </trkpt>
      <trkpt lat="48.73954" lon="1.80764">
        <ele>197</ele>
        <time>2023-04-27T12:05:56Z</time>
      </trkpt>
      <trkpt lat="48.73956" lon="1.80763">
        <ele>197.4</ele>
        <time>2023-04-27T12:05:57Z</time>
      </trkpt>
      <trkpt lat="48.73959" lon="1.80762">
        <ele>197.6</ele>
        <time>2023-04-27T12:05:58Z</time>
      </trkpt>
      <trkpt lat="48.73963" lon="1.80761">
        <ele>197.6</ele>
        <time>2023-04-27T12:05:59Z</time>
      </trkpt>
      <trkpt lat="48.73965" lon="1.8076">
        <ele>197.8</ele>
        <time>2023-04-27T12:06:00Z</time>
      </trkpt>
      <trkpt lat="48.73969" lon="1.80759">
        <ele>197.8</ele>
        <time>2023-04-27T12:06:01Z</time>
      </trkpt>
      <trkpt lat="48.73972" lon="1.80758">
        <ele>197.8</ele>
        <time>2023-04-27T12:06:02Z</time>
      </trkpt>
      <trkpt lat="48.73975" lon="1.80758">
        <ele>197.8</ele>
        <time>2023-04-27T12:06:03Z</time>
      </trkpt>
      <trkpt lat="48.73979" lon="1.80758">
        <ele>197.8</ele>
        <time>2023-04-27T12:06:04Z</time>
      </trkpt>
      <trkpt lat="48.73982" lon="1.80759">
        <ele>197.8</ele>
        <time>2023-04-27T12:06:05Z</time>
      </trkpt>
      <trkpt lat="48.73985" lon="1.80759">
        <ele>197.6</ele>
        <time>2023-04-27T12:06:06Z</time>
      </trkpt>
      <trkpt lat="48.73988" lon="1.80759">
        <ele>197.6</ele>
        <time>2023-04-27T12:06:07Z</time>
      </trkpt>
      <trkpt lat="48.73992" lon="1.8076">
        <ele>197.4</ele>
        <time>2023-04-27T12:06:08Z</time>
      </trkpt>
      <trkpt lat="48.73995" lon="1.8076">
        <ele>197.4</ele>
        <time>2023-04-27T12:06:09Z</time>
      </trkpt>
      <trkpt lat="48.73998" lon="1.80759">
        <ele>197.4</ele>
        <time>2023-04-27T12:06:10Z</time>
      </trkpt>
      <trkpt lat="48.74001" lon="1.80759">
        <ele>197.2</ele>
        <time>2023-04-27T12:06:11Z</time>
      </trkpt>
      <trkpt lat="48.74004" lon="1.80759">
        <ele>197.2</ele>
        <time>2023-04-27T12:06:12Z</time>
      </trkpt>
      <trkpt lat="48.74006" lon="1.80758">
        <ele>197</ele>
        <time>2023-04-27T12:06:13Z</time>
      </trkpt>
      <trkpt lat="48.74009" lon="1.80758">
        <ele>197</ele>
        <time>2023-04-27T12:06:14Z</time>
      </trkpt>
      <trkpt lat="48.74012" lon="1.80758">
        <ele>196.8</ele>
        <time>2023-04-27T12:06:15Z</time>
      </trkpt>
      <trkpt lat="48.74014" lon="1.80759">
        <ele>196.8</ele>
        <time>2023-04-27T12:06:16Z</time>
      </trkpt>
      <trkpt lat="48.74017" lon="1.80759">
        <ele>196.8</ele>
        <time>2023-04-27T12:06:17Z</time>
      </trkpt>
      <trkpt lat="48.7402" lon="1.80759">
        <ele>196.8</ele>
        <time>2023-04-27T12:06:18Z</time>
      </trkpt>
      <trkpt lat="48.74023" lon="1.80759">
        <ele>196.8</ele>
        <time>2023-04-27T12:06:19Z</time>
      </trkpt>
      <trkpt lat="48.74026" lon="1.80759">
        <ele>196.8</ele>
        <time>2023-04-27T12:06:20Z</time>
      </trkpt>
      <trkpt lat="48.74029" lon="1.80759">
        <ele>196.8</ele>
        <time>2023-04-27T12:06:21Z</time>
      </trkpt>
      <trkpt lat="48.74032" lon="1.80759">
        <ele>196.8</ele>
        <time>2023-04-27T12:06:22Z</time>
      </trkpt>
      <trkpt lat="48.74035" lon="1.80758">
        <ele>196.8</ele>
        <time>2023-04-27T12:06:23Z</time>
      </trkpt>
      <trkpt lat="48.74038" lon="1.80758">
        <ele>196.8</ele>
        <time>2023-04-27T12:06:24Z</time>
      </trkpt>
      <trkpt lat="48.74041" lon="1.80757">
        <ele>196.8</ele>
        <time>2023-04-27T12:06:25Z</time>
      </trkpt>
      <trkpt lat="48.74044" lon="1.80757">
        <ele>197</ele>
        <time>2023-04-27T12:06:26Z</time>
      </trkpt>
      <trkpt lat="48.74047" lon="1.80756">
        <ele>197</ele>
        <time>2023-04-27T12:06:27Z</time>
      </trkpt>
      <trkpt lat="48.7405" lon="1.80756">
        <ele>197</ele>
        <time>2023-04-27T12:06:28Z</time>
      </trkpt>
      <trkpt lat="48.74053" lon="1.80755">
        <ele>197</ele>
        <time>2023-04-27T12:06:29Z</time>
      </trkpt>
      <trkpt lat="48.74056" lon="1.80755">
        <ele>197</ele>
        <time>2023-04-27T12:06:30Z</time>
      </trkpt>
      <trkpt lat="48.7406" lon="1.80755">
        <ele>197</ele>
        <time>2023-04-27T12:06:31Z</time>
      </trkpt>
      <trkpt lat="48.74063" lon="1.80754">
        <ele>197</ele>
        <time>2023-04-27T12:06:32Z</time>
      </trkpt>
      <trkpt lat="48.74066" lon="1.80754">
        <ele>197</ele>
        <time>2023-04-27T12:06:33Z</time>
      </trkpt>
      <trkpt lat="48.74069" lon="1.80753">
        <ele>197</ele>
        <time>2023-04-27T12:06:34Z</time>
      </trkpt>
      <trkpt lat="48.74073" lon="1.80753">
        <ele>197</ele>
        <time>2023-04-27T12:06:35Z</time>
      </trkpt>
      <trkpt lat="48.74076" lon="1.80752">
        <ele>197</ele>
        <time>2023-04-27T12:06:36Z</time>
      </trkpt>
      <trkpt lat="48.74079" lon="1.80752">
        <ele>197</ele>
        <time>2023-04-27T12:06:37Z</time>
      </trkpt>
      <trkpt lat="48.74083" lon="1.80752">
        <ele>197.2</ele>
        <time>2023-04-27T12:06:38Z</time>
      </trkpt>
      <trkpt lat="48.74086" lon="1.80751">
        <ele>197.2</ele>
        <time>2023-04-27T12:06:39Z</time>
      </trkpt>
      <trkpt lat="48.74089" lon="1.80751">
        <ele>197.2</ele>
        <time>2023-04-27T12:06:40Z</time>
      </trkpt>
      <trkpt lat="48.74092" lon="1.80751">
        <ele>197.2</ele>
        <time>2023-04-27T12:06:41Z</time>
      </trkpt>
      <trkpt lat="48.74095" lon="1.80751">
        <ele>197</ele>
        <time>2023-04-27T12:06:42Z</time>
      </trkpt>
      <trkpt lat="48.74098" lon="1.80751">
        <ele>197</ele>
        <time>2023-04-27T12:06:43Z</time>
      </trkpt>
      <trkpt lat="48.741" lon="1.80751">
        <ele>197</ele>
        <time>2023-04-27T12:06:44Z</time>
      </trkpt>
      <trkpt lat="48.74104" lon="1.80751">
        <ele>197</ele>
        <time>2023-04-27T12:06:45Z</time>
      </trkpt>
      <trkpt lat="48.74106" lon="1.8075">
        <ele>197</ele>
        <time>2023-04-27T12:06:46Z</time>
      </trkpt>
      <trkpt lat="48.74109" lon="1.8075">
        <ele>196.8</ele>
        <time>2023-04-27T12:06:47Z</time>
      </trkpt>
      <trkpt lat="48.74112" lon="1.80749">
        <ele>196.8</ele>
        <time>2023-04-27T12:06:48Z</time>
      </trkpt>
      <trkpt lat="48.74114" lon="1.80749">
        <ele>196.8</ele>
        <time>2023-04-27T12:06:49Z</time>
      </trkpt>
      <trkpt lat="48.74117" lon="1.80749">
        <ele>196.8</ele>
        <time>2023-04-27T12:06:50Z</time>
      </trkpt>
      <trkpt lat="48.74119" lon="1.80748">
        <ele>196.6</ele>
        <time>2023-04-27T12:06:51Z</time>
      </trkpt>
      <trkpt lat="48.74122" lon="1.80748">
        <ele>196.6</ele>
        <time>2023-04-27T12:06:52Z</time>
      </trkpt>
      <trkpt lat="48.74124" lon="1.80748">
        <ele>196.6</ele>
        <time>2023-04-27T12:06:53Z</time>
      </trkpt>
      <trkpt lat="48.74126" lon="1.80748">
        <ele>196.6</ele>
        <time>2023-04-27T12:06:54Z</time>
      </trkpt>
      <trkpt lat="48.74128" lon="1.80748">
        <ele>196.6</ele>
        <time>2023-04-27T12:06:56Z</time>
      </trkpt>
      <trkpt lat="48.74131" lon="1.80748">
        <ele>196.4</ele>
        <time>2023-04-27T12:06:58Z</time>
      </trkpt>
      <trkpt lat="48.74133" lon="1.80748">
        <ele>196.2</ele>
        <time>2023-04-27T12:07:00Z</time>
      </trkpt>
      <trkpt lat="48.74136" lon="1.80748">
        <ele>196.2</ele>
        <time>2023-04-27T12:07:02Z</time>
      </trkpt>
      <trkpt lat="48.74138" lon="1.80748">
        <ele>196</ele>
        <time>2023-04-27T12:07:03Z</time>
      </trkpt>
      <trkpt lat="48.7414" lon="1.80748">
        <ele>196</ele>
        <time>2023-04-27T12:07:04Z</time>
      </trkpt>
      <trkpt lat="48.74142" lon="1.80748">
        <ele>196</ele>
        <time>2023-04-27T12:07:05Z</time>
      </trkpt>
      <trkpt lat="48.74144" lon="1.80748">
        <ele>195.8</ele>
        <time>2023-04-27T12:07:06Z</time>
      </trkpt>
      <trkpt lat="48.74146" lon="1.80748">
        <ele>195.8</ele>
        <time>2023-04-27T12:07:07Z</time>
      </trkpt>
      <trkpt lat="48.74148" lon="1.80748">
        <ele>195.8</ele>
        <time>2023-04-27T12:07:09Z</time>
      </trkpt>
      <trkpt lat="48.7415" lon="1.80747">
        <ele>195.6</ele>
        <time>2023-04-27T12:07:11Z</time>
      </trkpt>
      <trkpt lat="48.74152" lon="1.80746">
        <ele>195.6</ele>
        <time>2023-04-27T12:07:13Z</time>
      </trkpt>
      <trkpt lat="48.74154" lon="1.80745">
        <ele>195.4</ele>
        <time>2023-04-27T12:07:15Z</time>
      </trkpt>
      <trkpt lat="48.74156" lon="1.80744">
        <ele>195.4</ele>
        <time>2023-04-27T12:07:17Z</time>
      </trkpt>
      <trkpt lat="48.74158" lon="1.80744">
        <ele>195.4</ele>
        <time>2023-04-27T12:07:19Z</time>
      </trkpt>
      <trkpt lat="48.74161" lon="1.80743">
        <ele>195.2</ele>
        <time>2023-04-27T12:07:21Z</time>
      </trkpt>
      <trkpt lat="48.74164" lon="1.80742">
        <ele>195.2</ele>
        <time>2023-04-27T12:07:23Z</time>
      </trkpt>
      <trkpt lat="48.74166" lon="1.8074">
        <ele>195.4</ele>
        <time>2023-04-27T12:07:25Z</time>
      </trkpt>
      <trkpt lat="48.74168" lon="1.80739">
        <ele>195.4</ele>
        <time>2023-04-27T12:07:27Z</time>
      </trkpt>
      <trkpt lat="48.74171" lon="1.8074">
        <ele>195.6</ele>
        <time>2023-04-27T12:07:29Z</time>
      </trkpt>
      <trkpt lat="48.74173" lon="1.8074">
        <ele>196</ele>
        <time>2023-04-27T12:07:31Z</time>
      </trkpt>
      <trkpt lat="48.74177" lon="1.80739">
        <ele>196</ele>
        <time>2023-04-27T12:07:33Z</time>
      </trkpt>
      <trkpt lat="48.7418" lon="1.80739">
        <ele>196.2</ele>
        <time>2023-04-27T12:07:34Z</time>
      </trkpt>
      <trkpt lat="48.74182" lon="1.80738">
        <ele>196.2</ele>
        <time>2023-04-27T12:07:35Z</time>
      </trkpt>
      <trkpt lat="48.74186" lon="1.80737">
        <ele>196.4</ele>
        <time>2023-04-27T12:07:36Z</time>
      </trkpt>
      <trkpt lat="48.74189" lon="1.80736">
        <ele>196.4</ele>
        <time>2023-04-27T12:07:37Z</time>
      </trkpt>
      <trkpt lat="48.74193" lon="1.80735">
        <ele>196.6</ele>
        <time>2023-04-27T12:07:38Z</time>
      </trkpt>
      <trkpt lat="48.74196" lon="1.80734">
        <ele>196.6</ele>
        <time>2023-04-27T12:07:39Z</time>
      </trkpt>
      <trkpt lat="48.74199" lon="1.80732">
        <ele>196.8</ele>
        <time>2023-04-27T12:07:40Z</time>
      </trkpt>
      <trkpt lat="48.74202" lon="1.80731">
        <ele>196.8</ele>
        <time>2023-04-27T12:07:41Z</time>
      </trkpt>
      <trkpt lat="48.74205" lon="1.8073">
        <ele>196.8</ele>
        <time>2023-04-27T12:07:42Z</time>
      </trkpt>
      <trkpt lat="48.74208" lon="1.80729">
        <ele>197</ele>
        <time>2023-04-27T12:07:43Z</time>
      </trkpt>
      <trkpt lat="48.74212" lon="1.80728">
        <ele>197</ele>
        <time>2023-04-27T12:07:44Z</time>
      </trkpt>
      <trkpt lat="48.74214" lon="1.80727">
        <ele>197.2</ele>
        <time>2023-04-27T12:07:45Z</time>
      </trkpt>
      <trkpt lat="48.74218" lon="1.80726">
        <ele>197.2</ele>
        <time>2023-04-27T12:07:46Z</time>
      </trkpt>
      <trkpt lat="48.74221" lon="1.80726">
        <ele>197.2</ele>
        <time>2023-04-27T12:07:47Z</time>
      </trkpt>
      <trkpt lat="48.74225" lon="1.80726">
        <ele>197.2</ele>
        <time>2023-04-27T12:07:48Z</time>
      </trkpt>
      <trkpt lat="48.74229" lon="1.80726">
        <ele>197.2</ele>
        <time>2023-04-27T12:07:49Z</time>
      </trkpt>
      <trkpt lat="48.74232" lon="1.80726">
        <ele>197.2</ele>
        <time>2023-04-27T12:07:50Z</time>
      </trkpt>
      <trkpt lat="48.74236" lon="1.80726">
        <ele>197.2</ele>
        <time>2023-04-27T12:07:51Z</time>
      </trkpt>
      <trkpt lat="48.74239" lon="1.80726">
        <ele>197.2</ele>
        <time>2023-04-27T12:07:52Z</time>
      </trkpt>
      <trkpt lat="48.74243" lon="1.80725">
        <ele>197</ele>
        <time>2023-04-27T12:07:53Z</time>
      </trkpt>
      <trkpt lat="48.74246" lon="1.80725">
        <ele>197</ele>
        <time>2023-04-27T12:07:54Z</time>
      </trkpt>
      <trkpt lat="48.7425" lon="1.80725">
        <ele>197</ele>
        <time>2023-04-27T12:07:55Z</time>
      </trkpt>
      <trkpt lat="48.74253" lon="1.80724">
        <ele>197</ele>
        <time>2023-04-27T12:07:56Z</time>
      </trkpt>
      <trkpt lat="48.74256" lon="1.80723">
        <ele>197</ele>
        <time>2023-04-27T12:07:57Z</time>
      </trkpt>
      <trkpt lat="48.74259" lon="1.80723">
        <ele>197</ele>
        <time>2023-04-27T12:07:58Z</time>
      </trkpt>
      <trkpt lat="48.74262" lon="1.80722">
        <ele>197</ele>
        <time>2023-04-27T12:07:59Z</time>
      </trkpt>
      <trkpt lat="48.74265" lon="1.80721">
        <ele>196.8</ele>
        <time>2023-04-27T12:08:00Z</time>
      </trkpt>
      <trkpt lat="48.74267" lon="1.80721">
        <ele>196.8</ele>
        <time>2023-04-27T12:08:01Z</time>
      </trkpt>
      <trkpt lat="48.74269" lon="1.8072">
        <ele>196.8</ele>
        <time>2023-04-27T12:08:02Z</time>
      </trkpt>
      <trkpt lat="48.74272" lon="1.8072">
        <ele>196.6</ele>
        <time>2023-04-27T12:08:03Z</time>
      </trkpt>
      <trkpt lat="48.74275" lon="1.80719">
        <ele>196.6</ele>
        <time>2023-04-27T12:08:04Z</time>
      </trkpt>
      <trkpt lat="48.74277" lon="1.80718">
        <ele>196.6</ele>
        <time>2023-04-27T12:08:05Z</time>
      </trkpt>
      <trkpt lat="48.7428" lon="1.80718">
        <ele>196.6</ele>
        <time>2023-04-27T12:08:06Z</time>
      </trkpt>
      <trkpt lat="48.74283" lon="1.80717">
        <ele>196.6</ele>
        <time>2023-04-27T12:08:07Z</time>
      </trkpt>
      <trkpt lat="48.74287" lon="1.80716">
        <ele>196.6</ele>
        <time>2023-04-27T12:08:08Z</time>
      </trkpt>
      <trkpt lat="48.7429" lon="1.80715">
        <ele>196.8</ele>
        <time>2023-04-27T12:08:09Z</time>
      </trkpt>
      <trkpt lat="48.74293" lon="1.80714">
        <ele>196.8</ele>
        <time>2023-04-27T12:08:10Z</time>
      </trkpt>
      <trkpt lat="48.74297" lon="1.80713">
        <ele>196.8</ele>
        <time>2023-04-27T12:08:11Z</time>
      </trkpt>
      <trkpt lat="48.743" lon="1.80712">
        <ele>196.8</ele>
        <time>2023-04-27T12:08:12Z</time>
      </trkpt>
      <trkpt lat="48.74304" lon="1.80711">
        <ele>196.8</ele>
        <time>2023-04-27T12:08:13Z</time>
      </trkpt>
      <trkpt lat="48.74307" lon="1.80711">
        <ele>197</ele>
        <time>2023-04-27T12:08:14Z</time>
      </trkpt>
      <trkpt lat="48.74311" lon="1.8071">
        <ele>197</ele>
        <time>2023-04-27T12:08:15Z</time>
      </trkpt>
      <trkpt lat="48.74315" lon="1.80709">
        <ele>197</ele>
        <time>2023-04-27T12:08:16Z</time>
      </trkpt>
      <trkpt lat="48.74318" lon="1.80708">
        <ele>197</ele>
        <time>2023-04-27T12:08:17Z</time>
      </trkpt>
      <trkpt lat="48.74321" lon="1.80707">
        <ele>197</ele>
        <time>2023-04-27T12:08:18Z</time>
      </trkpt>
      <trkpt lat="48.74324" lon="1.80706">
        <ele>197.2</ele>
        <time>2023-04-27T12:08:19Z</time>
      </trkpt>
      <trkpt lat="48.74325" lon="1.80705">
        <ele>197.2</ele>
        <time>2023-04-27T12:08:20Z</time>
      </trkpt>
      <trkpt lat="48.74329" lon="1.80703">
        <ele>197.2</ele>
        <time>2023-04-27T12:08:22Z</time>
      </trkpt>
      <trkpt lat="48.74331" lon="1.80702">
        <ele>197.2</ele>
        <time>2023-04-27T12:08:24Z</time>
      </trkpt>
      <trkpt lat="48.74335" lon="1.80701">
        <ele>197.2</ele>
        <time>2023-04-27T12:08:26Z</time>
      </trkpt>
      <trkpt lat="48.74337" lon="1.80701">
        <ele>197.2</ele>
        <time>2023-04-27T12:08:27Z</time>
      </trkpt>
      <trkpt lat="48.7434" lon="1.807">
        <ele>197.2</ele>
        <time>2023-04-27T12:08:28Z</time>
      </trkpt>
      <trkpt lat="48.74343" lon="1.807">
        <ele>197.2</ele>
        <time>2023-04-27T12:08:29Z</time>
      </trkpt>
      <trkpt lat="48.74346" lon="1.80699">
        <ele>197.2</ele>
        <time>2023-04-27T12:08:30Z</time>
      </trkpt>
      <trkpt lat="48.74349" lon="1.80699">
        <ele>197.2</ele>
        <time>2023-04-27T12:08:31Z</time>
      </trkpt>
      <trkpt lat="48.74353" lon="1.80698">
        <ele>197.2</ele>
        <time>2023-04-27T12:08:32Z</time>
      </trkpt>
      <trkpt lat="48.74356" lon="1.80697">
        <ele>197.2</ele>
        <time>2023-04-27T12:08:33Z</time>
      </trkpt>
      <trkpt lat="48.74359" lon="1.80696">
        <ele>197.2</ele>
        <time>2023-04-27T12:08:34Z</time>
      </trkpt>
      <trkpt lat="48.74362" lon="1.80696">
        <ele>197.2</ele>
        <time>2023-04-27T12:08:35Z</time>
      </trkpt>
      <trkpt lat="48.74365" lon="1.80696">
        <ele>197.2</ele>
        <time>2023-04-27T12:08:36Z</time>
      </trkpt>
      <trkpt lat="48.74368" lon="1.80695">
        <ele>197.2</ele>
        <time>2023-04-27T12:08:37Z</time>
      </trkpt>
      <trkpt lat="48.74371" lon="1.80695">
        <ele>197.2</ele>
        <time>2023-04-27T12:08:38Z</time>
      </trkpt>
      <trkpt lat="48.74374" lon="1.80694">
        <ele>197.2</ele>
        <time>2023-04-27T12:08:39Z</time>
      </trkpt>
      <trkpt lat="48.74378" lon="1.80693">
        <ele>197.2</ele>
        <time>2023-04-27T12:08:40Z</time>
      </trkpt>
      <trkpt lat="48.74382" lon="1.80692">
        <ele>197.2</ele>
        <time>2023-04-27T12:08:41Z</time>
      </trkpt>
      <trkpt lat="48.74386" lon="1.80692">
        <ele>197.2</ele>
        <time>2023-04-27T12:08:42Z</time>
      </trkpt>
      <trkpt lat="48.7439" lon="1.80691">
        <ele>197.4</ele>
        <time>2023-04-27T12:08:43Z</time>
      </trkpt>
      <trkpt lat="48.74394" lon="1.80691">
        <ele>197.4</ele>
        <time>2023-04-27T12:08:44Z</time>
      </trkpt>
      <trkpt lat="48.74398" lon="1.80691">
        <ele>197.4</ele>
        <time>2023-04-27T12:08:45Z</time>
      </trkpt>
      <trkpt lat="48.74401" lon="1.8069">
        <ele>197.4</ele>
        <time>2023-04-27T12:08:46Z</time>
      </trkpt>
      <trkpt lat="48.74404" lon="1.8069">
        <ele>197.4</ele>
        <time>2023-04-27T12:08:47Z</time>
      </trkpt>
      <trkpt lat="48.74408" lon="1.80689">
        <ele>197.6</ele>
        <time>2023-04-27T12:08:48Z</time>
      </trkpt>
      <trkpt lat="48.74412" lon="1.80689">
        <ele>197.6</ele>
        <time>2023-04-27T12:08:49Z</time>
      </trkpt>
      <trkpt lat="48.74415" lon="1.80688">
        <ele>197.6</ele>
        <time>2023-04-27T12:08:50Z</time>
      </trkpt>
      <trkpt lat="48.74418" lon="1.80688">
        <ele>197.6</ele>
        <time>2023-04-27T12:08:51Z</time>
      </trkpt>
      <trkpt lat="48.74422" lon="1.80687">
        <ele>197.6</ele>
        <time>2023-04-27T12:08:52Z</time>
      </trkpt>
      <trkpt lat="48.74425" lon="1.80687">
        <ele>197.6</ele>
        <time>2023-04-27T12:08:53Z</time>
      </trkpt>
      <trkpt lat="48.74428" lon="1.80687">
        <ele>197.6</ele>
        <time>2023-04-27T12:08:54Z</time>
      </trkpt>
      <trkpt lat="48.74431" lon="1.80687">
        <ele>197.6</ele>
        <time>2023-04-27T12:08:55Z</time>
      </trkpt>
      <trkpt lat="48.74434" lon="1.80687">
        <ele>197.6</ele>
        <time>2023-04-27T12:08:56Z</time>
      </trkpt>
      <trkpt lat="48.74437" lon="1.80687">
        <ele>197.6</ele>
        <time>2023-04-27T12:08:57Z</time>
      </trkpt>
      <trkpt lat="48.7444" lon="1.80686">
        <ele>197.6</ele>
        <time>2023-04-27T12:08:58Z</time>
      </trkpt>
      <trkpt lat="48.74443" lon="1.80685">
        <ele>197.4</ele>
        <time>2023-04-27T12:08:59Z</time>
      </trkpt>
      <trkpt lat="48.74445" lon="1.80684">
        <ele>197.4</ele>
        <time>2023-04-27T12:09:00Z</time>
      </trkpt>
      <trkpt lat="48.74449" lon="1.80683">
        <ele>197.2</ele>
        <time>2023-04-27T12:09:02Z</time>
      </trkpt>
      <trkpt lat="48.74452" lon="1.80682">
        <ele>197</ele>
        <time>2023-04-27T12:09:04Z</time>
      </trkpt>
      <trkpt lat="48.74454" lon="1.80681">
        <ele>197</ele>
        <time>2023-04-27T12:09:05Z</time>
      </trkpt>
      <trkpt lat="48.74457" lon="1.80681">
        <ele>196.8</ele>
        <time>2023-04-27T12:09:07Z</time>
      </trkpt>
      <trkpt lat="48.7446" lon="1.80681">
        <ele>196.8</ele>
        <time>2023-04-27T12:09:09Z</time>
      </trkpt>
      <trkpt lat="48.74463" lon="1.80681">
        <ele>196.8</ele>
        <time>2023-04-27T12:09:11Z</time>
      </trkpt>
      <trkpt lat="48.74466" lon="1.80683">
        <ele>196.8</ele>
        <time>2023-04-27T12:09:13Z</time>
      </trkpt>
      <trkpt lat="48.74468" lon="1.80685">
        <ele>196.8</ele>
        <time>2023-04-27T12:09:15Z</time>
      </trkpt>
      <trkpt lat="48.7447" lon="1.80686">
        <ele>196.6</ele>
        <time>2023-04-27T12:09:16Z</time>
      </trkpt>
      <trkpt lat="48.74472" lon="1.80687">
        <ele>196.6</ele>
        <time>2023-04-27T12:09:17Z</time>
      </trkpt>
      <trkpt lat="48.74474" lon="1.80689">
        <ele>196.6</ele>
        <time>2023-04-27T12:09:18Z</time>
      </trkpt>
      <trkpt lat="48.74476" lon="1.8069">
        <ele>196.6</ele>
        <time>2023-04-27T12:09:19Z</time>
      </trkpt>
      <trkpt lat="48.74478" lon="1.80693">
        <ele>196.4</ele>
        <time>2023-04-27T12:09:21Z</time>
      </trkpt>
      <trkpt lat="48.7448" lon="1.80694">
        <ele>196.2</ele>
        <time>2023-04-27T12:09:23Z</time>
      </trkpt>
      <trkpt lat="48.7448" lon="1.8069">
        <ele>195</ele>
        <time>2023-04-27T12:09:30Z</time>
      </trkpt>
      <trkpt lat="48.74477" lon="1.80687">
        <ele>194.8</ele>
        <time>2023-04-27T12:09:32Z</time>
      </trkpt>
      <trkpt lat="48.74476" lon="1.80683">
        <ele>194.2</ele>
        <time>2023-04-27T12:09:34Z</time>
      </trkpt>
      <trkpt lat="48.74475" lon="1.8068">
        <ele>193.8</ele>
        <time>2023-04-27T12:09:36Z</time>
      </trkpt>
      <trkpt lat="48.74474" lon="1.80677">
        <ele>193.2</ele>
        <time>2023-04-27T12:09:38Z</time>
      </trkpt>
      <trkpt lat="48.74475" lon="1.80674">
        <ele>192.6</ele>
        <time>2023-04-27T12:09:40Z</time>
      </trkpt>
      <trkpt lat="48.74476" lon="1.8067">
        <ele>192</ele>
        <time>2023-04-27T12:09:42Z</time>
      </trkpt>
      <trkpt lat="48.74477" lon="1.80666">
        <ele>191.4</ele>
        <time>2023-04-27T12:09:44Z</time>
      </trkpt>
      <trkpt lat="48.74478" lon="1.80662">
        <ele>191</ele>
        <time>2023-04-27T12:09:46Z</time>
      </trkpt>
      <trkpt lat="48.74479" lon="1.80659">
        <ele>190.6</ele>
        <time>2023-04-27T12:09:48Z</time>
      </trkpt>
      <trkpt lat="48.7448" lon="1.80656">
        <ele>190.2</ele>
        <time>2023-04-27T12:09:50Z</time>
      </trkpt>
      <trkpt lat="48.74482" lon="1.80654">
        <ele>189.8</ele>
        <time>2023-04-27T12:09:52Z</time>
      </trkpt>
      <trkpt lat="48.74483" lon="1.80651">
        <ele>189.2</ele>
        <time>2023-04-27T12:09:55Z</time>
      </trkpt>
      <trkpt lat="48.74484" lon="1.80648">
        <ele>188.8</ele>
        <time>2023-04-27T12:09:58Z</time>
      </trkpt>
      <trkpt lat="48.74484" lon="1.80645">
        <ele>188.4</ele>
        <time>2023-04-27T12:10:00Z</time>
      </trkpt>
      <trkpt lat="48.74484" lon="1.80641">
        <ele>188.2</ele>
        <time>2023-04-27T12:10:02Z</time>
      </trkpt>
      <trkpt lat="48.74486" lon="1.80638">
        <ele>187.8</ele>
        <time>2023-04-27T12:10:04Z</time>
      </trkpt>
      <trkpt lat="48.74486" lon="1.80635">
        <ele>187.6</ele>
        <time>2023-04-27T12:10:06Z</time>
      </trkpt>
      <trkpt lat="48.74487" lon="1.80631">
        <ele>187.2</ele>
        <time>2023-04-27T12:10:08Z</time>
      </trkpt>
      <trkpt lat="48.74489" lon="1.80628">
        <ele>187</ele>
        <time>2023-04-27T12:10:10Z</time>
      </trkpt>
      <trkpt lat="48.7449" lon="1.80626">
        <ele>186.8</ele>
        <time>2023-04-27T12:10:12Z</time>
      </trkpt>
      <trkpt lat="48.74492" lon="1.80624">
        <ele>186.4</ele>
        <time>2023-04-27T12:10:14Z</time>
      </trkpt>
      <trkpt lat="48.74492" lon="1.80621">
        <ele>186</ele>
        <time>2023-04-27T12:10:17Z</time>
      </trkpt>
      <trkpt lat="48.74492" lon="1.80618">
        <ele>185.6</ele>
        <time>2023-04-27T12:10:19Z</time>
      </trkpt>
      <trkpt lat="48.74492" lon="1.80614">
        <ele>185.2</ele>
        <time>2023-04-27T12:10:21Z</time>
      </trkpt>
      <trkpt lat="48.74492" lon="1.8061">
        <ele>184.8</ele>
        <time>2023-04-27T12:10:23Z</time>
      </trkpt>
      <trkpt lat="48.74492" lon="1.80606">
        <ele>184.4</ele>
        <time>2023-04-27T12:10:25Z</time>
      </trkpt>
      <trkpt lat="48.74492" lon="1.80602">
        <ele>183.8</ele>
        <time>2023-04-27T12:10:27Z</time>
      </trkpt>
      <trkpt lat="48.74492" lon="1.80598">
        <ele>183.4</ele>
        <time>2023-04-27T12:10:29Z</time>
      </trkpt>
      <trkpt lat="48.74492" lon="1.80594">
        <ele>183</ele>
        <time>2023-04-27T12:10:31Z</time>
      </trkpt>
      <trkpt lat="48.74491" lon="1.80591">
        <ele>182.8</ele>
        <time>2023-04-27T12:10:33Z</time>
      </trkpt>
      <trkpt lat="48.7449" lon="1.80587">
        <ele>182.4</ele>
        <time>2023-04-27T12:10:35Z</time>
      </trkpt>
      <trkpt lat="48.74488" lon="1.80583">
        <ele>182.2</ele>
        <time>2023-04-27T12:10:37Z</time>
      </trkpt>
      <trkpt lat="48.74487" lon="1.80579">
        <ele>182</ele>
        <time>2023-04-27T12:10:39Z</time>
      </trkpt>
      <trkpt lat="48.74486" lon="1.80575">
        <ele>181.8</ele>
        <time>2023-04-27T12:10:41Z</time>
      </trkpt>
      <trkpt lat="48.74485" lon="1.80571">
        <ele>181.6</ele>
        <time>2023-04-27T12:10:43Z</time>
      </trkpt>
      <trkpt lat="48.74485" lon="1.80565">
        <ele>181.4</ele>
        <time>2023-04-27T12:10:45Z</time>
      </trkpt>
      <trkpt lat="48.74485" lon="1.80563">
        <ele>181.2</ele>
        <time>2023-04-27T12:10:46Z</time>
      </trkpt>
      <trkpt lat="48.74485" lon="1.80559">
        <ele>181.2</ele>
        <time>2023-04-27T12:10:47Z</time>
      </trkpt>
      <trkpt lat="48.74485" lon="1.80556">
        <ele>181.2</ele>
        <time>2023-04-27T12:10:48Z</time>
      </trkpt>
      <trkpt lat="48.74485" lon="1.80552">
        <ele>181.2</ele>
        <time>2023-04-27T12:10:49Z</time>
      </trkpt>
      <trkpt lat="48.74484" lon="1.80549">
        <ele>181.2</ele>
        <time>2023-04-27T12:10:50Z</time>
      </trkpt>
      <trkpt lat="48.74484" lon="1.80545">
        <ele>181.2</ele>
        <time>2023-04-27T12:10:51Z</time>
      </trkpt>
      <trkpt lat="48.74484" lon="1.80541">
        <ele>181.2</ele>
        <time>2023-04-27T12:10:52Z</time>
      </trkpt>
      <trkpt lat="48.74484" lon="1.80537">
        <ele>181.2</ele>
        <time>2023-04-27T12:10:53Z</time>
      </trkpt>
      <trkpt lat="48.74484" lon="1.80533">
        <ele>181.2</ele>
        <time>2023-04-27T12:10:54Z</time>
      </trkpt>
      <trkpt lat="48.74484" lon="1.80529">
        <ele>181.4</ele>
        <time>2023-04-27T12:10:55Z</time>
      </trkpt>
      <trkpt lat="48.74484" lon="1.80524">
        <ele>181.4</ele>
        <time>2023-04-27T12:10:56Z</time>
      </trkpt>
      <trkpt lat="48.74483" lon="1.8052">
        <ele>181.4</ele>
        <time>2023-04-27T12:10:57Z</time>
      </trkpt>
      <trkpt lat="48.74482" lon="1.80516">
        <ele>181.4</ele>
        <time>2023-04-27T12:10:58Z</time>
      </trkpt>
      <trkpt lat="48.74482" lon="1.80511">
        <ele>181.6</ele>
        <time>2023-04-27T12:10:59Z</time>
      </trkpt>
      <trkpt lat="48.74481" lon="1.80507">
        <ele>181.6</ele>
        <time>2023-04-27T12:11:00Z</time>
      </trkpt>
      <trkpt lat="48.7448" lon="1.80502">
        <ele>181.6</ele>
        <time>2023-04-27T12:11:01Z</time>
      </trkpt>
      <trkpt lat="48.7448" lon="1.80498">
        <ele>181.6</ele>
        <time>2023-04-27T12:11:02Z</time>
      </trkpt>
      <trkpt lat="48.7448" lon="1.80493">
        <ele>181.8</ele>
        <time>2023-04-27T12:11:03Z</time>
      </trkpt>
      <trkpt lat="48.7448" lon="1.80489">
        <ele>181.8</ele>
        <time>2023-04-27T12:11:04Z</time>
      </trkpt>
      <trkpt lat="48.7448" lon="1.80485">
        <ele>182</ele>
        <time>2023-04-27T12:11:05Z</time>
      </trkpt>
      <trkpt lat="48.7448" lon="1.80481">
        <ele>182</ele>
        <time>2023-04-27T12:11:06Z</time>
      </trkpt>
      <trkpt lat="48.7448" lon="1.80477">
        <ele>182.2</ele>
        <time>2023-04-27T12:11:07Z</time>
      </trkpt>
      <trkpt lat="48.7448" lon="1.80473">
        <ele>182.4</ele>
        <time>2023-04-27T12:11:08Z</time>
      </trkpt>
      <trkpt lat="48.74479" lon="1.80469">
        <ele>182.4</ele>
        <time>2023-04-27T12:11:09Z</time>
      </trkpt>
      <trkpt lat="48.74479" lon="1.80464">
        <ele>182.4</ele>
        <time>2023-04-27T12:11:10Z</time>
      </trkpt>
      <trkpt lat="48.74479" lon="1.8046">
        <ele>182.4</ele>
        <time>2023-04-27T12:11:11Z</time>
      </trkpt>
      <trkpt lat="48.74479" lon="1.80455">
        <ele>182.6</ele>
        <time>2023-04-27T12:11:12Z</time>
      </trkpt>
      <trkpt lat="48.74479" lon="1.8045">
        <ele>182.4</ele>
        <time>2023-04-27T12:11:13Z</time>
      </trkpt>
      <trkpt lat="48.74479" lon="1.80446">
        <ele>182.4</ele>
        <time>2023-04-27T12:11:14Z</time>
      </trkpt>
      <trkpt lat="48.74479" lon="1.80441">
        <ele>182.4</ele>
        <time>2023-04-27T12:11:15Z</time>
      </trkpt>
      <trkpt lat="48.74479" lon="1.80436">
        <ele>182.2</ele>
        <time>2023-04-27T12:11:16Z</time>
      </trkpt>
      <trkpt lat="48.7448" lon="1.80431">
        <ele>182.2</ele>
        <time>2023-04-27T12:11:17Z</time>
      </trkpt>
      <trkpt lat="48.74481" lon="1.80426">
        <ele>182</ele>
        <time>2023-04-27T12:11:18Z</time>
      </trkpt>
      <trkpt lat="48.74481" lon="1.80421">
        <ele>182</ele>
        <time>2023-04-27T12:11:19Z</time>
      </trkpt>
      <trkpt lat="48.74482" lon="1.80417">
        <ele>182</ele>
        <time>2023-04-27T12:11:20Z</time>
      </trkpt>
      <trkpt lat="48.74483" lon="1.80413">
        <ele>182</ele>
        <time>2023-04-27T12:11:21Z</time>
      </trkpt>
      <trkpt lat="48.74483" lon="1.80409">
        <ele>181.8</ele>
        <time>2023-04-27T12:11:22Z</time>
      </trkpt>
      <trkpt lat="48.74484" lon="1.80405">
        <ele>181.8</ele>
        <time>2023-04-27T12:11:23Z</time>
      </trkpt>
      <trkpt lat="48.74484" lon="1.80402">
        <ele>181.8</ele>
        <time>2023-04-27T12:11:24Z</time>
      </trkpt>
      <trkpt lat="48.74483" lon="1.80398">
        <ele>181.8</ele>
        <time>2023-04-27T12:11:25Z</time>
      </trkpt>
      <trkpt lat="48.74483" lon="1.80394">
        <ele>181.8</ele>
        <time>2023-04-27T12:11:26Z</time>
      </trkpt>
      <trkpt lat="48.74482" lon="1.80389">
        <ele>181.8</ele>
        <time>2023-04-27T12:11:27Z</time>
      </trkpt>
      <trkpt lat="48.74482" lon="1.80385">
        <ele>181.8</ele>
        <time>2023-04-27T12:11:28Z</time>
      </trkpt>
      <trkpt lat="48.74481" lon="1.80381">
        <ele>182</ele>
        <time>2023-04-27T12:11:29Z</time>
      </trkpt>
      <trkpt lat="48.7448" lon="1.80377">
        <ele>182</ele>
        <time>2023-04-27T12:11:30Z</time>
      </trkpt>
      <trkpt lat="48.74479" lon="1.80373">
        <ele>182</ele>
        <time>2023-04-27T12:11:31Z</time>
      </trkpt>
      <trkpt lat="48.74479" lon="1.8037">
        <ele>182</ele>
        <time>2023-04-27T12:11:32Z</time>
      </trkpt>
      <trkpt lat="48.74478" lon="1.80367">
        <ele>181.8</ele>
        <time>2023-04-27T12:11:33Z</time>
      </trkpt>
      <trkpt lat="48.74478" lon="1.80362">
        <ele>181.8</ele>
        <time>2023-04-27T12:11:35Z</time>
      </trkpt>
      <trkpt lat="48.74478" lon="1.80359">
        <ele>181.8</ele>
        <time>2023-04-27T12:11:36Z</time>
      </trkpt>
      <trkpt lat="48.74479" lon="1.80356">
        <ele>181.6</ele>
        <time>2023-04-27T12:11:37Z</time>
      </trkpt>
      <trkpt lat="48.74479" lon="1.80352">
        <ele>181.6</ele>
        <time>2023-04-27T12:11:38Z</time>
      </trkpt>
      <trkpt lat="48.7448" lon="1.80348">
        <ele>181.6</ele>
        <time>2023-04-27T12:11:39Z</time>
      </trkpt>
      <trkpt lat="48.7448" lon="1.80344">
        <ele>181.4</ele>
        <time>2023-04-27T12:11:40Z</time>
      </trkpt>
      <trkpt lat="48.7448" lon="1.80339">
        <ele>181.4</ele>
        <time>2023-04-27T12:11:41Z</time>
      </trkpt>
      <trkpt lat="48.7448" lon="1.80335">
        <ele>181.4</ele>
        <time>2023-04-27T12:11:42Z</time>
      </trkpt>
      <trkpt lat="48.74479" lon="1.80331">
        <ele>181.4</ele>
        <time>2023-04-27T12:11:43Z</time>
      </trkpt>
      <trkpt lat="48.74478" lon="1.80327">
        <ele>181.4</ele>
        <time>2023-04-27T12:11:44Z</time>
      </trkpt>
      <trkpt lat="48.74478" lon="1.80324">
        <ele>181.4</ele>
        <time>2023-04-27T12:11:45Z</time>
      </trkpt>
      <trkpt lat="48.74478" lon="1.80321">
        <ele>181.4</ele>
        <time>2023-04-27T12:11:46Z</time>
      </trkpt>
      <trkpt lat="48.74478" lon="1.80316">
        <ele>181.4</ele>
        <time>2023-04-27T12:11:48Z</time>
      </trkpt>
      <trkpt lat="48.74479" lon="1.80312">
        <ele>181.4</ele>
        <time>2023-04-27T12:11:50Z</time>
      </trkpt>
      <trkpt lat="48.74479" lon="1.80309">
        <ele>181.2</ele>
        <time>2023-04-27T12:11:52Z</time>
      </trkpt>
      <trkpt lat="48.74479" lon="1.80304">
        <ele>181.2</ele>
        <time>2023-04-27T12:11:54Z</time>
      </trkpt>
      <trkpt lat="48.7448" lon="1.80299">
        <ele>181</ele>
        <time>2023-04-27T12:11:56Z</time>
      </trkpt>
      <trkpt lat="48.7448" lon="1.80293">
        <ele>180.8</ele>
        <time>2023-04-27T12:11:58Z</time>
      </trkpt>
      <trkpt lat="48.7448" lon="1.80289">
        <ele>180.6</ele>
        <time>2023-04-27T12:12:00Z</time>
      </trkpt>
      <trkpt lat="48.7448" lon="1.80284">
        <ele>180.4</ele>
        <time>2023-04-27T12:12:02Z</time>
      </trkpt>
      <trkpt lat="48.74479" lon="1.8028">
        <ele>180.4</ele>
        <time>2023-04-27T12:12:04Z</time>
      </trkpt>
      <trkpt lat="48.74478" lon="1.80276">
        <ele>180.4</ele>
        <time>2023-04-27T12:12:06Z</time>
      </trkpt>
      <trkpt lat="48.74478" lon="1.80271">
        <ele>180.4</ele>
        <time>2023-04-27T12:12:08Z</time>
      </trkpt>
      <trkpt lat="48.74479" lon="1.80266">
        <ele>180.2</ele>
        <time>2023-04-27T12:12:10Z</time>
      </trkpt>
      <trkpt lat="48.74479" lon="1.80261">
        <ele>180.2</ele>
        <time>2023-04-27T12:12:12Z</time>
      </trkpt>
      <trkpt lat="48.74479" lon="1.80257">
        <ele>180.2</ele>
        <time>2023-04-27T12:12:14Z</time>
      </trkpt>
      <trkpt lat="48.74479" lon="1.80252">
        <ele>180</ele>
        <time>2023-04-27T12:12:16Z</time>
      </trkpt>
      <trkpt lat="48.74478" lon="1.80247">
        <ele>180.2</ele>
        <time>2023-04-27T12:12:18Z</time>
      </trkpt>
      <trkpt lat="48.74477" lon="1.80242">
        <ele>180.2</ele>
        <time>2023-04-27T12:12:20Z</time>
      </trkpt>
      <trkpt lat="48.74476" lon="1.80239">
        <ele>180.2</ele>
        <time>2023-04-27T12:12:21Z</time>
      </trkpt>
      <trkpt lat="48.74476" lon="1.80234">
        <ele>180.2</ele>
        <time>2023-04-27T12:12:23Z</time>
      </trkpt>
      <trkpt lat="48.74476" lon="1.80231">
        <ele>180.2</ele>
        <time>2023-04-27T12:12:24Z</time>
      </trkpt>
      <trkpt lat="48.74475" lon="1.80228">
        <ele>180.2</ele>
        <time>2023-04-27T12:12:25Z</time>
      </trkpt>
      <trkpt lat="48.74475" lon="1.80226">
        <ele>180.2</ele>
        <time>2023-04-27T12:12:26Z</time>
      </trkpt>
      <trkpt lat="48.74473" lon="1.80221">
        <ele>180</ele>
        <time>2023-04-27T12:12:28Z</time>
      </trkpt>
      <trkpt lat="48.74472" lon="1.80218">
        <ele>180</ele>
        <time>2023-04-27T12:12:30Z</time>
      </trkpt>
      <trkpt lat="48.74472" lon="1.80215">
        <ele>179.6</ele>
        <time>2023-04-27T12:12:33Z</time>
      </trkpt>
      <trkpt lat="48.74472" lon="1.80211">
        <ele>179.6</ele>
        <time>2023-04-27T12:12:35Z</time>
      </trkpt>
      <trkpt lat="48.74473" lon="1.80206">
        <ele>179.4</ele>
        <time>2023-04-27T12:12:37Z</time>
      </trkpt>
      <trkpt lat="48.74473" lon="1.80202">
        <ele>179.2</ele>
        <time>2023-04-27T12:12:39Z</time>
      </trkpt>
      <trkpt lat="48.74474" lon="1.80199">
        <ele>179</ele>
        <time>2023-04-27T12:12:41Z</time>
      </trkpt>
      <trkpt lat="48.74474" lon="1.80196">
        <ele>179</ele>
        <time>2023-04-27T12:12:43Z</time>
      </trkpt>
      <trkpt lat="48.74475" lon="1.80193">
        <ele>178.8</ele>
        <time>2023-04-27T12:12:45Z</time>
      </trkpt>
      <trkpt lat="48.74476" lon="1.8019">
        <ele>178.8</ele>
        <time>2023-04-27T12:12:47Z</time>
      </trkpt>
      <trkpt lat="48.74476" lon="1.80187">
        <ele>178.8</ele>
        <time>2023-04-27T12:12:49Z</time>
      </trkpt>
      <trkpt lat="48.74476" lon="1.80184">
        <ele>178.8</ele>
        <time>2023-04-27T12:12:51Z</time>
      </trkpt>
      <trkpt lat="48.74477" lon="1.80181">
        <ele>178.8</ele>
        <time>2023-04-27T12:12:53Z</time>
      </trkpt>
      <trkpt lat="48.74477" lon="1.80177">
        <ele>178.6</ele>
        <time>2023-04-27T12:12:55Z</time>
      </trkpt>
      <trkpt lat="48.74476" lon="1.80172">
        <ele>178.6</ele>
        <time>2023-04-27T12:12:57Z</time>
      </trkpt>
      <trkpt lat="48.74474" lon="1.80167">
        <ele>178.6</ele>
        <time>2023-04-27T12:12:59Z</time>
      </trkpt>
      <trkpt lat="48.74473" lon="1.80164">
        <ele>178.6</ele>
        <time>2023-04-27T12:13:00Z</time>
      </trkpt>
      <trkpt lat="48.74473" lon="1.80161">
        <ele>178.6</ele>
        <time>2023-04-27T12:13:01Z</time>
      </trkpt>
      <trkpt lat="48.74472" lon="1.80159">
        <ele>178.8</ele>
        <time>2023-04-27T12:13:02Z</time>
      </trkpt>
      <trkpt lat="48.74472" lon="1.80154">
        <ele>178.8</ele>
        <time>2023-04-27T12:13:04Z</time>
      </trkpt>
      <trkpt lat="48.74472" lon="1.80149">
        <ele>179</ele>
        <time>2023-04-27T12:13:06Z</time>
      </trkpt>
      <trkpt lat="48.74473" lon="1.80145">
        <ele>179</ele>
        <time>2023-04-27T12:13:08Z</time>
      </trkpt>
      <trkpt lat="48.74473" lon="1.80142">
        <ele>179.2</ele>
        <time>2023-04-27T12:13:10Z</time>
      </trkpt>
      <trkpt lat="48.74472" lon="1.80138">
        <ele>179.4</ele>
        <time>2023-04-27T12:13:12Z</time>
      </trkpt>
      <trkpt lat="48.74471" lon="1.80133">
        <ele>179.6</ele>
        <time>2023-04-27T12:13:14Z</time>
      </trkpt>
      <trkpt lat="48.7447" lon="1.80129">
        <ele>179.8</ele>
        <time>2023-04-27T12:13:16Z</time>
      </trkpt>
      <trkpt lat="48.74469" lon="1.80123">
        <ele>180</ele>
        <time>2023-04-27T12:13:18Z</time>
      </trkpt>
      <trkpt lat="48.74469" lon="1.8012">
        <ele>180</ele>
        <time>2023-04-27T12:13:19Z</time>
      </trkpt>
      <trkpt lat="48.74469" lon="1.80117">
        <ele>180.2</ele>
        <time>2023-04-27T12:13:20Z</time>
      </trkpt>
      <trkpt lat="48.74469" lon="1.80113">
        <ele>180.2</ele>
        <time>2023-04-27T12:13:21Z</time>
      </trkpt>
      <trkpt lat="48.74468" lon="1.80109">
        <ele>180.2</ele>
        <time>2023-04-27T12:13:22Z</time>
      </trkpt>
      <trkpt lat="48.74468" lon="1.80104">
        <ele>180.2</ele>
        <time>2023-04-27T12:13:23Z</time>
      </trkpt>
      <trkpt lat="48.74468" lon="1.801">
        <ele>180.4</ele>
        <time>2023-04-27T12:13:24Z</time>
      </trkpt>
      <trkpt lat="48.74467" lon="1.80095">
        <ele>180.4</ele>
        <time>2023-04-27T12:13:25Z</time>
      </trkpt>
      <trkpt lat="48.74467" lon="1.8009">
        <ele>180.4</ele>
        <time>2023-04-27T12:13:26Z</time>
      </trkpt>
      <trkpt lat="48.74466" lon="1.80085">
        <ele>180.6</ele>
        <time>2023-04-27T12:13:27Z</time>
      </trkpt>
      <trkpt lat="48.74466" lon="1.8008">
        <ele>180.6</ele>
        <time>2023-04-27T12:13:28Z</time>
      </trkpt>
      <trkpt lat="48.74466" lon="1.80076">
        <ele>180.6</ele>
        <time>2023-04-27T12:13:29Z</time>
      </trkpt>
      <trkpt lat="48.74467" lon="1.80072">
        <ele>180.4</ele>
        <time>2023-04-27T12:13:30Z</time>
      </trkpt>
      <trkpt lat="48.74467" lon="1.80067">
        <ele>180.4</ele>
        <time>2023-04-27T12:13:31Z</time>
      </trkpt>
      <trkpt lat="48.74468" lon="1.80062">
        <ele>180.4</ele>
        <time>2023-04-27T12:13:32Z</time>
      </trkpt>
      <trkpt lat="48.74468" lon="1.80057">
        <ele>180.4</ele>
        <time>2023-04-27T12:13:33Z</time>
      </trkpt>
      <trkpt lat="48.74468" lon="1.80051">
        <ele>180.2</ele>
        <time>2023-04-27T12:13:34Z</time>
      </trkpt>
      <trkpt lat="48.74468" lon="1.80046">
        <ele>180.2</ele>
        <time>2023-04-27T12:13:35Z</time>
      </trkpt>
      <trkpt lat="48.74468" lon="1.80041">
        <ele>180.2</ele>
        <time>2023-04-27T12:13:36Z</time>
      </trkpt>
      <trkpt lat="48.74468" lon="1.80036">
        <ele>180.2</ele>
        <time>2023-04-27T12:13:37Z</time>
      </trkpt>
      <trkpt lat="48.74468" lon="1.80031">
        <ele>180.2</ele>
        <time>2023-04-27T12:13:38Z</time>
      </trkpt>
      <trkpt lat="48.74467" lon="1.80026">
        <ele>180</ele>
        <time>2023-04-27T12:13:39Z</time>
      </trkpt>
      <trkpt lat="48.74467" lon="1.80022">
        <ele>180</ele>
        <time>2023-04-27T12:13:40Z</time>
      </trkpt>
      <trkpt lat="48.74467" lon="1.80017">
        <ele>180</ele>
        <time>2023-04-27T12:13:41Z</time>
      </trkpt>
      <trkpt lat="48.74467" lon="1.80013">
        <ele>179.8</ele>
        <time>2023-04-27T12:13:42Z</time>
      </trkpt>
      <trkpt lat="48.74467" lon="1.80009">
        <ele>179.8</ele>
        <time>2023-04-27T12:13:43Z</time>
      </trkpt>
      <trkpt lat="48.74468" lon="1.80005">
        <ele>179.8</ele>
        <time>2023-04-27T12:13:44Z</time>
      </trkpt>
      <trkpt lat="48.74468" lon="1.8">
        <ele>179.8</ele>
        <time>2023-04-27T12:13:45Z</time>
      </trkpt>
      <trkpt lat="48.74468" lon="1.79995">
        <ele>179.8</ele>
        <time>2023-04-27T12:13:46Z</time>
      </trkpt>
      <trkpt lat="48.74468" lon="1.7999">
        <ele>179.8</ele>
        <time>2023-04-27T12:13:47Z</time>
      </trkpt>
      <trkpt lat="48.74468" lon="1.79985">
        <ele>179.6</ele>
        <time>2023-04-27T12:13:48Z</time>
      </trkpt>
      <trkpt lat="48.74468" lon="1.79979">
        <ele>179.6</ele>
        <time>2023-04-27T12:13:49Z</time>
      </trkpt>
      <trkpt lat="48.74468" lon="1.79974">
        <ele>179.4</ele>
        <time>2023-04-27T12:13:50Z</time>
      </trkpt>
      <trkpt lat="48.74468" lon="1.79969">
        <ele>179.4</ele>
        <time>2023-04-27T12:13:51Z</time>
      </trkpt>
      <trkpt lat="48.74468" lon="1.79965">
        <ele>179.4</ele>
        <time>2023-04-27T12:13:52Z</time>
      </trkpt>
      <trkpt lat="48.74468" lon="1.79961">
        <ele>179.4</ele>
        <time>2023-04-27T12:13:53Z</time>
      </trkpt>
      <trkpt lat="48.74468" lon="1.79957">
        <ele>179.4</ele>
        <time>2023-04-27T12:13:54Z</time>
      </trkpt>
      <trkpt lat="48.74468" lon="1.79954">
        <ele>179.4</ele>
        <time>2023-04-27T12:13:55Z</time>
      </trkpt>
      <trkpt lat="48.74467" lon="1.79949">
        <ele>179.4</ele>
        <time>2023-04-27T12:13:57Z</time>
      </trkpt>
      <trkpt lat="48.74466" lon="1.79945">
        <ele>179.4</ele>
        <time>2023-04-27T12:13:59Z</time>
      </trkpt>
      <trkpt lat="48.74464" lon="1.79939">
        <ele>179.4</ele>
        <time>2023-04-27T12:14:01Z</time>
      </trkpt>
      <trkpt lat="48.74464" lon="1.79935">
        <ele>179.4</ele>
        <time>2023-04-27T12:14:02Z</time>
      </trkpt>
      <trkpt lat="48.74463" lon="1.79931">
        <ele>179.6</ele>
        <time>2023-04-27T12:14:03Z</time>
      </trkpt>
      <trkpt lat="48.74462" lon="1.79925">
        <ele>179.6</ele>
        <time>2023-04-27T12:14:04Z</time>
      </trkpt>
      <trkpt lat="48.74462" lon="1.7992">
        <ele>179.6</ele>
        <time>2023-04-27T12:14:05Z</time>
      </trkpt>
      <trkpt lat="48.7446" lon="1.79914">
        <ele>179.8</ele>
        <time>2023-04-27T12:14:06Z</time>
      </trkpt>
      <trkpt lat="48.7446" lon="1.79909">
        <ele>179.8</ele>
        <time>2023-04-27T12:14:07Z</time>
      </trkpt>
      <trkpt lat="48.74459" lon="1.79903">
        <ele>179.8</ele>
        <time>2023-04-27T12:14:08Z</time>
      </trkpt>
      <trkpt lat="48.74458" lon="1.79898">
        <ele>179.8</ele>
        <time>2023-04-27T12:14:09Z</time>
      </trkpt>
      <trkpt lat="48.74457" lon="1.79894">
        <ele>179.8</ele>
        <time>2023-04-27T12:14:10Z</time>
      </trkpt>
      <trkpt lat="48.74456" lon="1.79889">
        <ele>179.8</ele>
        <time>2023-04-27T12:14:11Z</time>
      </trkpt>
      <trkpt lat="48.74456" lon="1.79883">
        <ele>179.8</ele>
        <time>2023-04-27T12:14:12Z</time>
      </trkpt>
      <trkpt lat="48.74455" lon="1.79878">
        <ele>179.8</ele>
        <time>2023-04-27T12:14:13Z</time>
      </trkpt>
      <trkpt lat="48.74455" lon="1.79873">
        <ele>179.8</ele>
        <time>2023-04-27T12:14:14Z</time>
      </trkpt>
      <trkpt lat="48.74455" lon="1.79868">
        <ele>179.8</ele>
        <time>2023-04-27T12:14:15Z</time>
      </trkpt>
      <trkpt lat="48.74454" lon="1.79862">
        <ele>179.8</ele>
        <time>2023-04-27T12:14:16Z</time>
      </trkpt>
      <trkpt lat="48.74454" lon="1.79857">
        <ele>179.8</ele>
        <time>2023-04-27T12:14:17Z</time>
      </trkpt>
      <trkpt lat="48.74454" lon="1.79851">
        <ele>179.8</ele>
        <time>2023-04-27T12:14:18Z</time>
      </trkpt>
      <trkpt lat="48.74454" lon="1.79845">
        <ele>179.8</ele>
        <time>2023-04-27T12:14:19Z</time>
      </trkpt>
      <trkpt lat="48.74454" lon="1.79839">
        <ele>179.8</ele>
        <time>2023-04-27T12:14:20Z</time>
      </trkpt>
      <trkpt lat="48.74453" lon="1.79833">
        <ele>179.8</ele>
        <time>2023-04-27T12:14:21Z</time>
      </trkpt>
      <trkpt lat="48.74453" lon="1.79827">
        <ele>179.8</ele>
        <time>2023-04-27T12:14:22Z</time>
      </trkpt>
      <trkpt lat="48.74452" lon="1.79822">
        <ele>180</ele>
        <time>2023-04-27T12:14:23Z</time>
      </trkpt>
      <trkpt lat="48.74452" lon="1.79816">
        <ele>180</ele>
        <time>2023-04-27T12:14:24Z</time>
      </trkpt>
      <trkpt lat="48.74452" lon="1.7981">
        <ele>180</ele>
        <time>2023-04-27T12:14:25Z</time>
      </trkpt>
      <trkpt lat="48.74451" lon="1.79805">
        <ele>180</ele>
        <time>2023-04-27T12:14:26Z</time>
      </trkpt>
      <trkpt lat="48.7445" lon="1.79799">
        <ele>180</ele>
        <time>2023-04-27T12:14:27Z</time>
      </trkpt>
      <trkpt lat="48.74449" lon="1.79793">
        <ele>180.2</ele>
        <time>2023-04-27T12:14:28Z</time>
      </trkpt>
      <trkpt lat="48.74448" lon="1.79787">
        <ele>180.4</ele>
        <time>2023-04-27T12:14:29Z</time>
      </trkpt>
      <trkpt lat="48.74448" lon="1.79781">
        <ele>180.4</ele>
        <time>2023-04-27T12:14:30Z</time>
      </trkpt>
      <trkpt lat="48.74447" lon="1.79774">
        <ele>180.6</ele>
        <time>2023-04-27T12:14:31Z</time>
      </trkpt>
      <trkpt lat="48.74446" lon="1.79768">
        <ele>180.6</ele>
        <time>2023-04-27T12:14:32Z</time>
      </trkpt>
      <trkpt lat="48.74446" lon="1.79761">
        <ele>180.8</ele>
        <time>2023-04-27T12:14:33Z</time>
      </trkpt>
      <trkpt lat="48.74446" lon="1.79754">
        <ele>180.8</ele>
        <time>2023-04-27T12:14:34Z</time>
      </trkpt>
      <trkpt lat="48.74446" lon="1.79748">
        <ele>181</ele>
        <time>2023-04-27T12:14:35Z</time>
      </trkpt>
      <trkpt lat="48.74445" lon="1.79741">
        <ele>181</ele>
        <time>2023-04-27T12:14:36Z</time>
      </trkpt>
      <trkpt lat="48.74445" lon="1.79735">
        <ele>181.2</ele>
        <time>2023-04-27T12:14:37Z</time>
      </trkpt>
      <trkpt lat="48.74445" lon="1.7973">
        <ele>181.2</ele>
        <time>2023-04-27T12:14:38Z</time>
      </trkpt>
      <trkpt lat="48.74445" lon="1.79724">
        <ele>181.4</ele>
        <time>2023-04-27T12:14:39Z</time>
      </trkpt>
      <trkpt lat="48.74445" lon="1.79719">
        <ele>181.4</ele>
        <time>2023-04-27T12:14:40Z</time>
      </trkpt>
      <trkpt lat="48.74445" lon="1.79714">
        <ele>181.6</ele>
        <time>2023-04-27T12:14:41Z</time>
      </trkpt>
      <trkpt lat="48.74444" lon="1.79708">
        <ele>181.6</ele>
        <time>2023-04-27T12:14:42Z</time>
      </trkpt>
      <trkpt lat="48.74444" lon="1.79702">
        <ele>181.8</ele>
        <time>2023-04-27T12:14:43Z</time>
      </trkpt>
      <trkpt lat="48.74443" lon="1.79696">
        <ele>181.8</ele>
        <time>2023-04-27T12:14:44Z</time>
      </trkpt>
      <trkpt lat="48.74442" lon="1.79689">
        <ele>181.8</ele>
        <time>2023-04-27T12:14:45Z</time>
      </trkpt>
      <trkpt lat="48.74441" lon="1.79683">
        <ele>182</ele>
        <time>2023-04-27T12:14:46Z</time>
      </trkpt>
      <trkpt lat="48.7444" lon="1.79676">
        <ele>182</ele>
        <time>2023-04-27T12:14:47Z</time>
      </trkpt>
      <trkpt lat="48.74438" lon="1.7967">
        <ele>182.2</ele>
        <time>2023-04-27T12:14:48Z</time>
      </trkpt>
      <trkpt lat="48.74437" lon="1.79664">
        <ele>182.2</ele>
        <time>2023-04-27T12:14:49Z</time>
      </trkpt>
      <trkpt lat="48.74436" lon="1.79658">
        <ele>182.2</ele>
        <time>2023-04-27T12:14:50Z</time>
      </trkpt>
      <trkpt lat="48.74435" lon="1.79651">
        <ele>182.4</ele>
        <time>2023-04-27T12:14:51Z</time>
      </trkpt>
      <trkpt lat="48.74434" lon="1.79646">
        <ele>182.4</ele>
        <time>2023-04-27T12:14:52Z</time>
      </trkpt>
      <trkpt lat="48.74434" lon="1.7964">
        <ele>182.6</ele>
        <time>2023-04-27T12:14:53Z</time>
      </trkpt>
      <trkpt lat="48.74433" lon="1.79634">
        <ele>182.6</ele>
        <time>2023-04-27T12:14:54Z</time>
      </trkpt>
      <trkpt lat="48.74432" lon="1.79628">
        <ele>182.8</ele>
        <time>2023-04-27T12:14:55Z</time>
      </trkpt>
      <trkpt lat="48.74432" lon="1.79623">
        <ele>182.8</ele>
        <time>2023-04-27T12:14:56Z</time>
      </trkpt>
      <trkpt lat="48.74432" lon="1.79619">
        <ele>182.8</ele>
        <time>2023-04-27T12:14:57Z</time>
      </trkpt>
      <trkpt lat="48.74432" lon="1.79615">
        <ele>183</ele>
        <time>2023-04-27T12:14:58Z</time>
      </trkpt>
      <trkpt lat="48.74432" lon="1.79612">
        <ele>183</ele>
        <time>2023-04-27T12:14:59Z</time>
      </trkpt>
      <trkpt lat="48.74431" lon="1.79609">
        <ele>183</ele>
        <time>2023-04-27T12:15:00Z</time>
      </trkpt>
      <trkpt lat="48.74431" lon="1.79604">
        <ele>183.2</ele>
        <time>2023-04-27T12:15:02Z</time>
      </trkpt>
      <trkpt lat="48.74432" lon="1.79601">
        <ele>183.2</ele>
        <time>2023-04-27T12:15:04Z</time>
      </trkpt>
      <trkpt lat="48.74432" lon="1.79597">
        <ele>183.2</ele>
        <time>2023-04-27T12:15:06Z</time>
      </trkpt>
      <trkpt lat="48.74432" lon="1.79594">
        <ele>183.2</ele>
        <time>2023-04-27T12:15:08Z</time>
      </trkpt>
      <trkpt lat="48.74432" lon="1.7959">
        <ele>183.2</ele>
        <time>2023-04-27T12:15:10Z</time>
      </trkpt>
      <trkpt lat="48.74432" lon="1.79586">
        <ele>183.2</ele>
        <time>2023-04-27T12:15:12Z</time>
      </trkpt>
      <trkpt lat="48.74432" lon="1.79582">
        <ele>183.2</ele>
        <time>2023-04-27T12:15:14Z</time>
      </trkpt>
      <trkpt lat="48.74432" lon="1.79579">
        <ele>183.2</ele>
        <time>2023-04-27T12:15:16Z</time>
      </trkpt>
      <trkpt lat="48.74432" lon="1.79575">
        <ele>183.2</ele>
        <time>2023-04-27T12:15:18Z</time>
      </trkpt>
      <trkpt lat="48.74432" lon="1.7957">
        <ele>183.2</ele>
        <time>2023-04-27T12:15:20Z</time>
      </trkpt>
      <trkpt lat="48.74432" lon="1.79565">
        <ele>183.2</ele>
        <time>2023-04-27T12:15:22Z</time>
      </trkpt>
      <trkpt lat="48.74432" lon="1.79562">
        <ele>183.2</ele>
        <time>2023-04-27T12:15:23Z</time>
      </trkpt>
      <trkpt lat="48.74432" lon="1.7956">
        <ele>183.2</ele>
        <time>2023-04-27T12:15:24Z</time>
      </trkpt>
      <trkpt lat="48.74431" lon="1.79557">
        <ele>183.2</ele>
        <time>2023-04-27T12:15:25Z</time>
      </trkpt>
      <trkpt lat="48.74429" lon="1.79553">
        <ele>183.2</ele>
        <time>2023-04-27T12:15:27Z</time>
      </trkpt>
      <trkpt lat="48.74428" lon="1.79548">
        <ele>183</ele>
        <time>2023-04-27T12:15:29Z</time>
      </trkpt>
      <trkpt lat="48.74428" lon="1.79544">
        <ele>182.8</ele>
        <time>2023-04-27T12:15:31Z</time>
      </trkpt>
      <trkpt lat="48.74428" lon="1.7954">
        <ele>182.8</ele>
        <time>2023-04-27T12:15:33Z</time>
      </trkpt>
      <trkpt lat="48.74428" lon="1.79536">
        <ele>182.8</ele>
        <time>2023-04-27T12:15:35Z</time>
      </trkpt>
      <trkpt lat="48.74428" lon="1.79531">
        <ele>182.8</ele>
        <time>2023-04-27T12:15:37Z</time>
      </trkpt>
      <trkpt lat="48.74428" lon="1.79526">
        <ele>182.8</ele>
        <time>2023-04-27T12:15:39Z</time>
      </trkpt>
      <trkpt lat="48.74428" lon="1.79522">
        <ele>182.8</ele>
        <time>2023-04-27T12:15:41Z</time>
      </trkpt>
      <trkpt lat="48.74428" lon="1.79518">
        <ele>182.8</ele>
        <time>2023-04-27T12:15:43Z</time>
      </trkpt>
      <trkpt lat="48.74427" lon="1.79513">
        <ele>182.8</ele>
        <time>2023-04-27T12:15:45Z</time>
      </trkpt>
      <trkpt lat="48.74427" lon="1.79509">
        <ele>182.8</ele>
        <time>2023-04-27T12:15:47Z</time>
      </trkpt>
      <trkpt lat="48.74426" lon="1.79505">
        <ele>182.8</ele>
        <time>2023-04-27T12:15:49Z</time>
      </trkpt>
      <trkpt lat="48.74427" lon="1.79501">
        <ele>182.8</ele>
        <time>2023-04-27T12:15:51Z</time>
      </trkpt>
      <trkpt lat="48.74427" lon="1.79496">
        <ele>182.8</ele>
        <time>2023-04-27T12:15:53Z</time>
      </trkpt>
      <trkpt lat="48.74426" lon="1.79491">
        <ele>182.8</ele>
        <time>2023-04-27T12:15:55Z</time>
      </trkpt>
      <trkpt lat="48.74425" lon="1.79487">
        <ele>182.6</ele>
        <time>2023-04-27T12:15:57Z</time>
      </trkpt>
      <trkpt lat="48.74424" lon="1.79482">
        <ele>182.6</ele>
        <time>2023-04-27T12:15:59Z</time>
      </trkpt>
      <trkpt lat="48.74424" lon="1.79478">
        <ele>182.4</ele>
        <time>2023-04-27T12:16:01Z</time>
      </trkpt>
      <trkpt lat="48.74424" lon="1.79474">
        <ele>182.2</ele>
        <time>2023-04-27T12:16:03Z</time>
      </trkpt>
      <trkpt lat="48.74424" lon="1.7947">
        <ele>182</ele>
        <time>2023-04-27T12:16:05Z</time>
      </trkpt>
      <trkpt lat="48.74423" lon="1.79466">
        <ele>182</ele>
        <time>2023-04-27T12:16:07Z</time>
      </trkpt>
      <trkpt lat="48.74423" lon="1.79463">
        <ele>181.8</ele>
        <time>2023-04-27T12:16:09Z</time>
      </trkpt>
      <trkpt lat="48.74422" lon="1.79459">
        <ele>181.8</ele>
        <time>2023-04-27T12:16:11Z</time>
      </trkpt>
      <trkpt lat="48.74422" lon="1.79456">
        <ele>181.6</ele>
        <time>2023-04-27T12:16:13Z</time>
      </trkpt>
      <trkpt lat="48.74423" lon="1.79452">
        <ele>181.6</ele>
        <time>2023-04-27T12:16:15Z</time>
      </trkpt>
      <trkpt lat="48.74424" lon="1.79447">
        <ele>181.6</ele>
        <time>2023-04-27T12:16:17Z</time>
      </trkpt>
      <trkpt lat="48.74423" lon="1.79444">
        <ele>181.6</ele>
        <time>2023-04-27T12:16:18Z</time>
      </trkpt>
      <trkpt lat="48.74423" lon="1.79441">
        <ele>181.6</ele>
        <time>2023-04-27T12:16:19Z</time>
      </trkpt>
      <trkpt lat="48.74422" lon="1.79438">
        <ele>181.4</ele>
        <time>2023-04-27T12:16:20Z</time>
      </trkpt>
      <trkpt lat="48.74422" lon="1.79435">
        <ele>181.4</ele>
        <time>2023-04-27T12:16:21Z</time>
      </trkpt>
      <trkpt lat="48.74422" lon="1.79431">
        <ele>181.4</ele>
        <time>2023-04-27T12:16:22Z</time>
      </trkpt>
      <trkpt lat="48.74422" lon="1.79428">
        <ele>181.4</ele>
        <time>2023-04-27T12:16:23Z</time>
      </trkpt>
      <trkpt lat="48.74421" lon="1.79425">
        <ele>181.4</ele>
        <time>2023-04-27T12:16:24Z</time>
      </trkpt>
      <trkpt lat="48.74421" lon="1.79423">
        <ele>181.4</ele>
        <time>2023-04-27T12:16:25Z</time>
      </trkpt>
      <trkpt lat="48.74421" lon="1.7942">
        <ele>181.2</ele>
        <time>2023-04-27T12:16:26Z</time>
      </trkpt>
      <trkpt lat="48.74421" lon="1.79417">
        <ele>181.2</ele>
        <time>2023-04-27T12:16:27Z</time>
      </trkpt>
      <trkpt lat="48.7442" lon="1.79414">
        <ele>181.2</ele>
        <time>2023-04-27T12:16:28Z</time>
      </trkpt>
      <trkpt lat="48.7442" lon="1.79412">
        <ele>181.2</ele>
        <time>2023-04-27T12:16:29Z</time>
      </trkpt>
      <trkpt lat="48.74419" lon="1.79409">
        <ele>181.2</ele>
        <time>2023-04-27T12:16:30Z</time>
      </trkpt>
      <trkpt lat="48.74418" lon="1.79404">
        <ele>181.2</ele>
        <time>2023-04-27T12:16:32Z</time>
      </trkpt>
      <trkpt lat="48.74418" lon="1.79398">
        <ele>181.2</ele>
        <time>2023-04-27T12:16:34Z</time>
      </trkpt>
      <trkpt lat="48.74417" lon="1.79396">
        <ele>181.2</ele>
        <time>2023-04-27T12:16:35Z</time>
      </trkpt>
      <trkpt lat="48.74417" lon="1.7939">
        <ele>181.2</ele>
        <time>2023-04-27T12:16:37Z</time>
      </trkpt>
      <trkpt lat="48.74416" lon="1.79385">
        <ele>181.2</ele>
        <time>2023-04-27T12:16:39Z</time>
      </trkpt>
      <trkpt lat="48.74415" lon="1.79381">
        <ele>181</ele>
        <time>2023-04-27T12:16:41Z</time>
      </trkpt>
      <trkpt lat="48.74415" lon="1.79376">
        <ele>181</ele>
        <time>2023-04-27T12:16:43Z</time>
      </trkpt>
      <trkpt lat="48.74414" lon="1.79372">
        <ele>181</ele>
        <time>2023-04-27T12:16:45Z</time>
      </trkpt>
      <trkpt lat="48.74414" lon="1.79368">
        <ele>180.8</ele>
        <time>2023-04-27T12:16:47Z</time>
      </trkpt>
      <trkpt lat="48.74414" lon="1.79364">
        <ele>181</ele>
        <time>2023-04-27T12:16:49Z</time>
      </trkpt>
      <trkpt lat="48.74414" lon="1.7936">
        <ele>180.8</ele>
        <time>2023-04-27T12:16:51Z</time>
      </trkpt>
      <trkpt lat="48.74414" lon="1.79355">
        <ele>180.8</ele>
        <time>2023-04-27T12:16:53Z</time>
      </trkpt>
      <trkpt lat="48.74415" lon="1.7935">
        <ele>180.6</ele>
        <time>2023-04-27T12:16:55Z</time>
      </trkpt>
      <trkpt lat="48.74416" lon="1.79346">
        <ele>180.6</ele>
        <time>2023-04-27T12:16:57Z</time>
      </trkpt>
      <trkpt lat="48.74416" lon="1.79343">
        <ele>180.4</ele>
        <time>2023-04-27T12:16:59Z</time>
      </trkpt>
      <trkpt lat="48.74414" lon="1.79339">
        <ele>180</ele>
        <time>2023-04-27T12:17:01Z</time>
      </trkpt>
      <trkpt lat="48.74414" lon="1.79336">
        <ele>179.8</ele>
        <time>2023-04-27T12:17:03Z</time>
      </trkpt>
      <trkpt lat="48.74412" lon="1.79333">
        <ele>179.4</ele>
        <time>2023-04-27T12:17:05Z</time>
      </trkpt>
      <trkpt lat="48.74411" lon="1.7933">
        <ele>179.4</ele>
        <time>2023-04-27T12:17:07Z</time>
      </trkpt>
      <trkpt lat="48.74408" lon="1.79326">
        <ele>179.6</ele>
        <time>2023-04-27T12:17:09Z</time>
      </trkpt>
      <trkpt lat="48.74406" lon="1.79322">
        <ele>179.8</ele>
        <time>2023-04-27T12:17:11Z</time>
      </trkpt>
      <trkpt lat="48.74404" lon="1.79319">
        <ele>179.8</ele>
        <time>2023-04-27T12:17:13Z</time>
      </trkpt>
      <trkpt lat="48.74403" lon="1.79317">
        <ele>180</ele>
        <time>2023-04-27T12:17:15Z</time>
      </trkpt>
      <trkpt lat="48.74401" lon="1.79313">
        <ele>180.2</ele>
        <time>2023-04-27T12:17:18Z</time>
      </trkpt>
      <trkpt lat="48.74399" lon="1.79311">
        <ele>180.4</ele>
        <time>2023-04-27T12:17:20Z</time>
      </trkpt>
      <trkpt lat="48.74398" lon="1.79309">
        <ele>180.6</ele>
        <time>2023-04-27T12:17:22Z</time>
      </trkpt>
      <trkpt lat="48.74396" lon="1.79307">
        <ele>180.8</ele>
        <time>2023-04-27T12:17:24Z</time>
      </trkpt>
      <trkpt lat="48.74394" lon="1.79304">
        <ele>181.2</ele>
        <time>2023-04-27T12:17:26Z</time>
      </trkpt>
      <trkpt lat="48.74391" lon="1.793">
        <ele>181.6</ele>
        <time>2023-04-27T12:17:28Z</time>
      </trkpt>
      <trkpt lat="48.74389" lon="1.79297">
        <ele>181.8</ele>
        <time>2023-04-27T12:17:30Z</time>
      </trkpt>
      <trkpt lat="48.74387" lon="1.79293">
        <ele>181.8</ele>
        <time>2023-04-27T12:17:32Z</time>
      </trkpt>
      <trkpt lat="48.74385" lon="1.79288">
        <ele>182</ele>
        <time>2023-04-27T12:17:34Z</time>
      </trkpt>
      <trkpt lat="48.74384" lon="1.79285">
        <ele>182</ele>
        <time>2023-04-27T12:17:35Z</time>
      </trkpt>
      <trkpt lat="48.74383" lon="1.79282">
        <ele>182</ele>
        <time>2023-04-27T12:17:36Z</time>
      </trkpt>
      <trkpt lat="48.74382" lon="1.79278">
        <ele>182.2</ele>
        <time>2023-04-27T12:17:37Z</time>
      </trkpt>
      <trkpt lat="48.7438" lon="1.79273">
        <ele>182.2</ele>
        <time>2023-04-27T12:17:38Z</time>
      </trkpt>
      <trkpt lat="48.74379" lon="1.79269">
        <ele>182.2</ele>
        <time>2023-04-27T12:17:39Z</time>
      </trkpt>
      <trkpt lat="48.74376" lon="1.79264">
        <ele>182.2</ele>
        <time>2023-04-27T12:17:40Z</time>
      </trkpt>
      <trkpt lat="48.74374" lon="1.79258">
        <ele>182.2</ele>
        <time>2023-04-27T12:17:41Z</time>
      </trkpt>
      <trkpt lat="48.74371" lon="1.79253">
        <ele>182.2</ele>
        <time>2023-04-27T12:17:42Z</time>
      </trkpt>
      <trkpt lat="48.74368" lon="1.79247">
        <ele>182.2</ele>
        <time>2023-04-27T12:17:43Z</time>
      </trkpt>
      <trkpt lat="48.74364" lon="1.79242">
        <ele>182.2</ele>
        <time>2023-04-27T12:17:44Z</time>
      </trkpt>
      <trkpt lat="48.74361" lon="1.79236">
        <ele>182.2</ele>
        <time>2023-04-27T12:17:45Z</time>
      </trkpt>
      <trkpt lat="48.74357" lon="1.79231">
        <ele>182.2</ele>
        <time>2023-04-27T12:17:46Z</time>
      </trkpt>
      <trkpt lat="48.74354" lon="1.79225">
        <ele>182.2</ele>
        <time>2023-04-27T12:17:47Z</time>
      </trkpt>
      <trkpt lat="48.74351" lon="1.7922">
        <ele>182.2</ele>
        <time>2023-04-27T12:17:48Z</time>
      </trkpt>
      <trkpt lat="48.74348" lon="1.79214">
        <ele>182.2</ele>
        <time>2023-04-27T12:17:49Z</time>
      </trkpt>
      <trkpt lat="48.74346" lon="1.79208">
        <ele>182.2</ele>
        <time>2023-04-27T12:17:50Z</time>
      </trkpt>
      <trkpt lat="48.74344" lon="1.79202">
        <ele>182.2</ele>
        <time>2023-04-27T12:17:51Z</time>
      </trkpt>
      <trkpt lat="48.74341" lon="1.79195">
        <ele>182</ele>
        <time>2023-04-27T12:17:52Z</time>
      </trkpt>
      <trkpt lat="48.74339" lon="1.79188">
        <ele>182</ele>
        <time>2023-04-27T12:17:53Z</time>
      </trkpt>
      <trkpt lat="48.74336" lon="1.79181">
        <ele>182</ele>
        <time>2023-04-27T12:17:54Z</time>
      </trkpt>
      <trkpt lat="48.74333" lon="1.79174">
        <ele>182</ele>
        <time>2023-04-27T12:17:55Z</time>
      </trkpt>
      <trkpt lat="48.74331" lon="1.79167">
        <ele>182</ele>
        <time>2023-04-27T12:17:56Z</time>
      </trkpt>
      <trkpt lat="48.74328" lon="1.7916">
        <ele>182</ele>
        <time>2023-04-27T12:17:57Z</time>
      </trkpt>
      <trkpt lat="48.74325" lon="1.79153">
        <ele>182.2</ele>
        <time>2023-04-27T12:17:58Z</time>
      </trkpt>
      <trkpt lat="48.74323" lon="1.79146">
        <ele>182.2</ele>
        <time>2023-04-27T12:17:59Z</time>
      </trkpt>
      <trkpt lat="48.74321" lon="1.79139">
        <ele>182</ele>
        <time>2023-04-27T12:18:00Z</time>
      </trkpt>
      <trkpt lat="48.74318" lon="1.79132">
        <ele>182</ele>
        <time>2023-04-27T12:18:01Z</time>
      </trkpt>
      <trkpt lat="48.74315" lon="1.79125">
        <ele>182</ele>
        <time>2023-04-27T12:18:02Z</time>
      </trkpt>
      <trkpt lat="48.74312" lon="1.79117">
        <ele>181.8</ele>
        <time>2023-04-27T12:18:03Z</time>
      </trkpt>
      <trkpt lat="48.74309" lon="1.7911">
        <ele>181.8</ele>
        <time>2023-04-27T12:18:04Z</time>
      </trkpt>
      <trkpt lat="48.74307" lon="1.79102">
        <ele>181.8</ele>
        <time>2023-04-27T12:18:05Z</time>
      </trkpt>
      <trkpt lat="48.74303" lon="1.79094">
        <ele>181.6</ele>
        <time>2023-04-27T12:18:06Z</time>
      </trkpt>
      <trkpt lat="48.743" lon="1.79086">
        <ele>181.6</ele>
        <time>2023-04-27T12:18:07Z</time>
      </trkpt>
      <trkpt lat="48.74297" lon="1.79078">
        <ele>181.6</ele>
        <time>2023-04-27T12:18:08Z</time>
      </trkpt>
      <trkpt lat="48.74293" lon="1.7907">
        <ele>181.4</ele>
        <time>2023-04-27T12:18:09Z</time>
      </trkpt>
      <trkpt lat="48.7429" lon="1.79062">
        <ele>181.4</ele>
        <time>2023-04-27T12:18:10Z</time>
      </trkpt>
      <trkpt lat="48.74287" lon="1.79054">
        <ele>181.4</ele>
        <time>2023-04-27T12:18:11Z</time>
      </trkpt>
      <trkpt lat="48.74284" lon="1.79046">
        <ele>181.4</ele>
        <time>2023-04-27T12:18:12Z</time>
      </trkpt>
      <trkpt lat="48.7428" lon="1.79038">
        <ele>181.2</ele>
        <time>2023-04-27T12:18:13Z</time>
      </trkpt>
      <trkpt lat="48.74277" lon="1.7903">
        <ele>181.2</ele>
        <time>2023-04-27T12:18:14Z</time>
      </trkpt>
      <trkpt lat="48.74274" lon="1.79022">
        <ele>181.2</ele>
        <time>2023-04-27T12:18:15Z</time>
      </trkpt>
      <trkpt lat="48.74271" lon="1.79015">
        <ele>181.2</ele>
        <time>2023-04-27T12:18:16Z</time>
      </trkpt>
      <trkpt lat="48.74268" lon="1.79008">
        <ele>181</ele>
        <time>2023-04-27T12:18:17Z</time>
      </trkpt>
      <trkpt lat="48.74265" lon="1.79001">
        <ele>181</ele>
        <time>2023-04-27T12:18:18Z</time>
      </trkpt>
      <trkpt lat="48.74263" lon="1.78995">
        <ele>181</ele>
        <time>2023-04-27T12:18:19Z</time>
      </trkpt>
      <trkpt lat="48.7426" lon="1.78988">
        <ele>181</ele>
        <time>2023-04-27T12:18:20Z</time>
      </trkpt>
      <trkpt lat="48.74258" lon="1.78982">
        <ele>181</ele>
        <time>2023-04-27T12:18:21Z</time>
      </trkpt>
      <trkpt lat="48.74256" lon="1.78976">
        <ele>181</ele>
        <time>2023-04-27T12:18:22Z</time>
      </trkpt>
      <trkpt lat="48.74254" lon="1.7897">
        <ele>181</ele>
        <time>2023-04-27T12:18:23Z</time>
      </trkpt>
      <trkpt lat="48.74252" lon="1.78965">
        <ele>181</ele>
        <time>2023-04-27T12:18:24Z</time>
      </trkpt>
      <trkpt lat="48.74251" lon="1.7896">
        <ele>180.8</ele>
        <time>2023-04-27T12:18:25Z</time>
      </trkpt>
      <trkpt lat="48.74249" lon="1.78956">
        <ele>180.8</ele>
        <time>2023-04-27T12:18:26Z</time>
      </trkpt>
      <trkpt lat="48.74248" lon="1.78952">
        <ele>180.8</ele>
        <time>2023-04-27T12:18:27Z</time>
      </trkpt>
      <trkpt lat="48.74246" lon="1.78948">
        <ele>180.8</ele>
        <time>2023-04-27T12:18:28Z</time>
      </trkpt>
      <trkpt lat="48.74245" lon="1.78944">
        <ele>180.8</ele>
        <time>2023-04-27T12:18:29Z</time>
      </trkpt>
      <trkpt lat="48.74243" lon="1.78941">
        <ele>180.8</ele>
        <time>2023-04-27T12:18:30Z</time>
      </trkpt>
      <trkpt lat="48.74242" lon="1.78938">
        <ele>180.8</ele>
        <time>2023-04-27T12:18:31Z</time>
      </trkpt>
      <trkpt lat="48.7424" lon="1.78935">
        <ele>180.8</ele>
        <time>2023-04-27T12:18:32Z</time>
      </trkpt>
      <trkpt lat="48.74238" lon="1.78932">
        <ele>180.8</ele>
        <time>2023-04-27T12:18:33Z</time>
      </trkpt>
      <trkpt lat="48.74237" lon="1.7893">
        <ele>180.6</ele>
        <time>2023-04-27T12:18:34Z</time>
      </trkpt>
      <trkpt lat="48.74236" lon="1.78927">
        <ele>180.6</ele>
        <time>2023-04-27T12:18:35Z</time>
      </trkpt>
      <trkpt lat="48.74234" lon="1.78922">
        <ele>180.4</ele>
        <time>2023-04-27T12:18:37Z</time>
      </trkpt>
      <trkpt lat="48.74233" lon="1.78917">
        <ele>180.2</ele>
        <time>2023-04-27T12:18:39Z</time>
      </trkpt>
      <trkpt lat="48.74232" lon="1.78913">
        <ele>179.8</ele>
        <time>2023-04-27T12:18:41Z</time>
      </trkpt>
      <trkpt lat="48.74231" lon="1.78909">
        <ele>179.8</ele>
        <time>2023-04-27T12:18:43Z</time>
      </trkpt>
      <trkpt lat="48.7423" lon="1.78904">
        <ele>179.6</ele>
        <time>2023-04-27T12:18:45Z</time>
      </trkpt>
      <trkpt lat="48.74228" lon="1.789">
        <ele>179.6</ele>
        <time>2023-04-27T12:18:47Z</time>
      </trkpt>
      <trkpt lat="48.74226" lon="1.78897">
        <ele>179.6</ele>
        <time>2023-04-27T12:18:49Z</time>
      </trkpt>
      <trkpt lat="48.74225" lon="1.78893">
        <ele>179.4</ele>
        <time>2023-04-27T12:18:51Z</time>
      </trkpt>
      <trkpt lat="48.74224" lon="1.78889">
        <ele>179</ele>
        <time>2023-04-27T12:18:53Z</time>
      </trkpt>
      <trkpt lat="48.74224" lon="1.78884">
        <ele>178.8</ele>
        <time>2023-04-27T12:18:55Z</time>
      </trkpt>
      <trkpt lat="48.74224" lon="1.7888">
        <ele>178.6</ele>
        <time>2023-04-27T12:18:57Z</time>
      </trkpt>
      <trkpt lat="48.74222" lon="1.78875">
        <ele>178.6</ele>
        <time>2023-04-27T12:18:59Z</time>
      </trkpt>
      <trkpt lat="48.74221" lon="1.78871">
        <ele>178.4</ele>
        <time>2023-04-27T12:19:01Z</time>
      </trkpt>
      <trkpt lat="48.74219" lon="1.78867">
        <ele>178.2</ele>
        <time>2023-04-27T12:19:03Z</time>
      </trkpt>
      <trkpt lat="48.74218" lon="1.78862">
        <ele>178</ele>
        <time>2023-04-27T12:19:05Z</time>
      </trkpt>
      <trkpt lat="48.74216" lon="1.78858">
        <ele>178</ele>
        <time>2023-04-27T12:19:07Z</time>
      </trkpt>
      <trkpt lat="48.74214" lon="1.78854">
        <ele>177.8</ele>
        <time>2023-04-27T12:19:09Z</time>
      </trkpt>
      <trkpt lat="48.74213" lon="1.7885">
        <ele>177.4</ele>
        <time>2023-04-27T12:19:11Z</time>
      </trkpt>
      <trkpt lat="48.74212" lon="1.78846">
        <ele>177.2</ele>
        <time>2023-04-27T12:19:13Z</time>
      </trkpt>
      <trkpt lat="48.7421" lon="1.78843">
        <ele>177</ele>
        <time>2023-04-27T12:19:15Z</time>
      </trkpt>
      <trkpt lat="48.74208" lon="1.7884">
        <ele>176.8</ele>
        <time>2023-04-27T12:19:17Z</time>
      </trkpt>
      <trkpt lat="48.74206" lon="1.78836">
        <ele>176.6</ele>
        <time>2023-04-27T12:19:19Z</time>
      </trkpt>
      <trkpt lat="48.74204" lon="1.78833">
        <ele>176.6</ele>
        <time>2023-04-27T12:19:21Z</time>
      </trkpt>
      <trkpt lat="48.74203" lon="1.78829">
        <ele>176.6</ele>
        <time>2023-04-27T12:19:23Z</time>
      </trkpt>
      <trkpt lat="48.74202" lon="1.78827">
        <ele>176.6</ele>
        <time>2023-04-27T12:19:24Z</time>
      </trkpt>
      <trkpt lat="48.742" lon="1.78822">
        <ele>176.6</ele>
        <time>2023-04-27T12:19:26Z</time>
      </trkpt>
      <trkpt lat="48.74199" lon="1.78818">
        <ele>176.6</ele>
        <time>2023-04-27T12:19:28Z</time>
      </trkpt>
      <trkpt lat="48.74197" lon="1.78814">
        <ele>176.6</ele>
        <time>2023-04-27T12:19:30Z</time>
      </trkpt>
      <trkpt lat="48.74196" lon="1.7881">
        <ele>176.6</ele>
        <time>2023-04-27T12:19:32Z</time>
      </trkpt>
      <trkpt lat="48.74194" lon="1.78807">
        <ele>176.6</ele>
        <time>2023-04-27T12:19:34Z</time>
      </trkpt>
      <trkpt lat="48.74193" lon="1.78803">
        <ele>176.8</ele>
        <time>2023-04-27T12:19:36Z</time>
      </trkpt>
      <trkpt lat="48.74192" lon="1.78799">
        <ele>176.8</ele>
        <time>2023-04-27T12:19:38Z</time>
      </trkpt>
      <trkpt lat="48.7419" lon="1.78795">
        <ele>176.6</ele>
        <time>2023-04-27T12:19:40Z</time>
      </trkpt>
      <trkpt lat="48.74189" lon="1.78791">
        <ele>176.6</ele>
        <time>2023-04-27T12:19:42Z</time>
      </trkpt>
      <trkpt lat="48.74188" lon="1.78787">
        <ele>176.6</ele>
        <time>2023-04-27T12:19:44Z</time>
      </trkpt>
      <trkpt lat="48.74186" lon="1.78783">
        <ele>176.4</ele>
        <time>2023-04-27T12:19:46Z</time>
      </trkpt>
      <trkpt lat="48.74184" lon="1.78779">
        <ele>176.4</ele>
        <time>2023-04-27T12:19:48Z</time>
      </trkpt>
      <trkpt lat="48.74182" lon="1.78776">
        <ele>176.6</ele>
        <time>2023-04-27T12:19:50Z</time>
      </trkpt>
      <trkpt lat="48.7418" lon="1.78772">
        <ele>176.8</ele>
        <time>2023-04-27T12:19:52Z</time>
      </trkpt>
      <trkpt lat="48.74179" lon="1.78769">
        <ele>177</ele>
        <time>2023-04-27T12:19:54Z</time>
      </trkpt>
      <trkpt lat="48.74177" lon="1.78765">
        <ele>177</ele>
        <time>2023-04-27T12:19:56Z</time>
      </trkpt>
      <trkpt lat="48.74176" lon="1.78762">
        <ele>177.2</ele>
        <time>2023-04-27T12:19:58Z</time>
      </trkpt>
      <trkpt lat="48.74175" lon="1.78758">
        <ele>177.4</ele>
        <time>2023-04-27T12:20:00Z</time>
      </trkpt>
      <trkpt lat="48.74174" lon="1.78754">
        <ele>177.4</ele>
        <time>2023-04-27T12:20:02Z</time>
      </trkpt>
      <trkpt lat="48.74172" lon="1.7875">
        <ele>177.2</ele>
        <time>2023-04-27T12:20:04Z</time>
      </trkpt>
      <trkpt lat="48.74171" lon="1.78746">
        <ele>177.2</ele>
        <time>2023-04-27T12:20:06Z</time>
      </trkpt>
      <trkpt lat="48.74168" lon="1.78743">
        <ele>177.2</ele>
        <time>2023-04-27T12:20:08Z</time>
      </trkpt>
      <trkpt lat="48.74165" lon="1.78741">
        <ele>177.2</ele>
        <time>2023-04-27T12:20:10Z</time>
      </trkpt>
      <trkpt lat="48.74162" lon="1.78741">
        <ele>177.2</ele>
        <time>2023-04-27T12:20:12Z</time>
      </trkpt>
      <trkpt lat="48.7416" lon="1.78742">
        <ele>177.4</ele>
        <time>2023-04-27T12:20:14Z</time>
      </trkpt>
      <trkpt lat="48.74158" lon="1.78744">
        <ele>177.6</ele>
        <time>2023-04-27T12:20:16Z</time>
      </trkpt>
      <trkpt lat="48.74156" lon="1.78746">
        <ele>178</ele>
        <time>2023-04-27T12:20:18Z</time>
      </trkpt>
      <trkpt lat="48.74154" lon="1.78748">
        <ele>178.2</ele>
        <time>2023-04-27T12:20:20Z</time>
      </trkpt>
      <trkpt lat="48.74152" lon="1.7875">
        <ele>178.6</ele>
        <time>2023-04-27T12:20:22Z</time>
      </trkpt>
      <trkpt lat="48.7415" lon="1.78752">
        <ele>178.6</ele>
        <time>2023-04-27T12:20:23Z</time>
      </trkpt>
      <trkpt lat="48.74148" lon="1.78753">
        <ele>178.8</ele>
        <time>2023-04-27T12:20:24Z</time>
      </trkpt>
      <trkpt lat="48.74146" lon="1.78756">
        <ele>178.8</ele>
        <time>2023-04-27T12:20:26Z</time>
      </trkpt>
      <trkpt lat="48.74144" lon="1.78758">
        <ele>179</ele>
        <time>2023-04-27T12:20:28Z</time>
      </trkpt>
      <trkpt lat="48.74141" lon="1.78761">
        <ele>179.4</ele>
        <time>2023-04-27T12:20:30Z</time>
      </trkpt>
      <trkpt lat="48.74138" lon="1.78763">
        <ele>179.6</ele>
        <time>2023-04-27T12:20:32Z</time>
      </trkpt>
      <trkpt lat="48.74137" lon="1.78765">
        <ele>179.8</ele>
        <time>2023-04-27T12:20:33Z</time>
      </trkpt>
      <trkpt lat="48.74134" lon="1.78768">
        <ele>180</ele>
        <time>2023-04-27T12:20:35Z</time>
      </trkpt>
      <trkpt lat="48.74132" lon="1.78772">
        <ele>180.2</ele>
        <time>2023-04-27T12:20:37Z</time>
      </trkpt>
      <trkpt lat="48.7413" lon="1.78775">
        <ele>180.4</ele>
        <time>2023-04-27T12:20:39Z</time>
      </trkpt>
      <trkpt lat="48.74128" lon="1.78778">
        <ele>180.6</ele>
        <time>2023-04-27T12:20:41Z</time>
      </trkpt>
      <trkpt lat="48.74126" lon="1.78781">
        <ele>181</ele>
        <time>2023-04-27T12:20:43Z</time>
      </trkpt>
      <trkpt lat="48.74124" lon="1.78783">
        <ele>181.2</ele>
        <time>2023-04-27T12:20:45Z</time>
      </trkpt>
      <trkpt lat="48.74121" lon="1.78786">
        <ele>181.4</ele>
        <time>2023-04-27T12:20:47Z</time>
      </trkpt>
      <trkpt lat="48.74119" lon="1.78789">
        <ele>181.4</ele>
        <time>2023-04-27T12:20:49Z</time>
      </trkpt>
      <trkpt lat="48.74117" lon="1.78791">
        <ele>181.4</ele>
        <time>2023-04-27T12:20:51Z</time>
      </trkpt>
      <trkpt lat="48.74114" lon="1.78792">
        <ele>181.6</ele>
        <time>2023-04-27T12:20:53Z</time>
      </trkpt>
      <trkpt lat="48.74112" lon="1.78793">
        <ele>181.6</ele>
        <time>2023-04-27T12:20:54Z</time>
      </trkpt>
      <trkpt lat="48.74109" lon="1.78795">
        <ele>181.8</ele>
        <time>2023-04-27T12:20:56Z</time>
      </trkpt>
      <trkpt lat="48.74106" lon="1.78798">
        <ele>181.8</ele>
        <time>2023-04-27T12:20:58Z</time>
      </trkpt>
      <trkpt lat="48.74104" lon="1.78799">
        <ele>182</ele>
        <time>2023-04-27T12:20:59Z</time>
      </trkpt>
      <trkpt lat="48.74102" lon="1.78803">
        <ele>182.2</ele>
        <time>2023-04-27T12:21:01Z</time>
      </trkpt>
      <trkpt lat="48.741" lon="1.78806">
        <ele>182.4</ele>
        <time>2023-04-27T12:21:03Z</time>
      </trkpt>
      <trkpt lat="48.74098" lon="1.78809">
        <ele>182.6</ele>
        <time>2023-04-27T12:21:05Z</time>
      </trkpt>
      <trkpt lat="48.74096" lon="1.78813">
        <ele>182.8</ele>
        <time>2023-04-27T12:21:07Z</time>
      </trkpt>
      <trkpt lat="48.74094" lon="1.78815">
        <ele>183</ele>
        <time>2023-04-27T12:21:09Z</time>
      </trkpt>
      <trkpt lat="48.74092" lon="1.78818">
        <ele>183.2</ele>
        <time>2023-04-27T12:21:11Z</time>
      </trkpt>
      <trkpt lat="48.7409" lon="1.7882">
        <ele>183.2</ele>
        <time>2023-04-27T12:21:13Z</time>
      </trkpt>
      <trkpt lat="48.74088" lon="1.78823">
        <ele>183.2</ele>
        <time>2023-04-27T12:21:15Z</time>
      </trkpt>
      <trkpt lat="48.74085" lon="1.78824">
        <ele>183.2</ele>
        <time>2023-04-27T12:21:17Z</time>
      </trkpt>
      <trkpt lat="48.74082" lon="1.78826">
        <ele>183.2</ele>
        <time>2023-04-27T12:21:19Z</time>
      </trkpt>
      <trkpt lat="48.74079" lon="1.78828">
        <ele>183.2</ele>
        <time>2023-04-27T12:21:21Z</time>
      </trkpt>
      <trkpt lat="48.74078" lon="1.7883">
        <ele>183.2</ele>
        <time>2023-04-27T12:21:23Z</time>
      </trkpt>
      <trkpt lat="48.74076" lon="1.78833">
        <ele>183.2</ele>
        <time>2023-04-27T12:21:25Z</time>
      </trkpt>
      <trkpt lat="48.74074" lon="1.78835">
        <ele>183.2</ele>
        <time>2023-04-27T12:21:27Z</time>
      </trkpt>
      <trkpt lat="48.74072" lon="1.78837">
        <ele>183.2</ele>
        <time>2023-04-27T12:21:29Z</time>
      </trkpt>
      <trkpt lat="48.74069" lon="1.78839">
        <ele>183.2</ele>
        <time>2023-04-27T12:21:31Z</time>
      </trkpt>
      <trkpt lat="48.74067" lon="1.78841">
        <ele>183</ele>
        <time>2023-04-27T12:21:33Z</time>
      </trkpt>
      <trkpt lat="48.74065" lon="1.78842">
        <ele>183</ele>
        <time>2023-04-27T12:21:34Z</time>
      </trkpt>
      <trkpt lat="48.74063" lon="1.78845">
        <ele>183</ele>
        <time>2023-04-27T12:21:36Z</time>
      </trkpt>
      <trkpt lat="48.7406" lon="1.78849">
        <ele>183</ele>
        <time>2023-04-27T12:21:38Z</time>
      </trkpt>
      <trkpt lat="48.74059" lon="1.78851">
        <ele>183</ele>
        <time>2023-04-27T12:21:39Z</time>
      </trkpt>
      <trkpt lat="48.74056" lon="1.78854">
        <ele>183</ele>
        <time>2023-04-27T12:21:41Z</time>
      </trkpt>
      <trkpt lat="48.74054" lon="1.78856">
        <ele>183</ele>
        <time>2023-04-27T12:21:42Z</time>
      </trkpt>
      <trkpt lat="48.74052" lon="1.78858">
        <ele>182.8</ele>
        <time>2023-04-27T12:21:43Z</time>
      </trkpt>
      <trkpt lat="48.74051" lon="1.78859">
        <ele>182.8</ele>
        <time>2023-04-27T12:21:44Z</time>
      </trkpt>
      <trkpt lat="48.74049" lon="1.78861">
        <ele>182.8</ele>
        <time>2023-04-27T12:21:45Z</time>
      </trkpt>
      <trkpt lat="48.74046" lon="1.78864">
        <ele>183</ele>
        <time>2023-04-27T12:21:47Z</time>
      </trkpt>
      <trkpt lat="48.74043" lon="1.78867">
        <ele>183</ele>
        <time>2023-04-27T12:21:49Z</time>
      </trkpt>
      <trkpt lat="48.74042" lon="1.78869">
        <ele>183</ele>
        <time>2023-04-27T12:21:50Z</time>
      </trkpt>
      <trkpt lat="48.74039" lon="1.78871">
        <ele>183</ele>
        <time>2023-04-27T12:21:52Z</time>
      </trkpt>
      <trkpt lat="48.74037" lon="1.78873">
        <ele>183</ele>
        <time>2023-04-27T12:21:53Z</time>
      </trkpt>
      <trkpt lat="48.74036" lon="1.78874">
        <ele>183</ele>
        <time>2023-04-27T12:21:54Z</time>
      </trkpt>
      <trkpt lat="48.74033" lon="1.78876">
        <ele>183.2</ele>
        <time>2023-04-27T12:21:56Z</time>
      </trkpt>
      <trkpt lat="48.7403" lon="1.78878">
        <ele>183.2</ele>
        <time>2023-04-27T12:21:58Z</time>
      </trkpt>
      <trkpt lat="48.74027" lon="1.7888">
        <ele>183.4</ele>
        <time>2023-04-27T12:22:00Z</time>
      </trkpt>
      <trkpt lat="48.74025" lon="1.78882">
        <ele>183.6</ele>
        <time>2023-04-27T12:22:01Z</time>
      </trkpt>
      <trkpt lat="48.74023" lon="1.78883">
        <ele>183.6</ele>
        <time>2023-04-27T12:22:02Z</time>
      </trkpt>
      <trkpt lat="48.74022" lon="1.78885">
        <ele>183.6</ele>
        <time>2023-04-27T12:22:03Z</time>
      </trkpt>
      <trkpt lat="48.74019" lon="1.78888">
        <ele>184</ele>
        <time>2023-04-27T12:22:05Z</time>
      </trkpt>
      <trkpt lat="48.74016" lon="1.7889">
        <ele>184.2</ele>
        <time>2023-04-27T12:22:07Z</time>
      </trkpt>
      <trkpt lat="48.74013" lon="1.78892">
        <ele>184.4</ele>
        <time>2023-04-27T12:22:09Z</time>
      </trkpt>
      <trkpt lat="48.74011" lon="1.78894">
        <ele>184.6</ele>
        <time>2023-04-27T12:22:11Z</time>
      </trkpt>
      <trkpt lat="48.74009" lon="1.78897">
        <ele>184.8</ele>
        <time>2023-04-27T12:22:13Z</time>
      </trkpt>
      <trkpt lat="48.74006" lon="1.789">
        <ele>185</ele>
        <time>2023-04-27T12:22:15Z</time>
      </trkpt>
      <trkpt lat="48.74004" lon="1.78902">
        <ele>185</ele>
        <time>2023-04-27T12:22:17Z</time>
      </trkpt>
      <trkpt lat="48.74001" lon="1.78903">
        <ele>185.2</ele>
        <time>2023-04-27T12:22:19Z</time>
      </trkpt>
      <trkpt lat="48.73998" lon="1.78905">
        <ele>185.4</ele>
        <time>2023-04-27T12:22:21Z</time>
      </trkpt>
      <trkpt lat="48.73996" lon="1.78906">
        <ele>185.6</ele>
        <time>2023-04-27T12:22:22Z</time>
      </trkpt>
      <trkpt lat="48.73995" lon="1.78907">
        <ele>185.6</ele>
        <time>2023-04-27T12:22:23Z</time>
      </trkpt>
      <trkpt lat="48.73993" lon="1.78909">
        <ele>185.8</ele>
        <time>2023-04-27T12:22:24Z</time>
      </trkpt>
      <trkpt lat="48.73991" lon="1.78913">
        <ele>186</ele>
        <time>2023-04-27T12:22:26Z</time>
      </trkpt>
      <trkpt lat="48.73989" lon="1.78916">
        <ele>186.2</ele>
        <time>2023-04-27T12:22:28Z</time>
      </trkpt>
      <trkpt lat="48.73987" lon="1.78918">
        <ele>186.4</ele>
        <time>2023-04-27T12:22:30Z</time>
      </trkpt>
      <trkpt lat="48.73985" lon="1.7892">
        <ele>186.8</ele>
        <time>2023-04-27T12:22:32Z</time>
      </trkpt>
      <trkpt lat="48.73983" lon="1.78922">
        <ele>187</ele>
        <time>2023-04-27T12:22:34Z</time>
      </trkpt>
      <trkpt lat="48.73981" lon="1.78924">
        <ele>187.2</ele>
        <time>2023-04-27T12:22:36Z</time>
      </trkpt>
      <trkpt lat="48.7398" lon="1.78926">
        <ele>187.4</ele>
        <time>2023-04-27T12:22:38Z</time>
      </trkpt>
      <trkpt lat="48.73978" lon="1.78929">
        <ele>187.6</ele>
        <time>2023-04-27T12:22:40Z</time>
      </trkpt>
      <trkpt lat="48.73976" lon="1.78932">
        <ele>187.8</ele>
        <time>2023-04-27T12:22:42Z</time>
      </trkpt>
      <trkpt lat="48.73973" lon="1.78935">
        <ele>188</ele>
        <time>2023-04-27T12:22:44Z</time>
      </trkpt>
      <trkpt lat="48.73972" lon="1.78937">
        <ele>188</ele>
        <time>2023-04-27T12:22:45Z</time>
      </trkpt>
      <trkpt lat="48.7397" lon="1.78938">
        <ele>188</ele>
        <time>2023-04-27T12:22:46Z</time>
      </trkpt>
      <trkpt lat="48.73968" lon="1.7894">
        <ele>188</ele>
        <time>2023-04-27T12:22:47Z</time>
      </trkpt>
      <trkpt lat="48.73965" lon="1.78942">
        <ele>188.2</ele>
        <time>2023-04-27T12:22:49Z</time>
      </trkpt>
      <trkpt lat="48.73963" lon="1.78943">
        <ele>188.2</ele>
        <time>2023-04-27T12:22:51Z</time>
      </trkpt>
      <trkpt lat="48.73962" lon="1.78945">
        <ele>188.4</ele>
        <time>2023-04-27T12:22:53Z</time>
      </trkpt>
      <trkpt lat="48.7396" lon="1.78947">
        <ele>188.4</ele>
        <time>2023-04-27T12:22:55Z</time>
      </trkpt>
      <trkpt lat="48.73959" lon="1.7895">
        <ele>188.6</ele>
        <time>2023-04-27T12:22:57Z</time>
      </trkpt>
      <trkpt lat="48.73957" lon="1.78952">
        <ele>188.6</ele>
        <time>2023-04-27T12:22:59Z</time>
      </trkpt>
      <trkpt lat="48.73955" lon="1.78955">
        <ele>188.8</ele>
        <time>2023-04-27T12:23:01Z</time>
      </trkpt>
      <trkpt lat="48.73953" lon="1.78958">
        <ele>188.8</ele>
        <time>2023-04-27T12:23:03Z</time>
      </trkpt>
      <trkpt lat="48.73952" lon="1.7896">
        <ele>189</ele>
        <time>2023-04-27T12:23:04Z</time>
      </trkpt>
      <trkpt lat="48.7395" lon="1.78964">
        <ele>189</ele>
        <time>2023-04-27T12:23:06Z</time>
      </trkpt>
      <trkpt lat="48.73948" lon="1.78967">
        <ele>189</ele>
        <time>2023-04-27T12:23:08Z</time>
      </trkpt>
      <trkpt lat="48.73945" lon="1.78969">
        <ele>189</ele>
        <time>2023-04-27T12:23:10Z</time>
      </trkpt>
      <trkpt lat="48.73943" lon="1.78971">
        <ele>189</ele>
        <time>2023-04-27T12:23:12Z</time>
      </trkpt>
      <trkpt lat="48.7394" lon="1.78973">
        <ele>189</ele>
        <time>2023-04-27T12:23:14Z</time>
      </trkpt>
      <trkpt lat="48.73938" lon="1.78975">
        <ele>189.2</ele>
        <time>2023-04-27T12:23:16Z</time>
      </trkpt>
      <trkpt lat="48.73935" lon="1.78977">
        <ele>189.4</ele>
        <time>2023-04-27T12:23:18Z</time>
      </trkpt>
      <trkpt lat="48.73932" lon="1.7898">
        <ele>189.6</ele>
        <time>2023-04-27T12:23:20Z</time>
      </trkpt>
      <trkpt lat="48.73929" lon="1.78982">
        <ele>189.6</ele>
        <time>2023-04-27T12:23:22Z</time>
      </trkpt>
      <trkpt lat="48.73925" lon="1.78983">
        <ele>189.6</ele>
        <time>2023-04-27T12:23:24Z</time>
      </trkpt>
      <trkpt lat="48.73922" lon="1.78984">
        <ele>189.8</ele>
        <time>2023-04-27T12:23:26Z</time>
      </trkpt>
      <trkpt lat="48.7392" lon="1.78986">
        <ele>189.8</ele>
        <time>2023-04-27T12:23:28Z</time>
      </trkpt>
      <trkpt lat="48.73918" lon="1.78988">
        <ele>189.8</ele>
        <time>2023-04-27T12:23:29Z</time>
      </trkpt>
      <trkpt lat="48.73916" lon="1.78989">
        <ele>190</ele>
        <time>2023-04-27T12:23:30Z</time>
      </trkpt>
      <trkpt lat="48.73914" lon="1.78991">
        <ele>190.2</ele>
        <time>2023-04-27T12:23:32Z</time>
      </trkpt>
      <trkpt lat="48.73912" lon="1.78994">
        <ele>190.4</ele>
        <time>2023-04-27T12:23:34Z</time>
      </trkpt>
      <trkpt lat="48.73909" lon="1.78995">
        <ele>190.6</ele>
        <time>2023-04-27T12:23:36Z</time>
      </trkpt>
      <trkpt lat="48.73906" lon="1.78997">
        <ele>190.8</ele>
        <time>2023-04-27T12:23:38Z</time>
      </trkpt>
      <trkpt lat="48.73902" lon="1.78998">
        <ele>191</ele>
        <time>2023-04-27T12:23:40Z</time>
      </trkpt>
      <trkpt lat="48.739" lon="1.79">
        <ele>191.2</ele>
        <time>2023-04-27T12:23:42Z</time>
      </trkpt>
      <trkpt lat="48.73896" lon="1.79001">
        <ele>191.4</ele>
        <time>2023-04-27T12:23:44Z</time>
      </trkpt>
      <trkpt lat="48.73892" lon="1.79002">
        <ele>191.6</ele>
        <time>2023-04-27T12:23:46Z</time>
      </trkpt>
      <trkpt lat="48.73891" lon="1.79003">
        <ele>191.6</ele>
        <time>2023-04-27T12:23:47Z</time>
      </trkpt>
      <trkpt lat="48.73888" lon="1.79006">
        <ele>191.8</ele>
        <time>2023-04-27T12:23:49Z</time>
      </trkpt>
      <trkpt lat="48.73886" lon="1.79007">
        <ele>192</ele>
        <time>2023-04-27T12:23:50Z</time>
      </trkpt>
      <trkpt lat="48.73884" lon="1.79008">
        <ele>192.2</ele>
        <time>2023-04-27T12:23:51Z</time>
      </trkpt>
      <trkpt lat="48.73882" lon="1.7901">
        <ele>192.2</ele>
        <time>2023-04-27T12:23:52Z</time>
      </trkpt>
      <trkpt lat="48.7388" lon="1.79011">
        <ele>192.4</ele>
        <time>2023-04-27T12:23:53Z</time>
      </trkpt>
      <trkpt lat="48.73878" lon="1.79012">
        <ele>192.4</ele>
        <time>2023-04-27T12:23:54Z</time>
      </trkpt>
      <trkpt lat="48.73876" lon="1.79014">
        <ele>192.6</ele>
        <time>2023-04-27T12:23:55Z</time>
      </trkpt>
      <trkpt lat="48.73874" lon="1.79016">
        <ele>192.6</ele>
        <time>2023-04-27T12:23:56Z</time>
      </trkpt>
      <trkpt lat="48.73873" lon="1.79017">
        <ele>192.8</ele>
        <time>2023-04-27T12:23:57Z</time>
      </trkpt>
      <trkpt lat="48.73871" lon="1.79021">
        <ele>193</ele>
        <time>2023-04-27T12:23:59Z</time>
      </trkpt>
      <trkpt lat="48.73869" lon="1.79024">
        <ele>193.2</ele>
        <time>2023-04-27T12:24:01Z</time>
      </trkpt>
      <trkpt lat="48.73868" lon="1.79026">
        <ele>193.2</ele>
        <time>2023-04-27T12:24:03Z</time>
      </trkpt>
      <trkpt lat="48.73866" lon="1.79029">
        <ele>193.2</ele>
        <time>2023-04-27T12:24:05Z</time>
      </trkpt>
      <trkpt lat="48.73864" lon="1.79032">
        <ele>193.2</ele>
        <time>2023-04-27T12:24:07Z</time>
      </trkpt>
      <trkpt lat="48.73862" lon="1.79036">
        <ele>193.2</ele>
        <time>2023-04-27T12:24:09Z</time>
      </trkpt>
      <trkpt lat="48.7386" lon="1.7904">
        <ele>193</ele>
        <time>2023-04-27T12:24:11Z</time>
      </trkpt>
      <trkpt lat="48.7386" lon="1.79044">
        <ele>192.8</ele>
        <time>2023-04-27T12:24:13Z</time>
      </trkpt>
      <trkpt lat="48.73858" lon="1.79047">
        <ele>192.6</ele>
        <time>2023-04-27T12:24:15Z</time>
      </trkpt>
      <trkpt lat="48.73855" lon="1.79049">
        <ele>192.2</ele>
        <time>2023-04-27T12:24:17Z</time>
      </trkpt>
      <trkpt lat="48.73853" lon="1.79051">
        <ele>191.8</ele>
        <time>2023-04-27T12:24:19Z</time>
      </trkpt>
      <trkpt lat="48.73852" lon="1.79051">
        <ele>191.4</ele>
        <time>2023-04-27T12:24:21Z</time>
      </trkpt>
      <trkpt lat="48.7385" lon="1.7905">
        <ele>191.2</ele>
        <time>2023-04-27T12:24:23Z</time>
      </trkpt>
      <trkpt lat="48.73848" lon="1.79047">
        <ele>190.6</ele>
        <time>2023-04-27T12:24:25Z</time>
      </trkpt>
      <trkpt lat="48.73847" lon="1.79044">
        <ele>190.2</ele>
        <time>2023-04-27T12:24:27Z</time>
      </trkpt>
      <trkpt lat="48.73846" lon="1.79041">
        <ele>189.8</ele>
        <time>2023-04-27T12:24:29Z</time>
      </trkpt>
      <trkpt lat="48.73846" lon="1.79037">
        <ele>189.6</ele>
        <time>2023-04-27T12:24:31Z</time>
      </trkpt>
      <trkpt lat="48.73844" lon="1.79034">
        <ele>189.2</ele>
        <time>2023-04-27T12:24:33Z</time>
      </trkpt>
      <trkpt lat="48.73844" lon="1.7903">
        <ele>188.8</ele>
        <time>2023-04-27T12:24:35Z</time>
      </trkpt>
      <trkpt lat="48.73844" lon="1.79027">
        <ele>188.6</ele>
        <time>2023-04-27T12:24:37Z</time>
      </trkpt>
      <trkpt lat="48.73843" lon="1.79023">
        <ele>188.4</ele>
        <time>2023-04-27T12:24:39Z</time>
      </trkpt>
      <trkpt lat="48.73843" lon="1.79018">
        <ele>188.2</ele>
        <time>2023-04-27T12:24:41Z</time>
      </trkpt>
      <trkpt lat="48.73842" lon="1.79015">
        <ele>188.2</ele>
        <time>2023-04-27T12:24:42Z</time>
      </trkpt>
      <trkpt lat="48.73841" lon="1.79012">
        <ele>188</ele>
        <time>2023-04-27T12:24:43Z</time>
      </trkpt>
      <trkpt lat="48.7384" lon="1.79008">
        <ele>188</ele>
        <time>2023-04-27T12:24:44Z</time>
      </trkpt>
      <trkpt lat="48.7384" lon="1.79004">
        <ele>188</ele>
        <time>2023-04-27T12:24:45Z</time>
      </trkpt>
      <trkpt lat="48.73838" lon="1.78999">
        <ele>187.8</ele>
        <time>2023-04-27T12:24:46Z</time>
      </trkpt>
      <trkpt lat="48.73837" lon="1.78993">
        <ele>187.8</ele>
        <time>2023-04-27T12:24:47Z</time>
      </trkpt>
      <trkpt lat="48.73836" lon="1.78986">
        <ele>187.8</ele>
        <time>2023-04-27T12:24:48Z</time>
      </trkpt>
      <trkpt lat="48.73835" lon="1.78979">
        <ele>187.6</ele>
        <time>2023-04-27T12:24:49Z</time>
      </trkpt>
      <trkpt lat="48.73834" lon="1.78972">
        <ele>187.6</ele>
        <time>2023-04-27T12:24:50Z</time>
      </trkpt>
      <trkpt lat="48.73832" lon="1.78964">
        <ele>187.4</ele>
        <time>2023-04-27T12:24:51Z</time>
      </trkpt>
      <trkpt lat="48.73831" lon="1.78956">
        <ele>187.2</ele>
        <time>2023-04-27T12:24:52Z</time>
      </trkpt>
      <trkpt lat="48.7383" lon="1.78947">
        <ele>187</ele>
        <time>2023-04-27T12:24:53Z</time>
      </trkpt>
      <trkpt lat="48.73828" lon="1.78939">
        <ele>187</ele>
        <time>2023-04-27T12:24:54Z</time>
      </trkpt>
      <trkpt lat="48.73827" lon="1.78931">
        <ele>187</ele>
        <time>2023-04-27T12:24:55Z</time>
      </trkpt>
      <trkpt lat="48.73826" lon="1.78922">
        <ele>186.8</ele>
        <time>2023-04-27T12:24:56Z</time>
      </trkpt>
      <trkpt lat="48.73824" lon="1.78914">
        <ele>186.8</ele>
        <time>2023-04-27T12:24:57Z</time>
      </trkpt>
      <trkpt lat="48.73822" lon="1.78905">
        <ele>186.6</ele>
        <time>2023-04-27T12:24:58Z</time>
      </trkpt>
      <trkpt lat="48.73821" lon="1.78897">
        <ele>186.6</ele>
        <time>2023-04-27T12:24:59Z</time>
      </trkpt>
      <trkpt lat="48.73819" lon="1.7889">
        <ele>186.4</ele>
        <time>2023-04-27T12:25:00Z</time>
      </trkpt>
      <trkpt lat="48.73818" lon="1.78882">
        <ele>186.4</ele>
        <time>2023-04-27T12:25:01Z</time>
      </trkpt>
      <trkpt lat="48.73816" lon="1.78876">
        <ele>186.2</ele>
        <time>2023-04-27T12:25:02Z</time>
      </trkpt>
      <trkpt lat="48.73815" lon="1.78869">
        <ele>186</ele>
        <time>2023-04-27T12:25:03Z</time>
      </trkpt>
      <trkpt lat="48.73814" lon="1.78863">
        <ele>185.8</ele>
        <time>2023-04-27T12:25:04Z</time>
      </trkpt>
      <trkpt lat="48.73812" lon="1.78857">
        <ele>185.8</ele>
        <time>2023-04-27T12:25:05Z</time>
      </trkpt>
      <trkpt lat="48.73812" lon="1.78851">
        <ele>185.6</ele>
        <time>2023-04-27T12:25:06Z</time>
      </trkpt>
      <trkpt lat="48.73811" lon="1.78845">
        <ele>185.4</ele>
        <time>2023-04-27T12:25:07Z</time>
      </trkpt>
      <trkpt lat="48.73811" lon="1.78839">
        <ele>185.2</ele>
        <time>2023-04-27T12:25:08Z</time>
      </trkpt>
      <trkpt lat="48.7381" lon="1.78833">
        <ele>185</ele>
        <time>2023-04-27T12:25:09Z</time>
      </trkpt>
      <trkpt lat="48.73809" lon="1.78827">
        <ele>185</ele>
        <time>2023-04-27T12:25:10Z</time>
      </trkpt>
      <trkpt lat="48.73808" lon="1.7882">
        <ele>184.8</ele>
        <time>2023-04-27T12:25:11Z</time>
      </trkpt>
      <trkpt lat="48.73807" lon="1.78814">
        <ele>184.6</ele>
        <time>2023-04-27T12:25:12Z</time>
      </trkpt>
      <trkpt lat="48.73805" lon="1.78807">
        <ele>184.4</ele>
        <time>2023-04-27T12:25:13Z</time>
      </trkpt>
      <trkpt lat="48.73804" lon="1.788">
        <ele>184.4</ele>
        <time>2023-04-27T12:25:14Z</time>
      </trkpt>
      <trkpt lat="48.73803" lon="1.78793">
        <ele>184.2</ele>
        <time>2023-04-27T12:25:15Z</time>
      </trkpt>
      <trkpt lat="48.73801" lon="1.78786">
        <ele>184.2</ele>
        <time>2023-04-27T12:25:16Z</time>
      </trkpt>
      <trkpt lat="48.738" lon="1.78778">
        <ele>184</ele>
        <time>2023-04-27T12:25:17Z</time>
      </trkpt>
      <trkpt lat="48.73799" lon="1.78771">
        <ele>184</ele>
        <time>2023-04-27T12:25:18Z</time>
      </trkpt>
      <trkpt lat="48.73798" lon="1.78764">
        <ele>183.8</ele>
        <time>2023-04-27T12:25:19Z</time>
      </trkpt>
      <trkpt lat="48.73796" lon="1.78758">
        <ele>183.8</ele>
        <time>2023-04-27T12:25:20Z</time>
      </trkpt>
      <trkpt lat="48.73795" lon="1.78751">
        <ele>183.6</ele>
        <time>2023-04-27T12:25:21Z</time>
      </trkpt>
      <trkpt lat="48.73794" lon="1.78745">
        <ele>183.4</ele>
        <time>2023-04-27T12:25:22Z</time>
      </trkpt>
      <trkpt lat="48.73792" lon="1.78738">
        <ele>183.2</ele>
        <time>2023-04-27T12:25:23Z</time>
      </trkpt>
      <trkpt lat="48.73791" lon="1.78732">
        <ele>183.2</ele>
        <time>2023-04-27T12:25:24Z</time>
      </trkpt>
      <trkpt lat="48.7379" lon="1.78726">
        <ele>183</ele>
        <time>2023-04-27T12:25:25Z</time>
      </trkpt>
      <trkpt lat="48.73789" lon="1.7872">
        <ele>183</ele>
        <time>2023-04-27T12:25:26Z</time>
      </trkpt>
      <trkpt lat="48.73788" lon="1.78714">
        <ele>183</ele>
        <time>2023-04-27T12:25:27Z</time>
      </trkpt>
      <trkpt lat="48.73787" lon="1.78709">
        <ele>182.8</ele>
        <time>2023-04-27T12:25:28Z</time>
      </trkpt>
      <trkpt lat="48.73786" lon="1.78704">
        <ele>182.8</ele>
        <time>2023-04-27T12:25:29Z</time>
      </trkpt>
      <trkpt lat="48.73785" lon="1.787">
        <ele>182.8</ele>
        <time>2023-04-27T12:25:30Z</time>
      </trkpt>
      <trkpt lat="48.73785" lon="1.78697">
        <ele>182.8</ele>
        <time>2023-04-27T12:25:31Z</time>
      </trkpt>
      <trkpt lat="48.73784" lon="1.78694">
        <ele>182.6</ele>
        <time>2023-04-27T12:25:32Z</time>
      </trkpt>
      <trkpt lat="48.73784" lon="1.78691">
        <ele>182.6</ele>
        <time>2023-04-27T12:25:33Z</time>
      </trkpt>
      <trkpt lat="48.73783" lon="1.78688">
        <ele>182.4</ele>
        <time>2023-04-27T12:25:34Z</time>
      </trkpt>
      <trkpt lat="48.73783" lon="1.78683">
        <ele>182.4</ele>
        <time>2023-04-27T12:25:36Z</time>
      </trkpt>
      <trkpt lat="48.73783" lon="1.78678">
        <ele>182.2</ele>
        <time>2023-04-27T12:25:38Z</time>
      </trkpt>
      <trkpt lat="48.73783" lon="1.78673">
        <ele>182.2</ele>
        <time>2023-04-27T12:25:40Z</time>
      </trkpt>
      <trkpt lat="48.73783" lon="1.7867">
        <ele>182.2</ele>
        <time>2023-04-27T12:25:41Z</time>
      </trkpt>
      <trkpt lat="48.73782" lon="1.78667">
        <ele>182.2</ele>
        <time>2023-04-27T12:25:42Z</time>
      </trkpt>
      <trkpt lat="48.73781" lon="1.78663">
        <ele>182.2</ele>
        <time>2023-04-27T12:25:43Z</time>
      </trkpt>
      <trkpt lat="48.73781" lon="1.78659">
        <ele>182.2</ele>
        <time>2023-04-27T12:25:44Z</time>
      </trkpt>
      <trkpt lat="48.7378" lon="1.78655">
        <ele>182</ele>
        <time>2023-04-27T12:25:45Z</time>
      </trkpt>
      <trkpt lat="48.73779" lon="1.78651">
        <ele>182</ele>
        <time>2023-04-27T12:25:46Z</time>
      </trkpt>
      <trkpt lat="48.73779" lon="1.78646">
        <ele>181.8</ele>
        <time>2023-04-27T12:25:47Z</time>
      </trkpt>
      <trkpt lat="48.73778" lon="1.78641">
        <ele>181.8</ele>
        <time>2023-04-27T12:25:48Z</time>
      </trkpt>
      <trkpt lat="48.73777" lon="1.78637">
        <ele>181.8</ele>
        <time>2023-04-27T12:25:49Z</time>
      </trkpt>
      <trkpt lat="48.73776" lon="1.78632">
        <ele>181.6</ele>
        <time>2023-04-27T12:25:50Z</time>
      </trkpt>
      <trkpt lat="48.73775" lon="1.78627">
        <ele>181.6</ele>
        <time>2023-04-27T12:25:51Z</time>
      </trkpt>
      <trkpt lat="48.73774" lon="1.78623">
        <ele>181.6</ele>
        <time>2023-04-27T12:25:52Z</time>
      </trkpt>
      <trkpt lat="48.73773" lon="1.78618">
        <ele>181.6</ele>
        <time>2023-04-27T12:25:53Z</time>
      </trkpt>
      <trkpt lat="48.73772" lon="1.78614">
        <ele>181.6</ele>
        <time>2023-04-27T12:25:54Z</time>
      </trkpt>
      <trkpt lat="48.73772" lon="1.78609">
        <ele>181.6</ele>
        <time>2023-04-27T12:25:55Z</time>
      </trkpt>
      <trkpt lat="48.73771" lon="1.78605">
        <ele>181.6</ele>
        <time>2023-04-27T12:25:56Z</time>
      </trkpt>
      <trkpt lat="48.7377" lon="1.78601">
        <ele>181.4</ele>
        <time>2023-04-27T12:25:57Z</time>
      </trkpt>
      <trkpt lat="48.73769" lon="1.78597">
        <ele>181.4</ele>
        <time>2023-04-27T12:25:58Z</time>
      </trkpt>
      <trkpt lat="48.73768" lon="1.78593">
        <ele>181.4</ele>
        <time>2023-04-27T12:25:59Z</time>
      </trkpt>
      <trkpt lat="48.73767" lon="1.78589">
        <ele>181.4</ele>
        <time>2023-04-27T12:26:00Z</time>
      </trkpt>
      <trkpt lat="48.73767" lon="1.78584">
        <ele>181.2</ele>
        <time>2023-04-27T12:26:01Z</time>
      </trkpt>
      <trkpt lat="48.73765" lon="1.78579">
        <ele>181</ele>
        <time>2023-04-27T12:26:02Z</time>
      </trkpt>
      <trkpt lat="48.73765" lon="1.78575">
        <ele>181</ele>
        <time>2023-04-27T12:26:03Z</time>
      </trkpt>
      <trkpt lat="48.73764" lon="1.7857">
        <ele>180.8</ele>
        <time>2023-04-27T12:26:04Z</time>
      </trkpt>
      <trkpt lat="48.73763" lon="1.78566">
        <ele>180.8</ele>
        <time>2023-04-27T12:26:05Z</time>
      </trkpt>
      <trkpt lat="48.73763" lon="1.78561">
        <ele>180.6</ele>
        <time>2023-04-27T12:26:06Z</time>
      </trkpt>
      <trkpt lat="48.73763" lon="1.78557">
        <ele>180.6</ele>
        <time>2023-04-27T12:26:07Z</time>
      </trkpt>
      <trkpt lat="48.73762" lon="1.78552">
        <ele>180.4</ele>
        <time>2023-04-27T12:26:08Z</time>
      </trkpt>
      <trkpt lat="48.73761" lon="1.78548">
        <ele>180.4</ele>
        <time>2023-04-27T12:26:09Z</time>
      </trkpt>
      <trkpt lat="48.73761" lon="1.78543">
        <ele>180.4</ele>
        <time>2023-04-27T12:26:10Z</time>
      </trkpt>
      <trkpt lat="48.73759" lon="1.78538">
        <ele>180.4</ele>
        <time>2023-04-27T12:26:11Z</time>
      </trkpt>
      <trkpt lat="48.73758" lon="1.78533">
        <ele>180.2</ele>
        <time>2023-04-27T12:26:12Z</time>
      </trkpt>
      <trkpt lat="48.73757" lon="1.78529">
        <ele>180.2</ele>
        <time>2023-04-27T12:26:13Z</time>
      </trkpt>
      <trkpt lat="48.73756" lon="1.78524">
        <ele>180.2</ele>
        <time>2023-04-27T12:26:14Z</time>
      </trkpt>
      <trkpt lat="48.73754" lon="1.7852">
        <ele>180.2</ele>
        <time>2023-04-27T12:26:15Z</time>
      </trkpt>
      <trkpt lat="48.73753" lon="1.78517">
        <ele>180</ele>
        <time>2023-04-27T12:26:16Z</time>
      </trkpt>
      <trkpt lat="48.73752" lon="1.78514">
        <ele>180</ele>
        <time>2023-04-27T12:26:17Z</time>
      </trkpt>
      <trkpt lat="48.73752" lon="1.78511">
        <ele>180</ele>
        <time>2023-04-27T12:26:18Z</time>
      </trkpt>
      <trkpt lat="48.73752" lon="1.78505">
        <ele>180</ele>
        <time>2023-04-27T12:26:20Z</time>
      </trkpt>
      <trkpt lat="48.73752" lon="1.78501">
        <ele>180.2</ele>
        <time>2023-04-27T12:26:22Z</time>
      </trkpt>
      <trkpt lat="48.73751" lon="1.78498">
        <ele>180.2</ele>
        <time>2023-04-27T12:26:24Z</time>
      </trkpt>
      <trkpt lat="48.7375" lon="1.78495">
        <ele>180.2</ele>
        <time>2023-04-27T12:26:27Z</time>
      </trkpt>
      <trkpt lat="48.73748" lon="1.78492">
        <ele>180.2</ele>
        <time>2023-04-27T12:26:29Z</time>
      </trkpt>
      <trkpt lat="48.73747" lon="1.78488">
        <ele>180</ele>
        <time>2023-04-27T12:26:31Z</time>
      </trkpt>
      <trkpt lat="48.73746" lon="1.78483">
        <ele>180</ele>
        <time>2023-04-27T12:26:33Z</time>
      </trkpt>
      <trkpt lat="48.73746" lon="1.78479">
        <ele>179.8</ele>
        <time>2023-04-27T12:26:35Z</time>
      </trkpt>
      <trkpt lat="48.73745" lon="1.78475">
        <ele>179.8</ele>
        <time>2023-04-27T12:26:37Z</time>
      </trkpt>
      <trkpt lat="48.73744" lon="1.78473">
        <ele>179.8</ele>
        <time>2023-04-27T12:26:39Z</time>
      </trkpt>
      <trkpt lat="48.73743" lon="1.7847">
        <ele>179.8</ele>
        <time>2023-04-27T12:26:41Z</time>
      </trkpt>
      <trkpt lat="48.73741" lon="1.78466">
        <ele>179.8</ele>
        <time>2023-04-27T12:26:43Z</time>
      </trkpt>
      <trkpt lat="48.7374" lon="1.78462">
        <ele>179.8</ele>
        <time>2023-04-27T12:26:45Z</time>
      </trkpt>
      <trkpt lat="48.73739" lon="1.78457">
        <ele>180</ele>
        <time>2023-04-27T12:26:47Z</time>
      </trkpt>
      <trkpt lat="48.7374" lon="1.78453">
        <ele>180</ele>
        <time>2023-04-27T12:26:49Z</time>
      </trkpt>
      <trkpt lat="48.7374" lon="1.78449">
        <ele>180</ele>
        <time>2023-04-27T12:26:51Z</time>
      </trkpt>
      <trkpt lat="48.73739" lon="1.78445">
        <ele>180</ele>
        <time>2023-04-27T12:26:53Z</time>
      </trkpt>
      <trkpt lat="48.73738" lon="1.78441">
        <ele>180</ele>
        <time>2023-04-27T12:26:55Z</time>
      </trkpt>
      <trkpt lat="48.73737" lon="1.78437">
        <ele>180</ele>
        <time>2023-04-27T12:26:57Z</time>
      </trkpt>
      <trkpt lat="48.73736" lon="1.78434">
        <ele>180</ele>
        <time>2023-04-27T12:26:59Z</time>
      </trkpt>
      <trkpt lat="48.73735" lon="1.7843">
        <ele>180</ele>
        <time>2023-04-27T12:27:01Z</time>
      </trkpt>
      <trkpt lat="48.73734" lon="1.78426">
        <ele>179.8</ele>
        <time>2023-04-27T12:27:03Z</time>
      </trkpt>
      <trkpt lat="48.73733" lon="1.78422">
        <ele>179.8</ele>
        <time>2023-04-27T12:27:05Z</time>
      </trkpt>
      <trkpt lat="48.73732" lon="1.78417">
        <ele>180</ele>
        <time>2023-04-27T12:27:07Z</time>
      </trkpt>
      <trkpt lat="48.7373" lon="1.78412">
        <ele>179.8</ele>
        <time>2023-04-27T12:27:09Z</time>
      </trkpt>
      <trkpt lat="48.73728" lon="1.78408">
        <ele>179.6</ele>
        <time>2023-04-27T12:27:11Z</time>
      </trkpt>
      <trkpt lat="48.73727" lon="1.78403">
        <ele>179.6</ele>
        <time>2023-04-27T12:27:13Z</time>
      </trkpt>
      <trkpt lat="48.73727" lon="1.78399">
        <ele>179.4</ele>
        <time>2023-04-27T12:27:15Z</time>
      </trkpt>
      <trkpt lat="48.73728" lon="1.78395">
        <ele>179.2</ele>
        <time>2023-04-27T12:27:17Z</time>
      </trkpt>
      <trkpt lat="48.73729" lon="1.7839">
        <ele>179.2</ele>
        <time>2023-04-27T12:27:19Z</time>
      </trkpt>
      <trkpt lat="48.73729" lon="1.78386">
        <ele>179</ele>
        <time>2023-04-27T12:27:21Z</time>
      </trkpt>
      <trkpt lat="48.7373" lon="1.78381">
        <ele>179</ele>
        <time>2023-04-27T12:27:23Z</time>
      </trkpt>
      <trkpt lat="48.7373" lon="1.78376">
        <ele>179</ele>
        <time>2023-04-27T12:27:25Z</time>
      </trkpt>
      <trkpt lat="48.73729" lon="1.78371">
        <ele>179</ele>
        <time>2023-04-27T12:27:27Z</time>
      </trkpt>
      <trkpt lat="48.73729" lon="1.78366">
        <ele>179</ele>
        <time>2023-04-27T12:27:29Z</time>
      </trkpt>
      <trkpt lat="48.73729" lon="1.78361">
        <ele>179</ele>
        <time>2023-04-27T12:27:31Z</time>
      </trkpt>
      <trkpt lat="48.73729" lon="1.78356">
        <ele>178.8</ele>
        <time>2023-04-27T12:27:33Z</time>
      </trkpt>
      <trkpt lat="48.73729" lon="1.78353">
        <ele>178.6</ele>
        <time>2023-04-27T12:27:35Z</time>
      </trkpt>
      <trkpt lat="48.7373" lon="1.78349">
        <ele>178.6</ele>
        <time>2023-04-27T12:27:37Z</time>
      </trkpt>
      <trkpt lat="48.73731" lon="1.78345">
        <ele>178.4</ele>
        <time>2023-04-27T12:27:39Z</time>
      </trkpt>
      <trkpt lat="48.73732" lon="1.78341">
        <ele>178.4</ele>
        <time>2023-04-27T12:27:41Z</time>
      </trkpt>
      <trkpt lat="48.73732" lon="1.78337">
        <ele>178.2</ele>
        <time>2023-04-27T12:27:43Z</time>
      </trkpt>
      <trkpt lat="48.73732" lon="1.78333">
        <ele>178.2</ele>
        <time>2023-04-27T12:27:45Z</time>
      </trkpt>
      <trkpt lat="48.73733" lon="1.78329">
        <ele>178.2</ele>
        <time>2023-04-27T12:27:47Z</time>
      </trkpt>
      <trkpt lat="48.73734" lon="1.78325">
        <ele>178.2</ele>
        <time>2023-04-27T12:27:49Z</time>
      </trkpt>
      <trkpt lat="48.73735" lon="1.78322">
        <ele>178.2</ele>
        <time>2023-04-27T12:27:51Z</time>
      </trkpt>
      <trkpt lat="48.73735" lon="1.78318">
        <ele>178</ele>
        <time>2023-04-27T12:27:53Z</time>
      </trkpt>
      <trkpt lat="48.73736" lon="1.78315">
        <ele>177.8</ele>
        <time>2023-04-27T12:27:55Z</time>
      </trkpt>
      <trkpt lat="48.73737" lon="1.78311">
        <ele>177.8</ele>
        <time>2023-04-27T12:27:57Z</time>
      </trkpt>
      <trkpt lat="48.73737" lon="1.78307">
        <ele>177.6</ele>
        <time>2023-04-27T12:27:59Z</time>
      </trkpt>
      <trkpt lat="48.73738" lon="1.78303">
        <ele>177.6</ele>
        <time>2023-04-27T12:28:01Z</time>
      </trkpt>
      <trkpt lat="48.73738" lon="1.783">
        <ele>177.4</ele>
        <time>2023-04-27T12:28:03Z</time>
      </trkpt>
      <trkpt lat="48.73739" lon="1.78298">
        <ele>177.2</ele>
        <time>2023-04-27T12:28:05Z</time>
      </trkpt>
      <trkpt lat="48.7374" lon="1.78295">
        <ele>177.2</ele>
        <time>2023-04-27T12:28:07Z</time>
      </trkpt>
      <trkpt lat="48.73741" lon="1.78292">
        <ele>177.2</ele>
        <time>2023-04-27T12:28:09Z</time>
      </trkpt>
      <trkpt lat="48.73743" lon="1.78289">
        <ele>177</ele>
        <time>2023-04-27T12:28:11Z</time>
      </trkpt>
      <trkpt lat="48.73744" lon="1.78286">
        <ele>176.8</ele>
        <time>2023-04-27T12:28:13Z</time>
      </trkpt>
      <trkpt lat="48.73746" lon="1.78284">
        <ele>176.6</ele>
        <time>2023-04-27T12:28:15Z</time>
      </trkpt>
      <trkpt lat="48.73748" lon="1.7828">
        <ele>176.4</ele>
        <time>2023-04-27T12:28:17Z</time>
      </trkpt>
      <trkpt lat="48.73749" lon="1.78276">
        <ele>176.2</ele>
        <time>2023-04-27T12:28:19Z</time>
      </trkpt>
      <trkpt lat="48.73751" lon="1.78272">
        <ele>176</ele>
        <time>2023-04-27T12:28:21Z</time>
      </trkpt>
      <trkpt lat="48.73751" lon="1.78268">
        <ele>175.8</ele>
        <time>2023-04-27T12:28:23Z</time>
      </trkpt>
      <trkpt lat="48.73751" lon="1.78264">
        <ele>175.6</ele>
        <time>2023-04-27T12:28:25Z</time>
      </trkpt>
      <trkpt lat="48.73751" lon="1.78259">
        <ele>175.6</ele>
        <time>2023-04-27T12:28:27Z</time>
      </trkpt>
      <trkpt lat="48.73752" lon="1.78256">
        <ele>175.6</ele>
        <time>2023-04-27T12:28:28Z</time>
      </trkpt>
      <trkpt lat="48.73752" lon="1.78253">
        <ele>175.6</ele>
        <time>2023-04-27T12:28:29Z</time>
      </trkpt>
      <trkpt lat="48.73752" lon="1.7825">
        <ele>175.6</ele>
        <time>2023-04-27T12:28:30Z</time>
      </trkpt>
      <trkpt lat="48.73753" lon="1.78246">
        <ele>175.6</ele>
        <time>2023-04-27T12:28:32Z</time>
      </trkpt>
      <trkpt lat="48.73754" lon="1.78242">
        <ele>175.6</ele>
        <time>2023-04-27T12:28:34Z</time>
      </trkpt>
      <trkpt lat="48.73754" lon="1.78239">
        <ele>175.6</ele>
        <time>2023-04-27T12:28:36Z</time>
      </trkpt>
      <trkpt lat="48.73754" lon="1.78236">
        <ele>175.6</ele>
        <time>2023-04-27T12:28:38Z</time>
      </trkpt>
      <trkpt lat="48.73754" lon="1.78232">
        <ele>175.6</ele>
        <time>2023-04-27T12:28:41Z</time>
      </trkpt>
      <trkpt lat="48.73754" lon="1.7823">
        <ele>175.6</ele>
        <time>2023-04-27T12:28:43Z</time>
      </trkpt>
      <trkpt lat="48.73754" lon="1.78226">
        <ele>175.4</ele>
        <time>2023-04-27T12:28:45Z</time>
      </trkpt>
      <trkpt lat="48.73753" lon="1.78221">
        <ele>175.4</ele>
        <time>2023-04-27T12:28:47Z</time>
      </trkpt>
      <trkpt lat="48.73752" lon="1.78218">
        <ele>175.4</ele>
        <time>2023-04-27T12:28:49Z</time>
      </trkpt>
      <trkpt lat="48.73751" lon="1.78214">
        <ele>175.2</ele>
        <time>2023-04-27T12:28:51Z</time>
      </trkpt>
      <trkpt lat="48.73751" lon="1.78211">
        <ele>175.2</ele>
        <time>2023-04-27T12:28:53Z</time>
      </trkpt>
      <trkpt lat="48.73752" lon="1.78207">
        <ele>175.2</ele>
        <time>2023-04-27T12:28:55Z</time>
      </trkpt>
      <trkpt lat="48.73753" lon="1.78203">
        <ele>175</ele>
        <time>2023-04-27T12:28:57Z</time>
      </trkpt>
      <trkpt lat="48.73755" lon="1.782">
        <ele>174.8</ele>
        <time>2023-04-27T12:28:59Z</time>
      </trkpt>
      <trkpt lat="48.73756" lon="1.78196">
        <ele>174.6</ele>
        <time>2023-04-27T12:29:01Z</time>
      </trkpt>
      <trkpt lat="48.73756" lon="1.78191">
        <ele>174.6</ele>
        <time>2023-04-27T12:29:03Z</time>
      </trkpt>
      <trkpt lat="48.73756" lon="1.78188">
        <ele>174.6</ele>
        <time>2023-04-27T12:29:04Z</time>
      </trkpt>
      <trkpt lat="48.73755" lon="1.78186">
        <ele>174.4</ele>
        <time>2023-04-27T12:29:05Z</time>
      </trkpt>
      <trkpt lat="48.73755" lon="1.78182">
        <ele>174.4</ele>
        <time>2023-04-27T12:29:06Z</time>
      </trkpt>
      <trkpt lat="48.73755" lon="1.78179">
        <ele>174.2</ele>
        <time>2023-04-27T12:29:07Z</time>
      </trkpt>
      <trkpt lat="48.73755" lon="1.78177">
        <ele>174</ele>
        <time>2023-04-27T12:29:08Z</time>
      </trkpt>
      <trkpt lat="48.73756" lon="1.78172">
        <ele>173.8</ele>
        <time>2023-04-27T12:29:10Z</time>
      </trkpt>
      <trkpt lat="48.73756" lon="1.78167">
        <ele>173.8</ele>
        <time>2023-04-27T12:29:12Z</time>
      </trkpt>
      <trkpt lat="48.73756" lon="1.78162">
        <ele>173.6</ele>
        <time>2023-04-27T12:29:14Z</time>
      </trkpt>
      <trkpt lat="48.73756" lon="1.78157">
        <ele>173.6</ele>
        <time>2023-04-27T12:29:16Z</time>
      </trkpt>
      <trkpt lat="48.73756" lon="1.78151">
        <ele>173.8</ele>
        <time>2023-04-27T12:29:18Z</time>
      </trkpt>
      <trkpt lat="48.73756" lon="1.78146">
        <ele>173.6</ele>
        <time>2023-04-27T12:29:20Z</time>
      </trkpt>
      <trkpt lat="48.73757" lon="1.78141">
        <ele>173.6</ele>
        <time>2023-04-27T12:29:22Z</time>
      </trkpt>
      <trkpt lat="48.73758" lon="1.78139">
        <ele>173.6</ele>
        <time>2023-04-27T12:29:23Z</time>
      </trkpt>
      <trkpt lat="48.73759" lon="1.78134">
        <ele>173.6</ele>
        <time>2023-04-27T12:29:25Z</time>
      </trkpt>
      <trkpt lat="48.7376" lon="1.78131">
        <ele>173.4</ele>
        <time>2023-04-27T12:29:26Z</time>
      </trkpt>
      <trkpt lat="48.73761" lon="1.78127">
        <ele>173.4</ele>
        <time>2023-04-27T12:29:28Z</time>
      </trkpt>
      <trkpt lat="48.73763" lon="1.78124">
        <ele>173.2</ele>
        <time>2023-04-27T12:29:30Z</time>
      </trkpt>
      <trkpt lat="48.73764" lon="1.78121">
        <ele>173.2</ele>
        <time>2023-04-27T12:29:32Z</time>
      </trkpt>
      <trkpt lat="48.73766" lon="1.78118">
        <ele>173.2</ele>
        <time>2023-04-27T12:29:34Z</time>
      </trkpt>
      <trkpt lat="48.73766" lon="1.78113">
        <ele>173.2</ele>
        <time>2023-04-27T12:29:36Z</time>
      </trkpt>
      <trkpt lat="48.73766" lon="1.78108">
        <ele>173.2</ele>
        <time>2023-04-27T12:29:38Z</time>
      </trkpt>
      <trkpt lat="48.73766" lon="1.78103">
        <ele>173.2</ele>
        <time>2023-04-27T12:29:40Z</time>
      </trkpt>
      <trkpt lat="48.73766" lon="1.78099">
        <ele>173</ele>
        <time>2023-04-27T12:29:42Z</time>
      </trkpt>
      <trkpt lat="48.73766" lon="1.78094">
        <ele>173</ele>
        <time>2023-04-27T12:29:44Z</time>
      </trkpt>
      <trkpt lat="48.73767" lon="1.7809">
        <ele>173</ele>
        <time>2023-04-27T12:29:46Z</time>
      </trkpt>
      <trkpt lat="48.73767" lon="1.78086">
        <ele>173</ele>
        <time>2023-04-27T12:29:48Z</time>
      </trkpt>
      <trkpt lat="48.73768" lon="1.78082">
        <ele>173</ele>
        <time>2023-04-27T12:29:50Z</time>
      </trkpt>
      <trkpt lat="48.73768" lon="1.78078">
        <ele>173</ele>
        <time>2023-04-27T12:29:52Z</time>
      </trkpt>
      <trkpt lat="48.73768" lon="1.78075">
        <ele>173</ele>
        <time>2023-04-27T12:29:54Z</time>
      </trkpt>
      <trkpt lat="48.73768" lon="1.7807">
        <ele>173</ele>
        <time>2023-04-27T12:29:56Z</time>
      </trkpt>
      <trkpt lat="48.73768" lon="1.78065">
        <ele>172.8</ele>
        <time>2023-04-27T12:29:58Z</time>
      </trkpt>
      <trkpt lat="48.73768" lon="1.7806">
        <ele>172.8</ele>
        <time>2023-04-27T12:30:00Z</time>
      </trkpt>
      <trkpt lat="48.73769" lon="1.78055">
        <ele>172.8</ele>
        <time>2023-04-27T12:30:02Z</time>
      </trkpt>
      <trkpt lat="48.73771" lon="1.78052">
        <ele>172.6</ele>
        <time>2023-04-27T12:30:04Z</time>
      </trkpt>
      <trkpt lat="48.73772" lon="1.78049">
        <ele>172.6</ele>
        <time>2023-04-27T12:30:06Z</time>
      </trkpt>
      <trkpt lat="48.73773" lon="1.78046">
        <ele>172.6</ele>
        <time>2023-04-27T12:30:08Z</time>
      </trkpt>
      <trkpt lat="48.73773" lon="1.78043">
        <ele>172.6</ele>
        <time>2023-04-27T12:30:10Z</time>
      </trkpt>
      <trkpt lat="48.73774" lon="1.78039">
        <ele>172.6</ele>
        <time>2023-04-27T12:30:12Z</time>
      </trkpt>
      <trkpt lat="48.73774" lon="1.78035">
        <ele>172.8</ele>
        <time>2023-04-27T12:30:14Z</time>
      </trkpt>
      <trkpt lat="48.73775" lon="1.78031">
        <ele>172.8</ele>
        <time>2023-04-27T12:30:16Z</time>
      </trkpt>
      <trkpt lat="48.73775" lon="1.78028">
        <ele>173</ele>
        <time>2023-04-27T12:30:18Z</time>
      </trkpt>
      <trkpt lat="48.73776" lon="1.78025">
        <ele>173</ele>
        <time>2023-04-27T12:30:20Z</time>
      </trkpt>
      <trkpt lat="48.73777" lon="1.78022">
        <ele>172.8</ele>
        <time>2023-04-27T12:30:22Z</time>
      </trkpt>
      <trkpt lat="48.73778" lon="1.78019">
        <ele>172.8</ele>
        <time>2023-04-27T12:30:24Z</time>
      </trkpt>
      <trkpt lat="48.73779" lon="1.78015">
        <ele>172.8</ele>
        <time>2023-04-27T12:30:26Z</time>
      </trkpt>
      <trkpt lat="48.73779" lon="1.78011">
        <ele>172.8</ele>
        <time>2023-04-27T12:30:28Z</time>
      </trkpt>
      <trkpt lat="48.7378" lon="1.78007">
        <ele>172.8</ele>
        <time>2023-04-27T12:30:30Z</time>
      </trkpt>
      <trkpt lat="48.7378" lon="1.78003">
        <ele>172.8</ele>
        <time>2023-04-27T12:30:32Z</time>
      </trkpt>
      <trkpt lat="48.73781" lon="1.77999">
        <ele>173</ele>
        <time>2023-04-27T12:30:34Z</time>
      </trkpt>
      <trkpt lat="48.73781" lon="1.77995">
        <ele>172.8</ele>
        <time>2023-04-27T12:30:36Z</time>
      </trkpt>
      <trkpt lat="48.73782" lon="1.77991">
        <ele>172.8</ele>
        <time>2023-04-27T12:30:38Z</time>
      </trkpt>
      <trkpt lat="48.73783" lon="1.77985">
        <ele>172.6</ele>
        <time>2023-04-27T12:30:40Z</time>
      </trkpt>
      <trkpt lat="48.73784" lon="1.7798">
        <ele>172.4</ele>
        <time>2023-04-27T12:30:42Z</time>
      </trkpt>
      <trkpt lat="48.73785" lon="1.77978">
        <ele>172.4</ele>
        <time>2023-04-27T12:30:43Z</time>
      </trkpt>
      <trkpt lat="48.73786" lon="1.77975">
        <ele>172.2</ele>
        <time>2023-04-27T12:30:44Z</time>
      </trkpt>
      <trkpt lat="48.73787" lon="1.77973">
        <ele>172.2</ele>
        <time>2023-04-27T12:30:45Z</time>
      </trkpt>
      <trkpt lat="48.73788" lon="1.77968">
        <ele>172</ele>
        <time>2023-04-27T12:30:47Z</time>
      </trkpt>
      <trkpt lat="48.73788" lon="1.77963">
        <ele>171.8</ele>
        <time>2023-04-27T12:30:49Z</time>
      </trkpt>
      <trkpt lat="48.73789" lon="1.77958">
        <ele>171.8</ele>
        <time>2023-04-27T12:30:51Z</time>
      </trkpt>
      <trkpt lat="48.73789" lon="1.77955">
        <ele>171.6</ele>
        <time>2023-04-27T12:30:53Z</time>
      </trkpt>
      <trkpt lat="48.73791" lon="1.77951">
        <ele>171.2</ele>
        <time>2023-04-27T12:30:55Z</time>
      </trkpt>
      <trkpt lat="48.73792" lon="1.77949">
        <ele>171</ele>
        <time>2023-04-27T12:30:56Z</time>
      </trkpt>
      <trkpt lat="48.73794" lon="1.77945">
        <ele>170.6</ele>
        <time>2023-04-27T12:30:58Z</time>
      </trkpt>
      <trkpt lat="48.73796" lon="1.77941">
        <ele>170.4</ele>
        <time>2023-04-27T12:31:00Z</time>
      </trkpt>
      <trkpt lat="48.73798" lon="1.77938">
        <ele>170.4</ele>
        <time>2023-04-27T12:31:02Z</time>
      </trkpt>
      <trkpt lat="48.738" lon="1.77934">
        <ele>170.2</ele>
        <time>2023-04-27T12:31:04Z</time>
      </trkpt>
      <trkpt lat="48.73801" lon="1.7793">
        <ele>170.2</ele>
        <time>2023-04-27T12:31:06Z</time>
      </trkpt>
      <trkpt lat="48.73803" lon="1.77927">
        <ele>170</ele>
        <time>2023-04-27T12:31:08Z</time>
      </trkpt>
      <trkpt lat="48.73805" lon="1.77924">
        <ele>169.8</ele>
        <time>2023-04-27T12:31:10Z</time>
      </trkpt>
      <trkpt lat="48.73807" lon="1.77922">
        <ele>169.8</ele>
        <time>2023-04-27T12:31:12Z</time>
      </trkpt>
      <trkpt lat="48.73809" lon="1.77919">
        <ele>169.4</ele>
        <time>2023-04-27T12:31:14Z</time>
      </trkpt>
      <trkpt lat="48.73811" lon="1.77916">
        <ele>169.4</ele>
        <time>2023-04-27T12:31:16Z</time>
      </trkpt>
      <trkpt lat="48.73814" lon="1.77913">
        <ele>169.2</ele>
        <time>2023-04-27T12:31:18Z</time>
      </trkpt>
      <trkpt lat="48.73815" lon="1.7791">
        <ele>169.2</ele>
        <time>2023-04-27T12:31:20Z</time>
      </trkpt>
      <trkpt lat="48.73816" lon="1.77906">
        <ele>169</ele>
        <time>2023-04-27T12:31:22Z</time>
      </trkpt>
      <trkpt lat="48.73816" lon="1.77903">
        <ele>169</ele>
        <time>2023-04-27T12:31:24Z</time>
      </trkpt>
      <trkpt lat="48.73817" lon="1.779">
        <ele>168.8</ele>
        <time>2023-04-27T12:31:26Z</time>
      </trkpt>
      <trkpt lat="48.73818" lon="1.77897">
        <ele>168.8</ele>
        <time>2023-04-27T12:31:28Z</time>
      </trkpt>
      <trkpt lat="48.73819" lon="1.77894">
        <ele>168.6</ele>
        <time>2023-04-27T12:31:30Z</time>
      </trkpt>
      <trkpt lat="48.7382" lon="1.7789">
        <ele>168.4</ele>
        <time>2023-04-27T12:31:32Z</time>
      </trkpt>
      <trkpt lat="48.7382" lon="1.77885">
        <ele>168.4</ele>
        <time>2023-04-27T12:31:34Z</time>
      </trkpt>
      <trkpt lat="48.7382" lon="1.77881">
        <ele>168.4</ele>
        <time>2023-04-27T12:31:36Z</time>
      </trkpt>
      <trkpt lat="48.73819" lon="1.77878">
        <ele>168.4</ele>
        <time>2023-04-27T12:31:38Z</time>
      </trkpt>
      <trkpt lat="48.73819" lon="1.77875">
        <ele>168.4</ele>
        <time>2023-04-27T12:31:40Z</time>
      </trkpt>
      <trkpt lat="48.73819" lon="1.77872">
        <ele>168.4</ele>
        <time>2023-04-27T12:31:42Z</time>
      </trkpt>
      <trkpt lat="48.73819" lon="1.77869">
        <ele>168.4</ele>
        <time>2023-04-27T12:31:44Z</time>
      </trkpt>
      <trkpt lat="48.73819" lon="1.77865">
        <ele>168.4</ele>
        <time>2023-04-27T12:31:46Z</time>
      </trkpt>
      <trkpt lat="48.73819" lon="1.77862">
        <ele>168.6</ele>
        <time>2023-04-27T12:31:48Z</time>
      </trkpt>
      <trkpt lat="48.73818" lon="1.77858">
        <ele>168.4</ele>
        <time>2023-04-27T12:31:50Z</time>
      </trkpt>
      <trkpt lat="48.73818" lon="1.77854">
        <ele>168.4</ele>
        <time>2023-04-27T12:31:52Z</time>
      </trkpt>
      <trkpt lat="48.73817" lon="1.7785">
        <ele>168.4</ele>
        <time>2023-04-27T12:31:54Z</time>
      </trkpt>
      <trkpt lat="48.73818" lon="1.77847">
        <ele>168.2</ele>
        <time>2023-04-27T12:31:56Z</time>
      </trkpt>
      <trkpt lat="48.73818" lon="1.77844">
        <ele>168</ele>
        <time>2023-04-27T12:31:58Z</time>
      </trkpt>
      <trkpt lat="48.73819" lon="1.77841">
        <ele>168</ele>
        <time>2023-04-27T12:32:00Z</time>
      </trkpt>
      <trkpt lat="48.73819" lon="1.77837">
        <ele>167.8</ele>
        <time>2023-04-27T12:32:02Z</time>
      </trkpt>
      <trkpt lat="48.7382" lon="1.77834">
        <ele>167.6</ele>
        <time>2023-04-27T12:32:04Z</time>
      </trkpt>
      <trkpt lat="48.7382" lon="1.7783">
        <ele>167.4</ele>
        <time>2023-04-27T12:32:06Z</time>
      </trkpt>
      <trkpt lat="48.73821" lon="1.77827">
        <ele>167.4</ele>
        <time>2023-04-27T12:32:08Z</time>
      </trkpt>
      <trkpt lat="48.73822" lon="1.77823">
        <ele>167.4</ele>
        <time>2023-04-27T12:32:10Z</time>
      </trkpt>
      <trkpt lat="48.73822" lon="1.77818">
        <ele>167.4</ele>
        <time>2023-04-27T12:32:12Z</time>
      </trkpt>
      <trkpt lat="48.73822" lon="1.77813">
        <ele>167.4</ele>
        <time>2023-04-27T12:32:14Z</time>
      </trkpt>
      <trkpt lat="48.73822" lon="1.7781">
        <ele>167.4</ele>
        <time>2023-04-27T12:32:15Z</time>
      </trkpt>
      <trkpt lat="48.73823" lon="1.77807">
        <ele>167.6</ele>
        <time>2023-04-27T12:32:16Z</time>
      </trkpt>
      <trkpt lat="48.73823" lon="1.77804">
        <ele>167.6</ele>
        <time>2023-04-27T12:32:17Z</time>
      </trkpt>
      <trkpt lat="48.73823" lon="1.77799">
        <ele>167.8</ele>
        <time>2023-04-27T12:32:19Z</time>
      </trkpt>
      <trkpt lat="48.73823" lon="1.77795">
        <ele>167.8</ele>
        <time>2023-04-27T12:32:21Z</time>
      </trkpt>
      <trkpt lat="48.73823" lon="1.77791">
        <ele>167.6</ele>
        <time>2023-04-27T12:32:23Z</time>
      </trkpt>
      <trkpt lat="48.73823" lon="1.77786">
        <ele>167.6</ele>
        <time>2023-04-27T12:32:25Z</time>
      </trkpt>
      <trkpt lat="48.73823" lon="1.77781">
        <ele>167.6</ele>
        <time>2023-04-27T12:32:27Z</time>
      </trkpt>
      <trkpt lat="48.73823" lon="1.77776">
        <ele>167.6</ele>
        <time>2023-04-27T12:32:29Z</time>
      </trkpt>
      <trkpt lat="48.73823" lon="1.77772">
        <ele>167.6</ele>
        <time>2023-04-27T12:32:31Z</time>
      </trkpt>
      <trkpt lat="48.73824" lon="1.77768">
        <ele>167.6</ele>
        <time>2023-04-27T12:32:33Z</time>
      </trkpt>
      <trkpt lat="48.73824" lon="1.77764">
        <ele>167.4</ele>
        <time>2023-04-27T12:32:35Z</time>
      </trkpt>
      <trkpt lat="48.73825" lon="1.7776">
        <ele>167.4</ele>
        <time>2023-04-27T12:32:37Z</time>
      </trkpt>
      <trkpt lat="48.73827" lon="1.77756">
        <ele>167.4</ele>
        <time>2023-04-27T12:32:39Z</time>
      </trkpt>
      <trkpt lat="48.73828" lon="1.77752">
        <ele>167.2</ele>
        <time>2023-04-27T12:32:41Z</time>
      </trkpt>
      <trkpt lat="48.73829" lon="1.77747">
        <ele>167.2</ele>
        <time>2023-04-27T12:32:43Z</time>
      </trkpt>
      <trkpt lat="48.73829" lon="1.77742">
        <ele>167.2</ele>
        <time>2023-04-27T12:32:45Z</time>
      </trkpt>
      <trkpt lat="48.7383" lon="1.77738">
        <ele>167</ele>
        <time>2023-04-27T12:32:47Z</time>
      </trkpt>
      <trkpt lat="48.73831" lon="1.77735">
        <ele>166.8</ele>
        <time>2023-04-27T12:32:49Z</time>
      </trkpt>
      <trkpt lat="48.73832" lon="1.77731">
        <ele>166.6</ele>
        <time>2023-04-27T12:32:51Z</time>
      </trkpt>
      <trkpt lat="48.73832" lon="1.77727">
        <ele>166.2</ele>
        <time>2023-04-27T12:32:53Z</time>
      </trkpt>
      <trkpt lat="48.73833" lon="1.77723">
        <ele>166</ele>
        <time>2023-04-27T12:32:55Z</time>
      </trkpt>
      <trkpt lat="48.73834" lon="1.77719">
        <ele>165.8</ele>
        <time>2023-04-27T12:32:57Z</time>
      </trkpt>
      <trkpt lat="48.73835" lon="1.77715">
        <ele>165.6</ele>
        <time>2023-04-27T12:32:59Z</time>
      </trkpt>
      <trkpt lat="48.73836" lon="1.77712">
        <ele>165.4</ele>
        <time>2023-04-27T12:33:01Z</time>
      </trkpt>
      <trkpt lat="48.73838" lon="1.77709">
        <ele>165.2</ele>
        <time>2023-04-27T12:33:03Z</time>
      </trkpt>
      <trkpt lat="48.7384" lon="1.77705">
        <ele>165</ele>
        <time>2023-04-27T12:33:05Z</time>
      </trkpt>
      <trkpt lat="48.7384" lon="1.77701">
        <ele>164.8</ele>
        <time>2023-04-27T12:33:07Z</time>
      </trkpt>
      <trkpt lat="48.7384" lon="1.77696">
        <ele>164.6</ele>
        <time>2023-04-27T12:33:09Z</time>
      </trkpt>
      <trkpt lat="48.7384" lon="1.77693">
        <ele>164.4</ele>
        <time>2023-04-27T12:33:10Z</time>
      </trkpt>
      <trkpt lat="48.7384" lon="1.7769">
        <ele>164.4</ele>
        <time>2023-04-27T12:33:11Z</time>
      </trkpt>
      <trkpt lat="48.73841" lon="1.77687">
        <ele>164.2</ele>
        <time>2023-04-27T12:33:12Z</time>
      </trkpt>
      <trkpt lat="48.73841" lon="1.77682">
        <ele>164.2</ele>
        <time>2023-04-27T12:33:14Z</time>
      </trkpt>
      <trkpt lat="48.73842" lon="1.77678">
        <ele>164</ele>
        <time>2023-04-27T12:33:16Z</time>
      </trkpt>
      <trkpt lat="48.73842" lon="1.77674">
        <ele>164</ele>
        <time>2023-04-27T12:33:18Z</time>
      </trkpt>
      <trkpt lat="48.73843" lon="1.7767">
        <ele>163.8</ele>
        <time>2023-04-27T12:33:20Z</time>
      </trkpt>
      <trkpt lat="48.73844" lon="1.77665">
        <ele>163.6</ele>
        <time>2023-04-27T12:33:22Z</time>
      </trkpt>
      <trkpt lat="48.73845" lon="1.77661">
        <ele>163.8</ele>
        <time>2023-04-27T12:33:24Z</time>
      </trkpt>
      <trkpt lat="48.73846" lon="1.77657">
        <ele>163.8</ele>
        <time>2023-04-27T12:33:26Z</time>
      </trkpt>
      <trkpt lat="48.73846" lon="1.77653">
        <ele>164</ele>
        <time>2023-04-27T12:33:28Z</time>
      </trkpt>
      <trkpt lat="48.73846" lon="1.77649">
        <ele>164.2</ele>
        <time>2023-04-27T12:33:30Z</time>
      </trkpt>
      <trkpt lat="48.73846" lon="1.77646">
        <ele>164.2</ele>
        <time>2023-04-27T12:33:32Z</time>
      </trkpt>
      <trkpt lat="48.73846" lon="1.77643">
        <ele>164.2</ele>
        <time>2023-04-27T12:33:34Z</time>
      </trkpt>
      <trkpt lat="48.73846" lon="1.7764">
        <ele>164</ele>
        <time>2023-04-27T12:33:36Z</time>
      </trkpt>
      <trkpt lat="48.73846" lon="1.77636">
        <ele>164</ele>
        <time>2023-04-27T12:33:38Z</time>
      </trkpt>
      <trkpt lat="48.73846" lon="1.77632">
        <ele>164</ele>
        <time>2023-04-27T12:33:40Z</time>
      </trkpt>
      <trkpt lat="48.73844" lon="1.77628">
        <ele>163.8</ele>
        <time>2023-04-27T12:33:42Z</time>
      </trkpt>
      <trkpt lat="48.73844" lon="1.77624">
        <ele>163.6</ele>
        <time>2023-04-27T12:33:44Z</time>
      </trkpt>
      <trkpt lat="48.73844" lon="1.77621">
        <ele>163.4</ele>
        <time>2023-04-27T12:33:46Z</time>
      </trkpt>
      <trkpt lat="48.73845" lon="1.77618">
        <ele>163.4</ele>
        <time>2023-04-27T12:33:48Z</time>
      </trkpt>
      <trkpt lat="48.73847" lon="1.77615">
        <ele>163.4</ele>
        <time>2023-04-27T12:33:50Z</time>
      </trkpt>
      <trkpt lat="48.73849" lon="1.77612">
        <ele>163.4</ele>
        <time>2023-04-27T12:33:52Z</time>
      </trkpt>
      <trkpt lat="48.7385" lon="1.77609">
        <ele>163.6</ele>
        <time>2023-04-27T12:33:54Z</time>
      </trkpt>
      <trkpt lat="48.73852" lon="1.77606">
        <ele>163.6</ele>
        <time>2023-04-27T12:33:56Z</time>
      </trkpt>
      <trkpt lat="48.73854" lon="1.77603">
        <ele>163.6</ele>
        <time>2023-04-27T12:33:58Z</time>
      </trkpt>
      <trkpt lat="48.73854" lon="1.77599">
        <ele>163.6</ele>
        <time>2023-04-27T12:34:00Z</time>
      </trkpt>
      <trkpt lat="48.73855" lon="1.77595">
        <ele>163.6</ele>
        <time>2023-04-27T12:34:02Z</time>
      </trkpt>
      <trkpt lat="48.73854" lon="1.77591">
        <ele>163.4</ele>
        <time>2023-04-27T12:34:04Z</time>
      </trkpt>
      <trkpt lat="48.73854" lon="1.77586">
        <ele>163.2</ele>
        <time>2023-04-27T12:34:06Z</time>
      </trkpt>
      <trkpt lat="48.73852" lon="1.77583">
        <ele>162.8</ele>
        <time>2023-04-27T12:34:08Z</time>
      </trkpt>
      <trkpt lat="48.73852" lon="1.7758">
        <ele>162.6</ele>
        <time>2023-04-27T12:34:10Z</time>
      </trkpt>
      <trkpt lat="48.73852" lon="1.77577">
        <ele>162.4</ele>
        <time>2023-04-27T12:34:12Z</time>
      </trkpt>
      <trkpt lat="48.73852" lon="1.77574">
        <ele>162.2</ele>
        <time>2023-04-27T12:34:14Z</time>
      </trkpt>
      <trkpt lat="48.73853" lon="1.7757">
        <ele>162.2</ele>
        <time>2023-04-27T12:34:16Z</time>
      </trkpt>
      <trkpt lat="48.73854" lon="1.77566">
        <ele>162.4</ele>
        <time>2023-04-27T12:34:18Z</time>
      </trkpt>
      <trkpt lat="48.73857" lon="1.77564">
        <ele>162.6</ele>
        <time>2023-04-27T12:34:20Z</time>
      </trkpt>
      <trkpt lat="48.73859" lon="1.77561">
        <ele>162.8</ele>
        <time>2023-04-27T12:34:22Z</time>
      </trkpt>
      <trkpt lat="48.73861" lon="1.77558">
        <ele>163</ele>
        <time>2023-04-27T12:34:24Z</time>
      </trkpt>
      <trkpt lat="48.73863" lon="1.77555">
        <ele>163</ele>
        <time>2023-04-27T12:34:26Z</time>
      </trkpt>
      <trkpt lat="48.73866" lon="1.77552">
        <ele>163.2</ele>
        <time>2023-04-27T12:34:28Z</time>
      </trkpt>
      <trkpt lat="48.73868" lon="1.77551">
        <ele>163.2</ele>
        <time>2023-04-27T12:34:30Z</time>
      </trkpt>
      <trkpt lat="48.7387" lon="1.7755">
        <ele>163.4</ele>
        <time>2023-04-27T12:34:32Z</time>
      </trkpt>
      <trkpt lat="48.73872" lon="1.77547">
        <ele>163.4</ele>
        <time>2023-04-27T12:34:35Z</time>
      </trkpt>
      <trkpt lat="48.73872" lon="1.77544">
        <ele>163.6</ele>
        <time>2023-04-27T12:34:37Z</time>
      </trkpt>
      <trkpt lat="48.73872" lon="1.77541">
        <ele>163.8</ele>
        <time>2023-04-27T12:34:39Z</time>
      </trkpt>
      <trkpt lat="48.73873" lon="1.77537">
        <ele>164.2</ele>
        <time>2023-04-27T12:34:42Z</time>
      </trkpt>
      <trkpt lat="48.73873" lon="1.77534">
        <ele>164.4</ele>
        <time>2023-04-27T12:34:46Z</time>
      </trkpt>
      <trkpt lat="48.73875" lon="1.77532">
        <ele>164.4</ele>
        <time>2023-04-27T12:34:50Z</time>
      </trkpt>
      <trkpt lat="48.73877" lon="1.7753">
        <ele>164.4</ele>
        <time>2023-04-27T12:34:55Z</time>
      </trkpt>
      <trkpt lat="48.73878" lon="1.77528">
        <ele>164.4</ele>
        <time>2023-04-27T12:34:58Z</time>
      </trkpt>
      <trkpt lat="48.73879" lon="1.77525">
        <ele>164.4</ele>
        <time>2023-04-27T12:35:01Z</time>
      </trkpt>
      <trkpt lat="48.7388" lon="1.77522">
        <ele>164.2</ele>
        <time>2023-04-27T12:35:03Z</time>
      </trkpt>
      <trkpt lat="48.73881" lon="1.7752">
        <ele>164</ele>
        <time>2023-04-27T12:35:07Z</time>
      </trkpt>
      <trkpt lat="48.73882" lon="1.77518">
        <ele>163.8</ele>
        <time>2023-04-27T12:35:11Z</time>
      </trkpt>
      <trkpt lat="48.73885" lon="1.77517">
        <ele>163.6</ele>
        <time>2023-04-27T12:35:14Z</time>
      </trkpt>
      <trkpt lat="48.73888" lon="1.77516">
        <ele>163.4</ele>
        <time>2023-04-27T12:35:16Z</time>
      </trkpt>
      <trkpt lat="48.7389" lon="1.77514">
        <ele>163.2</ele>
        <time>2023-04-27T12:35:18Z</time>
      </trkpt>
      <trkpt lat="48.73892" lon="1.7751">
        <ele>162.8</ele>
        <time>2023-04-27T12:35:20Z</time>
      </trkpt>
      <trkpt lat="48.73892" lon="1.77504">
        <ele>162.6</ele>
        <time>2023-04-27T12:35:22Z</time>
      </trkpt>
      <trkpt lat="48.73893" lon="1.77502">
        <ele>162.4</ele>
        <time>2023-04-27T12:35:23Z</time>
      </trkpt>
      <trkpt lat="48.73893" lon="1.77499">
        <ele>162.4</ele>
        <time>2023-04-27T12:35:24Z</time>
      </trkpt>
      <trkpt lat="48.73892" lon="1.77496">
        <ele>162.2</ele>
        <time>2023-04-27T12:35:25Z</time>
      </trkpt>
      <trkpt lat="48.73892" lon="1.77491">
        <ele>162</ele>
        <time>2023-04-27T12:35:27Z</time>
      </trkpt>
      <trkpt lat="48.73891" lon="1.77488">
        <ele>161.8</ele>
        <time>2023-04-27T12:35:29Z</time>
      </trkpt>
      <trkpt lat="48.73889" lon="1.77485">
        <ele>162</ele>
        <time>2023-04-27T12:35:32Z</time>
      </trkpt>
      <trkpt lat="48.73887" lon="1.77483">
        <ele>161.8</ele>
        <time>2023-04-27T12:35:34Z</time>
      </trkpt>
      <trkpt lat="48.73885" lon="1.7748">
        <ele>161.8</ele>
        <time>2023-04-27T12:35:36Z</time>
      </trkpt>
      <trkpt lat="48.73884" lon="1.77479">
        <ele>161.8</ele>
        <time>2023-04-27T12:35:38Z</time>
      </trkpt>
      <trkpt lat="48.73882" lon="1.77476">
        <ele>161.8</ele>
        <time>2023-04-27T12:35:40Z</time>
      </trkpt>
      <trkpt lat="48.73879" lon="1.77473">
        <ele>161.6</ele>
        <time>2023-04-27T12:35:42Z</time>
      </trkpt>
      <trkpt lat="48.73878" lon="1.77469">
        <ele>161.4</ele>
        <time>2023-04-27T12:35:44Z</time>
      </trkpt>
      <trkpt lat="48.73876" lon="1.77466">
        <ele>161.2</ele>
        <time>2023-04-27T12:35:46Z</time>
      </trkpt>
      <trkpt lat="48.73876" lon="1.77463">
        <ele>160.8</ele>
        <time>2023-04-27T12:35:48Z</time>
      </trkpt>
      <trkpt lat="48.73875" lon="1.7746">
        <ele>160.6</ele>
        <time>2023-04-27T12:35:50Z</time>
      </trkpt>
      <trkpt lat="48.73874" lon="1.77457">
        <ele>160.6</ele>
        <time>2023-04-27T12:35:52Z</time>
      </trkpt>
      <trkpt lat="48.73872" lon="1.77455">
        <ele>160.4</ele>
        <time>2023-04-27T12:35:54Z</time>
      </trkpt>
      <trkpt lat="48.7387" lon="1.77453">
        <ele>160.2</ele>
        <time>2023-04-27T12:35:56Z</time>
      </trkpt>
      <trkpt lat="48.73868" lon="1.77451">
        <ele>160</ele>
        <time>2023-04-27T12:35:58Z</time>
      </trkpt>
      <trkpt lat="48.73866" lon="1.7745">
        <ele>159.8</ele>
        <time>2023-04-27T12:36:01Z</time>
      </trkpt>
      <trkpt lat="48.73866" lon="1.77448">
        <ele>159.2</ele>
        <time>2023-04-27T12:36:13Z</time>
      </trkpt>
      <trkpt lat="48.73868" lon="1.77446">
        <ele>159</ele>
        <time>2023-04-27T12:36:19Z</time>
      </trkpt>
      <trkpt lat="48.73868" lon="1.77443">
        <ele>159</ele>
        <time>2023-04-27T12:36:22Z</time>
      </trkpt>
      <trkpt lat="48.73868" lon="1.7744">
        <ele>159</ele>
        <time>2023-04-27T12:36:24Z</time>
      </trkpt>
      <trkpt lat="48.73867" lon="1.77437">
        <ele>159</ele>
        <time>2023-04-27T12:36:26Z</time>
      </trkpt>
      <trkpt lat="48.73865" lon="1.77434">
        <ele>159.2</ele>
        <time>2023-04-27T12:36:28Z</time>
      </trkpt>
      <trkpt lat="48.73863" lon="1.77431">
        <ele>159.2</ele>
        <time>2023-04-27T12:36:30Z</time>
      </trkpt>
      <trkpt lat="48.73862" lon="1.7743">
        <ele>159.2</ele>
        <time>2023-04-27T12:36:31Z</time>
      </trkpt>
      <trkpt lat="48.7386" lon="1.77427">
        <ele>159.4</ele>
        <time>2023-04-27T12:36:33Z</time>
      </trkpt>
      <trkpt lat="48.73857" lon="1.77424">
        <ele>159.4</ele>
        <time>2023-04-27T12:36:35Z</time>
      </trkpt>
      <trkpt lat="48.73855" lon="1.77421">
        <ele>159.4</ele>
        <time>2023-04-27T12:36:37Z</time>
      </trkpt>
      <trkpt lat="48.73853" lon="1.77418">
        <ele>159.4</ele>
        <time>2023-04-27T12:36:39Z</time>
      </trkpt>
      <trkpt lat="48.73852" lon="1.77415">
        <ele>159.6</ele>
        <time>2023-04-27T12:36:41Z</time>
      </trkpt>
      <trkpt lat="48.7385" lon="1.77412">
        <ele>159.6</ele>
        <time>2023-04-27T12:36:43Z</time>
      </trkpt>
      <trkpt lat="48.73849" lon="1.77409">
        <ele>159.8</ele>
        <time>2023-04-27T12:36:45Z</time>
      </trkpt>
      <trkpt lat="48.73848" lon="1.77407">
        <ele>159.8</ele>
        <time>2023-04-27T12:36:47Z</time>
      </trkpt>
      <trkpt lat="48.73846" lon="1.77405">
        <ele>159.8</ele>
        <time>2023-04-27T12:36:49Z</time>
      </trkpt>
      <trkpt lat="48.73844" lon="1.77402">
        <ele>160</ele>
        <time>2023-04-27T12:36:51Z</time>
      </trkpt>
      <trkpt lat="48.73842" lon="1.77399">
        <ele>160</ele>
        <time>2023-04-27T12:36:53Z</time>
      </trkpt>
      <trkpt lat="48.7384" lon="1.77397">
        <ele>160</ele>
        <time>2023-04-27T12:36:55Z</time>
      </trkpt>
      <trkpt lat="48.73838" lon="1.77395">
        <ele>160</ele>
        <time>2023-04-27T12:36:57Z</time>
      </trkpt>
      <trkpt lat="48.73836" lon="1.77393">
        <ele>160</ele>
        <time>2023-04-27T12:36:59Z</time>
      </trkpt>
      <trkpt lat="48.73835" lon="1.7739">
        <ele>160</ele>
        <time>2023-04-27T12:37:01Z</time>
      </trkpt>
      <trkpt lat="48.73834" lon="1.77387">
        <ele>160</ele>
        <time>2023-04-27T12:37:03Z</time>
      </trkpt>
      <trkpt lat="48.73833" lon="1.77382">
        <ele>159.8</ele>
        <time>2023-04-27T12:37:05Z</time>
      </trkpt>
      <trkpt lat="48.73832" lon="1.77378">
        <ele>159.6</ele>
        <time>2023-04-27T12:37:07Z</time>
      </trkpt>
      <trkpt lat="48.73833" lon="1.77374">
        <ele>159.6</ele>
        <time>2023-04-27T12:37:09Z</time>
      </trkpt>
      <trkpt lat="48.73834" lon="1.77371">
        <ele>159.8</ele>
        <time>2023-04-27T12:37:11Z</time>
      </trkpt>
      <trkpt lat="48.73834" lon="1.77368">
        <ele>159.8</ele>
        <time>2023-04-27T12:37:13Z</time>
      </trkpt>
      <trkpt lat="48.73835" lon="1.77364">
        <ele>159.8</ele>
        <time>2023-04-27T12:37:15Z</time>
      </trkpt>
      <trkpt lat="48.73836" lon="1.77361">
        <ele>159.8</ele>
        <time>2023-04-27T12:37:17Z</time>
      </trkpt>
      <trkpt lat="48.73838" lon="1.77357">
        <ele>159.8</ele>
        <time>2023-04-27T12:37:19Z</time>
      </trkpt>
      <trkpt lat="48.73841" lon="1.77354">
        <ele>159.8</ele>
        <time>2023-04-27T12:37:21Z</time>
      </trkpt>
      <trkpt lat="48.73842" lon="1.77352">
        <ele>159.8</ele>
        <time>2023-04-27T12:37:22Z</time>
      </trkpt>
      <trkpt lat="48.73844" lon="1.77348">
        <ele>159.6</ele>
        <time>2023-04-27T12:37:24Z</time>
      </trkpt>
      <trkpt lat="48.73845" lon="1.77343">
        <ele>159.6</ele>
        <time>2023-04-27T12:37:26Z</time>
      </trkpt>
      <trkpt lat="48.73847" lon="1.77338">
        <ele>159.4</ele>
        <time>2023-04-27T12:37:28Z</time>
      </trkpt>
      <trkpt lat="48.73848" lon="1.77334">
        <ele>159.4</ele>
        <time>2023-04-27T12:37:30Z</time>
      </trkpt>
      <trkpt lat="48.73849" lon="1.7733">
        <ele>159.4</ele>
        <time>2023-04-27T12:37:32Z</time>
      </trkpt>
      <trkpt lat="48.7385" lon="1.77326">
        <ele>159.4</ele>
        <time>2023-04-27T12:37:34Z</time>
      </trkpt>
      <trkpt lat="48.73852" lon="1.77322">
        <ele>159.4</ele>
        <time>2023-04-27T12:37:36Z</time>
      </trkpt>
      <trkpt lat="48.73854" lon="1.77318">
        <ele>159.4</ele>
        <time>2023-04-27T12:37:38Z</time>
      </trkpt>
      <trkpt lat="48.73855" lon="1.77313">
        <ele>159.4</ele>
        <time>2023-04-27T12:37:40Z</time>
      </trkpt>
      <trkpt lat="48.73856" lon="1.77309">
        <ele>159.2</ele>
        <time>2023-04-27T12:37:42Z</time>
      </trkpt>
      <trkpt lat="48.73858" lon="1.77305">
        <ele>159.2</ele>
        <time>2023-04-27T12:37:44Z</time>
      </trkpt>
      <trkpt lat="48.7386" lon="1.77302">
        <ele>159</ele>
        <time>2023-04-27T12:37:46Z</time>
      </trkpt>
      <trkpt lat="48.73862" lon="1.773">
        <ele>159</ele>
        <time>2023-04-27T12:37:48Z</time>
      </trkpt>
      <trkpt lat="48.73864" lon="1.77298">
        <ele>158.8</ele>
        <time>2023-04-27T12:37:50Z</time>
      </trkpt>
      <trkpt lat="48.73866" lon="1.77295">
        <ele>158.8</ele>
        <time>2023-04-27T12:37:52Z</time>
      </trkpt>
      <trkpt lat="48.73867" lon="1.77293">
        <ele>158.8</ele>
        <time>2023-04-27T12:37:54Z</time>
      </trkpt>
      <trkpt lat="48.73868" lon="1.7729">
        <ele>158.6</ele>
        <time>2023-04-27T12:37:56Z</time>
      </trkpt>
      <trkpt lat="48.7387" lon="1.77287">
        <ele>158.6</ele>
        <time>2023-04-27T12:37:58Z</time>
      </trkpt>
      <trkpt lat="48.73871" lon="1.77283">
        <ele>158.6</ele>
        <time>2023-04-27T12:38:00Z</time>
      </trkpt>
      <trkpt lat="48.73872" lon="1.77279">
        <ele>158.4</ele>
        <time>2023-04-27T12:38:02Z</time>
      </trkpt>
      <trkpt lat="48.73873" lon="1.77276">
        <ele>158.4</ele>
        <time>2023-04-27T12:38:04Z</time>
      </trkpt>
      <trkpt lat="48.73874" lon="1.77273">
        <ele>158.4</ele>
        <time>2023-04-27T12:38:06Z</time>
      </trkpt>
      <trkpt lat="48.73876" lon="1.77269">
        <ele>158.4</ele>
        <time>2023-04-27T12:38:08Z</time>
      </trkpt>
      <trkpt lat="48.73878" lon="1.77266">
        <ele>158</ele>
        <time>2023-04-27T12:38:10Z</time>
      </trkpt>
      <trkpt lat="48.7388" lon="1.77264">
        <ele>157.8</ele>
        <time>2023-04-27T12:38:12Z</time>
      </trkpt>
      <trkpt lat="48.73882" lon="1.7726">
        <ele>157.6</ele>
        <time>2023-04-27T12:38:14Z</time>
      </trkpt>
      <trkpt lat="48.73884" lon="1.77257">
        <ele>157.4</ele>
        <time>2023-04-27T12:38:16Z</time>
      </trkpt>
      <trkpt lat="48.73886" lon="1.77253">
        <ele>157.2</ele>
        <time>2023-04-27T12:38:18Z</time>
      </trkpt>
      <trkpt lat="48.73888" lon="1.7725">
        <ele>157</ele>
        <time>2023-04-27T12:38:20Z</time>
      </trkpt>
      <trkpt lat="48.7389" lon="1.77248">
        <ele>157</ele>
        <time>2023-04-27T12:38:22Z</time>
      </trkpt>
      <trkpt lat="48.73892" lon="1.77245">
        <ele>156.8</ele>
        <time>2023-04-27T12:38:24Z</time>
      </trkpt>
      <trkpt lat="48.73894" lon="1.77242">
        <ele>156.8</ele>
        <time>2023-04-27T12:38:26Z</time>
      </trkpt>
      <trkpt lat="48.73896" lon="1.77238">
        <ele>156.8</ele>
        <time>2023-04-27T12:38:28Z</time>
      </trkpt>
      <trkpt lat="48.73899" lon="1.77235">
        <ele>156.8</ele>
        <time>2023-04-27T12:38:30Z</time>
      </trkpt>
      <trkpt lat="48.739" lon="1.77233">
        <ele>156.6</ele>
        <time>2023-04-27T12:38:32Z</time>
      </trkpt>
      <trkpt lat="48.73903" lon="1.77232">
        <ele>156.6</ele>
        <time>2023-04-27T12:38:34Z</time>
      </trkpt>
      <trkpt lat="48.73906" lon="1.77232">
        <ele>156.6</ele>
        <time>2023-04-27T12:38:36Z</time>
      </trkpt>
      <trkpt lat="48.73908" lon="1.77232">
        <ele>156.6</ele>
        <time>2023-04-27T12:38:38Z</time>
      </trkpt>
      <trkpt lat="48.7391" lon="1.7723">
        <ele>156.2</ele>
        <time>2023-04-27T12:38:41Z</time>
      </trkpt>
      <trkpt lat="48.73913" lon="1.77228">
        <ele>156</ele>
        <time>2023-04-27T12:38:43Z</time>
      </trkpt>
      <trkpt lat="48.73916" lon="1.77227">
        <ele>155.8</ele>
        <time>2023-04-27T12:38:45Z</time>
      </trkpt>
      <trkpt lat="48.7392" lon="1.77225">
        <ele>155.6</ele>
        <time>2023-04-27T12:38:47Z</time>
      </trkpt>
      <trkpt lat="48.73923" lon="1.77224">
        <ele>155.4</ele>
        <time>2023-04-27T12:38:49Z</time>
      </trkpt>
      <trkpt lat="48.73926" lon="1.77223">
        <ele>155.2</ele>
        <time>2023-04-27T12:38:51Z</time>
      </trkpt>
      <trkpt lat="48.73929" lon="1.77223">
        <ele>155</ele>
        <time>2023-04-27T12:38:53Z</time>
      </trkpt>
      <trkpt lat="48.73932" lon="1.77222">
        <ele>155</ele>
        <time>2023-04-27T12:38:55Z</time>
      </trkpt>
      <trkpt lat="48.73934" lon="1.77221">
        <ele>154.8</ele>
        <time>2023-04-27T12:38:57Z</time>
      </trkpt>
      <trkpt lat="48.73937" lon="1.77219">
        <ele>154.8</ele>
        <time>2023-04-27T12:38:59Z</time>
      </trkpt>
      <trkpt lat="48.73941" lon="1.77218">
        <ele>154.6</ele>
        <time>2023-04-27T12:39:01Z</time>
      </trkpt>
      <trkpt lat="48.73943" lon="1.77217">
        <ele>154.6</ele>
        <time>2023-04-27T12:39:02Z</time>
      </trkpt>
      <trkpt lat="48.73946" lon="1.77215">
        <ele>154.6</ele>
        <time>2023-04-27T12:39:04Z</time>
      </trkpt>
      <trkpt lat="48.73949" lon="1.77214">
        <ele>154.6</ele>
        <time>2023-04-27T12:39:06Z</time>
      </trkpt>
      <trkpt lat="48.73952" lon="1.77212">
        <ele>154.6</ele>
        <time>2023-04-27T12:39:08Z</time>
      </trkpt>
      <trkpt lat="48.73955" lon="1.77211">
        <ele>154.6</ele>
        <time>2023-04-27T12:39:10Z</time>
      </trkpt>
      <trkpt lat="48.73958" lon="1.77209">
        <ele>154.6</ele>
        <time>2023-04-27T12:39:12Z</time>
      </trkpt>
      <trkpt lat="48.73961" lon="1.77208">
        <ele>154.8</ele>
        <time>2023-04-27T12:39:14Z</time>
      </trkpt>
      <trkpt lat="48.73963" lon="1.77206">
        <ele>154.8</ele>
        <time>2023-04-27T12:39:16Z</time>
      </trkpt>
      <trkpt lat="48.73965" lon="1.77204">
        <ele>155</ele>
        <time>2023-04-27T12:39:18Z</time>
      </trkpt>
      <trkpt lat="48.73967" lon="1.77203">
        <ele>154.8</ele>
        <time>2023-04-27T12:39:20Z</time>
      </trkpt>
      <trkpt lat="48.7397" lon="1.77201">
        <ele>154.8</ele>
        <time>2023-04-27T12:39:22Z</time>
      </trkpt>
      <trkpt lat="48.73972" lon="1.772">
        <ele>154.8</ele>
        <time>2023-04-27T12:39:23Z</time>
      </trkpt>
      <trkpt lat="48.73973" lon="1.77199">
        <ele>154.8</ele>
        <time>2023-04-27T12:39:24Z</time>
      </trkpt>
      <trkpt lat="48.73975" lon="1.77197">
        <ele>154.8</ele>
        <time>2023-04-27T12:39:25Z</time>
      </trkpt>
      <trkpt lat="48.73977" lon="1.77195">
        <ele>154.6</ele>
        <time>2023-04-27T12:39:26Z</time>
      </trkpt>
      <trkpt lat="48.7398" lon="1.77192">
        <ele>154.6</ele>
        <time>2023-04-27T12:39:27Z</time>
      </trkpt>
      <trkpt lat="48.73983" lon="1.77189">
        <ele>154.6</ele>
        <time>2023-04-27T12:39:28Z</time>
      </trkpt>
      <trkpt lat="48.73985" lon="1.77186">
        <ele>154.6</ele>
        <time>2023-04-27T12:39:29Z</time>
      </trkpt>
      <trkpt lat="48.73989" lon="1.77181">
        <ele>154.6</ele>
        <time>2023-04-27T12:39:30Z</time>
      </trkpt>
      <trkpt lat="48.73992" lon="1.77176">
        <ele>154.6</ele>
        <time>2023-04-27T12:39:31Z</time>
      </trkpt>
      <trkpt lat="48.73996" lon="1.77171">
        <ele>154.4</ele>
        <time>2023-04-27T12:39:32Z</time>
      </trkpt>
      <trkpt lat="48.73999" lon="1.77166">
        <ele>154.4</ele>
        <time>2023-04-27T12:39:33Z</time>
      </trkpt>
      <trkpt lat="48.74003" lon="1.7716">
        <ele>154.4</ele>
        <time>2023-04-27T12:39:34Z</time>
      </trkpt>
      <trkpt lat="48.74006" lon="1.77155">
        <ele>154.4</ele>
        <time>2023-04-27T12:39:35Z</time>
      </trkpt>
      <trkpt lat="48.7401" lon="1.7715">
        <ele>154.4</ele>
        <time>2023-04-27T12:39:36Z</time>
      </trkpt>
      <trkpt lat="48.74013" lon="1.77144">
        <ele>154.4</ele>
        <time>2023-04-27T12:39:37Z</time>
      </trkpt>
      <trkpt lat="48.74017" lon="1.77139">
        <ele>154.4</ele>
        <time>2023-04-27T12:39:38Z</time>
      </trkpt>
      <trkpt lat="48.74019" lon="1.77133">
        <ele>154.6</ele>
        <time>2023-04-27T12:39:39Z</time>
      </trkpt>
      <trkpt lat="48.74022" lon="1.77128">
        <ele>154.6</ele>
        <time>2023-04-27T12:39:40Z</time>
      </trkpt>
      <trkpt lat="48.74025" lon="1.77123">
        <ele>154.6</ele>
        <time>2023-04-27T12:39:41Z</time>
      </trkpt>
      <trkpt lat="48.74028" lon="1.77118">
        <ele>154.6</ele>
        <time>2023-04-27T12:39:42Z</time>
      </trkpt>
      <trkpt lat="48.7403" lon="1.77113">
        <ele>154.6</ele>
        <time>2023-04-27T12:39:43Z</time>
      </trkpt>
      <trkpt lat="48.74034" lon="1.77108">
        <ele>154.6</ele>
        <time>2023-04-27T12:39:44Z</time>
      </trkpt>
      <trkpt lat="48.74037" lon="1.77103">
        <ele>154.6</ele>
        <time>2023-04-27T12:39:45Z</time>
      </trkpt>
      <trkpt lat="48.74041" lon="1.77098">
        <ele>154.6</ele>
        <time>2023-04-27T12:39:46Z</time>
      </trkpt>
      <trkpt lat="48.74044" lon="1.77092">
        <ele>154.4</ele>
        <time>2023-04-27T12:39:47Z</time>
      </trkpt>
      <trkpt lat="48.74048" lon="1.77087">
        <ele>154.4</ele>
        <time>2023-04-27T12:39:48Z</time>
      </trkpt>
      <trkpt lat="48.74051" lon="1.77082">
        <ele>154.4</ele>
        <time>2023-04-27T12:39:49Z</time>
      </trkpt>
      <trkpt lat="48.74055" lon="1.77077">
        <ele>154.4</ele>
        <time>2023-04-27T12:39:50Z</time>
      </trkpt>
      <trkpt lat="48.74058" lon="1.77071">
        <ele>154.4</ele>
        <time>2023-04-27T12:39:51Z</time>
      </trkpt>
      <trkpt lat="48.74061" lon="1.77066">
        <ele>154.4</ele>
        <time>2023-04-27T12:39:52Z</time>
      </trkpt>
      <trkpt lat="48.74065" lon="1.7706">
        <ele>154.4</ele>
        <time>2023-04-27T12:39:53Z</time>
      </trkpt>
      <trkpt lat="48.74068" lon="1.77054">
        <ele>154.4</ele>
        <time>2023-04-27T12:39:54Z</time>
      </trkpt>
      <trkpt lat="48.74071" lon="1.77047">
        <ele>154.4</ele>
        <time>2023-04-27T12:39:55Z</time>
      </trkpt>
      <trkpt lat="48.74075" lon="1.77041">
        <ele>154.2</ele>
        <time>2023-04-27T12:39:56Z</time>
      </trkpt>
      <trkpt lat="48.74078" lon="1.77034">
        <ele>154.2</ele>
        <time>2023-04-27T12:39:57Z</time>
      </trkpt>
      <trkpt lat="48.74082" lon="1.77027">
        <ele>154.2</ele>
        <time>2023-04-27T12:39:58Z</time>
      </trkpt>
      <trkpt lat="48.74085" lon="1.77021">
        <ele>154.2</ele>
        <time>2023-04-27T12:39:59Z</time>
      </trkpt>
      <trkpt lat="48.74088" lon="1.77014">
        <ele>154.2</ele>
        <time>2023-04-27T12:40:00Z</time>
      </trkpt>
      <trkpt lat="48.74092" lon="1.77007">
        <ele>154.2</ele>
        <time>2023-04-27T12:40:01Z</time>
      </trkpt>
      <trkpt lat="48.74095" lon="1.77">
        <ele>154.2</ele>
        <time>2023-04-27T12:40:02Z</time>
      </trkpt>
      <trkpt lat="48.74098" lon="1.76992">
        <ele>154.2</ele>
        <time>2023-04-27T12:40:03Z</time>
      </trkpt>
      <trkpt lat="48.74101" lon="1.76985">
        <ele>154.2</ele>
        <time>2023-04-27T12:40:04Z</time>
      </trkpt>
      <trkpt lat="48.74104" lon="1.76978">
        <ele>154.2</ele>
        <time>2023-04-27T12:40:05Z</time>
      </trkpt>
      <trkpt lat="48.74108" lon="1.76971">
        <ele>154</ele>
        <time>2023-04-27T12:40:06Z</time>
      </trkpt>
      <trkpt lat="48.74112" lon="1.76964">
        <ele>154</ele>
        <time>2023-04-27T12:40:07Z</time>
      </trkpt>
      <trkpt lat="48.74116" lon="1.76957">
        <ele>154</ele>
        <time>2023-04-27T12:40:08Z</time>
      </trkpt>
      <trkpt lat="48.74119" lon="1.7695">
        <ele>154</ele>
        <time>2023-04-27T12:40:09Z</time>
      </trkpt>
      <trkpt lat="48.74123" lon="1.76943">
        <ele>154</ele>
        <time>2023-04-27T12:40:10Z</time>
      </trkpt>
      <trkpt lat="48.74126" lon="1.76936">
        <ele>154</ele>
        <time>2023-04-27T12:40:11Z</time>
      </trkpt>
      <trkpt lat="48.7413" lon="1.7693">
        <ele>154</ele>
        <time>2023-04-27T12:40:12Z</time>
      </trkpt>
      <trkpt lat="48.74133" lon="1.76923">
        <ele>154</ele>
        <time>2023-04-27T12:40:13Z</time>
      </trkpt>
      <trkpt lat="48.74136" lon="1.76916">
        <ele>153.8</ele>
        <time>2023-04-27T12:40:14Z</time>
      </trkpt>
      <trkpt lat="48.7414" lon="1.76909">
        <ele>153.8</ele>
        <time>2023-04-27T12:40:15Z</time>
      </trkpt>
      <trkpt lat="48.74143" lon="1.76902">
        <ele>153.8</ele>
        <time>2023-04-27T12:40:16Z</time>
      </trkpt>
      <trkpt lat="48.74146" lon="1.76895">
        <ele>153.8</ele>
        <time>2023-04-27T12:40:17Z</time>
      </trkpt>
      <trkpt lat="48.7415" lon="1.76888">
        <ele>153.6</ele>
        <time>2023-04-27T12:40:18Z</time>
      </trkpt>
      <trkpt lat="48.74153" lon="1.7688">
        <ele>153.6</ele>
        <time>2023-04-27T12:40:19Z</time>
      </trkpt>
      <trkpt lat="48.74157" lon="1.76873">
        <ele>153.4</ele>
        <time>2023-04-27T12:40:20Z</time>
      </trkpt>
      <trkpt lat="48.74161" lon="1.76865">
        <ele>153.4</ele>
        <time>2023-04-27T12:40:21Z</time>
      </trkpt>
      <trkpt lat="48.74164" lon="1.76857">
        <ele>153.2</ele>
        <time>2023-04-27T12:40:22Z</time>
      </trkpt>
      <trkpt lat="48.74168" lon="1.76849">
        <ele>153.2</ele>
        <time>2023-04-27T12:40:23Z</time>
      </trkpt>
      <trkpt lat="48.74172" lon="1.76841">
        <ele>153.2</ele>
        <time>2023-04-27T12:40:24Z</time>
      </trkpt>
      <trkpt lat="48.74176" lon="1.76833">
        <ele>153</ele>
        <time>2023-04-27T12:40:25Z</time>
      </trkpt>
      <trkpt lat="48.74179" lon="1.76825">
        <ele>153</ele>
        <time>2023-04-27T12:40:26Z</time>
      </trkpt>
      <trkpt lat="48.74182" lon="1.76817">
        <ele>152.8</ele>
        <time>2023-04-27T12:40:27Z</time>
      </trkpt>
      <trkpt lat="48.74186" lon="1.76809">
        <ele>152.8</ele>
        <time>2023-04-27T12:40:28Z</time>
      </trkpt>
      <trkpt lat="48.7419" lon="1.76801">
        <ele>152.6</ele>
        <time>2023-04-27T12:40:29Z</time>
      </trkpt>
      <trkpt lat="48.74193" lon="1.76794">
        <ele>152.4</ele>
        <time>2023-04-27T12:40:30Z</time>
      </trkpt>
      <trkpt lat="48.74196" lon="1.76786">
        <ele>152.4</ele>
        <time>2023-04-27T12:40:31Z</time>
      </trkpt>
      <trkpt lat="48.74199" lon="1.76777">
        <ele>152.4</ele>
        <time>2023-04-27T12:40:32Z</time>
      </trkpt>
      <trkpt lat="48.74201" lon="1.76769">
        <ele>152.2</ele>
        <time>2023-04-27T12:40:33Z</time>
      </trkpt>
      <trkpt lat="48.74202" lon="1.76761">
        <ele>152</ele>
        <time>2023-04-27T12:40:34Z</time>
      </trkpt>
      <trkpt lat="48.74204" lon="1.76754">
        <ele>152</ele>
        <time>2023-04-27T12:40:35Z</time>
      </trkpt>
      <trkpt lat="48.74205" lon="1.76747">
        <ele>151.8</ele>
        <time>2023-04-27T12:40:36Z</time>
      </trkpt>
      <trkpt lat="48.74206" lon="1.7674">
        <ele>151.6</ele>
        <time>2023-04-27T12:40:37Z</time>
      </trkpt>
      <trkpt lat="48.74208" lon="1.76735">
        <ele>151.6</ele>
        <time>2023-04-27T12:40:38Z</time>
      </trkpt>
      <trkpt lat="48.74208" lon="1.7673">
        <ele>151.6</ele>
        <time>2023-04-27T12:40:39Z</time>
      </trkpt>
      <trkpt lat="48.74209" lon="1.76725">
        <ele>151.4</ele>
        <time>2023-04-27T12:40:40Z</time>
      </trkpt>
      <trkpt lat="48.7421" lon="1.76721">
        <ele>151.4</ele>
        <time>2023-04-27T12:40:41Z</time>
      </trkpt>
      <trkpt lat="48.7421" lon="1.76717">
        <ele>151.4</ele>
        <time>2023-04-27T12:40:42Z</time>
      </trkpt>
      <trkpt lat="48.7421" lon="1.76713">
        <ele>151.2</ele>
        <time>2023-04-27T12:40:43Z</time>
      </trkpt>
      <trkpt lat="48.7421" lon="1.7671">
        <ele>151.2</ele>
        <time>2023-04-27T12:40:44Z</time>
      </trkpt>
      <trkpt lat="48.74211" lon="1.76707">
        <ele>151</ele>
        <time>2023-04-27T12:40:45Z</time>
      </trkpt>
      <trkpt lat="48.74212" lon="1.76704">
        <ele>151</ele>
        <time>2023-04-27T12:40:46Z</time>
      </trkpt>
      <trkpt lat="48.74213" lon="1.767">
        <ele>150.8</ele>
        <time>2023-04-27T12:40:48Z</time>
      </trkpt>
      <trkpt lat="48.74214" lon="1.76696">
        <ele>150.4</ele>
        <time>2023-04-27T12:40:50Z</time>
      </trkpt>
      <trkpt lat="48.74216" lon="1.76692">
        <ele>150.4</ele>
        <time>2023-04-27T12:40:52Z</time>
      </trkpt>
      <trkpt lat="48.74217" lon="1.76687">
        <ele>150.2</ele>
        <time>2023-04-27T12:40:54Z</time>
      </trkpt>
      <trkpt lat="48.74218" lon="1.76684">
        <ele>150</ele>
        <time>2023-04-27T12:40:55Z</time>
      </trkpt>
      <trkpt lat="48.74219" lon="1.76681">
        <ele>150</ele>
        <time>2023-04-27T12:40:56Z</time>
      </trkpt>
      <trkpt lat="48.7422" lon="1.76677">
        <ele>149.8</ele>
        <time>2023-04-27T12:40:57Z</time>
      </trkpt>
      <trkpt lat="48.74221" lon="1.76673">
        <ele>149.8</ele>
        <time>2023-04-27T12:40:58Z</time>
      </trkpt>
      <trkpt lat="48.74222" lon="1.76668">
        <ele>149.6</ele>
        <time>2023-04-27T12:40:59Z</time>
      </trkpt>
      <trkpt lat="48.74223" lon="1.76663">
        <ele>149.6</ele>
        <time>2023-04-27T12:41:00Z</time>
      </trkpt>
      <trkpt lat="48.74224" lon="1.76657">
        <ele>149.4</ele>
        <time>2023-04-27T12:41:01Z</time>
      </trkpt>
      <trkpt lat="48.74226" lon="1.76651">
        <ele>149.2</ele>
        <time>2023-04-27T12:41:02Z</time>
      </trkpt>
      <trkpt lat="48.74226" lon="1.76645">
        <ele>149.2</ele>
        <time>2023-04-27T12:41:03Z</time>
      </trkpt>
      <trkpt lat="48.74227" lon="1.76639">
        <ele>149.2</ele>
        <time>2023-04-27T12:41:04Z</time>
      </trkpt>
      <trkpt lat="48.74228" lon="1.76633">
        <ele>149</ele>
        <time>2023-04-27T12:41:05Z</time>
      </trkpt>
      <trkpt lat="48.74228" lon="1.76627">
        <ele>149</ele>
        <time>2023-04-27T12:41:06Z</time>
      </trkpt>
      <trkpt lat="48.74228" lon="1.76622">
        <ele>149</ele>
        <time>2023-04-27T12:41:07Z</time>
      </trkpt>
      <trkpt lat="48.74228" lon="1.76617">
        <ele>149</ele>
        <time>2023-04-27T12:41:08Z</time>
      </trkpt>
      <trkpt lat="48.74228" lon="1.76613">
        <ele>149</ele>
        <time>2023-04-27T12:41:09Z</time>
      </trkpt>
      <trkpt lat="48.74228" lon="1.76608">
        <ele>149</ele>
        <time>2023-04-27T12:41:10Z</time>
      </trkpt>
      <trkpt lat="48.74228" lon="1.76604">
        <ele>149</ele>
        <time>2023-04-27T12:41:11Z</time>
      </trkpt>
      <trkpt lat="48.74228" lon="1.766">
        <ele>149</ele>
        <time>2023-04-27T12:41:12Z</time>
      </trkpt>
      <trkpt lat="48.74229" lon="1.76596">
        <ele>149</ele>
        <time>2023-04-27T12:41:13Z</time>
      </trkpt>
      <trkpt lat="48.74229" lon="1.76592">
        <ele>149</ele>
        <time>2023-04-27T12:41:14Z</time>
      </trkpt>
      <trkpt lat="48.74229" lon="1.76589">
        <ele>149</ele>
        <time>2023-04-27T12:41:15Z</time>
      </trkpt>
      <trkpt lat="48.74231" lon="1.76585">
        <ele>149</ele>
        <time>2023-04-27T12:41:16Z</time>
      </trkpt>
      <trkpt lat="48.74231" lon="1.76582">
        <ele>149</ele>
        <time>2023-04-27T12:41:17Z</time>
      </trkpt>
      <trkpt lat="48.74233" lon="1.76578">
        <ele>149</ele>
        <time>2023-04-27T12:41:18Z</time>
      </trkpt>
      <trkpt lat="48.74233" lon="1.76574">
        <ele>149</ele>
        <time>2023-04-27T12:41:19Z</time>
      </trkpt>
      <trkpt lat="48.74234" lon="1.7657">
        <ele>149</ele>
        <time>2023-04-27T12:41:20Z</time>
      </trkpt>
      <trkpt lat="48.74235" lon="1.76565">
        <ele>149</ele>
        <time>2023-04-27T12:41:21Z</time>
      </trkpt>
      <trkpt lat="48.74236" lon="1.7656">
        <ele>149</ele>
        <time>2023-04-27T12:41:22Z</time>
      </trkpt>
      <trkpt lat="48.74236" lon="1.76555">
        <ele>149</ele>
        <time>2023-04-27T12:41:23Z</time>
      </trkpt>
      <trkpt lat="48.74236" lon="1.76551">
        <ele>149</ele>
        <time>2023-04-27T12:41:24Z</time>
      </trkpt>
      <trkpt lat="48.74236" lon="1.76546">
        <ele>149.2</ele>
        <time>2023-04-27T12:41:25Z</time>
      </trkpt>
      <trkpt lat="48.74236" lon="1.76543">
        <ele>149.2</ele>
        <time>2023-04-27T12:41:26Z</time>
      </trkpt>
      <trkpt lat="48.74235" lon="1.76539">
        <ele>149.4</ele>
        <time>2023-04-27T12:41:27Z</time>
      </trkpt>
      <trkpt lat="48.74234" lon="1.76536">
        <ele>149.4</ele>
        <time>2023-04-27T12:41:28Z</time>
      </trkpt>
      <trkpt lat="48.74233" lon="1.76533">
        <ele>149.6</ele>
        <time>2023-04-27T12:41:29Z</time>
      </trkpt>
      <trkpt lat="48.74231" lon="1.76529">
        <ele>149.6</ele>
        <time>2023-04-27T12:41:30Z</time>
      </trkpt>
      <trkpt lat="48.7423" lon="1.76525">
        <ele>149.8</ele>
        <time>2023-04-27T12:41:31Z</time>
      </trkpt>
      <trkpt lat="48.74228" lon="1.76522">
        <ele>150</ele>
        <time>2023-04-27T12:41:32Z</time>
      </trkpt>
      <trkpt lat="48.74227" lon="1.76518">
        <ele>150</ele>
        <time>2023-04-27T12:41:33Z</time>
      </trkpt>
      <trkpt lat="48.74225" lon="1.76515">
        <ele>150.2</ele>
        <time>2023-04-27T12:41:34Z</time>
      </trkpt>
      <trkpt lat="48.74223" lon="1.76511">
        <ele>150.4</ele>
        <time>2023-04-27T12:41:35Z</time>
      </trkpt>
      <trkpt lat="48.74221" lon="1.76508">
        <ele>150.4</ele>
        <time>2023-04-27T12:41:36Z</time>
      </trkpt>
      <trkpt lat="48.74219" lon="1.76504">
        <ele>150.6</ele>
        <time>2023-04-27T12:41:37Z</time>
      </trkpt>
      <trkpt lat="48.74218" lon="1.765">
        <ele>150.6</ele>
        <time>2023-04-27T12:41:38Z</time>
      </trkpt>
      <trkpt lat="48.74216" lon="1.76496">
        <ele>150.6</ele>
        <time>2023-04-27T12:41:39Z</time>
      </trkpt>
      <trkpt lat="48.74214" lon="1.76492">
        <ele>150.6</ele>
        <time>2023-04-27T12:41:40Z</time>
      </trkpt>
      <trkpt lat="48.74213" lon="1.76488">
        <ele>150.4</ele>
        <time>2023-04-27T12:41:41Z</time>
      </trkpt>
      <trkpt lat="48.74213" lon="1.76484">
        <ele>150.4</ele>
        <time>2023-04-27T12:41:42Z</time>
      </trkpt>
      <trkpt lat="48.74212" lon="1.76481">
        <ele>150.2</ele>
        <time>2023-04-27T12:41:43Z</time>
      </trkpt>
      <trkpt lat="48.74212" lon="1.76476">
        <ele>150.2</ele>
        <time>2023-04-27T12:41:44Z</time>
      </trkpt>
      <trkpt lat="48.74211" lon="1.76472">
        <ele>150</ele>
        <time>2023-04-27T12:41:45Z</time>
      </trkpt>
      <trkpt lat="48.7421" lon="1.76467">
        <ele>150</ele>
        <time>2023-04-27T12:41:46Z</time>
      </trkpt>
      <trkpt lat="48.7421" lon="1.76462">
        <ele>150</ele>
        <time>2023-04-27T12:41:47Z</time>
      </trkpt>
      <trkpt lat="48.74209" lon="1.76456">
        <ele>149.8</ele>
        <time>2023-04-27T12:41:48Z</time>
      </trkpt>
      <trkpt lat="48.74209" lon="1.76451">
        <ele>149.8</ele>
        <time>2023-04-27T12:41:49Z</time>
      </trkpt>
      <trkpt lat="48.74209" lon="1.76446">
        <ele>149.6</ele>
        <time>2023-04-27T12:41:50Z</time>
      </trkpt>
      <trkpt lat="48.7421" lon="1.76441">
        <ele>149.4</ele>
        <time>2023-04-27T12:41:51Z</time>
      </trkpt>
      <trkpt lat="48.7421" lon="1.76436">
        <ele>149.4</ele>
        <time>2023-04-27T12:41:52Z</time>
      </trkpt>
      <trkpt lat="48.74211" lon="1.76431">
        <ele>149.4</ele>
        <time>2023-04-27T12:41:53Z</time>
      </trkpt>
      <trkpt lat="48.74212" lon="1.76425">
        <ele>149.4</ele>
        <time>2023-04-27T12:41:54Z</time>
      </trkpt>
      <trkpt lat="48.74213" lon="1.7642">
        <ele>149.4</ele>
        <time>2023-04-27T12:41:55Z</time>
      </trkpt>
      <trkpt lat="48.74214" lon="1.76415">
        <ele>149.4</ele>
        <time>2023-04-27T12:41:56Z</time>
      </trkpt>
      <trkpt lat="48.74215" lon="1.76411">
        <ele>149.4</ele>
        <time>2023-04-27T12:41:57Z</time>
      </trkpt>
      <trkpt lat="48.74216" lon="1.76406">
        <ele>149.4</ele>
        <time>2023-04-27T12:41:58Z</time>
      </trkpt>
      <trkpt lat="48.74217" lon="1.76403">
        <ele>149.4</ele>
        <time>2023-04-27T12:41:59Z</time>
      </trkpt>
      <trkpt lat="48.74218" lon="1.764">
        <ele>149.6</ele>
        <time>2023-04-27T12:42:00Z</time>
      </trkpt>
      <trkpt lat="48.74218" lon="1.76395">
        <ele>149.6</ele>
        <time>2023-04-27T12:42:02Z</time>
      </trkpt>
      <trkpt lat="48.74217" lon="1.76392">
        <ele>149.8</ele>
        <time>2023-04-27T12:42:04Z</time>
      </trkpt>
      <trkpt lat="48.74215" lon="1.7639">
        <ele>150</ele>
        <time>2023-04-27T12:42:06Z</time>
      </trkpt>
      <trkpt lat="48.74214" lon="1.76388">
        <ele>150.2</ele>
        <time>2023-04-27T12:42:08Z</time>
      </trkpt>
      <trkpt lat="48.74212" lon="1.76386">
        <ele>150.4</ele>
        <time>2023-04-27T12:42:10Z</time>
      </trkpt>
      <trkpt lat="48.7421" lon="1.76383">
        <ele>150.6</ele>
        <time>2023-04-27T12:42:12Z</time>
      </trkpt>
      <trkpt lat="48.74207" lon="1.76381">
        <ele>150.8</ele>
        <time>2023-04-27T12:42:14Z</time>
      </trkpt>
      <trkpt lat="48.74204" lon="1.7638">
        <ele>151.2</ele>
        <time>2023-04-27T12:42:16Z</time>
      </trkpt>
      <trkpt lat="48.74202" lon="1.7638">
        <ele>151.4</ele>
        <time>2023-04-27T12:42:18Z</time>
      </trkpt>
      <trkpt lat="48.742" lon="1.76379">
        <ele>151.6</ele>
        <time>2023-04-27T12:42:20Z</time>
      </trkpt>
      <trkpt lat="48.74197" lon="1.76378">
        <ele>151.8</ele>
        <time>2023-04-27T12:42:22Z</time>
      </trkpt>
      <trkpt lat="48.74195" lon="1.76376">
        <ele>152.2</ele>
        <time>2023-04-27T12:42:24Z</time>
      </trkpt>
      <trkpt lat="48.74192" lon="1.76374">
        <ele>152.6</ele>
        <time>2023-04-27T12:42:26Z</time>
      </trkpt>
      <trkpt lat="48.74188" lon="1.76373">
        <ele>153</ele>
        <time>2023-04-27T12:42:28Z</time>
      </trkpt>
      <trkpt lat="48.74186" lon="1.76372">
        <ele>153.2</ele>
        <time>2023-04-27T12:42:29Z</time>
      </trkpt>
      <trkpt lat="48.74184" lon="1.76372">
        <ele>153.4</ele>
        <time>2023-04-27T12:42:30Z</time>
      </trkpt>
      <trkpt lat="48.74182" lon="1.76372">
        <ele>153.6</ele>
        <time>2023-04-27T12:42:31Z</time>
      </trkpt>
      <trkpt lat="48.7418" lon="1.76372">
        <ele>153.6</ele>
        <time>2023-04-27T12:42:32Z</time>
      </trkpt>
      <trkpt lat="48.74178" lon="1.76372">
        <ele>153.8</ele>
        <time>2023-04-27T12:42:33Z</time>
      </trkpt>
      <trkpt lat="48.74176" lon="1.76372">
        <ele>153.8</ele>
        <time>2023-04-27T12:42:34Z</time>
      </trkpt>
      <trkpt lat="48.74173" lon="1.76371">
        <ele>154.2</ele>
        <time>2023-04-27T12:42:36Z</time>
      </trkpt>
      <trkpt lat="48.74171" lon="1.76369">
        <ele>154.4</ele>
        <time>2023-04-27T12:42:38Z</time>
      </trkpt>
      <trkpt lat="48.74168" lon="1.76367">
        <ele>154.8</ele>
        <time>2023-04-27T12:42:41Z</time>
      </trkpt>
      <trkpt lat="48.74166" lon="1.76365">
        <ele>155.2</ele>
        <time>2023-04-27T12:42:43Z</time>
      </trkpt>
      <trkpt lat="48.74164" lon="1.76363">
        <ele>155.6</ele>
        <time>2023-04-27T12:42:45Z</time>
      </trkpt>
      <trkpt lat="48.7416" lon="1.76362">
        <ele>156.4</ele>
        <time>2023-04-27T12:42:47Z</time>
      </trkpt>
      <trkpt lat="48.74158" lon="1.76362">
        <ele>156.6</ele>
        <time>2023-04-27T12:42:48Z</time>
      </trkpt>
      <trkpt lat="48.74156" lon="1.76361">
        <ele>157</ele>
        <time>2023-04-27T12:42:49Z</time>
      </trkpt>
      <trkpt lat="48.74154" lon="1.76361">
        <ele>157.4</ele>
        <time>2023-04-27T12:42:50Z</time>
      </trkpt>
      <trkpt lat="48.74152" lon="1.76361">
        <ele>157.8</ele>
        <time>2023-04-27T12:42:51Z</time>
      </trkpt>
      <trkpt lat="48.7415" lon="1.76361">
        <ele>158</ele>
        <time>2023-04-27T12:42:52Z</time>
      </trkpt>
      <trkpt lat="48.74146" lon="1.76362">
        <ele>158.8</ele>
        <time>2023-04-27T12:42:54Z</time>
      </trkpt>
      <trkpt lat="48.74144" lon="1.76363">
        <ele>159.4</ele>
        <time>2023-04-27T12:42:56Z</time>
      </trkpt>
      <trkpt lat="48.74142" lon="1.76364">
        <ele>160</ele>
        <time>2023-04-27T12:42:58Z</time>
      </trkpt>
      <trkpt lat="48.7414" lon="1.76364">
        <ele>160.6</ele>
        <time>2023-04-27T12:43:00Z</time>
      </trkpt>
      <trkpt lat="48.74137" lon="1.76365">
        <ele>161.2</ele>
        <time>2023-04-27T12:43:02Z</time>
      </trkpt>
      <trkpt lat="48.74134" lon="1.76364">
        <ele>161.6</ele>
        <time>2023-04-27T12:43:04Z</time>
      </trkpt>
      <trkpt lat="48.74132" lon="1.76364">
        <ele>161.8</ele>
        <time>2023-04-27T12:43:05Z</time>
      </trkpt>
      <trkpt lat="48.74128" lon="1.76363">
        <ele>162.4</ele>
        <time>2023-04-27T12:43:07Z</time>
      </trkpt>
      <trkpt lat="48.74126" lon="1.76363">
        <ele>162.6</ele>
        <time>2023-04-27T12:43:08Z</time>
      </trkpt>
      <trkpt lat="48.74124" lon="1.76362">
        <ele>163.2</ele>
        <time>2023-04-27T12:43:10Z</time>
      </trkpt>
      <trkpt lat="48.74121" lon="1.76361">
        <ele>163.8</ele>
        <time>2023-04-27T12:43:12Z</time>
      </trkpt>
      <trkpt lat="48.74119" lon="1.7636">
        <ele>164.4</ele>
        <time>2023-04-27T12:43:14Z</time>
      </trkpt>
      <trkpt lat="48.74116" lon="1.7636">
        <ele>165.2</ele>
        <time>2023-04-27T12:43:16Z</time>
      </trkpt>
      <trkpt lat="48.74114" lon="1.76361">
        <ele>165.8</ele>
        <time>2023-04-27T12:43:18Z</time>
      </trkpt>
      <trkpt lat="48.7411" lon="1.76361">
        <ele>166.2</ele>
        <time>2023-04-27T12:43:20Z</time>
      </trkpt>
      <trkpt lat="48.74108" lon="1.76362">
        <ele>166.8</ele>
        <time>2023-04-27T12:43:22Z</time>
      </trkpt>
      <trkpt lat="48.74104" lon="1.76363">
        <ele>167.2</ele>
        <time>2023-04-27T12:43:24Z</time>
      </trkpt>
      <trkpt lat="48.74101" lon="1.76363">
        <ele>167.8</ele>
        <time>2023-04-27T12:43:26Z</time>
      </trkpt>
      <trkpt lat="48.74098" lon="1.76363">
        <ele>168.4</ele>
        <time>2023-04-27T12:43:28Z</time>
      </trkpt>
      <trkpt lat="48.74096" lon="1.76363">
        <ele>168.6</ele>
        <time>2023-04-27T12:43:29Z</time>
      </trkpt>
      <trkpt lat="48.74092" lon="1.76363">
        <ele>169.2</ele>
        <time>2023-04-27T12:43:31Z</time>
      </trkpt>
      <trkpt lat="48.74089" lon="1.76362">
        <ele>169.6</ele>
        <time>2023-04-27T12:43:33Z</time>
      </trkpt>
      <trkpt lat="48.74087" lon="1.7636">
        <ele>170</ele>
        <time>2023-04-27T12:43:35Z</time>
      </trkpt>
      <trkpt lat="48.74084" lon="1.76358">
        <ele>170.4</ele>
        <time>2023-04-27T12:43:37Z</time>
      </trkpt>
      <trkpt lat="48.74081" lon="1.76357">
        <ele>170.8</ele>
        <time>2023-04-27T12:43:39Z</time>
      </trkpt>
      <trkpt lat="48.74079" lon="1.76357">
        <ele>171.2</ele>
        <time>2023-04-27T12:43:40Z</time>
      </trkpt>
      <trkpt lat="48.74077" lon="1.76358">
        <ele>171.4</ele>
        <time>2023-04-27T12:43:41Z</time>
      </trkpt>
      <trkpt lat="48.74075" lon="1.76359">
        <ele>171.8</ele>
        <time>2023-04-27T12:43:43Z</time>
      </trkpt>
      <trkpt lat="48.74073" lon="1.7636">
        <ele>172.2</ele>
        <time>2023-04-27T12:43:45Z</time>
      </trkpt>
      <trkpt lat="48.7407" lon="1.76359">
        <ele>172.6</ele>
        <time>2023-04-27T12:43:48Z</time>
      </trkpt>
      <trkpt lat="48.74067" lon="1.76359">
        <ele>173</ele>
        <time>2023-04-27T12:43:50Z</time>
      </trkpt>
      <trkpt lat="48.74065" lon="1.76359">
        <ele>173.2</ele>
        <time>2023-04-27T12:43:52Z</time>
      </trkpt>
      <trkpt lat="48.74063" lon="1.76358">
        <ele>173.4</ele>
        <time>2023-04-27T12:43:54Z</time>
      </trkpt>
      <trkpt lat="48.74061" lon="1.76358">
        <ele>173.6</ele>
        <time>2023-04-27T12:43:56Z</time>
      </trkpt>
      <trkpt lat="48.74059" lon="1.76358">
        <ele>174</ele>
        <time>2023-04-27T12:43:58Z</time>
      </trkpt>
      <trkpt lat="48.74056" lon="1.76359">
        <ele>174.2</ele>
        <time>2023-04-27T12:44:00Z</time>
      </trkpt>
      <trkpt lat="48.74053" lon="1.7636">
        <ele>174.2</ele>
        <time>2023-04-27T12:44:02Z</time>
      </trkpt>
      <trkpt lat="48.74051" lon="1.76361">
        <ele>174.2</ele>
        <time>2023-04-27T12:44:04Z</time>
      </trkpt>
      <trkpt lat="48.74048" lon="1.76362">
        <ele>174.2</ele>
        <time>2023-04-27T12:44:06Z</time>
      </trkpt>
      <trkpt lat="48.74044" lon="1.76362">
        <ele>174.4</ele>
        <time>2023-04-27T12:44:08Z</time>
      </trkpt>
      <trkpt lat="48.74043" lon="1.76363">
        <ele>174.6</ele>
        <time>2023-04-27T12:44:09Z</time>
      </trkpt>
      <trkpt lat="48.74041" lon="1.76363">
        <ele>174.6</ele>
        <time>2023-04-27T12:44:10Z</time>
      </trkpt>
      <trkpt lat="48.74039" lon="1.76363">
        <ele>174.8</ele>
        <time>2023-04-27T12:44:11Z</time>
      </trkpt>
      <trkpt lat="48.74037" lon="1.76364">
        <ele>174.8</ele>
        <time>2023-04-27T12:44:12Z</time>
      </trkpt>
      <trkpt lat="48.74035" lon="1.76364">
        <ele>175</ele>
        <time>2023-04-27T12:44:13Z</time>
      </trkpt>
      <trkpt lat="48.74033" lon="1.76364">
        <ele>175</ele>
        <time>2023-04-27T12:44:14Z</time>
      </trkpt>
      <trkpt lat="48.7403" lon="1.76365">
        <ele>175.2</ele>
        <time>2023-04-27T12:44:16Z</time>
      </trkpt>
      <trkpt lat="48.74028" lon="1.76366">
        <ele>175.4</ele>
        <time>2023-04-27T12:44:18Z</time>
      </trkpt>
      <trkpt lat="48.74025" lon="1.76367">
        <ele>175.4</ele>
        <time>2023-04-27T12:44:20Z</time>
      </trkpt>
      <trkpt lat="48.74023" lon="1.76369">
        <ele>175.6</ele>
        <time>2023-04-27T12:44:22Z</time>
      </trkpt>
      <trkpt lat="48.7402" lon="1.76371">
        <ele>175.8</ele>
        <time>2023-04-27T12:44:24Z</time>
      </trkpt>
      <trkpt lat="48.74018" lon="1.76372">
        <ele>176</ele>
        <time>2023-04-27T12:44:26Z</time>
      </trkpt>
      <trkpt lat="48.74015" lon="1.76373">
        <ele>176.2</ele>
        <time>2023-04-27T12:44:28Z</time>
      </trkpt>
      <trkpt lat="48.74012" lon="1.76373">
        <ele>176.6</ele>
        <time>2023-04-27T12:44:30Z</time>
      </trkpt>
      <trkpt lat="48.74009" lon="1.76374">
        <ele>176.8</ele>
        <time>2023-04-27T12:44:31Z</time>
      </trkpt>
      <trkpt lat="48.74007" lon="1.76374">
        <ele>176.8</ele>
        <time>2023-04-27T12:44:32Z</time>
      </trkpt>
      <trkpt lat="48.74005" lon="1.76375">
        <ele>177</ele>
        <time>2023-04-27T12:44:33Z</time>
      </trkpt>
      <trkpt lat="48.74003" lon="1.76375">
        <ele>177.2</ele>
        <time>2023-04-27T12:44:34Z</time>
      </trkpt>
      <trkpt lat="48.74001" lon="1.76376">
        <ele>177.4</ele>
        <time>2023-04-27T12:44:35Z</time>
      </trkpt>
      <trkpt lat="48.73999" lon="1.76376">
        <ele>177.6</ele>
        <time>2023-04-27T12:44:36Z</time>
      </trkpt>
      <trkpt lat="48.73997" lon="1.76376">
        <ele>177.8</ele>
        <time>2023-04-27T12:44:37Z</time>
      </trkpt>
      <trkpt lat="48.73995" lon="1.76377">
        <ele>178</ele>
        <time>2023-04-27T12:44:39Z</time>
      </trkpt>
      <trkpt lat="48.73993" lon="1.76377">
        <ele>178</ele>
        <time>2023-04-27T12:44:41Z</time>
      </trkpt>
      <trkpt lat="48.7399" lon="1.76376">
        <ele>178.4</ele>
        <time>2023-04-27T12:44:43Z</time>
      </trkpt>
      <trkpt lat="48.73987" lon="1.76376">
        <ele>178.6</ele>
        <time>2023-04-27T12:44:45Z</time>
      </trkpt>
      <trkpt lat="48.73984" lon="1.76375">
        <ele>178.8</ele>
        <time>2023-04-27T12:44:47Z</time>
      </trkpt>
      <trkpt lat="48.73981" lon="1.76375">
        <ele>179</ele>
        <time>2023-04-27T12:44:49Z</time>
      </trkpt>
      <trkpt lat="48.73978" lon="1.76376">
        <ele>179.2</ele>
        <time>2023-04-27T12:44:51Z</time>
      </trkpt>
      <trkpt lat="48.73975" lon="1.76377">
        <ele>179.4</ele>
        <time>2023-04-27T12:44:53Z</time>
      </trkpt>
      <trkpt lat="48.73972" lon="1.76378">
        <ele>179.6</ele>
        <time>2023-04-27T12:44:55Z</time>
      </trkpt>
      <trkpt lat="48.7397" lon="1.76378">
        <ele>179.8</ele>
        <time>2023-04-27T12:44:56Z</time>
      </trkpt>
      <trkpt lat="48.73967" lon="1.76379">
        <ele>179.8</ele>
        <time>2023-04-27T12:44:57Z</time>
      </trkpt>
      <trkpt lat="48.73965" lon="1.76379">
        <ele>180</ele>
        <time>2023-04-27T12:44:58Z</time>
      </trkpt>
      <trkpt lat="48.73963" lon="1.76379">
        <ele>180.2</ele>
        <time>2023-04-27T12:44:59Z</time>
      </trkpt>
      <trkpt lat="48.73961" lon="1.76379">
        <ele>180.2</ele>
        <time>2023-04-27T12:45:00Z</time>
      </trkpt>
      <trkpt lat="48.73959" lon="1.76379">
        <ele>180.2</ele>
        <time>2023-04-27T12:45:01Z</time>
      </trkpt>
      <trkpt lat="48.73956" lon="1.76379">
        <ele>180.4</ele>
        <time>2023-04-27T12:45:03Z</time>
      </trkpt>
      <trkpt lat="48.73953" lon="1.76379">
        <ele>180.4</ele>
        <time>2023-04-27T12:45:05Z</time>
      </trkpt>
      <trkpt lat="48.7395" lon="1.7638">
        <ele>180.4</ele>
        <time>2023-04-27T12:45:07Z</time>
      </trkpt>
      <trkpt lat="48.73948" lon="1.7638">
        <ele>180.4</ele>
        <time>2023-04-27T12:45:09Z</time>
      </trkpt>
      <trkpt lat="48.73945" lon="1.76381">
        <ele>180.4</ele>
        <time>2023-04-27T12:45:11Z</time>
      </trkpt>
      <trkpt lat="48.73943" lon="1.76381">
        <ele>180.4</ele>
        <time>2023-04-27T12:45:13Z</time>
      </trkpt>
      <trkpt lat="48.7394" lon="1.76381">
        <ele>180.4</ele>
        <time>2023-04-27T12:45:15Z</time>
      </trkpt>
      <trkpt lat="48.73938" lon="1.76381">
        <ele>180.4</ele>
        <time>2023-04-27T12:45:17Z</time>
      </trkpt>
      <trkpt lat="48.73935" lon="1.7638">
        <ele>180.6</ele>
        <time>2023-04-27T12:45:19Z</time>
      </trkpt>
      <trkpt lat="48.73932" lon="1.7638">
        <ele>180.8</ele>
        <time>2023-04-27T12:45:21Z</time>
      </trkpt>
      <trkpt lat="48.7393" lon="1.7638">
        <ele>181</ele>
        <time>2023-04-27T12:45:23Z</time>
      </trkpt>
      <trkpt lat="48.73927" lon="1.7638">
        <ele>181.2</ele>
        <time>2023-04-27T12:45:25Z</time>
      </trkpt>
      <trkpt lat="48.73924" lon="1.7638">
        <ele>181.6</ele>
        <time>2023-04-27T12:45:27Z</time>
      </trkpt>
      <trkpt lat="48.73922" lon="1.7638">
        <ele>182</ele>
        <time>2023-04-27T12:45:29Z</time>
      </trkpt>
      <trkpt lat="48.73919" lon="1.7638">
        <ele>182.2</ele>
        <time>2023-04-27T12:45:31Z</time>
      </trkpt>
      <trkpt lat="48.73917" lon="1.7638">
        <ele>182.4</ele>
        <time>2023-04-27T12:45:32Z</time>
      </trkpt>
      <trkpt lat="48.73914" lon="1.76381">
        <ele>182.8</ele>
        <time>2023-04-27T12:45:34Z</time>
      </trkpt>
      <trkpt lat="48.73912" lon="1.76382">
        <ele>183</ele>
        <time>2023-04-27T12:45:35Z</time>
      </trkpt>
      <trkpt lat="48.7391" lon="1.76383">
        <ele>183.2</ele>
        <time>2023-04-27T12:45:36Z</time>
      </trkpt>
      <trkpt lat="48.73908" lon="1.76384">
        <ele>183.4</ele>
        <time>2023-04-27T12:45:37Z</time>
      </trkpt>
      <trkpt lat="48.73906" lon="1.76385">
        <ele>183.4</ele>
        <time>2023-04-27T12:45:38Z</time>
      </trkpt>
      <trkpt lat="48.73902" lon="1.76386">
        <ele>183.8</ele>
        <time>2023-04-27T12:45:40Z</time>
      </trkpt>
      <trkpt lat="48.739" lon="1.76386">
        <ele>184</ele>
        <time>2023-04-27T12:45:42Z</time>
      </trkpt>
      <trkpt lat="48.73897" lon="1.76385">
        <ele>184.2</ele>
        <time>2023-04-27T12:45:44Z</time>
      </trkpt>
      <trkpt lat="48.73894" lon="1.76384">
        <ele>184.4</ele>
        <time>2023-04-27T12:45:46Z</time>
      </trkpt>
      <trkpt lat="48.73892" lon="1.76383">
        <ele>184.8</ele>
        <time>2023-04-27T12:45:48Z</time>
      </trkpt>
      <trkpt lat="48.7389" lon="1.76383">
        <ele>185</ele>
        <time>2023-04-27T12:45:49Z</time>
      </trkpt>
      <trkpt lat="48.73887" lon="1.76383">
        <ele>185.2</ele>
        <time>2023-04-27T12:45:51Z</time>
      </trkpt>
      <trkpt lat="48.73884" lon="1.76385">
        <ele>185.2</ele>
        <time>2023-04-27T12:45:53Z</time>
      </trkpt>
      <trkpt lat="48.73883" lon="1.76387">
        <ele>185.4</ele>
        <time>2023-04-27T12:45:54Z</time>
      </trkpt>
      <trkpt lat="48.7388" lon="1.76389">
        <ele>185.4</ele>
        <time>2023-04-27T12:45:56Z</time>
      </trkpt>
      <trkpt lat="48.73876" lon="1.76391">
        <ele>185.6</ele>
        <time>2023-04-27T12:45:58Z</time>
      </trkpt>
      <trkpt lat="48.73873" lon="1.76392">
        <ele>185.8</ele>
        <time>2023-04-27T12:46:00Z</time>
      </trkpt>
      <trkpt lat="48.7387" lon="1.76393">
        <ele>185.8</ele>
        <time>2023-04-27T12:46:02Z</time>
      </trkpt>
      <trkpt lat="48.73868" lon="1.76393">
        <ele>186</ele>
        <time>2023-04-27T12:46:04Z</time>
      </trkpt>
      <trkpt lat="48.73866" lon="1.76393">
        <ele>186</ele>
        <time>2023-04-27T12:46:06Z</time>
      </trkpt>
      <trkpt lat="48.73864" lon="1.76395">
        <ele>186</ele>
        <time>2023-04-27T12:46:08Z</time>
      </trkpt>
      <trkpt lat="48.73861" lon="1.76398">
        <ele>186</ele>
        <time>2023-04-27T12:46:10Z</time>
      </trkpt>
      <trkpt lat="48.73859" lon="1.76399">
        <ele>186</ele>
        <time>2023-04-27T12:46:12Z</time>
      </trkpt>
      <trkpt lat="48.73856" lon="1.764">
        <ele>186</ele>
        <time>2023-04-27T12:46:14Z</time>
      </trkpt>
      <trkpt lat="48.73853" lon="1.76399">
        <ele>186.2</ele>
        <time>2023-04-27T12:46:16Z</time>
      </trkpt>
      <trkpt lat="48.73852" lon="1.76399">
        <ele>186.2</ele>
        <time>2023-04-27T12:46:18Z</time>
      </trkpt>
      <trkpt lat="48.73849" lon="1.76399">
        <ele>186.2</ele>
        <time>2023-04-27T12:46:21Z</time>
      </trkpt>
      <trkpt lat="48.73846" lon="1.764">
        <ele>186.2</ele>
        <time>2023-04-27T12:46:23Z</time>
      </trkpt>
      <trkpt lat="48.73844" lon="1.764">
        <ele>186.2</ele>
        <time>2023-04-27T12:46:25Z</time>
      </trkpt>
      <trkpt lat="48.73842" lon="1.764">
        <ele>186.2</ele>
        <time>2023-04-27T12:46:26Z</time>
      </trkpt>
      <trkpt lat="48.73838" lon="1.764">
        <ele>186</ele>
        <time>2023-04-27T12:46:28Z</time>
      </trkpt>
      <trkpt lat="48.73835" lon="1.76399">
        <ele>186</ele>
        <time>2023-04-27T12:46:30Z</time>
      </trkpt>
      <trkpt lat="48.73833" lon="1.76399">
        <ele>185.8</ele>
        <time>2023-04-27T12:46:31Z</time>
      </trkpt>
      <trkpt lat="48.7383" lon="1.76398">
        <ele>185.8</ele>
        <time>2023-04-27T12:46:33Z</time>
      </trkpt>
      <trkpt lat="48.73827" lon="1.76396">
        <ele>185.6</ele>
        <time>2023-04-27T12:46:35Z</time>
      </trkpt>
      <trkpt lat="48.73825" lon="1.76393">
        <ele>185.4</ele>
        <time>2023-04-27T12:46:37Z</time>
      </trkpt>
      <trkpt lat="48.73823" lon="1.76391">
        <ele>185.2</ele>
        <time>2023-04-27T12:46:39Z</time>
      </trkpt>
      <trkpt lat="48.73821" lon="1.76388">
        <ele>185.2</ele>
        <time>2023-04-27T12:46:41Z</time>
      </trkpt>
      <trkpt lat="48.73819" lon="1.76384">
        <ele>185</ele>
        <time>2023-04-27T12:46:43Z</time>
      </trkpt>
      <trkpt lat="48.73817" lon="1.76381">
        <ele>184.8</ele>
        <time>2023-04-27T12:46:45Z</time>
      </trkpt>
      <trkpt lat="48.73815" lon="1.76379">
        <ele>185</ele>
        <time>2023-04-27T12:46:48Z</time>
      </trkpt>
      <trkpt lat="48.73813" lon="1.76377">
        <ele>185.4</ele>
        <time>2023-04-27T12:46:54Z</time>
      </trkpt>
      <trkpt lat="48.73811" lon="1.76374">
        <ele>185.4</ele>
        <time>2023-04-27T12:46:57Z</time>
      </trkpt>
      <trkpt lat="48.73811" lon="1.76371">
        <ele>185.4</ele>
        <time>2023-04-27T12:46:59Z</time>
      </trkpt>
      <trkpt lat="48.73812" lon="1.76369">
        <ele>185.4</ele>
        <time>2023-04-27T12:47:01Z</time>
      </trkpt>
      <trkpt lat="48.73812" lon="1.76365">
        <ele>185.8</ele>
        <time>2023-04-27T12:47:13Z</time>
      </trkpt>
      <trkpt lat="48.73811" lon="1.76362">
        <ele>186.2</ele>
        <time>2023-04-27T12:47:17Z</time>
      </trkpt>
      <trkpt lat="48.73811" lon="1.76358">
        <ele>187.6</ele>
        <time>2023-04-27T12:47:27Z</time>
      </trkpt>
      <trkpt lat="48.73812" lon="1.76354">
        <ele>187.8</ele>
        <time>2023-04-27T12:47:29Z</time>
      </trkpt>
      <trkpt lat="48.73813" lon="1.76349">
        <ele>187.8</ele>
        <time>2023-04-27T12:47:31Z</time>
      </trkpt>
      <trkpt lat="48.73814" lon="1.76345">
        <ele>187.8</ele>
        <time>2023-04-27T12:47:32Z</time>
      </trkpt>
      <trkpt lat="48.73814" lon="1.76341">
        <ele>187.6</ele>
        <time>2023-04-27T12:47:33Z</time>
      </trkpt>
      <trkpt lat="48.73815" lon="1.76337">
        <ele>187.6</ele>
        <time>2023-04-27T12:47:34Z</time>
      </trkpt>
      <trkpt lat="48.73816" lon="1.76332">
        <ele>187.6</ele>
        <time>2023-04-27T12:47:35Z</time>
      </trkpt>
      <trkpt lat="48.73817" lon="1.76327">
        <ele>187.6</ele>
        <time>2023-04-27T12:47:36Z</time>
      </trkpt>
      <trkpt lat="48.73818" lon="1.76322">
        <ele>187.4</ele>
        <time>2023-04-27T12:47:37Z</time>
      </trkpt>
      <trkpt lat="48.73819" lon="1.76316">
        <ele>187.4</ele>
        <time>2023-04-27T12:47:38Z</time>
      </trkpt>
      <trkpt lat="48.7382" lon="1.7631">
        <ele>187.2</ele>
        <time>2023-04-27T12:47:39Z</time>
      </trkpt>
      <trkpt lat="48.73821" lon="1.76303">
        <ele>187.2</ele>
        <time>2023-04-27T12:47:40Z</time>
      </trkpt>
      <trkpt lat="48.73822" lon="1.76297">
        <ele>187.2</ele>
        <time>2023-04-27T12:47:41Z</time>
      </trkpt>
      <trkpt lat="48.73824" lon="1.7629">
        <ele>187</ele>
        <time>2023-04-27T12:47:42Z</time>
      </trkpt>
      <trkpt lat="48.73825" lon="1.76283">
        <ele>187</ele>
        <time>2023-04-27T12:47:43Z</time>
      </trkpt>
      <trkpt lat="48.73826" lon="1.76276">
        <ele>187</ele>
        <time>2023-04-27T12:47:44Z</time>
      </trkpt>
      <trkpt lat="48.73828" lon="1.76269">
        <ele>186.8</ele>
        <time>2023-04-27T12:47:45Z</time>
      </trkpt>
      <trkpt lat="48.73829" lon="1.76263">
        <ele>186.8</ele>
        <time>2023-04-27T12:47:46Z</time>
      </trkpt>
      <trkpt lat="48.73831" lon="1.76256">
        <ele>186.8</ele>
        <time>2023-04-27T12:47:47Z</time>
      </trkpt>
      <trkpt lat="48.73832" lon="1.76249">
        <ele>186.6</ele>
        <time>2023-04-27T12:47:48Z</time>
      </trkpt>
      <trkpt lat="48.73833" lon="1.76242">
        <ele>186.6</ele>
        <time>2023-04-27T12:47:49Z</time>
      </trkpt>
      <trkpt lat="48.73834" lon="1.76235">
        <ele>186.6</ele>
        <time>2023-04-27T12:47:50Z</time>
      </trkpt>
      <trkpt lat="48.73835" lon="1.76227">
        <ele>186.6</ele>
        <time>2023-04-27T12:47:51Z</time>
      </trkpt>
      <trkpt lat="48.73836" lon="1.7622">
        <ele>186.4</ele>
        <time>2023-04-27T12:47:52Z</time>
      </trkpt>
      <trkpt lat="48.73837" lon="1.76212">
        <ele>186.4</ele>
        <time>2023-04-27T12:47:53Z</time>
      </trkpt>
      <trkpt lat="48.73839" lon="1.76205">
        <ele>186.2</ele>
        <time>2023-04-27T12:47:54Z</time>
      </trkpt>
      <trkpt lat="48.7384" lon="1.76198">
        <ele>186.2</ele>
        <time>2023-04-27T12:47:55Z</time>
      </trkpt>
      <trkpt lat="48.73842" lon="1.76191">
        <ele>186</ele>
        <time>2023-04-27T12:47:56Z</time>
      </trkpt>
      <trkpt lat="48.73844" lon="1.76184">
        <ele>186</ele>
        <time>2023-04-27T12:47:57Z</time>
      </trkpt>
      <trkpt lat="48.73846" lon="1.76176">
        <ele>185.8</ele>
        <time>2023-04-27T12:47:58Z</time>
      </trkpt>
      <trkpt lat="48.73848" lon="1.76169">
        <ele>185.8</ele>
        <time>2023-04-27T12:47:59Z</time>
      </trkpt>
      <trkpt lat="48.73849" lon="1.76161">
        <ele>185.6</ele>
        <time>2023-04-27T12:48:00Z</time>
      </trkpt>
      <trkpt lat="48.73851" lon="1.76153">
        <ele>185.4</ele>
        <time>2023-04-27T12:48:01Z</time>
      </trkpt>
      <trkpt lat="48.73852" lon="1.76146">
        <ele>185.4</ele>
        <time>2023-04-27T12:48:02Z</time>
      </trkpt>
      <trkpt lat="48.73854" lon="1.76138">
        <ele>185.2</ele>
        <time>2023-04-27T12:48:03Z</time>
      </trkpt>
      <trkpt lat="48.73857" lon="1.7613">
        <ele>185.2</ele>
        <time>2023-04-27T12:48:04Z</time>
      </trkpt>
      <trkpt lat="48.73859" lon="1.76123">
        <ele>185</ele>
        <time>2023-04-27T12:48:05Z</time>
      </trkpt>
      <trkpt lat="48.7386" lon="1.76114">
        <ele>185</ele>
        <time>2023-04-27T12:48:06Z</time>
      </trkpt>
      <trkpt lat="48.73862" lon="1.76106">
        <ele>184.8</ele>
        <time>2023-04-27T12:48:07Z</time>
      </trkpt>
      <trkpt lat="48.73864" lon="1.76097">
        <ele>184.8</ele>
        <time>2023-04-27T12:48:08Z</time>
      </trkpt>
      <trkpt lat="48.73866" lon="1.76088">
        <ele>184.8</ele>
        <time>2023-04-27T12:48:09Z</time>
      </trkpt>
      <trkpt lat="48.73868" lon="1.76079">
        <ele>184.6</ele>
        <time>2023-04-27T12:48:10Z</time>
      </trkpt>
      <trkpt lat="48.73869" lon="1.7607">
        <ele>184.6</ele>
        <time>2023-04-27T12:48:11Z</time>
      </trkpt>
      <trkpt lat="48.7387" lon="1.76061">
        <ele>184.4</ele>
        <time>2023-04-27T12:48:12Z</time>
      </trkpt>
      <trkpt lat="48.73872" lon="1.76052">
        <ele>184.4</ele>
        <time>2023-04-27T12:48:13Z</time>
      </trkpt>
      <trkpt lat="48.73874" lon="1.76043">
        <ele>184.2</ele>
        <time>2023-04-27T12:48:14Z</time>
      </trkpt>
      <trkpt lat="48.73876" lon="1.76034">
        <ele>184.2</ele>
        <time>2023-04-27T12:48:15Z</time>
      </trkpt>
      <trkpt lat="48.73877" lon="1.76026">
        <ele>184</ele>
        <time>2023-04-27T12:48:16Z</time>
      </trkpt>
      <trkpt lat="48.7388" lon="1.76018">
        <ele>183.8</ele>
        <time>2023-04-27T12:48:17Z</time>
      </trkpt>
      <trkpt lat="48.73882" lon="1.76009">
        <ele>183.8</ele>
        <time>2023-04-27T12:48:18Z</time>
      </trkpt>
      <trkpt lat="48.73884" lon="1.76001">
        <ele>183.6</ele>
        <time>2023-04-27T12:48:19Z</time>
      </trkpt>
      <trkpt lat="48.73886" lon="1.75993">
        <ele>183.6</ele>
        <time>2023-04-27T12:48:20Z</time>
      </trkpt>
      <trkpt lat="48.73888" lon="1.75985">
        <ele>183.4</ele>
        <time>2023-04-27T12:48:21Z</time>
      </trkpt>
      <trkpt lat="48.7389" lon="1.75977">
        <ele>183.2</ele>
        <time>2023-04-27T12:48:22Z</time>
      </trkpt>
      <trkpt lat="48.73892" lon="1.75969">
        <ele>183.2</ele>
        <time>2023-04-27T12:48:23Z</time>
      </trkpt>
      <trkpt lat="48.73894" lon="1.75962">
        <ele>183</ele>
        <time>2023-04-27T12:48:24Z</time>
      </trkpt>
      <trkpt lat="48.73897" lon="1.75954">
        <ele>183</ele>
        <time>2023-04-27T12:48:25Z</time>
      </trkpt>
      <trkpt lat="48.73899" lon="1.75946">
        <ele>183</ele>
        <time>2023-04-27T12:48:26Z</time>
      </trkpt>
      <trkpt lat="48.73901" lon="1.75939">
        <ele>182.8</ele>
        <time>2023-04-27T12:48:27Z</time>
      </trkpt>
      <trkpt lat="48.73903" lon="1.75931">
        <ele>182.8</ele>
        <time>2023-04-27T12:48:28Z</time>
      </trkpt>
      <trkpt lat="48.73905" lon="1.75924">
        <ele>182.8</ele>
        <time>2023-04-27T12:48:29Z</time>
      </trkpt>
      <trkpt lat="48.73908" lon="1.75917">
        <ele>182.6</ele>
        <time>2023-04-27T12:48:30Z</time>
      </trkpt>
      <trkpt lat="48.73909" lon="1.75909">
        <ele>182.6</ele>
        <time>2023-04-27T12:48:31Z</time>
      </trkpt>
      <trkpt lat="48.73911" lon="1.75902">
        <ele>182.4</ele>
        <time>2023-04-27T12:48:32Z</time>
      </trkpt>
      <trkpt lat="48.73913" lon="1.75894">
        <ele>182.4</ele>
        <time>2023-04-27T12:48:33Z</time>
      </trkpt>
      <trkpt lat="48.73915" lon="1.75886">
        <ele>182.2</ele>
        <time>2023-04-27T12:48:34Z</time>
      </trkpt>
      <trkpt lat="48.73917" lon="1.75878">
        <ele>182.2</ele>
        <time>2023-04-27T12:48:35Z</time>
      </trkpt>
      <trkpt lat="48.73919" lon="1.75871">
        <ele>182</ele>
        <time>2023-04-27T12:48:36Z</time>
      </trkpt>
      <trkpt lat="48.73922" lon="1.75863">
        <ele>182</ele>
        <time>2023-04-27T12:48:37Z</time>
      </trkpt>
      <trkpt lat="48.73924" lon="1.75856">
        <ele>182</ele>
        <time>2023-04-27T12:48:38Z</time>
      </trkpt>
      <trkpt lat="48.73926" lon="1.75849">
        <ele>181.8</ele>
        <time>2023-04-27T12:48:39Z</time>
      </trkpt>
      <trkpt lat="48.73928" lon="1.75841">
        <ele>181.8</ele>
        <time>2023-04-27T12:48:40Z</time>
      </trkpt>
      <trkpt lat="48.7393" lon="1.75833">
        <ele>181.6</ele>
        <time>2023-04-27T12:48:41Z</time>
      </trkpt>
      <trkpt lat="48.73931" lon="1.75824">
        <ele>181.6</ele>
        <time>2023-04-27T12:48:42Z</time>
      </trkpt>
      <trkpt lat="48.73932" lon="1.75815">
        <ele>181.4</ele>
        <time>2023-04-27T12:48:43Z</time>
      </trkpt>
      <trkpt lat="48.73933" lon="1.75806">
        <ele>181.4</ele>
        <time>2023-04-27T12:48:44Z</time>
      </trkpt>
      <trkpt lat="48.73934" lon="1.75798">
        <ele>181.2</ele>
        <time>2023-04-27T12:48:45Z</time>
      </trkpt>
      <trkpt lat="48.73936" lon="1.7579">
        <ele>181.2</ele>
        <time>2023-04-27T12:48:46Z</time>
      </trkpt>
      <trkpt lat="48.73937" lon="1.75783">
        <ele>181</ele>
        <time>2023-04-27T12:48:47Z</time>
      </trkpt>
      <trkpt lat="48.73938" lon="1.75777">
        <ele>180.8</ele>
        <time>2023-04-27T12:48:48Z</time>
      </trkpt>
      <trkpt lat="48.73939" lon="1.75771">
        <ele>180.8</ele>
        <time>2023-04-27T12:48:49Z</time>
      </trkpt>
      <trkpt lat="48.7394" lon="1.75765">
        <ele>180.6</ele>
        <time>2023-04-27T12:48:50Z</time>
      </trkpt>
      <trkpt lat="48.73941" lon="1.7576">
        <ele>180.6</ele>
        <time>2023-04-27T12:48:51Z</time>
      </trkpt>
      <trkpt lat="48.73942" lon="1.75754">
        <ele>180.4</ele>
        <time>2023-04-27T12:48:52Z</time>
      </trkpt>
      <trkpt lat="48.73943" lon="1.75749">
        <ele>180.2</ele>
        <time>2023-04-27T12:48:53Z</time>
      </trkpt>
      <trkpt lat="48.73945" lon="1.75744">
        <ele>180.2</ele>
        <time>2023-04-27T12:48:54Z</time>
      </trkpt>
      <trkpt lat="48.73946" lon="1.75738">
        <ele>180</ele>
        <time>2023-04-27T12:48:55Z</time>
      </trkpt>
      <trkpt lat="48.73947" lon="1.75732">
        <ele>180</ele>
        <time>2023-04-27T12:48:56Z</time>
      </trkpt>
      <trkpt lat="48.73949" lon="1.75726">
        <ele>179.8</ele>
        <time>2023-04-27T12:48:57Z</time>
      </trkpt>
      <trkpt lat="48.7395" lon="1.7572">
        <ele>179.8</ele>
        <time>2023-04-27T12:48:58Z</time>
      </trkpt>
      <trkpt lat="48.73952" lon="1.75713">
        <ele>179.8</ele>
        <time>2023-04-27T12:48:59Z</time>
      </trkpt>
      <trkpt lat="48.73953" lon="1.75707">
        <ele>179.6</ele>
        <time>2023-04-27T12:49:00Z</time>
      </trkpt>
      <trkpt lat="48.73955" lon="1.757">
        <ele>179.6</ele>
        <time>2023-04-27T12:49:01Z</time>
      </trkpt>
      <trkpt lat="48.73956" lon="1.75694">
        <ele>179.6</ele>
        <time>2023-04-27T12:49:02Z</time>
      </trkpt>
      <trkpt lat="48.73957" lon="1.75687">
        <ele>179.6</ele>
        <time>2023-04-27T12:49:03Z</time>
      </trkpt>
      <trkpt lat="48.73959" lon="1.75681">
        <ele>179.6</ele>
        <time>2023-04-27T12:49:04Z</time>
      </trkpt>
      <trkpt lat="48.7396" lon="1.75675">
        <ele>179.6</ele>
        <time>2023-04-27T12:49:05Z</time>
      </trkpt>
      <trkpt lat="48.7396" lon="1.7567">
        <ele>179.6</ele>
        <time>2023-04-27T12:49:06Z</time>
      </trkpt>
      <trkpt lat="48.7396" lon="1.75664">
        <ele>179.4</ele>
        <time>2023-04-27T12:49:07Z</time>
      </trkpt>
      <trkpt lat="48.73959" lon="1.75659">
        <ele>179.4</ele>
        <time>2023-04-27T12:49:08Z</time>
      </trkpt>
      <trkpt lat="48.73957" lon="1.75654">
        <ele>179.4</ele>
        <time>2023-04-27T12:49:09Z</time>
      </trkpt>
      <trkpt lat="48.73954" lon="1.7565">
        <ele>179.4</ele>
        <time>2023-04-27T12:49:10Z</time>
      </trkpt>
      <trkpt lat="48.7395" lon="1.75646">
        <ele>179.4</ele>
        <time>2023-04-27T12:49:11Z</time>
      </trkpt>
      <trkpt lat="48.73946" lon="1.75642">
        <ele>179.4</ele>
        <time>2023-04-27T12:49:12Z</time>
      </trkpt>
      <trkpt lat="48.73942" lon="1.75639">
        <ele>179.4</ele>
        <time>2023-04-27T12:49:13Z</time>
      </trkpt>
      <trkpt lat="48.73938" lon="1.75636">
        <ele>179.4</ele>
        <time>2023-04-27T12:49:14Z</time>
      </trkpt>
      <trkpt lat="48.73933" lon="1.75634">
        <ele>179.4</ele>
        <time>2023-04-27T12:49:15Z</time>
      </trkpt>
      <trkpt lat="48.73929" lon="1.75631">
        <ele>179.4</ele>
        <time>2023-04-27T12:49:16Z</time>
      </trkpt>
      <trkpt lat="48.73924" lon="1.75629">
        <ele>179.4</ele>
        <time>2023-04-27T12:49:17Z</time>
      </trkpt>
      <trkpt lat="48.7392" lon="1.75628">
        <ele>179.4</ele>
        <time>2023-04-27T12:49:18Z</time>
      </trkpt>
      <trkpt lat="48.73916" lon="1.75626">
        <ele>179.4</ele>
        <time>2023-04-27T12:49:19Z</time>
      </trkpt>
      <trkpt lat="48.73911" lon="1.75624">
        <ele>179.4</ele>
        <time>2023-04-27T12:49:20Z</time>
      </trkpt>
      <trkpt lat="48.73907" lon="1.75622">
        <ele>179.4</ele>
        <time>2023-04-27T12:49:21Z</time>
      </trkpt>
      <trkpt lat="48.73903" lon="1.7562">
        <ele>179.4</ele>
        <time>2023-04-27T12:49:22Z</time>
      </trkpt>
      <trkpt lat="48.73898" lon="1.75618">
        <ele>179.4</ele>
        <time>2023-04-27T12:49:23Z</time>
      </trkpt>
      <trkpt lat="48.73894" lon="1.75617">
        <ele>179.4</ele>
        <time>2023-04-27T12:49:24Z</time>
      </trkpt>
      <trkpt lat="48.7389" lon="1.75615">
        <ele>179.4</ele>
        <time>2023-04-27T12:49:25Z</time>
      </trkpt>
      <trkpt lat="48.73885" lon="1.75613">
        <ele>179.4</ele>
        <time>2023-04-27T12:49:26Z</time>
      </trkpt>
      <trkpt lat="48.73881" lon="1.75611">
        <ele>179.4</ele>
        <time>2023-04-27T12:49:27Z</time>
      </trkpt>
      <trkpt lat="48.73876" lon="1.7561">
        <ele>179.4</ele>
        <time>2023-04-27T12:49:28Z</time>
      </trkpt>
      <trkpt lat="48.73871" lon="1.75608">
        <ele>179.4</ele>
        <time>2023-04-27T12:49:29Z</time>
      </trkpt>
      <trkpt lat="48.73867" lon="1.75607">
        <ele>179.6</ele>
        <time>2023-04-27T12:49:30Z</time>
      </trkpt>
      <trkpt lat="48.73862" lon="1.75605">
        <ele>179.6</ele>
        <time>2023-04-27T12:49:31Z</time>
      </trkpt>
      <trkpt lat="48.73857" lon="1.75603">
        <ele>179.6</ele>
        <time>2023-04-27T12:49:32Z</time>
      </trkpt>
      <trkpt lat="48.73852" lon="1.75601">
        <ele>179.8</ele>
        <time>2023-04-27T12:49:33Z</time>
      </trkpt>
      <trkpt lat="48.73847" lon="1.75598">
        <ele>179.8</ele>
        <time>2023-04-27T12:49:34Z</time>
      </trkpt>
      <trkpt lat="48.73843" lon="1.75596">
        <ele>180</ele>
        <time>2023-04-27T12:49:35Z</time>
      </trkpt>
      <trkpt lat="48.73838" lon="1.75594">
        <ele>180</ele>
        <time>2023-04-27T12:49:36Z</time>
      </trkpt>
      <trkpt lat="48.73833" lon="1.75592">
        <ele>180.2</ele>
        <time>2023-04-27T12:49:37Z</time>
      </trkpt>
      <trkpt lat="48.73828" lon="1.7559">
        <ele>180.2</ele>
        <time>2023-04-27T12:49:38Z</time>
      </trkpt>
      <trkpt lat="48.73823" lon="1.75588">
        <ele>180.2</ele>
        <time>2023-04-27T12:49:39Z</time>
      </trkpt>
      <trkpt lat="48.73818" lon="1.75587">
        <ele>180.2</ele>
        <time>2023-04-27T12:49:40Z</time>
      </trkpt>
      <trkpt lat="48.73812" lon="1.75585">
        <ele>180.2</ele>
        <time>2023-04-27T12:49:41Z</time>
      </trkpt>
      <trkpt lat="48.73808" lon="1.75583">
        <ele>180.2</ele>
        <time>2023-04-27T12:49:42Z</time>
      </trkpt>
      <trkpt lat="48.73802" lon="1.7558">
        <ele>180.2</ele>
        <time>2023-04-27T12:49:43Z</time>
      </trkpt>
      <trkpt lat="48.73797" lon="1.75578">
        <ele>180.2</ele>
        <time>2023-04-27T12:49:44Z</time>
      </trkpt>
      <trkpt lat="48.73792" lon="1.75576">
        <ele>180.2</ele>
        <time>2023-04-27T12:49:45Z</time>
      </trkpt>
      <trkpt lat="48.73787" lon="1.75573">
        <ele>180.2</ele>
        <time>2023-04-27T12:49:46Z</time>
      </trkpt>
      <trkpt lat="48.73782" lon="1.75572">
        <ele>180.2</ele>
        <time>2023-04-27T12:49:47Z</time>
      </trkpt>
      <trkpt lat="48.73777" lon="1.7557">
        <ele>180</ele>
        <time>2023-04-27T12:49:48Z</time>
      </trkpt>
      <trkpt lat="48.73773" lon="1.75569">
        <ele>180</ele>
        <time>2023-04-27T12:49:49Z</time>
      </trkpt>
      <trkpt lat="48.73769" lon="1.75568">
        <ele>179.8</ele>
        <time>2023-04-27T12:49:50Z</time>
      </trkpt>
      <trkpt lat="48.73766" lon="1.75567">
        <ele>179.8</ele>
        <time>2023-04-27T12:49:51Z</time>
      </trkpt>
      <trkpt lat="48.73763" lon="1.75566">
        <ele>179.6</ele>
        <time>2023-04-27T12:49:52Z</time>
      </trkpt>
      <trkpt lat="48.7376" lon="1.75565">
        <ele>179.6</ele>
        <time>2023-04-27T12:49:53Z</time>
      </trkpt>
      <trkpt lat="48.73757" lon="1.75564">
        <ele>179.4</ele>
        <time>2023-04-27T12:49:54Z</time>
      </trkpt>
      <trkpt lat="48.73755" lon="1.75563">
        <ele>179.4</ele>
        <time>2023-04-27T12:49:55Z</time>
      </trkpt>
      <trkpt lat="48.73753" lon="1.75562">
        <ele>179.4</ele>
        <time>2023-04-27T12:49:56Z</time>
      </trkpt>
      <trkpt lat="48.7375" lon="1.75561">
        <ele>179.4</ele>
        <time>2023-04-27T12:49:58Z</time>
      </trkpt>
      <trkpt lat="48.73748" lon="1.7556">
        <ele>179.4</ele>
        <time>2023-04-27T12:50:00Z</time>
      </trkpt>
      <trkpt lat="48.73745" lon="1.75559">
        <ele>179.4</ele>
        <time>2023-04-27T12:50:02Z</time>
      </trkpt>
      <trkpt lat="48.73743" lon="1.75559">
        <ele>179.6</ele>
        <time>2023-04-27T12:50:04Z</time>
      </trkpt>
      <trkpt lat="48.7374" lon="1.75559">
        <ele>179.6</ele>
        <time>2023-04-27T12:50:06Z</time>
      </trkpt>
      <trkpt lat="48.73738" lon="1.75559">
        <ele>179.8</ele>
        <time>2023-04-27T12:50:08Z</time>
      </trkpt>
      <trkpt lat="48.73735" lon="1.75559">
        <ele>180</ele>
        <time>2023-04-27T12:50:10Z</time>
      </trkpt>
      <trkpt lat="48.73731" lon="1.75559">
        <ele>180.2</ele>
        <time>2023-04-27T12:50:12Z</time>
      </trkpt>
      <trkpt lat="48.73728" lon="1.75559">
        <ele>180.4</ele>
        <time>2023-04-27T12:50:14Z</time>
      </trkpt>
      <trkpt lat="48.73725" lon="1.75558">
        <ele>180.6</ele>
        <time>2023-04-27T12:50:16Z</time>
      </trkpt>
      <trkpt lat="48.73723" lon="1.75556">
        <ele>180.8</ele>
        <time>2023-04-27T12:50:18Z</time>
      </trkpt>
      <trkpt lat="48.7372" lon="1.75554">
        <ele>181.2</ele>
        <time>2023-04-27T12:50:20Z</time>
      </trkpt>
      <trkpt lat="48.73717" lon="1.75551">
        <ele>181.8</ele>
        <time>2023-04-27T12:50:22Z</time>
      </trkpt>
      <trkpt lat="48.73715" lon="1.75549">
        <ele>182.2</ele>
        <time>2023-04-27T12:50:24Z</time>
      </trkpt>
      <trkpt lat="48.73713" lon="1.75547">
        <ele>183</ele>
        <time>2023-04-27T12:50:27Z</time>
      </trkpt>
      <trkpt lat="48.7371" lon="1.75548">
        <ele>187</ele>
        <time>2023-04-27T12:50:57Z</time>
      </trkpt>
      <trkpt lat="48.73708" lon="1.75548">
        <ele>187</ele>
        <time>2023-04-27T12:50:58Z</time>
      </trkpt>
      <trkpt lat="48.73706" lon="1.75548">
        <ele>187</ele>
        <time>2023-04-27T12:50:59Z</time>
      </trkpt>
      <trkpt lat="48.73704" lon="1.75548">
        <ele>187.2</ele>
        <time>2023-04-27T12:51:00Z</time>
      </trkpt>
      <trkpt lat="48.73701" lon="1.75549">
        <ele>187.2</ele>
        <time>2023-04-27T12:51:01Z</time>
      </trkpt>
      <trkpt lat="48.73699" lon="1.75549">
        <ele>187.2</ele>
        <time>2023-04-27T12:51:02Z</time>
      </trkpt>
      <trkpt lat="48.73697" lon="1.7555">
        <ele>187.2</ele>
        <time>2023-04-27T12:51:03Z</time>
      </trkpt>
      <trkpt lat="48.73695" lon="1.75551">
        <ele>187.4</ele>
        <time>2023-04-27T12:51:04Z</time>
      </trkpt>
      <trkpt lat="48.73693" lon="1.75552">
        <ele>187.4</ele>
        <time>2023-04-27T12:51:05Z</time>
      </trkpt>
      <trkpt lat="48.73691" lon="1.75552">
        <ele>187.4</ele>
        <time>2023-04-27T12:51:06Z</time>
      </trkpt>
      <trkpt lat="48.73688" lon="1.75552">
        <ele>187.6</ele>
        <time>2023-04-27T12:51:08Z</time>
      </trkpt>
      <trkpt lat="48.73685" lon="1.75551">
        <ele>187.6</ele>
        <time>2023-04-27T12:51:10Z</time>
      </trkpt>
      <trkpt lat="48.73683" lon="1.7555">
        <ele>187.8</ele>
        <time>2023-04-27T12:51:12Z</time>
      </trkpt>
      <trkpt lat="48.73679" lon="1.75549">
        <ele>188</ele>
        <time>2023-04-27T12:51:14Z</time>
      </trkpt>
      <trkpt lat="48.73677" lon="1.75548">
        <ele>187.8</ele>
        <time>2023-04-27T12:51:16Z</time>
      </trkpt>
      <trkpt lat="48.73674" lon="1.75547">
        <ele>187.6</ele>
        <time>2023-04-27T12:51:18Z</time>
      </trkpt>
      <trkpt lat="48.73671" lon="1.75546">
        <ele>187.6</ele>
        <time>2023-04-27T12:51:20Z</time>
      </trkpt>
      <trkpt lat="48.73668" lon="1.75545">
        <ele>187.6</ele>
        <time>2023-04-27T12:51:22Z</time>
      </trkpt>
      <trkpt lat="48.73666" lon="1.75545">
        <ele>187.6</ele>
        <time>2023-04-27T12:51:24Z</time>
      </trkpt>
      <trkpt lat="48.73663" lon="1.75545">
        <ele>187.6</ele>
        <time>2023-04-27T12:51:26Z</time>
      </trkpt>
      <trkpt lat="48.7366" lon="1.75545">
        <ele>187.6</ele>
        <time>2023-04-27T12:51:28Z</time>
      </trkpt>
      <trkpt lat="48.73658" lon="1.75545">
        <ele>187.4</ele>
        <time>2023-04-27T12:51:30Z</time>
      </trkpt>
      <trkpt lat="48.73655" lon="1.75544">
        <ele>187.4</ele>
        <time>2023-04-27T12:51:32Z</time>
      </trkpt>
      <trkpt lat="48.73653" lon="1.75543">
        <ele>187.2</ele>
        <time>2023-04-27T12:51:34Z</time>
      </trkpt>
      <trkpt lat="48.7365" lon="1.75543">
        <ele>187.2</ele>
        <time>2023-04-27T12:51:36Z</time>
      </trkpt>
      <trkpt lat="48.73647" lon="1.75543">
        <ele>187.2</ele>
        <time>2023-04-27T12:51:38Z</time>
      </trkpt>
      <trkpt lat="48.73644" lon="1.75543">
        <ele>187.4</ele>
        <time>2023-04-27T12:51:40Z</time>
      </trkpt>
      <trkpt lat="48.73641" lon="1.75544">
        <ele>187.6</ele>
        <time>2023-04-27T12:51:42Z</time>
      </trkpt>
      <trkpt lat="48.73638" lon="1.75545">
        <ele>187.8</ele>
        <time>2023-04-27T12:51:44Z</time>
      </trkpt>
      <trkpt lat="48.73636" lon="1.75546">
        <ele>187.8</ele>
        <time>2023-04-27T12:51:46Z</time>
      </trkpt>
      <trkpt lat="48.73635" lon="1.75546">
        <ele>188</ele>
        <time>2023-04-27T12:51:48Z</time>
      </trkpt>
      <trkpt lat="48.73632" lon="1.75547">
        <ele>188</ele>
        <time>2023-04-27T12:51:50Z</time>
      </trkpt>
      <trkpt lat="48.73629" lon="1.75547">
        <ele>188.2</ele>
        <time>2023-04-27T12:51:52Z</time>
      </trkpt>
      <trkpt lat="48.73628" lon="1.75547">
        <ele>188.2</ele>
        <time>2023-04-27T12:51:53Z</time>
      </trkpt>
      <trkpt lat="48.73626" lon="1.75547">
        <ele>188.2</ele>
        <time>2023-04-27T12:51:54Z</time>
      </trkpt>
      <trkpt lat="48.73624" lon="1.75547">
        <ele>188.4</ele>
        <time>2023-04-27T12:51:55Z</time>
      </trkpt>
      <trkpt lat="48.73622" lon="1.75547">
        <ele>188.4</ele>
        <time>2023-04-27T12:51:56Z</time>
      </trkpt>
      <trkpt lat="48.7362" lon="1.75548">
        <ele>188.4</ele>
        <time>2023-04-27T12:51:57Z</time>
      </trkpt>
      <trkpt lat="48.73618" lon="1.75549">
        <ele>188.6</ele>
        <time>2023-04-27T12:51:58Z</time>
      </trkpt>
      <trkpt lat="48.73616" lon="1.75549">
        <ele>188.6</ele>
        <time>2023-04-27T12:51:59Z</time>
      </trkpt>
      <trkpt lat="48.73612" lon="1.7555">
        <ele>188.8</ele>
        <time>2023-04-27T12:52:01Z</time>
      </trkpt>
      <trkpt lat="48.7361" lon="1.75551">
        <ele>188.8</ele>
        <time>2023-04-27T12:52:03Z</time>
      </trkpt>
      <trkpt lat="48.73607" lon="1.75552">
        <ele>189</ele>
        <time>2023-04-27T12:52:05Z</time>
      </trkpt>
      <trkpt lat="48.73604" lon="1.75553">
        <ele>189.2</ele>
        <time>2023-04-27T12:52:07Z</time>
      </trkpt>
      <trkpt lat="48.73601" lon="1.75554">
        <ele>189.4</ele>
        <time>2023-04-27T12:52:09Z</time>
      </trkpt>
      <trkpt lat="48.73599" lon="1.75555">
        <ele>189.6</ele>
        <time>2023-04-27T12:52:10Z</time>
      </trkpt>
      <trkpt lat="48.73596" lon="1.75556">
        <ele>189.8</ele>
        <time>2023-04-27T12:52:12Z</time>
      </trkpt>
      <trkpt lat="48.73593" lon="1.75558">
        <ele>190</ele>
        <time>2023-04-27T12:52:14Z</time>
      </trkpt>
      <trkpt lat="48.73591" lon="1.7556">
        <ele>190.2</ele>
        <time>2023-04-27T12:52:16Z</time>
      </trkpt>
      <trkpt lat="48.73589" lon="1.75561">
        <ele>190.2</ele>
        <time>2023-04-27T12:52:18Z</time>
      </trkpt>
      <trkpt lat="48.73587" lon="1.75562">
        <ele>190.2</ele>
        <time>2023-04-27T12:52:20Z</time>
      </trkpt>
      <trkpt lat="48.73584" lon="1.75562">
        <ele>190</ele>
        <time>2023-04-27T12:52:22Z</time>
      </trkpt>
      <trkpt lat="48.73582" lon="1.75563">
        <ele>190</ele>
        <time>2023-04-27T12:52:24Z</time>
      </trkpt>
      <trkpt lat="48.73579" lon="1.75564">
        <ele>189.8</ele>
        <time>2023-04-27T12:52:26Z</time>
      </trkpt>
      <trkpt lat="48.73576" lon="1.75566">
        <ele>189.8</ele>
        <time>2023-04-27T12:52:28Z</time>
      </trkpt>
      <trkpt lat="48.73574" lon="1.75568">
        <ele>189.8</ele>
        <time>2023-04-27T12:52:30Z</time>
      </trkpt>
      <trkpt lat="48.73572" lon="1.7557">
        <ele>189.8</ele>
        <time>2023-04-27T12:52:32Z</time>
      </trkpt>
      <trkpt lat="48.7357" lon="1.75572">
        <ele>189.8</ele>
        <time>2023-04-27T12:52:34Z</time>
      </trkpt>
      <trkpt lat="48.73568" lon="1.75574">
        <ele>189.8</ele>
        <time>2023-04-27T12:52:36Z</time>
      </trkpt>
      <trkpt lat="48.73564" lon="1.75576">
        <ele>190</ele>
        <time>2023-04-27T12:52:38Z</time>
      </trkpt>
      <trkpt lat="48.73563" lon="1.75578">
        <ele>190</ele>
        <time>2023-04-27T12:52:39Z</time>
      </trkpt>
      <trkpt lat="48.7356" lon="1.75579">
        <ele>190</ele>
        <time>2023-04-27T12:52:41Z</time>
      </trkpt>
      <trkpt lat="48.73558" lon="1.7558">
        <ele>190</ele>
        <time>2023-04-27T12:52:42Z</time>
      </trkpt>
      <trkpt lat="48.73555" lon="1.75582">
        <ele>190</ele>
        <time>2023-04-27T12:52:44Z</time>
      </trkpt>
      <trkpt lat="48.73551" lon="1.75584">
        <ele>190</ele>
        <time>2023-04-27T12:52:46Z</time>
      </trkpt>
      <trkpt lat="48.73548" lon="1.75585">
        <ele>190</ele>
        <time>2023-04-27T12:52:48Z</time>
      </trkpt>
      <trkpt lat="48.73546" lon="1.75587">
        <ele>189.8</ele>
        <time>2023-04-27T12:52:50Z</time>
      </trkpt>
      <trkpt lat="48.73543" lon="1.75588">
        <ele>189.8</ele>
        <time>2023-04-27T12:52:52Z</time>
      </trkpt>
      <trkpt lat="48.73541" lon="1.75589">
        <ele>189.6</ele>
        <time>2023-04-27T12:52:54Z</time>
      </trkpt>
      <trkpt lat="48.73539" lon="1.75589">
        <ele>189.2</ele>
        <time>2023-04-27T12:52:57Z</time>
      </trkpt>
      <trkpt lat="48.73537" lon="1.75591">
        <ele>189</ele>
        <time>2023-04-27T12:52:59Z</time>
      </trkpt>
      <trkpt lat="48.73535" lon="1.75593">
        <ele>188.8</ele>
        <time>2023-04-27T12:53:01Z</time>
      </trkpt>
      <trkpt lat="48.73533" lon="1.75594">
        <ele>188.6</ele>
        <time>2023-04-27T12:53:02Z</time>
      </trkpt>
      <trkpt lat="48.73531" lon="1.75597">
        <ele>188.4</ele>
        <time>2023-04-27T12:53:04Z</time>
      </trkpt>
      <trkpt lat="48.73528" lon="1.756">
        <ele>188.2</ele>
        <time>2023-04-27T12:53:06Z</time>
      </trkpt>
      <trkpt lat="48.73525" lon="1.75602">
        <ele>188</ele>
        <time>2023-04-27T12:53:08Z</time>
      </trkpt>
      <trkpt lat="48.73522" lon="1.75604">
        <ele>187.8</ele>
        <time>2023-04-27T12:53:10Z</time>
      </trkpt>
      <trkpt lat="48.7352" lon="1.75605">
        <ele>187.8</ele>
        <time>2023-04-27T12:53:11Z</time>
      </trkpt>
      <trkpt lat="48.73518" lon="1.75606">
        <ele>187.6</ele>
        <time>2023-04-27T12:53:12Z</time>
      </trkpt>
      <trkpt lat="48.73516" lon="1.75607">
        <ele>187.6</ele>
        <time>2023-04-27T12:53:13Z</time>
      </trkpt>
      <trkpt lat="48.73514" lon="1.75608">
        <ele>187.4</ele>
        <time>2023-04-27T12:53:14Z</time>
      </trkpt>
      <trkpt lat="48.73512" lon="1.7561">
        <ele>187.4</ele>
        <time>2023-04-27T12:53:15Z</time>
      </trkpt>
      <trkpt lat="48.73509" lon="1.75612">
        <ele>187.2</ele>
        <time>2023-04-27T12:53:17Z</time>
      </trkpt>
      <trkpt lat="48.73507" lon="1.75613">
        <ele>187</ele>
        <time>2023-04-27T12:53:19Z</time>
      </trkpt>
      <trkpt lat="48.73504" lon="1.75614">
        <ele>187</ele>
        <time>2023-04-27T12:53:21Z</time>
      </trkpt>
      <trkpt lat="48.73501" lon="1.75615">
        <ele>187</ele>
        <time>2023-04-27T12:53:23Z</time>
      </trkpt>
      <trkpt lat="48.73498" lon="1.75616">
        <ele>187</ele>
        <time>2023-04-27T12:53:25Z</time>
      </trkpt>
      <trkpt lat="48.73495" lon="1.75618">
        <ele>187.2</ele>
        <time>2023-04-27T12:53:27Z</time>
      </trkpt>
      <trkpt lat="48.73493" lon="1.75619">
        <ele>187.2</ele>
        <time>2023-04-27T12:53:28Z</time>
      </trkpt>
      <trkpt lat="48.73492" lon="1.7562">
        <ele>187.4</ele>
        <time>2023-04-27T12:53:29Z</time>
      </trkpt>
      <trkpt lat="48.73489" lon="1.75623">
        <ele>187.4</ele>
        <time>2023-04-27T12:53:31Z</time>
      </trkpt>
      <trkpt lat="48.73486" lon="1.75625">
        <ele>187.4</ele>
        <time>2023-04-27T12:53:33Z</time>
      </trkpt>
      <trkpt lat="48.73484" lon="1.75626">
        <ele>187.4</ele>
        <time>2023-04-27T12:53:35Z</time>
      </trkpt>
      <trkpt lat="48.73481" lon="1.75628">
        <ele>187.4</ele>
        <time>2023-04-27T12:53:37Z</time>
      </trkpt>
      <trkpt lat="48.73478" lon="1.75631">
        <ele>187.4</ele>
        <time>2023-04-27T12:53:39Z</time>
      </trkpt>
      <trkpt lat="48.73476" lon="1.75634">
        <ele>187.4</ele>
        <time>2023-04-27T12:53:41Z</time>
      </trkpt>
      <trkpt lat="48.73474" lon="1.75636">
        <ele>187.6</ele>
        <time>2023-04-27T12:53:43Z</time>
      </trkpt>
      <trkpt lat="48.73471" lon="1.75638">
        <ele>187.8</ele>
        <time>2023-04-27T12:53:45Z</time>
      </trkpt>
      <trkpt lat="48.73469" lon="1.75639">
        <ele>188</ele>
        <time>2023-04-27T12:53:47Z</time>
      </trkpt>
      <trkpt lat="48.73466" lon="1.7564">
        <ele>188.2</ele>
        <time>2023-04-27T12:53:49Z</time>
      </trkpt>
      <trkpt lat="48.73464" lon="1.75642">
        <ele>188.6</ele>
        <time>2023-04-27T12:53:51Z</time>
      </trkpt>
      <trkpt lat="48.73461" lon="1.75644">
        <ele>188.8</ele>
        <time>2023-04-27T12:53:53Z</time>
      </trkpt>
      <trkpt lat="48.73459" lon="1.75647">
        <ele>189.4</ele>
        <time>2023-04-27T12:53:56Z</time>
      </trkpt>
      <trkpt lat="48.73457" lon="1.75649">
        <ele>189.8</ele>
        <time>2023-04-27T12:53:58Z</time>
      </trkpt>
      <trkpt lat="48.73455" lon="1.75651">
        <ele>190</ele>
        <time>2023-04-27T12:54:00Z</time>
      </trkpt>
      <trkpt lat="48.73453" lon="1.75654">
        <ele>190.2</ele>
        <time>2023-04-27T12:54:02Z</time>
      </trkpt>
      <trkpt lat="48.73452" lon="1.75656">
        <ele>190.4</ele>
        <time>2023-04-27T12:54:04Z</time>
      </trkpt>
      <trkpt lat="48.73449" lon="1.75659">
        <ele>190.4</ele>
        <time>2023-04-27T12:54:06Z</time>
      </trkpt>
      <trkpt lat="48.73448" lon="1.7566">
        <ele>190.4</ele>
        <time>2023-04-27T12:54:08Z</time>
      </trkpt>
      <trkpt lat="48.73446" lon="1.75663">
        <ele>190.4</ele>
        <time>2023-04-27T12:54:11Z</time>
      </trkpt>
      <trkpt lat="48.73444" lon="1.75664">
        <ele>190.4</ele>
        <time>2023-04-27T12:54:13Z</time>
      </trkpt>
      <trkpt lat="48.73441" lon="1.75666">
        <ele>190.2</ele>
        <time>2023-04-27T12:54:15Z</time>
      </trkpt>
      <trkpt lat="48.73438" lon="1.75667">
        <ele>190.2</ele>
        <time>2023-04-27T12:54:17Z</time>
      </trkpt>
      <trkpt lat="48.73435" lon="1.75669">
        <ele>190.2</ele>
        <time>2023-04-27T12:54:19Z</time>
      </trkpt>
      <trkpt lat="48.73433" lon="1.7567">
        <ele>190.2</ele>
        <time>2023-04-27T12:54:20Z</time>
      </trkpt>
      <trkpt lat="48.73431" lon="1.75672">
        <ele>190.2</ele>
        <time>2023-04-27T12:54:21Z</time>
      </trkpt>
      <trkpt lat="48.73429" lon="1.75673">
        <ele>190.2</ele>
        <time>2023-04-27T12:54:22Z</time>
      </trkpt>
      <trkpt lat="48.73427" lon="1.75673">
        <ele>190.2</ele>
        <time>2023-04-27T12:54:23Z</time>
      </trkpt>
      <trkpt lat="48.73424" lon="1.75675">
        <ele>190.2</ele>
        <time>2023-04-27T12:54:25Z</time>
      </trkpt>
      <trkpt lat="48.73422" lon="1.75675">
        <ele>190.2</ele>
        <time>2023-04-27T12:54:26Z</time>
      </trkpt>
      <trkpt lat="48.73418" lon="1.75677">
        <ele>190.2</ele>
        <time>2023-04-27T12:54:28Z</time>
      </trkpt>
      <trkpt lat="48.73416" lon="1.75677">
        <ele>190.2</ele>
        <time>2023-04-27T12:54:29Z</time>
      </trkpt>
      <trkpt lat="48.73414" lon="1.75678">
        <ele>190.2</ele>
        <time>2023-04-27T12:54:30Z</time>
      </trkpt>
      <trkpt lat="48.73411" lon="1.75681">
        <ele>190</ele>
        <time>2023-04-27T12:54:32Z</time>
      </trkpt>
      <trkpt lat="48.73407" lon="1.75683">
        <ele>190</ele>
        <time>2023-04-27T12:54:34Z</time>
      </trkpt>
      <trkpt lat="48.73404" lon="1.75685">
        <ele>189.8</ele>
        <time>2023-04-27T12:54:36Z</time>
      </trkpt>
      <trkpt lat="48.73401" lon="1.75687">
        <ele>189.8</ele>
        <time>2023-04-27T12:54:38Z</time>
      </trkpt>
      <trkpt lat="48.734" lon="1.75689">
        <ele>189.8</ele>
        <time>2023-04-27T12:54:39Z</time>
      </trkpt>
      <trkpt lat="48.73398" lon="1.7569">
        <ele>189.8</ele>
        <time>2023-04-27T12:54:40Z</time>
      </trkpt>
      <trkpt lat="48.73396" lon="1.75691">
        <ele>189.8</ele>
        <time>2023-04-27T12:54:41Z</time>
      </trkpt>
      <trkpt lat="48.73394" lon="1.75693">
        <ele>190</ele>
        <time>2023-04-27T12:54:42Z</time>
      </trkpt>
      <trkpt lat="48.73391" lon="1.75695">
        <ele>190</ele>
        <time>2023-04-27T12:54:44Z</time>
      </trkpt>
      <trkpt lat="48.73389" lon="1.75695">
        <ele>190.2</ele>
        <time>2023-04-27T12:54:45Z</time>
      </trkpt>
      <trkpt lat="48.73387" lon="1.75696">
        <ele>190.2</ele>
        <time>2023-04-27T12:54:46Z</time>
      </trkpt>
      <trkpt lat="48.73384" lon="1.75697">
        <ele>190.4</ele>
        <time>2023-04-27T12:54:48Z</time>
      </trkpt>
      <trkpt lat="48.73381" lon="1.757">
        <ele>190.4</ele>
        <time>2023-04-27T12:54:50Z</time>
      </trkpt>
      <trkpt lat="48.7338" lon="1.75701">
        <ele>190.4</ele>
        <time>2023-04-27T12:54:51Z</time>
      </trkpt>
      <trkpt lat="48.73378" lon="1.75703">
        <ele>190.2</ele>
        <time>2023-04-27T12:54:52Z</time>
      </trkpt>
      <trkpt lat="48.73375" lon="1.75705">
        <ele>190</ele>
        <time>2023-04-27T12:54:54Z</time>
      </trkpt>
      <trkpt lat="48.73372" lon="1.75707">
        <ele>189.6</ele>
        <time>2023-04-27T12:54:56Z</time>
      </trkpt>
      <trkpt lat="48.7337" lon="1.7571">
        <ele>189.2</ele>
        <time>2023-04-27T12:54:58Z</time>
      </trkpt>
      <trkpt lat="48.73368" lon="1.75713">
        <ele>188.8</ele>
        <time>2023-04-27T12:55:00Z</time>
      </trkpt>
      <trkpt lat="48.73365" lon="1.75715">
        <ele>188.6</ele>
        <time>2023-04-27T12:55:02Z</time>
      </trkpt>
      <trkpt lat="48.73362" lon="1.75717">
        <ele>188.2</ele>
        <time>2023-04-27T12:55:04Z</time>
      </trkpt>
      <trkpt lat="48.73359" lon="1.75719">
        <ele>188</ele>
        <time>2023-04-27T12:55:06Z</time>
      </trkpt>
      <trkpt lat="48.73356" lon="1.75722">
        <ele>187.8</ele>
        <time>2023-04-27T12:55:08Z</time>
      </trkpt>
      <trkpt lat="48.73353" lon="1.75723">
        <ele>187.6</ele>
        <time>2023-04-27T12:55:10Z</time>
      </trkpt>
      <trkpt lat="48.7335" lon="1.75725">
        <ele>187.4</ele>
        <time>2023-04-27T12:55:12Z</time>
      </trkpt>
      <trkpt lat="48.73348" lon="1.75727">
        <ele>187.2</ele>
        <time>2023-04-27T12:55:13Z</time>
      </trkpt>
      <trkpt lat="48.73346" lon="1.7573">
        <ele>186.8</ele>
        <time>2023-04-27T12:55:15Z</time>
      </trkpt>
      <trkpt lat="48.73343" lon="1.75733">
        <ele>186.4</ele>
        <time>2023-04-27T12:55:17Z</time>
      </trkpt>
      <trkpt lat="48.73342" lon="1.75735">
        <ele>186</ele>
        <time>2023-04-27T12:55:18Z</time>
      </trkpt>
      <trkpt lat="48.73339" lon="1.75736">
        <ele>185.6</ele>
        <time>2023-04-27T12:55:20Z</time>
      </trkpt>
      <trkpt lat="48.73337" lon="1.75738">
        <ele>185.2</ele>
        <time>2023-04-27T12:55:22Z</time>
      </trkpt>
      <trkpt lat="48.73334" lon="1.75739">
        <ele>184.8</ele>
        <time>2023-04-27T12:55:24Z</time>
      </trkpt>
      <trkpt lat="48.73332" lon="1.75741">
        <ele>184.6</ele>
        <time>2023-04-27T12:55:26Z</time>
      </trkpt>
      <trkpt lat="48.7333" lon="1.75744">
        <ele>184.4</ele>
        <time>2023-04-27T12:55:28Z</time>
      </trkpt>
      <trkpt lat="48.73327" lon="1.75746">
        <ele>184.2</ele>
        <time>2023-04-27T12:55:30Z</time>
      </trkpt>
      <trkpt lat="48.73324" lon="1.75747">
        <ele>184</ele>
        <time>2023-04-27T12:55:32Z</time>
      </trkpt>
      <trkpt lat="48.73321" lon="1.75748">
        <ele>183.8</ele>
        <time>2023-04-27T12:55:34Z</time>
      </trkpt>
      <trkpt lat="48.73318" lon="1.75749">
        <ele>183.8</ele>
        <time>2023-04-27T12:55:36Z</time>
      </trkpt>
      <trkpt lat="48.73316" lon="1.7575">
        <ele>183.8</ele>
        <time>2023-04-27T12:55:38Z</time>
      </trkpt>
      <trkpt lat="48.73314" lon="1.75752">
        <ele>183.8</ele>
        <time>2023-04-27T12:55:40Z</time>
      </trkpt>
      <trkpt lat="48.73311" lon="1.75754">
        <ele>183.6</ele>
        <time>2023-04-27T12:55:42Z</time>
      </trkpt>
      <trkpt lat="48.73308" lon="1.75758">
        <ele>183.6</ele>
        <time>2023-04-27T12:55:44Z</time>
      </trkpt>
      <trkpt lat="48.73306" lon="1.75762">
        <ele>183.4</ele>
        <time>2023-04-27T12:55:46Z</time>
      </trkpt>
      <trkpt lat="48.73305" lon="1.75764">
        <ele>183.2</ele>
        <time>2023-04-27T12:55:47Z</time>
      </trkpt>
      <trkpt lat="48.73302" lon="1.75767">
        <ele>183.2</ele>
        <time>2023-04-27T12:55:49Z</time>
      </trkpt>
      <trkpt lat="48.733" lon="1.75769">
        <ele>183.2</ele>
        <time>2023-04-27T12:55:51Z</time>
      </trkpt>
      <trkpt lat="48.73297" lon="1.7577">
        <ele>183.2</ele>
        <time>2023-04-27T12:55:53Z</time>
      </trkpt>
      <trkpt lat="48.73294" lon="1.75772">
        <ele>183</ele>
        <time>2023-04-27T12:55:55Z</time>
      </trkpt>
      <trkpt lat="48.73292" lon="1.75775">
        <ele>182.8</ele>
        <time>2023-04-27T12:55:57Z</time>
      </trkpt>
      <trkpt lat="48.73289" lon="1.75778">
        <ele>182.6</ele>
        <time>2023-04-27T12:55:59Z</time>
      </trkpt>
      <trkpt lat="48.73286" lon="1.7578">
        <ele>182.4</ele>
        <time>2023-04-27T12:56:01Z</time>
      </trkpt>
      <trkpt lat="48.73284" lon="1.75782">
        <ele>182.2</ele>
        <time>2023-04-27T12:56:03Z</time>
      </trkpt>
      <trkpt lat="48.73282" lon="1.75784">
        <ele>182.2</ele>
        <time>2023-04-27T12:56:04Z</time>
      </trkpt>
      <trkpt lat="48.73281" lon="1.75785">
        <ele>182</ele>
        <time>2023-04-27T12:56:05Z</time>
      </trkpt>
      <trkpt lat="48.73279" lon="1.75787">
        <ele>182</ele>
        <time>2023-04-27T12:56:06Z</time>
      </trkpt>
      <trkpt lat="48.73278" lon="1.75789">
        <ele>181.8</ele>
        <time>2023-04-27T12:56:07Z</time>
      </trkpt>
      <trkpt lat="48.73276" lon="1.75791">
        <ele>181.8</ele>
        <time>2023-04-27T12:56:08Z</time>
      </trkpt>
      <trkpt lat="48.73275" lon="1.75793">
        <ele>181.8</ele>
        <time>2023-04-27T12:56:09Z</time>
      </trkpt>
      <trkpt lat="48.73273" lon="1.75795">
        <ele>181.6</ele>
        <time>2023-04-27T12:56:11Z</time>
      </trkpt>
      <trkpt lat="48.7327" lon="1.75796">
        <ele>181.6</ele>
        <time>2023-04-27T12:56:13Z</time>
      </trkpt>
      <trkpt lat="48.73268" lon="1.75798">
        <ele>181.6</ele>
        <time>2023-04-27T12:56:15Z</time>
      </trkpt>
      <trkpt lat="48.73265" lon="1.758">
        <ele>181.6</ele>
        <time>2023-04-27T12:56:17Z</time>
      </trkpt>
      <trkpt lat="48.73263" lon="1.75801">
        <ele>181.6</ele>
        <time>2023-04-27T12:56:18Z</time>
      </trkpt>
      <trkpt lat="48.73261" lon="1.75802">
        <ele>181.6</ele>
        <time>2023-04-27T12:56:19Z</time>
      </trkpt>
      <trkpt lat="48.73259" lon="1.75803">
        <ele>181.6</ele>
        <time>2023-04-27T12:56:20Z</time>
      </trkpt>
      <trkpt lat="48.73257" lon="1.75804">
        <ele>181.8</ele>
        <time>2023-04-27T12:56:21Z</time>
      </trkpt>
      <trkpt lat="48.73254" lon="1.75808">
        <ele>181.8</ele>
        <time>2023-04-27T12:56:23Z</time>
      </trkpt>
      <trkpt lat="48.73252" lon="1.75809">
        <ele>181.8</ele>
        <time>2023-04-27T12:56:24Z</time>
      </trkpt>
      <trkpt lat="48.73251" lon="1.75811">
        <ele>181.8</ele>
        <time>2023-04-27T12:56:25Z</time>
      </trkpt>
      <trkpt lat="48.73248" lon="1.75814">
        <ele>181.8</ele>
        <time>2023-04-27T12:56:27Z</time>
      </trkpt>
      <trkpt lat="48.73247" lon="1.75816">
        <ele>182</ele>
        <time>2023-04-27T12:56:28Z</time>
      </trkpt>
      <trkpt lat="48.73245" lon="1.75818">
        <ele>182</ele>
        <time>2023-04-27T12:56:29Z</time>
      </trkpt>
      <trkpt lat="48.73242" lon="1.75821">
        <ele>182.2</ele>
        <time>2023-04-27T12:56:31Z</time>
      </trkpt>
      <trkpt lat="48.73241" lon="1.75823">
        <ele>182.4</ele>
        <time>2023-04-27T12:56:32Z</time>
      </trkpt>
      <trkpt lat="48.73239" lon="1.75825">
        <ele>182.6</ele>
        <time>2023-04-27T12:56:33Z</time>
      </trkpt>
      <trkpt lat="48.73237" lon="1.75826">
        <ele>182.6</ele>
        <time>2023-04-27T12:56:34Z</time>
      </trkpt>
      <trkpt lat="48.73235" lon="1.75828">
        <ele>182.8</ele>
        <time>2023-04-27T12:56:35Z</time>
      </trkpt>
      <trkpt lat="48.73232" lon="1.75829">
        <ele>183</ele>
        <time>2023-04-27T12:56:37Z</time>
      </trkpt>
      <trkpt lat="48.73229" lon="1.7583">
        <ele>183.4</ele>
        <time>2023-04-27T12:56:39Z</time>
      </trkpt>
      <trkpt lat="48.73227" lon="1.75832">
        <ele>183.8</ele>
        <time>2023-04-27T12:56:41Z</time>
      </trkpt>
      <trkpt lat="48.73224" lon="1.75834">
        <ele>184.2</ele>
        <time>2023-04-27T12:56:43Z</time>
      </trkpt>
      <trkpt lat="48.73222" lon="1.75836">
        <ele>184.8</ele>
        <time>2023-04-27T12:56:45Z</time>
      </trkpt>
      <trkpt lat="48.7322" lon="1.75837">
        <ele>185.2</ele>
        <time>2023-04-27T12:56:47Z</time>
      </trkpt>
      <trkpt lat="48.73217" lon="1.75839">
        <ele>185.6</ele>
        <time>2023-04-27T12:56:49Z</time>
      </trkpt>
      <trkpt lat="48.73214" lon="1.75841">
        <ele>186</ele>
        <time>2023-04-27T12:56:51Z</time>
      </trkpt>
      <trkpt lat="48.73212" lon="1.75843">
        <ele>186.6</ele>
        <time>2023-04-27T12:56:53Z</time>
      </trkpt>
      <trkpt lat="48.7321" lon="1.75845">
        <ele>187</ele>
        <time>2023-04-27T12:56:56Z</time>
      </trkpt>
      <trkpt lat="48.73207" lon="1.75846">
        <ele>187.4</ele>
        <time>2023-04-27T12:56:58Z</time>
      </trkpt>
      <trkpt lat="48.73205" lon="1.75847">
        <ele>187.6</ele>
        <time>2023-04-27T12:57:00Z</time>
      </trkpt>
      <trkpt lat="48.73202" lon="1.75847">
        <ele>188</ele>
        <time>2023-04-27T12:57:02Z</time>
      </trkpt>
      <trkpt lat="48.73199" lon="1.75848">
        <ele>188.2</ele>
        <time>2023-04-27T12:57:04Z</time>
      </trkpt>
      <trkpt lat="48.73197" lon="1.75848">
        <ele>188.4</ele>
        <time>2023-04-27T12:57:05Z</time>
      </trkpt>
      <trkpt lat="48.73194" lon="1.75849">
        <ele>188.4</ele>
        <time>2023-04-27T12:57:07Z</time>
      </trkpt>
      <trkpt lat="48.73191" lon="1.75851">
        <ele>188.4</ele>
        <time>2023-04-27T12:57:09Z</time>
      </trkpt>
      <trkpt lat="48.73188" lon="1.75853">
        <ele>188.4</ele>
        <time>2023-04-27T12:57:11Z</time>
      </trkpt>
      <trkpt lat="48.73187" lon="1.75855">
        <ele>188.4</ele>
        <time>2023-04-27T12:57:12Z</time>
      </trkpt>
      <trkpt lat="48.73185" lon="1.75856">
        <ele>188.2</ele>
        <time>2023-04-27T12:57:13Z</time>
      </trkpt>
      <trkpt lat="48.73181" lon="1.75858">
        <ele>188.2</ele>
        <time>2023-04-27T12:57:15Z</time>
      </trkpt>
      <trkpt lat="48.7318" lon="1.75859">
        <ele>188.2</ele>
        <time>2023-04-27T12:57:16Z</time>
      </trkpt>
      <trkpt lat="48.73178" lon="1.7586">
        <ele>188.2</ele>
        <time>2023-04-27T12:57:17Z</time>
      </trkpt>
      <trkpt lat="48.73176" lon="1.75861">
        <ele>188.2</ele>
        <time>2023-04-27T12:57:18Z</time>
      </trkpt>
      <trkpt lat="48.73174" lon="1.75863">
        <ele>188.2</ele>
        <time>2023-04-27T12:57:19Z</time>
      </trkpt>
      <trkpt lat="48.73172" lon="1.75864">
        <ele>188.4</ele>
        <time>2023-04-27T12:57:20Z</time>
      </trkpt>
      <trkpt lat="48.7317" lon="1.75866">
        <ele>188.4</ele>
        <time>2023-04-27T12:57:21Z</time>
      </trkpt>
      <trkpt lat="48.73168" lon="1.75867">
        <ele>188.2</ele>
        <time>2023-04-27T12:57:22Z</time>
      </trkpt>
      <trkpt lat="48.73166" lon="1.75868">
        <ele>188.2</ele>
        <time>2023-04-27T12:57:23Z</time>
      </trkpt>
      <trkpt lat="48.73163" lon="1.7587">
        <ele>188</ele>
        <time>2023-04-27T12:57:25Z</time>
      </trkpt>
      <trkpt lat="48.73161" lon="1.75871">
        <ele>187.8</ele>
        <time>2023-04-27T12:57:27Z</time>
      </trkpt>
      <trkpt lat="48.73159" lon="1.75872">
        <ele>187.6</ele>
        <time>2023-04-27T12:57:29Z</time>
      </trkpt>
      <trkpt lat="48.73157" lon="1.75873">
        <ele>187.6</ele>
        <time>2023-04-27T12:57:31Z</time>
      </trkpt>
      <trkpt lat="48.73155" lon="1.75873">
        <ele>187.4</ele>
        <time>2023-04-27T12:57:33Z</time>
      </trkpt>
      <trkpt lat="48.73152" lon="1.75873">
        <ele>187.2</ele>
        <time>2023-04-27T12:57:35Z</time>
      </trkpt>
      <trkpt lat="48.73149" lon="1.75874">
        <ele>187</ele>
        <time>2023-04-27T12:57:37Z</time>
      </trkpt>
      <trkpt lat="48.73147" lon="1.75875">
        <ele>186.6</ele>
        <time>2023-04-27T12:57:39Z</time>
      </trkpt>
      <trkpt lat="48.73145" lon="1.75877">
        <ele>186</ele>
        <time>2023-04-27T12:57:41Z</time>
      </trkpt>
      <trkpt lat="48.73142" lon="1.75878">
        <ele>185.6</ele>
        <time>2023-04-27T12:57:43Z</time>
      </trkpt>
      <trkpt lat="48.7314" lon="1.7588">
        <ele>185.2</ele>
        <time>2023-04-27T12:57:45Z</time>
      </trkpt>
      <trkpt lat="48.73138" lon="1.75881">
        <ele>184.4</ele>
        <time>2023-04-27T12:57:49Z</time>
      </trkpt>
      <trkpt lat="48.73136" lon="1.75883">
        <ele>183</ele>
        <time>2023-04-27T12:57:59Z</time>
      </trkpt>
      <trkpt lat="48.73134" lon="1.75885">
        <ele>182.8</ele>
        <time>2023-04-27T12:58:01Z</time>
      </trkpt>
      <trkpt lat="48.73133" lon="1.75888">
        <ele>182.4</ele>
        <time>2023-04-27T12:58:04Z</time>
      </trkpt>
      <trkpt lat="48.73131" lon="1.75888">
        <ele>182</ele>
        <time>2023-04-27T12:58:10Z</time>
      </trkpt>
      <trkpt lat="48.73129" lon="1.75888">
        <ele>181.8</ele>
        <time>2023-04-27T12:58:12Z</time>
      </trkpt>
      <trkpt lat="48.73127" lon="1.7589">
        <ele>181.6</ele>
        <time>2023-04-27T12:58:14Z</time>
      </trkpt>
      <trkpt lat="48.73125" lon="1.75893">
        <ele>181.4</ele>
        <time>2023-04-27T12:58:16Z</time>
      </trkpt>
      <trkpt lat="48.73123" lon="1.75895">
        <ele>181.2</ele>
        <time>2023-04-27T12:58:18Z</time>
      </trkpt>
      <trkpt lat="48.73121" lon="1.75897">
        <ele>180.8</ele>
        <time>2023-04-27T12:58:20Z</time>
      </trkpt>
      <trkpt lat="48.73118" lon="1.75898">
        <ele>180.6</ele>
        <time>2023-04-27T12:58:23Z</time>
      </trkpt>
      <trkpt lat="48.73116" lon="1.759">
        <ele>180</ele>
        <time>2023-04-27T12:58:36Z</time>
      </trkpt>
      <trkpt lat="48.73114" lon="1.75902">
        <ele>179.8</ele>
        <time>2023-04-27T12:58:38Z</time>
      </trkpt>
      <trkpt lat="48.73111" lon="1.75904">
        <ele>179.4</ele>
        <time>2023-04-27T12:58:40Z</time>
      </trkpt>
      <trkpt lat="48.73109" lon="1.75906">
        <ele>179.2</ele>
        <time>2023-04-27T12:58:42Z</time>
      </trkpt>
      <trkpt lat="48.73106" lon="1.75908">
        <ele>179</ele>
        <time>2023-04-27T12:58:44Z</time>
      </trkpt>
      <trkpt lat="48.73104" lon="1.7591">
        <ele>178.8</ele>
        <time>2023-04-27T12:58:46Z</time>
      </trkpt>
      <trkpt lat="48.73101" lon="1.75911">
        <ele>178.4</ele>
        <time>2023-04-27T12:58:48Z</time>
      </trkpt>
      <trkpt lat="48.73098" lon="1.75913">
        <ele>178.2</ele>
        <time>2023-04-27T12:58:50Z</time>
      </trkpt>
      <trkpt lat="48.73096" lon="1.75915">
        <ele>178</ele>
        <time>2023-04-27T12:58:52Z</time>
      </trkpt>
      <trkpt lat="48.73093" lon="1.75917">
        <ele>177.8</ele>
        <time>2023-04-27T12:58:54Z</time>
      </trkpt>
      <trkpt lat="48.73091" lon="1.7592">
        <ele>177.8</ele>
        <time>2023-04-27T12:58:56Z</time>
      </trkpt>
      <trkpt lat="48.73089" lon="1.75922">
        <ele>177.6</ele>
        <time>2023-04-27T12:58:58Z</time>
      </trkpt>
      <trkpt lat="48.73086" lon="1.75924">
        <ele>177.6</ele>
        <time>2023-04-27T12:59:00Z</time>
      </trkpt>
      <trkpt lat="48.73084" lon="1.75927">
        <ele>177.4</ele>
        <time>2023-04-27T12:59:02Z</time>
      </trkpt>
      <trkpt lat="48.7308" lon="1.75929">
        <ele>177.4</ele>
        <time>2023-04-27T12:59:04Z</time>
      </trkpt>
      <trkpt lat="48.73078" lon="1.75931">
        <ele>177.4</ele>
        <time>2023-04-27T12:59:06Z</time>
      </trkpt>
      <trkpt lat="48.73076" lon="1.75935">
        <ele>177.2</ele>
        <time>2023-04-27T12:59:08Z</time>
      </trkpt>
      <trkpt lat="48.73074" lon="1.75937">
        <ele>177.2</ele>
        <time>2023-04-27T12:59:09Z</time>
      </trkpt>
      <trkpt lat="48.73072" lon="1.75941">
        <ele>177.4</ele>
        <time>2023-04-27T12:59:11Z</time>
      </trkpt>
      <trkpt lat="48.7307" lon="1.75943">
        <ele>177.6</ele>
        <time>2023-04-27T12:59:12Z</time>
      </trkpt>
      <trkpt lat="48.73068" lon="1.75946">
        <ele>177.8</ele>
        <time>2023-04-27T12:59:14Z</time>
      </trkpt>
      <trkpt lat="48.73066" lon="1.75947">
        <ele>178</ele>
        <time>2023-04-27T12:59:15Z</time>
      </trkpt>
      <trkpt lat="48.73064" lon="1.75948">
        <ele>178.2</ele>
        <time>2023-04-27T12:59:16Z</time>
      </trkpt>
      <trkpt lat="48.73062" lon="1.75949">
        <ele>178.2</ele>
        <time>2023-04-27T12:59:17Z</time>
      </trkpt>
      <trkpt lat="48.73059" lon="1.75951">
        <ele>178.6</ele>
        <time>2023-04-27T12:59:19Z</time>
      </trkpt>
      <trkpt lat="48.73057" lon="1.75952">
        <ele>178.8</ele>
        <time>2023-04-27T12:59:21Z</time>
      </trkpt>
      <trkpt lat="48.73055" lon="1.75954">
        <ele>179.2</ele>
        <time>2023-04-27T12:59:23Z</time>
      </trkpt>
      <trkpt lat="48.73053" lon="1.75957">
        <ele>179.4</ele>
        <time>2023-04-27T12:59:25Z</time>
        <extensions>
          <gpxtpx:TrackPointExtension xmlns:gpxtpx="http://www.garmin.com/xmlschemas/TrackPointExtension/v1">
            <gpxtpx:hr>97</gpxtpx:hr>
          </gpxtpx:TrackPointExtension>
        </extensions>
      </trkpt>
      <trkpt lat="48.73051" lon="1.7596">
        <ele>179.6</ele>
        <time>2023-04-27T12:59:27Z</time>
        <extensions>
          <gpxtpx:TrackPointExtension xmlns:gpxtpx="http://www.garmin.com/xmlschemas/TrackPointExtension/v1">
            <gpxtpx:hr>96</gpxtpx:hr>
          </gpxtpx:TrackPointExtension>
        </extensions>
      </trkpt>
      <trkpt lat="48.7305" lon="1.75962">
        <ele>179.8</ele>
        <time>2023-04-27T12:59:28Z</time>
        <extensions>
          <gpxtpx:TrackPointExtension xmlns:gpxtpx="http://www.garmin.com/xmlschemas/TrackPointExtension/v1">
            <gpxtpx:hr>92</gpxtpx:hr>
          </gpxtpx:TrackPointExtension>
        </extensions>
      </trkpt>
      <trkpt lat="48.73046" lon="1.75963">
        <ele>180</ele>
        <time>2023-04-27T12:59:30Z</time>
        <extensions>
          <gpxtpx:TrackPointExtension xmlns:gpxtpx="http://www.garmin.com/xmlschemas/TrackPointExtension/v1">
            <gpxtpx:hr>92</gpxtpx:hr>
          </gpxtpx:TrackPointExtension>
        </extensions>
      </trkpt>
      <trkpt lat="48.73043" lon="1.75964">
        <ele>180.4</ele>
        <time>2023-04-27T12:59:32Z</time>
        <extensions>
          <gpxtpx:TrackPointExtension xmlns:gpxtpx="http://www.garmin.com/xmlschemas/TrackPointExtension/v1">
            <gpxtpx:hr>92</gpxtpx:hr>
          </gpxtpx:TrackPointExtension>
        </extensions>
      </trkpt>
      <trkpt lat="48.7304" lon="1.75964">
        <ele>180.6</ele>
        <time>2023-04-27T12:59:34Z</time>
        <extensions>
          <gpxtpx:TrackPointExtension xmlns:gpxtpx="http://www.garmin.com/xmlschemas/TrackPointExtension/v1">
            <gpxtpx:hr>92</gpxtpx:hr>
          </gpxtpx:TrackPointExtension>
        </extensions>
      </trkpt>
      <trkpt lat="48.73038" lon="1.75964">
        <ele>180.6</ele>
        <time>2023-04-27T12:59:35Z</time>
        <extensions>
          <gpxtpx:TrackPointExtension xmlns:gpxtpx="http://www.garmin.com/xmlschemas/TrackPointExtension/v1">
            <gpxtpx:hr>92</gpxtpx:hr>
          </gpxtpx:TrackPointExtension>
        </extensions>
      </trkpt>
      <trkpt lat="48.73035" lon="1.75961">
        <ele>180.8</ele>
        <time>2023-04-27T12:59:37Z</time>
        <extensions>
          <gpxtpx:TrackPointExtension xmlns:gpxtpx="http://www.garmin.com/xmlschemas/TrackPointExtension/v1">
            <gpxtpx:hr>92</gpxtpx:hr>
          </gpxtpx:TrackPointExtension>
        </extensions>
      </trkpt>
      <trkpt lat="48.73033" lon="1.75957">
        <ele>180.6</ele>
        <time>2023-04-27T12:59:39Z</time>
        <extensions>
          <gpxtpx:TrackPointExtension xmlns:gpxtpx="http://www.garmin.com/xmlschemas/TrackPointExtension/v1">
            <gpxtpx:hr>92</gpxtpx:hr>
          </gpxtpx:TrackPointExtension>
        </extensions>
      </trkpt>
      <trkpt lat="48.73031" lon="1.75953">
        <ele>180.6</ele>
        <time>2023-04-27T12:59:41Z</time>
        <extensions>
          <gpxtpx:TrackPointExtension xmlns:gpxtpx="http://www.garmin.com/xmlschemas/TrackPointExtension/v1">
            <gpxtpx:hr>92</gpxtpx:hr>
          </gpxtpx:TrackPointExtension>
        </extensions>
      </trkpt>
      <trkpt lat="48.73031" lon="1.75947">
        <ele>180.4</ele>
        <time>2023-04-27T12:59:43Z</time>
        <extensions>
          <gpxtpx:TrackPointExtension xmlns:gpxtpx="http://www.garmin.com/xmlschemas/TrackPointExtension/v1">
            <gpxtpx:hr>92</gpxtpx:hr>
          </gpxtpx:TrackPointExtension>
        </extensions>
      </trkpt>
      <trkpt lat="48.73031" lon="1.75942">
        <ele>180.2</ele>
        <time>2023-04-27T12:59:45Z</time>
        <extensions>
          <gpxtpx:TrackPointExtension xmlns:gpxtpx="http://www.garmin.com/xmlschemas/TrackPointExtension/v1">
            <gpxtpx:hr>92</gpxtpx:hr>
          </gpxtpx:TrackPointExtension>
        </extensions>
      </trkpt>
      <trkpt lat="48.73031" lon="1.75937">
        <ele>180.2</ele>
        <time>2023-04-27T12:59:47Z</time>
        <extensions>
          <gpxtpx:TrackPointExtension xmlns:gpxtpx="http://www.garmin.com/xmlschemas/TrackPointExtension/v1">
            <gpxtpx:hr>93</gpxtpx:hr>
          </gpxtpx:TrackPointExtension>
        </extensions>
      </trkpt>
      <trkpt lat="48.73031" lon="1.75932">
        <ele>180</ele>
        <time>2023-04-27T12:59:49Z</time>
      </trkpt>
      <trkpt lat="48.73032" lon="1.75928">
        <ele>180</ele>
        <time>2023-04-27T12:59:51Z</time>
        <extensions>
          <gpxtpx:TrackPointExtension xmlns:gpxtpx="http://www.garmin.com/xmlschemas/TrackPointExtension/v1">
            <gpxtpx:hr>93</gpxtpx:hr>
          </gpxtpx:TrackPointExtension>
        </extensions>
      </trkpt>
      <trkpt lat="48.73032" lon="1.75924">
        <ele>180</ele>
        <time>2023-04-27T12:59:53Z</time>
        <extensions>
          <gpxtpx:TrackPointExtension xmlns:gpxtpx="http://www.garmin.com/xmlschemas/TrackPointExtension/v1">
            <gpxtpx:hr>93</gpxtpx:hr>
          </gpxtpx:TrackPointExtension>
        </extensions>
      </trkpt>
      <trkpt lat="48.73032" lon="1.75919">
        <ele>179.8</ele>
        <time>2023-04-27T12:59:55Z</time>
        <extensions>
          <gpxtpx:TrackPointExtension xmlns:gpxtpx="http://www.garmin.com/xmlschemas/TrackPointExtension/v1">
            <gpxtpx:hr>93</gpxtpx:hr>
          </gpxtpx:TrackPointExtension>
        </extensions>
      </trkpt>
      <trkpt lat="48.73032" lon="1.75915">
        <ele>179.6</ele>
        <time>2023-04-27T12:59:57Z</time>
        <extensions>
          <gpxtpx:TrackPointExtension xmlns:gpxtpx="http://www.garmin.com/xmlschemas/TrackPointExtension/v1">
            <gpxtpx:hr>93</gpxtpx:hr>
          </gpxtpx:TrackPointExtension>
        </extensions>
      </trkpt>
      <trkpt lat="48.73032" lon="1.75911">
        <ele>179.4</ele>
        <time>2023-04-27T12:59:59Z</time>
        <extensions>
          <gpxtpx:TrackPointExtension xmlns:gpxtpx="http://www.garmin.com/xmlschemas/TrackPointExtension/v1">
            <gpxtpx:hr>93</gpxtpx:hr>
          </gpxtpx:TrackPointExtension>
        </extensions>
      </trkpt>
      <trkpt lat="48.73032" lon="1.75907">
        <ele>179.4</ele>
        <time>2023-04-27T13:00:01Z</time>
        <extensions>
          <gpxtpx:TrackPointExtension xmlns:gpxtpx="http://www.garmin.com/xmlschemas/TrackPointExtension/v1">
            <gpxtpx:hr>93</gpxtpx:hr>
          </gpxtpx:TrackPointExtension>
        </extensions>
      </trkpt>
      <trkpt lat="48.73033" lon="1.75902">
        <ele>179.4</ele>
        <time>2023-04-27T13:00:03Z</time>
        <extensions>
          <gpxtpx:TrackPointExtension xmlns:gpxtpx="http://www.garmin.com/xmlschemas/TrackPointExtension/v1">
            <gpxtpx:hr>93</gpxtpx:hr>
          </gpxtpx:TrackPointExtension>
        </extensions>
      </trkpt>
      <trkpt lat="48.73033" lon="1.75898">
        <ele>179.2</ele>
        <time>2023-04-27T13:00:05Z</time>
        <extensions>
          <gpxtpx:TrackPointExtension xmlns:gpxtpx="http://www.garmin.com/xmlschemas/TrackPointExtension/v1">
            <gpxtpx:hr>93</gpxtpx:hr>
          </gpxtpx:TrackPointExtension>
        </extensions>
      </trkpt>
      <trkpt lat="48.73033" lon="1.75895">
        <ele>179.2</ele>
        <time>2023-04-27T13:00:07Z</time>
        <extensions>
          <gpxtpx:TrackPointExtension xmlns:gpxtpx="http://www.garmin.com/xmlschemas/TrackPointExtension/v1">
            <gpxtpx:hr>93</gpxtpx:hr>
          </gpxtpx:TrackPointExtension>
        </extensions>
      </trkpt>
      <trkpt lat="48.73033" lon="1.75891">
        <ele>179</ele>
        <time>2023-04-27T13:00:09Z</time>
        <extensions>
          <gpxtpx:TrackPointExtension xmlns:gpxtpx="http://www.garmin.com/xmlschemas/TrackPointExtension/v1">
            <gpxtpx:hr>92</gpxtpx:hr>
          </gpxtpx:TrackPointExtension>
        </extensions>
      </trkpt>
      <trkpt lat="48.73033" lon="1.75886">
        <ele>178.8</ele>
        <time>2023-04-27T13:00:11Z</time>
        <extensions>
          <gpxtpx:TrackPointExtension xmlns:gpxtpx="http://www.garmin.com/xmlschemas/TrackPointExtension/v1">
            <gpxtpx:hr>92</gpxtpx:hr>
          </gpxtpx:TrackPointExtension>
        </extensions>
      </trkpt>
      <trkpt lat="48.73032" lon="1.75881">
        <ele>178.8</ele>
        <time>2023-04-27T13:00:13Z</time>
        <extensions>
          <gpxtpx:TrackPointExtension xmlns:gpxtpx="http://www.garmin.com/xmlschemas/TrackPointExtension/v1">
            <gpxtpx:hr>92</gpxtpx:hr>
          </gpxtpx:TrackPointExtension>
        </extensions>
      </trkpt>
      <trkpt lat="48.73032" lon="1.75876">
        <ele>178.8</ele>
        <time>2023-04-27T13:00:15Z</time>
        <extensions>
          <gpxtpx:TrackPointExtension xmlns:gpxtpx="http://www.garmin.com/xmlschemas/TrackPointExtension/v1">
            <gpxtpx:hr>92</gpxtpx:hr>
          </gpxtpx:TrackPointExtension>
        </extensions>
      </trkpt>
      <trkpt lat="48.73032" lon="1.75873">
        <ele>178.8</ele>
        <time>2023-04-27T13:00:17Z</time>
        <extensions>
          <gpxtpx:TrackPointExtension xmlns:gpxtpx="http://www.garmin.com/xmlschemas/TrackPointExtension/v1">
            <gpxtpx:hr>92</gpxtpx:hr>
          </gpxtpx:TrackPointExtension>
        </extensions>
      </trkpt>
      <trkpt lat="48.73032" lon="1.7587">
        <ele>179</ele>
        <time>2023-04-27T13:00:20Z</time>
        <extensions>
          <gpxtpx:TrackPointExtension xmlns:gpxtpx="http://www.garmin.com/xmlschemas/TrackPointExtension/v1">
            <gpxtpx:hr>92</gpxtpx:hr>
          </gpxtpx:TrackPointExtension>
        </extensions>
      </trkpt>
      <trkpt lat="48.73032" lon="1.75866">
        <ele>179</ele>
        <time>2023-04-27T13:00:23Z</time>
        <extensions>
          <gpxtpx:TrackPointExtension xmlns:gpxtpx="http://www.garmin.com/xmlschemas/TrackPointExtension/v1">
            <gpxtpx:hr>92</gpxtpx:hr>
          </gpxtpx:TrackPointExtension>
        </extensions>
      </trkpt>
      <trkpt lat="48.73033" lon="1.75863">
        <ele>179</ele>
        <time>2023-04-27T13:00:25Z</time>
        <extensions>
          <gpxtpx:TrackPointExtension xmlns:gpxtpx="http://www.garmin.com/xmlschemas/TrackPointExtension/v1">
            <gpxtpx:hr>92</gpxtpx:hr>
          </gpxtpx:TrackPointExtension>
        </extensions>
      </trkpt>
      <trkpt lat="48.73033" lon="1.75859">
        <ele>179</ele>
        <time>2023-04-27T13:00:27Z</time>
        <extensions>
          <gpxtpx:TrackPointExtension xmlns:gpxtpx="http://www.garmin.com/xmlschemas/TrackPointExtension/v1">
            <gpxtpx:hr>92</gpxtpx:hr>
          </gpxtpx:TrackPointExtension>
        </extensions>
      </trkpt>
      <trkpt lat="48.73033" lon="1.75855">
        <ele>179</ele>
        <time>2023-04-27T13:00:29Z</time>
        <extensions>
          <gpxtpx:TrackPointExtension xmlns:gpxtpx="http://www.garmin.com/xmlschemas/TrackPointExtension/v1">
            <gpxtpx:hr>92</gpxtpx:hr>
          </gpxtpx:TrackPointExtension>
        </extensions>
      </trkpt>
      <trkpt lat="48.73034" lon="1.7585">
        <ele>179</ele>
        <time>2023-04-27T13:00:31Z</time>
        <extensions>
          <gpxtpx:TrackPointExtension xmlns:gpxtpx="http://www.garmin.com/xmlschemas/TrackPointExtension/v1">
            <gpxtpx:hr>92</gpxtpx:hr>
          </gpxtpx:TrackPointExtension>
        </extensions>
      </trkpt>
      <trkpt lat="48.73035" lon="1.75846">
        <ele>179</ele>
        <time>2023-04-27T13:00:33Z</time>
        <extensions>
          <gpxtpx:TrackPointExtension xmlns:gpxtpx="http://www.garmin.com/xmlschemas/TrackPointExtension/v1">
            <gpxtpx:hr>92</gpxtpx:hr>
          </gpxtpx:TrackPointExtension>
        </extensions>
      </trkpt>
      <trkpt lat="48.73036" lon="1.75843">
        <ele>179.2</ele>
        <time>2023-04-27T13:00:35Z</time>
        <extensions>
          <gpxtpx:TrackPointExtension xmlns:gpxtpx="http://www.garmin.com/xmlschemas/TrackPointExtension/v1">
            <gpxtpx:hr>93</gpxtpx:hr>
          </gpxtpx:TrackPointExtension>
        </extensions>
      </trkpt>
      <trkpt lat="48.73035" lon="1.75838">
        <ele>179.4</ele>
        <time>2023-04-27T13:00:37Z</time>
        <extensions>
          <gpxtpx:TrackPointExtension xmlns:gpxtpx="http://www.garmin.com/xmlschemas/TrackPointExtension/v1">
            <gpxtpx:hr>93</gpxtpx:hr>
          </gpxtpx:TrackPointExtension>
        </extensions>
      </trkpt>
      <trkpt lat="48.73035" lon="1.75834">
        <ele>179.6</ele>
        <time>2023-04-27T13:00:39Z</time>
        <extensions>
          <gpxtpx:TrackPointExtension xmlns:gpxtpx="http://www.garmin.com/xmlschemas/TrackPointExtension/v1">
            <gpxtpx:hr>92</gpxtpx:hr>
          </gpxtpx:TrackPointExtension>
        </extensions>
      </trkpt>
      <trkpt lat="48.73035" lon="1.75828">
        <ele>179.6</ele>
        <time>2023-04-27T13:00:41Z</time>
        <extensions>
          <gpxtpx:TrackPointExtension xmlns:gpxtpx="http://www.garmin.com/xmlschemas/TrackPointExtension/v1">
            <gpxtpx:hr>92</gpxtpx:hr>
          </gpxtpx:TrackPointExtension>
        </extensions>
      </trkpt>
      <trkpt lat="48.73036" lon="1.75823">
        <ele>179.8</ele>
        <time>2023-04-27T13:00:43Z</time>
        <extensions>
          <gpxtpx:TrackPointExtension xmlns:gpxtpx="http://www.garmin.com/xmlschemas/TrackPointExtension/v1">
            <gpxtpx:hr>92</gpxtpx:hr>
          </gpxtpx:TrackPointExtension>
        </extensions>
      </trkpt>
      <trkpt lat="48.73036" lon="1.7582">
        <ele>179.8</ele>
        <time>2023-04-27T13:00:45Z</time>
        <extensions>
          <gpxtpx:TrackPointExtension xmlns:gpxtpx="http://www.garmin.com/xmlschemas/TrackPointExtension/v1">
            <gpxtpx:hr>92</gpxtpx:hr>
          </gpxtpx:TrackPointExtension>
        </extensions>
      </trkpt>
      <trkpt lat="48.73036" lon="1.75817">
        <ele>180</ele>
        <time>2023-04-27T13:00:47Z</time>
        <extensions>
          <gpxtpx:TrackPointExtension xmlns:gpxtpx="http://www.garmin.com/xmlschemas/TrackPointExtension/v1">
            <gpxtpx:hr>92</gpxtpx:hr>
          </gpxtpx:TrackPointExtension>
        </extensions>
      </trkpt>
      <trkpt lat="48.73037" lon="1.75814">
        <ele>180</ele>
        <time>2023-04-27T13:00:49Z</time>
        <extensions>
          <gpxtpx:TrackPointExtension xmlns:gpxtpx="http://www.garmin.com/xmlschemas/TrackPointExtension/v1">
            <gpxtpx:hr>92</gpxtpx:hr>
          </gpxtpx:TrackPointExtension>
        </extensions>
      </trkpt>
      <trkpt lat="48.73037" lon="1.75811">
        <ele>180.2</ele>
        <time>2023-04-27T13:00:51Z</time>
        <extensions>
          <gpxtpx:TrackPointExtension xmlns:gpxtpx="http://www.garmin.com/xmlschemas/TrackPointExtension/v1">
            <gpxtpx:hr>92</gpxtpx:hr>
          </gpxtpx:TrackPointExtension>
        </extensions>
      </trkpt>
      <trkpt lat="48.73037" lon="1.75808">
        <ele>180</ele>
        <time>2023-04-27T13:00:53Z</time>
        <extensions>
          <gpxtpx:TrackPointExtension xmlns:gpxtpx="http://www.garmin.com/xmlschemas/TrackPointExtension/v1">
            <gpxtpx:hr>92</gpxtpx:hr>
          </gpxtpx:TrackPointExtension>
        </extensions>
      </trkpt>
      <trkpt lat="48.73037" lon="1.75805">
        <ele>180</ele>
        <time>2023-04-27T13:00:55Z</time>
      </trkpt>
      <trkpt lat="48.73037" lon="1.75801">
        <ele>179.8</ele>
        <time>2023-04-27T13:00:57Z</time>
      </trkpt>
      <trkpt lat="48.73037" lon="1.75798">
        <ele>179.6</ele>
        <time>2023-04-27T13:00:59Z</time>
      </trkpt>
      <trkpt lat="48.73037" lon="1.75795">
        <ele>179.6</ele>
        <time>2023-04-27T13:01:01Z</time>
      </trkpt>
      <trkpt lat="48.73037" lon="1.75791">
        <ele>179.4</ele>
        <time>2023-04-27T13:01:03Z</time>
      </trkpt>
      <trkpt lat="48.73037" lon="1.75787">
        <ele>179.4</ele>
        <time>2023-04-27T13:01:05Z</time>
      </trkpt>
      <trkpt lat="48.73038" lon="1.75784">
        <ele>179.2</ele>
        <time>2023-04-27T13:01:07Z</time>
      </trkpt>
      <trkpt lat="48.73039" lon="1.7578">
        <ele>179</ele>
        <time>2023-04-27T13:01:09Z</time>
      </trkpt>
      <trkpt lat="48.7304" lon="1.75776">
        <ele>178.8</ele>
        <time>2023-04-27T13:01:11Z</time>
      </trkpt>
      <trkpt lat="48.73041" lon="1.75772">
        <ele>178.6</ele>
        <time>2023-04-27T13:01:13Z</time>
      </trkpt>
      <trkpt lat="48.73041" lon="1.75768">
        <ele>178.6</ele>
        <time>2023-04-27T13:01:15Z</time>
      </trkpt>
      <trkpt lat="48.73042" lon="1.75763">
        <ele>178.4</ele>
        <time>2023-04-27T13:01:17Z</time>
      </trkpt>
      <trkpt lat="48.73043" lon="1.75758">
        <ele>178.4</ele>
        <time>2023-04-27T13:01:19Z</time>
      </trkpt>
      <trkpt lat="48.73044" lon="1.75754">
        <ele>178.4</ele>
        <time>2023-04-27T13:01:21Z</time>
      </trkpt>
      <trkpt lat="48.73044" lon="1.7575">
        <ele>178.4</ele>
        <time>2023-04-27T13:01:23Z</time>
      </trkpt>
      <trkpt lat="48.73044" lon="1.75746">
        <ele>178.6</ele>
        <time>2023-04-27T13:01:25Z</time>
      </trkpt>
      <trkpt lat="48.73044" lon="1.75743">
        <ele>178.6</ele>
        <time>2023-04-27T13:01:26Z</time>
      </trkpt>
      <trkpt lat="48.73044" lon="1.7574">
        <ele>178.8</ele>
        <time>2023-04-27T13:01:27Z</time>
      </trkpt>
      <trkpt lat="48.73044" lon="1.75737">
        <ele>179</ele>
        <time>2023-04-27T13:01:28Z</time>
      </trkpt>
      <trkpt lat="48.73044" lon="1.75734">
        <ele>179</ele>
        <time>2023-04-27T13:01:29Z</time>
      </trkpt>
      <trkpt lat="48.73044" lon="1.75731">
        <ele>179</ele>
        <time>2023-04-27T13:01:30Z</time>
      </trkpt>
      <trkpt lat="48.73045" lon="1.75726">
        <ele>179.2</ele>
        <time>2023-04-27T13:01:32Z</time>
      </trkpt>
      <trkpt lat="48.73046" lon="1.75721">
        <ele>179.4</ele>
        <time>2023-04-27T13:01:34Z</time>
      </trkpt>
      <trkpt lat="48.73047" lon="1.75716">
        <ele>179.6</ele>
        <time>2023-04-27T13:01:36Z</time>
      </trkpt>
      <trkpt lat="48.73048" lon="1.75712">
        <ele>179.8</ele>
        <time>2023-04-27T13:01:38Z</time>
      </trkpt>
      <trkpt lat="48.73048" lon="1.75707">
        <ele>179.8</ele>
        <time>2023-04-27T13:01:40Z</time>
      </trkpt>
      <trkpt lat="48.73048" lon="1.75703">
        <ele>180</ele>
        <time>2023-04-27T13:01:42Z</time>
      </trkpt>
      <trkpt lat="48.73048" lon="1.75699">
        <ele>180.2</ele>
        <time>2023-04-27T13:01:44Z</time>
      </trkpt>
      <trkpt lat="48.73048" lon="1.75695">
        <ele>180.2</ele>
        <time>2023-04-27T13:01:46Z</time>
      </trkpt>
      <trkpt lat="48.73048" lon="1.75691">
        <ele>180.4</ele>
        <time>2023-04-27T13:01:48Z</time>
      </trkpt>
      <trkpt lat="48.73048" lon="1.75688">
        <ele>180.4</ele>
        <time>2023-04-27T13:01:50Z</time>
      </trkpt>
      <trkpt lat="48.73047" lon="1.75684">
        <ele>180.2</ele>
        <time>2023-04-27T13:01:52Z</time>
      </trkpt>
      <trkpt lat="48.73046" lon="1.7568">
        <ele>180.2</ele>
        <time>2023-04-27T13:01:54Z</time>
      </trkpt>
      <trkpt lat="48.73046" lon="1.75676">
        <ele>180.2</ele>
        <time>2023-04-27T13:01:56Z</time>
      </trkpt>
      <trkpt lat="48.73046" lon="1.75672">
        <ele>180.2</ele>
        <time>2023-04-27T13:01:58Z</time>
      </trkpt>
      <trkpt lat="48.73046" lon="1.75668">
        <ele>180</ele>
        <time>2023-04-27T13:02:00Z</time>
      </trkpt>
      <trkpt lat="48.73047" lon="1.75664">
        <ele>179.8</ele>
        <time>2023-04-27T13:02:02Z</time>
      </trkpt>
      <trkpt lat="48.73047" lon="1.75659">
        <ele>179.8</ele>
        <time>2023-04-27T13:02:04Z</time>
      </trkpt>
      <trkpt lat="48.73048" lon="1.75654">
        <ele>179.6</ele>
        <time>2023-04-27T13:02:06Z</time>
      </trkpt>
      <trkpt lat="48.73048" lon="1.7565">
        <ele>179.4</ele>
        <time>2023-04-27T13:02:08Z</time>
      </trkpt>
      <trkpt lat="48.73049" lon="1.75645">
        <ele>179.2</ele>
        <time>2023-04-27T13:02:10Z</time>
      </trkpt>
      <trkpt lat="48.73049" lon="1.75641">
        <ele>178.8</ele>
        <time>2023-04-27T13:02:12Z</time>
      </trkpt>
      <trkpt lat="48.7305" lon="1.75636">
        <ele>178.4</ele>
        <time>2023-04-27T13:02:14Z</time>
      </trkpt>
      <trkpt lat="48.7305" lon="1.75632">
        <ele>178</ele>
        <time>2023-04-27T13:02:16Z</time>
      </trkpt>
      <trkpt lat="48.73051" lon="1.75628">
        <ele>177.8</ele>
        <time>2023-04-27T13:02:18Z</time>
      </trkpt>
      <trkpt lat="48.73051" lon="1.75624">
        <ele>177.6</ele>
        <time>2023-04-27T13:02:20Z</time>
      </trkpt>
      <trkpt lat="48.73052" lon="1.7562">
        <ele>177.2</ele>
        <time>2023-04-27T13:02:22Z</time>
      </trkpt>
      <trkpt lat="48.73052" lon="1.75616">
        <ele>177</ele>
        <time>2023-04-27T13:02:24Z</time>
      </trkpt>
      <trkpt lat="48.73052" lon="1.75612">
        <ele>176.8</ele>
        <time>2023-04-27T13:02:26Z</time>
      </trkpt>
      <trkpt lat="48.73053" lon="1.75608">
        <ele>176.8</ele>
        <time>2023-04-27T13:02:28Z</time>
      </trkpt>
      <trkpt lat="48.73053" lon="1.75604">
        <ele>176.6</ele>
        <time>2023-04-27T13:02:30Z</time>
      </trkpt>
      <trkpt lat="48.73053" lon="1.756">
        <ele>176.4</ele>
        <time>2023-04-27T13:02:32Z</time>
      </trkpt>
      <trkpt lat="48.73054" lon="1.75596">
        <ele>176.2</ele>
        <time>2023-04-27T13:02:34Z</time>
      </trkpt>
      <trkpt lat="48.73054" lon="1.75592">
        <ele>176.4</ele>
        <time>2023-04-27T13:02:36Z</time>
      </trkpt>
      <trkpt lat="48.73055" lon="1.75587">
        <ele>176.4</ele>
        <time>2023-04-27T13:02:38Z</time>
      </trkpt>
      <trkpt lat="48.73056" lon="1.75582">
        <ele>176.4</ele>
        <time>2023-04-27T13:02:40Z</time>
        <extensions>
          <gpxtpx:TrackPointExtension xmlns:gpxtpx="http://www.garmin.com/xmlschemas/TrackPointExtension/v1">
            <gpxtpx:hr>100</gpxtpx:hr>
          </gpxtpx:TrackPointExtension>
        </extensions>
      </trkpt>
      <trkpt lat="48.73056" lon="1.75578">
        <ele>176.6</ele>
        <time>2023-04-27T13:02:42Z</time>
        <extensions>
          <gpxtpx:TrackPointExtension xmlns:gpxtpx="http://www.garmin.com/xmlschemas/TrackPointExtension/v1">
            <gpxtpx:hr>100</gpxtpx:hr>
          </gpxtpx:TrackPointExtension>
        </extensions>
      </trkpt>
      <trkpt lat="48.73055" lon="1.75573">
        <ele>176.8</ele>
        <time>2023-04-27T13:02:44Z</time>
        <extensions>
          <gpxtpx:TrackPointExtension xmlns:gpxtpx="http://www.garmin.com/xmlschemas/TrackPointExtension/v1">
            <gpxtpx:hr>100</gpxtpx:hr>
          </gpxtpx:TrackPointExtension>
        </extensions>
      </trkpt>
      <trkpt lat="48.73055" lon="1.75569">
        <ele>176.8</ele>
        <time>2023-04-27T13:02:46Z</time>
        <extensions>
          <gpxtpx:TrackPointExtension xmlns:gpxtpx="http://www.garmin.com/xmlschemas/TrackPointExtension/v1">
            <gpxtpx:hr>101</gpxtpx:hr>
          </gpxtpx:TrackPointExtension>
        </extensions>
      </trkpt>
      <trkpt lat="48.73055" lon="1.75565">
        <ele>176.8</ele>
        <time>2023-04-27T13:02:48Z</time>
        <extensions>
          <gpxtpx:TrackPointExtension xmlns:gpxtpx="http://www.garmin.com/xmlschemas/TrackPointExtension/v1">
            <gpxtpx:hr>101</gpxtpx:hr>
          </gpxtpx:TrackPointExtension>
        </extensions>
      </trkpt>
      <trkpt lat="48.73056" lon="1.75561">
        <ele>176.8</ele>
        <time>2023-04-27T13:02:50Z</time>
        <extensions>
          <gpxtpx:TrackPointExtension xmlns:gpxtpx="http://www.garmin.com/xmlschemas/TrackPointExtension/v1">
            <gpxtpx:hr>102</gpxtpx:hr>
          </gpxtpx:TrackPointExtension>
        </extensions>
      </trkpt>
      <trkpt lat="48.73056" lon="1.75557">
        <ele>176.8</ele>
        <time>2023-04-27T13:02:52Z</time>
        <extensions>
          <gpxtpx:TrackPointExtension xmlns:gpxtpx="http://www.garmin.com/xmlschemas/TrackPointExtension/v1">
            <gpxtpx:hr>102</gpxtpx:hr>
          </gpxtpx:TrackPointExtension>
        </extensions>
      </trkpt>
      <trkpt lat="48.73056" lon="1.75553">
        <ele>176.8</ele>
        <time>2023-04-27T13:02:54Z</time>
        <extensions>
          <gpxtpx:TrackPointExtension xmlns:gpxtpx="http://www.garmin.com/xmlschemas/TrackPointExtension/v1">
            <gpxtpx:hr>102</gpxtpx:hr>
          </gpxtpx:TrackPointExtension>
        </extensions>
      </trkpt>
      <trkpt lat="48.73056" lon="1.75548">
        <ele>176.6</ele>
        <time>2023-04-27T13:02:56Z</time>
        <extensions>
          <gpxtpx:TrackPointExtension xmlns:gpxtpx="http://www.garmin.com/xmlschemas/TrackPointExtension/v1">
            <gpxtpx:hr>102</gpxtpx:hr>
          </gpxtpx:TrackPointExtension>
        </extensions>
      </trkpt>
      <trkpt lat="48.73056" lon="1.75544">
        <ele>176.6</ele>
        <time>2023-04-27T13:02:58Z</time>
        <extensions>
          <gpxtpx:TrackPointExtension xmlns:gpxtpx="http://www.garmin.com/xmlschemas/TrackPointExtension/v1">
            <gpxtpx:hr>102</gpxtpx:hr>
          </gpxtpx:TrackPointExtension>
        </extensions>
      </trkpt>
      <trkpt lat="48.73056" lon="1.7554">
        <ele>176.4</ele>
        <time>2023-04-27T13:03:00Z</time>
        <extensions>
          <gpxtpx:TrackPointExtension xmlns:gpxtpx="http://www.garmin.com/xmlschemas/TrackPointExtension/v1">
            <gpxtpx:hr>102</gpxtpx:hr>
          </gpxtpx:TrackPointExtension>
        </extensions>
      </trkpt>
      <trkpt lat="48.73056" lon="1.75536">
        <ele>176.2</ele>
        <time>2023-04-27T13:03:02Z</time>
      </trkpt>
      <trkpt lat="48.73056" lon="1.75532">
        <ele>176</ele>
        <time>2023-04-27T13:03:04Z</time>
      </trkpt>
      <trkpt lat="48.73056" lon="1.75529">
        <ele>175.8</ele>
        <time>2023-04-27T13:03:06Z</time>
      </trkpt>
      <trkpt lat="48.73056" lon="1.75525">
        <ele>175.6</ele>
        <time>2023-04-27T13:03:08Z</time>
      </trkpt>
      <trkpt lat="48.73057" lon="1.7552">
        <ele>175.4</ele>
        <time>2023-04-27T13:03:10Z</time>
      </trkpt>
      <trkpt lat="48.73058" lon="1.75516">
        <ele>175</ele>
        <time>2023-04-27T13:03:12Z</time>
      </trkpt>
      <trkpt lat="48.73058" lon="1.75511">
        <ele>174.8</ele>
        <time>2023-04-27T13:03:14Z</time>
      </trkpt>
      <trkpt lat="48.73059" lon="1.75507">
        <ele>174.4</ele>
        <time>2023-04-27T13:03:16Z</time>
      </trkpt>
      <trkpt lat="48.7306" lon="1.75503">
        <ele>174.2</ele>
        <time>2023-04-27T13:03:18Z</time>
      </trkpt>
      <trkpt lat="48.7306" lon="1.75498">
        <ele>174</ele>
        <time>2023-04-27T13:03:20Z</time>
      </trkpt>
      <trkpt lat="48.7306" lon="1.75493">
        <ele>174</ele>
        <time>2023-04-27T13:03:22Z</time>
      </trkpt>
      <trkpt lat="48.73061" lon="1.75488">
        <ele>174</ele>
        <time>2023-04-27T13:03:24Z</time>
      </trkpt>
      <trkpt lat="48.73062" lon="1.75484">
        <ele>173.8</ele>
        <time>2023-04-27T13:03:26Z</time>
      </trkpt>
      <trkpt lat="48.73062" lon="1.7548">
        <ele>173.6</ele>
        <time>2023-04-27T13:03:28Z</time>
      </trkpt>
      <trkpt lat="48.73061" lon="1.75475">
        <ele>173.6</ele>
        <time>2023-04-27T13:03:30Z</time>
      </trkpt>
      <trkpt lat="48.7306" lon="1.7547">
        <ele>173.6</ele>
        <time>2023-04-27T13:03:32Z</time>
      </trkpt>
      <trkpt lat="48.7306" lon="1.75466">
        <ele>173.4</ele>
        <time>2023-04-27T13:03:34Z</time>
      </trkpt>
      <trkpt lat="48.7306" lon="1.75462">
        <ele>173.4</ele>
        <time>2023-04-27T13:03:36Z</time>
      </trkpt>
      <trkpt lat="48.73061" lon="1.75459">
        <ele>173.6</ele>
        <time>2023-04-27T13:03:38Z</time>
      </trkpt>
      <trkpt lat="48.73061" lon="1.75455">
        <ele>173.6</ele>
        <time>2023-04-27T13:03:40Z</time>
      </trkpt>
      <trkpt lat="48.73061" lon="1.75452">
        <ele>173.6</ele>
        <time>2023-04-27T13:03:42Z</time>
      </trkpt>
      <trkpt lat="48.73061" lon="1.75447">
        <ele>173.6</ele>
        <time>2023-04-27T13:03:44Z</time>
      </trkpt>
      <trkpt lat="48.73062" lon="1.75443">
        <ele>173.6</ele>
        <time>2023-04-27T13:03:46Z</time>
      </trkpt>
      <trkpt lat="48.73062" lon="1.75439">
        <ele>173.6</ele>
        <time>2023-04-27T13:03:48Z</time>
      </trkpt>
      <trkpt lat="48.73061" lon="1.75436">
        <ele>173.6</ele>
        <time>2023-04-27T13:03:50Z</time>
      </trkpt>
      <trkpt lat="48.73061" lon="1.75432">
        <ele>173.6</ele>
        <time>2023-04-27T13:03:52Z</time>
      </trkpt>
      <trkpt lat="48.73061" lon="1.75429">
        <ele>173.6</ele>
        <time>2023-04-27T13:03:54Z</time>
      </trkpt>
      <trkpt lat="48.73061" lon="1.75425">
        <ele>173.6</ele>
        <time>2023-04-27T13:03:56Z</time>
      </trkpt>
      <trkpt lat="48.73061" lon="1.75421">
        <ele>173.4</ele>
        <time>2023-04-27T13:03:58Z</time>
      </trkpt>
      <trkpt lat="48.73061" lon="1.75418">
        <ele>173.2</ele>
        <time>2023-04-27T13:04:00Z</time>
      </trkpt>
      <trkpt lat="48.73061" lon="1.75415">
        <ele>173</ele>
        <time>2023-04-27T13:04:02Z</time>
      </trkpt>
      <trkpt lat="48.73061" lon="1.75412">
        <ele>173</ele>
        <time>2023-04-27T13:04:04Z</time>
      </trkpt>
      <trkpt lat="48.73061" lon="1.75408">
        <ele>172.8</ele>
        <time>2023-04-27T13:04:06Z</time>
      </trkpt>
      <trkpt lat="48.73061" lon="1.75405">
        <ele>172.8</ele>
        <time>2023-04-27T13:04:08Z</time>
      </trkpt>
      <trkpt lat="48.73061" lon="1.75401">
        <ele>172.8</ele>
        <time>2023-04-27T13:04:10Z</time>
      </trkpt>
      <trkpt lat="48.73061" lon="1.75398">
        <ele>172.8</ele>
        <time>2023-04-27T13:04:12Z</time>
      </trkpt>
      <trkpt lat="48.73061" lon="1.75394">
        <ele>172.6</ele>
        <time>2023-04-27T13:04:14Z</time>
      </trkpt>
      <trkpt lat="48.73061" lon="1.75391">
        <ele>172.6</ele>
        <time>2023-04-27T13:04:16Z</time>
      </trkpt>
      <trkpt lat="48.73061" lon="1.75388">
        <ele>172.4</ele>
        <time>2023-04-27T13:04:18Z</time>
      </trkpt>
      <trkpt lat="48.73061" lon="1.75384">
        <ele>172.2</ele>
        <time>2023-04-27T13:04:20Z</time>
      </trkpt>
      <trkpt lat="48.73061" lon="1.75381">
        <ele>172</ele>
        <time>2023-04-27T13:04:22Z</time>
      </trkpt>
      <trkpt lat="48.73061" lon="1.75377">
        <ele>172</ele>
        <time>2023-04-27T13:04:24Z</time>
      </trkpt>
      <trkpt lat="48.73061" lon="1.75374">
        <ele>171.8</ele>
        <time>2023-04-27T13:04:26Z</time>
      </trkpt>
      <trkpt lat="48.7306" lon="1.7537">
        <ele>171.6</ele>
        <time>2023-04-27T13:04:28Z</time>
      </trkpt>
      <trkpt lat="48.7306" lon="1.75367">
        <ele>171.6</ele>
        <time>2023-04-27T13:04:30Z</time>
      </trkpt>
      <trkpt lat="48.7306" lon="1.75364">
        <ele>171.6</ele>
        <time>2023-04-27T13:04:32Z</time>
      </trkpt>
      <trkpt lat="48.7306" lon="1.7536">
        <ele>171.4</ele>
        <time>2023-04-27T13:04:34Z</time>
      </trkpt>
      <trkpt lat="48.7306" lon="1.75357">
        <ele>171.2</ele>
        <time>2023-04-27T13:04:36Z</time>
      </trkpt>
      <trkpt lat="48.7306" lon="1.75353">
        <ele>171</ele>
        <time>2023-04-27T13:04:38Z</time>
      </trkpt>
      <trkpt lat="48.7306" lon="1.75349">
        <ele>170.8</ele>
        <time>2023-04-27T13:04:40Z</time>
      </trkpt>
      <trkpt lat="48.7306" lon="1.75345">
        <ele>170.8</ele>
        <time>2023-04-27T13:04:42Z</time>
      </trkpt>
      <trkpt lat="48.7306" lon="1.75342">
        <ele>171</ele>
        <time>2023-04-27T13:04:44Z</time>
      </trkpt>
      <trkpt lat="48.7306" lon="1.75338">
        <ele>171</ele>
        <time>2023-04-27T13:04:46Z</time>
      </trkpt>
      <trkpt lat="48.73059" lon="1.75333">
        <ele>171</ele>
        <time>2023-04-27T13:04:48Z</time>
      </trkpt>
      <trkpt lat="48.73058" lon="1.75329">
        <ele>171</ele>
        <time>2023-04-27T13:04:50Z</time>
      </trkpt>
      <trkpt lat="48.73059" lon="1.75325">
        <ele>171</ele>
        <time>2023-04-27T13:04:52Z</time>
      </trkpt>
      <trkpt lat="48.73059" lon="1.75321">
        <ele>170.8</ele>
        <time>2023-04-27T13:04:54Z</time>
      </trkpt>
      <trkpt lat="48.73059" lon="1.75317">
        <ele>170.8</ele>
        <time>2023-04-27T13:04:56Z</time>
      </trkpt>
      <trkpt lat="48.7306" lon="1.75313">
        <ele>170.8</ele>
        <time>2023-04-27T13:04:58Z</time>
      </trkpt>
      <trkpt lat="48.7306" lon="1.75309">
        <ele>170.8</ele>
        <time>2023-04-27T13:05:00Z</time>
      </trkpt>
      <trkpt lat="48.7306" lon="1.75306">
        <ele>170.6</ele>
        <time>2023-04-27T13:05:02Z</time>
      </trkpt>
      <trkpt lat="48.73061" lon="1.75303">
        <ele>170.6</ele>
        <time>2023-04-27T13:05:04Z</time>
      </trkpt>
      <trkpt lat="48.73061" lon="1.753">
        <ele>170.8</ele>
        <time>2023-04-27T13:05:07Z</time>
      </trkpt>
      <trkpt lat="48.73063" lon="1.75296">
        <ele>170.8</ele>
        <time>2023-04-27T13:05:10Z</time>
      </trkpt>
      <trkpt lat="48.73062" lon="1.75293">
        <ele>171</ele>
        <time>2023-04-27T13:05:13Z</time>
      </trkpt>
      <trkpt lat="48.73062" lon="1.75289">
        <ele>171</ele>
        <time>2023-04-27T13:05:15Z</time>
      </trkpt>
      <trkpt lat="48.73061" lon="1.75286">
        <ele>171</ele>
        <time>2023-04-27T13:05:17Z</time>
      </trkpt>
      <trkpt lat="48.7306" lon="1.75283">
        <ele>171</ele>
        <time>2023-04-27T13:05:20Z</time>
      </trkpt>
      <trkpt lat="48.7306" lon="1.75279">
        <ele>170.8</ele>
        <time>2023-04-27T13:05:23Z</time>
      </trkpt>
      <trkpt lat="48.73058" lon="1.75275">
        <ele>170.6</ele>
        <time>2023-04-27T13:05:25Z</time>
      </trkpt>
      <trkpt lat="48.73057" lon="1.7527">
        <ele>170.6</ele>
        <time>2023-04-27T13:05:27Z</time>
      </trkpt>
      <trkpt lat="48.73057" lon="1.75266">
        <ele>170.6</ele>
        <time>2023-04-27T13:05:29Z</time>
      </trkpt>
      <trkpt lat="48.73057" lon="1.75262">
        <ele>170.6</ele>
        <time>2023-04-27T13:05:31Z</time>
      </trkpt>
      <trkpt lat="48.73058" lon="1.75259">
        <ele>170.8</ele>
        <time>2023-04-27T13:05:33Z</time>
      </trkpt>
      <trkpt lat="48.7306" lon="1.75257">
        <ele>170.8</ele>
        <time>2023-04-27T13:05:35Z</time>
      </trkpt>
      <trkpt lat="48.73062" lon="1.75254">
        <ele>170.8</ele>
        <time>2023-04-27T13:05:38Z</time>
      </trkpt>
      <trkpt lat="48.73061" lon="1.75251">
        <ele>170.8</ele>
        <time>2023-04-27T13:05:40Z</time>
      </trkpt>
      <trkpt lat="48.73061" lon="1.75247">
        <ele>170.6</ele>
        <time>2023-04-27T13:05:42Z</time>
      </trkpt>
      <trkpt lat="48.7306" lon="1.75243">
        <ele>170.2</ele>
        <time>2023-04-27T13:05:44Z</time>
      </trkpt>
      <trkpt lat="48.7306" lon="1.75239">
        <ele>169.8</ele>
        <time>2023-04-27T13:05:46Z</time>
      </trkpt>
      <trkpt lat="48.7306" lon="1.75234">
        <ele>169.4</ele>
        <time>2023-04-27T13:05:48Z</time>
      </trkpt>
      <trkpt lat="48.7306" lon="1.7523">
        <ele>168.8</ele>
        <time>2023-04-27T13:05:50Z</time>
      </trkpt>
      <trkpt lat="48.73061" lon="1.75226">
        <ele>168.4</ele>
        <time>2023-04-27T13:05:52Z</time>
      </trkpt>
      <trkpt lat="48.73062" lon="1.75222">
        <ele>168</ele>
        <time>2023-04-27T13:05:54Z</time>
      </trkpt>
      <trkpt lat="48.73062" lon="1.75218">
        <ele>167.6</ele>
        <time>2023-04-27T13:05:56Z</time>
      </trkpt>
      <trkpt lat="48.73062" lon="1.75214">
        <ele>167.2</ele>
        <time>2023-04-27T13:05:58Z</time>
      </trkpt>
      <trkpt lat="48.73062" lon="1.7521">
        <ele>166.8</ele>
        <time>2023-04-27T13:06:00Z</time>
      </trkpt>
      <trkpt lat="48.73063" lon="1.75206">
        <ele>166.4</ele>
        <time>2023-04-27T13:06:02Z</time>
      </trkpt>
      <trkpt lat="48.73064" lon="1.75201">
        <ele>166.2</ele>
        <time>2023-04-27T13:06:04Z</time>
      </trkpt>
      <trkpt lat="48.73064" lon="1.75196">
        <ele>165.8</ele>
        <time>2023-04-27T13:06:06Z</time>
      </trkpt>
      <trkpt lat="48.73064" lon="1.75192">
        <ele>165.6</ele>
        <time>2023-04-27T13:06:08Z</time>
      </trkpt>
      <trkpt lat="48.73064" lon="1.75188">
        <ele>165.6</ele>
        <time>2023-04-27T13:06:10Z</time>
      </trkpt>
      <trkpt lat="48.73065" lon="1.75186">
        <ele>165.4</ele>
        <time>2023-04-27T13:06:12Z</time>
      </trkpt>
      <trkpt lat="48.73068" lon="1.75185">
        <ele>165</ele>
        <time>2023-04-27T13:06:15Z</time>
      </trkpt>
      <trkpt lat="48.73068" lon="1.75188">
        <ele>165</ele>
        <time>2023-04-27T13:06:18Z</time>
      </trkpt>
      <trkpt lat="48.73067" lon="1.7519">
        <ele>164.8</ele>
        <time>2023-04-27T13:06:20Z</time>
      </trkpt>
      <trkpt lat="48.73067" lon="1.75187">
        <ele>164.4</ele>
        <time>2023-04-27T13:06:25Z</time>
      </trkpt>
      <trkpt lat="48.73068" lon="1.75183">
        <ele>164.2</ele>
        <time>2023-04-27T13:06:27Z</time>
      </trkpt>
      <trkpt lat="48.7307" lon="1.7518">
        <ele>163.8</ele>
        <time>2023-04-27T13:06:29Z</time>
      </trkpt>
      <trkpt lat="48.7307" lon="1.75176">
        <ele>163.6</ele>
        <time>2023-04-27T13:06:31Z</time>
      </trkpt>
      <trkpt lat="48.7307" lon="1.75173">
        <ele>163.4</ele>
        <time>2023-04-27T13:06:33Z</time>
      </trkpt>
      <trkpt lat="48.73069" lon="1.7517">
        <ele>163</ele>
        <time>2023-04-27T13:06:35Z</time>
      </trkpt>
      <trkpt lat="48.73069" lon="1.75167">
        <ele>163</ele>
        <time>2023-04-27T13:06:37Z</time>
      </trkpt>
      <trkpt lat="48.73068" lon="1.75163">
        <ele>162.8</ele>
        <time>2023-04-27T13:06:39Z</time>
      </trkpt>
      <trkpt lat="48.73068" lon="1.75159">
        <ele>162.8</ele>
        <time>2023-04-27T13:06:41Z</time>
      </trkpt>
      <trkpt lat="48.73067" lon="1.75155">
        <ele>162.8</ele>
        <time>2023-04-27T13:06:43Z</time>
      </trkpt>
      <trkpt lat="48.73066" lon="1.75151">
        <ele>162.8</ele>
        <time>2023-04-27T13:06:45Z</time>
      </trkpt>
      <trkpt lat="48.73065" lon="1.75147">
        <ele>163</ele>
        <time>2023-04-27T13:06:47Z</time>
      </trkpt>
      <trkpt lat="48.73065" lon="1.75144">
        <ele>163</ele>
        <time>2023-04-27T13:06:49Z</time>
      </trkpt>
      <trkpt lat="48.73065" lon="1.75141">
        <ele>163.2</ele>
        <time>2023-04-27T13:06:52Z</time>
      </trkpt>
      <trkpt lat="48.73065" lon="1.75137">
        <ele>163.2</ele>
        <time>2023-04-27T13:06:55Z</time>
      </trkpt>
      <trkpt lat="48.73066" lon="1.75134">
        <ele>163.2</ele>
        <time>2023-04-27T13:06:57Z</time>
      </trkpt>
      <trkpt lat="48.73065" lon="1.7513">
        <ele>163.2</ele>
        <time>2023-04-27T13:06:59Z</time>
      </trkpt>
      <trkpt lat="48.73065" lon="1.75127">
        <ele>163.4</ele>
        <time>2023-04-27T13:07:01Z</time>
      </trkpt>
      <trkpt lat="48.73064" lon="1.75124">
        <ele>163.4</ele>
        <time>2023-04-27T13:07:04Z</time>
      </trkpt>
      <trkpt lat="48.73063" lon="1.75119">
        <ele>163.6</ele>
        <time>2023-04-27T13:07:07Z</time>
      </trkpt>
      <trkpt lat="48.73062" lon="1.75115">
        <ele>163.8</ele>
        <time>2023-04-27T13:07:09Z</time>
      </trkpt>
      <trkpt lat="48.73062" lon="1.75109">
        <ele>163.8</ele>
        <time>2023-04-27T13:07:11Z</time>
      </trkpt>
      <trkpt lat="48.73062" lon="1.75105">
        <ele>164</ele>
        <time>2023-04-27T13:07:13Z</time>
      </trkpt>
      <trkpt lat="48.73062" lon="1.75101">
        <ele>164</ele>
        <time>2023-04-27T13:07:15Z</time>
      </trkpt>
      <trkpt lat="48.73063" lon="1.75098">
        <ele>164</ele>
        <time>2023-04-27T13:07:17Z</time>
      </trkpt>
      <trkpt lat="48.73064" lon="1.75094">
        <ele>163.8</ele>
        <time>2023-04-27T13:07:19Z</time>
      </trkpt>
      <trkpt lat="48.73064" lon="1.7509">
        <ele>163.8</ele>
        <time>2023-04-27T13:07:21Z</time>
      </trkpt>
      <trkpt lat="48.73064" lon="1.75086">
        <ele>163.8</ele>
        <time>2023-04-27T13:07:23Z</time>
      </trkpt>
      <trkpt lat="48.73063" lon="1.75081">
        <ele>163.8</ele>
        <time>2023-04-27T13:07:25Z</time>
      </trkpt>
      <trkpt lat="48.73063" lon="1.75077">
        <ele>163.8</ele>
        <time>2023-04-27T13:07:27Z</time>
      </trkpt>
      <trkpt lat="48.73063" lon="1.75073">
        <ele>163.6</ele>
        <time>2023-04-27T13:07:29Z</time>
      </trkpt>
      <trkpt lat="48.73064" lon="1.75069">
        <ele>163.6</ele>
        <time>2023-04-27T13:07:31Z</time>
      </trkpt>
      <trkpt lat="48.73065" lon="1.75066">
        <ele>163.6</ele>
        <time>2023-04-27T13:07:33Z</time>
      </trkpt>
      <trkpt lat="48.73065" lon="1.75062">
        <ele>163.8</ele>
        <time>2023-04-27T13:07:35Z</time>
      </trkpt>
      <trkpt lat="48.73064" lon="1.75059">
        <ele>163.8</ele>
        <time>2023-04-27T13:07:37Z</time>
      </trkpt>
      <trkpt lat="48.73062" lon="1.75055">
        <ele>163.8</ele>
        <time>2023-04-27T13:07:39Z</time>
      </trkpt>
      <trkpt lat="48.73062" lon="1.7505">
        <ele>164</ele>
        <time>2023-04-27T13:07:41Z</time>
      </trkpt>
      <trkpt lat="48.73062" lon="1.75047">
        <ele>164</ele>
        <time>2023-04-27T13:07:42Z</time>
      </trkpt>
      <trkpt lat="48.73061" lon="1.75044">
        <ele>164</ele>
        <time>2023-04-27T13:07:43Z</time>
      </trkpt>
      <trkpt lat="48.73061" lon="1.75041">
        <ele>163.8</ele>
        <time>2023-04-27T13:07:44Z</time>
      </trkpt>
      <trkpt lat="48.73062" lon="1.75036">
        <ele>163.8</ele>
        <time>2023-04-27T13:07:46Z</time>
      </trkpt>
      <trkpt lat="48.73063" lon="1.75032">
        <ele>163.8</ele>
        <time>2023-04-27T13:07:48Z</time>
      </trkpt>
      <trkpt lat="48.73064" lon="1.75028">
        <ele>163.8</ele>
        <time>2023-04-27T13:07:50Z</time>
      </trkpt>
      <trkpt lat="48.73064" lon="1.75024">
        <ele>163.6</ele>
        <time>2023-04-27T13:07:52Z</time>
      </trkpt>
      <trkpt lat="48.73064" lon="1.75019">
        <ele>163.6</ele>
        <time>2023-04-27T13:07:54Z</time>
      </trkpt>
      <trkpt lat="48.73063" lon="1.75014">
        <ele>163.6</ele>
        <time>2023-04-27T13:07:56Z</time>
      </trkpt>
      <trkpt lat="48.73062" lon="1.75009">
        <ele>163.4</ele>
        <time>2023-04-27T13:07:58Z</time>
      </trkpt>
      <trkpt lat="48.73061" lon="1.75007">
        <ele>163.4</ele>
        <time>2023-04-27T13:07:59Z</time>
      </trkpt>
      <trkpt lat="48.73061" lon="1.75004">
        <ele>163.2</ele>
        <time>2023-04-27T13:08:00Z</time>
      </trkpt>
      <trkpt lat="48.73061" lon="1.75001">
        <ele>163.2</ele>
        <time>2023-04-27T13:08:01Z</time>
      </trkpt>
      <trkpt lat="48.73061" lon="1.74996">
        <ele>163</ele>
        <time>2023-04-27T13:08:03Z</time>
      </trkpt>
      <trkpt lat="48.73062" lon="1.74991">
        <ele>162.8</ele>
        <time>2023-04-27T13:08:05Z</time>
      </trkpt>
      <trkpt lat="48.73063" lon="1.74988">
        <ele>162.8</ele>
        <time>2023-04-27T13:08:06Z</time>
      </trkpt>
      <trkpt lat="48.73064" lon="1.74986">
        <ele>162.6</ele>
        <time>2023-04-27T13:08:07Z</time>
      </trkpt>
      <trkpt lat="48.73065" lon="1.74983">
        <ele>162.6</ele>
        <time>2023-04-27T13:08:08Z</time>
      </trkpt>
      <trkpt lat="48.73066" lon="1.74981">
        <ele>162.6</ele>
        <time>2023-04-27T13:08:09Z</time>
      </trkpt>
      <trkpt lat="48.73067" lon="1.74978">
        <ele>162.6</ele>
        <time>2023-04-27T13:08:10Z</time>
      </trkpt>
      <trkpt lat="48.73068" lon="1.74973">
        <ele>162.4</ele>
        <time>2023-04-27T13:08:12Z</time>
      </trkpt>
      <trkpt lat="48.73067" lon="1.74971">
        <ele>162.2</ele>
        <time>2023-04-27T13:08:13Z</time>
      </trkpt>
      <trkpt lat="48.73067" lon="1.74968">
        <ele>162.2</ele>
        <time>2023-04-27T13:08:14Z</time>
      </trkpt>
      <trkpt lat="48.73066" lon="1.74964">
        <ele>162</ele>
        <time>2023-04-27T13:08:15Z</time>
      </trkpt>
      <trkpt lat="48.73066" lon="1.74961">
        <ele>162</ele>
        <time>2023-04-27T13:08:16Z</time>
      </trkpt>
      <trkpt lat="48.73067" lon="1.74957">
        <ele>161.6</ele>
        <time>2023-04-27T13:08:18Z</time>
      </trkpt>
      <trkpt lat="48.73068" lon="1.74953">
        <ele>161.4</ele>
        <time>2023-04-27T13:08:20Z</time>
      </trkpt>
      <trkpt lat="48.73068" lon="1.7495">
        <ele>161.4</ele>
        <time>2023-04-27T13:08:22Z</time>
      </trkpt>
      <trkpt lat="48.73067" lon="1.74947">
        <ele>161</ele>
        <time>2023-04-27T13:08:24Z</time>
      </trkpt>
      <trkpt lat="48.73066" lon="1.74943">
        <ele>160.8</ele>
        <time>2023-04-27T13:08:26Z</time>
      </trkpt>
      <trkpt lat="48.73064" lon="1.74939">
        <ele>160.8</ele>
        <time>2023-04-27T13:08:28Z</time>
      </trkpt>
      <trkpt lat="48.73064" lon="1.74935">
        <ele>160.6</ele>
        <time>2023-04-27T13:08:30Z</time>
      </trkpt>
      <trkpt lat="48.73062" lon="1.74931">
        <ele>160.6</ele>
        <time>2023-04-27T13:08:32Z</time>
      </trkpt>
      <trkpt lat="48.73061" lon="1.74929">
        <ele>160.6</ele>
        <time>2023-04-27T13:08:34Z</time>
      </trkpt>
      <trkpt lat="48.73059" lon="1.74927">
        <ele>160.6</ele>
        <time>2023-04-27T13:08:36Z</time>
      </trkpt>
      <trkpt lat="48.73057" lon="1.74925">
        <ele>160.4</ele>
        <time>2023-04-27T13:08:38Z</time>
      </trkpt>
      <trkpt lat="48.73056" lon="1.74922">
        <ele>160.4</ele>
        <time>2023-04-27T13:08:40Z</time>
      </trkpt>
      <trkpt lat="48.73054" lon="1.74919">
        <ele>160</ele>
        <time>2023-04-27T13:08:42Z</time>
      </trkpt>
      <trkpt lat="48.73054" lon="1.74915">
        <ele>159.8</ele>
        <time>2023-04-27T13:08:44Z</time>
      </trkpt>
      <trkpt lat="48.73054" lon="1.74911">
        <ele>159.4</ele>
        <time>2023-04-27T13:08:46Z</time>
      </trkpt>
      <trkpt lat="48.73054" lon="1.74907">
        <ele>159.2</ele>
        <time>2023-04-27T13:08:48Z</time>
      </trkpt>
      <trkpt lat="48.73055" lon="1.74902">
        <ele>158.8</ele>
        <time>2023-04-27T13:08:50Z</time>
      </trkpt>
      <trkpt lat="48.73056" lon="1.74899">
        <ele>158.8</ele>
        <time>2023-04-27T13:08:51Z</time>
      </trkpt>
      <trkpt lat="48.73056" lon="1.74896">
        <ele>158.6</ele>
        <time>2023-04-27T13:08:52Z</time>
      </trkpt>
      <trkpt lat="48.73057" lon="1.74891">
        <ele>158.4</ele>
        <time>2023-04-27T13:08:54Z</time>
      </trkpt>
      <trkpt lat="48.73057" lon="1.74887">
        <ele>158.2</ele>
        <time>2023-04-27T13:08:56Z</time>
      </trkpt>
      <trkpt lat="48.73057" lon="1.74883">
        <ele>157.8</ele>
        <time>2023-04-27T13:08:58Z</time>
      </trkpt>
      <trkpt lat="48.73058" lon="1.74879">
        <ele>157.6</ele>
        <time>2023-04-27T13:09:00Z</time>
      </trkpt>
      <trkpt lat="48.73058" lon="1.74874">
        <ele>157.4</ele>
        <time>2023-04-27T13:09:02Z</time>
      </trkpt>
      <trkpt lat="48.73058" lon="1.74872">
        <ele>157.4</ele>
        <time>2023-04-27T13:09:03Z</time>
      </trkpt>
      <trkpt lat="48.73059" lon="1.74869">
        <ele>157.2</ele>
        <time>2023-04-27T13:09:04Z</time>
      </trkpt>
      <trkpt lat="48.73059" lon="1.74866">
        <ele>157</ele>
        <time>2023-04-27T13:09:05Z</time>
      </trkpt>
      <trkpt lat="48.7306" lon="1.74862">
        <ele>156.8</ele>
        <time>2023-04-27T13:09:06Z</time>
      </trkpt>
      <trkpt lat="48.7306" lon="1.7486">
        <ele>156.8</ele>
        <time>2023-04-27T13:09:07Z</time>
      </trkpt>
      <trkpt lat="48.7306" lon="1.74857">
        <ele>156.6</ele>
        <time>2023-04-27T13:09:08Z</time>
      </trkpt>
      <trkpt lat="48.7306" lon="1.74854">
        <ele>156.4</ele>
        <time>2023-04-27T13:09:09Z</time>
      </trkpt>
      <trkpt lat="48.7306" lon="1.74851">
        <ele>156.2</ele>
        <time>2023-04-27T13:09:10Z</time>
      </trkpt>
      <trkpt lat="48.7306" lon="1.74846">
        <ele>155.8</ele>
        <time>2023-04-27T13:09:12Z</time>
      </trkpt>
      <trkpt lat="48.7306" lon="1.74841">
        <ele>155.6</ele>
        <time>2023-04-27T13:09:14Z</time>
      </trkpt>
      <trkpt lat="48.73058" lon="1.74837">
        <ele>155.4</ele>
        <time>2023-04-27T13:09:16Z</time>
      </trkpt>
      <trkpt lat="48.73056" lon="1.74832">
        <ele>155.4</ele>
        <time>2023-04-27T13:09:18Z</time>
      </trkpt>
      <trkpt lat="48.73056" lon="1.74828">
        <ele>155</ele>
        <time>2023-04-27T13:09:20Z</time>
      </trkpt>
      <trkpt lat="48.73055" lon="1.74824">
        <ele>154.8</ele>
        <time>2023-04-27T13:09:22Z</time>
      </trkpt>
      <trkpt lat="48.73054" lon="1.7482">
        <ele>154.6</ele>
        <time>2023-04-27T13:09:24Z</time>
      </trkpt>
      <trkpt lat="48.73054" lon="1.74817">
        <ele>154.2</ele>
        <time>2023-04-27T13:09:26Z</time>
      </trkpt>
      <trkpt lat="48.73053" lon="1.74812">
        <ele>154</ele>
        <time>2023-04-27T13:09:28Z</time>
      </trkpt>
      <trkpt lat="48.73053" lon="1.74809">
        <ele>153.8</ele>
        <time>2023-04-27T13:09:29Z</time>
      </trkpt>
      <trkpt lat="48.73052" lon="1.74806">
        <ele>153.6</ele>
        <time>2023-04-27T13:09:30Z</time>
      </trkpt>
      <trkpt lat="48.73052" lon="1.74802">
        <ele>153.4</ele>
        <time>2023-04-27T13:09:32Z</time>
      </trkpt>
      <trkpt lat="48.73052" lon="1.74798">
        <ele>153.2</ele>
        <time>2023-04-27T13:09:34Z</time>
      </trkpt>
      <trkpt lat="48.73052" lon="1.74795">
        <ele>152.8</ele>
        <time>2023-04-27T13:09:36Z</time>
      </trkpt>
      <trkpt lat="48.73051" lon="1.74791">
        <ele>152.6</ele>
        <time>2023-04-27T13:09:38Z</time>
      </trkpt>
      <trkpt lat="48.7305" lon="1.74787">
        <ele>152.4</ele>
        <time>2023-04-27T13:09:40Z</time>
      </trkpt>
      <trkpt lat="48.73049" lon="1.74782">
        <ele>152.4</ele>
        <time>2023-04-27T13:09:42Z</time>
      </trkpt>
      <trkpt lat="48.73048" lon="1.74779">
        <ele>152.4</ele>
        <time>2023-04-27T13:09:43Z</time>
      </trkpt>
      <trkpt lat="48.73046" lon="1.74774">
        <ele>152.4</ele>
        <time>2023-04-27T13:09:45Z</time>
      </trkpt>
      <trkpt lat="48.73046" lon="1.7477">
        <ele>152.2</ele>
        <time>2023-04-27T13:09:47Z</time>
      </trkpt>
      <trkpt lat="48.73044" lon="1.74765">
        <ele>152</ele>
        <time>2023-04-27T13:09:49Z</time>
      </trkpt>
      <trkpt lat="48.73043" lon="1.74761">
        <ele>151.8</ele>
        <time>2023-04-27T13:09:51Z</time>
      </trkpt>
      <trkpt lat="48.73042" lon="1.74756">
        <ele>151.4</ele>
        <time>2023-04-27T13:09:53Z</time>
      </trkpt>
      <trkpt lat="48.73041" lon="1.74751">
        <ele>151.4</ele>
        <time>2023-04-27T13:09:55Z</time>
      </trkpt>
      <trkpt lat="48.7304" lon="1.74746">
        <ele>151.2</ele>
        <time>2023-04-27T13:09:57Z</time>
      </trkpt>
      <trkpt lat="48.7304" lon="1.74742">
        <ele>151.2</ele>
        <time>2023-04-27T13:09:59Z</time>
      </trkpt>
      <trkpt lat="48.73039" lon="1.74738">
        <ele>151</ele>
        <time>2023-04-27T13:10:01Z</time>
      </trkpt>
      <trkpt lat="48.73038" lon="1.74734">
        <ele>150.8</ele>
        <time>2023-04-27T13:10:03Z</time>
      </trkpt>
      <trkpt lat="48.73037" lon="1.74728">
        <ele>150.6</ele>
        <time>2023-04-27T13:10:05Z</time>
      </trkpt>
      <trkpt lat="48.73037" lon="1.74725">
        <ele>150.4</ele>
        <time>2023-04-27T13:10:06Z</time>
      </trkpt>
      <trkpt lat="48.73036" lon="1.74722">
        <ele>150.4</ele>
        <time>2023-04-27T13:10:07Z</time>
      </trkpt>
      <trkpt lat="48.73036" lon="1.7472">
        <ele>150.2</ele>
        <time>2023-04-27T13:10:08Z</time>
      </trkpt>
      <trkpt lat="48.73036" lon="1.74715">
        <ele>150</ele>
        <time>2023-04-27T13:10:10Z</time>
      </trkpt>
      <trkpt lat="48.73036" lon="1.7471">
        <ele>150</ele>
        <time>2023-04-27T13:10:12Z</time>
      </trkpt>
      <trkpt lat="48.73035" lon="1.74705">
        <ele>149.8</ele>
        <time>2023-04-27T13:10:14Z</time>
      </trkpt>
      <trkpt lat="48.73034" lon="1.74702">
        <ele>149.6</ele>
        <time>2023-04-27T13:10:15Z</time>
      </trkpt>
      <trkpt lat="48.73033" lon="1.74699">
        <ele>149.4</ele>
        <time>2023-04-27T13:10:16Z</time>
      </trkpt>
      <trkpt lat="48.73032" lon="1.74697">
        <ele>149.4</ele>
        <time>2023-04-27T13:10:17Z</time>
      </trkpt>
      <trkpt lat="48.73032" lon="1.74694">
        <ele>149.2</ele>
        <time>2023-04-27T13:10:18Z</time>
      </trkpt>
      <trkpt lat="48.73031" lon="1.74689">
        <ele>149.2</ele>
        <time>2023-04-27T13:10:20Z</time>
      </trkpt>
      <trkpt lat="48.73031" lon="1.74685">
        <ele>149.2</ele>
        <time>2023-04-27T13:10:22Z</time>
      </trkpt>
      <trkpt lat="48.73031" lon="1.74682">
        <ele>149.2</ele>
        <time>2023-04-27T13:10:24Z</time>
      </trkpt>
      <trkpt lat="48.7303" lon="1.74679">
        <ele>149</ele>
        <time>2023-04-27T13:10:27Z</time>
      </trkpt>
      <trkpt lat="48.73028" lon="1.74676">
        <ele>149.2</ele>
        <time>2023-04-27T13:10:30Z</time>
      </trkpt>
      <trkpt lat="48.73027" lon="1.74674">
        <ele>149.2</ele>
        <time>2023-04-27T13:10:32Z</time>
      </trkpt>
      <trkpt lat="48.73025" lon="1.7467">
        <ele>149</ele>
        <time>2023-04-27T13:10:34Z</time>
      </trkpt>
      <trkpt lat="48.73023" lon="1.74667">
        <ele>149</ele>
        <time>2023-04-27T13:10:36Z</time>
      </trkpt>
      <trkpt lat="48.7302" lon="1.74663">
        <ele>149</ele>
        <time>2023-04-27T13:10:38Z</time>
      </trkpt>
      <trkpt lat="48.73019" lon="1.7466">
        <ele>149</ele>
        <time>2023-04-27T13:10:40Z</time>
      </trkpt>
      <trkpt lat="48.73018" lon="1.74657">
        <ele>149.2</ele>
        <time>2023-04-27T13:10:42Z</time>
      </trkpt>
      <trkpt lat="48.73016" lon="1.74654">
        <ele>149.2</ele>
        <time>2023-04-27T13:10:44Z</time>
      </trkpt>
      <trkpt lat="48.73013" lon="1.74651">
        <ele>149.2</ele>
        <time>2023-04-27T13:10:46Z</time>
      </trkpt>
      <trkpt lat="48.73012" lon="1.74649">
        <ele>149.4</ele>
        <time>2023-04-27T13:10:48Z</time>
      </trkpt>
      <trkpt lat="48.73009" lon="1.74645">
        <ele>149.4</ele>
        <time>2023-04-27T13:10:50Z</time>
      </trkpt>
      <trkpt lat="48.73007" lon="1.7464">
        <ele>149.4</ele>
        <time>2023-04-27T13:10:52Z</time>
      </trkpt>
      <trkpt lat="48.73006" lon="1.74637">
        <ele>149.6</ele>
        <time>2023-04-27T13:10:53Z</time>
      </trkpt>
      <trkpt lat="48.73005" lon="1.74635">
        <ele>149.6</ele>
        <time>2023-04-27T13:10:54Z</time>
      </trkpt>
      <trkpt lat="48.73004" lon="1.74631">
        <ele>149.8</ele>
        <time>2023-04-27T13:10:56Z</time>
      </trkpt>
      <trkpt lat="48.73002" lon="1.74628">
        <ele>149.8</ele>
        <time>2023-04-27T13:10:58Z</time>
      </trkpt>
      <trkpt lat="48.72999" lon="1.74626">
        <ele>149.8</ele>
        <time>2023-04-27T13:11:00Z</time>
      </trkpt>
      <trkpt lat="48.72997" lon="1.74623">
        <ele>149.8</ele>
        <time>2023-04-27T13:11:02Z</time>
      </trkpt>
      <trkpt lat="48.72995" lon="1.74619">
        <ele>149.8</ele>
        <time>2023-04-27T13:11:04Z</time>
      </trkpt>
      <trkpt lat="48.72994" lon="1.74616">
        <ele>149.8</ele>
        <time>2023-04-27T13:11:06Z</time>
      </trkpt>
      <trkpt lat="48.72993" lon="1.74613">
        <ele>149.8</ele>
        <time>2023-04-27T13:11:08Z</time>
      </trkpt>
      <trkpt lat="48.72991" lon="1.7461">
        <ele>149.6</ele>
        <time>2023-04-27T13:11:11Z</time>
      </trkpt>
      <trkpt lat="48.72988" lon="1.74608">
        <ele>149.6</ele>
        <time>2023-04-27T13:11:13Z</time>
      </trkpt>
      <trkpt lat="48.72986" lon="1.74608">
        <ele>149.6</ele>
        <time>2023-04-27T13:11:15Z</time>
      </trkpt>
      <trkpt lat="48.72982" lon="1.74607">
        <ele>149.6</ele>
        <time>2023-04-27T13:11:17Z</time>
      </trkpt>
      <trkpt lat="48.72979" lon="1.74605">
        <ele>149.6</ele>
        <time>2023-04-27T13:11:19Z</time>
      </trkpt>
      <trkpt lat="48.72977" lon="1.74602">
        <ele>149.4</ele>
        <time>2023-04-27T13:11:21Z</time>
      </trkpt>
      <trkpt lat="48.72976" lon="1.74598">
        <ele>149.4</ele>
        <time>2023-04-27T13:11:23Z</time>
      </trkpt>
      <trkpt lat="48.72974" lon="1.74593">
        <ele>149.4</ele>
        <time>2023-04-27T13:11:25Z</time>
      </trkpt>
      <trkpt lat="48.72973" lon="1.74589">
        <ele>149.4</ele>
        <time>2023-04-27T13:11:27Z</time>
      </trkpt>
      <trkpt lat="48.72972" lon="1.74586">
        <ele>149.4</ele>
        <time>2023-04-27T13:11:29Z</time>
      </trkpt>
      <trkpt lat="48.72971" lon="1.74582">
        <ele>149.4</ele>
        <time>2023-04-27T13:11:31Z</time>
      </trkpt>
      <trkpt lat="48.72971" lon="1.74577">
        <ele>149.4</ele>
        <time>2023-04-27T13:11:33Z</time>
      </trkpt>
      <trkpt lat="48.72969" lon="1.74572">
        <ele>149.4</ele>
        <time>2023-04-27T13:11:35Z</time>
      </trkpt>
      <trkpt lat="48.72968" lon="1.74567">
        <ele>149.4</ele>
        <time>2023-04-27T13:11:37Z</time>
      </trkpt>
      <trkpt lat="48.72967" lon="1.74564">
        <ele>149.4</ele>
        <time>2023-04-27T13:11:39Z</time>
      </trkpt>
      <trkpt lat="48.72966" lon="1.74562">
        <ele>149.2</ele>
        <time>2023-04-27T13:11:41Z</time>
      </trkpt>
      <trkpt lat="48.72965" lon="1.74559">
        <ele>149</ele>
        <time>2023-04-27T13:11:43Z</time>
      </trkpt>
      <trkpt lat="48.72964" lon="1.74556">
        <ele>149</ele>
        <time>2023-04-27T13:11:45Z</time>
      </trkpt>
      <trkpt lat="48.72964" lon="1.74551">
        <ele>148.8</ele>
        <time>2023-04-27T13:11:47Z</time>
      </trkpt>
      <trkpt lat="48.72964" lon="1.74548">
        <ele>148.8</ele>
        <time>2023-04-27T13:11:48Z</time>
      </trkpt>
      <trkpt lat="48.72964" lon="1.74545">
        <ele>148.8</ele>
        <time>2023-04-27T13:11:49Z</time>
      </trkpt>
      <trkpt lat="48.72963" lon="1.74542">
        <ele>148.8</ele>
        <time>2023-04-27T13:11:50Z</time>
      </trkpt>
      <trkpt lat="48.72964" lon="1.74537">
        <ele>148.8</ele>
        <time>2023-04-27T13:11:52Z</time>
      </trkpt>
      <trkpt lat="48.72964" lon="1.74534">
        <ele>148.6</ele>
        <time>2023-04-27T13:11:54Z</time>
      </trkpt>
      <trkpt lat="48.72966" lon="1.74533">
        <ele>148.6</ele>
        <time>2023-04-27T13:12:00Z</time>
      </trkpt>
      <trkpt lat="48.72968" lon="1.74533">
        <ele>148.2</ele>
        <time>2023-04-27T13:12:07Z</time>
      </trkpt>
      <trkpt lat="48.7297" lon="1.7453">
        <ele>147.8</ele>
        <time>2023-04-27T13:12:10Z</time>
      </trkpt>
      <trkpt lat="48.72972" lon="1.74526">
        <ele>147.4</ele>
        <time>2023-04-27T13:12:12Z</time>
      </trkpt>
      <trkpt lat="48.72973" lon="1.74523">
        <ele>147.2</ele>
        <time>2023-04-27T13:12:14Z</time>
      </trkpt>
      <trkpt lat="48.72976" lon="1.7452">
        <ele>146.8</ele>
        <time>2023-04-27T13:12:16Z</time>
      </trkpt>
      <trkpt lat="48.72978" lon="1.74517">
        <ele>146.6</ele>
        <time>2023-04-27T13:12:18Z</time>
      </trkpt>
      <trkpt lat="48.7298" lon="1.74515">
        <ele>146.4</ele>
        <time>2023-04-27T13:12:20Z</time>
      </trkpt>
      <trkpt lat="48.72981" lon="1.74512">
        <ele>146.2</ele>
        <time>2023-04-27T13:12:22Z</time>
      </trkpt>
      <trkpt lat="48.72982" lon="1.74509">
        <ele>146</ele>
        <time>2023-04-27T13:12:24Z</time>
      </trkpt>
      <trkpt lat="48.72984" lon="1.74505">
        <ele>145.8</ele>
        <time>2023-04-27T13:12:26Z</time>
      </trkpt>
      <trkpt lat="48.72986" lon="1.74503">
        <ele>145.4</ele>
        <time>2023-04-27T13:12:28Z</time>
      </trkpt>
      <trkpt lat="48.72988" lon="1.74501">
        <ele>145.2</ele>
        <time>2023-04-27T13:12:30Z</time>
      </trkpt>
      <trkpt lat="48.72989" lon="1.74499">
        <ele>145</ele>
        <time>2023-04-27T13:12:32Z</time>
      </trkpt>
      <trkpt lat="48.72992" lon="1.74497">
        <ele>144.8</ele>
        <time>2023-04-27T13:12:34Z</time>
      </trkpt>
      <trkpt lat="48.72995" lon="1.74496">
        <ele>144.4</ele>
        <time>2023-04-27T13:12:36Z</time>
      </trkpt>
      <trkpt lat="48.72997" lon="1.74494">
        <ele>144</ele>
        <time>2023-04-27T13:12:38Z</time>
      </trkpt>
      <trkpt lat="48.73" lon="1.74491">
        <ele>143.8</ele>
        <time>2023-04-27T13:12:40Z</time>
      </trkpt>
      <trkpt lat="48.73002" lon="1.7449">
        <ele>143.6</ele>
        <time>2023-04-27T13:12:41Z</time>
      </trkpt>
      <trkpt lat="48.73004" lon="1.74488">
        <ele>143.4</ele>
        <time>2023-04-27T13:12:43Z</time>
      </trkpt>
      <trkpt lat="48.73007" lon="1.74486">
        <ele>143.2</ele>
        <time>2023-04-27T13:12:45Z</time>
      </trkpt>
      <trkpt lat="48.73009" lon="1.74485">
        <ele>142.8</ele>
        <time>2023-04-27T13:12:47Z</time>
      </trkpt>
      <trkpt lat="48.73012" lon="1.74484">
        <ele>142.6</ele>
        <time>2023-04-27T13:12:49Z</time>
      </trkpt>
      <trkpt lat="48.73014" lon="1.74483">
        <ele>142.2</ele>
        <time>2023-04-27T13:12:51Z</time>
      </trkpt>
      <trkpt lat="48.73017" lon="1.74481">
        <ele>142</ele>
        <time>2023-04-27T13:12:53Z</time>
      </trkpt>
      <trkpt lat="48.7302" lon="1.74481">
        <ele>141.8</ele>
        <time>2023-04-27T13:12:55Z</time>
      </trkpt>
      <trkpt lat="48.73023" lon="1.74481">
        <ele>141.4</ele>
        <time>2023-04-27T13:12:57Z</time>
      </trkpt>
      <trkpt lat="48.73025" lon="1.74481">
        <ele>141.2</ele>
        <time>2023-04-27T13:12:58Z</time>
      </trkpt>
      <trkpt lat="48.73028" lon="1.7448">
        <ele>140.8</ele>
        <time>2023-04-27T13:13:00Z</time>
      </trkpt>
      <trkpt lat="48.7303" lon="1.74478">
        <ele>140.6</ele>
        <time>2023-04-27T13:13:02Z</time>
      </trkpt>
      <trkpt lat="48.73033" lon="1.74475">
        <ele>140.6</ele>
        <time>2023-04-27T13:13:04Z</time>
      </trkpt>
      <trkpt lat="48.73035" lon="1.74472">
        <ele>140.6</ele>
        <time>2023-04-27T13:13:06Z</time>
      </trkpt>
      <trkpt lat="48.73037" lon="1.74469">
        <ele>140.6</ele>
        <time>2023-04-27T13:13:08Z</time>
      </trkpt>
      <trkpt lat="48.73038" lon="1.74466">
        <ele>140.8</ele>
        <time>2023-04-27T13:13:10Z</time>
      </trkpt>
      <trkpt lat="48.73039" lon="1.74463">
        <ele>141</ele>
        <time>2023-04-27T13:13:12Z</time>
      </trkpt>
      <trkpt lat="48.7304" lon="1.7446">
        <ele>141</ele>
        <time>2023-04-27T13:13:14Z</time>
      </trkpt>
      <trkpt lat="48.73039" lon="1.74456">
        <ele>141</ele>
        <time>2023-04-27T13:13:16Z</time>
      </trkpt>
      <trkpt lat="48.73038" lon="1.74453">
        <ele>141</ele>
        <time>2023-04-27T13:13:17Z</time>
      </trkpt>
      <trkpt lat="48.73038" lon="1.7445">
        <ele>141</ele>
        <time>2023-04-27T13:13:18Z</time>
      </trkpt>
      <trkpt lat="48.73037" lon="1.74445">
        <ele>141</ele>
        <time>2023-04-27T13:13:19Z</time>
      </trkpt>
      <trkpt lat="48.73036" lon="1.7444">
        <ele>140.8</ele>
        <time>2023-04-27T13:13:20Z</time>
      </trkpt>
      <trkpt lat="48.73036" lon="1.74434">
        <ele>140.8</ele>
        <time>2023-04-27T13:13:21Z</time>
      </trkpt>
      <trkpt lat="48.73035" lon="1.74427">
        <ele>140.8</ele>
        <time>2023-04-27T13:13:22Z</time>
      </trkpt>
      <trkpt lat="48.73034" lon="1.7442">
        <ele>140.8</ele>
        <time>2023-04-27T13:13:23Z</time>
      </trkpt>
      <trkpt lat="48.73034" lon="1.74412">
        <ele>141</ele>
        <time>2023-04-27T13:13:24Z</time>
      </trkpt>
      <trkpt lat="48.73034" lon="1.74404">
        <ele>141</ele>
        <time>2023-04-27T13:13:25Z</time>
      </trkpt>
      <trkpt lat="48.73033" lon="1.74396">
        <ele>141</ele>
        <time>2023-04-27T13:13:26Z</time>
      </trkpt>
      <trkpt lat="48.73033" lon="1.74388">
        <ele>141</ele>
        <time>2023-04-27T13:13:27Z</time>
      </trkpt>
      <trkpt lat="48.73032" lon="1.74379">
        <ele>141</ele>
        <time>2023-04-27T13:13:28Z</time>
      </trkpt>
      <trkpt lat="48.73032" lon="1.74371">
        <ele>141</ele>
        <time>2023-04-27T13:13:29Z</time>
      </trkpt>
      <trkpt lat="48.73031" lon="1.74362">
        <ele>141</ele>
        <time>2023-04-27T13:13:30Z</time>
      </trkpt>
      <trkpt lat="48.7303" lon="1.74354">
        <ele>141</ele>
        <time>2023-04-27T13:13:31Z</time>
      </trkpt>
      <trkpt lat="48.73029" lon="1.74346">
        <ele>140.8</ele>
        <time>2023-04-27T13:13:32Z</time>
      </trkpt>
      <trkpt lat="48.73028" lon="1.74338">
        <ele>140.8</ele>
        <time>2023-04-27T13:13:33Z</time>
      </trkpt>
      <trkpt lat="48.73027" lon="1.74331">
        <ele>140.8</ele>
        <time>2023-04-27T13:13:34Z</time>
      </trkpt>
      <trkpt lat="48.73026" lon="1.74323">
        <ele>140.6</ele>
        <time>2023-04-27T13:13:35Z</time>
      </trkpt>
      <trkpt lat="48.73025" lon="1.74315">
        <ele>140.6</ele>
        <time>2023-04-27T13:13:36Z</time>
      </trkpt>
      <trkpt lat="48.73024" lon="1.74307">
        <ele>140.6</ele>
        <time>2023-04-27T13:13:37Z</time>
      </trkpt>
      <trkpt lat="48.73023" lon="1.74298">
        <ele>140.4</ele>
        <time>2023-04-27T13:13:38Z</time>
      </trkpt>
      <trkpt lat="48.73022" lon="1.74289">
        <ele>140.4</ele>
        <time>2023-04-27T13:13:39Z</time>
      </trkpt>
      <trkpt lat="48.73021" lon="1.7428">
        <ele>140.2</ele>
        <time>2023-04-27T13:13:40Z</time>
      </trkpt>
      <trkpt lat="48.7302" lon="1.74271">
        <ele>140.2</ele>
        <time>2023-04-27T13:13:41Z</time>
      </trkpt>
      <trkpt lat="48.7302" lon="1.74262">
        <ele>140</ele>
        <time>2023-04-27T13:13:42Z</time>
      </trkpt>
      <trkpt lat="48.73019" lon="1.74253">
        <ele>140</ele>
        <time>2023-04-27T13:13:43Z</time>
      </trkpt>
      <trkpt lat="48.73018" lon="1.74244">
        <ele>140</ele>
        <time>2023-04-27T13:13:44Z</time>
      </trkpt>
      <trkpt lat="48.73016" lon="1.74235">
        <ele>140</ele>
        <time>2023-04-27T13:13:45Z</time>
      </trkpt>
      <trkpt lat="48.73014" lon="1.74226">
        <ele>139.8</ele>
        <time>2023-04-27T13:13:46Z</time>
      </trkpt>
      <trkpt lat="48.73013" lon="1.74217">
        <ele>139.8</ele>
        <time>2023-04-27T13:13:47Z</time>
      </trkpt>
      <trkpt lat="48.73012" lon="1.74209">
        <ele>139.8</ele>
        <time>2023-04-27T13:13:48Z</time>
      </trkpt>
      <trkpt lat="48.73011" lon="1.74201">
        <ele>139.6</ele>
        <time>2023-04-27T13:13:49Z</time>
      </trkpt>
      <trkpt lat="48.7301" lon="1.74193">
        <ele>139.6</ele>
        <time>2023-04-27T13:13:50Z</time>
      </trkpt>
      <trkpt lat="48.73009" lon="1.74185">
        <ele>139.4</ele>
        <time>2023-04-27T13:13:51Z</time>
      </trkpt>
      <trkpt lat="48.73008" lon="1.74178">
        <ele>139.4</ele>
        <time>2023-04-27T13:13:52Z</time>
      </trkpt>
      <trkpt lat="48.73008" lon="1.7417">
        <ele>139.2</ele>
        <time>2023-04-27T13:13:53Z</time>
      </trkpt>
      <trkpt lat="48.73008" lon="1.74162">
        <ele>139.2</ele>
        <time>2023-04-27T13:13:54Z</time>
      </trkpt>
      <trkpt lat="48.73008" lon="1.74153">
        <ele>139.2</ele>
        <time>2023-04-27T13:13:55Z</time>
      </trkpt>
      <trkpt lat="48.73008" lon="1.74145">
        <ele>139</ele>
        <time>2023-04-27T13:13:56Z</time>
      </trkpt>
      <trkpt lat="48.73008" lon="1.74136">
        <ele>139</ele>
        <time>2023-04-27T13:13:57Z</time>
      </trkpt>
      <trkpt lat="48.73008" lon="1.74127">
        <ele>139</ele>
        <time>2023-04-27T13:13:58Z</time>
      </trkpt>
      <trkpt lat="48.73008" lon="1.74118">
        <ele>139</ele>
        <time>2023-04-27T13:13:59Z</time>
      </trkpt>
      <trkpt lat="48.73008" lon="1.74109">
        <ele>139</ele>
        <time>2023-04-27T13:14:00Z</time>
      </trkpt>
      <trkpt lat="48.73007" lon="1.741">
        <ele>139</ele>
        <time>2023-04-27T13:14:01Z</time>
      </trkpt>
      <trkpt lat="48.73006" lon="1.74091">
        <ele>139</ele>
        <time>2023-04-27T13:14:02Z</time>
      </trkpt>
      <trkpt lat="48.73005" lon="1.74081">
        <ele>139</ele>
        <time>2023-04-27T13:14:03Z</time>
      </trkpt>
      <trkpt lat="48.73004" lon="1.74072">
        <ele>139</ele>
        <time>2023-04-27T13:14:04Z</time>
      </trkpt>
      <trkpt lat="48.73004" lon="1.74062">
        <ele>139</ele>
        <time>2023-04-27T13:14:05Z</time>
      </trkpt>
      <trkpt lat="48.73003" lon="1.74053">
        <ele>139</ele>
        <time>2023-04-27T13:14:06Z</time>
      </trkpt>
      <trkpt lat="48.73003" lon="1.74043">
        <ele>138.8</ele>
        <time>2023-04-27T13:14:07Z</time>
      </trkpt>
      <trkpt lat="48.73003" lon="1.74034">
        <ele>138.8</ele>
        <time>2023-04-27T13:14:08Z</time>
      </trkpt>
      <trkpt lat="48.73003" lon="1.74024">
        <ele>138.8</ele>
        <time>2023-04-27T13:14:09Z</time>
      </trkpt>
      <trkpt lat="48.73003" lon="1.74014">
        <ele>138.8</ele>
        <time>2023-04-27T13:14:10Z</time>
      </trkpt>
      <trkpt lat="48.73003" lon="1.74005">
        <ele>138.6</ele>
        <time>2023-04-27T13:14:11Z</time>
      </trkpt>
      <trkpt lat="48.73003" lon="1.73995">
        <ele>138.6</ele>
        <time>2023-04-27T13:14:12Z</time>
      </trkpt>
      <trkpt lat="48.73002" lon="1.73986">
        <ele>138.6</ele>
        <time>2023-04-27T13:14:13Z</time>
      </trkpt>
      <trkpt lat="48.73002" lon="1.73976">
        <ele>138.6</ele>
        <time>2023-04-27T13:14:14Z</time>
      </trkpt>
      <trkpt lat="48.73001" lon="1.73968">
        <ele>138.4</ele>
        <time>2023-04-27T13:14:15Z</time>
      </trkpt>
      <trkpt lat="48.72999" lon="1.7396">
        <ele>138.4</ele>
        <time>2023-04-27T13:14:16Z</time>
      </trkpt>
      <trkpt lat="48.72997" lon="1.73952">
        <ele>138.4</ele>
        <time>2023-04-27T13:14:17Z</time>
      </trkpt>
      <trkpt lat="48.72994" lon="1.73945">
        <ele>138.2</ele>
        <time>2023-04-27T13:14:18Z</time>
      </trkpt>
      <trkpt lat="48.72991" lon="1.73938">
        <ele>138.2</ele>
        <time>2023-04-27T13:14:19Z</time>
      </trkpt>
      <trkpt lat="48.72987" lon="1.73932">
        <ele>138.2</ele>
        <time>2023-04-27T13:14:20Z</time>
      </trkpt>
      <trkpt lat="48.72982" lon="1.73926">
        <ele>138.2</ele>
        <time>2023-04-27T13:14:21Z</time>
      </trkpt>
      <trkpt lat="48.72977" lon="1.73921">
        <ele>138.2</ele>
        <time>2023-04-27T13:14:22Z</time>
      </trkpt>
      <trkpt lat="48.72972" lon="1.73916">
        <ele>138</ele>
        <time>2023-04-27T13:14:23Z</time>
      </trkpt>
      <trkpt lat="48.72968" lon="1.73912">
        <ele>138</ele>
        <time>2023-04-27T13:14:24Z</time>
      </trkpt>
      <trkpt lat="48.72964" lon="1.73908">
        <ele>137.8</ele>
        <time>2023-04-27T13:14:25Z</time>
      </trkpt>
      <trkpt lat="48.72959" lon="1.73903">
        <ele>137.8</ele>
        <time>2023-04-27T13:14:26Z</time>
      </trkpt>
      <trkpt lat="48.72956" lon="1.73899">
        <ele>137.6</ele>
        <time>2023-04-27T13:14:27Z</time>
      </trkpt>
      <trkpt lat="48.72951" lon="1.73895">
        <ele>137.6</ele>
        <time>2023-04-27T13:14:28Z</time>
      </trkpt>
      <trkpt lat="48.72947" lon="1.73891">
        <ele>137.4</ele>
        <time>2023-04-27T13:14:29Z</time>
      </trkpt>
      <trkpt lat="48.72943" lon="1.73886">
        <ele>137.4</ele>
        <time>2023-04-27T13:14:30Z</time>
      </trkpt>
      <trkpt lat="48.72939" lon="1.73881">
        <ele>137.2</ele>
        <time>2023-04-27T13:14:31Z</time>
      </trkpt>
      <trkpt lat="48.72935" lon="1.73876">
        <ele>137</ele>
        <time>2023-04-27T13:14:32Z</time>
      </trkpt>
      <trkpt lat="48.7293" lon="1.73872">
        <ele>137</ele>
        <time>2023-04-27T13:14:33Z</time>
      </trkpt>
      <trkpt lat="48.72926" lon="1.73867">
        <ele>137</ele>
        <time>2023-04-27T13:14:34Z</time>
      </trkpt>
      <trkpt lat="48.72922" lon="1.73862">
        <ele>136.8</ele>
        <time>2023-04-27T13:14:35Z</time>
      </trkpt>
      <trkpt lat="48.72918" lon="1.73857">
        <ele>136.6</ele>
        <time>2023-04-27T13:14:36Z</time>
      </trkpt>
      <trkpt lat="48.72914" lon="1.73853">
        <ele>136.6</ele>
        <time>2023-04-27T13:14:37Z</time>
      </trkpt>
      <trkpt lat="48.7291" lon="1.73848">
        <ele>136.4</ele>
        <time>2023-04-27T13:14:38Z</time>
      </trkpt>
      <trkpt lat="48.72906" lon="1.73844">
        <ele>136.4</ele>
        <time>2023-04-27T13:14:39Z</time>
      </trkpt>
      <trkpt lat="48.72902" lon="1.73839">
        <ele>136.2</ele>
        <time>2023-04-27T13:14:40Z</time>
      </trkpt>
      <trkpt lat="48.72898" lon="1.73834">
        <ele>136.2</ele>
        <time>2023-04-27T13:14:41Z</time>
      </trkpt>
      <trkpt lat="48.72893" lon="1.73829">
        <ele>136</ele>
        <time>2023-04-27T13:14:42Z</time>
      </trkpt>
      <trkpt lat="48.72889" lon="1.73824">
        <ele>136</ele>
        <time>2023-04-27T13:14:43Z</time>
      </trkpt>
      <trkpt lat="48.72884" lon="1.73819">
        <ele>136</ele>
        <time>2023-04-27T13:14:44Z</time>
      </trkpt>
      <trkpt lat="48.72878" lon="1.73814">
        <ele>135.8</ele>
        <time>2023-04-27T13:14:45Z</time>
      </trkpt>
      <trkpt lat="48.72873" lon="1.73808">
        <ele>135.8</ele>
        <time>2023-04-27T13:14:46Z</time>
      </trkpt>
      <trkpt lat="48.72868" lon="1.73803">
        <ele>135.8</ele>
        <time>2023-04-27T13:14:47Z</time>
      </trkpt>
      <trkpt lat="48.72864" lon="1.73798">
        <ele>135.8</ele>
        <time>2023-04-27T13:14:48Z</time>
      </trkpt>
      <trkpt lat="48.72859" lon="1.73794">
        <ele>135.8</ele>
        <time>2023-04-27T13:14:49Z</time>
      </trkpt>
      <trkpt lat="48.72855" lon="1.73789">
        <ele>135.8</ele>
        <time>2023-04-27T13:14:50Z</time>
      </trkpt>
      <trkpt lat="48.7285" lon="1.73784">
        <ele>135.8</ele>
        <time>2023-04-27T13:14:51Z</time>
      </trkpt>
      <trkpt lat="48.72846" lon="1.7378">
        <ele>135.8</ele>
        <time>2023-04-27T13:14:52Z</time>
      </trkpt>
      <trkpt lat="48.72841" lon="1.73775">
        <ele>135.8</ele>
        <time>2023-04-27T13:14:53Z</time>
      </trkpt>
      <trkpt lat="48.72837" lon="1.73771">
        <ele>135.8</ele>
        <time>2023-04-27T13:14:54Z</time>
      </trkpt>
      <trkpt lat="48.72832" lon="1.73766">
        <ele>135.8</ele>
        <time>2023-04-27T13:14:55Z</time>
      </trkpt>
      <trkpt lat="48.72827" lon="1.73762">
        <ele>135.8</ele>
        <time>2023-04-27T13:14:56Z</time>
      </trkpt>
      <trkpt lat="48.72823" lon="1.73757">
        <ele>135.6</ele>
        <time>2023-04-27T13:14:57Z</time>
      </trkpt>
      <trkpt lat="48.72818" lon="1.73753">
        <ele>135.6</ele>
        <time>2023-04-27T13:14:58Z</time>
      </trkpt>
      <trkpt lat="48.72814" lon="1.73749">
        <ele>135.6</ele>
        <time>2023-04-27T13:14:59Z</time>
      </trkpt>
      <trkpt lat="48.7281" lon="1.73745">
        <ele>135.6</ele>
        <time>2023-04-27T13:15:00Z</time>
      </trkpt>
      <trkpt lat="48.72805" lon="1.7374">
        <ele>135.4</ele>
        <time>2023-04-27T13:15:01Z</time>
      </trkpt>
      <trkpt lat="48.72801" lon="1.73736">
        <ele>135.4</ele>
        <time>2023-04-27T13:15:02Z</time>
      </trkpt>
      <trkpt lat="48.72797" lon="1.73732">
        <ele>135.4</ele>
        <time>2023-04-27T13:15:03Z</time>
      </trkpt>
      <trkpt lat="48.72794" lon="1.73728">
        <ele>135.4</ele>
        <time>2023-04-27T13:15:04Z</time>
      </trkpt>
      <trkpt lat="48.7279" lon="1.73725">
        <ele>135.2</ele>
        <time>2023-04-27T13:15:05Z</time>
      </trkpt>
      <trkpt lat="48.72786" lon="1.73721">
        <ele>135.2</ele>
        <time>2023-04-27T13:15:06Z</time>
      </trkpt>
      <trkpt lat="48.72782" lon="1.73718">
        <ele>135</ele>
        <time>2023-04-27T13:15:07Z</time>
      </trkpt>
      <trkpt lat="48.72779" lon="1.73714">
        <ele>134.8</ele>
        <time>2023-04-27T13:15:08Z</time>
      </trkpt>
      <trkpt lat="48.72776" lon="1.7371">
        <ele>134.8</ele>
        <time>2023-04-27T13:15:09Z</time>
      </trkpt>
      <trkpt lat="48.72772" lon="1.73707">
        <ele>134.8</ele>
        <time>2023-04-27T13:15:10Z</time>
      </trkpt>
      <trkpt lat="48.7277" lon="1.73703">
        <ele>134.6</ele>
        <time>2023-04-27T13:15:11Z</time>
      </trkpt>
      <trkpt lat="48.72766" lon="1.73699">
        <ele>134.6</ele>
        <time>2023-04-27T13:15:12Z</time>
      </trkpt>
      <trkpt lat="48.72764" lon="1.73696">
        <ele>134.6</ele>
        <time>2023-04-27T13:15:13Z</time>
      </trkpt>
      <trkpt lat="48.72761" lon="1.73693">
        <ele>134.6</ele>
        <time>2023-04-27T13:15:14Z</time>
      </trkpt>
      <trkpt lat="48.72759" lon="1.7369">
        <ele>134.6</ele>
        <time>2023-04-27T13:15:15Z</time>
      </trkpt>
      <trkpt lat="48.72756" lon="1.73687">
        <ele>134.6</ele>
        <time>2023-04-27T13:15:16Z</time>
      </trkpt>
      <trkpt lat="48.72754" lon="1.73684">
        <ele>134.6</ele>
        <time>2023-04-27T13:15:17Z</time>
      </trkpt>
      <trkpt lat="48.72752" lon="1.73681">
        <ele>134.4</ele>
        <time>2023-04-27T13:15:18Z</time>
      </trkpt>
      <trkpt lat="48.7275" lon="1.73679">
        <ele>134.4</ele>
        <time>2023-04-27T13:15:19Z</time>
      </trkpt>
      <trkpt lat="48.72749" lon="1.73677">
        <ele>134.4</ele>
        <time>2023-04-27T13:15:20Z</time>
      </trkpt>
      <trkpt lat="48.72747" lon="1.73676">
        <ele>134.2</ele>
        <time>2023-04-27T13:15:21Z</time>
      </trkpt>
      <trkpt lat="48.72744" lon="1.73675">
        <ele>134.2</ele>
        <time>2023-04-27T13:15:23Z</time>
      </trkpt>
      <trkpt lat="48.72741" lon="1.73674">
        <ele>134</ele>
        <time>2023-04-27T13:15:25Z</time>
      </trkpt>
      <trkpt lat="48.72739" lon="1.73673">
        <ele>133.8</ele>
        <time>2023-04-27T13:15:27Z</time>
      </trkpt>
      <trkpt lat="48.72736" lon="1.73671">
        <ele>133.8</ele>
        <time>2023-04-27T13:15:29Z</time>
      </trkpt>
      <trkpt lat="48.72734" lon="1.73669">
        <ele>133.6</ele>
        <time>2023-04-27T13:15:30Z</time>
      </trkpt>
      <trkpt lat="48.72732" lon="1.73666">
        <ele>133.6</ele>
        <time>2023-04-27T13:15:32Z</time>
      </trkpt>
      <trkpt lat="48.72729" lon="1.73663">
        <ele>133.6</ele>
        <time>2023-04-27T13:15:34Z</time>
      </trkpt>
      <trkpt lat="48.72727" lon="1.7366">
        <ele>133.6</ele>
        <time>2023-04-27T13:15:36Z</time>
      </trkpt>
      <trkpt lat="48.72724" lon="1.73658">
        <ele>133.6</ele>
        <time>2023-04-27T13:15:38Z</time>
      </trkpt>
      <trkpt lat="48.72722" lon="1.73655">
        <ele>133.4</ele>
        <time>2023-04-27T13:15:40Z</time>
      </trkpt>
      <trkpt lat="48.7272" lon="1.73652">
        <ele>133.6</ele>
        <time>2023-04-27T13:15:42Z</time>
      </trkpt>
      <trkpt lat="48.72719" lon="1.73651">
        <ele>133.8</ele>
        <time>2023-04-27T13:15:44Z</time>
      </trkpt>
      <trkpt lat="48.72717" lon="1.73649">
        <ele>133.8</ele>
        <time>2023-04-27T13:15:46Z</time>
      </trkpt>
      <trkpt lat="48.72715" lon="1.73647">
        <ele>134</ele>
        <time>2023-04-27T13:15:48Z</time>
      </trkpt>
      <trkpt lat="48.72712" lon="1.73644">
        <ele>134.2</ele>
        <time>2023-04-27T13:15:50Z</time>
      </trkpt>
      <trkpt lat="48.7271" lon="1.73641">
        <ele>134.4</ele>
        <time>2023-04-27T13:15:52Z</time>
      </trkpt>
      <trkpt lat="48.72708" lon="1.73638">
        <ele>134.6</ele>
        <time>2023-04-27T13:15:54Z</time>
      </trkpt>
      <trkpt lat="48.72705" lon="1.73634">
        <ele>134.8</ele>
        <time>2023-04-27T13:15:56Z</time>
      </trkpt>
      <trkpt lat="48.72703" lon="1.73633">
        <ele>135</ele>
        <time>2023-04-27T13:15:57Z</time>
      </trkpt>
      <trkpt lat="48.727" lon="1.7363">
        <ele>135</ele>
        <time>2023-04-27T13:15:59Z</time>
      </trkpt>
      <trkpt lat="48.72698" lon="1.73628">
        <ele>135</ele>
        <time>2023-04-27T13:16:01Z</time>
      </trkpt>
      <trkpt lat="48.72696" lon="1.73626">
        <ele>135.2</ele>
        <time>2023-04-27T13:16:03Z</time>
      </trkpt>
      <trkpt lat="48.72694" lon="1.73625">
        <ele>135.2</ele>
        <time>2023-04-27T13:16:05Z</time>
      </trkpt>
      <trkpt lat="48.72693" lon="1.73623">
        <ele>135.8</ele>
        <time>2023-04-27T13:16:09Z</time>
      </trkpt>
      <trkpt lat="48.72691" lon="1.73621">
        <ele>136.4</ele>
        <time>2023-04-27T13:16:15Z</time>
      </trkpt>
      <trkpt lat="48.72689" lon="1.7362">
        <ele>136.4</ele>
        <time>2023-04-27T13:16:17Z</time>
      </trkpt>
      <trkpt lat="48.72686" lon="1.73617">
        <ele>136.2</ele>
        <time>2023-04-27T13:16:19Z</time>
      </trkpt>
      <trkpt lat="48.72685" lon="1.73616">
        <ele>136.2</ele>
        <time>2023-04-27T13:16:20Z</time>
      </trkpt>
      <trkpt lat="48.72683" lon="1.73614">
        <ele>136.2</ele>
        <time>2023-04-27T13:16:21Z</time>
      </trkpt>
      <trkpt lat="48.72681" lon="1.73611">
        <ele>136</ele>
        <time>2023-04-27T13:16:23Z</time>
      </trkpt>
      <trkpt lat="48.72679" lon="1.73608">
        <ele>136</ele>
        <time>2023-04-27T13:16:25Z</time>
      </trkpt>
      <trkpt lat="48.72676" lon="1.73605">
        <ele>136</ele>
        <time>2023-04-27T13:16:27Z</time>
      </trkpt>
      <trkpt lat="48.72675" lon="1.73602">
        <ele>135.8</ele>
        <time>2023-04-27T13:16:29Z</time>
      </trkpt>
      <trkpt lat="48.72672" lon="1.736">
        <ele>135.8</ele>
        <time>2023-04-27T13:16:31Z</time>
      </trkpt>
      <trkpt lat="48.7267" lon="1.73598">
        <ele>136</ele>
        <time>2023-04-27T13:16:33Z</time>
      </trkpt>
      <trkpt lat="48.72667" lon="1.73595">
        <ele>136</ele>
        <time>2023-04-27T13:16:35Z</time>
      </trkpt>
      <trkpt lat="48.72665" lon="1.73593">
        <ele>136</ele>
        <time>2023-04-27T13:16:36Z</time>
      </trkpt>
      <trkpt lat="48.72663" lon="1.73592">
        <ele>136</ele>
        <time>2023-04-27T13:16:37Z</time>
      </trkpt>
      <trkpt lat="48.72661" lon="1.7359">
        <ele>136</ele>
        <time>2023-04-27T13:16:38Z</time>
      </trkpt>
      <trkpt lat="48.72659" lon="1.73588">
        <ele>136</ele>
        <time>2023-04-27T13:16:39Z</time>
      </trkpt>
      <trkpt lat="48.72657" lon="1.73586">
        <ele>136.2</ele>
        <time>2023-04-27T13:16:40Z</time>
      </trkpt>
      <trkpt lat="48.72655" lon="1.73584">
        <ele>136.2</ele>
        <time>2023-04-27T13:16:41Z</time>
      </trkpt>
      <trkpt lat="48.72652" lon="1.73582">
        <ele>136.2</ele>
        <time>2023-04-27T13:16:42Z</time>
      </trkpt>
      <trkpt lat="48.7265" lon="1.73579">
        <ele>136.2</ele>
        <time>2023-04-27T13:16:43Z</time>
      </trkpt>
      <trkpt lat="48.72647" lon="1.73577">
        <ele>136</ele>
        <time>2023-04-27T13:16:44Z</time>
      </trkpt>
      <trkpt lat="48.72644" lon="1.73574">
        <ele>136</ele>
        <time>2023-04-27T13:16:45Z</time>
      </trkpt>
      <trkpt lat="48.7264" lon="1.73572">
        <ele>136</ele>
        <time>2023-04-27T13:16:46Z</time>
      </trkpt>
      <trkpt lat="48.72637" lon="1.73569">
        <ele>135.8</ele>
        <time>2023-04-27T13:16:47Z</time>
      </trkpt>
      <trkpt lat="48.72633" lon="1.73565">
        <ele>135.8</ele>
        <time>2023-04-27T13:16:48Z</time>
      </trkpt>
      <trkpt lat="48.72629" lon="1.73561">
        <ele>135.8</ele>
        <time>2023-04-27T13:16:49Z</time>
      </trkpt>
      <trkpt lat="48.72625" lon="1.73557">
        <ele>135.8</ele>
        <time>2023-04-27T13:16:50Z</time>
      </trkpt>
      <trkpt lat="48.7262" lon="1.73553">
        <ele>135.8</ele>
        <time>2023-04-27T13:16:51Z</time>
      </trkpt>
      <trkpt lat="48.72617" lon="1.73549">
        <ele>135.8</ele>
        <time>2023-04-27T13:16:52Z</time>
      </trkpt>
      <trkpt lat="48.72612" lon="1.73545">
        <ele>135.8</ele>
        <time>2023-04-27T13:16:53Z</time>
      </trkpt>
      <trkpt lat="48.72609" lon="1.73541">
        <ele>135.8</ele>
        <time>2023-04-27T13:16:54Z</time>
      </trkpt>
      <trkpt lat="48.72605" lon="1.73536">
        <ele>135.8</ele>
        <time>2023-04-27T13:16:55Z</time>
      </trkpt>
      <trkpt lat="48.72601" lon="1.73532">
        <ele>135.8</ele>
        <time>2023-04-27T13:16:56Z</time>
      </trkpt>
      <trkpt lat="48.72597" lon="1.73527">
        <ele>135.6</ele>
        <time>2023-04-27T13:16:57Z</time>
      </trkpt>
      <trkpt lat="48.72594" lon="1.73523">
        <ele>135.6</ele>
        <time>2023-04-27T13:16:58Z</time>
      </trkpt>
      <trkpt lat="48.7259" lon="1.73519">
        <ele>135.6</ele>
        <time>2023-04-27T13:16:59Z</time>
      </trkpt>
      <trkpt lat="48.72586" lon="1.73515">
        <ele>135.4</ele>
        <time>2023-04-27T13:17:00Z</time>
      </trkpt>
      <trkpt lat="48.72582" lon="1.73512">
        <ele>135.4</ele>
        <time>2023-04-27T13:17:01Z</time>
      </trkpt>
      <trkpt lat="48.72579" lon="1.73508">
        <ele>135.4</ele>
        <time>2023-04-27T13:17:02Z</time>
      </trkpt>
      <trkpt lat="48.72574" lon="1.73504">
        <ele>135.2</ele>
        <time>2023-04-27T13:17:03Z</time>
      </trkpt>
      <trkpt lat="48.7257" lon="1.73499">
        <ele>135.2</ele>
        <time>2023-04-27T13:17:04Z</time>
      </trkpt>
      <trkpt lat="48.72566" lon="1.73495">
        <ele>135</ele>
        <time>2023-04-27T13:17:05Z</time>
      </trkpt>
      <trkpt lat="48.72562" lon="1.73491">
        <ele>134.8</ele>
        <time>2023-04-27T13:17:06Z</time>
      </trkpt>
      <trkpt lat="48.72557" lon="1.73486">
        <ele>134.8</ele>
        <time>2023-04-27T13:17:07Z</time>
      </trkpt>
      <trkpt lat="48.72553" lon="1.73482">
        <ele>134.8</ele>
        <time>2023-04-27T13:17:08Z</time>
      </trkpt>
      <trkpt lat="48.72549" lon="1.73478">
        <ele>134.8</ele>
        <time>2023-04-27T13:17:09Z</time>
      </trkpt>
      <trkpt lat="48.72544" lon="1.73474">
        <ele>134.6</ele>
        <time>2023-04-27T13:17:10Z</time>
      </trkpt>
      <trkpt lat="48.72539" lon="1.73472">
        <ele>134.6</ele>
        <time>2023-04-27T13:17:11Z</time>
      </trkpt>
      <trkpt lat="48.72534" lon="1.73469">
        <ele>134.6</ele>
        <time>2023-04-27T13:17:12Z</time>
      </trkpt>
      <trkpt lat="48.72529" lon="1.73467">
        <ele>134.4</ele>
        <time>2023-04-27T13:17:13Z</time>
      </trkpt>
      <trkpt lat="48.72524" lon="1.73465">
        <ele>134.4</ele>
        <time>2023-04-27T13:17:14Z</time>
      </trkpt>
      <trkpt lat="48.72518" lon="1.73464">
        <ele>134.2</ele>
        <time>2023-04-27T13:17:15Z</time>
      </trkpt>
      <trkpt lat="48.72512" lon="1.73462">
        <ele>134.2</ele>
        <time>2023-04-27T13:17:16Z</time>
      </trkpt>
      <trkpt lat="48.72506" lon="1.73461">
        <ele>134</ele>
        <time>2023-04-27T13:17:17Z</time>
      </trkpt>
      <trkpt lat="48.725" lon="1.73459">
        <ele>134</ele>
        <time>2023-04-27T13:17:18Z</time>
      </trkpt>
      <trkpt lat="48.72495" lon="1.73458">
        <ele>134</ele>
        <time>2023-04-27T13:17:19Z</time>
      </trkpt>
      <trkpt lat="48.7249" lon="1.73457">
        <ele>133.8</ele>
        <time>2023-04-27T13:17:20Z</time>
      </trkpt>
      <trkpt lat="48.72484" lon="1.73456">
        <ele>133.8</ele>
        <time>2023-04-27T13:17:21Z</time>
      </trkpt>
      <trkpt lat="48.72478" lon="1.73455">
        <ele>133.6</ele>
        <time>2023-04-27T13:17:22Z</time>
      </trkpt>
      <trkpt lat="48.72473" lon="1.73454">
        <ele>133.6</ele>
        <time>2023-04-27T13:17:23Z</time>
      </trkpt>
      <trkpt lat="48.72467" lon="1.73453">
        <ele>133.4</ele>
        <time>2023-04-27T13:17:24Z</time>
      </trkpt>
      <trkpt lat="48.72461" lon="1.73452">
        <ele>133.4</ele>
        <time>2023-04-27T13:17:25Z</time>
      </trkpt>
      <trkpt lat="48.72456" lon="1.73451">
        <ele>133.4</ele>
        <time>2023-04-27T13:17:26Z</time>
      </trkpt>
      <trkpt lat="48.7245" lon="1.73449">
        <ele>133.2</ele>
        <time>2023-04-27T13:17:27Z</time>
      </trkpt>
      <trkpt lat="48.72445" lon="1.73448">
        <ele>133.2</ele>
        <time>2023-04-27T13:17:28Z</time>
      </trkpt>
      <trkpt lat="48.7244" lon="1.73446">
        <ele>133</ele>
        <time>2023-04-27T13:17:29Z</time>
      </trkpt>
      <trkpt lat="48.72434" lon="1.73445">
        <ele>133</ele>
        <time>2023-04-27T13:17:30Z</time>
      </trkpt>
      <trkpt lat="48.72428" lon="1.73443">
        <ele>132.8</ele>
        <time>2023-04-27T13:17:31Z</time>
      </trkpt>
      <trkpt lat="48.72422" lon="1.73442">
        <ele>132.8</ele>
        <time>2023-04-27T13:17:32Z</time>
      </trkpt>
      <trkpt lat="48.72416" lon="1.7344">
        <ele>132.6</ele>
        <time>2023-04-27T13:17:33Z</time>
      </trkpt>
      <trkpt lat="48.7241" lon="1.73439">
        <ele>132.6</ele>
        <time>2023-04-27T13:17:34Z</time>
      </trkpt>
      <trkpt lat="48.72403" lon="1.73437">
        <ele>132.6</ele>
        <time>2023-04-27T13:17:35Z</time>
      </trkpt>
      <trkpt lat="48.72397" lon="1.73436">
        <ele>132.4</ele>
        <time>2023-04-27T13:17:36Z</time>
      </trkpt>
      <trkpt lat="48.72391" lon="1.73435">
        <ele>132.4</ele>
        <time>2023-04-27T13:17:37Z</time>
      </trkpt>
      <trkpt lat="48.72385" lon="1.73433">
        <ele>132.2</ele>
        <time>2023-04-27T13:17:38Z</time>
      </trkpt>
      <trkpt lat="48.7238" lon="1.73432">
        <ele>132.2</ele>
        <time>2023-04-27T13:17:39Z</time>
      </trkpt>
      <trkpt lat="48.72374" lon="1.73431">
        <ele>132</ele>
        <time>2023-04-27T13:17:40Z</time>
      </trkpt>
      <trkpt lat="48.72369" lon="1.73429">
        <ele>131.8</ele>
        <time>2023-04-27T13:17:41Z</time>
      </trkpt>
      <trkpt lat="48.72364" lon="1.73428">
        <ele>131.6</ele>
        <time>2023-04-27T13:17:42Z</time>
      </trkpt>
      <trkpt lat="48.72359" lon="1.73427">
        <ele>131.6</ele>
        <time>2023-04-27T13:17:43Z</time>
      </trkpt>
      <trkpt lat="48.72354" lon="1.73425">
        <ele>131.4</ele>
        <time>2023-04-27T13:17:44Z</time>
      </trkpt>
      <trkpt lat="48.72349" lon="1.73424">
        <ele>131.4</ele>
        <time>2023-04-27T13:17:45Z</time>
      </trkpt>
      <trkpt lat="48.72343" lon="1.73423">
        <ele>131.2</ele>
        <time>2023-04-27T13:17:46Z</time>
      </trkpt>
      <trkpt lat="48.72338" lon="1.73422">
        <ele>131.2</ele>
        <time>2023-04-27T13:17:47Z</time>
      </trkpt>
      <trkpt lat="48.72333" lon="1.73421">
        <ele>131.2</ele>
        <time>2023-04-27T13:17:48Z</time>
      </trkpt>
      <trkpt lat="48.72328" lon="1.7342">
        <ele>131</ele>
        <time>2023-04-27T13:17:49Z</time>
      </trkpt>
      <trkpt lat="48.72323" lon="1.73419">
        <ele>131</ele>
        <time>2023-04-27T13:17:50Z</time>
      </trkpt>
      <trkpt lat="48.72317" lon="1.73417">
        <ele>131</ele>
        <time>2023-04-27T13:17:51Z</time>
      </trkpt>
      <trkpt lat="48.72313" lon="1.73416">
        <ele>131</ele>
        <time>2023-04-27T13:17:52Z</time>
      </trkpt>
      <trkpt lat="48.72308" lon="1.73414">
        <ele>131</ele>
        <time>2023-04-27T13:17:53Z</time>
      </trkpt>
      <trkpt lat="48.72304" lon="1.73411">
        <ele>131</ele>
        <time>2023-04-27T13:17:54Z</time>
      </trkpt>
      <trkpt lat="48.723" lon="1.73409">
        <ele>131</ele>
        <time>2023-04-27T13:17:55Z</time>
      </trkpt>
      <trkpt lat="48.72297" lon="1.73407">
        <ele>131</ele>
        <time>2023-04-27T13:17:56Z</time>
      </trkpt>
      <trkpt lat="48.72294" lon="1.73406">
        <ele>130.8</ele>
        <time>2023-04-27T13:17:57Z</time>
      </trkpt>
      <trkpt lat="48.72291" lon="1.73406">
        <ele>130.8</ele>
        <time>2023-04-27T13:17:58Z</time>
      </trkpt>
      <trkpt lat="48.72288" lon="1.73406">
        <ele>130.8</ele>
        <time>2023-04-27T13:17:59Z</time>
      </trkpt>
      <trkpt lat="48.72286" lon="1.73406">
        <ele>130.6</ele>
        <time>2023-04-27T13:18:00Z</time>
      </trkpt>
      <trkpt lat="48.72283" lon="1.73406">
        <ele>130.6</ele>
        <time>2023-04-27T13:18:01Z</time>
      </trkpt>
      <trkpt lat="48.72281" lon="1.73406">
        <ele>130.4</ele>
        <time>2023-04-27T13:18:02Z</time>
      </trkpt>
      <trkpt lat="48.72278" lon="1.73405">
        <ele>130.4</ele>
        <time>2023-04-27T13:18:03Z</time>
      </trkpt>
      <trkpt lat="48.72276" lon="1.73405">
        <ele>130.4</ele>
        <time>2023-04-27T13:18:04Z</time>
      </trkpt>
      <trkpt lat="48.72273" lon="1.73404">
        <ele>130.2</ele>
        <time>2023-04-27T13:18:05Z</time>
      </trkpt>
      <trkpt lat="48.7227" lon="1.73403">
        <ele>130.2</ele>
        <time>2023-04-27T13:18:06Z</time>
      </trkpt>
      <trkpt lat="48.72266" lon="1.73402">
        <ele>130.2</ele>
        <time>2023-04-27T13:18:07Z</time>
      </trkpt>
      <trkpt lat="48.72263" lon="1.73402">
        <ele>130.2</ele>
        <time>2023-04-27T13:18:08Z</time>
      </trkpt>
      <trkpt lat="48.7226" lon="1.73401">
        <ele>130</ele>
        <time>2023-04-27T13:18:09Z</time>
      </trkpt>
      <trkpt lat="48.72257" lon="1.734">
        <ele>130</ele>
        <time>2023-04-27T13:18:10Z</time>
      </trkpt>
      <trkpt lat="48.72254" lon="1.734">
        <ele>130</ele>
        <time>2023-04-27T13:18:11Z</time>
      </trkpt>
      <trkpt lat="48.72252" lon="1.73399">
        <ele>129.8</ele>
        <time>2023-04-27T13:18:12Z</time>
      </trkpt>
      <trkpt lat="48.72249" lon="1.73399">
        <ele>129.8</ele>
        <time>2023-04-27T13:18:13Z</time>
      </trkpt>
      <trkpt lat="48.72246" lon="1.73398">
        <ele>129.8</ele>
        <time>2023-04-27T13:18:14Z</time>
      </trkpt>
      <trkpt lat="48.72243" lon="1.73398">
        <ele>129.8</ele>
        <time>2023-04-27T13:18:15Z</time>
      </trkpt>
      <trkpt lat="48.72241" lon="1.73398">
        <ele>129.8</ele>
        <time>2023-04-27T13:18:16Z</time>
      </trkpt>
      <trkpt lat="48.72238" lon="1.73397">
        <ele>129.8</ele>
        <time>2023-04-27T13:18:17Z</time>
      </trkpt>
      <trkpt lat="48.72236" lon="1.73397">
        <ele>129.8</ele>
        <time>2023-04-27T13:18:18Z</time>
      </trkpt>
      <trkpt lat="48.72234" lon="1.73398">
        <ele>129.8</ele>
        <time>2023-04-27T13:18:19Z</time>
      </trkpt>
      <trkpt lat="48.72232" lon="1.73398">
        <ele>129.8</ele>
        <time>2023-04-27T13:18:20Z</time>
      </trkpt>
      <trkpt lat="48.72228" lon="1.73398">
        <ele>129.8</ele>
        <time>2023-04-27T13:18:22Z</time>
      </trkpt>
      <trkpt lat="48.72226" lon="1.73397">
        <ele>129.8</ele>
        <time>2023-04-27T13:18:24Z</time>
      </trkpt>
      <trkpt lat="48.72224" lon="1.73397">
        <ele>129.6</ele>
        <time>2023-04-27T13:18:26Z</time>
      </trkpt>
      <trkpt lat="48.72221" lon="1.73397">
        <ele>129.4</ele>
        <time>2023-04-27T13:18:28Z</time>
      </trkpt>
      <trkpt lat="48.72219" lon="1.73398">
        <ele>129.4</ele>
        <time>2023-04-27T13:18:30Z</time>
      </trkpt>
      <trkpt lat="48.72216" lon="1.73398">
        <ele>129.2</ele>
        <time>2023-04-27T13:18:32Z</time>
      </trkpt>
      <trkpt lat="48.72213" lon="1.73398">
        <ele>129.2</ele>
        <time>2023-04-27T13:18:34Z</time>
      </trkpt>
      <trkpt lat="48.72212" lon="1.73399">
        <ele>129.2</ele>
        <time>2023-04-27T13:18:36Z</time>
      </trkpt>
      <trkpt lat="48.72209" lon="1.73398">
        <ele>129</ele>
        <time>2023-04-27T13:18:38Z</time>
      </trkpt>
      <trkpt lat="48.72206" lon="1.73398">
        <ele>129</ele>
        <time>2023-04-27T13:18:40Z</time>
      </trkpt>
      <trkpt lat="48.72204" lon="1.73398">
        <ele>128.8</ele>
        <time>2023-04-27T13:18:42Z</time>
      </trkpt>
      <trkpt lat="48.72201" lon="1.73399">
        <ele>128.8</ele>
        <time>2023-04-27T13:18:44Z</time>
      </trkpt>
      <trkpt lat="48.72198" lon="1.734">
        <ele>128.8</ele>
        <time>2023-04-27T13:18:46Z</time>
      </trkpt>
      <trkpt lat="48.72195" lon="1.73401">
        <ele>128.6</ele>
        <time>2023-04-27T13:18:48Z</time>
      </trkpt>
      <trkpt lat="48.72193" lon="1.73401">
        <ele>128.6</ele>
        <time>2023-04-27T13:18:49Z</time>
      </trkpt>
      <trkpt lat="48.72191" lon="1.73401">
        <ele>128.6</ele>
        <time>2023-04-27T13:18:50Z</time>
      </trkpt>
      <trkpt lat="48.72189" lon="1.73402">
        <ele>128.6</ele>
        <time>2023-04-27T13:18:51Z</time>
      </trkpt>
      <trkpt lat="48.72186" lon="1.73403">
        <ele>128.6</ele>
        <time>2023-04-27T13:18:53Z</time>
      </trkpt>
      <trkpt lat="48.72184" lon="1.73403">
        <ele>128.6</ele>
        <time>2023-04-27T13:18:54Z</time>
      </trkpt>
      <trkpt lat="48.7218" lon="1.73404">
        <ele>128.6</ele>
        <time>2023-04-27T13:18:56Z</time>
      </trkpt>
      <trkpt lat="48.72178" lon="1.73404">
        <ele>128.6</ele>
        <time>2023-04-27T13:18:57Z</time>
      </trkpt>
      <trkpt lat="48.72175" lon="1.73405">
        <ele>128.6</ele>
        <time>2023-04-27T13:18:59Z</time>
      </trkpt>
      <trkpt lat="48.72172" lon="1.73405">
        <ele>128.4</ele>
        <time>2023-04-27T13:19:01Z</time>
      </trkpt>
      <trkpt lat="48.7217" lon="1.73405">
        <ele>128.4</ele>
        <time>2023-04-27T13:19:03Z</time>
      </trkpt>
      <trkpt lat="48.72167" lon="1.73406">
        <ele>128.4</ele>
        <time>2023-04-27T13:19:05Z</time>
      </trkpt>
      <trkpt lat="48.72164" lon="1.73407">
        <ele>128.4</ele>
        <time>2023-04-27T13:19:07Z</time>
      </trkpt>
      <trkpt lat="48.72161" lon="1.73408">
        <ele>128.6</ele>
        <time>2023-04-27T13:19:09Z</time>
      </trkpt>
      <trkpt lat="48.72159" lon="1.73408">
        <ele>128.6</ele>
        <time>2023-04-27T13:19:10Z</time>
      </trkpt>
      <trkpt lat="48.72156" lon="1.73409">
        <ele>128.8</ele>
        <time>2023-04-27T13:19:12Z</time>
      </trkpt>
      <trkpt lat="48.72154" lon="1.73409">
        <ele>129</ele>
        <time>2023-04-27T13:19:13Z</time>
      </trkpt>
      <trkpt lat="48.72152" lon="1.7341">
        <ele>129.2</ele>
        <time>2023-04-27T13:19:14Z</time>
      </trkpt>
      <trkpt lat="48.72149" lon="1.73411">
        <ele>129.4</ele>
        <time>2023-04-27T13:19:16Z</time>
      </trkpt>
      <trkpt lat="48.72146" lon="1.73412">
        <ele>129.4</ele>
        <time>2023-04-27T13:19:18Z</time>
      </trkpt>
      <trkpt lat="48.72144" lon="1.73412">
        <ele>129.6</ele>
        <time>2023-04-27T13:19:20Z</time>
      </trkpt>
      <trkpt lat="48.7214" lon="1.73412">
        <ele>129.6</ele>
        <time>2023-04-27T13:19:22Z</time>
      </trkpt>
      <trkpt lat="48.72137" lon="1.73412">
        <ele>129.8</ele>
        <time>2023-04-27T13:19:24Z</time>
      </trkpt>
      <trkpt lat="48.72134" lon="1.73412">
        <ele>130.2</ele>
        <time>2023-04-27T13:19:26Z</time>
      </trkpt>
      <trkpt lat="48.72132" lon="1.73411">
        <ele>130.4</ele>
        <time>2023-04-27T13:19:28Z</time>
      </trkpt>
      <trkpt lat="48.7213" lon="1.7341">
        <ele>131</ele>
        <time>2023-04-27T13:19:31Z</time>
      </trkpt>
      <trkpt lat="48.72128" lon="1.73411">
        <ele>131.2</ele>
        <time>2023-04-27T13:19:33Z</time>
      </trkpt>
      <trkpt lat="48.72125" lon="1.73411">
        <ele>131.4</ele>
        <time>2023-04-27T13:19:35Z</time>
      </trkpt>
      <trkpt lat="48.72122" lon="1.73411">
        <ele>131.6</ele>
        <time>2023-04-27T13:19:37Z</time>
      </trkpt>
      <trkpt lat="48.7212" lon="1.73411">
        <ele>131.8</ele>
        <time>2023-04-27T13:19:39Z</time>
      </trkpt>
      <trkpt lat="48.72118" lon="1.73411">
        <ele>132.4</ele>
        <time>2023-04-27T13:19:44Z</time>
      </trkpt>
      <trkpt lat="48.72116" lon="1.73411">
        <ele>136</ele>
        <time>2023-04-27T13:20:11Z</time>
      </trkpt>
      <trkpt lat="48.72113" lon="1.73412">
        <ele>136</ele>
        <time>2023-04-27T13:20:13Z</time>
      </trkpt>
      <trkpt lat="48.72111" lon="1.73413">
        <ele>136</ele>
        <time>2023-04-27T13:20:14Z</time>
      </trkpt>
      <trkpt lat="48.72108" lon="1.73415">
        <ele>136</ele>
        <time>2023-04-27T13:20:15Z</time>
      </trkpt>
      <trkpt lat="48.72105" lon="1.73415">
        <ele>136</ele>
        <time>2023-04-27T13:20:16Z</time>
      </trkpt>
      <trkpt lat="48.72101" lon="1.73416">
        <ele>136</ele>
        <time>2023-04-27T13:20:17Z</time>
      </trkpt>
      <trkpt lat="48.72097" lon="1.73417">
        <ele>136</ele>
        <time>2023-04-27T13:20:18Z</time>
      </trkpt>
      <trkpt lat="48.72093" lon="1.73417">
        <ele>136</ele>
        <time>2023-04-27T13:20:19Z</time>
      </trkpt>
      <trkpt lat="48.72089" lon="1.73418">
        <ele>136.2</ele>
        <time>2023-04-27T13:20:20Z</time>
      </trkpt>
      <trkpt lat="48.72084" lon="1.73418">
        <ele>136.2</ele>
        <time>2023-04-27T13:20:21Z</time>
      </trkpt>
      <trkpt lat="48.72079" lon="1.73419">
        <ele>136.2</ele>
        <time>2023-04-27T13:20:22Z</time>
      </trkpt>
      <trkpt lat="48.72075" lon="1.73419">
        <ele>136.2</ele>
        <time>2023-04-27T13:20:23Z</time>
      </trkpt>
      <trkpt lat="48.7207" lon="1.7342">
        <ele>136.2</ele>
        <time>2023-04-27T13:20:24Z</time>
      </trkpt>
      <trkpt lat="48.72065" lon="1.73421">
        <ele>136.2</ele>
        <time>2023-04-27T13:20:25Z</time>
      </trkpt>
      <trkpt lat="48.72059" lon="1.73422">
        <ele>136.2</ele>
        <time>2023-04-27T13:20:26Z</time>
      </trkpt>
      <trkpt lat="48.72054" lon="1.73423">
        <ele>136.2</ele>
        <time>2023-04-27T13:20:27Z</time>
      </trkpt>
      <trkpt lat="48.72049" lon="1.73424">
        <ele>136.2</ele>
        <time>2023-04-27T13:20:28Z</time>
      </trkpt>
      <trkpt lat="48.72043" lon="1.73425">
        <ele>136.2</ele>
        <time>2023-04-27T13:20:29Z</time>
      </trkpt>
      <trkpt lat="48.72037" lon="1.73427">
        <ele>136.2</ele>
        <time>2023-04-27T13:20:30Z</time>
      </trkpt>
      <trkpt lat="48.72032" lon="1.73428">
        <ele>136.2</ele>
        <time>2023-04-27T13:20:31Z</time>
      </trkpt>
      <trkpt lat="48.72027" lon="1.7343">
        <ele>136.2</ele>
        <time>2023-04-27T13:20:32Z</time>
      </trkpt>
      <trkpt lat="48.72021" lon="1.73431">
        <ele>136.2</ele>
        <time>2023-04-27T13:20:33Z</time>
      </trkpt>
      <trkpt lat="48.72015" lon="1.73433">
        <ele>136</ele>
        <time>2023-04-27T13:20:34Z</time>
      </trkpt>
      <trkpt lat="48.7201" lon="1.73435">
        <ele>136</ele>
        <time>2023-04-27T13:20:35Z</time>
      </trkpt>
      <trkpt lat="48.72004" lon="1.73436">
        <ele>136</ele>
        <time>2023-04-27T13:20:36Z</time>
      </trkpt>
      <trkpt lat="48.71999" lon="1.73438">
        <ele>135.8</ele>
        <time>2023-04-27T13:20:37Z</time>
      </trkpt>
      <trkpt lat="48.71993" lon="1.7344">
        <ele>135.8</ele>
        <time>2023-04-27T13:20:38Z</time>
      </trkpt>
      <trkpt lat="48.71987" lon="1.73441">
        <ele>135.8</ele>
        <time>2023-04-27T13:20:39Z</time>
      </trkpt>
      <trkpt lat="48.71981" lon="1.73443">
        <ele>135.6</ele>
        <time>2023-04-27T13:20:40Z</time>
      </trkpt>
      <trkpt lat="48.71975" lon="1.73445">
        <ele>135.6</ele>
        <time>2023-04-27T13:20:41Z</time>
      </trkpt>
      <trkpt lat="48.71968" lon="1.73447">
        <ele>135.6</ele>
        <time>2023-04-27T13:20:42Z</time>
      </trkpt>
      <trkpt lat="48.71962" lon="1.73448">
        <ele>135.4</ele>
        <time>2023-04-27T13:20:43Z</time>
      </trkpt>
      <trkpt lat="48.71956" lon="1.7345">
        <ele>135.4</ele>
        <time>2023-04-27T13:20:44Z</time>
      </trkpt>
      <trkpt lat="48.7195" lon="1.73451">
        <ele>135.2</ele>
        <time>2023-04-27T13:20:45Z</time>
      </trkpt>
      <trkpt lat="48.71944" lon="1.73453">
        <ele>135.2</ele>
        <time>2023-04-27T13:20:46Z</time>
      </trkpt>
      <trkpt lat="48.71938" lon="1.73454">
        <ele>135</ele>
        <time>2023-04-27T13:20:47Z</time>
      </trkpt>
      <trkpt lat="48.71932" lon="1.73456">
        <ele>134.8</ele>
        <time>2023-04-27T13:20:48Z</time>
      </trkpt>
      <trkpt lat="48.71927" lon="1.73458">
        <ele>134.8</ele>
        <time>2023-04-27T13:20:49Z</time>
      </trkpt>
      <trkpt lat="48.71921" lon="1.73459">
        <ele>134.6</ele>
        <time>2023-04-27T13:20:50Z</time>
      </trkpt>
      <trkpt lat="48.71916" lon="1.7346">
        <ele>134.6</ele>
        <time>2023-04-27T13:20:51Z</time>
      </trkpt>
      <trkpt lat="48.7191" lon="1.73462">
        <ele>134.6</ele>
        <time>2023-04-27T13:20:52Z</time>
      </trkpt>
      <trkpt lat="48.71904" lon="1.73463">
        <ele>134.4</ele>
        <time>2023-04-27T13:20:53Z</time>
      </trkpt>
      <trkpt lat="48.71899" lon="1.73463">
        <ele>134.4</ele>
        <time>2023-04-27T13:20:54Z</time>
      </trkpt>
      <trkpt lat="48.71894" lon="1.73464">
        <ele>134.2</ele>
        <time>2023-04-27T13:20:55Z</time>
      </trkpt>
      <trkpt lat="48.71888" lon="1.73465">
        <ele>134.2</ele>
        <time>2023-04-27T13:20:56Z</time>
      </trkpt>
      <trkpt lat="48.71883" lon="1.73465">
        <ele>134.2</ele>
        <time>2023-04-27T13:20:57Z</time>
      </trkpt>
      <trkpt lat="48.71878" lon="1.73466">
        <ele>134</ele>
        <time>2023-04-27T13:20:58Z</time>
      </trkpt>
      <trkpt lat="48.71873" lon="1.73466">
        <ele>134</ele>
        <time>2023-04-27T13:20:59Z</time>
      </trkpt>
      <trkpt lat="48.71868" lon="1.73467">
        <ele>133.8</ele>
        <time>2023-04-27T13:21:00Z</time>
      </trkpt>
      <trkpt lat="48.71863" lon="1.73467">
        <ele>133.8</ele>
        <time>2023-04-27T13:21:01Z</time>
      </trkpt>
      <trkpt lat="48.71858" lon="1.73468">
        <ele>133.8</ele>
        <time>2023-04-27T13:21:02Z</time>
      </trkpt>
      <trkpt lat="48.71854" lon="1.73469">
        <ele>133.6</ele>
        <time>2023-04-27T13:21:03Z</time>
      </trkpt>
      <trkpt lat="48.71848" lon="1.7347">
        <ele>133.6</ele>
        <time>2023-04-27T13:21:04Z</time>
      </trkpt>
      <trkpt lat="48.71843" lon="1.73471">
        <ele>133.6</ele>
        <time>2023-04-27T13:21:05Z</time>
      </trkpt>
      <trkpt lat="48.71838" lon="1.73473">
        <ele>133.4</ele>
        <time>2023-04-27T13:21:06Z</time>
      </trkpt>
      <trkpt lat="48.71833" lon="1.73474">
        <ele>133.4</ele>
        <time>2023-04-27T13:21:07Z</time>
      </trkpt>
      <trkpt lat="48.71827" lon="1.73476">
        <ele>133.4</ele>
        <time>2023-04-27T13:21:08Z</time>
      </trkpt>
      <trkpt lat="48.71821" lon="1.73478">
        <ele>133.4</ele>
        <time>2023-04-27T13:21:09Z</time>
      </trkpt>
      <trkpt lat="48.71815" lon="1.73479">
        <ele>133.4</ele>
        <time>2023-04-27T13:21:10Z</time>
      </trkpt>
      <trkpt lat="48.7181" lon="1.73481">
        <ele>133.4</ele>
        <time>2023-04-27T13:21:11Z</time>
      </trkpt>
      <trkpt lat="48.71804" lon="1.73482">
        <ele>133.4</ele>
        <time>2023-04-27T13:21:12Z</time>
      </trkpt>
      <trkpt lat="48.71799" lon="1.73484">
        <ele>133.2</ele>
        <time>2023-04-27T13:21:13Z</time>
      </trkpt>
      <trkpt lat="48.71794" lon="1.73485">
        <ele>133.4</ele>
        <time>2023-04-27T13:21:14Z</time>
      </trkpt>
      <trkpt lat="48.71789" lon="1.73487">
        <ele>133.4</ele>
        <time>2023-04-27T13:21:15Z</time>
      </trkpt>
      <trkpt lat="48.71784" lon="1.73489">
        <ele>133.4</ele>
        <time>2023-04-27T13:21:16Z</time>
      </trkpt>
      <trkpt lat="48.71779" lon="1.7349">
        <ele>133.4</ele>
        <time>2023-04-27T13:21:17Z</time>
      </trkpt>
      <trkpt lat="48.71774" lon="1.73492">
        <ele>133.4</ele>
        <time>2023-04-27T13:21:18Z</time>
      </trkpt>
      <trkpt lat="48.7177" lon="1.73493">
        <ele>133.4</ele>
        <time>2023-04-27T13:21:19Z</time>
      </trkpt>
      <trkpt lat="48.71765" lon="1.73495">
        <ele>133.4</ele>
        <time>2023-04-27T13:21:20Z</time>
      </trkpt>
      <trkpt lat="48.7176" lon="1.73496">
        <ele>133.4</ele>
        <time>2023-04-27T13:21:21Z</time>
      </trkpt>
      <trkpt lat="48.71755" lon="1.73497">
        <ele>133.2</ele>
        <time>2023-04-27T13:21:22Z</time>
      </trkpt>
      <trkpt lat="48.7175" lon="1.73498">
        <ele>133.2</ele>
        <time>2023-04-27T13:21:23Z</time>
      </trkpt>
      <trkpt lat="48.71744" lon="1.73499">
        <ele>133.2</ele>
        <time>2023-04-27T13:21:24Z</time>
      </trkpt>
      <trkpt lat="48.71739" lon="1.735">
        <ele>133.2</ele>
        <time>2023-04-27T13:21:25Z</time>
      </trkpt>
      <trkpt lat="48.71732" lon="1.73501">
        <ele>133</ele>
        <time>2023-04-27T13:21:26Z</time>
      </trkpt>
      <trkpt lat="48.71726" lon="1.73502">
        <ele>132.8</ele>
        <time>2023-04-27T13:21:27Z</time>
      </trkpt>
      <trkpt lat="48.71719" lon="1.73503">
        <ele>132.8</ele>
        <time>2023-04-27T13:21:28Z</time>
      </trkpt>
      <trkpt lat="48.71712" lon="1.73505">
        <ele>132.6</ele>
        <time>2023-04-27T13:21:29Z</time>
      </trkpt>
      <trkpt lat="48.71704" lon="1.73506">
        <ele>132.6</ele>
        <time>2023-04-27T13:21:30Z</time>
      </trkpt>
      <trkpt lat="48.71696" lon="1.73508">
        <ele>132.6</ele>
        <time>2023-04-27T13:21:31Z</time>
      </trkpt>
      <trkpt lat="48.71687" lon="1.7351">
        <ele>132.6</ele>
        <time>2023-04-27T13:21:32Z</time>
      </trkpt>
      <trkpt lat="48.71678" lon="1.73512">
        <ele>132.6</ele>
        <time>2023-04-27T13:21:33Z</time>
      </trkpt>
      <trkpt lat="48.71668" lon="1.73515">
        <ele>132.4</ele>
        <time>2023-04-27T13:21:34Z</time>
      </trkpt>
      <trkpt lat="48.71659" lon="1.73517">
        <ele>132.4</ele>
        <time>2023-04-27T13:21:35Z</time>
      </trkpt>
      <trkpt lat="48.71649" lon="1.7352">
        <ele>132.4</ele>
        <time>2023-04-27T13:21:36Z</time>
      </trkpt>
      <trkpt lat="48.71639" lon="1.73522">
        <ele>132.4</ele>
        <time>2023-04-27T13:21:37Z</time>
      </trkpt>
      <trkpt lat="48.71628" lon="1.73525">
        <ele>132.4</ele>
        <time>2023-04-27T13:21:38Z</time>
      </trkpt>
      <trkpt lat="48.71618" lon="1.73528">
        <ele>132.4</ele>
        <time>2023-04-27T13:21:39Z</time>
      </trkpt>
      <trkpt lat="48.71607" lon="1.73531">
        <ele>132.4</ele>
        <time>2023-04-27T13:21:40Z</time>
      </trkpt>
      <trkpt lat="48.71596" lon="1.73534">
        <ele>132.4</ele>
        <time>2023-04-27T13:21:41Z</time>
      </trkpt>
      <trkpt lat="48.71585" lon="1.73536">
        <ele>132.4</ele>
        <time>2023-04-27T13:21:42Z</time>
      </trkpt>
      <trkpt lat="48.71574" lon="1.73539">
        <ele>132.6</ele>
        <time>2023-04-27T13:21:43Z</time>
      </trkpt>
      <trkpt lat="48.71564" lon="1.73541">
        <ele>132.6</ele>
        <time>2023-04-27T13:21:44Z</time>
      </trkpt>
      <trkpt lat="48.71553" lon="1.73543">
        <ele>132.8</ele>
        <time>2023-04-27T13:21:45Z</time>
      </trkpt>
      <trkpt lat="48.71543" lon="1.73545">
        <ele>132.8</ele>
        <time>2023-04-27T13:21:46Z</time>
      </trkpt>
      <trkpt lat="48.71532" lon="1.73547">
        <ele>133</ele>
        <time>2023-04-27T13:21:47Z</time>
      </trkpt>
      <trkpt lat="48.71523" lon="1.73548">
        <ele>133.2</ele>
        <time>2023-04-27T13:21:48Z</time>
      </trkpt>
      <trkpt lat="48.71513" lon="1.7355">
        <ele>133.4</ele>
        <time>2023-04-27T13:21:49Z</time>
      </trkpt>
      <trkpt lat="48.71503" lon="1.73552">
        <ele>133.6</ele>
        <time>2023-04-27T13:21:50Z</time>
      </trkpt>
      <trkpt lat="48.71493" lon="1.73554">
        <ele>133.8</ele>
        <time>2023-04-27T13:21:51Z</time>
      </trkpt>
      <trkpt lat="48.71484" lon="1.73556">
        <ele>134</ele>
        <time>2023-04-27T13:21:52Z</time>
      </trkpt>
      <trkpt lat="48.71475" lon="1.73558">
        <ele>134.4</ele>
        <time>2023-04-27T13:21:53Z</time>
      </trkpt>
      <trkpt lat="48.71466" lon="1.7356">
        <ele>134.6</ele>
        <time>2023-04-27T13:21:54Z</time>
      </trkpt>
      <trkpt lat="48.71458" lon="1.73563">
        <ele>135</ele>
        <time>2023-04-27T13:21:55Z</time>
      </trkpt>
      <trkpt lat="48.7145" lon="1.73565">
        <ele>135.2</ele>
        <time>2023-04-27T13:21:56Z</time>
      </trkpt>
      <trkpt lat="48.71443" lon="1.73568">
        <ele>135.6</ele>
        <time>2023-04-27T13:21:57Z</time>
      </trkpt>
      <trkpt lat="48.71435" lon="1.7357">
        <ele>136</ele>
        <time>2023-04-27T13:21:58Z</time>
      </trkpt>
      <trkpt lat="48.71429" lon="1.73572">
        <ele>136.2</ele>
        <time>2023-04-27T13:21:59Z</time>
      </trkpt>
      <trkpt lat="48.71423" lon="1.73574">
        <ele>136.6</ele>
        <time>2023-04-27T13:22:00Z</time>
      </trkpt>
      <trkpt lat="48.71417" lon="1.73576">
        <ele>137</ele>
        <time>2023-04-27T13:22:01Z</time>
      </trkpt>
      <trkpt lat="48.71412" lon="1.73577">
        <ele>137.4</ele>
        <time>2023-04-27T13:22:02Z</time>
      </trkpt>
      <trkpt lat="48.71407" lon="1.73579">
        <ele>137.8</ele>
        <time>2023-04-27T13:22:03Z</time>
      </trkpt>
      <trkpt lat="48.71403" lon="1.7358">
        <ele>138.2</ele>
        <time>2023-04-27T13:22:04Z</time>
      </trkpt>
      <trkpt lat="48.71399" lon="1.7358">
        <ele>138.6</ele>
        <time>2023-04-27T13:22:05Z</time>
      </trkpt>
      <trkpt lat="48.71396" lon="1.7358">
        <ele>139</ele>
        <time>2023-04-27T13:22:06Z</time>
      </trkpt>
      <trkpt lat="48.71393" lon="1.7358">
        <ele>139.4</ele>
        <time>2023-04-27T13:22:07Z</time>
      </trkpt>
      <trkpt lat="48.7139" lon="1.73579">
        <ele>139.8</ele>
        <time>2023-04-27T13:22:08Z</time>
      </trkpt>
      <trkpt lat="48.71388" lon="1.73577">
        <ele>140.2</ele>
        <time>2023-04-27T13:22:09Z</time>
      </trkpt>
      <trkpt lat="48.71386" lon="1.73576">
        <ele>140.6</ele>
        <time>2023-04-27T13:22:10Z</time>
      </trkpt>
      <trkpt lat="48.71383" lon="1.73574">
        <ele>141</ele>
        <time>2023-04-27T13:22:11Z</time>
      </trkpt>
      <trkpt lat="48.71381" lon="1.73572">
        <ele>141.4</ele>
        <time>2023-04-27T13:22:12Z</time>
      </trkpt>
      <trkpt lat="48.71379" lon="1.7357">
        <ele>141.8</ele>
        <time>2023-04-27T13:22:13Z</time>
      </trkpt>
      <trkpt lat="48.71377" lon="1.73568">
        <ele>142.2</ele>
        <time>2023-04-27T13:22:14Z</time>
      </trkpt>
      <trkpt lat="48.71374" lon="1.73565">
        <ele>142.6</ele>
        <time>2023-04-27T13:22:15Z</time>
      </trkpt>
      <trkpt lat="48.71372" lon="1.73563">
        <ele>143</ele>
        <time>2023-04-27T13:22:16Z</time>
      </trkpt>
      <trkpt lat="48.7137" lon="1.7356">
        <ele>143.4</ele>
        <time>2023-04-27T13:22:17Z</time>
      </trkpt>
      <trkpt lat="48.71368" lon="1.73558">
        <ele>143.8</ele>
        <time>2023-04-27T13:22:18Z</time>
      </trkpt>
      <trkpt lat="48.71366" lon="1.73555">
        <ele>144.2</ele>
        <time>2023-04-27T13:22:19Z</time>
      </trkpt>
      <trkpt lat="48.71364" lon="1.73553">
        <ele>144.6</ele>
        <time>2023-04-27T13:22:20Z</time>
      </trkpt>
      <trkpt lat="48.71361" lon="1.7355">
        <ele>145</ele>
        <time>2023-04-27T13:22:21Z</time>
      </trkpt>
      <trkpt lat="48.71358" lon="1.73548">
        <ele>145.4</ele>
        <time>2023-04-27T13:22:22Z</time>
      </trkpt>
      <trkpt lat="48.71356" lon="1.73545">
        <ele>145.8</ele>
        <time>2023-04-27T13:22:23Z</time>
      </trkpt>
      <trkpt lat="48.71354" lon="1.73542">
        <ele>146.2</ele>
        <time>2023-04-27T13:22:24Z</time>
      </trkpt>
      <trkpt lat="48.71352" lon="1.7354">
        <ele>146.6</ele>
        <time>2023-04-27T13:22:25Z</time>
      </trkpt>
      <trkpt lat="48.7135" lon="1.73538">
        <ele>147</ele>
        <time>2023-04-27T13:22:26Z</time>
      </trkpt>
      <trkpt lat="48.71348" lon="1.73537">
        <ele>147.6</ele>
        <time>2023-04-27T13:22:27Z</time>
      </trkpt>
      <trkpt lat="48.71345" lon="1.73536">
        <ele>148</ele>
        <time>2023-04-27T13:22:28Z</time>
      </trkpt>
      <trkpt lat="48.71343" lon="1.73534">
        <ele>148.4</ele>
        <time>2023-04-27T13:22:29Z</time>
      </trkpt>
      <trkpt lat="48.7134" lon="1.73533">
        <ele>148.8</ele>
        <time>2023-04-27T13:22:30Z</time>
      </trkpt>
      <trkpt lat="48.71338" lon="1.73533">
        <ele>149.2</ele>
        <time>2023-04-27T13:22:31Z</time>
      </trkpt>
      <trkpt lat="48.71336" lon="1.73533">
        <ele>149.8</ele>
        <time>2023-04-27T13:22:32Z</time>
      </trkpt>
      <trkpt lat="48.71334" lon="1.73534">
        <ele>150.6</ele>
        <time>2023-04-27T13:22:34Z</time>
      </trkpt>
      <trkpt lat="48.71332" lon="1.73537">
        <ele>151.4</ele>
        <time>2023-04-27T13:22:36Z</time>
      </trkpt>
      <trkpt lat="48.7133" lon="1.73539">
        <ele>152</ele>
        <time>2023-04-27T13:22:37Z</time>
      </trkpt>
      <trkpt lat="48.71328" lon="1.7354">
        <ele>152.4</ele>
        <time>2023-04-27T13:22:38Z</time>
      </trkpt>
      <trkpt lat="48.71325" lon="1.73542">
        <ele>152.8</ele>
        <time>2023-04-27T13:22:39Z</time>
      </trkpt>
      <trkpt lat="48.71323" lon="1.73545">
        <ele>153.2</ele>
        <time>2023-04-27T13:22:40Z</time>
      </trkpt>
      <trkpt lat="48.71321" lon="1.73547">
        <ele>153.8</ele>
        <time>2023-04-27T13:22:41Z</time>
      </trkpt>
      <trkpt lat="48.71319" lon="1.7355">
        <ele>154.2</ele>
        <time>2023-04-27T13:22:42Z</time>
      </trkpt>
      <trkpt lat="48.71317" lon="1.73553">
        <ele>154.8</ele>
        <time>2023-04-27T13:22:43Z</time>
      </trkpt>
      <trkpt lat="48.71316" lon="1.73556">
        <ele>155.2</ele>
        <time>2023-04-27T13:22:44Z</time>
      </trkpt>
      <trkpt lat="48.71315" lon="1.7356">
        <ele>155.8</ele>
        <time>2023-04-27T13:22:45Z</time>
      </trkpt>
      <trkpt lat="48.71314" lon="1.73563">
        <ele>156.2</ele>
        <time>2023-04-27T13:22:46Z</time>
      </trkpt>
      <trkpt lat="48.71313" lon="1.73567">
        <ele>156.8</ele>
        <time>2023-04-27T13:22:47Z</time>
      </trkpt>
      <trkpt lat="48.71312" lon="1.7357">
        <ele>157.4</ele>
        <time>2023-04-27T13:22:48Z</time>
      </trkpt>
      <trkpt lat="48.7131" lon="1.73573">
        <ele>157.8</ele>
        <time>2023-04-27T13:22:49Z</time>
      </trkpt>
      <trkpt lat="48.7131" lon="1.73576">
        <ele>158.4</ele>
        <time>2023-04-27T13:22:50Z</time>
      </trkpt>
      <trkpt lat="48.71308" lon="1.7358">
        <ele>159</ele>
        <time>2023-04-27T13:22:51Z</time>
      </trkpt>
      <trkpt lat="48.71308" lon="1.73583">
        <ele>159.6</ele>
        <time>2023-04-27T13:22:52Z</time>
      </trkpt>
      <trkpt lat="48.71306" lon="1.73587">
        <ele>160</ele>
        <time>2023-04-27T13:22:53Z</time>
      </trkpt>
      <trkpt lat="48.71305" lon="1.7359">
        <ele>160.4</ele>
        <time>2023-04-27T13:22:54Z</time>
      </trkpt>
      <trkpt lat="48.71303" lon="1.73594">
        <ele>160.8</ele>
        <time>2023-04-27T13:22:55Z</time>
      </trkpt>
      <trkpt lat="48.71302" lon="1.73597">
        <ele>161.2</ele>
        <time>2023-04-27T13:22:56Z</time>
      </trkpt>
      <trkpt lat="48.713" lon="1.73601">
        <ele>161.6</ele>
        <time>2023-04-27T13:22:57Z</time>
      </trkpt>
      <trkpt lat="48.71298" lon="1.73604">
        <ele>162</ele>
        <time>2023-04-27T13:22:58Z</time>
      </trkpt>
      <trkpt lat="48.71295" lon="1.73607">
        <ele>162.4</ele>
        <time>2023-04-27T13:22:59Z</time>
      </trkpt>
      <trkpt lat="48.71292" lon="1.7361">
        <ele>162.6</ele>
        <time>2023-04-27T13:23:00Z</time>
      </trkpt>
      <trkpt lat="48.71288" lon="1.73612">
        <ele>163</ele>
        <time>2023-04-27T13:23:01Z</time>
      </trkpt>
      <trkpt lat="48.71285" lon="1.73615">
        <ele>163.2</ele>
        <time>2023-04-27T13:23:02Z</time>
      </trkpt>
      <trkpt lat="48.71282" lon="1.73616">
        <ele>163.4</ele>
        <time>2023-04-27T13:23:03Z</time>
      </trkpt>
      <trkpt lat="48.71278" lon="1.73618">
        <ele>163.8</ele>
        <time>2023-04-27T13:23:04Z</time>
      </trkpt>
      <trkpt lat="48.71275" lon="1.7362">
        <ele>164</ele>
        <time>2023-04-27T13:23:05Z</time>
      </trkpt>
      <trkpt lat="48.71273" lon="1.73622">
        <ele>164.4</ele>
        <time>2023-04-27T13:23:06Z</time>
      </trkpt>
      <trkpt lat="48.7127" lon="1.73623">
        <ele>164.6</ele>
        <time>2023-04-27T13:23:07Z</time>
      </trkpt>
      <trkpt lat="48.71268" lon="1.73624">
        <ele>165</ele>
        <time>2023-04-27T13:23:08Z</time>
      </trkpt>
      <trkpt lat="48.71266" lon="1.73625">
        <ele>165.2</ele>
        <time>2023-04-27T13:23:09Z</time>
      </trkpt>
      <trkpt lat="48.71263" lon="1.73625">
        <ele>165.4</ele>
        <time>2023-04-27T13:23:10Z</time>
      </trkpt>
      <trkpt lat="48.7126" lon="1.73626">
        <ele>165.8</ele>
        <time>2023-04-27T13:23:12Z</time>
      </trkpt>
      <trkpt lat="48.71257" lon="1.73627">
        <ele>166.4</ele>
        <time>2023-04-27T13:23:14Z</time>
      </trkpt>
      <trkpt lat="48.71254" lon="1.73628">
        <ele>166.8</ele>
        <time>2023-04-27T13:23:16Z</time>
      </trkpt>
      <trkpt lat="48.71251" lon="1.73628">
        <ele>167.4</ele>
        <time>2023-04-27T13:23:18Z</time>
      </trkpt>
      <trkpt lat="48.71248" lon="1.73628">
        <ele>168</ele>
        <time>2023-04-27T13:23:20Z</time>
      </trkpt>
      <trkpt lat="48.71245" lon="1.73628">
        <ele>168.4</ele>
        <time>2023-04-27T13:23:22Z</time>
      </trkpt>
      <trkpt lat="48.71243" lon="1.73629">
        <ele>169</ele>
        <time>2023-04-27T13:23:24Z</time>
      </trkpt>
      <trkpt lat="48.71241" lon="1.73629">
        <ele>169.8</ele>
        <time>2023-04-27T13:23:26Z</time>
      </trkpt>
      <trkpt lat="48.71238" lon="1.73629">
        <ele>170.4</ele>
        <time>2023-04-27T13:23:28Z</time>
      </trkpt>
      <trkpt lat="48.71236" lon="1.73628">
        <ele>171</ele>
        <time>2023-04-27T13:23:30Z</time>
      </trkpt>
      <trkpt lat="48.71234" lon="1.73627">
        <ele>171.4</ele>
        <time>2023-04-27T13:23:32Z</time>
      </trkpt>
      <trkpt lat="48.7123" lon="1.73626">
        <ele>171.6</ele>
        <time>2023-04-27T13:23:34Z</time>
      </trkpt>
      <trkpt lat="48.71225" lon="1.73623">
        <ele>172</ele>
        <time>2023-04-27T13:23:38Z</time>
      </trkpt>
      <trkpt lat="48.71223" lon="1.73621">
        <ele>172.4</ele>
        <time>2023-04-27T13:23:41Z</time>
      </trkpt>
      <trkpt lat="48.71223" lon="1.73618">
        <ele>173.4</ele>
        <time>2023-04-27T13:23:49Z</time>
      </trkpt>
      <trkpt lat="48.71221" lon="1.73617">
        <ele>174.6</ele>
        <time>2023-04-27T13:24:00Z</time>
      </trkpt>
      <trkpt lat="48.71219" lon="1.73619">
        <ele>174.6</ele>
        <time>2023-04-27T13:24:06Z</time>
      </trkpt>
      <trkpt lat="48.71221" lon="1.73621">
        <ele>174.6</ele>
        <time>2023-04-27T13:24:09Z</time>
      </trkpt>
      <trkpt lat="48.71222" lon="1.73623">
        <ele>174.6</ele>
        <time>2023-04-27T13:24:11Z</time>
      </trkpt>
      <trkpt lat="48.71222" lon="1.73626">
        <ele>174.8</ele>
        <time>2023-04-27T13:24:14Z</time>
      </trkpt>
      <trkpt lat="48.7122" lon="1.73628">
        <ele>175</ele>
        <time>2023-04-27T13:24:18Z</time>
      </trkpt>
      <trkpt lat="48.71221" lon="1.73631">
        <ele>175.6</ele>
        <time>2023-04-27T13:24:26Z</time>
      </trkpt>
      <trkpt lat="48.71221" lon="1.73635">
        <ele>175.8</ele>
        <time>2023-04-27T13:24:29Z</time>
      </trkpt>
      <trkpt lat="48.7122" lon="1.73631">
        <ele>177.2</ele>
        <time>2023-04-27T13:24:42Z</time>
      </trkpt>
      <trkpt lat="48.71219" lon="1.73628">
        <ele>177.4</ele>
        <time>2023-04-27T13:24:44Z</time>
      </trkpt>
      <trkpt lat="48.71217" lon="1.73625">
        <ele>177.8</ele>
        <time>2023-04-27T13:24:46Z</time>
      </trkpt>
      <trkpt lat="48.71216" lon="1.73621">
        <ele>178</ele>
        <time>2023-04-27T13:24:48Z</time>
      </trkpt>
      <trkpt lat="48.71215" lon="1.73618">
        <ele>178.4</ele>
        <time>2023-04-27T13:24:50Z</time>
      </trkpt>
      <trkpt lat="48.71213" lon="1.73614">
        <ele>178.6</ele>
        <time>2023-04-27T13:24:52Z</time>
      </trkpt>
      <trkpt lat="48.71212" lon="1.73611">
        <ele>179</ele>
        <time>2023-04-27T13:24:54Z</time>
      </trkpt>
      <trkpt lat="48.7121" lon="1.73609">
        <ele>179.2</ele>
        <time>2023-04-27T13:24:56Z</time>
      </trkpt>
      <trkpt lat="48.71208" lon="1.73607">
        <ele>179.2</ele>
        <time>2023-04-27T13:24:58Z</time>
      </trkpt>
      <trkpt lat="48.71206" lon="1.73605">
        <ele>179.2</ele>
        <time>2023-04-27T13:25:00Z</time>
      </trkpt>
      <trkpt lat="48.71205" lon="1.73603">
        <ele>179.2</ele>
        <time>2023-04-27T13:25:02Z</time>
      </trkpt>
      <trkpt lat="48.71203" lon="1.736">
        <ele>179.4</ele>
        <time>2023-04-27T13:25:05Z</time>
      </trkpt>
      <trkpt lat="48.71201" lon="1.73601">
        <ele>179.2</ele>
        <time>2023-04-27T13:25:10Z</time>
      </trkpt>
      <trkpt lat="48.71199" lon="1.73601">
        <ele>179.2</ele>
        <time>2023-04-27T13:25:16Z</time>
      </trkpt>
      <trkpt lat="48.71199" lon="1.73598">
        <ele>179.6</ele>
        <time>2023-04-27T13:25:34Z</time>
      </trkpt>
      <trkpt lat="48.71197" lon="1.73595">
        <ele>180</ele>
        <time>2023-04-27T13:25:37Z</time>
      </trkpt>
      <trkpt lat="48.71196" lon="1.73593">
        <ele>180.4</ele>
        <time>2023-04-27T13:25:39Z</time>
      </trkpt>
      <trkpt lat="48.71195" lon="1.7359">
        <ele>180.8</ele>
        <time>2023-04-27T13:25:41Z</time>
      </trkpt>
      <trkpt lat="48.71193" lon="1.73587">
        <ele>181.2</ele>
        <time>2023-04-27T13:25:43Z</time>
      </trkpt>
      <trkpt lat="48.71192" lon="1.73585">
        <ele>181.4</ele>
        <time>2023-04-27T13:25:45Z</time>
      </trkpt>
      <trkpt lat="48.71191" lon="1.73582">
        <ele>181.8</ele>
        <time>2023-04-27T13:25:47Z</time>
      </trkpt>
      <trkpt lat="48.71189" lon="1.73579">
        <ele>182.2</ele>
        <time>2023-04-27T13:25:49Z</time>
      </trkpt>
      <trkpt lat="48.71188" lon="1.73576">
        <ele>182.4</ele>
        <time>2023-04-27T13:25:51Z</time>
      </trkpt>
      <trkpt lat="48.71187" lon="1.73573">
        <ele>182.6</ele>
        <time>2023-04-27T13:25:53Z</time>
      </trkpt>
      <trkpt lat="48.71185" lon="1.7357">
        <ele>182.6</ele>
        <time>2023-04-27T13:25:55Z</time>
      </trkpt>
      <trkpt lat="48.71184" lon="1.73565">
        <ele>182.8</ele>
        <time>2023-04-27T13:25:57Z</time>
      </trkpt>
      <trkpt lat="48.71182" lon="1.73561">
        <ele>183</ele>
        <time>2023-04-27T13:25:59Z</time>
      </trkpt>
      <trkpt lat="48.7118" lon="1.73557">
        <ele>183.2</ele>
        <time>2023-04-27T13:26:01Z</time>
      </trkpt>
      <trkpt lat="48.71179" lon="1.73552">
        <ele>183.4</ele>
        <time>2023-04-27T13:26:03Z</time>
      </trkpt>
      <trkpt lat="48.71177" lon="1.73548">
        <ele>183.6</ele>
        <time>2023-04-27T13:26:05Z</time>
      </trkpt>
      <trkpt lat="48.71175" lon="1.73544">
        <ele>183.8</ele>
        <time>2023-04-27T13:26:07Z</time>
      </trkpt>
      <trkpt lat="48.71173" lon="1.73541">
        <ele>184</ele>
        <time>2023-04-27T13:26:09Z</time>
      </trkpt>
      <trkpt lat="48.71172" lon="1.73537">
        <ele>184</ele>
        <time>2023-04-27T13:26:11Z</time>
      </trkpt>
      <trkpt lat="48.7117" lon="1.73532">
        <ele>184.2</ele>
        <time>2023-04-27T13:26:13Z</time>
      </trkpt>
      <trkpt lat="48.71169" lon="1.73529">
        <ele>184.2</ele>
        <time>2023-04-27T13:26:14Z</time>
      </trkpt>
      <trkpt lat="48.71169" lon="1.73526">
        <ele>184.2</ele>
        <time>2023-04-27T13:26:15Z</time>
      </trkpt>
      <trkpt lat="48.71168" lon="1.73523">
        <ele>184.2</ele>
        <time>2023-04-27T13:26:16Z</time>
      </trkpt>
      <trkpt lat="48.71167" lon="1.7352">
        <ele>184.2</ele>
        <time>2023-04-27T13:26:17Z</time>
      </trkpt>
      <trkpt lat="48.71166" lon="1.73517">
        <ele>184.2</ele>
        <time>2023-04-27T13:26:18Z</time>
      </trkpt>
      <trkpt lat="48.71165" lon="1.73514">
        <ele>184.4</ele>
        <time>2023-04-27T13:26:19Z</time>
      </trkpt>
      <trkpt lat="48.71164" lon="1.73511">
        <ele>184.4</ele>
        <time>2023-04-27T13:26:20Z</time>
      </trkpt>
      <trkpt lat="48.71163" lon="1.73508">
        <ele>184.6</ele>
        <time>2023-04-27T13:26:21Z</time>
      </trkpt>
      <trkpt lat="48.71162" lon="1.73504">
        <ele>184.6</ele>
        <time>2023-04-27T13:26:23Z</time>
      </trkpt>
      <trkpt lat="48.71161" lon="1.735">
        <ele>184.6</ele>
        <time>2023-04-27T13:26:25Z</time>
      </trkpt>
      <trkpt lat="48.71159" lon="1.73497">
        <ele>184.8</ele>
        <time>2023-04-27T13:26:27Z</time>
      </trkpt>
      <trkpt lat="48.71158" lon="1.73493">
        <ele>184.8</ele>
        <time>2023-04-27T13:26:29Z</time>
      </trkpt>
      <trkpt lat="48.71157" lon="1.73488">
        <ele>184.8</ele>
        <time>2023-04-27T13:26:31Z</time>
      </trkpt>
      <trkpt lat="48.71156" lon="1.73484">
        <ele>185</ele>
        <time>2023-04-27T13:26:33Z</time>
      </trkpt>
      <trkpt lat="48.71155" lon="1.7348">
        <ele>185</ele>
        <time>2023-04-27T13:26:35Z</time>
      </trkpt>
      <trkpt lat="48.71154" lon="1.73476">
        <ele>185</ele>
        <time>2023-04-27T13:26:37Z</time>
      </trkpt>
      <trkpt lat="48.71153" lon="1.73472">
        <ele>185</ele>
        <time>2023-04-27T13:26:39Z</time>
      </trkpt>
      <trkpt lat="48.71151" lon="1.73468">
        <ele>184.8</ele>
        <time>2023-04-27T13:26:41Z</time>
      </trkpt>
      <trkpt lat="48.7115" lon="1.73463">
        <ele>184.6</ele>
        <time>2023-04-27T13:26:43Z</time>
      </trkpt>
      <trkpt lat="48.71149" lon="1.73459">
        <ele>184.2</ele>
        <time>2023-04-27T13:26:45Z</time>
      </trkpt>
      <trkpt lat="48.71149" lon="1.73455">
        <ele>184</ele>
        <time>2023-04-27T13:26:47Z</time>
      </trkpt>
      <trkpt lat="48.71148" lon="1.73452">
        <ele>184</ele>
        <time>2023-04-27T13:26:49Z</time>
      </trkpt>
      <trkpt lat="48.71147" lon="1.73448">
        <ele>184</ele>
        <time>2023-04-27T13:26:52Z</time>
      </trkpt>
      <trkpt lat="48.71146" lon="1.73445">
        <ele>184</ele>
        <time>2023-04-27T13:26:54Z</time>
      </trkpt>
      <trkpt lat="48.71144" lon="1.73441">
        <ele>184</ele>
        <time>2023-04-27T13:26:56Z</time>
      </trkpt>
      <trkpt lat="48.71143" lon="1.73438">
        <ele>184</ele>
        <time>2023-04-27T13:26:58Z</time>
      </trkpt>
      <trkpt lat="48.71142" lon="1.73434">
        <ele>184</ele>
        <time>2023-04-27T13:27:00Z</time>
      </trkpt>
      <trkpt lat="48.71141" lon="1.73429">
        <ele>184</ele>
        <time>2023-04-27T13:27:02Z</time>
      </trkpt>
      <trkpt lat="48.7114" lon="1.73426">
        <ele>184</ele>
        <time>2023-04-27T13:27:03Z</time>
      </trkpt>
      <trkpt lat="48.7114" lon="1.73423">
        <ele>184</ele>
        <time>2023-04-27T13:27:04Z</time>
      </trkpt>
      <trkpt lat="48.71138" lon="1.7342">
        <ele>184</ele>
        <time>2023-04-27T13:27:05Z</time>
      </trkpt>
      <trkpt lat="48.71137" lon="1.73415">
        <ele>184</ele>
        <time>2023-04-27T13:27:07Z</time>
      </trkpt>
      <trkpt lat="48.71136" lon="1.73411">
        <ele>184.4</ele>
        <time>2023-04-27T13:27:09Z</time>
      </trkpt>
      <trkpt lat="48.71135" lon="1.73407">
        <ele>184.6</ele>
        <time>2023-04-27T13:27:11Z</time>
      </trkpt>
      <trkpt lat="48.71134" lon="1.73404">
        <ele>184.8</ele>
        <time>2023-04-27T13:27:13Z</time>
      </trkpt>
      <trkpt lat="48.71133" lon="1.734">
        <ele>185</ele>
        <time>2023-04-27T13:27:15Z</time>
      </trkpt>
      <trkpt lat="48.71133" lon="1.73397">
        <ele>185.2</ele>
        <time>2023-04-27T13:27:17Z</time>
      </trkpt>
      <trkpt lat="48.71132" lon="1.73394">
        <ele>185.4</ele>
        <time>2023-04-27T13:27:19Z</time>
      </trkpt>
      <trkpt lat="48.71131" lon="1.7339">
        <ele>185.8</ele>
        <time>2023-04-27T13:27:21Z</time>
      </trkpt>
      <trkpt lat="48.7113" lon="1.73386">
        <ele>186.2</ele>
        <time>2023-04-27T13:27:23Z</time>
      </trkpt>
      <trkpt lat="48.71129" lon="1.73382">
        <ele>186.6</ele>
        <time>2023-04-27T13:27:25Z</time>
      </trkpt>
      <trkpt lat="48.71128" lon="1.73378">
        <ele>187.2</ele>
        <time>2023-04-27T13:27:27Z</time>
      </trkpt>
      <trkpt lat="48.71126" lon="1.73376">
        <ele>187.6</ele>
        <time>2023-04-27T13:27:29Z</time>
      </trkpt>
      <trkpt lat="48.71124" lon="1.73373">
        <ele>188</ele>
        <time>2023-04-27T13:27:31Z</time>
      </trkpt>
      <trkpt lat="48.71122" lon="1.73371">
        <ele>188.2</ele>
        <time>2023-04-27T13:27:33Z</time>
      </trkpt>
      <trkpt lat="48.71121" lon="1.73368">
        <ele>188.4</ele>
        <time>2023-04-27T13:27:35Z</time>
      </trkpt>
      <trkpt lat="48.71119" lon="1.73364">
        <ele>188.6</ele>
        <time>2023-04-27T13:27:37Z</time>
      </trkpt>
      <trkpt lat="48.71118" lon="1.73359">
        <ele>188.8</ele>
        <time>2023-04-27T13:27:39Z</time>
      </trkpt>
      <trkpt lat="48.71117" lon="1.73355">
        <ele>188.8</ele>
        <time>2023-04-27T13:27:41Z</time>
      </trkpt>
      <trkpt lat="48.71116" lon="1.73351">
        <ele>188.8</ele>
        <time>2023-04-27T13:27:43Z</time>
      </trkpt>
      <trkpt lat="48.71116" lon="1.73348">
        <ele>188.8</ele>
        <time>2023-04-27T13:27:45Z</time>
      </trkpt>
      <trkpt lat="48.71115" lon="1.73344">
        <ele>188.8</ele>
        <time>2023-04-27T13:27:47Z</time>
      </trkpt>
      <trkpt lat="48.71114" lon="1.73342">
        <ele>188.8</ele>
        <time>2023-04-27T13:27:48Z</time>
      </trkpt>
      <trkpt lat="48.71113" lon="1.73339">
        <ele>188.8</ele>
        <time>2023-04-27T13:27:49Z</time>
      </trkpt>
      <trkpt lat="48.71112" lon="1.73336">
        <ele>188.8</ele>
        <time>2023-04-27T13:27:50Z</time>
      </trkpt>
      <trkpt lat="48.71111" lon="1.73333">
        <ele>188.8</ele>
        <time>2023-04-27T13:27:51Z</time>
      </trkpt>
      <trkpt lat="48.7111" lon="1.7333">
        <ele>189</ele>
        <time>2023-04-27T13:27:52Z</time>
      </trkpt>
      <trkpt lat="48.71108" lon="1.73326">
        <ele>189.2</ele>
        <time>2023-04-27T13:27:54Z</time>
      </trkpt>
      <trkpt lat="48.71107" lon="1.73323">
        <ele>189.2</ele>
        <time>2023-04-27T13:27:56Z</time>
      </trkpt>
      <trkpt lat="48.71106" lon="1.7332">
        <ele>189.4</ele>
        <time>2023-04-27T13:27:58Z</time>
      </trkpt>
      <trkpt lat="48.71104" lon="1.73316">
        <ele>189.4</ele>
        <time>2023-04-27T13:28:00Z</time>
      </trkpt>
      <trkpt lat="48.71103" lon="1.73312">
        <ele>189.4</ele>
        <time>2023-04-27T13:28:02Z</time>
      </trkpt>
      <trkpt lat="48.71102" lon="1.73307">
        <ele>189.4</ele>
        <time>2023-04-27T13:28:04Z</time>
      </trkpt>
      <trkpt lat="48.71102" lon="1.73303">
        <ele>189.4</ele>
        <time>2023-04-27T13:28:06Z</time>
      </trkpt>
      <trkpt lat="48.71101" lon="1.733">
        <ele>189.2</ele>
        <time>2023-04-27T13:28:08Z</time>
      </trkpt>
      <trkpt lat="48.711" lon="1.73297">
        <ele>189</ele>
        <time>2023-04-27T13:28:10Z</time>
      </trkpt>
      <trkpt lat="48.71099" lon="1.73293">
        <ele>188.8</ele>
        <time>2023-04-27T13:28:12Z</time>
      </trkpt>
      <trkpt lat="48.71098" lon="1.73289">
        <ele>188.4</ele>
        <time>2023-04-27T13:28:14Z</time>
      </trkpt>
      <trkpt lat="48.71097" lon="1.73285">
        <ele>188.2</ele>
        <time>2023-04-27T13:28:16Z</time>
      </trkpt>
      <trkpt lat="48.71096" lon="1.73281">
        <ele>188</ele>
        <time>2023-04-27T13:28:18Z</time>
      </trkpt>
      <trkpt lat="48.71095" lon="1.73277">
        <ele>187.8</ele>
        <time>2023-04-27T13:28:20Z</time>
      </trkpt>
      <trkpt lat="48.71094" lon="1.73272">
        <ele>187.6</ele>
        <time>2023-04-27T13:28:22Z</time>
      </trkpt>
      <trkpt lat="48.71094" lon="1.73269">
        <ele>187.4</ele>
        <time>2023-04-27T13:28:23Z</time>
      </trkpt>
      <trkpt lat="48.71092" lon="1.73264">
        <ele>187.2</ele>
        <time>2023-04-27T13:28:25Z</time>
      </trkpt>
      <trkpt lat="48.71092" lon="1.73259">
        <ele>187</ele>
        <time>2023-04-27T13:28:27Z</time>
      </trkpt>
      <trkpt lat="48.71091" lon="1.73255">
        <ele>186.6</ele>
        <time>2023-04-27T13:28:29Z</time>
      </trkpt>
      <trkpt lat="48.7109" lon="1.73251">
        <ele>186</ele>
        <time>2023-04-27T13:28:31Z</time>
      </trkpt>
      <trkpt lat="48.7109" lon="1.73246">
        <ele>185.6</ele>
        <time>2023-04-27T13:28:33Z</time>
      </trkpt>
      <trkpt lat="48.71088" lon="1.73241">
        <ele>185.2</ele>
        <time>2023-04-27T13:28:35Z</time>
      </trkpt>
      <trkpt lat="48.71088" lon="1.73237">
        <ele>184.8</ele>
        <time>2023-04-27T13:28:37Z</time>
      </trkpt>
      <trkpt lat="48.71086" lon="1.73232">
        <ele>184.6</ele>
        <time>2023-04-27T13:28:39Z</time>
      </trkpt>
      <trkpt lat="48.71085" lon="1.73228">
        <ele>184.4</ele>
        <time>2023-04-27T13:28:41Z</time>
      </trkpt>
      <trkpt lat="48.71084" lon="1.73224">
        <ele>184.2</ele>
        <time>2023-04-27T13:28:43Z</time>
      </trkpt>
      <trkpt lat="48.71083" lon="1.7322">
        <ele>184</ele>
        <time>2023-04-27T13:28:45Z</time>
      </trkpt>
      <trkpt lat="48.71082" lon="1.73216">
        <ele>183.8</ele>
        <time>2023-04-27T13:28:47Z</time>
      </trkpt>
      <trkpt lat="48.71081" lon="1.73213">
        <ele>183.6</ele>
        <time>2023-04-27T13:28:49Z</time>
      </trkpt>
      <trkpt lat="48.7108" lon="1.73209">
        <ele>183.2</ele>
        <time>2023-04-27T13:28:51Z</time>
      </trkpt>
      <trkpt lat="48.71079" lon="1.73205">
        <ele>183</ele>
        <time>2023-04-27T13:28:53Z</time>
      </trkpt>
      <trkpt lat="48.71079" lon="1.73201">
        <ele>182.6</ele>
        <time>2023-04-27T13:28:55Z</time>
      </trkpt>
      <trkpt lat="48.71078" lon="1.73197">
        <ele>182.4</ele>
        <time>2023-04-27T13:28:57Z</time>
      </trkpt>
      <trkpt lat="48.71078" lon="1.73192">
        <ele>182.2</ele>
        <time>2023-04-27T13:28:59Z</time>
      </trkpt>
      <trkpt lat="48.71077" lon="1.73188">
        <ele>182.2</ele>
        <time>2023-04-27T13:29:01Z</time>
      </trkpt>
      <trkpt lat="48.71076" lon="1.73184">
        <ele>182</ele>
        <time>2023-04-27T13:29:03Z</time>
      </trkpt>
      <trkpt lat="48.71076" lon="1.73179">
        <ele>182</ele>
        <time>2023-04-27T13:29:05Z</time>
      </trkpt>
      <trkpt lat="48.71075" lon="1.73175">
        <ele>181.8</ele>
        <time>2023-04-27T13:29:07Z</time>
      </trkpt>
      <trkpt lat="48.71075" lon="1.73172">
        <ele>181.8</ele>
        <time>2023-04-27T13:29:09Z</time>
      </trkpt>
      <trkpt lat="48.71074" lon="1.73169">
        <ele>181.6</ele>
        <time>2023-04-27T13:29:11Z</time>
      </trkpt>
      <trkpt lat="48.71072" lon="1.73167">
        <ele>181.6</ele>
        <time>2023-04-27T13:29:13Z</time>
      </trkpt>
      <trkpt lat="48.71069" lon="1.73165">
        <ele>181.6</ele>
        <time>2023-04-27T13:29:15Z</time>
      </trkpt>
      <trkpt lat="48.71066" lon="1.73163">
        <ele>181.4</ele>
        <time>2023-04-27T13:29:17Z</time>
      </trkpt>
      <trkpt lat="48.71064" lon="1.73163">
        <ele>181.4</ele>
        <time>2023-04-27T13:29:18Z</time>
      </trkpt>
      <trkpt lat="48.71062" lon="1.73163">
        <ele>181.4</ele>
        <time>2023-04-27T13:29:19Z</time>
      </trkpt>
      <trkpt lat="48.71059" lon="1.73164">
        <ele>181.2</ele>
        <time>2023-04-27T13:29:21Z</time>
      </trkpt>
      <trkpt lat="48.71055" lon="1.73165">
        <ele>181.2</ele>
        <time>2023-04-27T13:29:23Z</time>
      </trkpt>
      <trkpt lat="48.71053" lon="1.73165">
        <ele>181.2</ele>
        <time>2023-04-27T13:29:24Z</time>
      </trkpt>
      <trkpt lat="48.71052" lon="1.73166">
        <ele>181.2</ele>
        <time>2023-04-27T13:29:25Z</time>
      </trkpt>
      <trkpt lat="48.7105" lon="1.73167">
        <ele>181.2</ele>
        <time>2023-04-27T13:29:26Z</time>
      </trkpt>
      <trkpt lat="48.71048" lon="1.73167">
        <ele>181.2</ele>
        <time>2023-04-27T13:29:27Z</time>
      </trkpt>
      <trkpt lat="48.71046" lon="1.73167">
        <ele>181.2</ele>
        <time>2023-04-27T13:29:28Z</time>
      </trkpt>
      <trkpt lat="48.71043" lon="1.73167">
        <ele>181</ele>
        <time>2023-04-27T13:29:30Z</time>
      </trkpt>
      <trkpt lat="48.7104" lon="1.73168">
        <ele>180.8</ele>
        <time>2023-04-27T13:29:32Z</time>
      </trkpt>
      <trkpt lat="48.71037" lon="1.73168">
        <ele>180.6</ele>
        <time>2023-04-27T13:29:34Z</time>
      </trkpt>
      <trkpt lat="48.71036" lon="1.73168">
        <ele>180.4</ele>
        <time>2023-04-27T13:29:35Z</time>
      </trkpt>
      <trkpt lat="48.71032" lon="1.73168">
        <ele>180.2</ele>
        <time>2023-04-27T13:29:37Z</time>
      </trkpt>
      <trkpt lat="48.7103" lon="1.73168">
        <ele>180</ele>
        <time>2023-04-27T13:29:38Z</time>
      </trkpt>
      <trkpt lat="48.71027" lon="1.73168">
        <ele>179.6</ele>
        <time>2023-04-27T13:29:40Z</time>
      </trkpt>
      <trkpt lat="48.71024" lon="1.73169">
        <ele>179.4</ele>
        <time>2023-04-27T13:29:42Z</time>
      </trkpt>
      <trkpt lat="48.71021" lon="1.73171">
        <ele>179</ele>
        <time>2023-04-27T13:29:44Z</time>
      </trkpt>
      <trkpt lat="48.71019" lon="1.73172">
        <ele>178.8</ele>
        <time>2023-04-27T13:29:45Z</time>
      </trkpt>
      <trkpt lat="48.71016" lon="1.73173">
        <ele>178.6</ele>
        <time>2023-04-27T13:29:47Z</time>
      </trkpt>
      <trkpt lat="48.71012" lon="1.73174">
        <ele>178.4</ele>
        <time>2023-04-27T13:29:49Z</time>
      </trkpt>
      <trkpt lat="48.7101" lon="1.73174">
        <ele>178.2</ele>
        <time>2023-04-27T13:29:50Z</time>
      </trkpt>
      <trkpt lat="48.71007" lon="1.73174">
        <ele>178.2</ele>
        <time>2023-04-27T13:29:52Z</time>
      </trkpt>
      <trkpt lat="48.71004" lon="1.73175">
        <ele>178</ele>
        <time>2023-04-27T13:29:54Z</time>
      </trkpt>
      <trkpt lat="48.71001" lon="1.73176">
        <ele>177.8</ele>
        <time>2023-04-27T13:29:56Z</time>
      </trkpt>
      <trkpt lat="48.70998" lon="1.73176">
        <ele>177.8</ele>
        <time>2023-04-27T13:29:58Z</time>
      </trkpt>
      <trkpt lat="48.70995" lon="1.73175">
        <ele>177.8</ele>
        <time>2023-04-27T13:30:00Z</time>
      </trkpt>
      <trkpt lat="48.70992" lon="1.73176">
        <ele>177.6</ele>
        <time>2023-04-27T13:30:02Z</time>
      </trkpt>
      <trkpt lat="48.7099" lon="1.73176">
        <ele>177.6</ele>
        <time>2023-04-27T13:30:03Z</time>
      </trkpt>
      <trkpt lat="48.70987" lon="1.73177">
        <ele>177.6</ele>
        <time>2023-04-27T13:30:05Z</time>
      </trkpt>
      <trkpt lat="48.70984" lon="1.73177">
        <ele>177.8</ele>
        <time>2023-04-27T13:30:07Z</time>
      </trkpt>
      <trkpt lat="48.70981" lon="1.73177">
        <ele>178</ele>
        <time>2023-04-27T13:30:09Z</time>
      </trkpt>
      <trkpt lat="48.70979" lon="1.73177">
        <ele>178</ele>
        <time>2023-04-27T13:30:10Z</time>
      </trkpt>
      <trkpt lat="48.70975" lon="1.73176">
        <ele>178</ele>
        <time>2023-04-27T13:30:12Z</time>
      </trkpt>
      <trkpt lat="48.70973" lon="1.73175">
        <ele>178.2</ele>
        <time>2023-04-27T13:30:14Z</time>
      </trkpt>
      <trkpt lat="48.7097" lon="1.73175">
        <ele>178.4</ele>
        <time>2023-04-27T13:30:16Z</time>
      </trkpt>
      <trkpt lat="48.70968" lon="1.73176">
        <ele>178.4</ele>
        <time>2023-04-27T13:30:18Z</time>
      </trkpt>
      <trkpt lat="48.70965" lon="1.73177">
        <ele>178.4</ele>
        <time>2023-04-27T13:30:20Z</time>
      </trkpt>
      <trkpt lat="48.70963" lon="1.73178">
        <ele>178.6</ele>
        <time>2023-04-27T13:30:22Z</time>
      </trkpt>
      <trkpt lat="48.7096" lon="1.73179">
        <ele>178.8</ele>
        <time>2023-04-27T13:30:24Z</time>
      </trkpt>
      <trkpt lat="48.70957" lon="1.73179">
        <ele>178.8</ele>
        <time>2023-04-27T13:30:26Z</time>
      </trkpt>
      <trkpt lat="48.70955" lon="1.7318">
        <ele>179</ele>
        <time>2023-04-27T13:30:28Z</time>
      </trkpt>
      <trkpt lat="48.70952" lon="1.73182">
        <ele>179</ele>
        <time>2023-04-27T13:30:30Z</time>
      </trkpt>
      <trkpt lat="48.7095" lon="1.73183">
        <ele>179</ele>
        <time>2023-04-27T13:30:31Z</time>
      </trkpt>
      <trkpt lat="48.70948" lon="1.73184">
        <ele>178.8</ele>
        <time>2023-04-27T13:30:32Z</time>
      </trkpt>
      <trkpt lat="48.70947" lon="1.73185">
        <ele>178.8</ele>
        <time>2023-04-27T13:30:33Z</time>
      </trkpt>
      <trkpt lat="48.70945" lon="1.73186">
        <ele>178.8</ele>
        <time>2023-04-27T13:30:34Z</time>
      </trkpt>
      <trkpt lat="48.70943" lon="1.73187">
        <ele>178.6</ele>
        <time>2023-04-27T13:30:35Z</time>
      </trkpt>
      <trkpt lat="48.70939" lon="1.73188">
        <ele>178.6</ele>
        <time>2023-04-27T13:30:37Z</time>
      </trkpt>
      <trkpt lat="48.70937" lon="1.73188">
        <ele>178.6</ele>
        <time>2023-04-27T13:30:38Z</time>
      </trkpt>
      <trkpt lat="48.70935" lon="1.73189">
        <ele>178.8</ele>
        <time>2023-04-27T13:30:39Z</time>
      </trkpt>
      <trkpt lat="48.70932" lon="1.73188">
        <ele>178.6</ele>
        <time>2023-04-27T13:30:41Z</time>
      </trkpt>
      <trkpt lat="48.70929" lon="1.73189">
        <ele>178.6</ele>
        <time>2023-04-27T13:30:43Z</time>
      </trkpt>
      <trkpt lat="48.70925" lon="1.7319">
        <ele>178.6</ele>
        <time>2023-04-27T13:30:45Z</time>
      </trkpt>
      <trkpt lat="48.70923" lon="1.73191">
        <ele>178.8</ele>
        <time>2023-04-27T13:30:47Z</time>
      </trkpt>
      <trkpt lat="48.7092" lon="1.73191">
        <ele>178.8</ele>
        <time>2023-04-27T13:30:49Z</time>
      </trkpt>
      <trkpt lat="48.70917" lon="1.73192">
        <ele>178.8</ele>
        <time>2023-04-27T13:30:51Z</time>
      </trkpt>
      <trkpt lat="48.70915" lon="1.73193">
        <ele>179</ele>
        <time>2023-04-27T13:30:53Z</time>
      </trkpt>
      <trkpt lat="48.70913" lon="1.73194">
        <ele>179</ele>
        <time>2023-04-27T13:30:55Z</time>
      </trkpt>
      <trkpt lat="48.70909" lon="1.73196">
        <ele>178.8</ele>
        <time>2023-04-27T13:30:57Z</time>
      </trkpt>
      <trkpt lat="48.70907" lon="1.73197">
        <ele>178.8</ele>
        <time>2023-04-27T13:30:59Z</time>
      </trkpt>
      <trkpt lat="48.70903" lon="1.73198">
        <ele>178.6</ele>
        <time>2023-04-27T13:31:01Z</time>
      </trkpt>
      <trkpt lat="48.709" lon="1.73198">
        <ele>178.6</ele>
        <time>2023-04-27T13:31:03Z</time>
      </trkpt>
      <trkpt lat="48.70899" lon="1.73198">
        <ele>178.4</ele>
        <time>2023-04-27T13:31:04Z</time>
      </trkpt>
      <trkpt lat="48.70895" lon="1.73199">
        <ele>178.4</ele>
        <time>2023-04-27T13:31:06Z</time>
      </trkpt>
      <trkpt lat="48.70893" lon="1.73199">
        <ele>178.4</ele>
        <time>2023-04-27T13:31:07Z</time>
      </trkpt>
      <trkpt lat="48.70891" lon="1.732">
        <ele>178.4</ele>
        <time>2023-04-27T13:31:08Z</time>
      </trkpt>
      <trkpt lat="48.70889" lon="1.732">
        <ele>178.4</ele>
        <time>2023-04-27T13:31:09Z</time>
      </trkpt>
      <trkpt lat="48.70887" lon="1.73201">
        <ele>178.6</ele>
        <time>2023-04-27T13:31:10Z</time>
      </trkpt>
      <trkpt lat="48.70885" lon="1.73201">
        <ele>178.6</ele>
        <time>2023-04-27T13:31:11Z</time>
      </trkpt>
      <trkpt lat="48.70883" lon="1.73202">
        <ele>178.6</ele>
        <time>2023-04-27T13:31:12Z</time>
      </trkpt>
      <trkpt lat="48.70879" lon="1.73204">
        <ele>178.8</ele>
        <time>2023-04-27T13:31:14Z</time>
      </trkpt>
      <trkpt lat="48.70877" lon="1.73204">
        <ele>179</ele>
        <time>2023-04-27T13:31:16Z</time>
      </trkpt>
      <trkpt lat="48.70874" lon="1.73204">
        <ele>179</ele>
        <time>2023-04-27T13:31:18Z</time>
      </trkpt>
      <trkpt lat="48.70871" lon="1.73205">
        <ele>179</ele>
        <time>2023-04-27T13:31:20Z</time>
      </trkpt>
      <trkpt lat="48.70869" lon="1.73205">
        <ele>179</ele>
        <time>2023-04-27T13:31:21Z</time>
      </trkpt>
      <trkpt lat="48.70866" lon="1.73205">
        <ele>179</ele>
        <time>2023-04-27T13:31:22Z</time>
      </trkpt>
      <trkpt lat="48.70863" lon="1.73207">
        <ele>179</ele>
        <time>2023-04-27T13:31:24Z</time>
      </trkpt>
      <trkpt lat="48.7086" lon="1.73208">
        <ele>179</ele>
        <time>2023-04-27T13:31:26Z</time>
      </trkpt>
      <trkpt lat="48.70857" lon="1.73209">
        <ele>179.2</ele>
        <time>2023-04-27T13:31:28Z</time>
      </trkpt>
      <trkpt lat="48.70855" lon="1.7321">
        <ele>179.2</ele>
        <time>2023-04-27T13:31:30Z</time>
      </trkpt>
      <trkpt lat="48.70852" lon="1.73212">
        <ele>179.4</ele>
        <time>2023-04-27T13:31:32Z</time>
      </trkpt>
      <trkpt lat="48.70849" lon="1.73213">
        <ele>179.6</ele>
        <time>2023-04-27T13:31:34Z</time>
      </trkpt>
      <trkpt lat="48.70846" lon="1.73213">
        <ele>179.8</ele>
        <time>2023-04-27T13:31:36Z</time>
      </trkpt>
      <trkpt lat="48.70844" lon="1.73213">
        <ele>180</ele>
        <time>2023-04-27T13:31:38Z</time>
      </trkpt>
      <trkpt lat="48.70841" lon="1.73213">
        <ele>180</ele>
        <time>2023-04-27T13:31:40Z</time>
      </trkpt>
      <trkpt lat="48.70838" lon="1.73214">
        <ele>180.2</ele>
        <time>2023-04-27T13:31:42Z</time>
      </trkpt>
      <trkpt lat="48.70835" lon="1.73215">
        <ele>180.4</ele>
        <time>2023-04-27T13:31:44Z</time>
      </trkpt>
      <trkpt lat="48.70832" lon="1.73217">
        <ele>180.4</ele>
        <time>2023-04-27T13:31:46Z</time>
      </trkpt>
      <trkpt lat="48.7083" lon="1.73217">
        <ele>180.4</ele>
        <time>2023-04-27T13:31:47Z</time>
      </trkpt>
      <trkpt lat="48.70828" lon="1.73218">
        <ele>180.6</ele>
        <time>2023-04-27T13:31:48Z</time>
      </trkpt>
      <trkpt lat="48.70826" lon="1.73218">
        <ele>180.6</ele>
        <time>2023-04-27T13:31:49Z</time>
      </trkpt>
      <trkpt lat="48.70823" lon="1.73219">
        <ele>180.6</ele>
        <time>2023-04-27T13:31:50Z</time>
      </trkpt>
      <trkpt lat="48.70821" lon="1.73219">
        <ele>180.4</ele>
        <time>2023-04-27T13:31:51Z</time>
      </trkpt>
      <trkpt lat="48.70818" lon="1.73221">
        <ele>180.4</ele>
        <time>2023-04-27T13:31:53Z</time>
      </trkpt>
      <trkpt lat="48.70816" lon="1.73222">
        <ele>180.4</ele>
        <time>2023-04-27T13:31:54Z</time>
      </trkpt>
      <trkpt lat="48.70813" lon="1.73224">
        <ele>180.4</ele>
        <time>2023-04-27T13:31:56Z</time>
      </trkpt>
      <trkpt lat="48.70811" lon="1.73225">
        <ele>180.2</ele>
        <time>2023-04-27T13:31:57Z</time>
      </trkpt>
      <trkpt lat="48.70809" lon="1.73225">
        <ele>180.2</ele>
        <time>2023-04-27T13:31:58Z</time>
      </trkpt>
      <trkpt lat="48.70807" lon="1.73226">
        <ele>180</ele>
        <time>2023-04-27T13:31:59Z</time>
      </trkpt>
      <trkpt lat="48.70805" lon="1.73227">
        <ele>180</ele>
        <time>2023-04-27T13:32:00Z</time>
      </trkpt>
      <trkpt lat="48.70802" lon="1.73228">
        <ele>179.8</ele>
        <time>2023-04-27T13:32:02Z</time>
      </trkpt>
      <trkpt lat="48.70798" lon="1.73229">
        <ele>179.6</ele>
        <time>2023-04-27T13:32:04Z</time>
      </trkpt>
      <trkpt lat="48.70795" lon="1.7323">
        <ele>179.4</ele>
        <time>2023-04-27T13:32:06Z</time>
      </trkpt>
      <trkpt lat="48.70793" lon="1.73229">
        <ele>179.2</ele>
        <time>2023-04-27T13:32:07Z</time>
      </trkpt>
      <trkpt lat="48.7079" lon="1.73229">
        <ele>179.2</ele>
        <time>2023-04-27T13:32:09Z</time>
      </trkpt>
      <trkpt lat="48.70788" lon="1.73229">
        <ele>179</ele>
        <time>2023-04-27T13:32:10Z</time>
      </trkpt>
      <trkpt lat="48.70784" lon="1.7323">
        <ele>178.8</ele>
        <time>2023-04-27T13:32:12Z</time>
      </trkpt>
      <trkpt lat="48.70781" lon="1.73231">
        <ele>178.8</ele>
        <time>2023-04-27T13:32:14Z</time>
      </trkpt>
      <trkpt lat="48.7078" lon="1.73231">
        <ele>178.8</ele>
        <time>2023-04-27T13:32:15Z</time>
      </trkpt>
      <trkpt lat="48.70776" lon="1.73231">
        <ele>178.8</ele>
        <time>2023-04-27T13:32:17Z</time>
      </trkpt>
      <trkpt lat="48.70774" lon="1.73231">
        <ele>178.8</ele>
        <time>2023-04-27T13:32:18Z</time>
      </trkpt>
      <trkpt lat="48.70772" lon="1.73231">
        <ele>178.8</ele>
        <time>2023-04-27T13:32:20Z</time>
      </trkpt>
      <trkpt lat="48.70768" lon="1.73232">
        <ele>178.6</ele>
        <time>2023-04-27T13:32:22Z</time>
      </trkpt>
      <trkpt lat="48.70764" lon="1.73233">
        <ele>178.4</ele>
        <time>2023-04-27T13:32:26Z</time>
      </trkpt>
      <trkpt lat="48.70762" lon="1.73235">
        <ele>178.2</ele>
        <time>2023-04-27T13:32:36Z</time>
      </trkpt>
      <trkpt lat="48.7076" lon="1.73236">
        <ele>176.4</ele>
        <time>2023-04-27T13:32:55Z</time>
      </trkpt>
      <trkpt lat="48.70758" lon="1.73237">
        <ele>176.2</ele>
        <time>2023-04-27T13:32:57Z</time>
      </trkpt>
      <trkpt lat="48.70755" lon="1.73237">
        <ele>176.2</ele>
        <time>2023-04-27T13:32:59Z</time>
      </trkpt>
      <trkpt lat="48.70752" lon="1.73238">
        <ele>176.2</ele>
        <time>2023-04-27T13:33:01Z</time>
      </trkpt>
      <trkpt lat="48.70748" lon="1.73239">
        <ele>176.2</ele>
        <time>2023-04-27T13:33:03Z</time>
      </trkpt>
      <trkpt lat="48.70747" lon="1.7324">
        <ele>176.2</ele>
        <time>2023-04-27T13:33:04Z</time>
      </trkpt>
      <trkpt lat="48.70744" lon="1.7324">
        <ele>176.2</ele>
        <time>2023-04-27T13:33:06Z</time>
      </trkpt>
      <trkpt lat="48.7074" lon="1.7324">
        <ele>176</ele>
        <time>2023-04-27T13:33:08Z</time>
      </trkpt>
      <trkpt lat="48.70738" lon="1.73239">
        <ele>176</ele>
        <time>2023-04-27T13:33:10Z</time>
      </trkpt>
      <trkpt lat="48.70735" lon="1.73239">
        <ele>175.8</ele>
        <time>2023-04-27T13:33:12Z</time>
      </trkpt>
      <trkpt lat="48.70732" lon="1.73239">
        <ele>175.8</ele>
        <time>2023-04-27T13:33:14Z</time>
      </trkpt>
      <trkpt lat="48.70728" lon="1.73241">
        <ele>175.6</ele>
        <time>2023-04-27T13:33:16Z</time>
      </trkpt>
      <trkpt lat="48.70725" lon="1.73243">
        <ele>175.4</ele>
        <time>2023-04-27T13:33:18Z</time>
      </trkpt>
      <trkpt lat="48.70723" lon="1.73245">
        <ele>175.2</ele>
        <time>2023-04-27T13:33:20Z</time>
      </trkpt>
      <trkpt lat="48.70721" lon="1.73246">
        <ele>175.2</ele>
        <time>2023-04-27T13:33:22Z</time>
      </trkpt>
      <trkpt lat="48.70718" lon="1.73247">
        <ele>175.2</ele>
        <time>2023-04-27T13:33:25Z</time>
      </trkpt>
      <trkpt lat="48.70716" lon="1.73247">
        <ele>175</ele>
        <time>2023-04-27T13:33:27Z</time>
      </trkpt>
      <trkpt lat="48.70714" lon="1.73247">
        <ele>174.6</ele>
        <time>2023-04-27T13:33:29Z</time>
      </trkpt>
      <trkpt lat="48.70712" lon="1.73248">
        <ele>174.2</ele>
        <time>2023-04-27T13:33:31Z</time>
      </trkpt>
      <trkpt lat="48.70709" lon="1.73248">
        <ele>173.8</ele>
        <time>2023-04-27T13:33:33Z</time>
      </trkpt>
      <trkpt lat="48.70706" lon="1.73249">
        <ele>173.6</ele>
        <time>2023-04-27T13:33:35Z</time>
      </trkpt>
      <trkpt lat="48.70703" lon="1.73252">
        <ele>173.2</ele>
        <time>2023-04-27T13:33:37Z</time>
      </trkpt>
      <trkpt lat="48.707" lon="1.73253">
        <ele>173</ele>
        <time>2023-04-27T13:33:39Z</time>
      </trkpt>
      <trkpt lat="48.70697" lon="1.73254">
        <ele>172.8</ele>
        <time>2023-04-27T13:33:41Z</time>
      </trkpt>
      <trkpt lat="48.70694" lon="1.73254">
        <ele>172.6</ele>
        <time>2023-04-27T13:33:43Z</time>
      </trkpt>
      <trkpt lat="48.70692" lon="1.73254">
        <ele>172.4</ele>
        <time>2023-04-27T13:33:45Z</time>
      </trkpt>
      <trkpt lat="48.70689" lon="1.73254">
        <ele>172.4</ele>
        <time>2023-04-27T13:33:47Z</time>
      </trkpt>
      <trkpt lat="48.70687" lon="1.73254">
        <ele>172.2</ele>
        <time>2023-04-27T13:33:49Z</time>
      </trkpt>
      <trkpt lat="48.70685" lon="1.73255">
        <ele>172</ele>
        <time>2023-04-27T13:33:51Z</time>
      </trkpt>
      <trkpt lat="48.70682" lon="1.73255">
        <ele>172</ele>
        <time>2023-04-27T13:33:53Z</time>
      </trkpt>
      <trkpt lat="48.70679" lon="1.73255">
        <ele>171.8</ele>
        <time>2023-04-27T13:33:55Z</time>
      </trkpt>
      <trkpt lat="48.70676" lon="1.73255">
        <ele>171.8</ele>
        <time>2023-04-27T13:33:57Z</time>
      </trkpt>
      <trkpt lat="48.70673" lon="1.73256">
        <ele>171.6</ele>
        <time>2023-04-27T13:33:59Z</time>
      </trkpt>
      <trkpt lat="48.7067" lon="1.73257">
        <ele>171.8</ele>
        <time>2023-04-27T13:34:01Z</time>
      </trkpt>
      <trkpt lat="48.70668" lon="1.73258">
        <ele>172</ele>
        <time>2023-04-27T13:34:03Z</time>
      </trkpt>
      <trkpt lat="48.70665" lon="1.7326">
        <ele>172.2</ele>
        <time>2023-04-27T13:34:05Z</time>
      </trkpt>
      <trkpt lat="48.70661" lon="1.73261">
        <ele>172.4</ele>
        <time>2023-04-27T13:34:07Z</time>
      </trkpt>
      <trkpt lat="48.70659" lon="1.73261">
        <ele>172.6</ele>
        <time>2023-04-27T13:34:09Z</time>
      </trkpt>
      <trkpt lat="48.70656" lon="1.73261">
        <ele>172.6</ele>
        <time>2023-04-27T13:34:11Z</time>
      </trkpt>
      <trkpt lat="48.70654" lon="1.73261">
        <ele>172.6</ele>
        <time>2023-04-27T13:34:13Z</time>
      </trkpt>
      <trkpt lat="48.70652" lon="1.73263">
        <ele>172.8</ele>
        <time>2023-04-27T13:34:15Z</time>
      </trkpt>
      <trkpt lat="48.70649" lon="1.73264">
        <ele>172.8</ele>
        <time>2023-04-27T13:34:17Z</time>
      </trkpt>
      <trkpt lat="48.70647" lon="1.73265">
        <ele>172.8</ele>
        <time>2023-04-27T13:34:18Z</time>
      </trkpt>
      <trkpt lat="48.70645" lon="1.73266">
        <ele>172.8</ele>
        <time>2023-04-27T13:34:19Z</time>
      </trkpt>
      <trkpt lat="48.70643" lon="1.73267">
        <ele>173</ele>
        <time>2023-04-27T13:34:20Z</time>
      </trkpt>
      <trkpt lat="48.70639" lon="1.73268">
        <ele>173.2</ele>
        <time>2023-04-27T13:34:22Z</time>
      </trkpt>
      <trkpt lat="48.70636" lon="1.73269">
        <ele>173.2</ele>
        <time>2023-04-27T13:34:24Z</time>
      </trkpt>
      <trkpt lat="48.70633" lon="1.7327">
        <ele>173.4</ele>
        <time>2023-04-27T13:34:26Z</time>
      </trkpt>
      <trkpt lat="48.7063" lon="1.73271">
        <ele>173.6</ele>
        <time>2023-04-27T13:34:28Z</time>
      </trkpt>
      <trkpt lat="48.70627" lon="1.73272">
        <ele>173.8</ele>
        <time>2023-04-27T13:34:30Z</time>
      </trkpt>
      <trkpt lat="48.70624" lon="1.73272">
        <ele>173.8</ele>
        <time>2023-04-27T13:34:32Z</time>
      </trkpt>
      <trkpt lat="48.70621" lon="1.73273">
        <ele>174</ele>
        <time>2023-04-27T13:34:34Z</time>
      </trkpt>
      <trkpt lat="48.70618" lon="1.73273">
        <ele>174.2</ele>
        <time>2023-04-27T13:34:36Z</time>
      </trkpt>
      <trkpt lat="48.70615" lon="1.73274">
        <ele>174.2</ele>
        <time>2023-04-27T13:34:38Z</time>
      </trkpt>
      <trkpt lat="48.70612" lon="1.73275">
        <ele>174.2</ele>
        <time>2023-04-27T13:34:40Z</time>
      </trkpt>
      <trkpt lat="48.70611" lon="1.73275">
        <ele>174.2</ele>
        <time>2023-04-27T13:34:41Z</time>
      </trkpt>
      <trkpt lat="48.70608" lon="1.73275">
        <ele>174.2</ele>
        <time>2023-04-27T13:34:42Z</time>
      </trkpt>
      <trkpt lat="48.70605" lon="1.73276">
        <ele>174.2</ele>
        <time>2023-04-27T13:34:43Z</time>
      </trkpt>
      <trkpt lat="48.70603" lon="1.73277">
        <ele>174.2</ele>
        <time>2023-04-27T13:34:44Z</time>
      </trkpt>
      <trkpt lat="48.70599" lon="1.73278">
        <ele>174</ele>
        <time>2023-04-27T13:34:45Z</time>
      </trkpt>
      <trkpt lat="48.70596" lon="1.73278">
        <ele>174</ele>
        <time>2023-04-27T13:34:46Z</time>
      </trkpt>
      <trkpt lat="48.70593" lon="1.73279">
        <ele>174</ele>
        <time>2023-04-27T13:34:47Z</time>
      </trkpt>
      <trkpt lat="48.7059" lon="1.7328">
        <ele>174</ele>
        <time>2023-04-27T13:34:48Z</time>
      </trkpt>
      <trkpt lat="48.70586" lon="1.73281">
        <ele>174</ele>
        <time>2023-04-27T13:34:49Z</time>
      </trkpt>
      <trkpt lat="48.70583" lon="1.73282">
        <ele>174</ele>
        <time>2023-04-27T13:34:50Z</time>
      </trkpt>
      <trkpt lat="48.7058" lon="1.73282">
        <ele>174</ele>
        <time>2023-04-27T13:34:51Z</time>
      </trkpt>
      <trkpt lat="48.70577" lon="1.73283">
        <ele>174</ele>
        <time>2023-04-27T13:34:52Z</time>
      </trkpt>
      <trkpt lat="48.70573" lon="1.73284">
        <ele>174</ele>
        <time>2023-04-27T13:34:53Z</time>
      </trkpt>
      <trkpt lat="48.7057" lon="1.73284">
        <ele>174</ele>
        <time>2023-04-27T13:34:54Z</time>
      </trkpt>
      <trkpt lat="48.70567" lon="1.73285">
        <ele>174</ele>
        <time>2023-04-27T13:34:55Z</time>
      </trkpt>
      <trkpt lat="48.70564" lon="1.73286">
        <ele>174.2</ele>
        <time>2023-04-27T13:34:56Z</time>
      </trkpt>
      <trkpt lat="48.7056" lon="1.73287">
        <ele>174.2</ele>
        <time>2023-04-27T13:34:57Z</time>
      </trkpt>
      <trkpt lat="48.70556" lon="1.73288">
        <ele>174.2</ele>
        <time>2023-04-27T13:34:58Z</time>
      </trkpt>
      <trkpt lat="48.70553" lon="1.73289">
        <ele>174.2</ele>
        <time>2023-04-27T13:34:59Z</time>
      </trkpt>
      <trkpt lat="48.70549" lon="1.7329">
        <ele>174.2</ele>
        <time>2023-04-27T13:35:00Z</time>
      </trkpt>
      <trkpt lat="48.70545" lon="1.73291">
        <ele>174.2</ele>
        <time>2023-04-27T13:35:01Z</time>
      </trkpt>
      <trkpt lat="48.70541" lon="1.73292">
        <ele>174.2</ele>
        <time>2023-04-27T13:35:02Z</time>
      </trkpt>
      <trkpt lat="48.70538" lon="1.73293">
        <ele>174.2</ele>
        <time>2023-04-27T13:35:03Z</time>
      </trkpt>
      <trkpt lat="48.70535" lon="1.73293">
        <ele>174.2</ele>
        <time>2023-04-27T13:35:04Z</time>
      </trkpt>
      <trkpt lat="48.70532" lon="1.73294">
        <ele>174.2</ele>
        <time>2023-04-27T13:35:05Z</time>
      </trkpt>
      <trkpt lat="48.70529" lon="1.73295">
        <ele>174.2</ele>
        <time>2023-04-27T13:35:06Z</time>
      </trkpt>
      <trkpt lat="48.70526" lon="1.73297">
        <ele>174.2</ele>
        <time>2023-04-27T13:35:07Z</time>
      </trkpt>
      <trkpt lat="48.70524" lon="1.73298">
        <ele>174.2</ele>
        <time>2023-04-27T13:35:08Z</time>
      </trkpt>
      <trkpt lat="48.70521" lon="1.733">
        <ele>174.2</ele>
        <time>2023-04-27T13:35:09Z</time>
      </trkpt>
      <trkpt lat="48.70518" lon="1.73301">
        <ele>174.2</ele>
        <time>2023-04-27T13:35:10Z</time>
      </trkpt>
      <trkpt lat="48.70516" lon="1.73303">
        <ele>174.2</ele>
        <time>2023-04-27T13:35:11Z</time>
      </trkpt>
      <trkpt lat="48.70513" lon="1.73304">
        <ele>174.2</ele>
        <time>2023-04-27T13:35:12Z</time>
      </trkpt>
      <trkpt lat="48.7051" lon="1.73305">
        <ele>174.2</ele>
        <time>2023-04-27T13:35:13Z</time>
      </trkpt>
      <trkpt lat="48.70508" lon="1.73305">
        <ele>174.2</ele>
        <time>2023-04-27T13:35:14Z</time>
      </trkpt>
      <trkpt lat="48.70505" lon="1.73306">
        <ele>174.2</ele>
        <time>2023-04-27T13:35:15Z</time>
      </trkpt>
      <trkpt lat="48.70502" lon="1.73306">
        <ele>174.2</ele>
        <time>2023-04-27T13:35:16Z</time>
      </trkpt>
      <trkpt lat="48.705" lon="1.73307">
        <ele>174.2</ele>
        <time>2023-04-27T13:35:17Z</time>
      </trkpt>
      <trkpt lat="48.70497" lon="1.73307">
        <ele>174.2</ele>
        <time>2023-04-27T13:35:18Z</time>
      </trkpt>
      <trkpt lat="48.70494" lon="1.73308">
        <ele>174.2</ele>
        <time>2023-04-27T13:35:19Z</time>
      </trkpt>
      <trkpt lat="48.70491" lon="1.73309">
        <ele>174.4</ele>
        <time>2023-04-27T13:35:20Z</time>
      </trkpt>
      <trkpt lat="48.70488" lon="1.73309">
        <ele>174.4</ele>
        <time>2023-04-27T13:35:21Z</time>
      </trkpt>
      <trkpt lat="48.70485" lon="1.7331">
        <ele>174.4</ele>
        <time>2023-04-27T13:35:22Z</time>
      </trkpt>
      <trkpt lat="48.70482" lon="1.73311">
        <ele>174.6</ele>
        <time>2023-04-27T13:35:23Z</time>
      </trkpt>
      <trkpt lat="48.7048" lon="1.73312">
        <ele>174.6</ele>
        <time>2023-04-27T13:35:24Z</time>
      </trkpt>
      <trkpt lat="48.70477" lon="1.73313">
        <ele>174.6</ele>
        <time>2023-04-27T13:35:25Z</time>
      </trkpt>
      <trkpt lat="48.70474" lon="1.73314">
        <ele>174.6</ele>
        <time>2023-04-27T13:35:26Z</time>
      </trkpt>
      <trkpt lat="48.70471" lon="1.73315">
        <ele>174.8</ele>
        <time>2023-04-27T13:35:27Z</time>
      </trkpt>
      <trkpt lat="48.70468" lon="1.73317">
        <ele>174.8</ele>
        <time>2023-04-27T13:35:28Z</time>
      </trkpt>
      <trkpt lat="48.70464" lon="1.73318">
        <ele>174.8</ele>
        <time>2023-04-27T13:35:29Z</time>
      </trkpt>
      <trkpt lat="48.70461" lon="1.73319">
        <ele>174.8</ele>
        <time>2023-04-27T13:35:30Z</time>
      </trkpt>
      <trkpt lat="48.70458" lon="1.7332">
        <ele>174.8</ele>
        <time>2023-04-27T13:35:31Z</time>
      </trkpt>
      <trkpt lat="48.70454" lon="1.7332">
        <ele>175</ele>
        <time>2023-04-27T13:35:32Z</time>
      </trkpt>
      <trkpt lat="48.70451" lon="1.73321">
        <ele>175</ele>
        <time>2023-04-27T13:35:33Z</time>
      </trkpt>
      <trkpt lat="48.70448" lon="1.73321">
        <ele>175</ele>
        <time>2023-04-27T13:35:34Z</time>
      </trkpt>
      <trkpt lat="48.70444" lon="1.73322">
        <ele>175</ele>
        <time>2023-04-27T13:35:35Z</time>
      </trkpt>
      <trkpt lat="48.70441" lon="1.73322">
        <ele>175</ele>
        <time>2023-04-27T13:35:36Z</time>
      </trkpt>
      <trkpt lat="48.70438" lon="1.73323">
        <ele>175.2</ele>
        <time>2023-04-27T13:35:37Z</time>
      </trkpt>
      <trkpt lat="48.70435" lon="1.73324">
        <ele>175.2</ele>
        <time>2023-04-27T13:35:38Z</time>
      </trkpt>
      <trkpt lat="48.70431" lon="1.73326">
        <ele>175.2</ele>
        <time>2023-04-27T13:35:39Z</time>
      </trkpt>
      <trkpt lat="48.70428" lon="1.73327">
        <ele>175.2</ele>
        <time>2023-04-27T13:35:40Z</time>
      </trkpt>
      <trkpt lat="48.70424" lon="1.73328">
        <ele>175.2</ele>
        <time>2023-04-27T13:35:41Z</time>
      </trkpt>
      <trkpt lat="48.7042" lon="1.73329">
        <ele>175.4</ele>
        <time>2023-04-27T13:35:42Z</time>
      </trkpt>
      <trkpt lat="48.70415" lon="1.7333">
        <ele>175.4</ele>
        <time>2023-04-27T13:35:43Z</time>
      </trkpt>
      <trkpt lat="48.70411" lon="1.73331">
        <ele>175.6</ele>
        <time>2023-04-27T13:35:44Z</time>
      </trkpt>
      <trkpt lat="48.70406" lon="1.73332">
        <ele>175.6</ele>
        <time>2023-04-27T13:35:45Z</time>
      </trkpt>
      <trkpt lat="48.70402" lon="1.73333">
        <ele>175.6</ele>
        <time>2023-04-27T13:35:46Z</time>
      </trkpt>
      <trkpt lat="48.70397" lon="1.73333">
        <ele>175.6</ele>
        <time>2023-04-27T13:35:47Z</time>
      </trkpt>
      <trkpt lat="48.70392" lon="1.73334">
        <ele>175.8</ele>
        <time>2023-04-27T13:35:48Z</time>
      </trkpt>
      <trkpt lat="48.70387" lon="1.73335">
        <ele>175.8</ele>
        <time>2023-04-27T13:35:49Z</time>
      </trkpt>
      <trkpt lat="48.70382" lon="1.73336">
        <ele>175.8</ele>
        <time>2023-04-27T13:35:50Z</time>
      </trkpt>
      <trkpt lat="48.70377" lon="1.73336">
        <ele>175.8</ele>
        <time>2023-04-27T13:35:51Z</time>
      </trkpt>
      <trkpt lat="48.70372" lon="1.73337">
        <ele>175.8</ele>
        <time>2023-04-27T13:35:52Z</time>
      </trkpt>
      <trkpt lat="48.70367" lon="1.73338">
        <ele>175.8</ele>
        <time>2023-04-27T13:35:53Z</time>
      </trkpt>
      <trkpt lat="48.70363" lon="1.7334">
        <ele>175.8</ele>
        <time>2023-04-27T13:35:54Z</time>
      </trkpt>
      <trkpt lat="48.70357" lon="1.73341">
        <ele>175.8</ele>
        <time>2023-04-27T13:35:55Z</time>
      </trkpt>
      <trkpt lat="48.70352" lon="1.73343">
        <ele>175.8</ele>
        <time>2023-04-27T13:35:56Z</time>
      </trkpt>
      <trkpt lat="48.70347" lon="1.73345">
        <ele>175.8</ele>
        <time>2023-04-27T13:35:57Z</time>
      </trkpt>
      <trkpt lat="48.70341" lon="1.73347">
        <ele>175.8</ele>
        <time>2023-04-27T13:35:58Z</time>
      </trkpt>
      <trkpt lat="48.70336" lon="1.73349">
        <ele>175.8</ele>
        <time>2023-04-27T13:35:59Z</time>
      </trkpt>
      <trkpt lat="48.70331" lon="1.73351">
        <ele>175.8</ele>
        <time>2023-04-27T13:36:00Z</time>
      </trkpt>
      <trkpt lat="48.70326" lon="1.73353">
        <ele>175.8</ele>
        <time>2023-04-27T13:36:01Z</time>
      </trkpt>
      <trkpt lat="48.70321" lon="1.73354">
        <ele>175.8</ele>
        <time>2023-04-27T13:36:02Z</time>
      </trkpt>
      <trkpt lat="48.70316" lon="1.73356">
        <ele>175.8</ele>
        <time>2023-04-27T13:36:03Z</time>
      </trkpt>
      <trkpt lat="48.70311" lon="1.73357">
        <ele>175.6</ele>
        <time>2023-04-27T13:36:04Z</time>
      </trkpt>
      <trkpt lat="48.70306" lon="1.73359">
        <ele>175.6</ele>
        <time>2023-04-27T13:36:05Z</time>
      </trkpt>
      <trkpt lat="48.703" lon="1.7336">
        <ele>175.6</ele>
        <time>2023-04-27T13:36:06Z</time>
      </trkpt>
      <trkpt lat="48.70294" lon="1.73361">
        <ele>175.4</ele>
        <time>2023-04-27T13:36:07Z</time>
      </trkpt>
      <trkpt lat="48.70288" lon="1.73363">
        <ele>175.4</ele>
        <time>2023-04-27T13:36:08Z</time>
      </trkpt>
      <trkpt lat="48.70282" lon="1.73364">
        <ele>175.4</ele>
        <time>2023-04-27T13:36:09Z</time>
      </trkpt>
      <trkpt lat="48.70276" lon="1.73366">
        <ele>175.2</ele>
        <time>2023-04-27T13:36:10Z</time>
      </trkpt>
      <trkpt lat="48.7027" lon="1.73367">
        <ele>175.2</ele>
        <time>2023-04-27T13:36:11Z</time>
      </trkpt>
      <trkpt lat="48.70265" lon="1.73368">
        <ele>175.2</ele>
        <time>2023-04-27T13:36:12Z</time>
      </trkpt>
      <trkpt lat="48.70259" lon="1.73369">
        <ele>175</ele>
        <time>2023-04-27T13:36:13Z</time>
      </trkpt>
      <trkpt lat="48.70253" lon="1.73371">
        <ele>175</ele>
        <time>2023-04-27T13:36:14Z</time>
      </trkpt>
      <trkpt lat="48.70247" lon="1.73372">
        <ele>175</ele>
        <time>2023-04-27T13:36:15Z</time>
      </trkpt>
      <trkpt lat="48.70241" lon="1.73374">
        <ele>175</ele>
        <time>2023-04-27T13:36:16Z</time>
      </trkpt>
      <trkpt lat="48.70235" lon="1.73376">
        <ele>175</ele>
        <time>2023-04-27T13:36:17Z</time>
      </trkpt>
      <trkpt lat="48.70228" lon="1.73377">
        <ele>175</ele>
        <time>2023-04-27T13:36:18Z</time>
      </trkpt>
      <trkpt lat="48.70222" lon="1.73379">
        <ele>175</ele>
        <time>2023-04-27T13:36:19Z</time>
      </trkpt>
      <trkpt lat="48.70216" lon="1.73381">
        <ele>174.8</ele>
        <time>2023-04-27T13:36:20Z</time>
      </trkpt>
      <trkpt lat="48.7021" lon="1.73382">
        <ele>174.8</ele>
        <time>2023-04-27T13:36:21Z</time>
      </trkpt>
      <trkpt lat="48.70204" lon="1.73384">
        <ele>174.8</ele>
        <time>2023-04-27T13:36:22Z</time>
      </trkpt>
      <trkpt lat="48.70198" lon="1.73386">
        <ele>174.8</ele>
        <time>2023-04-27T13:36:23Z</time>
      </trkpt>
      <trkpt lat="48.70192" lon="1.73387">
        <ele>174.8</ele>
        <time>2023-04-27T13:36:24Z</time>
      </trkpt>
      <trkpt lat="48.70186" lon="1.73389">
        <ele>174.8</ele>
        <time>2023-04-27T13:36:25Z</time>
      </trkpt>
      <trkpt lat="48.7018" lon="1.7339">
        <ele>174.8</ele>
        <time>2023-04-27T13:36:26Z</time>
      </trkpt>
      <trkpt lat="48.70174" lon="1.73392">
        <ele>174.8</ele>
        <time>2023-04-27T13:36:27Z</time>
      </trkpt>
      <trkpt lat="48.70167" lon="1.73393">
        <ele>174.8</ele>
        <time>2023-04-27T13:36:28Z</time>
      </trkpt>
      <trkpt lat="48.70161" lon="1.73395">
        <ele>174.6</ele>
        <time>2023-04-27T13:36:29Z</time>
      </trkpt>
      <trkpt lat="48.70155" lon="1.73396">
        <ele>174.6</ele>
        <time>2023-04-27T13:36:30Z</time>
      </trkpt>
      <trkpt lat="48.70148" lon="1.73398">
        <ele>174.6</ele>
        <time>2023-04-27T13:36:31Z</time>
      </trkpt>
      <trkpt lat="48.70142" lon="1.734">
        <ele>174.4</ele>
        <time>2023-04-27T13:36:32Z</time>
      </trkpt>
      <trkpt lat="48.70136" lon="1.73401">
        <ele>174.4</ele>
        <time>2023-04-27T13:36:33Z</time>
      </trkpt>
      <trkpt lat="48.7013" lon="1.73403">
        <ele>174.2</ele>
        <time>2023-04-27T13:36:34Z</time>
      </trkpt>
      <trkpt lat="48.70124" lon="1.73404">
        <ele>174</ele>
        <time>2023-04-27T13:36:35Z</time>
      </trkpt>
      <trkpt lat="48.70117" lon="1.73406">
        <ele>173.8</ele>
        <time>2023-04-27T13:36:36Z</time>
      </trkpt>
      <trkpt lat="48.70111" lon="1.73407">
        <ele>173.8</ele>
        <time>2023-04-27T13:36:37Z</time>
      </trkpt>
      <trkpt lat="48.70105" lon="1.73409">
        <ele>173.6</ele>
        <time>2023-04-27T13:36:38Z</time>
      </trkpt>
      <trkpt lat="48.70099" lon="1.73411">
        <ele>173.4</ele>
        <time>2023-04-27T13:36:39Z</time>
      </trkpt>
      <trkpt lat="48.70092" lon="1.73413">
        <ele>173.4</ele>
        <time>2023-04-27T13:36:40Z</time>
      </trkpt>
      <trkpt lat="48.70086" lon="1.73415">
        <ele>173.2</ele>
        <time>2023-04-27T13:36:41Z</time>
      </trkpt>
      <trkpt lat="48.7008" lon="1.73416">
        <ele>173</ele>
        <time>2023-04-27T13:36:42Z</time>
      </trkpt>
      <trkpt lat="48.70075" lon="1.73418">
        <ele>173</ele>
        <time>2023-04-27T13:36:43Z</time>
      </trkpt>
      <trkpt lat="48.70069" lon="1.73419">
        <ele>172.8</ele>
        <time>2023-04-27T13:36:44Z</time>
      </trkpt>
      <trkpt lat="48.70063" lon="1.7342">
        <ele>172.8</ele>
        <time>2023-04-27T13:36:45Z</time>
      </trkpt>
      <trkpt lat="48.70057" lon="1.73422">
        <ele>172.6</ele>
        <time>2023-04-27T13:36:46Z</time>
      </trkpt>
      <trkpt lat="48.70052" lon="1.73423">
        <ele>172.6</ele>
        <time>2023-04-27T13:36:47Z</time>
      </trkpt>
      <trkpt lat="48.70046" lon="1.73424">
        <ele>172.4</ele>
        <time>2023-04-27T13:36:48Z</time>
      </trkpt>
      <trkpt lat="48.7004" lon="1.73426">
        <ele>172.2</ele>
        <time>2023-04-27T13:36:49Z</time>
      </trkpt>
      <trkpt lat="48.70034" lon="1.73427">
        <ele>172</ele>
        <time>2023-04-27T13:36:50Z</time>
      </trkpt>
      <trkpt lat="48.70028" lon="1.73428">
        <ele>172</ele>
        <time>2023-04-27T13:36:51Z</time>
      </trkpt>
      <trkpt lat="48.70022" lon="1.73429">
        <ele>171.8</ele>
        <time>2023-04-27T13:36:52Z</time>
      </trkpt>
      <trkpt lat="48.70016" lon="1.7343">
        <ele>171.8</ele>
        <time>2023-04-27T13:36:53Z</time>
      </trkpt>
      <trkpt lat="48.70011" lon="1.73431">
        <ele>171.6</ele>
        <time>2023-04-27T13:36:54Z</time>
      </trkpt>
      <trkpt lat="48.70005" lon="1.73432">
        <ele>171.6</ele>
        <time>2023-04-27T13:36:55Z</time>
      </trkpt>
      <trkpt lat="48.7" lon="1.73433">
        <ele>171.6</ele>
        <time>2023-04-27T13:36:56Z</time>
      </trkpt>
      <trkpt lat="48.69994" lon="1.73434">
        <ele>171.4</ele>
        <time>2023-04-27T13:36:57Z</time>
      </trkpt>
      <trkpt lat="48.69988" lon="1.73436">
        <ele>171.4</ele>
        <time>2023-04-27T13:36:58Z</time>
      </trkpt>
      <trkpt lat="48.69983" lon="1.73437">
        <ele>171.2</ele>
        <time>2023-04-27T13:36:59Z</time>
      </trkpt>
      <trkpt lat="48.69977" lon="1.73439">
        <ele>171.2</ele>
        <time>2023-04-27T13:37:00Z</time>
      </trkpt>
      <trkpt lat="48.69972" lon="1.73441">
        <ele>171</ele>
        <time>2023-04-27T13:37:01Z</time>
      </trkpt>
      <trkpt lat="48.69965" lon="1.73443">
        <ele>171</ele>
        <time>2023-04-27T13:37:02Z</time>
      </trkpt>
      <trkpt lat="48.6996" lon="1.73445">
        <ele>170.8</ele>
        <time>2023-04-27T13:37:03Z</time>
      </trkpt>
      <trkpt lat="48.69954" lon="1.73446">
        <ele>170.8</ele>
        <time>2023-04-27T13:37:04Z</time>
      </trkpt>
      <trkpt lat="48.69948" lon="1.73448">
        <ele>170.8</ele>
        <time>2023-04-27T13:37:05Z</time>
      </trkpt>
      <trkpt lat="48.69942" lon="1.7345">
        <ele>170.6</ele>
        <time>2023-04-27T13:37:06Z</time>
      </trkpt>
      <trkpt lat="48.69937" lon="1.73451">
        <ele>170.6</ele>
        <time>2023-04-27T13:37:07Z</time>
      </trkpt>
      <trkpt lat="48.69932" lon="1.73453">
        <ele>170.6</ele>
        <time>2023-04-27T13:37:08Z</time>
      </trkpt>
      <trkpt lat="48.69927" lon="1.73455">
        <ele>170.4</ele>
        <time>2023-04-27T13:37:09Z</time>
      </trkpt>
      <trkpt lat="48.69922" lon="1.73456">
        <ele>170.4</ele>
        <time>2023-04-27T13:37:10Z</time>
      </trkpt>
      <trkpt lat="48.69917" lon="1.73457">
        <ele>170.4</ele>
        <time>2023-04-27T13:37:11Z</time>
      </trkpt>
      <trkpt lat="48.69913" lon="1.73458">
        <ele>170.4</ele>
        <time>2023-04-27T13:37:12Z</time>
      </trkpt>
      <trkpt lat="48.69909" lon="1.73458">
        <ele>170.4</ele>
        <time>2023-04-27T13:37:13Z</time>
      </trkpt>
      <trkpt lat="48.69905" lon="1.73459">
        <ele>170.4</ele>
        <time>2023-04-27T13:37:14Z</time>
      </trkpt>
      <trkpt lat="48.69902" lon="1.7346">
        <ele>170.4</ele>
        <time>2023-04-27T13:37:15Z</time>
      </trkpt>
      <trkpt lat="48.69899" lon="1.7346">
        <ele>170.4</ele>
        <time>2023-04-27T13:37:16Z</time>
      </trkpt>
      <trkpt lat="48.69896" lon="1.73461">
        <ele>170.4</ele>
        <time>2023-04-27T13:37:17Z</time>
      </trkpt>
      <trkpt lat="48.69894" lon="1.73462">
        <ele>170.4</ele>
        <time>2023-04-27T13:37:18Z</time>
      </trkpt>
      <trkpt lat="48.69892" lon="1.73463">
        <ele>170.6</ele>
        <time>2023-04-27T13:37:19Z</time>
      </trkpt>
      <trkpt lat="48.6989" lon="1.73464">
        <ele>170.8</ele>
        <time>2023-04-27T13:37:20Z</time>
      </trkpt>
      <trkpt lat="48.69888" lon="1.73465">
        <ele>171</ele>
        <time>2023-04-27T13:37:21Z</time>
      </trkpt>
      <trkpt lat="48.69886" lon="1.73468">
        <ele>171.2</ele>
        <time>2023-04-27T13:37:23Z</time>
      </trkpt>
      <trkpt lat="48.69885" lon="1.73472">
        <ele>171.6</ele>
        <time>2023-04-27T13:37:26Z</time>
      </trkpt>
      <trkpt lat="48.69883" lon="1.73474">
        <ele>172</ele>
        <time>2023-04-27T13:37:29Z</time>
      </trkpt>
      <trkpt lat="48.69881" lon="1.73476">
        <ele>172.2</ele>
        <time>2023-04-27T13:37:30Z</time>
      </trkpt>
      <trkpt lat="48.69878" lon="1.7348">
        <ele>172.4</ele>
        <time>2023-04-27T13:37:32Z</time>
      </trkpt>
      <trkpt lat="48.69876" lon="1.73482">
        <ele>172.4</ele>
        <time>2023-04-27T13:37:33Z</time>
      </trkpt>
      <trkpt lat="48.69875" lon="1.73484">
        <ele>172.4</ele>
        <time>2023-04-27T13:37:34Z</time>
      </trkpt>
      <trkpt lat="48.69874" lon="1.73488">
        <ele>172.6</ele>
        <time>2023-04-27T13:37:36Z</time>
      </trkpt>
      <trkpt lat="48.69873" lon="1.73491">
        <ele>172.6</ele>
        <time>2023-04-27T13:37:38Z</time>
      </trkpt>
      <trkpt lat="48.69872" lon="1.73494">
        <ele>172.6</ele>
        <time>2023-04-27T13:37:40Z</time>
      </trkpt>
      <trkpt lat="48.6987" lon="1.73497">
        <ele>172.4</ele>
        <time>2023-04-27T13:37:42Z</time>
      </trkpt>
      <trkpt lat="48.69868" lon="1.73501">
        <ele>172.4</ele>
        <time>2023-04-27T13:37:44Z</time>
      </trkpt>
      <trkpt lat="48.69866" lon="1.73505">
        <ele>172.4</ele>
        <time>2023-04-27T13:37:46Z</time>
      </trkpt>
      <trkpt lat="48.69865" lon="1.73507">
        <ele>172.4</ele>
        <time>2023-04-27T13:37:47Z</time>
      </trkpt>
      <trkpt lat="48.69863" lon="1.73511">
        <ele>172.2</ele>
        <time>2023-04-27T13:37:49Z</time>
      </trkpt>
      <trkpt lat="48.6986" lon="1.73515">
        <ele>172.2</ele>
        <time>2023-04-27T13:37:51Z</time>
      </trkpt>
      <trkpt lat="48.69859" lon="1.73517">
        <ele>172.2</ele>
        <time>2023-04-27T13:37:52Z</time>
      </trkpt>
      <trkpt lat="48.69857" lon="1.7352">
        <ele>172.2</ele>
        <time>2023-04-27T13:37:54Z</time>
      </trkpt>
      <trkpt lat="48.69855" lon="1.73523">
        <ele>172.2</ele>
        <time>2023-04-27T13:37:56Z</time>
      </trkpt>
      <trkpt lat="48.69853" lon="1.73525">
        <ele>172.4</ele>
        <time>2023-04-27T13:37:58Z</time>
      </trkpt>
      <trkpt lat="48.69852" lon="1.73528">
        <ele>172.4</ele>
        <time>2023-04-27T13:38:00Z</time>
      </trkpt>
      <trkpt lat="48.69851" lon="1.7353">
        <ele>172.6</ele>
        <time>2023-04-27T13:38:02Z</time>
      </trkpt>
      <trkpt lat="48.69849" lon="1.73533">
        <ele>173</ele>
        <time>2023-04-27T13:38:05Z</time>
      </trkpt>
      <trkpt lat="48.69847" lon="1.73535">
        <ele>173.2</ele>
        <time>2023-04-27T13:38:07Z</time>
      </trkpt>
      <trkpt lat="48.69845" lon="1.73538">
        <ele>173.4</ele>
        <time>2023-04-27T13:38:09Z</time>
      </trkpt>
      <trkpt lat="48.69843" lon="1.7354">
        <ele>173.6</ele>
        <time>2023-04-27T13:38:11Z</time>
      </trkpt>
      <trkpt lat="48.69841" lon="1.73542">
        <ele>173.8</ele>
        <time>2023-04-27T13:38:13Z</time>
      </trkpt>
      <trkpt lat="48.69838" lon="1.73545">
        <ele>174</ele>
        <time>2023-04-27T13:38:15Z</time>
      </trkpt>
      <trkpt lat="48.69836" lon="1.73547">
        <ele>174.4</ele>
        <time>2023-04-27T13:38:17Z</time>
      </trkpt>
      <trkpt lat="48.69834" lon="1.73551">
        <ele>174.6</ele>
        <time>2023-04-27T13:38:19Z</time>
      </trkpt>
      <trkpt lat="48.69831" lon="1.73555">
        <ele>174.8</ele>
        <time>2023-04-27T13:38:21Z</time>
      </trkpt>
      <trkpt lat="48.6983" lon="1.73558">
        <ele>175</ele>
        <time>2023-04-27T13:38:22Z</time>
      </trkpt>
      <trkpt lat="48.69829" lon="1.7356">
        <ele>175</ele>
        <time>2023-04-27T13:38:23Z</time>
      </trkpt>
      <trkpt lat="48.69828" lon="1.73563">
        <ele>175.2</ele>
        <time>2023-04-27T13:38:24Z</time>
      </trkpt>
      <trkpt lat="48.69827" lon="1.73566">
        <ele>175.2</ele>
        <time>2023-04-27T13:38:25Z</time>
      </trkpt>
      <trkpt lat="48.69826" lon="1.73569">
        <ele>175.2</ele>
        <time>2023-04-27T13:38:26Z</time>
      </trkpt>
      <trkpt lat="48.69825" lon="1.73572">
        <ele>175.2</ele>
        <time>2023-04-27T13:38:27Z</time>
      </trkpt>
      <trkpt lat="48.69823" lon="1.73574">
        <ele>175.2</ele>
        <time>2023-04-27T13:38:28Z</time>
      </trkpt>
      <trkpt lat="48.69822" lon="1.73577">
        <ele>175.4</ele>
        <time>2023-04-27T13:38:29Z</time>
      </trkpt>
      <trkpt lat="48.69821" lon="1.7358">
        <ele>175.4</ele>
        <time>2023-04-27T13:38:30Z</time>
      </trkpt>
      <trkpt lat="48.6982" lon="1.73582">
        <ele>175.4</ele>
        <time>2023-04-27T13:38:31Z</time>
      </trkpt>
      <trkpt lat="48.69819" lon="1.73585">
        <ele>175.6</ele>
        <time>2023-04-27T13:38:32Z</time>
      </trkpt>
      <trkpt lat="48.69817" lon="1.73589">
        <ele>175.6</ele>
        <time>2023-04-27T13:38:34Z</time>
      </trkpt>
      <trkpt lat="48.69815" lon="1.73591">
        <ele>175.8</ele>
        <time>2023-04-27T13:38:36Z</time>
      </trkpt>
      <trkpt lat="48.69813" lon="1.73593">
        <ele>175.8</ele>
        <time>2023-04-27T13:38:38Z</time>
      </trkpt>
      <trkpt lat="48.69812" lon="1.73596">
        <ele>175.6</ele>
        <time>2023-04-27T13:38:40Z</time>
      </trkpt>
      <trkpt lat="48.69811" lon="1.736">
        <ele>175.4</ele>
        <time>2023-04-27T13:38:42Z</time>
      </trkpt>
      <trkpt lat="48.69809" lon="1.73603">
        <ele>175.2</ele>
        <time>2023-04-27T13:38:44Z</time>
      </trkpt>
      <trkpt lat="48.69807" lon="1.73606">
        <ele>175</ele>
        <time>2023-04-27T13:38:46Z</time>
      </trkpt>
      <trkpt lat="48.69804" lon="1.73609">
        <ele>175</ele>
        <time>2023-04-27T13:38:48Z</time>
      </trkpt>
      <trkpt lat="48.69802" lon="1.73612">
        <ele>174.8</ele>
        <time>2023-04-27T13:38:50Z</time>
      </trkpt>
      <trkpt lat="48.698" lon="1.73615">
        <ele>174.6</ele>
        <time>2023-04-27T13:38:52Z</time>
      </trkpt>
      <trkpt lat="48.69797" lon="1.73619">
        <ele>174.6</ele>
        <time>2023-04-27T13:38:54Z</time>
      </trkpt>
      <trkpt lat="48.69796" lon="1.73621">
        <ele>174.6</ele>
        <time>2023-04-27T13:38:55Z</time>
      </trkpt>
      <trkpt lat="48.69793" lon="1.73625">
        <ele>174.4</ele>
        <time>2023-04-27T13:38:57Z</time>
      </trkpt>
      <trkpt lat="48.69792" lon="1.73627">
        <ele>174.4</ele>
        <time>2023-04-27T13:38:58Z</time>
      </trkpt>
      <trkpt lat="48.6979" lon="1.73632">
        <ele>174.2</ele>
        <time>2023-04-27T13:39:00Z</time>
      </trkpt>
      <trkpt lat="48.69788" lon="1.73636">
        <ele>174.2</ele>
        <time>2023-04-27T13:39:02Z</time>
      </trkpt>
      <trkpt lat="48.69787" lon="1.7364">
        <ele>174.4</ele>
        <time>2023-04-27T13:39:04Z</time>
      </trkpt>
      <trkpt lat="48.69786" lon="1.73644">
        <ele>174.4</ele>
        <time>2023-04-27T13:39:06Z</time>
      </trkpt>
      <trkpt lat="48.69785" lon="1.73646">
        <ele>174.4</ele>
        <time>2023-04-27T13:39:08Z</time>
      </trkpt>
      <trkpt lat="48.69783" lon="1.73648">
        <ele>174.4</ele>
        <time>2023-04-27T13:39:10Z</time>
      </trkpt>
      <trkpt lat="48.69781" lon="1.73651">
        <ele>174.4</ele>
        <time>2023-04-27T13:39:12Z</time>
      </trkpt>
      <trkpt lat="48.69779" lon="1.73653">
        <ele>174.4</ele>
        <time>2023-04-27T13:39:13Z</time>
      </trkpt>
      <trkpt lat="48.69777" lon="1.73657">
        <ele>174.4</ele>
        <time>2023-04-27T13:39:15Z</time>
      </trkpt>
      <trkpt lat="48.69776" lon="1.73661">
        <ele>174</ele>
        <time>2023-04-27T13:39:17Z</time>
      </trkpt>
      <trkpt lat="48.69775" lon="1.73666">
        <ele>173.8</ele>
        <time>2023-04-27T13:39:19Z</time>
      </trkpt>
      <trkpt lat="48.69773" lon="1.7367">
        <ele>173.4</ele>
        <time>2023-04-27T13:39:21Z</time>
      </trkpt>
      <trkpt lat="48.69772" lon="1.73674">
        <ele>173.2</ele>
        <time>2023-04-27T13:39:23Z</time>
      </trkpt>
      <trkpt lat="48.69771" lon="1.73677">
        <ele>172.8</ele>
        <time>2023-04-27T13:39:25Z</time>
      </trkpt>
      <trkpt lat="48.69769" lon="1.73681">
        <ele>172.6</ele>
        <time>2023-04-27T13:39:27Z</time>
      </trkpt>
      <trkpt lat="48.69767" lon="1.73686">
        <ele>172.4</ele>
        <time>2023-04-27T13:39:29Z</time>
      </trkpt>
      <trkpt lat="48.69765" lon="1.7369">
        <ele>172.2</ele>
        <time>2023-04-27T13:39:31Z</time>
      </trkpt>
      <trkpt lat="48.69764" lon="1.73693">
        <ele>172</ele>
        <time>2023-04-27T13:39:33Z</time>
      </trkpt>
      <trkpt lat="48.69763" lon="1.73695">
        <ele>171.8</ele>
        <time>2023-04-27T13:39:35Z</time>
      </trkpt>
      <trkpt lat="48.69762" lon="1.73698">
        <ele>171.6</ele>
        <time>2023-04-27T13:39:37Z</time>
      </trkpt>
      <trkpt lat="48.6976" lon="1.73701">
        <ele>171.4</ele>
        <time>2023-04-27T13:39:39Z</time>
      </trkpt>
      <trkpt lat="48.69758" lon="1.73705">
        <ele>171.4</ele>
        <time>2023-04-27T13:39:41Z</time>
      </trkpt>
      <trkpt lat="48.69756" lon="1.7371">
        <ele>171.2</ele>
        <time>2023-04-27T13:39:43Z</time>
      </trkpt>
      <trkpt lat="48.69754" lon="1.73713">
        <ele>171</ele>
        <time>2023-04-27T13:39:45Z</time>
      </trkpt>
      <trkpt lat="48.69753" lon="1.73717">
        <ele>171</ele>
        <time>2023-04-27T13:39:47Z</time>
      </trkpt>
      <trkpt lat="48.69751" lon="1.7372">
        <ele>171</ele>
        <time>2023-04-27T13:39:49Z</time>
      </trkpt>
      <trkpt lat="48.69749" lon="1.73724">
        <ele>171</ele>
        <time>2023-04-27T13:39:51Z</time>
      </trkpt>
      <trkpt lat="48.69747" lon="1.73726">
        <ele>170.8</ele>
        <time>2023-04-27T13:39:52Z</time>
      </trkpt>
      <trkpt lat="48.69745" lon="1.73729">
        <ele>170.8</ele>
        <time>2023-04-27T13:39:54Z</time>
      </trkpt>
      <trkpt lat="48.69743" lon="1.73733">
        <ele>171</ele>
        <time>2023-04-27T13:39:56Z</time>
      </trkpt>
      <trkpt lat="48.69743" lon="1.73737">
        <ele>170.8</ele>
        <time>2023-04-27T13:39:58Z</time>
      </trkpt>
      <trkpt lat="48.69741" lon="1.73741">
        <ele>170.8</ele>
        <time>2023-04-27T13:40:00Z</time>
      </trkpt>
      <trkpt lat="48.6974" lon="1.73746">
        <ele>170.8</ele>
        <time>2023-04-27T13:40:02Z</time>
      </trkpt>
      <trkpt lat="48.69738" lon="1.7375">
        <ele>170.6</ele>
        <time>2023-04-27T13:40:04Z</time>
      </trkpt>
      <trkpt lat="48.69735" lon="1.73753">
        <ele>170.6</ele>
        <time>2023-04-27T13:40:06Z</time>
      </trkpt>
      <trkpt lat="48.69734" lon="1.73755">
        <ele>170.6</ele>
        <time>2023-04-27T13:40:07Z</time>
      </trkpt>
      <trkpt lat="48.69732" lon="1.7376">
        <ele>170.6</ele>
        <time>2023-04-27T13:40:09Z</time>
      </trkpt>
      <trkpt lat="48.6973" lon="1.73764">
        <ele>170.6</ele>
        <time>2023-04-27T13:40:11Z</time>
      </trkpt>
      <trkpt lat="48.69729" lon="1.73768">
        <ele>170.6</ele>
        <time>2023-04-27T13:40:13Z</time>
      </trkpt>
      <trkpt lat="48.69727" lon="1.73771">
        <ele>170.6</ele>
        <time>2023-04-27T13:40:15Z</time>
      </trkpt>
      <trkpt lat="48.69725" lon="1.73775">
        <ele>170.6</ele>
        <time>2023-04-27T13:40:17Z</time>
      </trkpt>
      <trkpt lat="48.69724" lon="1.73777">
        <ele>170.6</ele>
        <time>2023-04-27T13:40:18Z</time>
      </trkpt>
      <trkpt lat="48.69722" lon="1.73782">
        <ele>170.6</ele>
        <time>2023-04-27T13:40:20Z</time>
      </trkpt>
      <trkpt lat="48.69721" lon="1.73784">
        <ele>170.6</ele>
        <time>2023-04-27T13:40:21Z</time>
      </trkpt>
      <trkpt lat="48.6972" lon="1.73787">
        <ele>170.6</ele>
        <time>2023-04-27T13:40:22Z</time>
      </trkpt>
      <trkpt lat="48.69719" lon="1.73789">
        <ele>170.6</ele>
        <time>2023-04-27T13:40:23Z</time>
      </trkpt>
      <trkpt lat="48.69717" lon="1.73792">
        <ele>170.6</ele>
        <time>2023-04-27T13:40:24Z</time>
      </trkpt>
      <trkpt lat="48.69716" lon="1.73794">
        <ele>170.4</ele>
        <time>2023-04-27T13:40:25Z</time>
      </trkpt>
      <trkpt lat="48.69715" lon="1.73796">
        <ele>170.4</ele>
        <time>2023-04-27T13:40:26Z</time>
      </trkpt>
      <trkpt lat="48.69713" lon="1.73799">
        <ele>170.4</ele>
        <time>2023-04-27T13:40:28Z</time>
      </trkpt>
      <trkpt lat="48.6971" lon="1.73802">
        <ele>170.2</ele>
        <time>2023-04-27T13:40:30Z</time>
      </trkpt>
      <trkpt lat="48.69708" lon="1.73806">
        <ele>170.2</ele>
        <time>2023-04-27T13:40:32Z</time>
      </trkpt>
      <trkpt lat="48.69706" lon="1.7381">
        <ele>170</ele>
        <time>2023-04-27T13:40:34Z</time>
      </trkpt>
      <trkpt lat="48.69704" lon="1.73814">
        <ele>170</ele>
        <time>2023-04-27T13:40:36Z</time>
      </trkpt>
      <trkpt lat="48.69704" lon="1.73817">
        <ele>170</ele>
        <time>2023-04-27T13:40:38Z</time>
      </trkpt>
      <trkpt lat="48.69703" lon="1.7382">
        <ele>170.2</ele>
        <time>2023-04-27T13:40:40Z</time>
      </trkpt>
      <trkpt lat="48.69702" lon="1.73824">
        <ele>170.2</ele>
        <time>2023-04-27T13:40:42Z</time>
      </trkpt>
      <trkpt lat="48.697" lon="1.73829">
        <ele>170.2</ele>
        <time>2023-04-27T13:40:44Z</time>
      </trkpt>
      <trkpt lat="48.69698" lon="1.73833">
        <ele>170.2</ele>
        <time>2023-04-27T13:40:46Z</time>
      </trkpt>
      <trkpt lat="48.69695" lon="1.73837">
        <ele>170.4</ele>
        <time>2023-04-27T13:40:48Z</time>
      </trkpt>
      <trkpt lat="48.69693" lon="1.73839">
        <ele>170.4</ele>
        <time>2023-04-27T13:40:50Z</time>
      </trkpt>
      <trkpt lat="48.69691" lon="1.73842">
        <ele>170.6</ele>
        <time>2023-04-27T13:40:52Z</time>
      </trkpt>
      <trkpt lat="48.69689" lon="1.73845">
        <ele>171</ele>
        <time>2023-04-27T13:40:54Z</time>
      </trkpt>
      <trkpt lat="48.69688" lon="1.73849">
        <ele>171.2</ele>
        <time>2023-04-27T13:40:56Z</time>
      </trkpt>
      <trkpt lat="48.69686" lon="1.73854">
        <ele>171.6</ele>
        <time>2023-04-27T13:40:58Z</time>
      </trkpt>
      <trkpt lat="48.69685" lon="1.73856">
        <ele>171.6</ele>
        <time>2023-04-27T13:40:59Z</time>
      </trkpt>
      <trkpt lat="48.69684" lon="1.73859">
        <ele>171.8</ele>
        <time>2023-04-27T13:41:00Z</time>
      </trkpt>
      <trkpt lat="48.69684" lon="1.73862">
        <ele>172</ele>
        <time>2023-04-27T13:41:01Z</time>
      </trkpt>
      <trkpt lat="48.69683" lon="1.73864">
        <ele>172</ele>
        <time>2023-04-27T13:41:02Z</time>
      </trkpt>
      <trkpt lat="48.69682" lon="1.73868">
        <ele>172.2</ele>
        <time>2023-04-27T13:41:04Z</time>
      </trkpt>
      <trkpt lat="48.69681" lon="1.73871">
        <ele>172.4</ele>
        <time>2023-04-27T13:41:06Z</time>
      </trkpt>
      <trkpt lat="48.69679" lon="1.73874">
        <ele>172.8</ele>
        <time>2023-04-27T13:41:08Z</time>
      </trkpt>
      <trkpt lat="48.69677" lon="1.73878">
        <ele>173</ele>
        <time>2023-04-27T13:41:10Z</time>
      </trkpt>
      <trkpt lat="48.69676" lon="1.7388">
        <ele>173</ele>
        <time>2023-04-27T13:41:11Z</time>
      </trkpt>
      <trkpt lat="48.69675" lon="1.73882">
        <ele>173</ele>
        <time>2023-04-27T13:41:12Z</time>
      </trkpt>
      <trkpt lat="48.69673" lon="1.73884">
        <ele>173.2</ele>
        <time>2023-04-27T13:41:13Z</time>
      </trkpt>
      <trkpt lat="48.69672" lon="1.73886">
        <ele>173.2</ele>
        <time>2023-04-27T13:41:14Z</time>
      </trkpt>
      <trkpt lat="48.6967" lon="1.73888">
        <ele>173.2</ele>
        <time>2023-04-27T13:41:15Z</time>
      </trkpt>
      <trkpt lat="48.69668" lon="1.73892">
        <ele>173.2</ele>
        <time>2023-04-27T13:41:17Z</time>
      </trkpt>
      <trkpt lat="48.69666" lon="1.73895">
        <ele>173.4</ele>
        <time>2023-04-27T13:41:19Z</time>
      </trkpt>
      <trkpt lat="48.69665" lon="1.73898">
        <ele>173.4</ele>
        <time>2023-04-27T13:41:21Z</time>
      </trkpt>
      <trkpt lat="48.69663" lon="1.73901">
        <ele>173.8</ele>
        <time>2023-04-27T13:41:23Z</time>
      </trkpt>
      <trkpt lat="48.69661" lon="1.73904">
        <ele>174</ele>
        <time>2023-04-27T13:41:25Z</time>
      </trkpt>
      <trkpt lat="48.69658" lon="1.73907">
        <ele>174.2</ele>
        <time>2023-04-27T13:41:27Z</time>
      </trkpt>
      <trkpt lat="48.69656" lon="1.73909">
        <ele>174.2</ele>
        <time>2023-04-27T13:41:29Z</time>
      </trkpt>
      <trkpt lat="48.69654" lon="1.73912">
        <ele>174.2</ele>
        <time>2023-04-27T13:41:31Z</time>
      </trkpt>
      <trkpt lat="48.69652" lon="1.73915">
        <ele>174.2</ele>
        <time>2023-04-27T13:41:33Z</time>
      </trkpt>
      <trkpt lat="48.69651" lon="1.73918">
        <ele>174.2</ele>
        <time>2023-04-27T13:41:35Z</time>
      </trkpt>
      <trkpt lat="48.6965" lon="1.73921">
        <ele>174.2</ele>
        <time>2023-04-27T13:41:37Z</time>
      </trkpt>
      <trkpt lat="48.69649" lon="1.73924">
        <ele>174.2</ele>
        <time>2023-04-27T13:41:39Z</time>
      </trkpt>
      <trkpt lat="48.69647" lon="1.73928">
        <ele>174</ele>
        <time>2023-04-27T13:41:41Z</time>
      </trkpt>
      <trkpt lat="48.69645" lon="1.73932">
        <ele>173.8</ele>
        <time>2023-04-27T13:41:43Z</time>
      </trkpt>
      <trkpt lat="48.69644" lon="1.73934">
        <ele>173.6</ele>
        <time>2023-04-27T13:41:44Z</time>
      </trkpt>
      <trkpt lat="48.69643" lon="1.73937">
        <ele>173.6</ele>
        <time>2023-04-27T13:41:45Z</time>
      </trkpt>
      <trkpt lat="48.69642" lon="1.7394">
        <ele>173.6</ele>
        <time>2023-04-27T13:41:46Z</time>
      </trkpt>
      <trkpt lat="48.6964" lon="1.73943">
        <ele>173.4</ele>
        <time>2023-04-27T13:41:47Z</time>
      </trkpt>
      <trkpt lat="48.69639" lon="1.73946">
        <ele>173.4</ele>
        <time>2023-04-27T13:41:48Z</time>
      </trkpt>
      <trkpt lat="48.69638" lon="1.73948">
        <ele>173.4</ele>
        <time>2023-04-27T13:41:49Z</time>
      </trkpt>
      <trkpt lat="48.69636" lon="1.73952">
        <ele>173.2</ele>
        <time>2023-04-27T13:41:51Z</time>
      </trkpt>
      <trkpt lat="48.69635" lon="1.73954">
        <ele>173.2</ele>
        <time>2023-04-27T13:41:52Z</time>
      </trkpt>
      <trkpt lat="48.69633" lon="1.73959">
        <ele>173</ele>
        <time>2023-04-27T13:41:54Z</time>
      </trkpt>
      <trkpt lat="48.69632" lon="1.73963">
        <ele>173</ele>
        <time>2023-04-27T13:41:56Z</time>
      </trkpt>
      <trkpt lat="48.6963" lon="1.73966">
        <ele>172.8</ele>
        <time>2023-04-27T13:41:58Z</time>
      </trkpt>
      <trkpt lat="48.69628" lon="1.7397">
        <ele>172.8</ele>
        <time>2023-04-27T13:42:00Z</time>
      </trkpt>
      <trkpt lat="48.69628" lon="1.73973">
        <ele>172.8</ele>
        <time>2023-04-27T13:42:02Z</time>
      </trkpt>
      <trkpt lat="48.69626" lon="1.73976">
        <ele>172.8</ele>
        <time>2023-04-27T13:42:04Z</time>
      </trkpt>
      <trkpt lat="48.69624" lon="1.73979">
        <ele>172.8</ele>
        <time>2023-04-27T13:42:06Z</time>
      </trkpt>
      <trkpt lat="48.69623" lon="1.73981">
        <ele>172.8</ele>
        <time>2023-04-27T13:42:07Z</time>
      </trkpt>
      <trkpt lat="48.69622" lon="1.73987">
        <ele>173</ele>
        <time>2023-04-27T13:42:09Z</time>
      </trkpt>
      <trkpt lat="48.6962" lon="1.73989">
        <ele>173</ele>
        <time>2023-04-27T13:42:10Z</time>
      </trkpt>
      <trkpt lat="48.6962" lon="1.73992">
        <ele>173</ele>
        <time>2023-04-27T13:42:11Z</time>
      </trkpt>
      <trkpt lat="48.69619" lon="1.73995">
        <ele>173</ele>
        <time>2023-04-27T13:42:12Z</time>
      </trkpt>
      <trkpt lat="48.69616" lon="1.73998">
        <ele>173.2</ele>
        <time>2023-04-27T13:42:14Z</time>
      </trkpt>
      <trkpt lat="48.69615" lon="1.73999">
        <ele>173.2</ele>
        <time>2023-04-27T13:42:15Z</time>
      </trkpt>
      <trkpt lat="48.69613" lon="1.74002">
        <ele>173</ele>
        <time>2023-04-27T13:42:17Z</time>
      </trkpt>
      <trkpt lat="48.69611" lon="1.74005">
        <ele>173.2</ele>
        <time>2023-04-27T13:42:19Z</time>
      </trkpt>
      <trkpt lat="48.6961" lon="1.74008">
        <ele>173.2</ele>
        <time>2023-04-27T13:42:21Z</time>
      </trkpt>
      <trkpt lat="48.69608" lon="1.74012">
        <ele>173.4</ele>
        <time>2023-04-27T13:42:23Z</time>
      </trkpt>
      <trkpt lat="48.69607" lon="1.74015">
        <ele>173.6</ele>
        <time>2023-04-27T13:42:25Z</time>
      </trkpt>
      <trkpt lat="48.69605" lon="1.74018">
        <ele>173.8</ele>
        <time>2023-04-27T13:42:27Z</time>
      </trkpt>
      <trkpt lat="48.69603" lon="1.7402">
        <ele>174.2</ele>
        <time>2023-04-27T13:42:29Z</time>
      </trkpt>
      <trkpt lat="48.69602" lon="1.74023">
        <ele>174.4</ele>
        <time>2023-04-27T13:42:31Z</time>
      </trkpt>
      <trkpt lat="48.696" lon="1.74026">
        <ele>174.8</ele>
        <time>2023-04-27T13:42:33Z</time>
      </trkpt>
      <trkpt lat="48.69598" lon="1.74029">
        <ele>175</ele>
        <time>2023-04-27T13:42:35Z</time>
      </trkpt>
      <trkpt lat="48.69597" lon="1.74033">
        <ele>175.4</ele>
        <time>2023-04-27T13:42:37Z</time>
      </trkpt>
      <trkpt lat="48.69595" lon="1.74036">
        <ele>175.6</ele>
        <time>2023-04-27T13:42:39Z</time>
      </trkpt>
      <trkpt lat="48.69593" lon="1.74039">
        <ele>175.6</ele>
        <time>2023-04-27T13:42:41Z</time>
      </trkpt>
      <trkpt lat="48.69592" lon="1.74042">
        <ele>175.4</ele>
        <time>2023-04-27T13:42:43Z</time>
      </trkpt>
      <trkpt lat="48.6959" lon="1.74045">
        <ele>175.2</ele>
        <time>2023-04-27T13:42:45Z</time>
      </trkpt>
      <trkpt lat="48.69588" lon="1.74049">
        <ele>175</ele>
        <time>2023-04-27T13:42:47Z</time>
      </trkpt>
      <trkpt lat="48.69587" lon="1.74053">
        <ele>175</ele>
        <time>2023-04-27T13:42:49Z</time>
      </trkpt>
      <trkpt lat="48.69585" lon="1.74057">
        <ele>175</ele>
        <time>2023-04-27T13:42:51Z</time>
      </trkpt>
      <trkpt lat="48.69584" lon="1.7406">
        <ele>175</ele>
        <time>2023-04-27T13:42:53Z</time>
      </trkpt>
      <trkpt lat="48.69583" lon="1.74063">
        <ele>174.8</ele>
        <time>2023-04-27T13:42:55Z</time>
      </trkpt>
      <trkpt lat="48.69581" lon="1.74066">
        <ele>174.8</ele>
        <time>2023-04-27T13:42:57Z</time>
      </trkpt>
      <trkpt lat="48.69579" lon="1.74068">
        <ele>174.8</ele>
        <time>2023-04-27T13:42:59Z</time>
      </trkpt>
      <trkpt lat="48.69577" lon="1.7407">
        <ele>174.8</ele>
        <time>2023-04-27T13:43:01Z</time>
      </trkpt>
      <trkpt lat="48.69575" lon="1.74072">
        <ele>174.8</ele>
        <time>2023-04-27T13:43:03Z</time>
      </trkpt>
      <trkpt lat="48.69573" lon="1.74073">
        <ele>175.2</ele>
        <time>2023-04-27T13:43:07Z</time>
      </trkpt>
      <trkpt lat="48.6957" lon="1.74073">
        <ele>177</ele>
        <time>2023-04-27T13:43:54Z</time>
      </trkpt>
      <trkpt lat="48.69569" lon="1.74075">
        <ele>177</ele>
        <time>2023-04-27T13:43:58Z</time>
      </trkpt>
      <trkpt lat="48.69567" lon="1.74079">
        <ele>176.8</ele>
        <time>2023-04-27T13:44:00Z</time>
      </trkpt>
      <trkpt lat="48.69566" lon="1.74082">
        <ele>176.8</ele>
        <time>2023-04-27T13:44:01Z</time>
      </trkpt>
      <trkpt lat="48.69564" lon="1.74084">
        <ele>176.6</ele>
        <time>2023-04-27T13:44:02Z</time>
      </trkpt>
      <trkpt lat="48.69563" lon="1.74087">
        <ele>176.6</ele>
        <time>2023-04-27T13:44:03Z</time>
      </trkpt>
      <trkpt lat="48.69562" lon="1.7409">
        <ele>176.6</ele>
        <time>2023-04-27T13:44:04Z</time>
      </trkpt>
      <trkpt lat="48.69561" lon="1.74092">
        <ele>176.4</ele>
        <time>2023-04-27T13:44:05Z</time>
      </trkpt>
      <trkpt lat="48.69559" lon="1.74096">
        <ele>176.2</ele>
        <time>2023-04-27T13:44:07Z</time>
      </trkpt>
      <trkpt lat="48.69558" lon="1.74099">
        <ele>176</ele>
        <time>2023-04-27T13:44:09Z</time>
      </trkpt>
      <trkpt lat="48.69557" lon="1.74103">
        <ele>175.8</ele>
        <time>2023-04-27T13:44:11Z</time>
      </trkpt>
      <trkpt lat="48.69556" lon="1.74107">
        <ele>175.6</ele>
        <time>2023-04-27T13:44:13Z</time>
      </trkpt>
      <trkpt lat="48.69555" lon="1.7411">
        <ele>175.4</ele>
        <time>2023-04-27T13:44:15Z</time>
      </trkpt>
      <trkpt lat="48.69553" lon="1.74113">
        <ele>175.2</ele>
        <time>2023-04-27T13:44:17Z</time>
      </trkpt>
      <trkpt lat="48.69552" lon="1.74116">
        <ele>175.2</ele>
        <time>2023-04-27T13:44:19Z</time>
      </trkpt>
      <trkpt lat="48.6955" lon="1.7412">
        <ele>175</ele>
        <time>2023-04-27T13:44:21Z</time>
      </trkpt>
      <trkpt lat="48.69548" lon="1.74124">
        <ele>174.8</ele>
        <time>2023-04-27T13:44:23Z</time>
      </trkpt>
      <trkpt lat="48.69547" lon="1.74126">
        <ele>174.6</ele>
        <time>2023-04-27T13:44:24Z</time>
      </trkpt>
      <trkpt lat="48.69545" lon="1.7413">
        <ele>174.4</ele>
        <time>2023-04-27T13:44:26Z</time>
      </trkpt>
      <trkpt lat="48.69544" lon="1.74135">
        <ele>174.2</ele>
        <time>2023-04-27T13:44:28Z</time>
      </trkpt>
      <trkpt lat="48.69542" lon="1.74139">
        <ele>174.2</ele>
        <time>2023-04-27T13:44:30Z</time>
      </trkpt>
      <trkpt lat="48.6954" lon="1.74142">
        <ele>174</ele>
        <time>2023-04-27T13:44:32Z</time>
      </trkpt>
      <trkpt lat="48.69539" lon="1.74145">
        <ele>173.6</ele>
        <time>2023-04-27T13:44:34Z</time>
      </trkpt>
      <trkpt lat="48.69537" lon="1.74148">
        <ele>173.4</ele>
        <time>2023-04-27T13:44:36Z</time>
      </trkpt>
      <trkpt lat="48.69535" lon="1.74151">
        <ele>173</ele>
        <time>2023-04-27T13:44:38Z</time>
      </trkpt>
      <trkpt lat="48.69534" lon="1.74154">
        <ele>172.8</ele>
        <time>2023-04-27T13:44:40Z</time>
      </trkpt>
      <trkpt lat="48.69533" lon="1.74157">
        <ele>172.6</ele>
        <time>2023-04-27T13:44:42Z</time>
      </trkpt>
      <trkpt lat="48.69532" lon="1.7416">
        <ele>172.2</ele>
        <time>2023-04-27T13:44:44Z</time>
      </trkpt>
      <trkpt lat="48.69531" lon="1.74164">
        <ele>172</ele>
        <time>2023-04-27T13:44:46Z</time>
      </trkpt>
      <trkpt lat="48.6953" lon="1.74168">
        <ele>171.8</ele>
        <time>2023-04-27T13:44:48Z</time>
      </trkpt>
      <trkpt lat="48.69529" lon="1.74173">
        <ele>171.8</ele>
        <time>2023-04-27T13:44:50Z</time>
      </trkpt>
      <trkpt lat="48.69528" lon="1.74178">
        <ele>171.6</ele>
        <time>2023-04-27T13:44:52Z</time>
      </trkpt>
      <trkpt lat="48.69526" lon="1.74182">
        <ele>171.6</ele>
        <time>2023-04-27T13:44:54Z</time>
      </trkpt>
      <trkpt lat="48.69525" lon="1.74185">
        <ele>171.4</ele>
        <time>2023-04-27T13:44:55Z</time>
      </trkpt>
      <trkpt lat="48.69524" lon="1.74187">
        <ele>171.4</ele>
        <time>2023-04-27T13:44:56Z</time>
      </trkpt>
      <trkpt lat="48.69523" lon="1.7419">
        <ele>171.4</ele>
        <time>2023-04-27T13:44:57Z</time>
      </trkpt>
      <trkpt lat="48.69522" lon="1.74192">
        <ele>171.4</ele>
        <time>2023-04-27T13:44:58Z</time>
      </trkpt>
      <trkpt lat="48.69521" lon="1.74195">
        <ele>171.2</ele>
        <time>2023-04-27T13:44:59Z</time>
      </trkpt>
      <trkpt lat="48.69519" lon="1.74197">
        <ele>171.2</ele>
        <time>2023-04-27T13:45:00Z</time>
      </trkpt>
      <trkpt lat="48.69517" lon="1.74201">
        <ele>171</ele>
        <time>2023-04-27T13:45:02Z</time>
      </trkpt>
      <trkpt lat="48.69515" lon="1.74204">
        <ele>170.8</ele>
        <time>2023-04-27T13:45:04Z</time>
      </trkpt>
      <trkpt lat="48.69513" lon="1.74207">
        <ele>170.6</ele>
        <time>2023-04-27T13:45:06Z</time>
      </trkpt>
      <trkpt lat="48.69511" lon="1.74209">
        <ele>170.4</ele>
        <time>2023-04-27T13:45:08Z</time>
      </trkpt>
      <trkpt lat="48.69509" lon="1.7421">
        <ele>170</ele>
        <time>2023-04-27T13:45:10Z</time>
      </trkpt>
      <trkpt lat="48.69507" lon="1.74213">
        <ele>169.8</ele>
        <time>2023-04-27T13:45:12Z</time>
      </trkpt>
      <trkpt lat="48.69505" lon="1.74217">
        <ele>169.4</ele>
        <time>2023-04-27T13:45:14Z</time>
      </trkpt>
      <trkpt lat="48.69504" lon="1.74221">
        <ele>169.4</ele>
        <time>2023-04-27T13:45:16Z</time>
      </trkpt>
      <trkpt lat="48.69503" lon="1.74224">
        <ele>169.2</ele>
        <time>2023-04-27T13:45:18Z</time>
      </trkpt>
      <trkpt lat="48.69502" lon="1.74228">
        <ele>169</ele>
        <time>2023-04-27T13:45:20Z</time>
      </trkpt>
      <trkpt lat="48.69501" lon="1.74231">
        <ele>168.8</ele>
        <time>2023-04-27T13:45:22Z</time>
      </trkpt>
      <trkpt lat="48.69499" lon="1.74235">
        <ele>168.6</ele>
        <time>2023-04-27T13:45:24Z</time>
      </trkpt>
      <trkpt lat="48.69497" lon="1.74237">
        <ele>168.6</ele>
        <time>2023-04-27T13:45:26Z</time>
      </trkpt>
      <trkpt lat="48.69495" lon="1.7424">
        <ele>168.4</ele>
        <time>2023-04-27T13:45:28Z</time>
      </trkpt>
      <trkpt lat="48.69493" lon="1.74242">
        <ele>168.4</ele>
        <time>2023-04-27T13:45:30Z</time>
      </trkpt>
      <trkpt lat="48.69492" lon="1.74245">
        <ele>168.4</ele>
        <time>2023-04-27T13:45:32Z</time>
      </trkpt>
      <trkpt lat="48.6949" lon="1.74248">
        <ele>168.4</ele>
        <time>2023-04-27T13:45:34Z</time>
      </trkpt>
      <trkpt lat="48.69489" lon="1.74251">
        <ele>168.4</ele>
        <time>2023-04-27T13:45:36Z</time>
      </trkpt>
      <trkpt lat="48.69487" lon="1.74256">
        <ele>168.6</ele>
        <time>2023-04-27T13:45:38Z</time>
      </trkpt>
      <trkpt lat="48.69485" lon="1.7426">
        <ele>168.6</ele>
        <time>2023-04-27T13:45:40Z</time>
      </trkpt>
      <trkpt lat="48.69484" lon="1.74262">
        <ele>168.8</ele>
        <time>2023-04-27T13:45:41Z</time>
      </trkpt>
      <trkpt lat="48.69482" lon="1.74264">
        <ele>168.8</ele>
        <time>2023-04-27T13:45:42Z</time>
      </trkpt>
      <trkpt lat="48.6948" lon="1.74269">
        <ele>168.8</ele>
        <time>2023-04-27T13:45:44Z</time>
      </trkpt>
      <trkpt lat="48.69478" lon="1.74272">
        <ele>169</ele>
        <time>2023-04-27T13:45:46Z</time>
      </trkpt>
      <trkpt lat="48.69476" lon="1.74275">
        <ele>169</ele>
        <time>2023-04-27T13:45:48Z</time>
      </trkpt>
      <trkpt lat="48.69473" lon="1.74277">
        <ele>169</ele>
        <time>2023-04-27T13:45:50Z</time>
      </trkpt>
      <trkpt lat="48.69471" lon="1.74279">
        <ele>169</ele>
        <time>2023-04-27T13:45:52Z</time>
      </trkpt>
      <trkpt lat="48.69469" lon="1.74282">
        <ele>169</ele>
        <time>2023-04-27T13:45:54Z</time>
      </trkpt>
      <trkpt lat="48.69468" lon="1.74285">
        <ele>169</ele>
        <time>2023-04-27T13:45:56Z</time>
      </trkpt>
      <trkpt lat="48.69467" lon="1.74289">
        <ele>168.8</ele>
        <time>2023-04-27T13:45:58Z</time>
      </trkpt>
      <trkpt lat="48.69466" lon="1.74291">
        <ele>168.8</ele>
        <time>2023-04-27T13:45:59Z</time>
      </trkpt>
      <trkpt lat="48.69463" lon="1.74295">
        <ele>168.6</ele>
        <time>2023-04-27T13:46:01Z</time>
      </trkpt>
      <trkpt lat="48.69462" lon="1.74296">
        <ele>168.6</ele>
        <time>2023-04-27T13:46:02Z</time>
      </trkpt>
      <trkpt lat="48.6946" lon="1.743">
        <ele>168.2</ele>
        <time>2023-04-27T13:46:04Z</time>
      </trkpt>
      <trkpt lat="48.69458" lon="1.74303">
        <ele>168</ele>
        <time>2023-04-27T13:46:06Z</time>
      </trkpt>
      <trkpt lat="48.69456" lon="1.74307">
        <ele>167.8</ele>
        <time>2023-04-27T13:46:08Z</time>
      </trkpt>
      <trkpt lat="48.69454" lon="1.74311">
        <ele>167.4</ele>
        <time>2023-04-27T13:46:10Z</time>
      </trkpt>
      <trkpt lat="48.69453" lon="1.74314">
        <ele>167.2</ele>
        <time>2023-04-27T13:46:12Z</time>
      </trkpt>
      <trkpt lat="48.69451" lon="1.74317">
        <ele>167</ele>
        <time>2023-04-27T13:46:14Z</time>
      </trkpt>
      <trkpt lat="48.69449" lon="1.74319">
        <ele>166.6</ele>
        <time>2023-04-27T13:46:16Z</time>
      </trkpt>
      <trkpt lat="48.69447" lon="1.74322">
        <ele>166.4</ele>
        <time>2023-04-27T13:46:18Z</time>
      </trkpt>
      <trkpt lat="48.69445" lon="1.74325">
        <ele>166.2</ele>
        <time>2023-04-27T13:46:20Z</time>
      </trkpt>
      <trkpt lat="48.69444" lon="1.74329">
        <ele>166</ele>
        <time>2023-04-27T13:46:22Z</time>
      </trkpt>
      <trkpt lat="48.69443" lon="1.74333">
        <ele>165.8</ele>
        <time>2023-04-27T13:46:24Z</time>
      </trkpt>
      <trkpt lat="48.69442" lon="1.74336">
        <ele>165.8</ele>
        <time>2023-04-27T13:46:26Z</time>
      </trkpt>
      <trkpt lat="48.69441" lon="1.7434">
        <ele>165.8</ele>
        <time>2023-04-27T13:46:29Z</time>
      </trkpt>
      <trkpt lat="48.6944" lon="1.74343">
        <ele>166</ele>
        <time>2023-04-27T13:46:31Z</time>
      </trkpt>
      <trkpt lat="48.69438" lon="1.74346">
        <ele>166</ele>
        <time>2023-04-27T13:46:33Z</time>
      </trkpt>
      <trkpt lat="48.69437" lon="1.7435">
        <ele>166</ele>
        <time>2023-04-27T13:46:35Z</time>
      </trkpt>
      <trkpt lat="48.69436" lon="1.74354">
        <ele>166.2</ele>
        <time>2023-04-27T13:46:37Z</time>
      </trkpt>
      <trkpt lat="48.69434" lon="1.74358">
        <ele>166.4</ele>
        <time>2023-04-27T13:46:39Z</time>
      </trkpt>
      <trkpt lat="48.69433" lon="1.74361">
        <ele>166.6</ele>
        <time>2023-04-27T13:46:41Z</time>
      </trkpt>
      <trkpt lat="48.69431" lon="1.74365">
        <ele>166.8</ele>
        <time>2023-04-27T13:46:43Z</time>
      </trkpt>
      <trkpt lat="48.69429" lon="1.74369">
        <ele>167</ele>
        <time>2023-04-27T13:46:45Z</time>
      </trkpt>
      <trkpt lat="48.69427" lon="1.74373">
        <ele>167</ele>
        <time>2023-04-27T13:46:47Z</time>
      </trkpt>
      <trkpt lat="48.69425" lon="1.74377">
        <ele>167.2</ele>
        <time>2023-04-27T13:46:49Z</time>
      </trkpt>
      <trkpt lat="48.69424" lon="1.7438">
        <ele>167.2</ele>
        <time>2023-04-27T13:46:50Z</time>
      </trkpt>
      <trkpt lat="48.69423" lon="1.74382">
        <ele>167.2</ele>
        <time>2023-04-27T13:46:51Z</time>
      </trkpt>
      <trkpt lat="48.69422" lon="1.74385">
        <ele>167.4</ele>
        <time>2023-04-27T13:46:52Z</time>
      </trkpt>
      <trkpt lat="48.6942" lon="1.74389">
        <ele>167.4</ele>
        <time>2023-04-27T13:46:54Z</time>
      </trkpt>
      <trkpt lat="48.69418" lon="1.74392">
        <ele>167.6</ele>
        <time>2023-04-27T13:46:56Z</time>
      </trkpt>
      <trkpt lat="48.69415" lon="1.74396">
        <ele>167.6</ele>
        <time>2023-04-27T13:46:58Z</time>
      </trkpt>
      <trkpt lat="48.69413" lon="1.74399">
        <ele>167.8</ele>
        <time>2023-04-27T13:47:00Z</time>
      </trkpt>
      <trkpt lat="48.69411" lon="1.74401">
        <ele>168</ele>
        <time>2023-04-27T13:47:02Z</time>
      </trkpt>
      <trkpt lat="48.69409" lon="1.74404">
        <ele>168</ele>
        <time>2023-04-27T13:47:04Z</time>
      </trkpt>
      <trkpt lat="48.69407" lon="1.74408">
        <ele>167.8</ele>
        <time>2023-04-27T13:47:06Z</time>
      </trkpt>
      <trkpt lat="48.69406" lon="1.7441">
        <ele>167.8</ele>
        <time>2023-04-27T13:47:07Z</time>
      </trkpt>
      <trkpt lat="48.69404" lon="1.74414">
        <ele>167.8</ele>
        <time>2023-04-27T13:47:09Z</time>
      </trkpt>
      <trkpt lat="48.69402" lon="1.74417">
        <ele>167.8</ele>
        <time>2023-04-27T13:47:11Z</time>
      </trkpt>
      <trkpt lat="48.69399" lon="1.74421">
        <ele>167.8</ele>
        <time>2023-04-27T13:47:13Z</time>
      </trkpt>
      <trkpt lat="48.69397" lon="1.74424">
        <ele>168</ele>
        <time>2023-04-27T13:47:15Z</time>
      </trkpt>
      <trkpt lat="48.69396" lon="1.74427">
        <ele>168</ele>
        <time>2023-04-27T13:47:17Z</time>
      </trkpt>
      <trkpt lat="48.69395" lon="1.7443">
        <ele>168</ele>
        <time>2023-04-27T13:47:19Z</time>
      </trkpt>
      <trkpt lat="48.69394" lon="1.74434">
        <ele>168</ele>
        <time>2023-04-27T13:47:21Z</time>
      </trkpt>
      <trkpt lat="48.69392" lon="1.74436">
        <ele>168.2</ele>
        <time>2023-04-27T13:47:22Z</time>
      </trkpt>
      <trkpt lat="48.6939" lon="1.7444">
        <ele>168.2</ele>
        <time>2023-04-27T13:47:24Z</time>
      </trkpt>
      <trkpt lat="48.69388" lon="1.74443">
        <ele>168.2</ele>
        <time>2023-04-27T13:47:26Z</time>
      </trkpt>
      <trkpt lat="48.69386" lon="1.74445">
        <ele>168.4</ele>
        <time>2023-04-27T13:47:28Z</time>
      </trkpt>
      <trkpt lat="48.69384" lon="1.74448">
        <ele>168.2</ele>
        <time>2023-04-27T13:47:30Z</time>
      </trkpt>
      <trkpt lat="48.69382" lon="1.74452">
        <ele>168.2</ele>
        <time>2023-04-27T13:47:32Z</time>
      </trkpt>
      <trkpt lat="48.6938" lon="1.74456">
        <ele>168</ele>
        <time>2023-04-27T13:47:34Z</time>
      </trkpt>
      <trkpt lat="48.69378" lon="1.74459">
        <ele>168</ele>
        <time>2023-04-27T13:47:36Z</time>
      </trkpt>
      <trkpt lat="48.69377" lon="1.74463">
        <ele>167.8</ele>
        <time>2023-04-27T13:47:38Z</time>
      </trkpt>
      <trkpt lat="48.69376" lon="1.74467">
        <ele>167.6</ele>
        <time>2023-04-27T13:47:40Z</time>
      </trkpt>
      <trkpt lat="48.69374" lon="1.74471">
        <ele>167.4</ele>
        <time>2023-04-27T13:47:42Z</time>
      </trkpt>
      <trkpt lat="48.69373" lon="1.74476">
        <ele>167.4</ele>
        <time>2023-04-27T13:47:44Z</time>
      </trkpt>
      <trkpt lat="48.69371" lon="1.7448">
        <ele>167.2</ele>
        <time>2023-04-27T13:47:46Z</time>
      </trkpt>
      <trkpt lat="48.69369" lon="1.74484">
        <ele>167</ele>
        <time>2023-04-27T13:47:48Z</time>
      </trkpt>
      <trkpt lat="48.69367" lon="1.74488">
        <ele>166.8</ele>
        <time>2023-04-27T13:47:50Z</time>
      </trkpt>
      <trkpt lat="48.69365" lon="1.74491">
        <ele>166.8</ele>
        <time>2023-04-27T13:47:52Z</time>
      </trkpt>
      <trkpt lat="48.69364" lon="1.74494">
        <ele>166.8</ele>
        <time>2023-04-27T13:47:54Z</time>
      </trkpt>
      <trkpt lat="48.69362" lon="1.74498">
        <ele>166.8</ele>
        <time>2023-04-27T13:47:56Z</time>
      </trkpt>
      <trkpt lat="48.6936" lon="1.74501">
        <ele>166.6</ele>
        <time>2023-04-27T13:47:58Z</time>
      </trkpt>
      <trkpt lat="48.69359" lon="1.74506">
        <ele>166.6</ele>
        <time>2023-04-27T13:48:00Z</time>
      </trkpt>
      <trkpt lat="48.69357" lon="1.74511">
        <ele>166.6</ele>
        <time>2023-04-27T13:48:02Z</time>
      </trkpt>
      <trkpt lat="48.69356" lon="1.74513">
        <ele>166.6</ele>
        <time>2023-04-27T13:48:03Z</time>
      </trkpt>
      <trkpt lat="48.69356" lon="1.74516">
        <ele>166.6</ele>
        <time>2023-04-27T13:48:04Z</time>
      </trkpt>
      <trkpt lat="48.69355" lon="1.74518">
        <ele>166.6</ele>
        <time>2023-04-27T13:48:05Z</time>
      </trkpt>
      <trkpt lat="48.69354" lon="1.74521">
        <ele>166.4</ele>
        <time>2023-04-27T13:48:06Z</time>
      </trkpt>
      <trkpt lat="48.69353" lon="1.74523">
        <ele>166.4</ele>
        <time>2023-04-27T13:48:07Z</time>
      </trkpt>
      <trkpt lat="48.69351" lon="1.74528">
        <ele>166.4</ele>
        <time>2023-04-27T13:48:09Z</time>
      </trkpt>
      <trkpt lat="48.69349" lon="1.74531">
        <ele>166.4</ele>
        <time>2023-04-27T13:48:11Z</time>
      </trkpt>
      <trkpt lat="48.69348" lon="1.74534">
        <ele>166.2</ele>
        <time>2023-04-27T13:48:13Z</time>
      </trkpt>
      <trkpt lat="48.69346" lon="1.74537">
        <ele>166</ele>
        <time>2023-04-27T13:48:15Z</time>
      </trkpt>
      <trkpt lat="48.69343" lon="1.74541">
        <ele>165.8</ele>
        <time>2023-04-27T13:48:17Z</time>
      </trkpt>
      <trkpt lat="48.69341" lon="1.74544">
        <ele>165.6</ele>
        <time>2023-04-27T13:48:19Z</time>
      </trkpt>
      <trkpt lat="48.69339" lon="1.74548">
        <ele>165.4</ele>
        <time>2023-04-27T13:48:21Z</time>
      </trkpt>
      <trkpt lat="48.69338" lon="1.74551">
        <ele>165.2</ele>
        <time>2023-04-27T13:48:23Z</time>
      </trkpt>
      <trkpt lat="48.69336" lon="1.74553">
        <ele>165.2</ele>
        <time>2023-04-27T13:48:25Z</time>
      </trkpt>
      <trkpt lat="48.69333" lon="1.74555">
        <ele>165</ele>
        <time>2023-04-27T13:48:27Z</time>
      </trkpt>
      <trkpt lat="48.69331" lon="1.74558">
        <ele>164.8</ele>
        <time>2023-04-27T13:48:29Z</time>
      </trkpt>
      <trkpt lat="48.69329" lon="1.74562">
        <ele>164.6</ele>
        <time>2023-04-27T13:48:31Z</time>
      </trkpt>
      <trkpt lat="48.69327" lon="1.74565">
        <ele>164.4</ele>
        <time>2023-04-27T13:48:33Z</time>
      </trkpt>
      <trkpt lat="48.69326" lon="1.74569">
        <ele>164.4</ele>
        <time>2023-04-27T13:48:35Z</time>
      </trkpt>
      <trkpt lat="48.69324" lon="1.74571">
        <ele>164.2</ele>
        <time>2023-04-27T13:48:36Z</time>
      </trkpt>
      <trkpt lat="48.69323" lon="1.74575">
        <ele>164.2</ele>
        <time>2023-04-27T13:48:38Z</time>
      </trkpt>
      <trkpt lat="48.69322" lon="1.74578">
        <ele>164</ele>
        <time>2023-04-27T13:48:40Z</time>
      </trkpt>
      <trkpt lat="48.69321" lon="1.74581">
        <ele>164</ele>
        <time>2023-04-27T13:48:42Z</time>
      </trkpt>
      <trkpt lat="48.6932" lon="1.74584">
        <ele>163.8</ele>
        <time>2023-04-27T13:48:44Z</time>
      </trkpt>
      <trkpt lat="48.6932" lon="1.74588">
        <ele>163.8</ele>
        <time>2023-04-27T13:48:46Z</time>
      </trkpt>
      <trkpt lat="48.6932" lon="1.74593">
        <ele>163.6</ele>
        <time>2023-04-27T13:48:48Z</time>
      </trkpt>
      <trkpt lat="48.69321" lon="1.74597">
        <ele>163.6</ele>
        <time>2023-04-27T13:48:50Z</time>
      </trkpt>
      <trkpt lat="48.69323" lon="1.74601">
        <ele>163.4</ele>
        <time>2023-04-27T13:48:52Z</time>
      </trkpt>
      <trkpt lat="48.69324" lon="1.74605">
        <ele>163.4</ele>
        <time>2023-04-27T13:48:54Z</time>
      </trkpt>
      <trkpt lat="48.69326" lon="1.7461">
        <ele>163.4</ele>
        <time>2023-04-27T13:48:56Z</time>
      </trkpt>
      <trkpt lat="48.69327" lon="1.74613">
        <ele>163.4</ele>
        <time>2023-04-27T13:48:57Z</time>
      </trkpt>
      <trkpt lat="48.69328" lon="1.74616">
        <ele>163.4</ele>
        <time>2023-04-27T13:48:58Z</time>
      </trkpt>
      <trkpt lat="48.6933" lon="1.7462">
        <ele>163.4</ele>
        <time>2023-04-27T13:49:00Z</time>
      </trkpt>
      <trkpt lat="48.69331" lon="1.74624">
        <ele>163.4</ele>
        <time>2023-04-27T13:49:02Z</time>
      </trkpt>
      <trkpt lat="48.69332" lon="1.74628">
        <ele>163.4</ele>
        <time>2023-04-27T13:49:04Z</time>
      </trkpt>
      <trkpt lat="48.69334" lon="1.74632">
        <ele>163.4</ele>
        <time>2023-04-27T13:49:06Z</time>
      </trkpt>
      <trkpt lat="48.69334" lon="1.74636">
        <ele>163.4</ele>
        <time>2023-04-27T13:49:08Z</time>
      </trkpt>
      <trkpt lat="48.69335" lon="1.7464">
        <ele>163.6</ele>
        <time>2023-04-27T13:49:10Z</time>
      </trkpt>
      <trkpt lat="48.69336" lon="1.74645">
        <ele>163.6</ele>
        <time>2023-04-27T13:49:12Z</time>
      </trkpt>
      <trkpt lat="48.69337" lon="1.74648">
        <ele>163.8</ele>
        <time>2023-04-27T13:49:14Z</time>
      </trkpt>
      <trkpt lat="48.69338" lon="1.74651">
        <ele>164</ele>
        <time>2023-04-27T13:49:16Z</time>
      </trkpt>
      <trkpt lat="48.69339" lon="1.74654">
        <ele>164.4</ele>
        <time>2023-04-27T13:49:18Z</time>
      </trkpt>
      <trkpt lat="48.6934" lon="1.74656">
        <ele>164.4</ele>
        <time>2023-04-27T13:49:20Z</time>
      </trkpt>
      <trkpt lat="48.69341" lon="1.7466">
        <ele>164.6</ele>
        <time>2023-04-27T13:49:22Z</time>
      </trkpt>
      <trkpt lat="48.69342" lon="1.74663">
        <ele>164.6</ele>
        <time>2023-04-27T13:49:24Z</time>
      </trkpt>
      <trkpt lat="48.69343" lon="1.74666">
        <ele>164.6</ele>
        <time>2023-04-27T13:49:26Z</time>
      </trkpt>
      <trkpt lat="48.69343" lon="1.7467">
        <ele>164.6</ele>
        <time>2023-04-27T13:49:28Z</time>
      </trkpt>
      <trkpt lat="48.69343" lon="1.74673">
        <ele>164.8</ele>
        <time>2023-04-27T13:49:30Z</time>
      </trkpt>
      <trkpt lat="48.69343" lon="1.74677">
        <ele>164.6</ele>
        <time>2023-04-27T13:49:32Z</time>
      </trkpt>
      <trkpt lat="48.69343" lon="1.74681">
        <ele>164.4</ele>
        <time>2023-04-27T13:49:34Z</time>
      </trkpt>
      <trkpt lat="48.69344" lon="1.74685">
        <ele>164.2</ele>
        <time>2023-04-27T13:49:36Z</time>
      </trkpt>
      <trkpt lat="48.69344" lon="1.74689">
        <ele>164</ele>
        <time>2023-04-27T13:49:38Z</time>
      </trkpt>
      <trkpt lat="48.69345" lon="1.74693">
        <ele>163.8</ele>
        <time>2023-04-27T13:49:40Z</time>
      </trkpt>
      <trkpt lat="48.69347" lon="1.74697">
        <ele>163.6</ele>
        <time>2023-04-27T13:49:42Z</time>
      </trkpt>
      <trkpt lat="48.69348" lon="1.74702">
        <ele>163.2</ele>
        <time>2023-04-27T13:49:44Z</time>
      </trkpt>
      <trkpt lat="48.69349" lon="1.74705">
        <ele>163</ele>
        <time>2023-04-27T13:49:46Z</time>
      </trkpt>
      <trkpt lat="48.6935" lon="1.74709">
        <ele>163</ele>
        <time>2023-04-27T13:49:48Z</time>
      </trkpt>
      <trkpt lat="48.69351" lon="1.74713">
        <ele>162.8</ele>
        <time>2023-04-27T13:49:50Z</time>
      </trkpt>
      <trkpt lat="48.69352" lon="1.74717">
        <ele>162.8</ele>
        <time>2023-04-27T13:49:52Z</time>
      </trkpt>
      <trkpt lat="48.69354" lon="1.74721">
        <ele>162.6</ele>
        <time>2023-04-27T13:49:54Z</time>
      </trkpt>
      <trkpt lat="48.69356" lon="1.74725">
        <ele>162.4</ele>
        <time>2023-04-27T13:49:56Z</time>
      </trkpt>
      <trkpt lat="48.69357" lon="1.74729">
        <ele>162.4</ele>
        <time>2023-04-27T13:49:58Z</time>
      </trkpt>
      <trkpt lat="48.69359" lon="1.74733">
        <ele>162.4</ele>
        <time>2023-04-27T13:50:00Z</time>
      </trkpt>
      <trkpt lat="48.6936" lon="1.74737">
        <ele>162.4</ele>
        <time>2023-04-27T13:50:02Z</time>
      </trkpt>
      <trkpt lat="48.69362" lon="1.74741">
        <ele>162.4</ele>
        <time>2023-04-27T13:50:04Z</time>
      </trkpt>
      <trkpt lat="48.69363" lon="1.74744">
        <ele>162.4</ele>
        <time>2023-04-27T13:50:05Z</time>
      </trkpt>
      <trkpt lat="48.69364" lon="1.74747">
        <ele>162.2</ele>
        <time>2023-04-27T13:50:06Z</time>
      </trkpt>
      <trkpt lat="48.69365" lon="1.7475">
        <ele>162.2</ele>
        <time>2023-04-27T13:50:07Z</time>
      </trkpt>
      <trkpt lat="48.69366" lon="1.74754">
        <ele>162</ele>
        <time>2023-04-27T13:50:08Z</time>
      </trkpt>
      <trkpt lat="48.69367" lon="1.74759">
        <ele>162</ele>
        <time>2023-04-27T13:50:09Z</time>
      </trkpt>
      <trkpt lat="48.69368" lon="1.74764">
        <ele>161.8</ele>
        <time>2023-04-27T13:50:10Z</time>
      </trkpt>
      <trkpt lat="48.6937" lon="1.74771">
        <ele>161.8</ele>
        <time>2023-04-27T13:50:11Z</time>
      </trkpt>
      <trkpt lat="48.69372" lon="1.74777">
        <ele>161.6</ele>
        <time>2023-04-27T13:50:12Z</time>
      </trkpt>
      <trkpt lat="48.69373" lon="1.74785">
        <ele>161.6</ele>
        <time>2023-04-27T13:50:13Z</time>
      </trkpt>
      <trkpt lat="48.69375" lon="1.74792">
        <ele>161.4</ele>
        <time>2023-04-27T13:50:14Z</time>
      </trkpt>
      <trkpt lat="48.69377" lon="1.748">
        <ele>161.4</ele>
        <time>2023-04-27T13:50:15Z</time>
      </trkpt>
      <trkpt lat="48.69379" lon="1.74808">
        <ele>161.2</ele>
        <time>2023-04-27T13:50:16Z</time>
      </trkpt>
      <trkpt lat="48.69381" lon="1.74816">
        <ele>161</ele>
        <time>2023-04-27T13:50:17Z</time>
      </trkpt>
      <trkpt lat="48.69384" lon="1.74825">
        <ele>161</ele>
        <time>2023-04-27T13:50:18Z</time>
      </trkpt>
      <trkpt lat="48.69386" lon="1.74835">
        <ele>160.8</ele>
        <time>2023-04-27T13:50:19Z</time>
      </trkpt>
      <trkpt lat="48.69389" lon="1.74845">
        <ele>160.8</ele>
        <time>2023-04-27T13:50:20Z</time>
      </trkpt>
      <trkpt lat="48.69392" lon="1.74856">
        <ele>160.6</ele>
        <time>2023-04-27T13:50:21Z</time>
      </trkpt>
      <trkpt lat="48.69395" lon="1.74869">
        <ele>160.6</ele>
        <time>2023-04-27T13:50:22Z</time>
      </trkpt>
      <trkpt lat="48.69398" lon="1.74881">
        <ele>160.4</ele>
        <time>2023-04-27T13:50:23Z</time>
      </trkpt>
      <trkpt lat="48.69402" lon="1.74894">
        <ele>160.4</ele>
        <time>2023-04-27T13:50:24Z</time>
      </trkpt>
      <trkpt lat="48.69406" lon="1.74908">
        <ele>160.4</ele>
        <time>2023-04-27T13:50:25Z</time>
      </trkpt>
      <trkpt lat="48.6941" lon="1.7492">
        <ele>160.4</ele>
        <time>2023-04-27T13:50:26Z</time>
      </trkpt>
      <trkpt lat="48.69412" lon="1.74933">
        <ele>160.2</ele>
        <time>2023-04-27T13:50:27Z</time>
      </trkpt>
      <trkpt lat="48.69416" lon="1.74945">
        <ele>160.2</ele>
        <time>2023-04-27T13:50:28Z</time>
      </trkpt>
      <trkpt lat="48.69418" lon="1.74956">
        <ele>160.2</ele>
        <time>2023-04-27T13:50:29Z</time>
      </trkpt>
      <trkpt lat="48.6942" lon="1.74966">
        <ele>160.2</ele>
        <time>2023-04-27T13:50:30Z</time>
      </trkpt>
      <trkpt lat="48.69423" lon="1.74976">
        <ele>160.4</ele>
        <time>2023-04-27T13:50:31Z</time>
      </trkpt>
      <trkpt lat="48.69425" lon="1.74985">
        <ele>160.4</ele>
        <time>2023-04-27T13:50:32Z</time>
      </trkpt>
      <trkpt lat="48.69427" lon="1.74993">
        <ele>160.4</ele>
        <time>2023-04-27T13:50:33Z</time>
      </trkpt>
      <trkpt lat="48.69429" lon="1.75001">
        <ele>160.6</ele>
        <time>2023-04-27T13:50:34Z</time>
      </trkpt>
      <trkpt lat="48.69432" lon="1.75009">
        <ele>160.6</ele>
        <time>2023-04-27T13:50:35Z</time>
      </trkpt>
      <trkpt lat="48.69434" lon="1.75016">
        <ele>160.8</ele>
        <time>2023-04-27T13:50:36Z</time>
      </trkpt>
      <trkpt lat="48.69436" lon="1.75023">
        <ele>160.8</ele>
        <time>2023-04-27T13:50:37Z</time>
      </trkpt>
      <trkpt lat="48.69437" lon="1.7503">
        <ele>160.8</ele>
        <time>2023-04-27T13:50:38Z</time>
      </trkpt>
      <trkpt lat="48.69439" lon="1.75036">
        <ele>161</ele>
        <time>2023-04-27T13:50:39Z</time>
      </trkpt>
      <trkpt lat="48.6944" lon="1.75042">
        <ele>161</ele>
        <time>2023-04-27T13:50:40Z</time>
      </trkpt>
      <trkpt lat="48.69441" lon="1.75047">
        <ele>161.2</ele>
        <time>2023-04-27T13:50:41Z</time>
      </trkpt>
      <trkpt lat="48.69442" lon="1.75053">
        <ele>161.2</ele>
        <time>2023-04-27T13:50:42Z</time>
      </trkpt>
      <trkpt lat="48.69444" lon="1.75059">
        <ele>161.4</ele>
        <time>2023-04-27T13:50:43Z</time>
      </trkpt>
      <trkpt lat="48.69445" lon="1.75064">
        <ele>161.4</ele>
        <time>2023-04-27T13:50:44Z</time>
      </trkpt>
      <trkpt lat="48.69447" lon="1.7507">
        <ele>161.6</ele>
        <time>2023-04-27T13:50:45Z</time>
      </trkpt>
      <trkpt lat="48.69448" lon="1.75076">
        <ele>161.6</ele>
        <time>2023-04-27T13:50:46Z</time>
      </trkpt>
      <trkpt lat="48.6945" lon="1.75082">
        <ele>161.8</ele>
        <time>2023-04-27T13:50:47Z</time>
      </trkpt>
      <trkpt lat="48.69452" lon="1.75088">
        <ele>161.8</ele>
        <time>2023-04-27T13:50:48Z</time>
      </trkpt>
      <trkpt lat="48.69453" lon="1.75094">
        <ele>162</ele>
        <time>2023-04-27T13:50:49Z</time>
      </trkpt>
      <trkpt lat="48.69455" lon="1.751">
        <ele>162</ele>
        <time>2023-04-27T13:50:50Z</time>
      </trkpt>
      <trkpt lat="48.69457" lon="1.75106">
        <ele>162.2</ele>
        <time>2023-04-27T13:50:51Z</time>
      </trkpt>
      <trkpt lat="48.69459" lon="1.75112">
        <ele>162.2</ele>
        <time>2023-04-27T13:50:52Z</time>
      </trkpt>
      <trkpt lat="48.69461" lon="1.75118">
        <ele>162.2</ele>
        <time>2023-04-27T13:50:53Z</time>
      </trkpt>
      <trkpt lat="48.69463" lon="1.75124">
        <ele>162.4</ele>
        <time>2023-04-27T13:50:54Z</time>
      </trkpt>
      <trkpt lat="48.69464" lon="1.7513">
        <ele>162.4</ele>
        <time>2023-04-27T13:50:55Z</time>
      </trkpt>
      <trkpt lat="48.69466" lon="1.75136">
        <ele>162.4</ele>
        <time>2023-04-27T13:50:56Z</time>
      </trkpt>
      <trkpt lat="48.69467" lon="1.75143">
        <ele>162.4</ele>
        <time>2023-04-27T13:50:57Z</time>
      </trkpt>
      <trkpt lat="48.69468" lon="1.75149">
        <ele>162.2</ele>
        <time>2023-04-27T13:50:58Z</time>
      </trkpt>
      <trkpt lat="48.6947" lon="1.75155">
        <ele>162.2</ele>
        <time>2023-04-27T13:50:59Z</time>
      </trkpt>
      <trkpt lat="48.69471" lon="1.75161">
        <ele>162.2</ele>
        <time>2023-04-27T13:51:00Z</time>
      </trkpt>
      <trkpt lat="48.69473" lon="1.75167">
        <ele>162.2</ele>
        <time>2023-04-27T13:51:01Z</time>
      </trkpt>
      <trkpt lat="48.69474" lon="1.75174">
        <ele>162</ele>
        <time>2023-04-27T13:51:02Z</time>
      </trkpt>
      <trkpt lat="48.69475" lon="1.7518">
        <ele>162</ele>
        <time>2023-04-27T13:51:03Z</time>
      </trkpt>
      <trkpt lat="48.69477" lon="1.75186">
        <ele>162</ele>
        <time>2023-04-27T13:51:04Z</time>
      </trkpt>
      <trkpt lat="48.69478" lon="1.75192">
        <ele>162</ele>
        <time>2023-04-27T13:51:05Z</time>
      </trkpt>
      <trkpt lat="48.69479" lon="1.75198">
        <ele>162</ele>
        <time>2023-04-27T13:51:06Z</time>
      </trkpt>
      <trkpt lat="48.69481" lon="1.75204">
        <ele>162</ele>
        <time>2023-04-27T13:51:07Z</time>
      </trkpt>
      <trkpt lat="48.69483" lon="1.75211">
        <ele>161.8</ele>
        <time>2023-04-27T13:51:08Z</time>
      </trkpt>
      <trkpt lat="48.69485" lon="1.75217">
        <ele>161.8</ele>
        <time>2023-04-27T13:51:09Z</time>
      </trkpt>
      <trkpt lat="48.69487" lon="1.75224">
        <ele>161.8</ele>
        <time>2023-04-27T13:51:10Z</time>
      </trkpt>
      <trkpt lat="48.69489" lon="1.75231">
        <ele>161.8</ele>
        <time>2023-04-27T13:51:11Z</time>
      </trkpt>
      <trkpt lat="48.69491" lon="1.75238">
        <ele>161.8</ele>
        <time>2023-04-27T13:51:12Z</time>
      </trkpt>
      <trkpt lat="48.69492" lon="1.75245">
        <ele>161.8</ele>
        <time>2023-04-27T13:51:13Z</time>
      </trkpt>
      <trkpt lat="48.69494" lon="1.75252">
        <ele>161.8</ele>
        <time>2023-04-27T13:51:14Z</time>
      </trkpt>
      <trkpt lat="48.69496" lon="1.7526">
        <ele>161.8</ele>
        <time>2023-04-27T13:51:15Z</time>
      </trkpt>
      <trkpt lat="48.69498" lon="1.75267">
        <ele>161.8</ele>
        <time>2023-04-27T13:51:16Z</time>
      </trkpt>
      <trkpt lat="48.695" lon="1.75274">
        <ele>161.8</ele>
        <time>2023-04-27T13:51:17Z</time>
      </trkpt>
      <trkpt lat="48.69503" lon="1.75282">
        <ele>161.8</ele>
        <time>2023-04-27T13:51:18Z</time>
      </trkpt>
      <trkpt lat="48.69505" lon="1.7529">
        <ele>161.8</ele>
        <time>2023-04-27T13:51:19Z</time>
      </trkpt>
      <trkpt lat="48.69508" lon="1.75298">
        <ele>161.8</ele>
        <time>2023-04-27T13:51:20Z</time>
      </trkpt>
      <trkpt lat="48.69509" lon="1.75307">
        <ele>161.8</ele>
        <time>2023-04-27T13:51:21Z</time>
      </trkpt>
      <trkpt lat="48.69512" lon="1.75317">
        <ele>161.8</ele>
        <time>2023-04-27T13:51:22Z</time>
      </trkpt>
      <trkpt lat="48.69514" lon="1.75326">
        <ele>161.8</ele>
        <time>2023-04-27T13:51:23Z</time>
      </trkpt>
      <trkpt lat="48.69516" lon="1.75336">
        <ele>161.8</ele>
        <time>2023-04-27T13:51:24Z</time>
      </trkpt>
      <trkpt lat="48.69518" lon="1.75345">
        <ele>161.8</ele>
        <time>2023-04-27T13:51:25Z</time>
      </trkpt>
      <trkpt lat="48.69521" lon="1.75355">
        <ele>161.8</ele>
        <time>2023-04-27T13:51:26Z</time>
      </trkpt>
      <trkpt lat="48.69523" lon="1.75365">
        <ele>161.8</ele>
        <time>2023-04-27T13:51:27Z</time>
      </trkpt>
      <trkpt lat="48.69526" lon="1.75374">
        <ele>161.8</ele>
        <time>2023-04-27T13:51:28Z</time>
      </trkpt>
      <trkpt lat="48.69529" lon="1.75384">
        <ele>161.8</ele>
        <time>2023-04-27T13:51:29Z</time>
      </trkpt>
      <trkpt lat="48.69532" lon="1.75393">
        <ele>161.8</ele>
        <time>2023-04-27T13:51:30Z</time>
      </trkpt>
      <trkpt lat="48.69534" lon="1.75403">
        <ele>161.8</ele>
        <time>2023-04-27T13:51:31Z</time>
      </trkpt>
      <trkpt lat="48.69537" lon="1.75412">
        <ele>161.8</ele>
        <time>2023-04-27T13:51:32Z</time>
      </trkpt>
      <trkpt lat="48.6954" lon="1.75421">
        <ele>161.8</ele>
        <time>2023-04-27T13:51:33Z</time>
      </trkpt>
      <trkpt lat="48.69543" lon="1.75431">
        <ele>161.8</ele>
        <time>2023-04-27T13:51:34Z</time>
      </trkpt>
      <trkpt lat="48.69546" lon="1.7544">
        <ele>161.8</ele>
        <time>2023-04-27T13:51:35Z</time>
      </trkpt>
      <trkpt lat="48.69549" lon="1.75449">
        <ele>161.8</ele>
        <time>2023-04-27T13:51:36Z</time>
      </trkpt>
      <trkpt lat="48.69551" lon="1.75459">
        <ele>161.6</ele>
        <time>2023-04-27T13:51:37Z</time>
      </trkpt>
      <trkpt lat="48.69554" lon="1.75468">
        <ele>161.6</ele>
        <time>2023-04-27T13:51:38Z</time>
      </trkpt>
      <trkpt lat="48.69556" lon="1.75477">
        <ele>161.6</ele>
        <time>2023-04-27T13:51:39Z</time>
      </trkpt>
      <trkpt lat="48.69558" lon="1.75487">
        <ele>161.4</ele>
        <time>2023-04-27T13:51:40Z</time>
      </trkpt>
      <trkpt lat="48.6956" lon="1.75496">
        <ele>161.4</ele>
        <time>2023-04-27T13:51:41Z</time>
      </trkpt>
      <trkpt lat="48.69563" lon="1.75506">
        <ele>161.2</ele>
        <time>2023-04-27T13:51:42Z</time>
      </trkpt>
      <trkpt lat="48.69564" lon="1.75515">
        <ele>161.2</ele>
        <time>2023-04-27T13:51:43Z</time>
      </trkpt>
      <trkpt lat="48.69567" lon="1.75525">
        <ele>161</ele>
        <time>2023-04-27T13:51:44Z</time>
      </trkpt>
      <trkpt lat="48.69569" lon="1.75534">
        <ele>161</ele>
        <time>2023-04-27T13:51:45Z</time>
      </trkpt>
      <trkpt lat="48.69571" lon="1.75544">
        <ele>161</ele>
        <time>2023-04-27T13:51:46Z</time>
      </trkpt>
      <trkpt lat="48.69573" lon="1.75553">
        <ele>160.8</ele>
        <time>2023-04-27T13:51:47Z</time>
      </trkpt>
      <trkpt lat="48.69576" lon="1.75562">
        <ele>160.8</ele>
        <time>2023-04-27T13:51:48Z</time>
      </trkpt>
      <trkpt lat="48.69578" lon="1.7557">
        <ele>160.8</ele>
        <time>2023-04-27T13:51:49Z</time>
      </trkpt>
      <trkpt lat="48.6958" lon="1.75578">
        <ele>160.6</ele>
        <time>2023-04-27T13:51:50Z</time>
      </trkpt>
      <trkpt lat="48.69582" lon="1.75586">
        <ele>160.6</ele>
        <time>2023-04-27T13:51:51Z</time>
      </trkpt>
      <trkpt lat="48.69583" lon="1.75594">
        <ele>160.4</ele>
        <time>2023-04-27T13:51:52Z</time>
      </trkpt>
      <trkpt lat="48.69585" lon="1.75602">
        <ele>160.4</ele>
        <time>2023-04-27T13:51:53Z</time>
      </trkpt>
      <trkpt lat="48.69586" lon="1.7561">
        <ele>160.4</ele>
        <time>2023-04-27T13:51:54Z</time>
      </trkpt>
      <trkpt lat="48.69588" lon="1.75618">
        <ele>160.4</ele>
        <time>2023-04-27T13:51:55Z</time>
      </trkpt>
      <trkpt lat="48.6959" lon="1.75627">
        <ele>160.2</ele>
        <time>2023-04-27T13:51:56Z</time>
      </trkpt>
      <trkpt lat="48.69591" lon="1.75635">
        <ele>160.2</ele>
        <time>2023-04-27T13:51:57Z</time>
      </trkpt>
      <trkpt lat="48.69593" lon="1.75644">
        <ele>160.2</ele>
        <time>2023-04-27T13:51:58Z</time>
      </trkpt>
      <trkpt lat="48.69595" lon="1.75652">
        <ele>160.2</ele>
        <time>2023-04-27T13:51:59Z</time>
      </trkpt>
      <trkpt lat="48.69597" lon="1.75661">
        <ele>160.2</ele>
        <time>2023-04-27T13:52:00Z</time>
      </trkpt>
      <trkpt lat="48.696" lon="1.75669">
        <ele>160.2</ele>
        <time>2023-04-27T13:52:01Z</time>
      </trkpt>
      <trkpt lat="48.69602" lon="1.75678">
        <ele>160.2</ele>
        <time>2023-04-27T13:52:02Z</time>
      </trkpt>
      <trkpt lat="48.69604" lon="1.75687">
        <ele>160.2</ele>
        <time>2023-04-27T13:52:03Z</time>
      </trkpt>
      <trkpt lat="48.69607" lon="1.75695">
        <ele>160.4</ele>
        <time>2023-04-27T13:52:04Z</time>
      </trkpt>
      <trkpt lat="48.6961" lon="1.75705">
        <ele>160.4</ele>
        <time>2023-04-27T13:52:05Z</time>
      </trkpt>
      <trkpt lat="48.69612" lon="1.75714">
        <ele>160.4</ele>
        <time>2023-04-27T13:52:06Z</time>
      </trkpt>
      <trkpt lat="48.69614" lon="1.75723">
        <ele>160.4</ele>
        <time>2023-04-27T13:52:07Z</time>
      </trkpt>
      <trkpt lat="48.69617" lon="1.75732">
        <ele>160.4</ele>
        <time>2023-04-27T13:52:08Z</time>
      </trkpt>
      <trkpt lat="48.6962" lon="1.75741">
        <ele>160.4</ele>
        <time>2023-04-27T13:52:09Z</time>
      </trkpt>
      <trkpt lat="48.69622" lon="1.7575">
        <ele>160.4</ele>
        <time>2023-04-27T13:52:10Z</time>
      </trkpt>
      <trkpt lat="48.69624" lon="1.75759">
        <ele>160.4</ele>
        <time>2023-04-27T13:52:11Z</time>
      </trkpt>
      <trkpt lat="48.69627" lon="1.75768">
        <ele>160.4</ele>
        <time>2023-04-27T13:52:12Z</time>
      </trkpt>
      <trkpt lat="48.6963" lon="1.75777">
        <ele>160.4</ele>
        <time>2023-04-27T13:52:13Z</time>
      </trkpt>
      <trkpt lat="48.69632" lon="1.75786">
        <ele>160.4</ele>
        <time>2023-04-27T13:52:14Z</time>
      </trkpt>
      <trkpt lat="48.69634" lon="1.75795">
        <ele>160.6</ele>
        <time>2023-04-27T13:52:15Z</time>
      </trkpt>
      <trkpt lat="48.69636" lon="1.75804">
        <ele>160.6</ele>
        <time>2023-04-27T13:52:16Z</time>
      </trkpt>
      <trkpt lat="48.69639" lon="1.75813">
        <ele>160.6</ele>
        <time>2023-04-27T13:52:17Z</time>
      </trkpt>
      <trkpt lat="48.69641" lon="1.75822">
        <ele>160.6</ele>
        <time>2023-04-27T13:52:18Z</time>
      </trkpt>
      <trkpt lat="48.69643" lon="1.75831">
        <ele>160.8</ele>
        <time>2023-04-27T13:52:19Z</time>
      </trkpt>
      <trkpt lat="48.69645" lon="1.75839">
        <ele>160.8</ele>
        <time>2023-04-27T13:52:20Z</time>
      </trkpt>
      <trkpt lat="48.69647" lon="1.75847">
        <ele>160.8</ele>
        <time>2023-04-27T13:52:21Z</time>
      </trkpt>
      <trkpt lat="48.6965" lon="1.75855">
        <ele>161</ele>
        <time>2023-04-27T13:52:22Z</time>
      </trkpt>
      <trkpt lat="48.69652" lon="1.75862">
        <ele>161</ele>
        <time>2023-04-27T13:52:23Z</time>
      </trkpt>
      <trkpt lat="48.69654" lon="1.75868">
        <ele>161.2</ele>
        <time>2023-04-27T13:52:24Z</time>
      </trkpt>
      <trkpt lat="48.69656" lon="1.75874">
        <ele>161.2</ele>
        <time>2023-04-27T13:52:25Z</time>
      </trkpt>
      <trkpt lat="48.69657" lon="1.75878">
        <ele>161.4</ele>
        <time>2023-04-27T13:52:26Z</time>
      </trkpt>
      <trkpt lat="48.6966" lon="1.75885">
        <ele>161.6</ele>
        <time>2023-04-27T13:52:28Z</time>
      </trkpt>
      <trkpt lat="48.69661" lon="1.75888">
        <ele>161.6</ele>
        <time>2023-04-27T13:52:29Z</time>
      </trkpt>
      <trkpt lat="48.69662" lon="1.75892">
        <ele>161.8</ele>
        <time>2023-04-27T13:52:31Z</time>
      </trkpt>
      <trkpt lat="48.69662" lon="1.75895">
        <ele>162</ele>
        <time>2023-04-27T13:52:34Z</time>
      </trkpt>
      <trkpt lat="48.6966" lon="1.75898">
        <ele>162.4</ele>
        <time>2023-04-27T13:52:37Z</time>
      </trkpt>
      <trkpt lat="48.6966" lon="1.75901">
        <ele>162.6</ele>
        <time>2023-04-27T13:52:39Z</time>
      </trkpt>
      <trkpt lat="48.6966" lon="1.75905">
        <ele>162.6</ele>
        <time>2023-04-27T13:52:41Z</time>
      </trkpt>
      <trkpt lat="48.6966" lon="1.75909">
        <ele>162.8</ele>
        <time>2023-04-27T13:52:43Z</time>
      </trkpt>
      <trkpt lat="48.6966" lon="1.75913">
        <ele>163.2</ele>
        <time>2023-04-27T13:52:45Z</time>
      </trkpt>
      <trkpt lat="48.6966" lon="1.75916">
        <ele>163.2</ele>
        <time>2023-04-27T13:52:46Z</time>
      </trkpt>
      <trkpt lat="48.6966" lon="1.75919">
        <ele>163.4</ele>
        <time>2023-04-27T13:52:47Z</time>
      </trkpt>
      <trkpt lat="48.6966" lon="1.75923">
        <ele>163.6</ele>
        <time>2023-04-27T13:52:48Z</time>
      </trkpt>
      <trkpt lat="48.6966" lon="1.75926">
        <ele>163.6</ele>
        <time>2023-04-27T13:52:49Z</time>
      </trkpt>
      <trkpt lat="48.6966" lon="1.7593">
        <ele>163.8</ele>
        <time>2023-04-27T13:52:50Z</time>
      </trkpt>
      <trkpt lat="48.69661" lon="1.75934">
        <ele>163.8</ele>
        <time>2023-04-27T13:52:51Z</time>
      </trkpt>
      <trkpt lat="48.69661" lon="1.75939">
        <ele>164</ele>
        <time>2023-04-27T13:52:52Z</time>
      </trkpt>
      <trkpt lat="48.69662" lon="1.75943">
        <ele>164</ele>
        <time>2023-04-27T13:52:53Z</time>
      </trkpt>
      <trkpt lat="48.69662" lon="1.75947">
        <ele>164.2</ele>
        <time>2023-04-27T13:52:54Z</time>
      </trkpt>
      <trkpt lat="48.69663" lon="1.75952">
        <ele>164.2</ele>
        <time>2023-04-27T13:52:55Z</time>
      </trkpt>
      <trkpt lat="48.69664" lon="1.75956">
        <ele>164.4</ele>
        <time>2023-04-27T13:52:56Z</time>
      </trkpt>
      <trkpt lat="48.69664" lon="1.75961">
        <ele>164.4</ele>
        <time>2023-04-27T13:52:57Z</time>
      </trkpt>
      <trkpt lat="48.69666" lon="1.75965">
        <ele>164.6</ele>
        <time>2023-04-27T13:52:58Z</time>
      </trkpt>
      <trkpt lat="48.69666" lon="1.7597">
        <ele>164.8</ele>
        <time>2023-04-27T13:52:59Z</time>
      </trkpt>
      <trkpt lat="48.69668" lon="1.75975">
        <ele>165</ele>
        <time>2023-04-27T13:53:00Z</time>
      </trkpt>
      <trkpt lat="48.69669" lon="1.7598">
        <ele>165.2</ele>
        <time>2023-04-27T13:53:01Z</time>
      </trkpt>
      <trkpt lat="48.6967" lon="1.75985">
        <ele>165.2</ele>
        <time>2023-04-27T13:53:02Z</time>
      </trkpt>
      <trkpt lat="48.69672" lon="1.7599">
        <ele>165.4</ele>
        <time>2023-04-27T13:53:03Z</time>
      </trkpt>
      <trkpt lat="48.69672" lon="1.75995">
        <ele>165.6</ele>
        <time>2023-04-27T13:53:04Z</time>
      </trkpt>
      <trkpt lat="48.69674" lon="1.76">
        <ele>165.8</ele>
        <time>2023-04-27T13:53:05Z</time>
      </trkpt>
      <trkpt lat="48.69674" lon="1.76005">
        <ele>166</ele>
        <time>2023-04-27T13:53:06Z</time>
      </trkpt>
      <trkpt lat="48.69675" lon="1.7601">
        <ele>166.2</ele>
        <time>2023-04-27T13:53:07Z</time>
      </trkpt>
      <trkpt lat="48.69676" lon="1.76015">
        <ele>166.4</ele>
        <time>2023-04-27T13:53:08Z</time>
      </trkpt>
      <trkpt lat="48.69677" lon="1.76019">
        <ele>166.6</ele>
        <time>2023-04-27T13:53:09Z</time>
      </trkpt>
      <trkpt lat="48.69678" lon="1.76024">
        <ele>166.8</ele>
        <time>2023-04-27T13:53:10Z</time>
      </trkpt>
      <trkpt lat="48.6968" lon="1.76029">
        <ele>166.8</ele>
        <time>2023-04-27T13:53:11Z</time>
      </trkpt>
      <trkpt lat="48.69681" lon="1.76033">
        <ele>167</ele>
        <time>2023-04-27T13:53:12Z</time>
      </trkpt>
      <trkpt lat="48.69682" lon="1.76038">
        <ele>167.2</ele>
        <time>2023-04-27T13:53:13Z</time>
      </trkpt>
      <trkpt lat="48.69683" lon="1.76042">
        <ele>167.4</ele>
        <time>2023-04-27T13:53:14Z</time>
      </trkpt>
      <trkpt lat="48.69684" lon="1.76047">
        <ele>167.6</ele>
        <time>2023-04-27T13:53:15Z</time>
      </trkpt>
      <trkpt lat="48.69684" lon="1.76052">
        <ele>167.8</ele>
        <time>2023-04-27T13:53:16Z</time>
      </trkpt>
      <trkpt lat="48.69684" lon="1.76057">
        <ele>168</ele>
        <time>2023-04-27T13:53:17Z</time>
      </trkpt>
      <trkpt lat="48.69685" lon="1.76061">
        <ele>168.4</ele>
        <time>2023-04-27T13:53:18Z</time>
      </trkpt>
      <trkpt lat="48.69686" lon="1.76066">
        <ele>168.6</ele>
        <time>2023-04-27T13:53:19Z</time>
      </trkpt>
      <trkpt lat="48.69686" lon="1.7607">
        <ele>168.8</ele>
        <time>2023-04-27T13:53:20Z</time>
      </trkpt>
      <trkpt lat="48.69687" lon="1.76075">
        <ele>169</ele>
        <time>2023-04-27T13:53:21Z</time>
      </trkpt>
      <trkpt lat="48.69688" lon="1.7608">
        <ele>169.2</ele>
        <time>2023-04-27T13:53:22Z</time>
      </trkpt>
      <trkpt lat="48.69688" lon="1.76085">
        <ele>169.4</ele>
        <time>2023-04-27T13:53:23Z</time>
      </trkpt>
      <trkpt lat="48.69688" lon="1.76089">
        <ele>169.6</ele>
        <time>2023-04-27T13:53:24Z</time>
      </trkpt>
      <trkpt lat="48.69689" lon="1.76094">
        <ele>169.8</ele>
        <time>2023-04-27T13:53:25Z</time>
      </trkpt>
      <trkpt lat="48.69689" lon="1.76098">
        <ele>170</ele>
        <time>2023-04-27T13:53:26Z</time>
      </trkpt>
      <trkpt lat="48.6969" lon="1.76102">
        <ele>170.2</ele>
        <time>2023-04-27T13:53:27Z</time>
      </trkpt>
      <trkpt lat="48.69691" lon="1.76106">
        <ele>170.6</ele>
        <time>2023-04-27T13:53:28Z</time>
      </trkpt>
      <trkpt lat="48.69692" lon="1.7611">
        <ele>170.8</ele>
        <time>2023-04-27T13:53:29Z</time>
      </trkpt>
      <trkpt lat="48.69693" lon="1.76114">
        <ele>171</ele>
        <time>2023-04-27T13:53:30Z</time>
      </trkpt>
      <trkpt lat="48.69694" lon="1.76118">
        <ele>171.2</ele>
        <time>2023-04-27T13:53:31Z</time>
      </trkpt>
      <trkpt lat="48.69695" lon="1.76121">
        <ele>171.4</ele>
        <time>2023-04-27T13:53:32Z</time>
      </trkpt>
      <trkpt lat="48.69696" lon="1.76124">
        <ele>171.8</ele>
        <time>2023-04-27T13:53:33Z</time>
      </trkpt>
      <trkpt lat="48.69697" lon="1.76128">
        <ele>172.2</ele>
        <time>2023-04-27T13:53:35Z</time>
      </trkpt>
      <trkpt lat="48.697" lon="1.7613">
        <ele>172.6</ele>
        <time>2023-04-27T13:53:38Z</time>
      </trkpt>
      <trkpt lat="48.69702" lon="1.76132">
        <ele>173</ele>
        <time>2023-04-27T13:53:40Z</time>
      </trkpt>
      <trkpt lat="48.69705" lon="1.76136">
        <ele>173.4</ele>
        <time>2023-04-27T13:53:42Z</time>
      </trkpt>
      <trkpt lat="48.69706" lon="1.76139">
        <ele>173.6</ele>
        <time>2023-04-27T13:53:43Z</time>
      </trkpt>
      <trkpt lat="48.69706" lon="1.76142">
        <ele>174</ele>
        <time>2023-04-27T13:53:44Z</time>
      </trkpt>
      <trkpt lat="48.69707" lon="1.76145">
        <ele>174.2</ele>
        <time>2023-04-27T13:53:45Z</time>
      </trkpt>
      <trkpt lat="48.69707" lon="1.76148">
        <ele>174.4</ele>
        <time>2023-04-27T13:53:46Z</time>
      </trkpt>
      <trkpt lat="48.69706" lon="1.76152">
        <ele>174.4</ele>
        <time>2023-04-27T13:53:47Z</time>
      </trkpt>
      <trkpt lat="48.69706" lon="1.76155">
        <ele>174.6</ele>
        <time>2023-04-27T13:53:48Z</time>
      </trkpt>
      <trkpt lat="48.69705" lon="1.76159">
        <ele>174.6</ele>
        <time>2023-04-27T13:53:49Z</time>
      </trkpt>
      <trkpt lat="48.69704" lon="1.76162">
        <ele>174.8</ele>
        <time>2023-04-27T13:53:50Z</time>
      </trkpt>
      <trkpt lat="48.69703" lon="1.76166">
        <ele>175</ele>
        <time>2023-04-27T13:53:51Z</time>
      </trkpt>
      <trkpt lat="48.69702" lon="1.7617">
        <ele>175</ele>
        <time>2023-04-27T13:53:52Z</time>
      </trkpt>
      <trkpt lat="48.69701" lon="1.76174">
        <ele>175.2</ele>
        <time>2023-04-27T13:53:53Z</time>
      </trkpt>
      <trkpt lat="48.69701" lon="1.76179">
        <ele>175.4</ele>
        <time>2023-04-27T13:53:54Z</time>
      </trkpt>
      <trkpt lat="48.69701" lon="1.76184">
        <ele>175.6</ele>
        <time>2023-04-27T13:53:55Z</time>
      </trkpt>
      <trkpt lat="48.69702" lon="1.76189">
        <ele>175.8</ele>
        <time>2023-04-27T13:53:56Z</time>
      </trkpt>
      <trkpt lat="48.69702" lon="1.76195">
        <ele>176</ele>
        <time>2023-04-27T13:53:57Z</time>
      </trkpt>
      <trkpt lat="48.69703" lon="1.762">
        <ele>176.2</ele>
        <time>2023-04-27T13:53:58Z</time>
      </trkpt>
      <trkpt lat="48.69704" lon="1.76205">
        <ele>176.4</ele>
        <time>2023-04-27T13:53:59Z</time>
      </trkpt>
      <trkpt lat="48.69704" lon="1.7621">
        <ele>176.4</ele>
        <time>2023-04-27T13:54:00Z</time>
      </trkpt>
      <trkpt lat="48.69705" lon="1.76214">
        <ele>176.6</ele>
        <time>2023-04-27T13:54:01Z</time>
      </trkpt>
      <trkpt lat="48.69705" lon="1.76218">
        <ele>176.8</ele>
        <time>2023-04-27T13:54:02Z</time>
      </trkpt>
      <trkpt lat="48.69706" lon="1.76223">
        <ele>177</ele>
        <time>2023-04-27T13:54:03Z</time>
      </trkpt>
      <trkpt lat="48.69706" lon="1.76227">
        <ele>177.2</ele>
        <time>2023-04-27T13:54:04Z</time>
      </trkpt>
      <trkpt lat="48.69707" lon="1.76232">
        <ele>177.4</ele>
        <time>2023-04-27T13:54:05Z</time>
      </trkpt>
      <trkpt lat="48.69707" lon="1.76237">
        <ele>177.4</ele>
        <time>2023-04-27T13:54:06Z</time>
      </trkpt>
      <trkpt lat="48.69707" lon="1.76242">
        <ele>177.6</ele>
        <time>2023-04-27T13:54:07Z</time>
      </trkpt>
      <trkpt lat="48.69708" lon="1.76246">
        <ele>177.8</ele>
        <time>2023-04-27T13:54:08Z</time>
      </trkpt>
      <trkpt lat="48.69708" lon="1.76251">
        <ele>178</ele>
        <time>2023-04-27T13:54:09Z</time>
      </trkpt>
      <trkpt lat="48.69708" lon="1.76256">
        <ele>178</ele>
        <time>2023-04-27T13:54:10Z</time>
      </trkpt>
      <trkpt lat="48.69708" lon="1.7626">
        <ele>178.2</ele>
        <time>2023-04-27T13:54:11Z</time>
      </trkpt>
      <trkpt lat="48.69709" lon="1.76265">
        <ele>178.4</ele>
        <time>2023-04-27T13:54:12Z</time>
      </trkpt>
      <trkpt lat="48.69709" lon="1.76269">
        <ele>178.6</ele>
        <time>2023-04-27T13:54:13Z</time>
      </trkpt>
      <trkpt lat="48.6971" lon="1.76273">
        <ele>178.6</ele>
        <time>2023-04-27T13:54:14Z</time>
      </trkpt>
      <trkpt lat="48.6971" lon="1.76278">
        <ele>178.8</ele>
        <time>2023-04-27T13:54:15Z</time>
      </trkpt>
      <trkpt lat="48.69711" lon="1.76282">
        <ele>178.8</ele>
        <time>2023-04-27T13:54:16Z</time>
      </trkpt>
      <trkpt lat="48.69712" lon="1.76287">
        <ele>178.8</ele>
        <time>2023-04-27T13:54:17Z</time>
      </trkpt>
      <trkpt lat="48.69712" lon="1.76291">
        <ele>179</ele>
        <time>2023-04-27T13:54:18Z</time>
      </trkpt>
      <trkpt lat="48.69712" lon="1.76295">
        <ele>179</ele>
        <time>2023-04-27T13:54:19Z</time>
      </trkpt>
      <trkpt lat="48.69712" lon="1.763">
        <ele>179.2</ele>
        <time>2023-04-27T13:54:20Z</time>
      </trkpt>
      <trkpt lat="48.69713" lon="1.76304">
        <ele>179.4</ele>
        <time>2023-04-27T13:54:21Z</time>
      </trkpt>
      <trkpt lat="48.69713" lon="1.76308">
        <ele>179.4</ele>
        <time>2023-04-27T13:54:22Z</time>
      </trkpt>
      <trkpt lat="48.69713" lon="1.76312">
        <ele>179.6</ele>
        <time>2023-04-27T13:54:23Z</time>
      </trkpt>
      <trkpt lat="48.69714" lon="1.76316">
        <ele>179.8</ele>
        <time>2023-04-27T13:54:24Z</time>
      </trkpt>
      <trkpt lat="48.69714" lon="1.76321">
        <ele>179.8</ele>
        <time>2023-04-27T13:54:25Z</time>
      </trkpt>
      <trkpt lat="48.69714" lon="1.76325">
        <ele>180</ele>
        <time>2023-04-27T13:54:26Z</time>
      </trkpt>
      <trkpt lat="48.69714" lon="1.7633">
        <ele>180.2</ele>
        <time>2023-04-27T13:54:27Z</time>
      </trkpt>
      <trkpt lat="48.69715" lon="1.76334">
        <ele>180.2</ele>
        <time>2023-04-27T13:54:28Z</time>
      </trkpt>
      <trkpt lat="48.69716" lon="1.76339">
        <ele>180.4</ele>
        <time>2023-04-27T13:54:29Z</time>
      </trkpt>
      <trkpt lat="48.69717" lon="1.76344">
        <ele>180.4</ele>
        <time>2023-04-27T13:54:30Z</time>
      </trkpt>
      <trkpt lat="48.69717" lon="1.76349">
        <ele>180.4</ele>
        <time>2023-04-27T13:54:31Z</time>
      </trkpt>
      <trkpt lat="48.69718" lon="1.76354">
        <ele>180.4</ele>
        <time>2023-04-27T13:54:32Z</time>
      </trkpt>
      <trkpt lat="48.69719" lon="1.76359">
        <ele>180.4</ele>
        <time>2023-04-27T13:54:33Z</time>
      </trkpt>
      <trkpt lat="48.69719" lon="1.76364">
        <ele>180.4</ele>
        <time>2023-04-27T13:54:34Z</time>
      </trkpt>
      <trkpt lat="48.6972" lon="1.76368">
        <ele>180.6</ele>
        <time>2023-04-27T13:54:35Z</time>
      </trkpt>
      <trkpt lat="48.6972" lon="1.76373">
        <ele>180.6</ele>
        <time>2023-04-27T13:54:36Z</time>
      </trkpt>
      <trkpt lat="48.6972" lon="1.76377">
        <ele>180.6</ele>
        <time>2023-04-27T13:54:37Z</time>
      </trkpt>
      <trkpt lat="48.69721" lon="1.76382">
        <ele>180.6</ele>
        <time>2023-04-27T13:54:38Z</time>
      </trkpt>
      <trkpt lat="48.69722" lon="1.76386">
        <ele>180.6</ele>
        <time>2023-04-27T13:54:39Z</time>
      </trkpt>
      <trkpt lat="48.69722" lon="1.76391">
        <ele>180.4</ele>
        <time>2023-04-27T13:54:40Z</time>
      </trkpt>
      <trkpt lat="48.69723" lon="1.76395">
        <ele>180.4</ele>
        <time>2023-04-27T13:54:41Z</time>
      </trkpt>
      <trkpt lat="48.69724" lon="1.764">
        <ele>180.4</ele>
        <time>2023-04-27T13:54:42Z</time>
      </trkpt>
      <trkpt lat="48.69724" lon="1.76405">
        <ele>180.4</ele>
        <time>2023-04-27T13:54:43Z</time>
      </trkpt>
      <trkpt lat="48.69725" lon="1.7641">
        <ele>180.2</ele>
        <time>2023-04-27T13:54:44Z</time>
      </trkpt>
      <trkpt lat="48.69725" lon="1.76414">
        <ele>180</ele>
        <time>2023-04-27T13:54:45Z</time>
      </trkpt>
      <trkpt lat="48.69726" lon="1.76419">
        <ele>180</ele>
        <time>2023-04-27T13:54:46Z</time>
      </trkpt>
      <trkpt lat="48.69726" lon="1.76424">
        <ele>179.8</ele>
        <time>2023-04-27T13:54:47Z</time>
      </trkpt>
      <trkpt lat="48.69726" lon="1.76428">
        <ele>179.6</ele>
        <time>2023-04-27T13:54:48Z</time>
      </trkpt>
      <trkpt lat="48.69727" lon="1.76432">
        <ele>179.4</ele>
        <time>2023-04-27T13:54:49Z</time>
      </trkpt>
      <trkpt lat="48.69727" lon="1.76437">
        <ele>179.2</ele>
        <time>2023-04-27T13:54:50Z</time>
      </trkpt>
      <trkpt lat="48.69727" lon="1.76441">
        <ele>179</ele>
        <time>2023-04-27T13:54:51Z</time>
      </trkpt>
      <trkpt lat="48.69727" lon="1.76445">
        <ele>178.8</ele>
        <time>2023-04-27T13:54:52Z</time>
      </trkpt>
      <trkpt lat="48.69728" lon="1.7645">
        <ele>178.8</ele>
        <time>2023-04-27T13:54:53Z</time>
      </trkpt>
      <trkpt lat="48.69728" lon="1.76455">
        <ele>178.6</ele>
        <time>2023-04-27T13:54:54Z</time>
      </trkpt>
      <trkpt lat="48.69729" lon="1.7646">
        <ele>178.4</ele>
        <time>2023-04-27T13:54:55Z</time>
      </trkpt>
      <trkpt lat="48.69731" lon="1.76465">
        <ele>178.2</ele>
        <time>2023-04-27T13:54:56Z</time>
      </trkpt>
      <trkpt lat="48.69732" lon="1.76471">
        <ele>178.2</ele>
        <time>2023-04-27T13:54:57Z</time>
      </trkpt>
      <trkpt lat="48.69733" lon="1.76476">
        <ele>178</ele>
        <time>2023-04-27T13:54:58Z</time>
      </trkpt>
      <trkpt lat="48.69735" lon="1.76482">
        <ele>177.8</ele>
        <time>2023-04-27T13:54:59Z</time>
      </trkpt>
      <trkpt lat="48.69735" lon="1.76487">
        <ele>177.8</ele>
        <time>2023-04-27T13:55:00Z</time>
      </trkpt>
      <trkpt lat="48.69737" lon="1.76493">
        <ele>177.6</ele>
        <time>2023-04-27T13:55:01Z</time>
      </trkpt>
      <trkpt lat="48.69737" lon="1.76498">
        <ele>177.4</ele>
        <time>2023-04-27T13:55:02Z</time>
      </trkpt>
      <trkpt lat="48.69738" lon="1.76504">
        <ele>177.4</ele>
        <time>2023-04-27T13:55:03Z</time>
      </trkpt>
      <trkpt lat="48.69738" lon="1.76509">
        <ele>177.4</ele>
        <time>2023-04-27T13:55:04Z</time>
      </trkpt>
      <trkpt lat="48.69738" lon="1.76514">
        <ele>177.2</ele>
        <time>2023-04-27T13:55:05Z</time>
      </trkpt>
      <trkpt lat="48.69738" lon="1.76518">
        <ele>177.2</ele>
        <time>2023-04-27T13:55:06Z</time>
      </trkpt>
      <trkpt lat="48.69738" lon="1.76523">
        <ele>177.2</ele>
        <time>2023-04-27T13:55:07Z</time>
      </trkpt>
      <trkpt lat="48.69738" lon="1.76527">
        <ele>177.2</ele>
        <time>2023-04-27T13:55:08Z</time>
      </trkpt>
      <trkpt lat="48.69739" lon="1.76532">
        <ele>177.2</ele>
        <time>2023-04-27T13:55:09Z</time>
      </trkpt>
      <trkpt lat="48.6974" lon="1.76536">
        <ele>177.4</ele>
        <time>2023-04-27T13:55:10Z</time>
      </trkpt>
      <trkpt lat="48.6974" lon="1.76541">
        <ele>177.4</ele>
        <time>2023-04-27T13:55:11Z</time>
      </trkpt>
      <trkpt lat="48.69741" lon="1.76545">
        <ele>177.4</ele>
        <time>2023-04-27T13:55:12Z</time>
      </trkpt>
      <trkpt lat="48.69741" lon="1.7655">
        <ele>177.2</ele>
        <time>2023-04-27T13:55:13Z</time>
      </trkpt>
      <trkpt lat="48.69742" lon="1.76554">
        <ele>177.2</ele>
        <time>2023-04-27T13:55:14Z</time>
      </trkpt>
      <trkpt lat="48.69743" lon="1.76559">
        <ele>177.2</ele>
        <time>2023-04-27T13:55:15Z</time>
      </trkpt>
      <trkpt lat="48.69743" lon="1.76563">
        <ele>177.2</ele>
        <time>2023-04-27T13:55:16Z</time>
      </trkpt>
      <trkpt lat="48.69743" lon="1.76568">
        <ele>177.2</ele>
        <time>2023-04-27T13:55:17Z</time>
      </trkpt>
      <trkpt lat="48.69744" lon="1.76573">
        <ele>177</ele>
        <time>2023-04-27T13:55:18Z</time>
      </trkpt>
      <trkpt lat="48.69744" lon="1.76577">
        <ele>177.2</ele>
        <time>2023-04-27T13:55:19Z</time>
      </trkpt>
      <trkpt lat="48.69744" lon="1.76582">
        <ele>177.2</ele>
        <time>2023-04-27T13:55:20Z</time>
      </trkpt>
      <trkpt lat="48.69745" lon="1.76586">
        <ele>177.2</ele>
        <time>2023-04-27T13:55:21Z</time>
      </trkpt>
      <trkpt lat="48.69746" lon="1.7659">
        <ele>177.2</ele>
        <time>2023-04-27T13:55:22Z</time>
      </trkpt>
      <trkpt lat="48.69747" lon="1.76594">
        <ele>177.2</ele>
        <time>2023-04-27T13:55:23Z</time>
      </trkpt>
      <trkpt lat="48.69748" lon="1.76597">
        <ele>177.4</ele>
        <time>2023-04-27T13:55:24Z</time>
      </trkpt>
      <trkpt lat="48.6975" lon="1.766">
        <ele>177.4</ele>
        <time>2023-04-27T13:55:25Z</time>
      </trkpt>
      <trkpt lat="48.69752" lon="1.76603">
        <ele>177.6</ele>
        <time>2023-04-27T13:55:26Z</time>
      </trkpt>
      <trkpt lat="48.69753" lon="1.76606">
        <ele>177.6</ele>
        <time>2023-04-27T13:55:27Z</time>
      </trkpt>
      <trkpt lat="48.69755" lon="1.76608">
        <ele>177.8</ele>
        <time>2023-04-27T13:55:28Z</time>
      </trkpt>
      <trkpt lat="48.69757" lon="1.7661">
        <ele>178</ele>
        <time>2023-04-27T13:55:29Z</time>
      </trkpt>
      <trkpt lat="48.69759" lon="1.76612">
        <ele>178.2</ele>
        <time>2023-04-27T13:55:30Z</time>
      </trkpt>
      <trkpt lat="48.69761" lon="1.76614">
        <ele>178.4</ele>
        <time>2023-04-27T13:55:31Z</time>
      </trkpt>
      <trkpt lat="48.69764" lon="1.76616">
        <ele>178.6</ele>
        <time>2023-04-27T13:55:32Z</time>
      </trkpt>
      <trkpt lat="48.69766" lon="1.76618">
        <ele>178.8</ele>
        <time>2023-04-27T13:55:33Z</time>
      </trkpt>
      <trkpt lat="48.69769" lon="1.7662">
        <ele>178.8</ele>
        <time>2023-04-27T13:55:34Z</time>
      </trkpt>
      <trkpt lat="48.69771" lon="1.76621">
        <ele>179</ele>
        <time>2023-04-27T13:55:35Z</time>
      </trkpt>
      <trkpt lat="48.69773" lon="1.76623">
        <ele>179.2</ele>
        <time>2023-04-27T13:55:36Z</time>
      </trkpt>
      <trkpt lat="48.69775" lon="1.76625">
        <ele>179.4</ele>
        <time>2023-04-27T13:55:37Z</time>
      </trkpt>
      <trkpt lat="48.69778" lon="1.76627">
        <ele>179.6</ele>
        <time>2023-04-27T13:55:38Z</time>
      </trkpt>
      <trkpt lat="48.6978" lon="1.76629">
        <ele>179.8</ele>
        <time>2023-04-27T13:55:39Z</time>
      </trkpt>
      <trkpt lat="48.69782" lon="1.76631">
        <ele>180</ele>
        <time>2023-04-27T13:55:40Z</time>
      </trkpt>
      <trkpt lat="48.69785" lon="1.76633">
        <ele>180.2</ele>
        <time>2023-04-27T13:55:41Z</time>
      </trkpt>
      <trkpt lat="48.69787" lon="1.76635">
        <ele>180.2</ele>
        <time>2023-04-27T13:55:42Z</time>
      </trkpt>
      <trkpt lat="48.69789" lon="1.76637">
        <ele>180.4</ele>
        <time>2023-04-27T13:55:43Z</time>
      </trkpt>
      <trkpt lat="48.69791" lon="1.7664">
        <ele>180.6</ele>
        <time>2023-04-27T13:55:44Z</time>
      </trkpt>
      <trkpt lat="48.69794" lon="1.76642">
        <ele>180.8</ele>
        <time>2023-04-27T13:55:45Z</time>
      </trkpt>
      <trkpt lat="48.69796" lon="1.76644">
        <ele>181</ele>
        <time>2023-04-27T13:55:46Z</time>
      </trkpt>
      <trkpt lat="48.69799" lon="1.76647">
        <ele>181</ele>
        <time>2023-04-27T13:55:47Z</time>
      </trkpt>
      <trkpt lat="48.69801" lon="1.7665">
        <ele>181.2</ele>
        <time>2023-04-27T13:55:48Z</time>
      </trkpt>
      <trkpt lat="48.69803" lon="1.76653">
        <ele>181.2</ele>
        <time>2023-04-27T13:55:49Z</time>
      </trkpt>
      <trkpt lat="48.69805" lon="1.76656">
        <ele>181.4</ele>
        <time>2023-04-27T13:55:50Z</time>
      </trkpt>
      <trkpt lat="48.69808" lon="1.76658">
        <ele>181.4</ele>
        <time>2023-04-27T13:55:51Z</time>
      </trkpt>
      <trkpt lat="48.6981" lon="1.76661">
        <ele>181.6</ele>
        <time>2023-04-27T13:55:52Z</time>
      </trkpt>
      <trkpt lat="48.69812" lon="1.76663">
        <ele>181.6</ele>
        <time>2023-04-27T13:55:53Z</time>
      </trkpt>
      <trkpt lat="48.69814" lon="1.76666">
        <ele>181.8</ele>
        <time>2023-04-27T13:55:54Z</time>
      </trkpt>
      <trkpt lat="48.69817" lon="1.76669">
        <ele>181.8</ele>
        <time>2023-04-27T13:55:55Z</time>
      </trkpt>
      <trkpt lat="48.69819" lon="1.76672">
        <ele>181.8</ele>
        <time>2023-04-27T13:55:56Z</time>
      </trkpt>
      <trkpt lat="48.69822" lon="1.76675">
        <ele>182</ele>
        <time>2023-04-27T13:55:57Z</time>
      </trkpt>
      <trkpt lat="48.69825" lon="1.76678">
        <ele>182</ele>
        <time>2023-04-27T13:55:58Z</time>
      </trkpt>
      <trkpt lat="48.69828" lon="1.76681">
        <ele>182.2</ele>
        <time>2023-04-27T13:55:59Z</time>
      </trkpt>
      <trkpt lat="48.69831" lon="1.76685">
        <ele>182.2</ele>
        <time>2023-04-27T13:56:00Z</time>
      </trkpt>
      <trkpt lat="48.69834" lon="1.76688">
        <ele>182.4</ele>
        <time>2023-04-27T13:56:01Z</time>
      </trkpt>
      <trkpt lat="48.69836" lon="1.76691">
        <ele>182.4</ele>
        <time>2023-04-27T13:56:02Z</time>
      </trkpt>
      <trkpt lat="48.69839" lon="1.76695">
        <ele>182.4</ele>
        <time>2023-04-27T13:56:03Z</time>
      </trkpt>
      <trkpt lat="48.69842" lon="1.76698">
        <ele>182.6</ele>
        <time>2023-04-27T13:56:04Z</time>
      </trkpt>
      <trkpt lat="48.69844" lon="1.76701">
        <ele>182.6</ele>
        <time>2023-04-27T13:56:05Z</time>
      </trkpt>
      <trkpt lat="48.69847" lon="1.76704">
        <ele>182.8</ele>
        <time>2023-04-27T13:56:06Z</time>
      </trkpt>
      <trkpt lat="48.6985" lon="1.76706">
        <ele>182.8</ele>
        <time>2023-04-27T13:56:07Z</time>
      </trkpt>
      <trkpt lat="48.69852" lon="1.76709">
        <ele>183</ele>
        <time>2023-04-27T13:56:08Z</time>
      </trkpt>
      <trkpt lat="48.69855" lon="1.76712">
        <ele>183</ele>
        <time>2023-04-27T13:56:09Z</time>
      </trkpt>
      <trkpt lat="48.69859" lon="1.76714">
        <ele>183</ele>
        <time>2023-04-27T13:56:10Z</time>
      </trkpt>
      <trkpt lat="48.69862" lon="1.76717">
        <ele>183.2</ele>
        <time>2023-04-27T13:56:11Z</time>
      </trkpt>
      <trkpt lat="48.69865" lon="1.7672">
        <ele>183.2</ele>
        <time>2023-04-27T13:56:12Z</time>
      </trkpt>
      <trkpt lat="48.69868" lon="1.76723">
        <ele>183.4</ele>
        <time>2023-04-27T13:56:13Z</time>
      </trkpt>
      <trkpt lat="48.69871" lon="1.76725">
        <ele>183.4</ele>
        <time>2023-04-27T13:56:14Z</time>
      </trkpt>
      <trkpt lat="48.69874" lon="1.76728">
        <ele>183.6</ele>
        <time>2023-04-27T13:56:15Z</time>
      </trkpt>
      <trkpt lat="48.69876" lon="1.7673">
        <ele>183.6</ele>
        <time>2023-04-27T13:56:16Z</time>
      </trkpt>
      <trkpt lat="48.69879" lon="1.76732">
        <ele>183.6</ele>
        <time>2023-04-27T13:56:17Z</time>
      </trkpt>
      <trkpt lat="48.69881" lon="1.76735">
        <ele>183.8</ele>
        <time>2023-04-27T13:56:18Z</time>
      </trkpt>
      <trkpt lat="48.69883" lon="1.76737">
        <ele>183.8</ele>
        <time>2023-04-27T13:56:19Z</time>
      </trkpt>
      <trkpt lat="48.69885" lon="1.76739">
        <ele>184</ele>
        <time>2023-04-27T13:56:20Z</time>
      </trkpt>
      <trkpt lat="48.69888" lon="1.76742">
        <ele>184</ele>
        <time>2023-04-27T13:56:21Z</time>
      </trkpt>
      <trkpt lat="48.6989" lon="1.76744">
        <ele>184</ele>
        <time>2023-04-27T13:56:22Z</time>
      </trkpt>
      <trkpt lat="48.69893" lon="1.76747">
        <ele>184</ele>
        <time>2023-04-27T13:56:23Z</time>
      </trkpt>
      <trkpt lat="48.69896" lon="1.7675">
        <ele>183.8</ele>
        <time>2023-04-27T13:56:24Z</time>
      </trkpt>
      <trkpt lat="48.69898" lon="1.76753">
        <ele>183.8</ele>
        <time>2023-04-27T13:56:25Z</time>
      </trkpt>
      <trkpt lat="48.699" lon="1.76756">
        <ele>183.8</ele>
        <time>2023-04-27T13:56:26Z</time>
      </trkpt>
      <trkpt lat="48.69903" lon="1.76759">
        <ele>183.6</ele>
        <time>2023-04-27T13:56:27Z</time>
      </trkpt>
      <trkpt lat="48.69905" lon="1.76762">
        <ele>183.6</ele>
        <time>2023-04-27T13:56:28Z</time>
      </trkpt>
      <trkpt lat="48.69907" lon="1.76764">
        <ele>183.8</ele>
        <time>2023-04-27T13:56:29Z</time>
      </trkpt>
      <trkpt lat="48.69909" lon="1.76767">
        <ele>183.8</ele>
        <time>2023-04-27T13:56:30Z</time>
      </trkpt>
      <trkpt lat="48.69911" lon="1.7677">
        <ele>183.6</ele>
        <time>2023-04-27T13:56:31Z</time>
      </trkpt>
      <trkpt lat="48.69914" lon="1.76772">
        <ele>183.6</ele>
        <time>2023-04-27T13:56:32Z</time>
      </trkpt>
      <trkpt lat="48.69916" lon="1.76775">
        <ele>183.6</ele>
        <time>2023-04-27T13:56:33Z</time>
      </trkpt>
      <trkpt lat="48.69918" lon="1.76779">
        <ele>183.4</ele>
        <time>2023-04-27T13:56:34Z</time>
      </trkpt>
      <trkpt lat="48.6992" lon="1.76782">
        <ele>183.2</ele>
        <time>2023-04-27T13:56:35Z</time>
      </trkpt>
      <trkpt lat="48.69923" lon="1.76786">
        <ele>183.2</ele>
        <time>2023-04-27T13:56:36Z</time>
      </trkpt>
      <trkpt lat="48.69925" lon="1.7679">
        <ele>183.2</ele>
        <time>2023-04-27T13:56:37Z</time>
      </trkpt>
      <trkpt lat="48.69928" lon="1.76794">
        <ele>183</ele>
        <time>2023-04-27T13:56:38Z</time>
      </trkpt>
      <trkpt lat="48.6993" lon="1.76797">
        <ele>183</ele>
        <time>2023-04-27T13:56:39Z</time>
      </trkpt>
      <trkpt lat="48.69932" lon="1.768">
        <ele>182.8</ele>
        <time>2023-04-27T13:56:40Z</time>
      </trkpt>
      <trkpt lat="48.69934" lon="1.76803">
        <ele>182.8</ele>
        <time>2023-04-27T13:56:41Z</time>
      </trkpt>
      <trkpt lat="48.69936" lon="1.76805">
        <ele>182.8</ele>
        <time>2023-04-27T13:56:42Z</time>
      </trkpt>
      <trkpt lat="48.69938" lon="1.76807">
        <ele>182.8</ele>
        <time>2023-04-27T13:56:43Z</time>
      </trkpt>
      <trkpt lat="48.6994" lon="1.76811">
        <ele>182.6</ele>
        <time>2023-04-27T13:56:45Z</time>
      </trkpt>
      <trkpt lat="48.69942" lon="1.76815">
        <ele>182.6</ele>
        <time>2023-04-27T13:56:47Z</time>
      </trkpt>
      <trkpt lat="48.69944" lon="1.76819">
        <ele>182.6</ele>
        <time>2023-04-27T13:56:49Z</time>
      </trkpt>
      <trkpt lat="48.69946" lon="1.76821">
        <ele>182.6</ele>
        <time>2023-04-27T13:56:50Z</time>
      </trkpt>
      <trkpt lat="48.69947" lon="1.76823">
        <ele>182.4</ele>
        <time>2023-04-27T13:56:51Z</time>
      </trkpt>
      <trkpt lat="48.6995" lon="1.76827">
        <ele>182.4</ele>
        <time>2023-04-27T13:56:53Z</time>
      </trkpt>
      <trkpt lat="48.69953" lon="1.76829">
        <ele>182.2</ele>
        <time>2023-04-27T13:56:55Z</time>
      </trkpt>
      <trkpt lat="48.69955" lon="1.76832">
        <ele>182.2</ele>
        <time>2023-04-27T13:56:57Z</time>
      </trkpt>
      <trkpt lat="48.69957" lon="1.76835">
        <ele>182</ele>
        <time>2023-04-27T13:56:59Z</time>
      </trkpt>
      <trkpt lat="48.6996" lon="1.76838">
        <ele>181.8</ele>
        <time>2023-04-27T13:57:01Z</time>
      </trkpt>
      <trkpt lat="48.69962" lon="1.76841">
        <ele>181.6</ele>
        <time>2023-04-27T13:57:03Z</time>
      </trkpt>
      <trkpt lat="48.69964" lon="1.76844">
        <ele>181.4</ele>
        <time>2023-04-27T13:57:05Z</time>
      </trkpt>
      <trkpt lat="48.69966" lon="1.76846">
        <ele>181.4</ele>
        <time>2023-04-27T13:57:07Z</time>
      </trkpt>
      <trkpt lat="48.69968" lon="1.76847">
        <ele>181.2</ele>
        <time>2023-04-27T13:57:09Z</time>
      </trkpt>
      <trkpt lat="48.6997" lon="1.76849">
        <ele>181.2</ele>
        <time>2023-04-27T13:57:11Z</time>
      </trkpt>
      <trkpt lat="48.69972" lon="1.76851">
        <ele>181.2</ele>
        <time>2023-04-27T13:57:13Z</time>
      </trkpt>
      <trkpt lat="48.69975" lon="1.76853">
        <ele>181.2</ele>
        <time>2023-04-27T13:57:15Z</time>
      </trkpt>
      <trkpt lat="48.69977" lon="1.76854">
        <ele>181.4</ele>
        <time>2023-04-27T13:57:17Z</time>
      </trkpt>
      <trkpt lat="48.6998" lon="1.76857">
        <ele>181.4</ele>
        <time>2023-04-27T13:57:19Z</time>
      </trkpt>
      <trkpt lat="48.69981" lon="1.76858">
        <ele>181.4</ele>
        <time>2023-04-27T13:57:20Z</time>
      </trkpt>
      <trkpt lat="48.69983" lon="1.76862">
        <ele>181.6</ele>
        <time>2023-04-27T13:57:22Z</time>
      </trkpt>
      <trkpt lat="48.69986" lon="1.76864">
        <ele>181.6</ele>
        <time>2023-04-27T13:57:24Z</time>
      </trkpt>
      <trkpt lat="48.69988" lon="1.76866">
        <ele>181.8</ele>
        <time>2023-04-27T13:57:26Z</time>
      </trkpt>
      <trkpt lat="48.69991" lon="1.76868">
        <ele>181.8</ele>
        <time>2023-04-27T13:57:28Z</time>
      </trkpt>
      <trkpt lat="48.69994" lon="1.7687">
        <ele>181.8</ele>
        <time>2023-04-27T13:57:30Z</time>
      </trkpt>
      <trkpt lat="48.69996" lon="1.76873">
        <ele>181.8</ele>
        <time>2023-04-27T13:57:32Z</time>
      </trkpt>
      <trkpt lat="48.69997" lon="1.76874">
        <ele>181.8</ele>
        <time>2023-04-27T13:57:34Z</time>
      </trkpt>
      <trkpt lat="48.7" lon="1.76875">
        <ele>182</ele>
        <time>2023-04-27T13:57:37Z</time>
      </trkpt>
      <trkpt lat="48.70003" lon="1.76876">
        <ele>182.2</ele>
        <time>2023-04-27T13:57:40Z</time>
      </trkpt>
      <trkpt lat="48.70005" lon="1.76878">
        <ele>182.4</ele>
        <time>2023-04-27T13:57:42Z</time>
      </trkpt>
      <trkpt lat="48.70007" lon="1.76879">
        <ele>182.8</ele>
        <time>2023-04-27T13:57:44Z</time>
      </trkpt>
      <trkpt lat="48.70009" lon="1.7688">
        <ele>183.2</ele>
        <time>2023-04-27T13:57:46Z</time>
      </trkpt>
      <trkpt lat="48.70011" lon="1.76882">
        <ele>183.6</ele>
        <time>2023-04-27T13:57:48Z</time>
      </trkpt>
      <trkpt lat="48.70013" lon="1.76883">
        <ele>183.8</ele>
        <time>2023-04-27T13:57:50Z</time>
      </trkpt>
      <trkpt lat="48.70015" lon="1.76884">
        <ele>184.4</ele>
        <time>2023-04-27T13:57:52Z</time>
      </trkpt>
      <trkpt lat="48.70018" lon="1.76886">
        <ele>184.6</ele>
        <time>2023-04-27T13:57:54Z</time>
      </trkpt>
      <trkpt lat="48.7002" lon="1.76888">
        <ele>184.8</ele>
        <time>2023-04-27T13:57:56Z</time>
      </trkpt>
      <trkpt lat="48.70022" lon="1.76892">
        <ele>185</ele>
        <time>2023-04-27T13:57:58Z</time>
      </trkpt>
      <trkpt lat="48.70023" lon="1.76894">
        <ele>185.2</ele>
        <time>2023-04-27T13:57:59Z</time>
      </trkpt>
      <trkpt lat="48.70026" lon="1.76898">
        <ele>185.4</ele>
        <time>2023-04-27T13:58:01Z</time>
      </trkpt>
      <trkpt lat="48.70029" lon="1.76901">
        <ele>185.4</ele>
        <time>2023-04-27T13:58:03Z</time>
      </trkpt>
      <trkpt lat="48.70031" lon="1.76903">
        <ele>185.6</ele>
        <time>2023-04-27T13:58:05Z</time>
      </trkpt>
      <trkpt lat="48.70033" lon="1.76906">
        <ele>185.6</ele>
        <time>2023-04-27T13:58:07Z</time>
      </trkpt>
      <trkpt lat="48.70035" lon="1.76907">
        <ele>185.6</ele>
        <time>2023-04-27T13:58:08Z</time>
      </trkpt>
      <trkpt lat="48.70037" lon="1.76911">
        <ele>185.6</ele>
        <time>2023-04-27T13:58:10Z</time>
      </trkpt>
      <trkpt lat="48.70039" lon="1.76913">
        <ele>185.6</ele>
        <time>2023-04-27T13:58:11Z</time>
      </trkpt>
      <trkpt lat="48.70041" lon="1.76916">
        <ele>185.8</ele>
        <time>2023-04-27T13:58:13Z</time>
      </trkpt>
      <trkpt lat="48.70044" lon="1.76918">
        <ele>185.8</ele>
        <time>2023-04-27T13:58:15Z</time>
      </trkpt>
      <trkpt lat="48.70047" lon="1.76921">
        <ele>186</ele>
        <time>2023-04-27T13:58:17Z</time>
      </trkpt>
      <trkpt lat="48.7005" lon="1.76923">
        <ele>186</ele>
        <time>2023-04-27T13:58:19Z</time>
      </trkpt>
      <trkpt lat="48.70052" lon="1.76925">
        <ele>186</ele>
        <time>2023-04-27T13:58:20Z</time>
      </trkpt>
      <trkpt lat="48.70053" lon="1.76926">
        <ele>186</ele>
        <time>2023-04-27T13:58:21Z</time>
      </trkpt>
      <trkpt lat="48.70054" lon="1.76928">
        <ele>186</ele>
        <time>2023-04-27T13:58:22Z</time>
      </trkpt>
      <trkpt lat="48.70056" lon="1.7693">
        <ele>186</ele>
        <time>2023-04-27T13:58:23Z</time>
      </trkpt>
      <trkpt lat="48.70057" lon="1.76933">
        <ele>186</ele>
        <time>2023-04-27T13:58:24Z</time>
      </trkpt>
      <trkpt lat="48.70059" lon="1.76935">
        <ele>186</ele>
        <time>2023-04-27T13:58:25Z</time>
      </trkpt>
      <trkpt lat="48.7006" lon="1.76937">
        <ele>186</ele>
        <time>2023-04-27T13:58:26Z</time>
      </trkpt>
      <trkpt lat="48.70063" lon="1.7694">
        <ele>186</ele>
        <time>2023-04-27T13:58:28Z</time>
      </trkpt>
      <trkpt lat="48.70065" lon="1.76943">
        <ele>185.8</ele>
        <time>2023-04-27T13:58:30Z</time>
      </trkpt>
      <trkpt lat="48.70067" lon="1.76944">
        <ele>185.6</ele>
        <time>2023-04-27T13:58:32Z</time>
      </trkpt>
      <trkpt lat="48.70069" lon="1.76947">
        <ele>185.4</ele>
        <time>2023-04-27T13:58:34Z</time>
      </trkpt>
      <trkpt lat="48.7007" lon="1.7695">
        <ele>185.4</ele>
        <time>2023-04-27T13:58:35Z</time>
      </trkpt>
      <trkpt lat="48.70071" lon="1.76953">
        <ele>185.4</ele>
        <time>2023-04-27T13:58:36Z</time>
      </trkpt>
      <trkpt lat="48.70073" lon="1.76956">
        <ele>185.2</ele>
        <time>2023-04-27T13:58:37Z</time>
      </trkpt>
      <trkpt lat="48.70075" lon="1.7696">
        <ele>185.2</ele>
        <time>2023-04-27T13:58:38Z</time>
      </trkpt>
      <trkpt lat="48.70076" lon="1.76964">
        <ele>185</ele>
        <time>2023-04-27T13:58:39Z</time>
      </trkpt>
      <trkpt lat="48.70078" lon="1.76967">
        <ele>185</ele>
        <time>2023-04-27T13:58:40Z</time>
      </trkpt>
      <trkpt lat="48.7008" lon="1.7697">
        <ele>184.8</ele>
        <time>2023-04-27T13:58:41Z</time>
      </trkpt>
      <trkpt lat="48.70082" lon="1.76973">
        <ele>184.6</ele>
        <time>2023-04-27T13:58:42Z</time>
      </trkpt>
      <trkpt lat="48.70084" lon="1.76975">
        <ele>184.6</ele>
        <time>2023-04-27T13:58:43Z</time>
      </trkpt>
      <trkpt lat="48.70086" lon="1.76978">
        <ele>184.4</ele>
        <time>2023-04-27T13:58:44Z</time>
      </trkpt>
      <trkpt lat="48.70089" lon="1.7698">
        <ele>184.2</ele>
        <time>2023-04-27T13:58:45Z</time>
      </trkpt>
      <trkpt lat="48.70091" lon="1.76983">
        <ele>184.2</ele>
        <time>2023-04-27T13:58:46Z</time>
      </trkpt>
      <trkpt lat="48.70093" lon="1.76985">
        <ele>184</ele>
        <time>2023-04-27T13:58:47Z</time>
      </trkpt>
      <trkpt lat="48.70094" lon="1.76987">
        <ele>183.8</ele>
        <time>2023-04-27T13:58:48Z</time>
      </trkpt>
      <trkpt lat="48.70096" lon="1.76989">
        <ele>183.8</ele>
        <time>2023-04-27T13:58:49Z</time>
      </trkpt>
      <trkpt lat="48.70097" lon="1.76993">
        <ele>183.4</ele>
        <time>2023-04-27T13:58:51Z</time>
      </trkpt>
      <trkpt lat="48.70098" lon="1.76996">
        <ele>183.2</ele>
        <time>2023-04-27T13:58:54Z</time>
      </trkpt>
      <trkpt lat="48.701" lon="1.76998">
        <ele>182.2</ele>
        <time>2023-04-27T13:59:01Z</time>
      </trkpt>
      <trkpt lat="48.70102" lon="1.76999">
        <ele>182</ele>
        <time>2023-04-27T13:59:04Z</time>
      </trkpt>
      <trkpt lat="48.70104" lon="1.77001">
        <ele>181.8</ele>
        <time>2023-04-27T13:59:06Z</time>
      </trkpt>
      <trkpt lat="48.70106" lon="1.77004">
        <ele>181.6</ele>
        <time>2023-04-27T13:59:08Z</time>
      </trkpt>
      <trkpt lat="48.70108" lon="1.77007">
        <ele>181.6</ele>
        <time>2023-04-27T13:59:10Z</time>
      </trkpt>
      <trkpt lat="48.70111" lon="1.7701">
        <ele>181.4</ele>
        <time>2023-04-27T13:59:12Z</time>
      </trkpt>
      <trkpt lat="48.70113" lon="1.77012">
        <ele>181.2</ele>
        <time>2023-04-27T13:59:14Z</time>
      </trkpt>
      <trkpt lat="48.70115" lon="1.77014">
        <ele>181</ele>
        <time>2023-04-27T13:59:16Z</time>
      </trkpt>
      <trkpt lat="48.70117" lon="1.77016">
        <ele>180.8</ele>
        <time>2023-04-27T13:59:18Z</time>
      </trkpt>
      <trkpt lat="48.70119" lon="1.77019">
        <ele>180.6</ele>
        <time>2023-04-27T13:59:20Z</time>
      </trkpt>
      <trkpt lat="48.70121" lon="1.77021">
        <ele>180.4</ele>
        <time>2023-04-27T13:59:22Z</time>
      </trkpt>
      <trkpt lat="48.70124" lon="1.77023">
        <ele>180.2</ele>
        <time>2023-04-27T13:59:24Z</time>
      </trkpt>
      <trkpt lat="48.70125" lon="1.77026">
        <ele>179.8</ele>
        <time>2023-04-27T13:59:26Z</time>
      </trkpt>
      <trkpt lat="48.70128" lon="1.77028">
        <ele>179.6</ele>
        <time>2023-04-27T13:59:28Z</time>
      </trkpt>
      <trkpt lat="48.7013" lon="1.77031">
        <ele>179.4</ele>
        <time>2023-04-27T13:59:30Z</time>
      </trkpt>
      <trkpt lat="48.70132" lon="1.77033">
        <ele>179.2</ele>
        <time>2023-04-27T13:59:32Z</time>
      </trkpt>
      <trkpt lat="48.70135" lon="1.77036">
        <ele>179</ele>
        <time>2023-04-27T13:59:34Z</time>
      </trkpt>
      <trkpt lat="48.70137" lon="1.77038">
        <ele>178.8</ele>
        <time>2023-04-27T13:59:36Z</time>
      </trkpt>
      <trkpt lat="48.7014" lon="1.7704">
        <ele>178.6</ele>
        <time>2023-04-27T13:59:38Z</time>
      </trkpt>
      <trkpt lat="48.70142" lon="1.77042">
        <ele>178.6</ele>
        <time>2023-04-27T13:59:39Z</time>
      </trkpt>
      <trkpt lat="48.70145" lon="1.77044">
        <ele>178.4</ele>
        <time>2023-04-27T13:59:41Z</time>
      </trkpt>
      <trkpt lat="48.70146" lon="1.77046">
        <ele>178.4</ele>
        <time>2023-04-27T13:59:42Z</time>
      </trkpt>
      <trkpt lat="48.70148" lon="1.77047">
        <ele>178.2</ele>
        <time>2023-04-27T13:59:43Z</time>
      </trkpt>
      <trkpt lat="48.7015" lon="1.7705">
        <ele>178</ele>
        <time>2023-04-27T13:59:45Z</time>
      </trkpt>
      <trkpt lat="48.70152" lon="1.77051">
        <ele>178</ele>
        <time>2023-04-27T13:59:46Z</time>
      </trkpt>
      <trkpt lat="48.70155" lon="1.77054">
        <ele>177.8</ele>
        <time>2023-04-27T13:59:48Z</time>
      </trkpt>
      <trkpt lat="48.70156" lon="1.77055">
        <ele>177.6</ele>
        <time>2023-04-27T13:59:49Z</time>
      </trkpt>
      <trkpt lat="48.70159" lon="1.77058">
        <ele>177.4</ele>
        <time>2023-04-27T13:59:51Z</time>
      </trkpt>
      <trkpt lat="48.70161" lon="1.77062">
        <ele>177.2</ele>
        <time>2023-04-27T13:59:53Z</time>
      </trkpt>
      <trkpt lat="48.70163" lon="1.77063">
        <ele>177</ele>
        <time>2023-04-27T13:59:54Z</time>
      </trkpt>
      <trkpt lat="48.70164" lon="1.77065">
        <ele>177</ele>
        <time>2023-04-27T13:59:55Z</time>
      </trkpt>
      <trkpt lat="48.70167" lon="1.77068">
        <ele>176.6</ele>
        <time>2023-04-27T13:59:57Z</time>
      </trkpt>
      <trkpt lat="48.70169" lon="1.77069">
        <ele>176.6</ele>
        <time>2023-04-27T13:59:58Z</time>
      </trkpt>
      <trkpt lat="48.7017" lon="1.77071">
        <ele>176.4</ele>
        <time>2023-04-27T13:59:59Z</time>
      </trkpt>
      <trkpt lat="48.70172" lon="1.77074">
        <ele>176</ele>
        <time>2023-04-27T14:00:01Z</time>
      </trkpt>
      <trkpt lat="48.70174" lon="1.77075">
        <ele>176</ele>
        <time>2023-04-27T14:00:02Z</time>
      </trkpt>
      <trkpt lat="48.70176" lon="1.77078">
        <ele>175.8</ele>
        <time>2023-04-27T14:00:04Z</time>
      </trkpt>
      <trkpt lat="48.70179" lon="1.77081">
        <ele>175.6</ele>
        <time>2023-04-27T14:00:06Z</time>
      </trkpt>
      <trkpt lat="48.70181" lon="1.77084">
        <ele>175.6</ele>
        <time>2023-04-27T14:00:08Z</time>
      </trkpt>
      <trkpt lat="48.70183" lon="1.77087">
        <ele>175.6</ele>
        <time>2023-04-27T14:00:10Z</time>
      </trkpt>
      <trkpt lat="48.70184" lon="1.77088">
        <ele>175.6</ele>
        <time>2023-04-27T14:00:11Z</time>
      </trkpt>
      <trkpt lat="48.70187" lon="1.77091">
        <ele>175.6</ele>
        <time>2023-04-27T14:00:13Z</time>
      </trkpt>
      <trkpt lat="48.70189" lon="1.77093">
        <ele>175.4</ele>
        <time>2023-04-27T14:00:15Z</time>
      </trkpt>
      <trkpt lat="48.70192" lon="1.77096">
        <ele>175.4</ele>
        <time>2023-04-27T14:00:17Z</time>
      </trkpt>
      <trkpt lat="48.70194" lon="1.77097">
        <ele>175.4</ele>
        <time>2023-04-27T14:00:18Z</time>
      </trkpt>
      <trkpt lat="48.70196" lon="1.771">
        <ele>175.4</ele>
        <time>2023-04-27T14:00:20Z</time>
      </trkpt>
      <trkpt lat="48.70198" lon="1.77102">
        <ele>175.4</ele>
        <time>2023-04-27T14:00:21Z</time>
      </trkpt>
      <trkpt lat="48.70199" lon="1.77103">
        <ele>175.2</ele>
        <time>2023-04-27T14:00:22Z</time>
      </trkpt>
      <trkpt lat="48.70201" lon="1.77104">
        <ele>175.2</ele>
        <time>2023-04-27T14:00:23Z</time>
      </trkpt>
      <trkpt lat="48.70203" lon="1.77106">
        <ele>175</ele>
        <time>2023-04-27T14:00:24Z</time>
      </trkpt>
      <trkpt lat="48.70204" lon="1.77107">
        <ele>175</ele>
        <time>2023-04-27T14:00:25Z</time>
      </trkpt>
      <trkpt lat="48.70206" lon="1.77108">
        <ele>174.8</ele>
        <time>2023-04-27T14:00:26Z</time>
      </trkpt>
      <trkpt lat="48.70208" lon="1.77111">
        <ele>174.6</ele>
        <time>2023-04-27T14:00:28Z</time>
      </trkpt>
      <trkpt lat="48.70211" lon="1.77112">
        <ele>174.4</ele>
        <time>2023-04-27T14:00:30Z</time>
      </trkpt>
      <trkpt lat="48.70213" lon="1.77115">
        <ele>174.4</ele>
        <time>2023-04-27T14:00:32Z</time>
      </trkpt>
      <trkpt lat="48.70216" lon="1.77117">
        <ele>174.2</ele>
        <time>2023-04-27T14:00:34Z</time>
      </trkpt>
      <trkpt lat="48.70219" lon="1.77119">
        <ele>174</ele>
        <time>2023-04-27T14:00:36Z</time>
      </trkpt>
      <trkpt lat="48.7022" lon="1.77121">
        <ele>174</ele>
        <time>2023-04-27T14:00:37Z</time>
      </trkpt>
      <trkpt lat="48.70222" lon="1.77122">
        <ele>174</ele>
        <time>2023-04-27T14:00:38Z</time>
      </trkpt>
      <trkpt lat="48.70224" lon="1.77124">
        <ele>174</ele>
        <time>2023-04-27T14:00:39Z</time>
      </trkpt>
      <trkpt lat="48.70226" lon="1.77125">
        <ele>173.8</ele>
        <time>2023-04-27T14:00:40Z</time>
      </trkpt>
      <trkpt lat="48.70228" lon="1.77128">
        <ele>173.8</ele>
        <time>2023-04-27T14:00:42Z</time>
      </trkpt>
      <trkpt lat="48.7023" lon="1.77131">
        <ele>173.8</ele>
        <time>2023-04-27T14:00:45Z</time>
      </trkpt>
      <trkpt lat="48.70231" lon="1.77132">
        <ele>173.8</ele>
        <time>2023-04-27T14:00:48Z</time>
      </trkpt>
      <trkpt lat="48.70233" lon="1.77135">
        <ele>173.8</ele>
        <time>2023-04-27T14:00:51Z</time>
      </trkpt>
      <trkpt lat="48.70235" lon="1.77138">
        <ele>173.8</ele>
        <time>2023-04-27T14:00:53Z</time>
      </trkpt>
      <trkpt lat="48.70238" lon="1.77141">
        <ele>173.8</ele>
        <time>2023-04-27T14:00:55Z</time>
      </trkpt>
      <trkpt lat="48.7024" lon="1.77143">
        <ele>173.8</ele>
        <time>2023-04-27T14:00:56Z</time>
      </trkpt>
      <trkpt lat="48.70242" lon="1.77145">
        <ele>173.8</ele>
        <time>2023-04-27T14:00:58Z</time>
      </trkpt>
      <trkpt lat="48.70244" lon="1.77147">
        <ele>173.8</ele>
        <time>2023-04-27T14:01:00Z</time>
      </trkpt>
      <trkpt lat="48.70246" lon="1.7715">
        <ele>173.8</ele>
        <time>2023-04-27T14:01:02Z</time>
      </trkpt>
      <trkpt lat="48.70248" lon="1.77152">
        <ele>174</ele>
        <time>2023-04-27T14:01:04Z</time>
      </trkpt>
      <trkpt lat="48.70251" lon="1.77155">
        <ele>174</ele>
        <time>2023-04-27T14:01:06Z</time>
      </trkpt>
      <trkpt lat="48.70252" lon="1.77157">
        <ele>174</ele>
        <time>2023-04-27T14:01:07Z</time>
      </trkpt>
      <trkpt lat="48.70254" lon="1.77159">
        <ele>174.2</ele>
        <time>2023-04-27T14:01:08Z</time>
      </trkpt>
      <trkpt lat="48.70256" lon="1.77161">
        <ele>174.2</ele>
        <time>2023-04-27T14:01:09Z</time>
      </trkpt>
      <trkpt lat="48.70257" lon="1.77163">
        <ele>174.2</ele>
        <time>2023-04-27T14:01:10Z</time>
      </trkpt>
      <trkpt lat="48.70259" lon="1.77165">
        <ele>174.2</ele>
        <time>2023-04-27T14:01:11Z</time>
      </trkpt>
      <trkpt lat="48.7026" lon="1.77167">
        <ele>174.2</ele>
        <time>2023-04-27T14:01:12Z</time>
      </trkpt>
      <trkpt lat="48.70262" lon="1.77169">
        <ele>174.2</ele>
        <time>2023-04-27T14:01:13Z</time>
      </trkpt>
      <trkpt lat="48.70264" lon="1.77171">
        <ele>174.2</ele>
        <time>2023-04-27T14:01:14Z</time>
      </trkpt>
      <trkpt lat="48.70265" lon="1.77173">
        <ele>174.4</ele>
        <time>2023-04-27T14:01:15Z</time>
      </trkpt>
      <trkpt lat="48.70267" lon="1.77176">
        <ele>174.4</ele>
        <time>2023-04-27T14:01:16Z</time>
      </trkpt>
      <trkpt lat="48.70268" lon="1.77178">
        <ele>174.4</ele>
        <time>2023-04-27T14:01:17Z</time>
      </trkpt>
      <trkpt lat="48.7027" lon="1.77179">
        <ele>174.6</ele>
        <time>2023-04-27T14:01:18Z</time>
      </trkpt>
      <trkpt lat="48.70272" lon="1.77181">
        <ele>174.8</ele>
        <time>2023-04-27T14:01:19Z</time>
      </trkpt>
      <trkpt lat="48.70274" lon="1.77183">
        <ele>174.8</ele>
        <time>2023-04-27T14:01:20Z</time>
      </trkpt>
      <trkpt lat="48.70276" lon="1.77184">
        <ele>175</ele>
        <time>2023-04-27T14:01:21Z</time>
      </trkpt>
      <trkpt lat="48.70279" lon="1.77186">
        <ele>175.2</ele>
        <time>2023-04-27T14:01:23Z</time>
      </trkpt>
      <trkpt lat="48.70281" lon="1.77187">
        <ele>175.6</ele>
        <time>2023-04-27T14:01:26Z</time>
      </trkpt>
      <trkpt lat="48.70283" lon="1.77189">
        <ele>175.6</ele>
        <time>2023-04-27T14:01:28Z</time>
      </trkpt>
      <trkpt lat="48.70285" lon="1.77192">
        <ele>175.6</ele>
        <time>2023-04-27T14:01:30Z</time>
      </trkpt>
      <trkpt lat="48.70287" lon="1.77195">
        <ele>175.4</ele>
        <time>2023-04-27T14:01:32Z</time>
      </trkpt>
      <trkpt lat="48.70289" lon="1.77197">
        <ele>175.4</ele>
        <time>2023-04-27T14:01:33Z</time>
      </trkpt>
      <trkpt lat="48.7029" lon="1.772">
        <ele>175.4</ele>
        <time>2023-04-27T14:01:35Z</time>
      </trkpt>
      <trkpt lat="48.70292" lon="1.77202">
        <ele>175.2</ele>
        <time>2023-04-27T14:01:38Z</time>
      </trkpt>
      <trkpt lat="48.70293" lon="1.77205">
        <ele>175.2</ele>
        <time>2023-04-27T14:01:41Z</time>
      </trkpt>
      <trkpt lat="48.70295" lon="1.77207">
        <ele>175.2</ele>
        <time>2023-04-27T14:01:43Z</time>
      </trkpt>
      <trkpt lat="48.70297" lon="1.7721">
        <ele>175.4</ele>
        <time>2023-04-27T14:01:45Z</time>
      </trkpt>
      <trkpt lat="48.70299" lon="1.77213">
        <ele>175.8</ele>
        <time>2023-04-27T14:01:47Z</time>
      </trkpt>
      <trkpt lat="48.70301" lon="1.77216">
        <ele>176.6</ele>
        <time>2023-04-27T14:01:52Z</time>
      </trkpt>
      <trkpt lat="48.70303" lon="1.77216">
        <ele>178</ele>
        <time>2023-04-27T14:02:00Z</time>
      </trkpt>
      <trkpt lat="48.70305" lon="1.77218">
        <ele>178</ele>
        <time>2023-04-27T14:02:02Z</time>
      </trkpt>
      <trkpt lat="48.70308" lon="1.77221">
        <ele>178.2</ele>
        <time>2023-04-27T14:02:04Z</time>
      </trkpt>
      <trkpt lat="48.70309" lon="1.77223">
        <ele>178.2</ele>
        <time>2023-04-27T14:02:05Z</time>
      </trkpt>
      <trkpt lat="48.70311" lon="1.77225">
        <ele>178.4</ele>
        <time>2023-04-27T14:02:06Z</time>
      </trkpt>
      <trkpt lat="48.70313" lon="1.77227">
        <ele>178.4</ele>
        <time>2023-04-27T14:02:07Z</time>
      </trkpt>
      <trkpt lat="48.70315" lon="1.77229">
        <ele>178.6</ele>
        <time>2023-04-27T14:02:08Z</time>
      </trkpt>
      <trkpt lat="48.70317" lon="1.77232">
        <ele>178.6</ele>
        <time>2023-04-27T14:02:10Z</time>
      </trkpt>
      <trkpt lat="48.70319" lon="1.77234">
        <ele>178.8</ele>
        <time>2023-04-27T14:02:11Z</time>
      </trkpt>
      <trkpt lat="48.70321" lon="1.77235">
        <ele>178.8</ele>
        <time>2023-04-27T14:02:12Z</time>
      </trkpt>
      <trkpt lat="48.70323" lon="1.77238">
        <ele>178.6</ele>
        <time>2023-04-27T14:02:14Z</time>
      </trkpt>
      <trkpt lat="48.70326" lon="1.77243">
        <ele>178.6</ele>
        <time>2023-04-27T14:02:17Z</time>
      </trkpt>
      <trkpt lat="48.70327" lon="1.77245">
        <ele>178.2</ele>
        <time>2023-04-27T14:02:20Z</time>
      </trkpt>
      <trkpt lat="48.70329" lon="1.77248">
        <ele>177.4</ele>
        <time>2023-04-27T14:02:26Z</time>
      </trkpt>
      <trkpt lat="48.70331" lon="1.77251">
        <ele>177.4</ele>
        <time>2023-04-27T14:02:28Z</time>
      </trkpt>
      <trkpt lat="48.70332" lon="1.77252">
        <ele>177.2</ele>
        <time>2023-04-27T14:02:29Z</time>
      </trkpt>
      <trkpt lat="48.70336" lon="1.77256">
        <ele>177.4</ele>
        <time>2023-04-27T14:02:31Z</time>
      </trkpt>
      <trkpt lat="48.70337" lon="1.77257">
        <ele>177.4</ele>
        <time>2023-04-27T14:02:32Z</time>
      </trkpt>
      <trkpt lat="48.70339" lon="1.77259">
        <ele>177.4</ele>
        <time>2023-04-27T14:02:33Z</time>
      </trkpt>
      <trkpt lat="48.70341" lon="1.7726">
        <ele>177.4</ele>
        <time>2023-04-27T14:02:34Z</time>
      </trkpt>
      <trkpt lat="48.70342" lon="1.77262">
        <ele>177.4</ele>
        <time>2023-04-27T14:02:35Z</time>
      </trkpt>
      <trkpt lat="48.70345" lon="1.77265">
        <ele>177.2</ele>
        <time>2023-04-27T14:02:37Z</time>
      </trkpt>
      <trkpt lat="48.70347" lon="1.77267">
        <ele>177.2</ele>
        <time>2023-04-27T14:02:38Z</time>
      </trkpt>
      <trkpt lat="48.70349" lon="1.7727">
        <ele>177.2</ele>
        <time>2023-04-27T14:02:40Z</time>
      </trkpt>
      <trkpt lat="48.70351" lon="1.77272">
        <ele>177</ele>
        <time>2023-04-27T14:02:41Z</time>
      </trkpt>
      <trkpt lat="48.70353" lon="1.77274">
        <ele>177</ele>
        <time>2023-04-27T14:02:43Z</time>
      </trkpt>
      <trkpt lat="48.70356" lon="1.77277">
        <ele>177</ele>
        <time>2023-04-27T14:02:45Z</time>
      </trkpt>
      <trkpt lat="48.70358" lon="1.77279">
        <ele>177.2</ele>
        <time>2023-04-27T14:02:47Z</time>
      </trkpt>
      <trkpt lat="48.70361" lon="1.77281">
        <ele>177.2</ele>
        <time>2023-04-27T14:02:49Z</time>
      </trkpt>
      <trkpt lat="48.70363" lon="1.77284">
        <ele>177.4</ele>
        <time>2023-04-27T14:02:51Z</time>
      </trkpt>
      <trkpt lat="48.70365" lon="1.77286">
        <ele>177.4</ele>
        <time>2023-04-27T14:02:53Z</time>
      </trkpt>
      <trkpt lat="48.70368" lon="1.77289">
        <ele>177.6</ele>
        <time>2023-04-27T14:02:55Z</time>
      </trkpt>
      <trkpt lat="48.70369" lon="1.77291">
        <ele>177.6</ele>
        <time>2023-04-27T14:02:56Z</time>
      </trkpt>
      <trkpt lat="48.70371" lon="1.77292">
        <ele>177.6</ele>
        <time>2023-04-27T14:02:57Z</time>
      </trkpt>
      <trkpt lat="48.70372" lon="1.77294">
        <ele>177.8</ele>
        <time>2023-04-27T14:02:58Z</time>
      </trkpt>
      <trkpt lat="48.70375" lon="1.77298">
        <ele>177.8</ele>
        <time>2023-04-27T14:03:00Z</time>
      </trkpt>
      <trkpt lat="48.70376" lon="1.77302">
        <ele>178</ele>
        <time>2023-04-27T14:03:02Z</time>
      </trkpt>
      <trkpt lat="48.70377" lon="1.77306">
        <ele>178</ele>
        <time>2023-04-27T14:03:04Z</time>
      </trkpt>
      <trkpt lat="48.70376" lon="1.77311">
        <ele>178.2</ele>
        <time>2023-04-27T14:03:06Z</time>
      </trkpt>
      <trkpt lat="48.70375" lon="1.77314">
        <ele>178.2</ele>
        <time>2023-04-27T14:03:07Z</time>
      </trkpt>
      <trkpt lat="48.70374" lon="1.77316">
        <ele>178.4</ele>
        <time>2023-04-27T14:03:08Z</time>
      </trkpt>
      <trkpt lat="48.70373" lon="1.77319">
        <ele>178.4</ele>
        <time>2023-04-27T14:03:09Z</time>
      </trkpt>
      <trkpt lat="48.70373" lon="1.77322">
        <ele>178.6</ele>
        <time>2023-04-27T14:03:10Z</time>
      </trkpt>
      <trkpt lat="48.70371" lon="1.77326">
        <ele>178.8</ele>
        <time>2023-04-27T14:03:12Z</time>
      </trkpt>
      <trkpt lat="48.7037" lon="1.77331">
        <ele>179.2</ele>
        <time>2023-04-27T14:03:14Z</time>
      </trkpt>
      <trkpt lat="48.70368" lon="1.77336">
        <ele>179.4</ele>
        <time>2023-04-27T14:03:16Z</time>
      </trkpt>
      <trkpt lat="48.70366" lon="1.7734">
        <ele>179.8</ele>
        <time>2023-04-27T14:03:18Z</time>
      </trkpt>
      <trkpt lat="48.70365" lon="1.77344">
        <ele>180</ele>
        <time>2023-04-27T14:03:20Z</time>
      </trkpt>
      <trkpt lat="48.70364" lon="1.77348">
        <ele>180.4</ele>
        <time>2023-04-27T14:03:22Z</time>
      </trkpt>
      <trkpt lat="48.70363" lon="1.77352">
        <ele>180.6</ele>
        <time>2023-04-27T14:03:24Z</time>
      </trkpt>
      <trkpt lat="48.70362" lon="1.77356">
        <ele>181</ele>
        <time>2023-04-27T14:03:26Z</time>
      </trkpt>
      <trkpt lat="48.70361" lon="1.7736">
        <ele>181.2</ele>
        <time>2023-04-27T14:03:28Z</time>
      </trkpt>
      <trkpt lat="48.7036" lon="1.77364">
        <ele>181.4</ele>
        <time>2023-04-27T14:03:30Z</time>
      </trkpt>
      <trkpt lat="48.70359" lon="1.77368">
        <ele>181.6</ele>
        <time>2023-04-27T14:03:32Z</time>
      </trkpt>
      <trkpt lat="48.70357" lon="1.77369">
        <ele>181.6</ele>
        <time>2023-04-27T14:03:33Z</time>
      </trkpt>
      <trkpt lat="48.70356" lon="1.77373">
        <ele>181.8</ele>
        <time>2023-04-27T14:03:35Z</time>
      </trkpt>
      <trkpt lat="48.70353" lon="1.77377">
        <ele>181.8</ele>
        <time>2023-04-27T14:03:37Z</time>
      </trkpt>
      <trkpt lat="48.70351" lon="1.7738">
        <ele>182</ele>
        <time>2023-04-27T14:03:39Z</time>
      </trkpt>
      <trkpt lat="48.7035" lon="1.77384">
        <ele>182</ele>
        <time>2023-04-27T14:03:41Z</time>
      </trkpt>
      <trkpt lat="48.70349" lon="1.77388">
        <ele>182.2</ele>
        <time>2023-04-27T14:03:43Z</time>
      </trkpt>
      <trkpt lat="48.70349" lon="1.77393">
        <ele>182.6</ele>
        <time>2023-04-27T14:03:45Z</time>
      </trkpt>
      <trkpt lat="48.70349" lon="1.77398">
        <ele>183</ele>
        <time>2023-04-27T14:03:47Z</time>
      </trkpt>
      <trkpt lat="48.7035" lon="1.77403">
        <ele>183.4</ele>
        <time>2023-04-27T14:03:49Z</time>
      </trkpt>
      <trkpt lat="48.70351" lon="1.77405">
        <ele>183.6</ele>
        <time>2023-04-27T14:03:50Z</time>
      </trkpt>
      <trkpt lat="48.70351" lon="1.77408">
        <ele>183.8</ele>
        <time>2023-04-27T14:03:51Z</time>
      </trkpt>
      <trkpt lat="48.70351" lon="1.77411">
        <ele>184</ele>
        <time>2023-04-27T14:03:52Z</time>
      </trkpt>
      <trkpt lat="48.7035" lon="1.77416">
        <ele>184.2</ele>
        <time>2023-04-27T14:03:54Z</time>
      </trkpt>
      <trkpt lat="48.7035" lon="1.77419">
        <ele>184.4</ele>
        <time>2023-04-27T14:03:55Z</time>
      </trkpt>
      <trkpt lat="48.70349" lon="1.77424">
        <ele>184.6</ele>
        <time>2023-04-27T14:03:57Z</time>
      </trkpt>
      <trkpt lat="48.70349" lon="1.77429">
        <ele>184.6</ele>
        <time>2023-04-27T14:03:59Z</time>
      </trkpt>
      <trkpt lat="48.70349" lon="1.77434">
        <ele>184.6</ele>
        <time>2023-04-27T14:04:01Z</time>
      </trkpt>
      <trkpt lat="48.7035" lon="1.77437">
        <ele>184.8</ele>
        <time>2023-04-27T14:04:02Z</time>
      </trkpt>
      <trkpt lat="48.70351" lon="1.7744">
        <ele>184.8</ele>
        <time>2023-04-27T14:04:03Z</time>
      </trkpt>
      <trkpt lat="48.70351" lon="1.77442">
        <ele>184.8</ele>
        <time>2023-04-27T14:04:04Z</time>
      </trkpt>
      <trkpt lat="48.70352" lon="1.77445">
        <ele>184.8</ele>
        <time>2023-04-27T14:04:05Z</time>
      </trkpt>
      <trkpt lat="48.70353" lon="1.7745">
        <ele>185</ele>
        <time>2023-04-27T14:04:07Z</time>
      </trkpt>
      <trkpt lat="48.70355" lon="1.77453">
        <ele>185</ele>
        <time>2023-04-27T14:04:09Z</time>
      </trkpt>
      <trkpt lat="48.70356" lon="1.77456">
        <ele>185</ele>
        <time>2023-04-27T14:04:11Z</time>
      </trkpt>
      <trkpt lat="48.70357" lon="1.7746">
        <ele>185</ele>
        <time>2023-04-27T14:04:13Z</time>
      </trkpt>
      <trkpt lat="48.70358" lon="1.77465">
        <ele>185</ele>
        <time>2023-04-27T14:04:15Z</time>
      </trkpt>
      <trkpt lat="48.70358" lon="1.77468">
        <ele>185</ele>
        <time>2023-04-27T14:04:16Z</time>
      </trkpt>
      <trkpt lat="48.70359" lon="1.77471">
        <ele>185</ele>
        <time>2023-04-27T14:04:17Z</time>
      </trkpt>
      <trkpt lat="48.7036" lon="1.77475">
        <ele>185</ele>
        <time>2023-04-27T14:04:19Z</time>
      </trkpt>
      <trkpt lat="48.70362" lon="1.77478">
        <ele>185</ele>
        <time>2023-04-27T14:04:21Z</time>
      </trkpt>
      <trkpt lat="48.70363" lon="1.77481">
        <ele>185</ele>
        <time>2023-04-27T14:04:23Z</time>
      </trkpt>
      <trkpt lat="48.70364" lon="1.77484">
        <ele>185</ele>
        <time>2023-04-27T14:04:25Z</time>
      </trkpt>
      <trkpt lat="48.70364" lon="1.77488">
        <ele>185.2</ele>
        <time>2023-04-27T14:04:27Z</time>
      </trkpt>
      <trkpt lat="48.70364" lon="1.77492">
        <ele>185.2</ele>
        <time>2023-04-27T14:04:29Z</time>
      </trkpt>
      <trkpt lat="48.70365" lon="1.77497">
        <ele>185.4</ele>
        <time>2023-04-27T14:04:31Z</time>
      </trkpt>
      <trkpt lat="48.70365" lon="1.77502">
        <ele>185.6</ele>
        <time>2023-04-27T14:04:33Z</time>
      </trkpt>
      <trkpt lat="48.70365" lon="1.77506">
        <ele>185.8</ele>
        <time>2023-04-27T14:04:35Z</time>
      </trkpt>
      <trkpt lat="48.70365" lon="1.77511">
        <ele>186.2</ele>
        <time>2023-04-27T14:04:37Z</time>
      </trkpt>
      <trkpt lat="48.70364" lon="1.77515">
        <ele>186.6</ele>
        <time>2023-04-27T14:04:39Z</time>
      </trkpt>
      <trkpt lat="48.70363" lon="1.77519">
        <ele>187</ele>
        <time>2023-04-27T14:04:41Z</time>
      </trkpt>
      <trkpt lat="48.70363" lon="1.77524">
        <ele>187.4</ele>
        <time>2023-04-27T14:04:43Z</time>
      </trkpt>
      <trkpt lat="48.70364" lon="1.77529">
        <ele>187.8</ele>
        <time>2023-04-27T14:04:45Z</time>
      </trkpt>
      <trkpt lat="48.70364" lon="1.77534">
        <ele>188.4</ele>
        <time>2023-04-27T14:04:47Z</time>
      </trkpt>
      <trkpt lat="48.70365" lon="1.77539">
        <ele>188.6</ele>
        <time>2023-04-27T14:04:49Z</time>
      </trkpt>
      <trkpt lat="48.70366" lon="1.77543">
        <ele>189</ele>
        <time>2023-04-27T14:04:51Z</time>
      </trkpt>
      <trkpt lat="48.70367" lon="1.77548">
        <ele>189.2</ele>
        <time>2023-04-27T14:04:53Z</time>
      </trkpt>
      <trkpt lat="48.70368" lon="1.77552">
        <ele>189.6</ele>
        <time>2023-04-27T14:04:55Z</time>
      </trkpt>
      <trkpt lat="48.70369" lon="1.77557">
        <ele>189.8</ele>
        <time>2023-04-27T14:04:57Z</time>
      </trkpt>
      <trkpt lat="48.70369" lon="1.77563">
        <ele>190</ele>
        <time>2023-04-27T14:04:59Z</time>
      </trkpt>
      <trkpt lat="48.70369" lon="1.77568">
        <ele>190.2</ele>
        <time>2023-04-27T14:05:01Z</time>
      </trkpt>
      <trkpt lat="48.70369" lon="1.77571">
        <ele>190.2</ele>
        <time>2023-04-27T14:05:02Z</time>
      </trkpt>
      <trkpt lat="48.7037" lon="1.77574">
        <ele>190.4</ele>
        <time>2023-04-27T14:05:03Z</time>
      </trkpt>
      <trkpt lat="48.7037" lon="1.77576">
        <ele>190.6</ele>
        <time>2023-04-27T14:05:04Z</time>
      </trkpt>
      <trkpt lat="48.70371" lon="1.77582">
        <ele>190.8</ele>
        <time>2023-04-27T14:05:06Z</time>
      </trkpt>
      <trkpt lat="48.70372" lon="1.77584">
        <ele>191</ele>
        <time>2023-04-27T14:05:07Z</time>
      </trkpt>
      <trkpt lat="48.70373" lon="1.77587">
        <ele>191.2</ele>
        <time>2023-04-27T14:05:08Z</time>
      </trkpt>
      <trkpt lat="48.70373" lon="1.77592">
        <ele>191.4</ele>
        <time>2023-04-27T14:05:10Z</time>
      </trkpt>
      <trkpt lat="48.70373" lon="1.77595">
        <ele>191.4</ele>
        <time>2023-04-27T14:05:11Z</time>
      </trkpt>
      <trkpt lat="48.70373" lon="1.77598">
        <ele>191.4</ele>
        <time>2023-04-27T14:05:12Z</time>
      </trkpt>
      <trkpt lat="48.70372" lon="1.77601">
        <ele>191.4</ele>
        <time>2023-04-27T14:05:13Z</time>
      </trkpt>
      <trkpt lat="48.70372" lon="1.77603">
        <ele>191.4</ele>
        <time>2023-04-27T14:05:14Z</time>
      </trkpt>
      <trkpt lat="48.70372" lon="1.77606">
        <ele>191.6</ele>
        <time>2023-04-27T14:05:15Z</time>
      </trkpt>
      <trkpt lat="48.70373" lon="1.77609">
        <ele>191.6</ele>
        <time>2023-04-27T14:05:16Z</time>
      </trkpt>
      <trkpt lat="48.70373" lon="1.77612">
        <ele>191.6</ele>
        <time>2023-04-27T14:05:17Z</time>
      </trkpt>
      <trkpt lat="48.70374" lon="1.77615">
        <ele>191.6</ele>
        <time>2023-04-27T14:05:18Z</time>
      </trkpt>
      <trkpt lat="48.70375" lon="1.77618">
        <ele>191.6</ele>
        <time>2023-04-27T14:05:19Z</time>
      </trkpt>
      <trkpt lat="48.70377" lon="1.7762">
        <ele>191.6</ele>
        <time>2023-04-27T14:05:20Z</time>
      </trkpt>
      <trkpt lat="48.70378" lon="1.77623">
        <ele>191.6</ele>
        <time>2023-04-27T14:05:21Z</time>
      </trkpt>
      <trkpt lat="48.70379" lon="1.77625">
        <ele>191.6</ele>
        <time>2023-04-27T14:05:22Z</time>
      </trkpt>
      <trkpt lat="48.7038" lon="1.77628">
        <ele>191.6</ele>
        <time>2023-04-27T14:05:23Z</time>
      </trkpt>
      <trkpt lat="48.70381" lon="1.77632">
        <ele>191.4</ele>
        <time>2023-04-27T14:05:25Z</time>
      </trkpt>
      <trkpt lat="48.70381" lon="1.77636">
        <ele>191.4</ele>
        <time>2023-04-27T14:05:27Z</time>
      </trkpt>
      <trkpt lat="48.70381" lon="1.7764">
        <ele>191.4</ele>
        <time>2023-04-27T14:05:29Z</time>
      </trkpt>
      <trkpt lat="48.7038" lon="1.77644">
        <ele>191.4</ele>
        <time>2023-04-27T14:05:31Z</time>
      </trkpt>
      <trkpt lat="48.7038" lon="1.77648">
        <ele>191.2</ele>
        <time>2023-04-27T14:05:33Z</time>
      </trkpt>
      <trkpt lat="48.70381" lon="1.77652">
        <ele>191.2</ele>
        <time>2023-04-27T14:05:35Z</time>
      </trkpt>
      <trkpt lat="48.70383" lon="1.77656">
        <ele>191</ele>
        <time>2023-04-27T14:05:37Z</time>
      </trkpt>
      <trkpt lat="48.70384" lon="1.77661">
        <ele>190.8</ele>
        <time>2023-04-27T14:05:39Z</time>
      </trkpt>
      <trkpt lat="48.70386" lon="1.77666">
        <ele>190.6</ele>
        <time>2023-04-27T14:05:41Z</time>
      </trkpt>
      <trkpt lat="48.70387" lon="1.77671">
        <ele>190.2</ele>
        <time>2023-04-27T14:05:43Z</time>
      </trkpt>
      <trkpt lat="48.70387" lon="1.77676">
        <ele>190</ele>
        <time>2023-04-27T14:05:45Z</time>
      </trkpt>
      <trkpt lat="48.70388" lon="1.77679">
        <ele>190</ele>
        <time>2023-04-27T14:05:46Z</time>
      </trkpt>
      <trkpt lat="48.70389" lon="1.77683">
        <ele>190</ele>
        <time>2023-04-27T14:05:48Z</time>
      </trkpt>
      <trkpt lat="48.70389" lon="1.77687">
        <ele>189.8</ele>
        <time>2023-04-27T14:05:50Z</time>
      </trkpt>
      <trkpt lat="48.70389" lon="1.77691">
        <ele>189.8</ele>
        <time>2023-04-27T14:05:52Z</time>
      </trkpt>
      <trkpt lat="48.70389" lon="1.77695">
        <ele>189.6</ele>
        <time>2023-04-27T14:05:54Z</time>
      </trkpt>
      <trkpt lat="48.7039" lon="1.777">
        <ele>189.4</ele>
        <time>2023-04-27T14:05:56Z</time>
      </trkpt>
      <trkpt lat="48.70391" lon="1.77704">
        <ele>189.2</ele>
        <time>2023-04-27T14:05:58Z</time>
      </trkpt>
      <trkpt lat="48.70392" lon="1.77708">
        <ele>189.2</ele>
        <time>2023-04-27T14:06:00Z</time>
      </trkpt>
      <trkpt lat="48.70393" lon="1.77713">
        <ele>189</ele>
        <time>2023-04-27T14:06:02Z</time>
      </trkpt>
      <trkpt lat="48.70394" lon="1.77717">
        <ele>188.8</ele>
        <time>2023-04-27T14:06:04Z</time>
      </trkpt>
      <trkpt lat="48.70393" lon="1.77721">
        <ele>188.6</ele>
        <time>2023-04-27T14:06:06Z</time>
      </trkpt>
      <trkpt lat="48.70393" lon="1.77725">
        <ele>188.4</ele>
        <time>2023-04-27T14:06:08Z</time>
      </trkpt>
      <trkpt lat="48.70393" lon="1.77729">
        <ele>188</ele>
        <time>2023-04-27T14:06:10Z</time>
      </trkpt>
      <trkpt lat="48.70394" lon="1.77733">
        <ele>187.8</ele>
        <time>2023-04-27T14:06:12Z</time>
      </trkpt>
      <trkpt lat="48.70395" lon="1.77737">
        <ele>187.4</ele>
        <time>2023-04-27T14:06:14Z</time>
      </trkpt>
      <trkpt lat="48.70396" lon="1.7774">
        <ele>187.4</ele>
        <time>2023-04-27T14:06:15Z</time>
      </trkpt>
      <trkpt lat="48.70397" lon="1.77742">
        <ele>187.2</ele>
        <time>2023-04-27T14:06:16Z</time>
      </trkpt>
      <trkpt lat="48.70399" lon="1.77744">
        <ele>187</ele>
        <time>2023-04-27T14:06:17Z</time>
      </trkpt>
      <trkpt lat="48.704" lon="1.77747">
        <ele>187</ele>
        <time>2023-04-27T14:06:18Z</time>
      </trkpt>
      <trkpt lat="48.70402" lon="1.77749">
        <ele>186.8</ele>
        <time>2023-04-27T14:06:19Z</time>
      </trkpt>
      <trkpt lat="48.70403" lon="1.77751">
        <ele>186.8</ele>
        <time>2023-04-27T14:06:20Z</time>
      </trkpt>
      <trkpt lat="48.70404" lon="1.77754">
        <ele>186.6</ele>
        <time>2023-04-27T14:06:21Z</time>
      </trkpt>
      <trkpt lat="48.70405" lon="1.77756">
        <ele>186.6</ele>
        <time>2023-04-27T14:06:22Z</time>
      </trkpt>
      <trkpt lat="48.70406" lon="1.77759">
        <ele>186.6</ele>
        <time>2023-04-27T14:06:23Z</time>
      </trkpt>
      <trkpt lat="48.70407" lon="1.77763">
        <ele>186.6</ele>
        <time>2023-04-27T14:06:25Z</time>
      </trkpt>
      <trkpt lat="48.70408" lon="1.77767">
        <ele>186.6</ele>
        <time>2023-04-27T14:06:27Z</time>
      </trkpt>
      <trkpt lat="48.70408" lon="1.7777">
        <ele>186.8</ele>
        <time>2023-04-27T14:06:29Z</time>
      </trkpt>
      <trkpt lat="48.70409" lon="1.77774">
        <ele>186.8</ele>
        <time>2023-04-27T14:06:31Z</time>
      </trkpt>
      <trkpt lat="48.7041" lon="1.77778">
        <ele>187</ele>
        <time>2023-04-27T14:06:33Z</time>
      </trkpt>
      <trkpt lat="48.70412" lon="1.77782">
        <ele>187.2</ele>
        <time>2023-04-27T14:06:35Z</time>
      </trkpt>
      <trkpt lat="48.70413" lon="1.77787">
        <ele>187.4</ele>
        <time>2023-04-27T14:06:37Z</time>
      </trkpt>
      <trkpt lat="48.70413" lon="1.77791">
        <ele>187.4</ele>
        <time>2023-04-27T14:06:39Z</time>
      </trkpt>
      <trkpt lat="48.70413" lon="1.77795">
        <ele>187.6</ele>
        <time>2023-04-27T14:06:41Z</time>
      </trkpt>
      <trkpt lat="48.70413" lon="1.77799">
        <ele>187.8</ele>
        <time>2023-04-27T14:06:43Z</time>
      </trkpt>
      <trkpt lat="48.70415" lon="1.77803">
        <ele>187.8</ele>
        <time>2023-04-27T14:06:45Z</time>
      </trkpt>
      <trkpt lat="48.70417" lon="1.77806">
        <ele>187.8</ele>
        <time>2023-04-27T14:06:46Z</time>
      </trkpt>
      <trkpt lat="48.70418" lon="1.77808">
        <ele>188</ele>
        <time>2023-04-27T14:06:47Z</time>
      </trkpt>
      <trkpt lat="48.70419" lon="1.77811">
        <ele>188</ele>
        <time>2023-04-27T14:06:48Z</time>
      </trkpt>
      <trkpt lat="48.7042" lon="1.77814">
        <ele>188</ele>
        <time>2023-04-27T14:06:49Z</time>
      </trkpt>
      <trkpt lat="48.70421" lon="1.77816">
        <ele>188</ele>
        <time>2023-04-27T14:06:50Z</time>
      </trkpt>
      <trkpt lat="48.70422" lon="1.77819">
        <ele>188.2</ele>
        <time>2023-04-27T14:06:51Z</time>
      </trkpt>
      <trkpt lat="48.70423" lon="1.77824">
        <ele>188.4</ele>
        <time>2023-04-27T14:06:53Z</time>
      </trkpt>
      <trkpt lat="48.70425" lon="1.77828">
        <ele>188.6</ele>
        <time>2023-04-27T14:06:55Z</time>
      </trkpt>
      <trkpt lat="48.70426" lon="1.77832">
        <ele>188.8</ele>
        <time>2023-04-27T14:06:57Z</time>
      </trkpt>
      <trkpt lat="48.70427" lon="1.77835">
        <ele>189</ele>
        <time>2023-04-27T14:06:59Z</time>
      </trkpt>
      <trkpt lat="48.70427" lon="1.77839">
        <ele>189.2</ele>
        <time>2023-04-27T14:07:01Z</time>
      </trkpt>
      <trkpt lat="48.70427" lon="1.77844">
        <ele>189.4</ele>
        <time>2023-04-27T14:07:03Z</time>
      </trkpt>
      <trkpt lat="48.70427" lon="1.77848">
        <ele>189.6</ele>
        <time>2023-04-27T14:07:05Z</time>
      </trkpt>
      <trkpt lat="48.70428" lon="1.77853">
        <ele>189.6</ele>
        <time>2023-04-27T14:07:07Z</time>
      </trkpt>
      <trkpt lat="48.70429" lon="1.77856">
        <ele>189.6</ele>
        <time>2023-04-27T14:07:08Z</time>
      </trkpt>
      <trkpt lat="48.7043" lon="1.77858">
        <ele>189.4</ele>
        <time>2023-04-27T14:07:09Z</time>
      </trkpt>
      <trkpt lat="48.7043" lon="1.77862">
        <ele>189.4</ele>
        <time>2023-04-27T14:07:10Z</time>
      </trkpt>
      <trkpt lat="48.7043" lon="1.77865">
        <ele>189.4</ele>
        <time>2023-04-27T14:07:11Z</time>
      </trkpt>
      <trkpt lat="48.70431" lon="1.77868">
        <ele>189.2</ele>
        <time>2023-04-27T14:07:12Z</time>
      </trkpt>
      <trkpt lat="48.70431" lon="1.77871">
        <ele>189.2</ele>
        <time>2023-04-27T14:07:13Z</time>
      </trkpt>
      <trkpt lat="48.7043" lon="1.77874">
        <ele>189.2</ele>
        <time>2023-04-27T14:07:14Z</time>
      </trkpt>
      <trkpt lat="48.7043" lon="1.77879">
        <ele>189.2</ele>
        <time>2023-04-27T14:07:16Z</time>
      </trkpt>
      <trkpt lat="48.7043" lon="1.77883">
        <ele>189.2</ele>
        <time>2023-04-27T14:07:18Z</time>
      </trkpt>
      <trkpt lat="48.7043" lon="1.77888">
        <ele>189.2</ele>
        <time>2023-04-27T14:07:20Z</time>
      </trkpt>
      <trkpt lat="48.7043" lon="1.77892">
        <ele>189.2</ele>
        <time>2023-04-27T14:07:22Z</time>
      </trkpt>
      <trkpt lat="48.7043" lon="1.77898">
        <ele>189.2</ele>
        <time>2023-04-27T14:07:24Z</time>
      </trkpt>
      <trkpt lat="48.7043" lon="1.77903">
        <ele>189</ele>
        <time>2023-04-27T14:07:26Z</time>
      </trkpt>
      <trkpt lat="48.7043" lon="1.77908">
        <ele>189</ele>
        <time>2023-04-27T14:07:28Z</time>
      </trkpt>
      <trkpt lat="48.70429" lon="1.77912">
        <ele>189.2</ele>
        <time>2023-04-27T14:07:30Z</time>
      </trkpt>
      <trkpt lat="48.7043" lon="1.77916">
        <ele>189.2</ele>
        <time>2023-04-27T14:07:32Z</time>
      </trkpt>
      <trkpt lat="48.7043" lon="1.77921">
        <ele>189</ele>
        <time>2023-04-27T14:07:34Z</time>
      </trkpt>
      <trkpt lat="48.7043" lon="1.77926">
        <ele>189</ele>
        <time>2023-04-27T14:07:36Z</time>
      </trkpt>
      <trkpt lat="48.7043" lon="1.77929">
        <ele>189</ele>
        <time>2023-04-27T14:07:37Z</time>
      </trkpt>
      <trkpt lat="48.7043" lon="1.77932">
        <ele>189</ele>
        <time>2023-04-27T14:07:38Z</time>
      </trkpt>
      <trkpt lat="48.7043" lon="1.77937">
        <ele>188.8</ele>
        <time>2023-04-27T14:07:40Z</time>
      </trkpt>
      <trkpt lat="48.7043" lon="1.77942">
        <ele>188.8</ele>
        <time>2023-04-27T14:07:42Z</time>
      </trkpt>
      <trkpt lat="48.7043" lon="1.77946">
        <ele>188.8</ele>
        <time>2023-04-27T14:07:44Z</time>
      </trkpt>
      <trkpt lat="48.70432" lon="1.7795">
        <ele>188.6</ele>
        <time>2023-04-27T14:07:46Z</time>
      </trkpt>
      <trkpt lat="48.70433" lon="1.77953">
        <ele>188.6</ele>
        <time>2023-04-27T14:07:47Z</time>
      </trkpt>
      <trkpt lat="48.70435" lon="1.77955">
        <ele>188.6</ele>
        <time>2023-04-27T14:07:48Z</time>
      </trkpt>
      <trkpt lat="48.70436" lon="1.77958">
        <ele>188.4</ele>
        <time>2023-04-27T14:07:49Z</time>
      </trkpt>
      <trkpt lat="48.70438" lon="1.77961">
        <ele>188.4</ele>
        <time>2023-04-27T14:07:50Z</time>
      </trkpt>
      <trkpt lat="48.7044" lon="1.77964">
        <ele>188.2</ele>
        <time>2023-04-27T14:07:51Z</time>
      </trkpt>
      <trkpt lat="48.70443" lon="1.77967">
        <ele>188</ele>
        <time>2023-04-27T14:07:52Z</time>
      </trkpt>
      <trkpt lat="48.70444" lon="1.77971">
        <ele>188</ele>
        <time>2023-04-27T14:07:53Z</time>
      </trkpt>
      <trkpt lat="48.70446" lon="1.77975">
        <ele>188</ele>
        <time>2023-04-27T14:07:54Z</time>
      </trkpt>
      <trkpt lat="48.70446" lon="1.77979">
        <ele>187.8</ele>
        <time>2023-04-27T14:07:55Z</time>
      </trkpt>
      <trkpt lat="48.70446" lon="1.77983">
        <ele>187.8</ele>
        <time>2023-04-27T14:07:56Z</time>
      </trkpt>
      <trkpt lat="48.70445" lon="1.77987">
        <ele>187.6</ele>
        <time>2023-04-27T14:07:57Z</time>
      </trkpt>
      <trkpt lat="48.70443" lon="1.77991">
        <ele>187.4</ele>
        <time>2023-04-27T14:07:58Z</time>
      </trkpt>
      <trkpt lat="48.70441" lon="1.77993">
        <ele>187.4</ele>
        <time>2023-04-27T14:07:59Z</time>
      </trkpt>
      <trkpt lat="48.70439" lon="1.77996">
        <ele>187.2</ele>
        <time>2023-04-27T14:08:00Z</time>
      </trkpt>
      <trkpt lat="48.70438" lon="1.77998">
        <ele>187.2</ele>
        <time>2023-04-27T14:08:01Z</time>
      </trkpt>
      <trkpt lat="48.70436" lon="1.78">
        <ele>187.2</ele>
        <time>2023-04-27T14:08:02Z</time>
      </trkpt>
      <trkpt lat="48.70435" lon="1.78004">
        <ele>187</ele>
        <time>2023-04-27T14:08:04Z</time>
      </trkpt>
      <trkpt lat="48.70435" lon="1.78007">
        <ele>186.8</ele>
        <time>2023-04-27T14:08:06Z</time>
      </trkpt>
      <trkpt lat="48.70436" lon="1.78011">
        <ele>186.6</ele>
        <time>2023-04-27T14:08:08Z</time>
      </trkpt>
      <trkpt lat="48.70438" lon="1.78013">
        <ele>186.4</ele>
        <time>2023-04-27T14:08:09Z</time>
      </trkpt>
      <trkpt lat="48.7044" lon="1.78015">
        <ele>186.2</ele>
        <time>2023-04-27T14:08:10Z</time>
      </trkpt>
      <trkpt lat="48.70442" lon="1.78018">
        <ele>186.2</ele>
        <time>2023-04-27T14:08:11Z</time>
      </trkpt>
      <trkpt lat="48.70444" lon="1.7802">
        <ele>186</ele>
        <time>2023-04-27T14:08:12Z</time>
      </trkpt>
      <trkpt lat="48.70446" lon="1.78023">
        <ele>185.8</ele>
        <time>2023-04-27T14:08:13Z</time>
      </trkpt>
      <trkpt lat="48.70448" lon="1.78025">
        <ele>185.8</ele>
        <time>2023-04-27T14:08:14Z</time>
      </trkpt>
      <trkpt lat="48.70449" lon="1.7803">
        <ele>185.6</ele>
        <time>2023-04-27T14:08:16Z</time>
      </trkpt>
      <trkpt lat="48.7045" lon="1.78034">
        <ele>185.6</ele>
        <time>2023-04-27T14:08:18Z</time>
      </trkpt>
      <trkpt lat="48.70451" lon="1.78037">
        <ele>185.6</ele>
        <time>2023-04-27T14:08:20Z</time>
      </trkpt>
      <trkpt lat="48.70451" lon="1.7804">
        <ele>185.6</ele>
        <time>2023-04-27T14:08:22Z</time>
      </trkpt>
      <trkpt lat="48.70452" lon="1.78043">
        <ele>185.6</ele>
        <time>2023-04-27T14:08:24Z</time>
      </trkpt>
      <trkpt lat="48.70451" lon="1.78046">
        <ele>185.8</ele>
        <time>2023-04-27T14:08:26Z</time>
      </trkpt>
      <trkpt lat="48.70451" lon="1.78049">
        <ele>185.8</ele>
        <time>2023-04-27T14:08:29Z</time>
      </trkpt>
      <trkpt lat="48.70452" lon="1.78052">
        <ele>186</ele>
        <time>2023-04-27T14:08:31Z</time>
      </trkpt>
      <trkpt lat="48.70453" lon="1.78055">
        <ele>186</ele>
        <time>2023-04-27T14:08:33Z</time>
      </trkpt>
      <trkpt lat="48.70454" lon="1.78058">
        <ele>186.2</ele>
        <time>2023-04-27T14:08:35Z</time>
      </trkpt>
      <trkpt lat="48.70454" lon="1.78061">
        <ele>186.2</ele>
        <time>2023-04-27T14:08:37Z</time>
      </trkpt>
      <trkpt lat="48.70453" lon="1.78064">
        <ele>186.6</ele>
        <time>2023-04-27T14:08:40Z</time>
      </trkpt>
      <trkpt lat="48.70453" lon="1.78067">
        <ele>186.6</ele>
        <time>2023-04-27T14:08:42Z</time>
      </trkpt>
      <trkpt lat="48.70452" lon="1.7807">
        <ele>186.8</ele>
        <time>2023-04-27T14:08:44Z</time>
      </trkpt>
      <trkpt lat="48.70453" lon="1.78074">
        <ele>187</ele>
        <time>2023-04-27T14:08:46Z</time>
      </trkpt>
      <trkpt lat="48.70454" lon="1.78078">
        <ele>187</ele>
        <time>2023-04-27T14:08:48Z</time>
      </trkpt>
      <trkpt lat="48.70455" lon="1.78083">
        <ele>187</ele>
        <time>2023-04-27T14:08:50Z</time>
      </trkpt>
      <trkpt lat="48.70456" lon="1.78086">
        <ele>187</ele>
        <time>2023-04-27T14:08:51Z</time>
      </trkpt>
      <trkpt lat="48.70457" lon="1.78091">
        <ele>187</ele>
        <time>2023-04-27T14:08:53Z</time>
      </trkpt>
      <trkpt lat="48.70458" lon="1.78096">
        <ele>187.2</ele>
        <time>2023-04-27T14:08:55Z</time>
      </trkpt>
      <trkpt lat="48.70458" lon="1.781">
        <ele>187.6</ele>
        <time>2023-04-27T14:08:57Z</time>
      </trkpt>
      <trkpt lat="48.70459" lon="1.78103">
        <ele>187.8</ele>
        <time>2023-04-27T14:08:59Z</time>
      </trkpt>
      <trkpt lat="48.70458" lon="1.78107">
        <ele>187.8</ele>
        <time>2023-04-27T14:09:01Z</time>
      </trkpt>
      <trkpt lat="48.70458" lon="1.78112">
        <ele>188</ele>
        <time>2023-04-27T14:09:03Z</time>
      </trkpt>
      <trkpt lat="48.70458" lon="1.78115">
        <ele>188</ele>
        <time>2023-04-27T14:09:04Z</time>
      </trkpt>
      <trkpt lat="48.70458" lon="1.78117">
        <ele>188</ele>
        <time>2023-04-27T14:09:05Z</time>
      </trkpt>
      <trkpt lat="48.70458" lon="1.7812">
        <ele>188</ele>
        <time>2023-04-27T14:09:06Z</time>
      </trkpt>
      <trkpt lat="48.70459" lon="1.78123">
        <ele>188</ele>
        <time>2023-04-27T14:09:07Z</time>
      </trkpt>
      <trkpt lat="48.7046" lon="1.78126">
        <ele>188</ele>
        <time>2023-04-27T14:09:08Z</time>
      </trkpt>
      <trkpt lat="48.7046" lon="1.7813">
        <ele>188</ele>
        <time>2023-04-27T14:09:10Z</time>
      </trkpt>
      <trkpt lat="48.7046" lon="1.78135">
        <ele>188.2</ele>
        <time>2023-04-27T14:09:12Z</time>
      </trkpt>
      <trkpt lat="48.7046" lon="1.78139">
        <ele>188.2</ele>
        <time>2023-04-27T14:09:14Z</time>
      </trkpt>
      <trkpt lat="48.7046" lon="1.78142">
        <ele>188.4</ele>
        <time>2023-04-27T14:09:16Z</time>
      </trkpt>
      <trkpt lat="48.7046" lon="1.78146">
        <ele>188.6</ele>
        <time>2023-04-27T14:09:18Z</time>
      </trkpt>
      <trkpt lat="48.7046" lon="1.7815">
        <ele>188.8</ele>
        <time>2023-04-27T14:09:20Z</time>
      </trkpt>
      <trkpt lat="48.7046" lon="1.78155">
        <ele>188.8</ele>
        <time>2023-04-27T14:09:22Z</time>
      </trkpt>
      <trkpt lat="48.7046" lon="1.78158">
        <ele>189</ele>
        <time>2023-04-27T14:09:23Z</time>
      </trkpt>
      <trkpt lat="48.70462" lon="1.78164">
        <ele>189</ele>
        <time>2023-04-27T14:09:24Z</time>
      </trkpt>
      <trkpt lat="48.70463" lon="1.78169">
        <ele>189</ele>
        <time>2023-04-27T14:09:25Z</time>
      </trkpt>
      <trkpt lat="48.70465" lon="1.78176">
        <ele>189.2</ele>
        <time>2023-04-27T14:09:26Z</time>
      </trkpt>
      <trkpt lat="48.70468" lon="1.78182">
        <ele>189.2</ele>
        <time>2023-04-27T14:09:27Z</time>
      </trkpt>
      <trkpt lat="48.70469" lon="1.78187">
        <ele>189.2</ele>
        <time>2023-04-27T14:09:28Z</time>
      </trkpt>
      <trkpt lat="48.70471" lon="1.78192">
        <ele>189.2</ele>
        <time>2023-04-27T14:09:29Z</time>
      </trkpt>
      <trkpt lat="48.70472" lon="1.78196">
        <ele>189.4</ele>
        <time>2023-04-27T14:09:30Z</time>
      </trkpt>
      <trkpt lat="48.70472" lon="1.78199">
        <ele>189.4</ele>
        <time>2023-04-27T14:09:31Z</time>
      </trkpt>
      <trkpt lat="48.70472" lon="1.78201">
        <ele>189.4</ele>
        <time>2023-04-27T14:09:32Z</time>
      </trkpt>
      <trkpt lat="48.70471" lon="1.78206">
        <ele>189.2</ele>
        <time>2023-04-27T14:09:34Z</time>
      </trkpt>
      <trkpt lat="48.7047" lon="1.78209">
        <ele>189.2</ele>
        <time>2023-04-27T14:09:36Z</time>
      </trkpt>
      <trkpt lat="48.7047" lon="1.78213">
        <ele>188.8</ele>
        <time>2023-04-27T14:09:38Z</time>
      </trkpt>
      <trkpt lat="48.70471" lon="1.78215">
        <ele>188.6</ele>
        <time>2023-04-27T14:09:39Z</time>
      </trkpt>
      <trkpt lat="48.70472" lon="1.78218">
        <ele>188.6</ele>
        <time>2023-04-27T14:09:40Z</time>
      </trkpt>
      <trkpt lat="48.70474" lon="1.78222">
        <ele>188.4</ele>
        <time>2023-04-27T14:09:42Z</time>
      </trkpt>
      <trkpt lat="48.70474" lon="1.78225">
        <ele>188.2</ele>
        <time>2023-04-27T14:09:44Z</time>
      </trkpt>
      <trkpt lat="48.70473" lon="1.78228">
        <ele>187.8</ele>
        <time>2023-04-27T14:09:46Z</time>
      </trkpt>
      <trkpt lat="48.70473" lon="1.78231">
        <ele>187.6</ele>
        <time>2023-04-27T14:09:48Z</time>
      </trkpt>
      <trkpt lat="48.70473" lon="1.78236">
        <ele>187.4</ele>
        <time>2023-04-27T14:09:50Z</time>
      </trkpt>
      <trkpt lat="48.70474" lon="1.7824">
        <ele>187</ele>
        <time>2023-04-27T14:09:52Z</time>
      </trkpt>
      <trkpt lat="48.70474" lon="1.78244">
        <ele>186.8</ele>
        <time>2023-04-27T14:09:54Z</time>
      </trkpt>
      <trkpt lat="48.70475" lon="1.78248">
        <ele>186.6</ele>
        <time>2023-04-27T14:09:56Z</time>
      </trkpt>
      <trkpt lat="48.70476" lon="1.78252">
        <ele>186.6</ele>
        <time>2023-04-27T14:09:58Z</time>
      </trkpt>
      <trkpt lat="48.70476" lon="1.78255">
        <ele>186.4</ele>
        <time>2023-04-27T14:10:00Z</time>
      </trkpt>
      <trkpt lat="48.70477" lon="1.78258">
        <ele>186.2</ele>
        <time>2023-04-27T14:10:02Z</time>
      </trkpt>
      <trkpt lat="48.70478" lon="1.78261">
        <ele>186.2</ele>
        <time>2023-04-27T14:10:04Z</time>
      </trkpt>
      <trkpt lat="48.70479" lon="1.78266">
        <ele>186</ele>
        <time>2023-04-27T14:10:06Z</time>
      </trkpt>
      <trkpt lat="48.70479" lon="1.78268">
        <ele>186</ele>
        <time>2023-04-27T14:10:07Z</time>
      </trkpt>
      <trkpt lat="48.70479" lon="1.78271">
        <ele>186</ele>
        <time>2023-04-27T14:10:08Z</time>
      </trkpt>
      <trkpt lat="48.7048" lon="1.78274">
        <ele>185.8</ele>
        <time>2023-04-27T14:10:09Z</time>
      </trkpt>
      <trkpt lat="48.7048" lon="1.78276">
        <ele>185.8</ele>
        <time>2023-04-27T14:10:10Z</time>
      </trkpt>
      <trkpt lat="48.70482" lon="1.78281">
        <ele>185.6</ele>
        <time>2023-04-27T14:10:12Z</time>
      </trkpt>
      <trkpt lat="48.70483" lon="1.78284">
        <ele>185.6</ele>
        <time>2023-04-27T14:10:13Z</time>
      </trkpt>
      <trkpt lat="48.70484" lon="1.78286">
        <ele>185.4</ele>
        <time>2023-04-27T14:10:14Z</time>
      </trkpt>
      <trkpt lat="48.70485" lon="1.78289">
        <ele>185.4</ele>
        <time>2023-04-27T14:10:15Z</time>
      </trkpt>
      <trkpt lat="48.70487" lon="1.78294">
        <ele>185.4</ele>
        <time>2023-04-27T14:10:17Z</time>
      </trkpt>
      <trkpt lat="48.70488" lon="1.78298">
        <ele>185.8</ele>
        <time>2023-04-27T14:10:19Z</time>
      </trkpt>
      <trkpt lat="48.70488" lon="1.78302">
        <ele>186.2</ele>
        <time>2023-04-27T14:10:21Z</time>
      </trkpt>
      <trkpt lat="48.70489" lon="1.78306">
        <ele>186.4</ele>
        <time>2023-04-27T14:10:23Z</time>
      </trkpt>
      <trkpt lat="48.70489" lon="1.7831">
        <ele>186.6</ele>
        <time>2023-04-27T14:10:25Z</time>
      </trkpt>
      <trkpt lat="48.7049" lon="1.78315">
        <ele>186.8</ele>
        <time>2023-04-27T14:10:27Z</time>
      </trkpt>
      <trkpt lat="48.7049" lon="1.7832">
        <ele>186.8</ele>
        <time>2023-04-27T14:10:29Z</time>
      </trkpt>
      <trkpt lat="48.70491" lon="1.78325">
        <ele>186.8</ele>
        <time>2023-04-27T14:10:31Z</time>
      </trkpt>
      <trkpt lat="48.70492" lon="1.78329">
        <ele>187</ele>
        <time>2023-04-27T14:10:33Z</time>
      </trkpt>
      <trkpt lat="48.70492" lon="1.78333">
        <ele>187</ele>
        <time>2023-04-27T14:10:35Z</time>
      </trkpt>
      <trkpt lat="48.70493" lon="1.78336">
        <ele>187</ele>
        <time>2023-04-27T14:10:36Z</time>
      </trkpt>
      <trkpt lat="48.70494" lon="1.78339">
        <ele>187</ele>
        <time>2023-04-27T14:10:37Z</time>
      </trkpt>
      <trkpt lat="48.70496" lon="1.78342">
        <ele>187</ele>
        <time>2023-04-27T14:10:38Z</time>
      </trkpt>
      <trkpt lat="48.70496" lon="1.78345">
        <ele>187</ele>
        <time>2023-04-27T14:10:39Z</time>
      </trkpt>
      <trkpt lat="48.70498" lon="1.78348">
        <ele>187</ele>
        <time>2023-04-27T14:10:40Z</time>
      </trkpt>
      <trkpt lat="48.70498" lon="1.78352">
        <ele>187</ele>
        <time>2023-04-27T14:10:41Z</time>
      </trkpt>
      <trkpt lat="48.70499" lon="1.78355">
        <ele>187</ele>
        <time>2023-04-27T14:10:42Z</time>
      </trkpt>
      <trkpt lat="48.70499" lon="1.78357">
        <ele>187.2</ele>
        <time>2023-04-27T14:10:43Z</time>
      </trkpt>
      <trkpt lat="48.70499" lon="1.78362">
        <ele>187.2</ele>
        <time>2023-04-27T14:10:45Z</time>
      </trkpt>
      <trkpt lat="48.70499" lon="1.78367">
        <ele>187</ele>
        <time>2023-04-27T14:10:47Z</time>
      </trkpt>
      <trkpt lat="48.70499" lon="1.78371">
        <ele>187</ele>
        <time>2023-04-27T14:10:49Z</time>
      </trkpt>
      <trkpt lat="48.70499" lon="1.78376">
        <ele>187</ele>
        <time>2023-04-27T14:10:51Z</time>
      </trkpt>
      <trkpt lat="48.70499" lon="1.7838">
        <ele>187</ele>
        <time>2023-04-27T14:10:53Z</time>
      </trkpt>
      <trkpt lat="48.705" lon="1.78384">
        <ele>187</ele>
        <time>2023-04-27T14:10:55Z</time>
      </trkpt>
      <trkpt lat="48.705" lon="1.78388">
        <ele>186.8</ele>
        <time>2023-04-27T14:10:57Z</time>
      </trkpt>
      <trkpt lat="48.70501" lon="1.78391">
        <ele>186.6</ele>
        <time>2023-04-27T14:10:59Z</time>
      </trkpt>
      <trkpt lat="48.70503" lon="1.78395">
        <ele>186.6</ele>
        <time>2023-04-27T14:11:01Z</time>
      </trkpt>
      <trkpt lat="48.70504" lon="1.78398">
        <ele>186.6</ele>
        <time>2023-04-27T14:11:02Z</time>
      </trkpt>
      <trkpt lat="48.70504" lon="1.78401">
        <ele>186.6</ele>
        <time>2023-04-27T14:11:03Z</time>
      </trkpt>
      <trkpt lat="48.70505" lon="1.78404">
        <ele>186.6</ele>
        <time>2023-04-27T14:11:04Z</time>
      </trkpt>
      <trkpt lat="48.70505" lon="1.78409">
        <ele>186.2</ele>
        <time>2023-04-27T14:11:06Z</time>
      </trkpt>
      <trkpt lat="48.70505" lon="1.78413">
        <ele>185.8</ele>
        <time>2023-04-27T14:11:08Z</time>
      </trkpt>
      <trkpt lat="48.70505" lon="1.78417">
        <ele>185.8</ele>
        <time>2023-04-27T14:11:10Z</time>
      </trkpt>
      <trkpt lat="48.70505" lon="1.7842">
        <ele>185.8</ele>
        <time>2023-04-27T14:11:12Z</time>
      </trkpt>
      <trkpt lat="48.70506" lon="1.78424">
        <ele>185.8</ele>
        <time>2023-04-27T14:11:14Z</time>
      </trkpt>
      <trkpt lat="48.70506" lon="1.78427">
        <ele>185.8</ele>
        <time>2023-04-27T14:11:16Z</time>
      </trkpt>
      <trkpt lat="48.70506" lon="1.78432">
        <ele>185.6</ele>
        <time>2023-04-27T14:11:18Z</time>
      </trkpt>
      <trkpt lat="48.70507" lon="1.78436">
        <ele>185.4</ele>
        <time>2023-04-27T14:11:20Z</time>
      </trkpt>
      <trkpt lat="48.70508" lon="1.78441">
        <ele>185.2</ele>
        <time>2023-04-27T14:11:22Z</time>
      </trkpt>
      <trkpt lat="48.70509" lon="1.78446">
        <ele>185.2</ele>
        <time>2023-04-27T14:11:24Z</time>
      </trkpt>
      <trkpt lat="48.7051" lon="1.78451">
        <ele>185</ele>
        <time>2023-04-27T14:11:26Z</time>
      </trkpt>
      <trkpt lat="48.7051" lon="1.78453">
        <ele>185</ele>
        <time>2023-04-27T14:11:27Z</time>
      </trkpt>
      <trkpt lat="48.70511" lon="1.78458">
        <ele>184.8</ele>
        <time>2023-04-27T14:11:29Z</time>
      </trkpt>
      <trkpt lat="48.70512" lon="1.78463">
        <ele>184.8</ele>
        <time>2023-04-27T14:11:31Z</time>
      </trkpt>
      <trkpt lat="48.70514" lon="1.78467">
        <ele>184.8</ele>
        <time>2023-04-27T14:11:33Z</time>
      </trkpt>
      <trkpt lat="48.70515" lon="1.78472">
        <ele>184.8</ele>
        <time>2023-04-27T14:11:35Z</time>
      </trkpt>
      <trkpt lat="48.70515" lon="1.78476">
        <ele>184.8</ele>
        <time>2023-04-27T14:11:37Z</time>
      </trkpt>
      <trkpt lat="48.70515" lon="1.7848">
        <ele>184.8</ele>
        <time>2023-04-27T14:11:39Z</time>
      </trkpt>
      <trkpt lat="48.70514" lon="1.78484">
        <ele>184.8</ele>
        <time>2023-04-27T14:11:41Z</time>
      </trkpt>
      <trkpt lat="48.70515" lon="1.78489">
        <ele>184.8</ele>
        <time>2023-04-27T14:11:43Z</time>
      </trkpt>
      <trkpt lat="48.70516" lon="1.78493">
        <ele>184.8</ele>
        <time>2023-04-27T14:11:45Z</time>
      </trkpt>
      <trkpt lat="48.70516" lon="1.78498">
        <ele>185</ele>
        <time>2023-04-27T14:11:47Z</time>
      </trkpt>
      <trkpt lat="48.70516" lon="1.78502">
        <ele>185</ele>
        <time>2023-04-27T14:11:49Z</time>
      </trkpt>
      <trkpt lat="48.70517" lon="1.78506">
        <ele>185</ele>
        <time>2023-04-27T14:11:51Z</time>
      </trkpt>
      <trkpt lat="48.70518" lon="1.78509">
        <ele>184.8</ele>
        <time>2023-04-27T14:11:53Z</time>
      </trkpt>
      <trkpt lat="48.70518" lon="1.78513">
        <ele>184.8</ele>
        <time>2023-04-27T14:11:55Z</time>
      </trkpt>
      <trkpt lat="48.7052" lon="1.78516">
        <ele>185</ele>
        <time>2023-04-27T14:11:57Z</time>
      </trkpt>
      <trkpt lat="48.7052" lon="1.7852">
        <ele>185.2</ele>
        <time>2023-04-27T14:11:59Z</time>
      </trkpt>
      <trkpt lat="48.70521" lon="1.78525">
        <ele>185.2</ele>
        <time>2023-04-27T14:12:01Z</time>
      </trkpt>
      <trkpt lat="48.70522" lon="1.78528">
        <ele>185.2</ele>
        <time>2023-04-27T14:12:02Z</time>
      </trkpt>
      <trkpt lat="48.70522" lon="1.78531">
        <ele>185.4</ele>
        <time>2023-04-27T14:12:03Z</time>
      </trkpt>
      <trkpt lat="48.70523" lon="1.78534">
        <ele>185.4</ele>
        <time>2023-04-27T14:12:04Z</time>
      </trkpt>
      <trkpt lat="48.70524" lon="1.78538">
        <ele>185.6</ele>
        <time>2023-04-27T14:12:05Z</time>
      </trkpt>
      <trkpt lat="48.70525" lon="1.78541">
        <ele>185.6</ele>
        <time>2023-04-27T14:12:06Z</time>
      </trkpt>
      <trkpt lat="48.70526" lon="1.78545">
        <ele>185.8</ele>
        <time>2023-04-27T14:12:07Z</time>
      </trkpt>
      <trkpt lat="48.70527" lon="1.78548">
        <ele>185.8</ele>
        <time>2023-04-27T14:12:08Z</time>
      </trkpt>
      <trkpt lat="48.70528" lon="1.7855">
        <ele>185.8</ele>
        <time>2023-04-27T14:12:09Z</time>
      </trkpt>
      <trkpt lat="48.7053" lon="1.78553">
        <ele>185.8</ele>
        <time>2023-04-27T14:12:10Z</time>
      </trkpt>
      <trkpt lat="48.70531" lon="1.78557">
        <ele>186</ele>
        <time>2023-04-27T14:12:12Z</time>
      </trkpt>
      <trkpt lat="48.70532" lon="1.78562">
        <ele>186</ele>
        <time>2023-04-27T14:12:14Z</time>
      </trkpt>
      <trkpt lat="48.70533" lon="1.78566">
        <ele>186.2</ele>
        <time>2023-04-27T14:12:16Z</time>
      </trkpt>
      <trkpt lat="48.70532" lon="1.78571">
        <ele>186.2</ele>
        <time>2023-04-27T14:12:18Z</time>
      </trkpt>
      <trkpt lat="48.70532" lon="1.78575">
        <ele>186.2</ele>
        <time>2023-04-27T14:12:20Z</time>
      </trkpt>
      <trkpt lat="48.7053" lon="1.78579">
        <ele>186.4</ele>
        <time>2023-04-27T14:12:22Z</time>
      </trkpt>
      <trkpt lat="48.70529" lon="1.78582">
        <ele>186.4</ele>
        <time>2023-04-27T14:12:24Z</time>
      </trkpt>
    </trkseg>
  </trk>
</gpx>